<?xml version="1.0" encoding="UTF-8" standalone="no" ?>
<gpx xmlns="http://www.topografix.com/GPX/1/1" xmlns:xsi="http://www.w3.org/2001/XMLSchema-instance" xsi:schemaLocation="http://www.topografix.com/GPX/1/1 http://www.topografix.com/GPX/1/1/gpx.xsd" version="1.1" creator="VisuGPX - https://www.visugpx.com">
  <metadata>
    <name>Saint-Julien Cyclisme 15 août 2019</name>
  </metadata>
  <trk>
    <name><![CDATA[Saint-Julien Cyclisme]]></name>
    <trkseg>
      <trkpt lat="46.0215" lon="4.67367">
        <ele>184.39999389648</ele>
        <time>2019-08-17T05:40:04.000Z</time>
      </trkpt>
      <trkpt lat="46.02149" lon="4.6737">
        <ele>184.39999389648</ele>
        <time>2019-08-17T05:40:08.000Z</time>
      </trkpt>
      <trkpt lat="46.02149" lon="4.6737">
        <ele>183.80000305176</ele>
        <time>2019-08-17T05:40:26.000Z</time>
      </trkpt>
      <trkpt lat="46.02149" lon="4.67373">
        <ele>183.80000305176</ele>
        <time>2019-08-17T05:40:27.000Z</time>
      </trkpt>
      <trkpt lat="46.02145" lon="4.6739">
        <ele>183.80000305176</ele>
        <time>2019-08-17T05:40:35.000Z</time>
      </trkpt>
      <trkpt lat="46.02144" lon="4.67396">
        <ele>183.80000305176</ele>
        <time>2019-08-17T05:40:38.000Z</time>
      </trkpt>
      <trkpt lat="46.02144" lon="4.67401">
        <ele>183.80000305176</ele>
        <time>2019-08-17T05:40:41.000Z</time>
      </trkpt>
      <trkpt lat="46.02142" lon="4.67414">
        <ele>183.80000305176</ele>
        <time>2019-08-17T05:40:47.000Z</time>
      </trkpt>
      <trkpt lat="46.0214" lon="4.67426">
        <ele>183.80000305176</ele>
        <time>2019-08-17T05:40:53.000Z</time>
      </trkpt>
      <trkpt lat="46.02137" lon="4.6744">
        <ele>183.80000305176</ele>
        <time>2019-08-17T05:41:00.000Z</time>
      </trkpt>
      <trkpt lat="46.02133" lon="4.67454">
        <ele>183.80000305176</ele>
        <time>2019-08-17T05:41:07.000Z</time>
      </trkpt>
      <trkpt lat="46.02133" lon="4.67469">
        <ele>183.80000305176</ele>
        <time>2019-08-17T05:41:14.000Z</time>
      </trkpt>
      <trkpt lat="46.02132" lon="4.67475">
        <ele>183.80000305176</ele>
        <time>2019-08-17T05:41:19.000Z</time>
      </trkpt>
      <trkpt lat="46.02132" lon="4.67477">
        <ele>183.80000305176</ele>
        <time>2019-08-17T05:41:21.000Z</time>
      </trkpt>
      <trkpt lat="46.02131" lon="4.6748">
        <ele>183.80000305176</ele>
        <time>2019-08-17T05:41:22.000Z</time>
      </trkpt>
      <trkpt lat="46.02126" lon="4.6749">
        <ele>183.80000305176</ele>
        <time>2019-08-17T05:41:25.000Z</time>
      </trkpt>
      <trkpt lat="46.02123" lon="4.67493">
        <ele>183.80000305176</ele>
        <time>2019-08-17T05:41:26.000Z</time>
      </trkpt>
      <trkpt lat="46.02101" lon="4.67523">
        <ele>183.80000305176</ele>
        <time>2019-08-17T05:41:33.000Z</time>
      </trkpt>
      <trkpt lat="46.02086" lon="4.67543">
        <ele>184.19999694824</ele>
        <time>2019-08-17T05:41:38.000Z</time>
      </trkpt>
      <trkpt lat="46.02082" lon="4.67546">
        <ele>184.60000610352</ele>
        <time>2019-08-17T05:41:39.000Z</time>
      </trkpt>
      <trkpt lat="46.02079" lon="4.6755">
        <ele>185</ele>
        <time>2019-08-17T05:41:40.000Z</time>
      </trkpt>
      <trkpt lat="46.02076" lon="4.67554">
        <ele>185.39999389648</ele>
        <time>2019-08-17T05:41:41.000Z</time>
      </trkpt>
      <trkpt lat="46.02073" lon="4.67558">
        <ele>185.80000305176</ele>
        <time>2019-08-17T05:41:42.000Z</time>
      </trkpt>
      <trkpt lat="46.02053" lon="4.67584">
        <ele>185.80000305176</ele>
        <time>2019-08-17T05:41:49.000Z</time>
      </trkpt>
      <trkpt lat="46.02032" lon="4.67612">
        <ele>185.80000305176</ele>
        <time>2019-08-17T05:41:56.000Z</time>
      </trkpt>
      <trkpt lat="46.02005" lon="4.67648">
        <ele>185.80000305176</ele>
        <time>2019-08-17T05:42:04.000Z</time>
      </trkpt>
      <trkpt lat="46.01984" lon="4.67689">
        <ele>185.80000305176</ele>
        <time>2019-08-17T05:42:11.000Z</time>
      </trkpt>
      <trkpt lat="46.01963" lon="4.67747">
        <ele>185.80000305176</ele>
        <time>2019-08-17T05:42:19.000Z</time>
      </trkpt>
      <trkpt lat="46.01953" lon="4.67803">
        <ele>185.80000305176</ele>
        <time>2019-08-17T05:42:26.000Z</time>
      </trkpt>
      <trkpt lat="46.0195" lon="4.67829">
        <ele>185.19999694824</ele>
        <time>2019-08-17T05:42:29.000Z</time>
      </trkpt>
      <trkpt lat="46.01949" lon="4.67838">
        <ele>184.80000305176</ele>
        <time>2019-08-17T05:42:30.000Z</time>
      </trkpt>
      <trkpt lat="46.01947" lon="4.67847">
        <ele>184.39999389648</ele>
        <time>2019-08-17T05:42:31.000Z</time>
      </trkpt>
      <trkpt lat="46.01946" lon="4.67856">
        <ele>184</ele>
        <time>2019-08-17T05:42:32.000Z</time>
      </trkpt>
      <trkpt lat="46.01945" lon="4.67865">
        <ele>183.39999389648</ele>
        <time>2019-08-17T05:42:33.000Z</time>
      </trkpt>
      <trkpt lat="46.01943" lon="4.67882">
        <ele>183.39999389648</ele>
        <time>2019-08-17T05:42:35.000Z</time>
      </trkpt>
      <trkpt lat="46.01937" lon="4.67925">
        <ele>183</ele>
        <time>2019-08-17T05:42:40.000Z</time>
      </trkpt>
      <trkpt lat="46.01936" lon="4.67934">
        <ele>182.60000610352</ele>
        <time>2019-08-17T05:42:41.000Z</time>
      </trkpt>
      <trkpt lat="46.01935" lon="4.67942">
        <ele>182.19999694824</ele>
        <time>2019-08-17T05:42:42.000Z</time>
      </trkpt>
      <trkpt lat="46.01934" lon="4.6795">
        <ele>181.80000305176</ele>
        <time>2019-08-17T05:42:43.000Z</time>
      </trkpt>
      <trkpt lat="46.01933" lon="4.67959">
        <ele>181.39999389648</ele>
        <time>2019-08-17T05:42:44.000Z</time>
      </trkpt>
      <trkpt lat="46.01926" lon="4.68017">
        <ele>181.39999389648</ele>
        <time>2019-08-17T05:42:51.000Z</time>
      </trkpt>
      <trkpt lat="46.01923" lon="4.68035">
        <ele>181</ele>
        <time>2019-08-17T05:42:53.000Z</time>
      </trkpt>
      <trkpt lat="46.01922" lon="4.68045">
        <ele>180.60000610352</ele>
        <time>2019-08-17T05:42:54.000Z</time>
      </trkpt>
      <trkpt lat="46.01921" lon="4.68055">
        <ele>180.19999694824</ele>
        <time>2019-08-17T05:42:55.000Z</time>
      </trkpt>
      <trkpt lat="46.01919" lon="4.68064">
        <ele>179.60000610352</ele>
        <time>2019-08-17T05:42:56.000Z</time>
      </trkpt>
      <trkpt lat="46.01918" lon="4.68073">
        <ele>179.19999694824</ele>
        <time>2019-08-17T05:42:57.000Z</time>
      </trkpt>
      <trkpt lat="46.01915" lon="4.68092">
        <ele>179.19999694824</ele>
        <time>2019-08-17T05:42:59.000Z</time>
      </trkpt>
      <trkpt lat="46.01911" lon="4.68122">
        <ele>178.80000305176</ele>
        <time>2019-08-17T05:43:02.000Z</time>
      </trkpt>
      <trkpt lat="46.01908" lon="4.68132">
        <ele>178.39999389648</ele>
        <time>2019-08-17T05:43:03.000Z</time>
      </trkpt>
      <trkpt lat="46.01906" lon="4.68142">
        <ele>178</ele>
        <time>2019-08-17T05:43:04.000Z</time>
      </trkpt>
      <trkpt lat="46.01904" lon="4.68152">
        <ele>177.60000610352</ele>
        <time>2019-08-17T05:43:05.000Z</time>
      </trkpt>
      <trkpt lat="46.01901" lon="4.68162">
        <ele>177.19999694824</ele>
        <time>2019-08-17T05:43:06.000Z</time>
      </trkpt>
      <trkpt lat="46.01887" lon="4.68211">
        <ele>176.80000305176</ele>
        <time>2019-08-17T05:43:11.000Z</time>
      </trkpt>
      <trkpt lat="46.01883" lon="4.68221">
        <ele>176.39999389648</ele>
        <time>2019-08-17T05:43:12.000Z</time>
      </trkpt>
      <trkpt lat="46.01879" lon="4.6823">
        <ele>176</ele>
        <time>2019-08-17T05:43:13.000Z</time>
      </trkpt>
      <trkpt lat="46.01874" lon="4.68239">
        <ele>175.60000610352</ele>
        <time>2019-08-17T05:43:14.000Z</time>
      </trkpt>
      <trkpt lat="46.0187" lon="4.68249">
        <ele>175.19999694824</ele>
        <time>2019-08-17T05:43:15.000Z</time>
      </trkpt>
      <trkpt lat="46.0186" lon="4.68268">
        <ele>174.80000305176</ele>
        <time>2019-08-17T05:43:17.000Z</time>
      </trkpt>
      <trkpt lat="46.01855" lon="4.68277">
        <ele>174.19999694824</ele>
        <time>2019-08-17T05:43:18.000Z</time>
      </trkpt>
      <trkpt lat="46.0185" lon="4.68286">
        <ele>173.80000305176</ele>
        <time>2019-08-17T05:43:19.000Z</time>
      </trkpt>
      <trkpt lat="46.01844" lon="4.68295">
        <ele>173.19999694824</ele>
        <time>2019-08-17T05:43:20.000Z</time>
      </trkpt>
      <trkpt lat="46.01839" lon="4.68304">
        <ele>172.80000305176</ele>
        <time>2019-08-17T05:43:21.000Z</time>
      </trkpt>
      <trkpt lat="46.01834" lon="4.68313">
        <ele>172.39999389648</ele>
        <time>2019-08-17T05:43:22.000Z</time>
      </trkpt>
      <trkpt lat="46.01829" lon="4.68321">
        <ele>172</ele>
        <time>2019-08-17T05:43:23.000Z</time>
      </trkpt>
      <trkpt lat="46.01823" lon="4.68331">
        <ele>171.60000610352</ele>
        <time>2019-08-17T05:43:24.000Z</time>
      </trkpt>
      <trkpt lat="46.01818" lon="4.6834">
        <ele>171.19999694824</ele>
        <time>2019-08-17T05:43:25.000Z</time>
      </trkpt>
      <trkpt lat="46.01814" lon="4.68349">
        <ele>170.80000305176</ele>
        <time>2019-08-17T05:43:26.000Z</time>
      </trkpt>
      <trkpt lat="46.01809" lon="4.68359">
        <ele>170.80000305176</ele>
        <time>2019-08-17T05:43:27.000Z</time>
      </trkpt>
      <trkpt lat="46.01795" lon="4.68402">
        <ele>170.39999389648</ele>
        <time>2019-08-17T05:43:32.000Z</time>
      </trkpt>
      <trkpt lat="46.01794" lon="4.6841">
        <ele>170</ele>
        <time>2019-08-17T05:43:33.000Z</time>
      </trkpt>
      <trkpt lat="46.01792" lon="4.68418">
        <ele>169.39999389648</ele>
        <time>2019-08-17T05:43:34.000Z</time>
      </trkpt>
      <trkpt lat="46.01791" lon="4.68426">
        <ele>169</ele>
        <time>2019-08-17T05:43:35.000Z</time>
      </trkpt>
      <trkpt lat="46.0179" lon="4.68434">
        <ele>168.60000610352</ele>
        <time>2019-08-17T05:43:36.000Z</time>
      </trkpt>
      <trkpt lat="46.01786" lon="4.68458">
        <ele>168.60000610352</ele>
        <time>2019-08-17T05:43:39.000Z</time>
      </trkpt>
      <trkpt lat="46.0178" lon="4.68518">
        <ele>168.60000610352</ele>
        <time>2019-08-17T05:43:47.000Z</time>
      </trkpt>
      <trkpt lat="46.01773" lon="4.6858">
        <ele>168.60000610352</ele>
        <time>2019-08-17T05:43:56.000Z</time>
      </trkpt>
      <trkpt lat="46.0177" lon="4.68615">
        <ele>169.19999694824</ele>
        <time>2019-08-17T05:44:01.000Z</time>
      </trkpt>
      <trkpt lat="46.01769" lon="4.68622">
        <ele>169.60000610352</ele>
        <time>2019-08-17T05:44:02.000Z</time>
      </trkpt>
      <trkpt lat="46.01768" lon="4.68629">
        <ele>170</ele>
        <time>2019-08-17T05:44:03.000Z</time>
      </trkpt>
      <trkpt lat="46.01766" lon="4.68635">
        <ele>170.39999389648</ele>
        <time>2019-08-17T05:44:04.000Z</time>
      </trkpt>
      <trkpt lat="46.01765" lon="4.68642">
        <ele>170.80000305176</ele>
        <time>2019-08-17T05:44:05.000Z</time>
      </trkpt>
      <trkpt lat="46.01755" lon="4.6868">
        <ele>170.80000305176</ele>
        <time>2019-08-17T05:44:11.000Z</time>
      </trkpt>
      <trkpt lat="46.01736" lon="4.6873">
        <ele>170.80000305176</ele>
        <time>2019-08-17T05:44:19.000Z</time>
      </trkpt>
      <trkpt lat="46.01719" lon="4.68769">
        <ele>170.80000305176</ele>
        <time>2019-08-17T05:44:25.000Z</time>
      </trkpt>
      <trkpt lat="46.017" lon="4.68811">
        <ele>170.80000305176</ele>
        <time>2019-08-17T05:44:31.000Z</time>
      </trkpt>
      <trkpt lat="46.01685" lon="4.68851">
        <ele>170.80000305176</ele>
        <time>2019-08-17T05:44:37.000Z</time>
      </trkpt>
      <trkpt lat="46.01668" lon="4.68893">
        <ele>170.80000305176</ele>
        <time>2019-08-17T05:44:44.000Z</time>
      </trkpt>
      <trkpt lat="46.01666" lon="4.68899">
        <ele>170.80000305176</ele>
        <time>2019-08-17T05:44:45.000Z</time>
      </trkpt>
      <trkpt lat="46.01662" lon="4.68911">
        <ele>170.80000305176</ele>
        <time>2019-08-17T05:44:47.000Z</time>
      </trkpt>
      <trkpt lat="46.01656" lon="4.68929">
        <ele>170.80000305176</ele>
        <time>2019-08-17T05:44:50.000Z</time>
      </trkpt>
      <trkpt lat="46.01642" lon="4.6897">
        <ele>170.80000305176</ele>
        <time>2019-08-17T05:44:57.000Z</time>
      </trkpt>
      <trkpt lat="46.01639" lon="4.68976">
        <ele>170.80000305176</ele>
        <time>2019-08-17T05:44:58.000Z</time>
      </trkpt>
      <trkpt lat="46.01634" lon="4.6899">
        <ele>170.80000305176</ele>
        <time>2019-08-17T05:45:00.000Z</time>
      </trkpt>
      <trkpt lat="46.01629" lon="4.69004">
        <ele>170.80000305176</ele>
        <time>2019-08-17T05:45:02.000Z</time>
      </trkpt>
      <trkpt lat="46.01604" lon="4.69059">
        <ele>170.80000305176</ele>
        <time>2019-08-17T05:45:10.000Z</time>
      </trkpt>
      <trkpt lat="46.01581" lon="4.69103">
        <ele>170.80000305176</ele>
        <time>2019-08-17T05:45:17.000Z</time>
      </trkpt>
      <trkpt lat="46.01558" lon="4.69159">
        <ele>170.80000305176</ele>
        <time>2019-08-17T05:45:25.000Z</time>
      </trkpt>
      <trkpt lat="46.01545" lon="4.69185">
        <ele>170.80000305176</ele>
        <time>2019-08-17T05:45:30.000Z</time>
      </trkpt>
      <trkpt lat="46.01542" lon="4.69188">
        <ele>170.80000305176</ele>
        <time>2019-08-17T05:45:31.000Z</time>
      </trkpt>
      <trkpt lat="46.01533" lon="4.69207">
        <ele>170.80000305176</ele>
        <time>2019-08-17T05:45:34.000Z</time>
      </trkpt>
      <trkpt lat="46.01531" lon="4.69214">
        <ele>170.80000305176</ele>
        <time>2019-08-17T05:45:35.000Z</time>
      </trkpt>
      <trkpt lat="46.01528" lon="4.69221">
        <ele>170.80000305176</ele>
        <time>2019-08-17T05:45:36.000Z</time>
      </trkpt>
      <trkpt lat="46.01515" lon="4.69242">
        <ele>170.80000305176</ele>
        <time>2019-08-17T05:45:39.000Z</time>
      </trkpt>
      <trkpt lat="46.01493" lon="4.69303">
        <ele>170.80000305176</ele>
        <time>2019-08-17T05:45:47.000Z</time>
      </trkpt>
      <trkpt lat="46.01479" lon="4.69356">
        <ele>170.80000305176</ele>
        <time>2019-08-17T05:45:54.000Z</time>
      </trkpt>
      <trkpt lat="46.01466" lon="4.69417">
        <ele>170.80000305176</ele>
        <time>2019-08-17T05:46:02.000Z</time>
      </trkpt>
      <trkpt lat="46.01451" lon="4.69491">
        <ele>170.80000305176</ele>
        <time>2019-08-17T05:46:11.000Z</time>
      </trkpt>
      <trkpt lat="46.01446" lon="4.69508">
        <ele>170.39999389648</ele>
        <time>2019-08-17T05:46:13.000Z</time>
      </trkpt>
      <trkpt lat="46.01442" lon="4.69516">
        <ele>170</ele>
        <time>2019-08-17T05:46:14.000Z</time>
      </trkpt>
      <trkpt lat="46.01439" lon="4.69523">
        <ele>169.60000610352</ele>
        <time>2019-08-17T05:46:15.000Z</time>
      </trkpt>
      <trkpt lat="46.01435" lon="4.6953">
        <ele>169.19999694824</ele>
        <time>2019-08-17T05:46:16.000Z</time>
      </trkpt>
      <trkpt lat="46.01431" lon="4.69538">
        <ele>168.80000305176</ele>
        <time>2019-08-17T05:46:17.000Z</time>
      </trkpt>
      <trkpt lat="46.01405" lon="4.69579">
        <ele>168.80000305176</ele>
        <time>2019-08-17T05:46:23.000Z</time>
      </trkpt>
      <trkpt lat="46.01382" lon="4.69622">
        <ele>168.80000305176</ele>
        <time>2019-08-17T05:46:29.000Z</time>
      </trkpt>
      <trkpt lat="46.01361" lon="4.69677">
        <ele>168.80000305176</ele>
        <time>2019-08-17T05:46:37.000Z</time>
      </trkpt>
      <trkpt lat="46.01347" lon="4.69732">
        <ele>168.80000305176</ele>
        <time>2019-08-17T05:46:45.000Z</time>
      </trkpt>
      <trkpt lat="46.01342" lon="4.69753">
        <ele>169.19999694824</ele>
        <time>2019-08-17T05:46:48.000Z</time>
      </trkpt>
      <trkpt lat="46.0134" lon="4.6976">
        <ele>169.60000610352</ele>
        <time>2019-08-17T05:46:49.000Z</time>
      </trkpt>
      <trkpt lat="46.01339" lon="4.69767">
        <ele>170</ele>
        <time>2019-08-17T05:46:50.000Z</time>
      </trkpt>
      <trkpt lat="46.01337" lon="4.69774">
        <ele>170.39999389648</ele>
        <time>2019-08-17T05:46:51.000Z</time>
      </trkpt>
      <trkpt lat="46.01336" lon="4.6978">
        <ele>170.80000305176</ele>
        <time>2019-08-17T05:46:52.000Z</time>
      </trkpt>
      <trkpt lat="46.01322" lon="4.69838">
        <ele>170.80000305176</ele>
        <time>2019-08-17T05:47:00.000Z</time>
      </trkpt>
      <trkpt lat="46.01308" lon="4.69899">
        <ele>170.80000305176</ele>
        <time>2019-08-17T05:47:08.000Z</time>
      </trkpt>
      <trkpt lat="46.01294" lon="4.69953">
        <ele>170.80000305176</ele>
        <time>2019-08-17T05:47:15.000Z</time>
      </trkpt>
      <trkpt lat="46.01288" lon="4.69967">
        <ele>170.80000305176</ele>
        <time>2019-08-17T05:47:17.000Z</time>
      </trkpt>
      <trkpt lat="46.01275" lon="4.6998">
        <ele>170.80000305176</ele>
        <time>2019-08-17T05:47:20.000Z</time>
      </trkpt>
      <trkpt lat="46.01254" lon="4.69987">
        <ele>170.80000305176</ele>
        <time>2019-08-17T05:47:24.000Z</time>
      </trkpt>
      <trkpt lat="46.01207" lon="4.69991">
        <ele>170.80000305176</ele>
        <time>2019-08-17T05:47:32.000Z</time>
      </trkpt>
      <trkpt lat="46.01201" lon="4.69991">
        <ele>171.19999694824</ele>
        <time>2019-08-17T05:47:33.000Z</time>
      </trkpt>
      <trkpt lat="46.01196" lon="4.69992">
        <ele>171.60000610352</ele>
        <time>2019-08-17T05:47:34.000Z</time>
      </trkpt>
      <trkpt lat="46.0119" lon="4.69992">
        <ele>172</ele>
        <time>2019-08-17T05:47:35.000Z</time>
      </trkpt>
      <trkpt lat="46.01185" lon="4.69992">
        <ele>172.39999389648</ele>
        <time>2019-08-17T05:47:36.000Z</time>
      </trkpt>
      <trkpt lat="46.0118" lon="4.69993">
        <ele>172.80000305176</ele>
        <time>2019-08-17T05:47:37.000Z</time>
      </trkpt>
      <trkpt lat="46.01165" lon="4.69994">
        <ele>172.80000305176</ele>
        <time>2019-08-17T05:47:40.000Z</time>
      </trkpt>
      <trkpt lat="46.01128" lon="4.70001">
        <ele>172.80000305176</ele>
        <time>2019-08-17T05:47:47.000Z</time>
      </trkpt>
      <trkpt lat="46.01095" lon="4.70021">
        <ele>172.80000305176</ele>
        <time>2019-08-17T05:47:53.000Z</time>
      </trkpt>
      <trkpt lat="46.01079" lon="4.70038">
        <ele>172.80000305176</ele>
        <time>2019-08-17T05:47:56.000Z</time>
      </trkpt>
      <trkpt lat="46.01069" lon="4.70052">
        <ele>172.80000305176</ele>
        <time>2019-08-17T05:47:58.000Z</time>
      </trkpt>
      <trkpt lat="46.0106" lon="4.70068">
        <ele>172.80000305176</ele>
        <time>2019-08-17T05:48:00.000Z</time>
      </trkpt>
      <trkpt lat="46.01049" lon="4.70093">
        <ele>172.39999389648</ele>
        <time>2019-08-17T05:48:03.000Z</time>
      </trkpt>
      <trkpt lat="46.01046" lon="4.70101">
        <ele>172</ele>
        <time>2019-08-17T05:48:04.000Z</time>
      </trkpt>
      <trkpt lat="46.01043" lon="4.70109">
        <ele>171.60000610352</ele>
        <time>2019-08-17T05:48:05.000Z</time>
      </trkpt>
      <trkpt lat="46.01039" lon="4.70117">
        <ele>171.19999694824</ele>
        <time>2019-08-17T05:48:06.000Z</time>
      </trkpt>
      <trkpt lat="46.01035" lon="4.70125">
        <ele>170.80000305176</ele>
        <time>2019-08-17T05:48:07.000Z</time>
      </trkpt>
      <trkpt lat="46.01022" lon="4.70156">
        <ele>170.80000305176</ele>
        <time>2019-08-17T05:48:11.000Z</time>
      </trkpt>
      <trkpt lat="46.01004" lon="4.702">
        <ele>170.80000305176</ele>
        <time>2019-08-17T05:48:17.000Z</time>
      </trkpt>
      <trkpt lat="46.00983" lon="4.70249">
        <ele>170.80000305176</ele>
        <time>2019-08-17T05:48:24.000Z</time>
      </trkpt>
      <trkpt lat="46.00967" lon="4.70286">
        <ele>170.39999389648</ele>
        <time>2019-08-17T05:48:29.000Z</time>
      </trkpt>
      <trkpt lat="46.00963" lon="4.70294">
        <ele>169.80000305176</ele>
        <time>2019-08-17T05:48:30.000Z</time>
      </trkpt>
      <trkpt lat="46.00959" lon="4.70302">
        <ele>169.39999389648</ele>
        <time>2019-08-17T05:48:31.000Z</time>
      </trkpt>
      <trkpt lat="46.00956" lon="4.7031">
        <ele>169</ele>
        <time>2019-08-17T05:48:32.000Z</time>
      </trkpt>
      <trkpt lat="46.00952" lon="4.70317">
        <ele>168.60000610352</ele>
        <time>2019-08-17T05:48:33.000Z</time>
      </trkpt>
      <trkpt lat="46.00937" lon="4.70348">
        <ele>168.60000610352</ele>
        <time>2019-08-17T05:48:37.000Z</time>
      </trkpt>
      <trkpt lat="46.00925" lon="4.70369">
        <ele>168.19999694824</ele>
        <time>2019-08-17T05:48:40.000Z</time>
      </trkpt>
      <trkpt lat="46.00921" lon="4.70376">
        <ele>167.80000305176</ele>
        <time>2019-08-17T05:48:41.000Z</time>
      </trkpt>
      <trkpt lat="46.00917" lon="4.70382">
        <ele>167.39999389648</ele>
        <time>2019-08-17T05:48:42.000Z</time>
      </trkpt>
      <trkpt lat="46.00913" lon="4.70388">
        <ele>167</ele>
        <time>2019-08-17T05:48:43.000Z</time>
      </trkpt>
      <trkpt lat="46.00908" lon="4.70394">
        <ele>166.60000610352</ele>
        <time>2019-08-17T05:48:44.000Z</time>
      </trkpt>
      <trkpt lat="46.00884" lon="4.7042">
        <ele>166.60000610352</ele>
        <time>2019-08-17T05:48:49.000Z</time>
      </trkpt>
      <trkpt lat="46.00844" lon="4.70447">
        <ele>166.60000610352</ele>
        <time>2019-08-17T05:48:56.000Z</time>
      </trkpt>
      <trkpt lat="46.00809" lon="4.70465">
        <ele>166.60000610352</ele>
        <time>2019-08-17T05:49:02.000Z</time>
      </trkpt>
      <trkpt lat="46.00773" lon="4.70477">
        <ele>166.60000610352</ele>
        <time>2019-08-17T05:49:08.000Z</time>
      </trkpt>
      <trkpt lat="46.00752" lon="4.70485">
        <ele>166.60000610352</ele>
        <time>2019-08-17T05:49:12.000Z</time>
      </trkpt>
      <trkpt lat="46.00744" lon="4.70494">
        <ele>166.60000610352</ele>
        <time>2019-08-17T05:49:14.000Z</time>
      </trkpt>
      <trkpt lat="46.00732" lon="4.70497">
        <ele>166.60000610352</ele>
        <time>2019-08-17T05:49:17.000Z</time>
      </trkpt>
      <trkpt lat="46.00728" lon="4.70496">
        <ele>166.60000610352</ele>
        <time>2019-08-17T05:49:18.000Z</time>
      </trkpt>
      <trkpt lat="46.00705" lon="4.70494">
        <ele>166.60000610352</ele>
        <time>2019-08-17T05:49:23.000Z</time>
      </trkpt>
      <trkpt lat="46.00688" lon="4.70493">
        <ele>166.60000610352</ele>
        <time>2019-08-17T05:49:27.000Z</time>
      </trkpt>
      <trkpt lat="46.00674" lon="4.70493">
        <ele>166.60000610352</ele>
        <time>2019-08-17T05:49:30.000Z</time>
      </trkpt>
      <trkpt lat="46.00647" lon="4.70495">
        <ele>166.60000610352</ele>
        <time>2019-08-17T05:49:36.000Z</time>
      </trkpt>
      <trkpt lat="46.00607" lon="4.70502">
        <ele>166.60000610352</ele>
        <time>2019-08-17T05:49:44.000Z</time>
      </trkpt>
      <trkpt lat="46.00571" lon="4.70508">
        <ele>166.60000610352</ele>
        <time>2019-08-17T05:49:51.000Z</time>
      </trkpt>
      <trkpt lat="46.00548" lon="4.70512">
        <ele>166.19999694824</ele>
        <time>2019-08-17T05:49:55.000Z</time>
      </trkpt>
      <trkpt lat="46.00542" lon="4.70512">
        <ele>165.80000305176</ele>
        <time>2019-08-17T05:49:56.000Z</time>
      </trkpt>
      <trkpt lat="46.00537" lon="4.70513">
        <ele>165.19999694824</ele>
        <time>2019-08-17T05:49:57.000Z</time>
      </trkpt>
      <trkpt lat="46.00531" lon="4.70513">
        <ele>164.80000305176</ele>
        <time>2019-08-17T05:49:58.000Z</time>
      </trkpt>
      <trkpt lat="46.00525" lon="4.70512">
        <ele>164.39999389648</ele>
        <time>2019-08-17T05:49:59.000Z</time>
      </trkpt>
      <trkpt lat="46.00497" lon="4.70512">
        <ele>164.39999389648</ele>
        <time>2019-08-17T05:50:04.000Z</time>
      </trkpt>
      <trkpt lat="46.00479" lon="4.70506">
        <ele>164.39999389648</ele>
        <time>2019-08-17T05:50:07.000Z</time>
      </trkpt>
      <trkpt lat="46.00473" lon="4.70507">
        <ele>164.39999389648</ele>
        <time>2019-08-17T05:50:08.000Z</time>
      </trkpt>
      <trkpt lat="46.00461" lon="4.70505">
        <ele>164.39999389648</ele>
        <time>2019-08-17T05:50:10.000Z</time>
      </trkpt>
      <trkpt lat="46.00448" lon="4.70498">
        <ele>164</ele>
        <time>2019-08-17T05:50:12.000Z</time>
      </trkpt>
      <trkpt lat="46.00442" lon="4.70495">
        <ele>163.60000610352</ele>
        <time>2019-08-17T05:50:13.000Z</time>
      </trkpt>
      <trkpt lat="46.00435" lon="4.70494">
        <ele>163</ele>
        <time>2019-08-17T05:50:14.000Z</time>
      </trkpt>
      <trkpt lat="46.00428" lon="4.70492">
        <ele>162.60000610352</ele>
        <time>2019-08-17T05:50:15.000Z</time>
      </trkpt>
      <trkpt lat="46.00422" lon="4.70491">
        <ele>162.19999694824</ele>
        <time>2019-08-17T05:50:16.000Z</time>
      </trkpt>
      <trkpt lat="46.00415" lon="4.70491">
        <ele>162.19999694824</ele>
        <time>2019-08-17T05:50:17.000Z</time>
      </trkpt>
      <trkpt lat="46.00369" lon="4.70493">
        <ele>162.19999694824</ele>
        <time>2019-08-17T05:50:24.000Z</time>
      </trkpt>
      <trkpt lat="46.00316" lon="4.70505">
        <ele>162.19999694824</ele>
        <time>2019-08-17T05:50:32.000Z</time>
      </trkpt>
      <trkpt lat="46.00263" lon="4.70514">
        <ele>162.19999694824</ele>
        <time>2019-08-17T05:50:40.000Z</time>
      </trkpt>
      <trkpt lat="46.00243" lon="4.70519">
        <ele>161.80000305176</ele>
        <time>2019-08-17T05:50:43.000Z</time>
      </trkpt>
      <trkpt lat="46.00237" lon="4.70521">
        <ele>161.39999389648</ele>
        <time>2019-08-17T05:50:44.000Z</time>
      </trkpt>
      <trkpt lat="46.0023" lon="4.70523">
        <ele>161</ele>
        <time>2019-08-17T05:50:45.000Z</time>
      </trkpt>
      <trkpt lat="46.00224" lon="4.70525">
        <ele>160.60000610352</ele>
        <time>2019-08-17T05:50:46.000Z</time>
      </trkpt>
      <trkpt lat="46.00218" lon="4.70527">
        <ele>160.19999694824</ele>
        <time>2019-08-17T05:50:47.000Z</time>
      </trkpt>
      <trkpt lat="46.00205" lon="4.7053">
        <ele>160.19999694824</ele>
        <time>2019-08-17T05:50:49.000Z</time>
      </trkpt>
      <trkpt lat="46.00181" lon="4.70532">
        <ele>160.19999694824</ele>
        <time>2019-08-17T05:50:53.000Z</time>
      </trkpt>
      <trkpt lat="46.00171" lon="4.70531">
        <ele>160.19999694824</ele>
        <time>2019-08-17T05:50:55.000Z</time>
      </trkpt>
      <trkpt lat="46.00161" lon="4.70523">
        <ele>160.19999694824</ele>
        <time>2019-08-17T05:50:57.000Z</time>
      </trkpt>
      <trkpt lat="46.00152" lon="4.70517">
        <ele>160.19999694824</ele>
        <time>2019-08-17T05:50:59.000Z</time>
      </trkpt>
      <trkpt lat="46.00141" lon="4.70521">
        <ele>160.19999694824</ele>
        <time>2019-08-17T05:51:01.000Z</time>
      </trkpt>
      <trkpt lat="46.00132" lon="4.7054">
        <ele>160.19999694824</ele>
        <time>2019-08-17T05:51:04.000Z</time>
      </trkpt>
      <trkpt lat="46.00122" lon="4.70566">
        <ele>160.19999694824</ele>
        <time>2019-08-17T05:51:08.000Z</time>
      </trkpt>
      <trkpt lat="46.00106" lon="4.70575">
        <ele>160.19999694824</ele>
        <time>2019-08-17T05:51:11.000Z</time>
      </trkpt>
      <trkpt lat="46.00095" lon="4.7058">
        <ele>160.19999694824</ele>
        <time>2019-08-17T05:51:13.000Z</time>
      </trkpt>
      <trkpt lat="46.00074" lon="4.70592">
        <ele>160.19999694824</ele>
        <time>2019-08-17T05:51:17.000Z</time>
      </trkpt>
      <trkpt lat="46.00052" lon="4.706">
        <ele>160.19999694824</ele>
        <time>2019-08-17T05:51:21.000Z</time>
      </trkpt>
      <trkpt lat="46.00046" lon="4.70601">
        <ele>160.19999694824</ele>
        <time>2019-08-17T05:51:22.000Z</time>
      </trkpt>
      <trkpt lat="46.00006" lon="4.7061">
        <ele>160.19999694824</ele>
        <time>2019-08-17T05:51:29.000Z</time>
      </trkpt>
      <trkpt lat="45.99968" lon="4.70618">
        <ele>160.19999694824</ele>
        <time>2019-08-17T05:51:36.000Z</time>
      </trkpt>
      <trkpt lat="45.99941" lon="4.70625">
        <ele>160.19999694824</ele>
        <time>2019-08-17T05:51:41.000Z</time>
      </trkpt>
      <trkpt lat="45.99935" lon="4.70626">
        <ele>160.19999694824</ele>
        <time>2019-08-17T05:51:42.000Z</time>
      </trkpt>
      <trkpt lat="45.99915" lon="4.70628">
        <ele>160.19999694824</ele>
        <time>2019-08-17T05:51:46.000Z</time>
      </trkpt>
      <trkpt lat="45.99883" lon="4.70635">
        <ele>160.19999694824</ele>
        <time>2019-08-17T05:51:52.000Z</time>
      </trkpt>
      <trkpt lat="45.99838" lon="4.70649">
        <ele>160.19999694824</ele>
        <time>2019-08-17T05:52:00.000Z</time>
      </trkpt>
      <trkpt lat="45.99795" lon="4.70657">
        <ele>160.19999694824</ele>
        <time>2019-08-17T05:52:08.000Z</time>
      </trkpt>
      <trkpt lat="45.99758" lon="4.70666">
        <ele>160.19999694824</ele>
        <time>2019-08-17T05:52:15.000Z</time>
      </trkpt>
      <trkpt lat="45.99712" lon="4.70677">
        <ele>160.19999694824</ele>
        <time>2019-08-17T05:52:24.000Z</time>
      </trkpt>
      <trkpt lat="45.9967" lon="4.70686">
        <ele>160.19999694824</ele>
        <time>2019-08-17T05:52:31.000Z</time>
      </trkpt>
      <trkpt lat="45.99632" lon="4.70693">
        <ele>160.19999694824</ele>
        <time>2019-08-17T05:52:37.000Z</time>
      </trkpt>
      <trkpt lat="45.99581" lon="4.70705">
        <ele>160.19999694824</ele>
        <time>2019-08-17T05:52:45.000Z</time>
      </trkpt>
      <trkpt lat="45.99527" lon="4.70715">
        <ele>160.19999694824</ele>
        <time>2019-08-17T05:52:54.000Z</time>
      </trkpt>
      <trkpt lat="45.99487" lon="4.70725">
        <ele>160.19999694824</ele>
        <time>2019-08-17T05:53:01.000Z</time>
      </trkpt>
      <trkpt lat="45.9948" lon="4.70726">
        <ele>160.19999694824</ele>
        <time>2019-08-17T05:53:02.000Z</time>
      </trkpt>
      <trkpt lat="45.99464" lon="4.70724">
        <ele>160.19999694824</ele>
        <time>2019-08-17T05:53:05.000Z</time>
      </trkpt>
      <trkpt lat="45.9944" lon="4.70724">
        <ele>160.19999694824</ele>
        <time>2019-08-17T05:53:09.000Z</time>
      </trkpt>
      <trkpt lat="45.99434" lon="4.70723">
        <ele>160.19999694824</ele>
        <time>2019-08-17T05:53:10.000Z</time>
      </trkpt>
      <trkpt lat="45.99385" lon="4.70722">
        <ele>160.19999694824</ele>
        <time>2019-08-17T05:53:18.000Z</time>
      </trkpt>
      <trkpt lat="45.99335" lon="4.7072">
        <ele>160.19999694824</ele>
        <time>2019-08-17T05:53:26.000Z</time>
      </trkpt>
      <trkpt lat="45.99289" lon="4.70719">
        <ele>160.19999694824</ele>
        <time>2019-08-17T05:53:33.000Z</time>
      </trkpt>
      <trkpt lat="45.99239" lon="4.70719">
        <ele>160.19999694824</ele>
        <time>2019-08-17T05:53:41.000Z</time>
      </trkpt>
      <trkpt lat="45.99233" lon="4.70718">
        <ele>159.80000305176</ele>
        <time>2019-08-17T05:53:42.000Z</time>
      </trkpt>
      <trkpt lat="45.99227" lon="4.70718">
        <ele>159.39999389648</ele>
        <time>2019-08-17T05:53:43.000Z</time>
      </trkpt>
      <trkpt lat="45.9922" lon="4.70717">
        <ele>158.80000305176</ele>
        <time>2019-08-17T05:53:44.000Z</time>
      </trkpt>
      <trkpt lat="45.99213" lon="4.70718">
        <ele>158.39999389648</ele>
        <time>2019-08-17T05:53:45.000Z</time>
      </trkpt>
      <trkpt lat="45.99207" lon="4.70718">
        <ele>158</ele>
        <time>2019-08-17T05:53:46.000Z</time>
      </trkpt>
      <trkpt lat="45.99194" lon="4.70717">
        <ele>158</ele>
        <time>2019-08-17T05:53:48.000Z</time>
      </trkpt>
      <trkpt lat="45.99174" lon="4.70714">
        <ele>158</ele>
        <time>2019-08-17T05:53:51.000Z</time>
      </trkpt>
      <trkpt lat="45.99154" lon="4.70713">
        <ele>158</ele>
        <time>2019-08-17T05:53:54.000Z</time>
      </trkpt>
      <trkpt lat="45.99113" lon="4.70712">
        <ele>158</ele>
        <time>2019-08-17T05:54:00.000Z</time>
      </trkpt>
      <trkpt lat="45.99099" lon="4.70712">
        <ele>157.60000610352</ele>
        <time>2019-08-17T05:54:02.000Z</time>
      </trkpt>
      <trkpt lat="45.99092" lon="4.70711">
        <ele>157.19999694824</ele>
        <time>2019-08-17T05:54:03.000Z</time>
      </trkpt>
      <trkpt lat="45.99085" lon="4.70711">
        <ele>156.80000305176</ele>
        <time>2019-08-17T05:54:04.000Z</time>
      </trkpt>
      <trkpt lat="45.9908" lon="4.7071">
        <ele>156.19999694824</ele>
        <time>2019-08-17T05:54:05.000Z</time>
      </trkpt>
      <trkpt lat="45.99075" lon="4.7071">
        <ele>155.80000305176</ele>
        <time>2019-08-17T05:54:06.000Z</time>
      </trkpt>
      <trkpt lat="45.99065" lon="4.7071">
        <ele>155.39999389648</ele>
        <time>2019-08-17T05:54:08.000Z</time>
      </trkpt>
      <trkpt lat="45.99061" lon="4.7071">
        <ele>155</ele>
        <time>2019-08-17T05:54:09.000Z</time>
      </trkpt>
      <trkpt lat="45.99057" lon="4.7071">
        <ele>154.60000610352</ele>
        <time>2019-08-17T05:54:10.000Z</time>
      </trkpt>
      <trkpt lat="45.99054" lon="4.70709">
        <ele>154.19999694824</ele>
        <time>2019-08-17T05:54:11.000Z</time>
      </trkpt>
      <trkpt lat="45.99052" lon="4.70709">
        <ele>153.80000305176</ele>
        <time>2019-08-17T05:54:12.000Z</time>
      </trkpt>
      <trkpt lat="45.99044" lon="4.70709">
        <ele>153.80000305176</ele>
        <time>2019-08-17T05:54:15.000Z</time>
      </trkpt>
      <trkpt lat="45.99043" lon="4.70707">
        <ele>153.80000305176</ele>
        <time>2019-08-17T05:54:18.000Z</time>
      </trkpt>
      <trkpt lat="45.99042" lon="4.70707">
        <ele>151.80000305176</ele>
        <time>2019-08-17T05:54:41.000Z</time>
      </trkpt>
      <trkpt lat="45.99028" lon="4.70708">
        <ele>151.80000305176</ele>
        <time>2019-08-17T05:54:45.000Z</time>
      </trkpt>
      <trkpt lat="45.99013" lon="4.70708">
        <ele>151.80000305176</ele>
        <time>2019-08-17T05:54:48.000Z</time>
      </trkpt>
      <trkpt lat="45.99002" lon="4.70711">
        <ele>151.80000305176</ele>
        <time>2019-08-17T05:54:50.000Z</time>
      </trkpt>
      <trkpt lat="45.98978" lon="4.70724">
        <ele>151.39999389648</ele>
        <time>2019-08-17T05:54:54.000Z</time>
      </trkpt>
      <trkpt lat="45.98973" lon="4.70729">
        <ele>151</ele>
        <time>2019-08-17T05:54:55.000Z</time>
      </trkpt>
      <trkpt lat="45.98967" lon="4.70735">
        <ele>150.60000610352</ele>
        <time>2019-08-17T05:54:56.000Z</time>
      </trkpt>
      <trkpt lat="45.98961" lon="4.70743">
        <ele>150.19999694824</ele>
        <time>2019-08-17T05:54:57.000Z</time>
      </trkpt>
      <trkpt lat="45.98956" lon="4.7075">
        <ele>149.80000305176</ele>
        <time>2019-08-17T05:54:58.000Z</time>
      </trkpt>
      <trkpt lat="45.98951" lon="4.70757">
        <ele>149.80000305176</ele>
        <time>2019-08-17T05:54:59.000Z</time>
      </trkpt>
      <trkpt lat="45.98939" lon="4.70778">
        <ele>149.39999389648</ele>
        <time>2019-08-17T05:55:02.000Z</time>
      </trkpt>
      <trkpt lat="45.98936" lon="4.70784">
        <ele>149</ele>
        <time>2019-08-17T05:55:03.000Z</time>
      </trkpt>
      <trkpt lat="45.98934" lon="4.70789">
        <ele>148.39999389648</ele>
        <time>2019-08-17T05:55:04.000Z</time>
      </trkpt>
      <trkpt lat="45.98932" lon="4.70792">
        <ele>148</ele>
        <time>2019-08-17T05:55:05.000Z</time>
      </trkpt>
      <trkpt lat="45.9893" lon="4.70795">
        <ele>147.60000610352</ele>
        <time>2019-08-17T05:55:06.000Z</time>
      </trkpt>
      <trkpt lat="45.98926" lon="4.70804">
        <ele>147.60000610352</ele>
        <time>2019-08-17T05:55:09.000Z</time>
      </trkpt>
      <trkpt lat="45.98924" lon="4.7081">
        <ele>147.60000610352</ele>
        <time>2019-08-17T05:55:14.000Z</time>
      </trkpt>
      <trkpt lat="45.98923" lon="4.70811">
        <ele>147.60000610352</ele>
        <time>2019-08-17T05:55:32.000Z</time>
      </trkpt>
      <trkpt lat="45.98921" lon="4.70816">
        <ele>147.60000610352</ele>
        <time>2019-08-17T05:55:35.000Z</time>
      </trkpt>
      <trkpt lat="45.98917" lon="4.70828">
        <ele>147.19999694824</ele>
        <time>2019-08-17T05:55:38.000Z</time>
      </trkpt>
      <trkpt lat="45.98915" lon="4.70832">
        <ele>146.80000305176</ele>
        <time>2019-08-17T05:55:39.000Z</time>
      </trkpt>
      <trkpt lat="45.98911" lon="4.70837">
        <ele>146.39999389648</ele>
        <time>2019-08-17T05:55:40.000Z</time>
      </trkpt>
      <trkpt lat="45.98908" lon="4.70842">
        <ele>146</ele>
        <time>2019-08-17T05:55:41.000Z</time>
      </trkpt>
      <trkpt lat="45.98905" lon="4.70848">
        <ele>145.60000610352</ele>
        <time>2019-08-17T05:55:42.000Z</time>
      </trkpt>
      <trkpt lat="45.98892" lon="4.70872">
        <ele>145.60000610352</ele>
        <time>2019-08-17T05:55:46.000Z</time>
      </trkpt>
      <trkpt lat="45.98865" lon="4.70925">
        <ele>145.60000610352</ele>
        <time>2019-08-17T05:55:54.000Z</time>
      </trkpt>
      <trkpt lat="45.98846" lon="4.70969">
        <ele>145.60000610352</ele>
        <time>2019-08-17T05:56:00.000Z</time>
      </trkpt>
      <trkpt lat="45.98837" lon="4.71006">
        <ele>145.60000610352</ele>
        <time>2019-08-17T05:56:05.000Z</time>
      </trkpt>
      <trkpt lat="45.98834" lon="4.7102">
        <ele>145.60000610352</ele>
        <time>2019-08-17T05:56:07.000Z</time>
      </trkpt>
      <trkpt lat="45.98832" lon="4.71025">
        <ele>145.60000610352</ele>
        <time>2019-08-17T05:56:08.000Z</time>
      </trkpt>
      <trkpt lat="45.98825" lon="4.71026">
        <ele>145.60000610352</ele>
        <time>2019-08-17T05:56:10.000Z</time>
      </trkpt>
      <trkpt lat="45.9881" lon="4.71013">
        <ele>145.60000610352</ele>
        <time>2019-08-17T05:56:13.000Z</time>
      </trkpt>
      <trkpt lat="45.98788" lon="4.70995">
        <ele>145.60000610352</ele>
        <time>2019-08-17T05:56:19.000Z</time>
      </trkpt>
      <trkpt lat="45.98777" lon="4.70991">
        <ele>145.60000610352</ele>
        <time>2019-08-17T05:56:24.000Z</time>
      </trkpt>
      <trkpt lat="45.98769" lon="4.70987">
        <ele>145.60000610352</ele>
        <time>2019-08-17T05:56:30.000Z</time>
      </trkpt>
      <trkpt lat="45.98754" lon="4.70985">
        <ele>145.60000610352</ele>
        <time>2019-08-17T05:56:35.000Z</time>
      </trkpt>
      <trkpt lat="45.98732" lon="4.7098">
        <ele>145.60000610352</ele>
        <time>2019-08-17T05:56:41.000Z</time>
      </trkpt>
      <trkpt lat="45.98709" lon="4.70978">
        <ele>145.60000610352</ele>
        <time>2019-08-17T05:56:47.000Z</time>
      </trkpt>
      <trkpt lat="45.98682" lon="4.70975">
        <ele>145.60000610352</ele>
        <time>2019-08-17T05:56:54.000Z</time>
      </trkpt>
      <trkpt lat="45.98657" lon="4.70972">
        <ele>146</ele>
        <time>2019-08-17T05:57:00.000Z</time>
      </trkpt>
      <trkpt lat="45.98652" lon="4.70971">
        <ele>146.39999389648</ele>
        <time>2019-08-17T05:57:01.000Z</time>
      </trkpt>
      <trkpt lat="45.98648" lon="4.7097">
        <ele>146.80000305176</ele>
        <time>2019-08-17T05:57:02.000Z</time>
      </trkpt>
      <trkpt lat="45.98644" lon="4.70969">
        <ele>147.19999694824</ele>
        <time>2019-08-17T05:57:03.000Z</time>
      </trkpt>
      <trkpt lat="45.9864" lon="4.70969">
        <ele>147.60000610352</ele>
        <time>2019-08-17T05:57:04.000Z</time>
      </trkpt>
      <trkpt lat="45.9862" lon="4.70968">
        <ele>147.60000610352</ele>
        <time>2019-08-17T05:57:09.000Z</time>
      </trkpt>
      <trkpt lat="45.98594" lon="4.70964">
        <ele>148.39999389648</ele>
        <time>2019-08-17T05:57:15.000Z</time>
      </trkpt>
      <trkpt lat="45.9859" lon="4.70963">
        <ele>148.80000305176</ele>
        <time>2019-08-17T05:57:16.000Z</time>
      </trkpt>
      <trkpt lat="45.98586" lon="4.70963">
        <ele>149.19999694824</ele>
        <time>2019-08-17T05:57:17.000Z</time>
      </trkpt>
      <trkpt lat="45.98581" lon="4.70963">
        <ele>149.80000305176</ele>
        <time>2019-08-17T05:57:18.000Z</time>
      </trkpt>
      <trkpt lat="45.98543" lon="4.70953">
        <ele>149.80000305176</ele>
        <time>2019-08-17T05:57:27.000Z</time>
      </trkpt>
      <trkpt lat="45.9854" lon="4.70952">
        <ele>150.19999694824</ele>
        <time>2019-08-17T05:57:28.000Z</time>
      </trkpt>
      <trkpt lat="45.98537" lon="4.70951">
        <ele>150.60000610352</ele>
        <time>2019-08-17T05:57:29.000Z</time>
      </trkpt>
      <trkpt lat="45.98534" lon="4.7095">
        <ele>151</ele>
        <time>2019-08-17T05:57:30.000Z</time>
      </trkpt>
      <trkpt lat="45.98531" lon="4.70948">
        <ele>151.39999389648</ele>
        <time>2019-08-17T05:57:31.000Z</time>
      </trkpt>
      <trkpt lat="45.98528" lon="4.70946">
        <ele>151.80000305176</ele>
        <time>2019-08-17T05:57:32.000Z</time>
      </trkpt>
      <trkpt lat="45.98526" lon="4.70944">
        <ele>151.80000305176</ele>
        <time>2019-08-17T05:57:33.000Z</time>
      </trkpt>
      <trkpt lat="45.98508" lon="4.70935">
        <ele>152.19999694824</ele>
        <time>2019-08-17T05:57:39.000Z</time>
      </trkpt>
      <trkpt lat="45.98505" lon="4.70934">
        <ele>153.19999694824</ele>
        <time>2019-08-17T05:57:40.000Z</time>
      </trkpt>
      <trkpt lat="45.98502" lon="4.70932">
        <ele>153.60000610352</ele>
        <time>2019-08-17T05:57:41.000Z</time>
      </trkpt>
      <trkpt lat="45.98499" lon="4.70932">
        <ele>154</ele>
        <time>2019-08-17T05:57:42.000Z</time>
      </trkpt>
      <trkpt lat="45.98492" lon="4.70928">
        <ele>154</ele>
        <time>2019-08-17T05:57:45.000Z</time>
      </trkpt>
      <trkpt lat="45.98484" lon="4.70925">
        <ele>154.39999389648</ele>
        <time>2019-08-17T05:57:48.000Z</time>
      </trkpt>
      <trkpt lat="45.98482" lon="4.70924">
        <ele>154.80000305176</ele>
        <time>2019-08-17T05:57:49.000Z</time>
      </trkpt>
      <trkpt lat="45.98479" lon="4.70923">
        <ele>155.19999694824</ele>
        <time>2019-08-17T05:57:50.000Z</time>
      </trkpt>
      <trkpt lat="45.98477" lon="4.70922">
        <ele>155.60000610352</ele>
        <time>2019-08-17T05:57:51.000Z</time>
      </trkpt>
      <trkpt lat="45.98474" lon="4.70921">
        <ele>156</ele>
        <time>2019-08-17T05:57:52.000Z</time>
      </trkpt>
      <trkpt lat="45.98462" lon="4.70919">
        <ele>156.39999389648</ele>
        <time>2019-08-17T05:57:57.000Z</time>
      </trkpt>
      <trkpt lat="45.98458" lon="4.70919">
        <ele>156.80000305176</ele>
        <time>2019-08-17T05:57:58.000Z</time>
      </trkpt>
      <trkpt lat="45.98455" lon="4.70918">
        <ele>157.39999389648</ele>
        <time>2019-08-17T05:57:59.000Z</time>
      </trkpt>
      <trkpt lat="45.98452" lon="4.70918">
        <ele>157.80000305176</ele>
        <time>2019-08-17T05:58:00.000Z</time>
      </trkpt>
      <trkpt lat="45.98449" lon="4.70918">
        <ele>158.19999694824</ele>
        <time>2019-08-17T05:58:01.000Z</time>
      </trkpt>
      <trkpt lat="45.98442" lon="4.70921">
        <ele>158.19999694824</ele>
        <time>2019-08-17T05:58:04.000Z</time>
      </trkpt>
      <trkpt lat="45.98439" lon="4.70921">
        <ele>158.60000610352</ele>
        <time>2019-08-17T05:58:05.000Z</time>
      </trkpt>
      <trkpt lat="45.98436" lon="4.70922">
        <ele>159</ele>
        <time>2019-08-17T05:58:06.000Z</time>
      </trkpt>
      <trkpt lat="45.98433" lon="4.70923">
        <ele>159.39999389648</ele>
        <time>2019-08-17T05:58:07.000Z</time>
      </trkpt>
      <trkpt lat="45.9843" lon="4.70923">
        <ele>159.80000305176</ele>
        <time>2019-08-17T05:58:08.000Z</time>
      </trkpt>
      <trkpt lat="45.98427" lon="4.70923">
        <ele>160.19999694824</ele>
        <time>2019-08-17T05:58:09.000Z</time>
      </trkpt>
      <trkpt lat="45.98424" lon="4.70924">
        <ele>160.19999694824</ele>
        <time>2019-08-17T05:58:10.000Z</time>
      </trkpt>
      <trkpt lat="45.98413" lon="4.70925">
        <ele>160.80000305176</ele>
        <time>2019-08-17T05:58:15.000Z</time>
      </trkpt>
      <trkpt lat="45.98411" lon="4.70926">
        <ele>161.19999694824</ele>
        <time>2019-08-17T05:58:16.000Z</time>
      </trkpt>
      <trkpt lat="45.98409" lon="4.70926">
        <ele>161.60000610352</ele>
        <time>2019-08-17T05:58:17.000Z</time>
      </trkpt>
      <trkpt lat="45.98407" lon="4.70927">
        <ele>162</ele>
        <time>2019-08-17T05:58:18.000Z</time>
      </trkpt>
      <trkpt lat="45.98403" lon="4.70926">
        <ele>162.39999389648</ele>
        <time>2019-08-17T05:58:19.000Z</time>
      </trkpt>
      <trkpt lat="45.98389" lon="4.70926">
        <ele>162.39999389648</ele>
        <time>2019-08-17T05:58:23.000Z</time>
      </trkpt>
      <trkpt lat="45.98386" lon="4.70926">
        <ele>162.80000305176</ele>
        <time>2019-08-17T05:58:24.000Z</time>
      </trkpt>
      <trkpt lat="45.98383" lon="4.70926">
        <ele>163.39999389648</ele>
        <time>2019-08-17T05:58:25.000Z</time>
      </trkpt>
      <trkpt lat="45.98379" lon="4.70927">
        <ele>163.80000305176</ele>
        <time>2019-08-17T05:58:26.000Z</time>
      </trkpt>
      <trkpt lat="45.98375" lon="4.70927">
        <ele>164.19999694824</ele>
        <time>2019-08-17T05:58:27.000Z</time>
      </trkpt>
      <trkpt lat="45.98372" lon="4.70928">
        <ele>164.60000610352</ele>
        <time>2019-08-17T05:58:28.000Z</time>
      </trkpt>
      <trkpt lat="45.98369" lon="4.70928">
        <ele>164.60000610352</ele>
        <time>2019-08-17T05:58:29.000Z</time>
      </trkpt>
      <trkpt lat="45.98355" lon="4.70927">
        <ele>165</ele>
        <time>2019-08-17T05:58:34.000Z</time>
      </trkpt>
      <trkpt lat="45.98352" lon="4.70928">
        <ele>165.39999389648</ele>
        <time>2019-08-17T05:58:35.000Z</time>
      </trkpt>
      <trkpt lat="45.98349" lon="4.70928">
        <ele>165.80000305176</ele>
        <time>2019-08-17T05:58:36.000Z</time>
      </trkpt>
      <trkpt lat="45.98345" lon="4.70929">
        <ele>166.19999694824</ele>
        <time>2019-08-17T05:58:37.000Z</time>
      </trkpt>
      <trkpt lat="45.98342" lon="4.70929">
        <ele>166.60000610352</ele>
        <time>2019-08-17T05:58:38.000Z</time>
      </trkpt>
      <trkpt lat="45.98322" lon="4.7093">
        <ele>166.60000610352</ele>
        <time>2019-08-17T05:58:45.000Z</time>
      </trkpt>
      <trkpt lat="45.98301" lon="4.70933">
        <ele>167</ele>
        <time>2019-08-17T05:58:52.000Z</time>
      </trkpt>
      <trkpt lat="45.98298" lon="4.70933">
        <ele>167.60000610352</ele>
        <time>2019-08-17T05:58:53.000Z</time>
      </trkpt>
      <trkpt lat="45.98295" lon="4.70934">
        <ele>168.39999389648</ele>
        <time>2019-08-17T05:58:54.000Z</time>
      </trkpt>
      <trkpt lat="45.98292" lon="4.70934">
        <ele>168.80000305176</ele>
        <time>2019-08-17T05:58:55.000Z</time>
      </trkpt>
      <trkpt lat="45.98281" lon="4.70935">
        <ele>168.80000305176</ele>
        <time>2019-08-17T05:58:59.000Z</time>
      </trkpt>
      <trkpt lat="45.98265" lon="4.7093">
        <ele>168.80000305176</ele>
        <time>2019-08-17T05:59:05.000Z</time>
      </trkpt>
      <trkpt lat="45.98262" lon="4.70931">
        <ele>168.80000305176</ele>
        <time>2019-08-17T05:59:07.000Z</time>
      </trkpt>
      <trkpt lat="45.98259" lon="4.70935">
        <ele>168.80000305176</ele>
        <time>2019-08-17T05:59:09.000Z</time>
      </trkpt>
      <trkpt lat="45.9825" lon="4.70939">
        <ele>168.80000305176</ele>
        <time>2019-08-17T05:59:13.000Z</time>
      </trkpt>
      <trkpt lat="45.98247" lon="4.70939">
        <ele>168.80000305176</ele>
        <time>2019-08-17T05:59:14.000Z</time>
      </trkpt>
      <trkpt lat="45.98233" lon="4.70938">
        <ele>168.80000305176</ele>
        <time>2019-08-17T05:59:19.000Z</time>
      </trkpt>
      <trkpt lat="45.98212" lon="4.7094">
        <ele>168.80000305176</ele>
        <time>2019-08-17T05:59:26.000Z</time>
      </trkpt>
      <trkpt lat="45.98203" lon="4.70941">
        <ele>169.19999694824</ele>
        <time>2019-08-17T05:59:29.000Z</time>
      </trkpt>
      <trkpt lat="45.982" lon="4.70941">
        <ele>169.60000610352</ele>
        <time>2019-08-17T05:59:30.000Z</time>
      </trkpt>
      <trkpt lat="45.98197" lon="4.70942">
        <ele>170</ele>
        <time>2019-08-17T05:59:31.000Z</time>
      </trkpt>
      <trkpt lat="45.98194" lon="4.70941">
        <ele>170.39999389648</ele>
        <time>2019-08-17T05:59:32.000Z</time>
      </trkpt>
      <trkpt lat="45.9819" lon="4.70942">
        <ele>170.80000305176</ele>
        <time>2019-08-17T05:59:33.000Z</time>
      </trkpt>
      <trkpt lat="45.98187" lon="4.70942">
        <ele>170.80000305176</ele>
        <time>2019-08-17T05:59:34.000Z</time>
      </trkpt>
      <trkpt lat="45.98163" lon="4.70943">
        <ele>170.80000305176</ele>
        <time>2019-08-17T05:59:41.000Z</time>
      </trkpt>
      <trkpt lat="45.98136" lon="4.70944">
        <ele>170.80000305176</ele>
        <time>2019-08-17T05:59:49.000Z</time>
      </trkpt>
      <trkpt lat="45.98126" lon="4.70944">
        <ele>171.19999694824</ele>
        <time>2019-08-17T05:59:52.000Z</time>
      </trkpt>
      <trkpt lat="45.98123" lon="4.70945">
        <ele>171.60000610352</ele>
        <time>2019-08-17T05:59:53.000Z</time>
      </trkpt>
      <trkpt lat="45.9812" lon="4.70945">
        <ele>172</ele>
        <time>2019-08-17T05:59:54.000Z</time>
      </trkpt>
      <trkpt lat="45.98117" lon="4.70946">
        <ele>172.39999389648</ele>
        <time>2019-08-17T05:59:55.000Z</time>
      </trkpt>
      <trkpt lat="45.98113" lon="4.70946">
        <ele>172.80000305176</ele>
        <time>2019-08-17T05:59:56.000Z</time>
      </trkpt>
      <trkpt lat="45.9809" lon="4.70945">
        <ele>172.80000305176</ele>
        <time>2019-08-17T06:00:03.000Z</time>
      </trkpt>
      <trkpt lat="45.9807" lon="4.70945">
        <ele>172.80000305176</ele>
        <time>2019-08-17T06:00:09.000Z</time>
      </trkpt>
      <trkpt lat="45.98045" lon="4.70945">
        <ele>172.80000305176</ele>
        <time>2019-08-17T06:00:16.000Z</time>
      </trkpt>
      <trkpt lat="45.98016" lon="4.70947">
        <ele>172.80000305176</ele>
        <time>2019-08-17T06:00:23.000Z</time>
      </trkpt>
      <trkpt lat="45.9799" lon="4.70948">
        <ele>173.19999694824</ele>
        <time>2019-08-17T06:00:29.000Z</time>
      </trkpt>
      <trkpt lat="45.97986" lon="4.70948">
        <ele>173.60000610352</ele>
        <time>2019-08-17T06:00:30.000Z</time>
      </trkpt>
      <trkpt lat="45.97982" lon="4.70948">
        <ele>174</ele>
        <time>2019-08-17T06:00:31.000Z</time>
      </trkpt>
      <trkpt lat="45.97978" lon="4.70948">
        <ele>174.39999389648</ele>
        <time>2019-08-17T06:00:32.000Z</time>
      </trkpt>
      <trkpt lat="45.97974" lon="4.70948">
        <ele>174.80000305176</ele>
        <time>2019-08-17T06:00:33.000Z</time>
      </trkpt>
      <trkpt lat="45.97966" lon="4.70949">
        <ele>174.80000305176</ele>
        <time>2019-08-17T06:00:35.000Z</time>
      </trkpt>
      <trkpt lat="45.97954" lon="4.70949">
        <ele>174.80000305176</ele>
        <time>2019-08-17T06:00:38.000Z</time>
      </trkpt>
      <trkpt lat="45.9793" lon="4.70945">
        <ele>174.80000305176</ele>
        <time>2019-08-17T06:00:44.000Z</time>
      </trkpt>
      <trkpt lat="45.97926" lon="4.70944">
        <ele>174.80000305176</ele>
        <time>2019-08-17T06:00:45.000Z</time>
      </trkpt>
      <trkpt lat="45.97884" lon="4.70932">
        <ele>174.80000305176</ele>
        <time>2019-08-17T06:00:55.000Z</time>
      </trkpt>
      <trkpt lat="45.97854" lon="4.70925">
        <ele>174.80000305176</ele>
        <time>2019-08-17T06:01:02.000Z</time>
      </trkpt>
      <trkpt lat="45.97842" lon="4.7092">
        <ele>174.80000305176</ele>
        <time>2019-08-17T06:01:05.000Z</time>
      </trkpt>
      <trkpt lat="45.97836" lon="4.70913">
        <ele>174.80000305176</ele>
        <time>2019-08-17T06:01:07.000Z</time>
      </trkpt>
      <trkpt lat="45.9783" lon="4.70905">
        <ele>174.80000305176</ele>
        <time>2019-08-17T06:01:09.000Z</time>
      </trkpt>
      <trkpt lat="45.97828" lon="4.709">
        <ele>175.19999694824</ele>
        <time>2019-08-17T06:01:10.000Z</time>
      </trkpt>
      <trkpt lat="45.97826" lon="4.70895">
        <ele>175.80000305176</ele>
        <time>2019-08-17T06:01:11.000Z</time>
      </trkpt>
      <trkpt lat="45.97826" lon="4.7089">
        <ele>176.19999694824</ele>
        <time>2019-08-17T06:01:12.000Z</time>
      </trkpt>
      <trkpt lat="45.97825" lon="4.70885">
        <ele>176.60000610352</ele>
        <time>2019-08-17T06:01:13.000Z</time>
      </trkpt>
      <trkpt lat="45.97824" lon="4.7088">
        <ele>177</ele>
        <time>2019-08-17T06:01:14.000Z</time>
      </trkpt>
      <trkpt lat="45.97822" lon="4.70856">
        <ele>177</ele>
        <time>2019-08-17T06:01:19.000Z</time>
      </trkpt>
      <trkpt lat="45.97821" lon="4.70838">
        <ele>177.39999389648</ele>
        <time>2019-08-17T06:01:23.000Z</time>
      </trkpt>
      <trkpt lat="45.9782" lon="4.70835">
        <ele>177.80000305176</ele>
        <time>2019-08-17T06:01:24.000Z</time>
      </trkpt>
      <trkpt lat="45.97819" lon="4.70831">
        <ele>178.19999694824</ele>
        <time>2019-08-17T06:01:25.000Z</time>
      </trkpt>
      <trkpt lat="45.97819" lon="4.70827">
        <ele>178.60000610352</ele>
        <time>2019-08-17T06:01:26.000Z</time>
      </trkpt>
      <trkpt lat="45.97818" lon="4.70822">
        <ele>179</ele>
        <time>2019-08-17T06:01:27.000Z</time>
      </trkpt>
      <trkpt lat="45.97812" lon="4.70805">
        <ele>179</ele>
        <time>2019-08-17T06:01:31.000Z</time>
      </trkpt>
      <trkpt lat="45.97809" lon="4.70778">
        <ele>179</ele>
        <time>2019-08-17T06:01:36.000Z</time>
      </trkpt>
      <trkpt lat="45.97801" lon="4.70761">
        <ele>179</ele>
        <time>2019-08-17T06:01:40.000Z</time>
      </trkpt>
      <trkpt lat="45.97798" lon="4.70759">
        <ele>179.39999389648</ele>
        <time>2019-08-17T06:01:41.000Z</time>
      </trkpt>
      <trkpt lat="45.97794" lon="4.70758">
        <ele>179.80000305176</ele>
        <time>2019-08-17T06:01:42.000Z</time>
      </trkpt>
      <trkpt lat="45.9779" lon="4.70759">
        <ele>180.19999694824</ele>
        <time>2019-08-17T06:01:43.000Z</time>
      </trkpt>
      <trkpt lat="45.97786" lon="4.70761">
        <ele>180.60000610352</ele>
        <time>2019-08-17T06:01:44.000Z</time>
      </trkpt>
      <trkpt lat="45.97783" lon="4.70764">
        <ele>181</ele>
        <time>2019-08-17T06:01:45.000Z</time>
      </trkpt>
      <trkpt lat="45.97769" lon="4.70777">
        <ele>181</ele>
        <time>2019-08-17T06:01:49.000Z</time>
      </trkpt>
      <trkpt lat="45.97753" lon="4.70776">
        <ele>181</ele>
        <time>2019-08-17T06:01:53.000Z</time>
      </trkpt>
      <trkpt lat="45.97728" lon="4.70769">
        <ele>181</ele>
        <time>2019-08-17T06:02:00.000Z</time>
      </trkpt>
      <trkpt lat="45.97699" lon="4.70756">
        <ele>181.39999389648</ele>
        <time>2019-08-17T06:02:08.000Z</time>
      </trkpt>
      <trkpt lat="45.97695" lon="4.70755">
        <ele>181.80000305176</ele>
        <time>2019-08-17T06:02:09.000Z</time>
      </trkpt>
      <trkpt lat="45.97691" lon="4.70753">
        <ele>182.19999694824</ele>
        <time>2019-08-17T06:02:10.000Z</time>
      </trkpt>
      <trkpt lat="45.97688" lon="4.70752">
        <ele>182.60000610352</ele>
        <time>2019-08-17T06:02:11.000Z</time>
      </trkpt>
      <trkpt lat="45.97684" lon="4.70751">
        <ele>183</ele>
        <time>2019-08-17T06:02:12.000Z</time>
      </trkpt>
      <trkpt lat="45.97681" lon="4.7075">
        <ele>183</ele>
        <time>2019-08-17T06:02:13.000Z</time>
      </trkpt>
      <trkpt lat="45.97662" lon="4.70742">
        <ele>183</ele>
        <time>2019-08-17T06:02:19.000Z</time>
      </trkpt>
      <trkpt lat="45.97646" lon="4.70736">
        <ele>183.39999389648</ele>
        <time>2019-08-17T06:02:24.000Z</time>
      </trkpt>
      <trkpt lat="45.97643" lon="4.70735">
        <ele>183.80000305176</ele>
        <time>2019-08-17T06:02:25.000Z</time>
      </trkpt>
      <trkpt lat="45.97639" lon="4.70734">
        <ele>184.19999694824</ele>
        <time>2019-08-17T06:02:26.000Z</time>
      </trkpt>
      <trkpt lat="45.97636" lon="4.70732">
        <ele>184.80000305176</ele>
        <time>2019-08-17T06:02:27.000Z</time>
      </trkpt>
      <trkpt lat="45.97633" lon="4.70732">
        <ele>185.19999694824</ele>
        <time>2019-08-17T06:02:28.000Z</time>
      </trkpt>
      <trkpt lat="45.97611" lon="4.70722">
        <ele>185.60000610352</ele>
        <time>2019-08-17T06:02:36.000Z</time>
      </trkpt>
      <trkpt lat="45.97608" lon="4.7072">
        <ele>186.39999389648</ele>
        <time>2019-08-17T06:02:37.000Z</time>
      </trkpt>
      <trkpt lat="45.97606" lon="4.70718">
        <ele>186.80000305176</ele>
        <time>2019-08-17T06:02:38.000Z</time>
      </trkpt>
      <trkpt lat="45.97603" lon="4.70716">
        <ele>187.19999694824</ele>
        <time>2019-08-17T06:02:39.000Z</time>
      </trkpt>
      <trkpt lat="45.976" lon="4.70706">
        <ele>187.19999694824</ele>
        <time>2019-08-17T06:02:42.000Z</time>
      </trkpt>
      <trkpt lat="45.97597" lon="4.70686">
        <ele>187.19999694824</ele>
        <time>2019-08-17T06:02:47.000Z</time>
      </trkpt>
      <trkpt lat="45.97597" lon="4.70652">
        <ele>187.19999694824</ele>
        <time>2019-08-17T06:02:55.000Z</time>
      </trkpt>
      <trkpt lat="45.97596" lon="4.70641">
        <ele>187.60000610352</ele>
        <time>2019-08-17T06:02:58.000Z</time>
      </trkpt>
      <trkpt lat="45.97594" lon="4.70638">
        <ele>188</ele>
        <time>2019-08-17T06:02:59.000Z</time>
      </trkpt>
      <trkpt lat="45.97592" lon="4.70639">
        <ele>188.39999389648</ele>
        <time>2019-08-17T06:03:00.000Z</time>
      </trkpt>
      <trkpt lat="45.9759" lon="4.70639">
        <ele>189.19999694824</ele>
        <time>2019-08-17T06:03:01.000Z</time>
      </trkpt>
      <trkpt lat="45.97581" lon="4.7064">
        <ele>189.19999694824</ele>
        <time>2019-08-17T06:03:04.000Z</time>
      </trkpt>
      <trkpt lat="45.97573" lon="4.70638">
        <ele>189.19999694824</ele>
        <time>2019-08-17T06:03:07.000Z</time>
      </trkpt>
      <trkpt lat="45.97565" lon="4.70637">
        <ele>189.19999694824</ele>
        <time>2019-08-17T06:03:10.000Z</time>
      </trkpt>
      <trkpt lat="45.97548" lon="4.70638">
        <ele>189.19999694824</ele>
        <time>2019-08-17T06:03:16.000Z</time>
      </trkpt>
      <trkpt lat="45.97542" lon="4.70637">
        <ele>189.60000610352</ele>
        <time>2019-08-17T06:03:18.000Z</time>
      </trkpt>
      <trkpt lat="45.97539" lon="4.70636">
        <ele>190</ele>
        <time>2019-08-17T06:03:19.000Z</time>
      </trkpt>
      <trkpt lat="45.97537" lon="4.70635">
        <ele>190.60000610352</ele>
        <time>2019-08-17T06:03:20.000Z</time>
      </trkpt>
      <trkpt lat="45.97534" lon="4.70637">
        <ele>191</ele>
        <time>2019-08-17T06:03:21.000Z</time>
      </trkpt>
      <trkpt lat="45.97533" lon="4.70639">
        <ele>191.39999389648</ele>
        <time>2019-08-17T06:03:22.000Z</time>
      </trkpt>
      <trkpt lat="45.97527" lon="4.7066">
        <ele>191.39999389648</ele>
        <time>2019-08-17T06:03:27.000Z</time>
      </trkpt>
      <trkpt lat="45.97525" lon="4.70679">
        <ele>191.39999389648</ele>
        <time>2019-08-17T06:03:32.000Z</time>
      </trkpt>
      <trkpt lat="45.97524" lon="4.70682">
        <ele>191.39999389648</ele>
        <time>2019-08-17T06:03:33.000Z</time>
      </trkpt>
      <trkpt lat="45.97524" lon="4.70688">
        <ele>191.39999389648</ele>
        <time>2019-08-17T06:03:37.000Z</time>
      </trkpt>
      <trkpt lat="45.97525" lon="4.70688">
        <ele>191.39999389648</ele>
        <time>2019-08-17T06:03:39.000Z</time>
      </trkpt>
      <trkpt lat="45.97526" lon="4.70689">
        <ele>191.39999389648</ele>
        <time>2019-08-17T06:03:42.000Z</time>
      </trkpt>
      <trkpt lat="45.97526" lon="4.70687">
        <ele>191.39999389648</ele>
        <time>2019-08-17T06:03:44.000Z</time>
      </trkpt>
      <trkpt lat="45.97526" lon="4.70687">
        <ele>191.39999389648</ele>
        <time>2019-08-17T06:03:45.000Z</time>
      </trkpt>
      <trkpt lat="45.97527" lon="4.70688">
        <ele>191.39999389648</ele>
        <time>2019-08-17T06:07:37.000Z</time>
      </trkpt>
      <trkpt lat="45.97527" lon="4.70687">
        <ele>191.39999389648</ele>
        <time>2019-08-17T06:07:38.000Z</time>
      </trkpt>
      <trkpt lat="45.97526" lon="4.70689">
        <ele>191.39999389648</ele>
        <time>2019-08-17T06:09:02.000Z</time>
      </trkpt>
      <trkpt lat="45.9752" lon="4.70689">
        <ele>191.39999389648</ele>
        <time>2019-08-17T06:09:06.000Z</time>
      </trkpt>
      <trkpt lat="45.97511" lon="4.70688">
        <ele>191.39999389648</ele>
        <time>2019-08-17T06:09:12.000Z</time>
      </trkpt>
      <trkpt lat="45.97508" lon="4.70688">
        <ele>191.80000305176</ele>
        <time>2019-08-17T06:09:14.000Z</time>
      </trkpt>
      <trkpt lat="45.97507" lon="4.70688">
        <ele>192.19999694824</ele>
        <time>2019-08-17T06:09:15.000Z</time>
      </trkpt>
      <trkpt lat="45.97506" lon="4.70688">
        <ele>192.60000610352</ele>
        <time>2019-08-17T06:09:16.000Z</time>
      </trkpt>
      <trkpt lat="45.97504" lon="4.70688">
        <ele>193</ele>
        <time>2019-08-17T06:09:17.000Z</time>
      </trkpt>
      <trkpt lat="45.97503" lon="4.70687">
        <ele>193.39999389648</ele>
        <time>2019-08-17T06:09:18.000Z</time>
      </trkpt>
      <trkpt lat="45.97501" lon="4.70683">
        <ele>193.39999389648</ele>
        <time>2019-08-17T06:09:21.000Z</time>
      </trkpt>
      <trkpt lat="45.97502" lon="4.70661">
        <ele>193.39999389648</ele>
        <time>2019-08-17T06:09:27.000Z</time>
      </trkpt>
      <trkpt lat="45.975" lon="4.70631">
        <ele>193.39999389648</ele>
        <time>2019-08-17T06:09:34.000Z</time>
      </trkpt>
      <trkpt lat="45.97497" lon="4.70622">
        <ele>193.39999389648</ele>
        <time>2019-08-17T06:09:36.000Z</time>
      </trkpt>
      <trkpt lat="45.97494" lon="4.70621">
        <ele>193.39999389648</ele>
        <time>2019-08-17T06:09:37.000Z</time>
      </trkpt>
      <trkpt lat="45.97485" lon="4.70628">
        <ele>193.39999389648</ele>
        <time>2019-08-17T06:09:40.000Z</time>
      </trkpt>
      <trkpt lat="45.97483" lon="4.70634">
        <ele>193.39999389648</ele>
        <time>2019-08-17T06:09:42.000Z</time>
      </trkpt>
      <trkpt lat="45.97477" lon="4.7065">
        <ele>193.39999389648</ele>
        <time>2019-08-17T06:09:46.000Z</time>
      </trkpt>
      <trkpt lat="45.97468" lon="4.70674">
        <ele>193.39999389648</ele>
        <time>2019-08-17T06:09:52.000Z</time>
      </trkpt>
      <trkpt lat="45.9746" lon="4.70696">
        <ele>193.39999389648</ele>
        <time>2019-08-17T06:09:58.000Z</time>
      </trkpt>
      <trkpt lat="45.9746" lon="4.707">
        <ele>193.39999389648</ele>
        <time>2019-08-17T06:09:59.000Z</time>
      </trkpt>
      <trkpt lat="45.97458" lon="4.7071">
        <ele>194</ele>
        <time>2019-08-17T06:10:02.000Z</time>
      </trkpt>
      <trkpt lat="45.97457" lon="4.70714">
        <ele>194.39999389648</ele>
        <time>2019-08-17T06:10:03.000Z</time>
      </trkpt>
      <trkpt lat="45.97457" lon="4.70717">
        <ele>194.80000305176</ele>
        <time>2019-08-17T06:10:04.000Z</time>
      </trkpt>
      <trkpt lat="45.97456" lon="4.70719">
        <ele>195.19999694824</ele>
        <time>2019-08-17T06:10:05.000Z</time>
      </trkpt>
      <trkpt lat="45.97456" lon="4.70721">
        <ele>195.60000610352</ele>
        <time>2019-08-17T06:10:06.000Z</time>
      </trkpt>
      <trkpt lat="45.97451" lon="4.70736">
        <ele>195.60000610352</ele>
        <time>2019-08-17T06:10:11.000Z</time>
      </trkpt>
      <trkpt lat="45.97445" lon="4.70744">
        <ele>195.60000610352</ele>
        <time>2019-08-17T06:10:14.000Z</time>
      </trkpt>
      <trkpt lat="45.97442" lon="4.70745">
        <ele>195.60000610352</ele>
        <time>2019-08-17T06:10:15.000Z</time>
      </trkpt>
      <trkpt lat="45.97434" lon="4.70745">
        <ele>196</ele>
        <time>2019-08-17T06:10:18.000Z</time>
      </trkpt>
      <trkpt lat="45.97431" lon="4.70744">
        <ele>196.39999389648</ele>
        <time>2019-08-17T06:10:19.000Z</time>
      </trkpt>
      <trkpt lat="45.97429" lon="4.70743">
        <ele>196.80000305176</ele>
        <time>2019-08-17T06:10:20.000Z</time>
      </trkpt>
      <trkpt lat="45.97426" lon="4.70742">
        <ele>197.39999389648</ele>
        <time>2019-08-17T06:10:21.000Z</time>
      </trkpt>
      <trkpt lat="45.97423" lon="4.70741">
        <ele>197.80000305176</ele>
        <time>2019-08-17T06:10:22.000Z</time>
      </trkpt>
      <trkpt lat="45.97411" lon="4.70739">
        <ele>197.80000305176</ele>
        <time>2019-08-17T06:10:27.000Z</time>
      </trkpt>
      <trkpt lat="45.97406" lon="4.70738">
        <ele>198.19999694824</ele>
        <time>2019-08-17T06:10:29.000Z</time>
      </trkpt>
      <trkpt lat="45.97404" lon="4.70738">
        <ele>198.60000610352</ele>
        <time>2019-08-17T06:10:30.000Z</time>
      </trkpt>
      <trkpt lat="45.97401" lon="4.70739">
        <ele>199</ele>
        <time>2019-08-17T06:10:31.000Z</time>
      </trkpt>
      <trkpt lat="45.97399" lon="4.70739">
        <ele>199.39999389648</ele>
        <time>2019-08-17T06:10:32.000Z</time>
      </trkpt>
      <trkpt lat="45.97396" lon="4.70739">
        <ele>199.80000305176</ele>
        <time>2019-08-17T06:10:33.000Z</time>
      </trkpt>
      <trkpt lat="45.97393" lon="4.7074">
        <ele>199.80000305176</ele>
        <time>2019-08-17T06:10:34.000Z</time>
      </trkpt>
      <trkpt lat="45.97377" lon="4.70743">
        <ele>200.19999694824</ele>
        <time>2019-08-17T06:10:41.000Z</time>
      </trkpt>
      <trkpt lat="45.97374" lon="4.70744">
        <ele>200.60000610352</ele>
        <time>2019-08-17T06:10:42.000Z</time>
      </trkpt>
      <trkpt lat="45.97371" lon="4.70745">
        <ele>201</ele>
        <time>2019-08-17T06:10:43.000Z</time>
      </trkpt>
      <trkpt lat="45.97369" lon="4.70745">
        <ele>201.39999389648</ele>
        <time>2019-08-17T06:10:44.000Z</time>
      </trkpt>
      <trkpt lat="45.97367" lon="4.70746">
        <ele>201.80000305176</ele>
        <time>2019-08-17T06:10:45.000Z</time>
      </trkpt>
      <trkpt lat="45.97358" lon="4.70752">
        <ele>201.80000305176</ele>
        <time>2019-08-17T06:10:49.000Z</time>
      </trkpt>
      <trkpt lat="45.97352" lon="4.70755">
        <ele>202.19999694824</ele>
        <time>2019-08-17T06:10:52.000Z</time>
      </trkpt>
      <trkpt lat="45.97349" lon="4.70756">
        <ele>202.80000305176</ele>
        <time>2019-08-17T06:10:53.000Z</time>
      </trkpt>
      <trkpt lat="45.97347" lon="4.70757">
        <ele>203.19999694824</ele>
        <time>2019-08-17T06:10:54.000Z</time>
      </trkpt>
      <trkpt lat="45.97345" lon="4.70758">
        <ele>203.60000610352</ele>
        <time>2019-08-17T06:10:55.000Z</time>
      </trkpt>
      <trkpt lat="45.97342" lon="4.70759">
        <ele>204</ele>
        <time>2019-08-17T06:10:56.000Z</time>
      </trkpt>
      <trkpt lat="45.97338" lon="4.70759">
        <ele>204</ele>
        <time>2019-08-17T06:10:58.000Z</time>
      </trkpt>
      <trkpt lat="45.97327" lon="4.70756">
        <ele>204.39999389648</ele>
        <time>2019-08-17T06:11:03.000Z</time>
      </trkpt>
      <trkpt lat="45.97325" lon="4.70757">
        <ele>205</ele>
        <time>2019-08-17T06:11:04.000Z</time>
      </trkpt>
      <trkpt lat="45.97322" lon="4.70758">
        <ele>205.39999389648</ele>
        <time>2019-08-17T06:11:05.000Z</time>
      </trkpt>
      <trkpt lat="45.9732" lon="4.70761">
        <ele>205.80000305176</ele>
        <time>2019-08-17T06:11:06.000Z</time>
      </trkpt>
      <trkpt lat="45.97319" lon="4.70763">
        <ele>206.19999694824</ele>
        <time>2019-08-17T06:11:07.000Z</time>
      </trkpt>
      <trkpt lat="45.97316" lon="4.70769">
        <ele>206.19999694824</ele>
        <time>2019-08-17T06:11:09.000Z</time>
      </trkpt>
      <trkpt lat="45.97307" lon="4.7078">
        <ele>206.19999694824</ele>
        <time>2019-08-17T06:11:14.000Z</time>
      </trkpt>
      <trkpt lat="45.97305" lon="4.70782">
        <ele>206.60000610352</ele>
        <time>2019-08-17T06:11:15.000Z</time>
      </trkpt>
      <trkpt lat="45.97303" lon="4.70784">
        <ele>207.19999694824</ele>
        <time>2019-08-17T06:11:16.000Z</time>
      </trkpt>
      <trkpt lat="45.97301" lon="4.70786">
        <ele>207.60000610352</ele>
        <time>2019-08-17T06:11:17.000Z</time>
      </trkpt>
      <trkpt lat="45.97299" lon="4.70788">
        <ele>208</ele>
        <time>2019-08-17T06:11:18.000Z</time>
      </trkpt>
      <trkpt lat="45.97297" lon="4.70791">
        <ele>208.39999389648</ele>
        <time>2019-08-17T06:11:19.000Z</time>
      </trkpt>
      <trkpt lat="45.97293" lon="4.70795">
        <ele>208.39999389648</ele>
        <time>2019-08-17T06:11:21.000Z</time>
      </trkpt>
      <trkpt lat="45.97282" lon="4.70809">
        <ele>208.80000305176</ele>
        <time>2019-08-17T06:11:27.000Z</time>
      </trkpt>
      <trkpt lat="45.9728" lon="4.70811">
        <ele>209.19999694824</ele>
        <time>2019-08-17T06:11:28.000Z</time>
      </trkpt>
      <trkpt lat="45.97279" lon="4.70813">
        <ele>209.60000610352</ele>
        <time>2019-08-17T06:11:29.000Z</time>
      </trkpt>
      <trkpt lat="45.97277" lon="4.70815">
        <ele>210</ele>
        <time>2019-08-17T06:11:30.000Z</time>
      </trkpt>
      <trkpt lat="45.97275" lon="4.70818">
        <ele>210.39999389648</ele>
        <time>2019-08-17T06:11:31.000Z</time>
      </trkpt>
      <trkpt lat="45.97266" lon="4.70831">
        <ele>210.39999389648</ele>
        <time>2019-08-17T06:11:36.000Z</time>
      </trkpt>
      <trkpt lat="45.97261" lon="4.70838">
        <ele>211.39999389648</ele>
        <time>2019-08-17T06:11:39.000Z</time>
      </trkpt>
      <trkpt lat="45.97259" lon="4.70841">
        <ele>211.80000305176</ele>
        <time>2019-08-17T06:11:40.000Z</time>
      </trkpt>
      <trkpt lat="45.97257" lon="4.70843">
        <ele>212.19999694824</ele>
        <time>2019-08-17T06:11:41.000Z</time>
      </trkpt>
      <trkpt lat="45.97255" lon="4.70846">
        <ele>212.60000610352</ele>
        <time>2019-08-17T06:11:42.000Z</time>
      </trkpt>
      <trkpt lat="45.97253" lon="4.70848">
        <ele>212.60000610352</ele>
        <time>2019-08-17T06:11:43.000Z</time>
      </trkpt>
      <trkpt lat="45.97239" lon="4.70869">
        <ele>213</ele>
        <time>2019-08-17T06:11:51.000Z</time>
      </trkpt>
      <trkpt lat="45.97237" lon="4.70872">
        <ele>213.39999389648</ele>
        <time>2019-08-17T06:11:52.000Z</time>
      </trkpt>
      <trkpt lat="45.97236" lon="4.70875">
        <ele>213.80000305176</ele>
        <time>2019-08-17T06:11:53.000Z</time>
      </trkpt>
      <trkpt lat="45.97234" lon="4.70877">
        <ele>214.39999389648</ele>
        <time>2019-08-17T06:11:54.000Z</time>
      </trkpt>
      <trkpt lat="45.97232" lon="4.7088">
        <ele>214.80000305176</ele>
        <time>2019-08-17T06:11:55.000Z</time>
      </trkpt>
      <trkpt lat="45.97223" lon="4.70893">
        <ele>214.80000305176</ele>
        <time>2019-08-17T06:12:00.000Z</time>
      </trkpt>
      <trkpt lat="45.97214" lon="4.70902">
        <ele>215.19999694824</ele>
        <time>2019-08-17T06:12:04.000Z</time>
      </trkpt>
      <trkpt lat="45.97212" lon="4.70904">
        <ele>215.60000610352</ele>
        <time>2019-08-17T06:12:05.000Z</time>
      </trkpt>
      <trkpt lat="45.9721" lon="4.70906">
        <ele>216</ele>
        <time>2019-08-17T06:12:06.000Z</time>
      </trkpt>
      <trkpt lat="45.97208" lon="4.70908">
        <ele>216.39999389648</ele>
        <time>2019-08-17T06:12:07.000Z</time>
      </trkpt>
      <trkpt lat="45.97206" lon="4.7091">
        <ele>216.80000305176</ele>
        <time>2019-08-17T06:12:08.000Z</time>
      </trkpt>
      <trkpt lat="45.97192" lon="4.70921">
        <ele>216.80000305176</ele>
        <time>2019-08-17T06:12:14.000Z</time>
      </trkpt>
      <trkpt lat="45.97185" lon="4.70926">
        <ele>217.19999694824</ele>
        <time>2019-08-17T06:12:17.000Z</time>
      </trkpt>
      <trkpt lat="45.97183" lon="4.70927">
        <ele>217.60000610352</ele>
        <time>2019-08-17T06:12:18.000Z</time>
      </trkpt>
      <trkpt lat="45.97181" lon="4.70929">
        <ele>218.19999694824</ele>
        <time>2019-08-17T06:12:19.000Z</time>
      </trkpt>
      <trkpt lat="45.97179" lon="4.70931">
        <ele>218.60000610352</ele>
        <time>2019-08-17T06:12:20.000Z</time>
      </trkpt>
      <trkpt lat="45.97177" lon="4.70933">
        <ele>219</ele>
        <time>2019-08-17T06:12:21.000Z</time>
      </trkpt>
      <trkpt lat="45.97174" lon="4.70935">
        <ele>219</ele>
        <time>2019-08-17T06:12:22.000Z</time>
      </trkpt>
      <trkpt lat="45.97155" lon="4.70945">
        <ele>219.39999389648</ele>
        <time>2019-08-17T06:12:30.000Z</time>
      </trkpt>
      <trkpt lat="45.97152" lon="4.70946">
        <ele>219.80000305176</ele>
        <time>2019-08-17T06:12:31.000Z</time>
      </trkpt>
      <trkpt lat="45.9715" lon="4.70948">
        <ele>220.19999694824</ele>
        <time>2019-08-17T06:12:32.000Z</time>
      </trkpt>
      <trkpt lat="45.97147" lon="4.70949">
        <ele>220.60000610352</ele>
        <time>2019-08-17T06:12:33.000Z</time>
      </trkpt>
      <trkpt lat="45.97145" lon="4.70951">
        <ele>221</ele>
        <time>2019-08-17T06:12:34.000Z</time>
      </trkpt>
      <trkpt lat="45.97134" lon="4.70955">
        <ele>221</ele>
        <time>2019-08-17T06:12:38.000Z</time>
      </trkpt>
      <trkpt lat="45.97121" lon="4.7096">
        <ele>221.39999389648</ele>
        <time>2019-08-17T06:12:43.000Z</time>
      </trkpt>
      <trkpt lat="45.97118" lon="4.70961">
        <ele>221.80000305176</ele>
        <time>2019-08-17T06:12:44.000Z</time>
      </trkpt>
      <trkpt lat="45.97115" lon="4.70962">
        <ele>222.19999694824</ele>
        <time>2019-08-17T06:12:45.000Z</time>
      </trkpt>
      <trkpt lat="45.97113" lon="4.70964">
        <ele>222.80000305176</ele>
        <time>2019-08-17T06:12:46.000Z</time>
      </trkpt>
      <trkpt lat="45.9711" lon="4.70965">
        <ele>223.19999694824</ele>
        <time>2019-08-17T06:12:47.000Z</time>
      </trkpt>
      <trkpt lat="45.97088" lon="4.70973">
        <ele>223.60000610352</ele>
        <time>2019-08-17T06:12:55.000Z</time>
      </trkpt>
      <trkpt lat="45.97085" lon="4.70974">
        <ele>224</ele>
        <time>2019-08-17T06:12:56.000Z</time>
      </trkpt>
      <trkpt lat="45.97083" lon="4.70975">
        <ele>224.39999389648</ele>
        <time>2019-08-17T06:12:57.000Z</time>
      </trkpt>
      <trkpt lat="45.9708" lon="4.70975">
        <ele>224.80000305176</ele>
        <time>2019-08-17T06:12:58.000Z</time>
      </trkpt>
      <trkpt lat="45.97077" lon="4.70976">
        <ele>225.19999694824</ele>
        <time>2019-08-17T06:12:59.000Z</time>
      </trkpt>
      <trkpt lat="45.97066" lon="4.70978">
        <ele>225.19999694824</ele>
        <time>2019-08-17T06:13:03.000Z</time>
      </trkpt>
      <trkpt lat="45.97055" lon="4.7098">
        <ele>225.60000610352</ele>
        <time>2019-08-17T06:13:07.000Z</time>
      </trkpt>
      <trkpt lat="45.97052" lon="4.7098">
        <ele>226.19999694824</ele>
        <time>2019-08-17T06:13:08.000Z</time>
      </trkpt>
      <trkpt lat="45.9705" lon="4.70981">
        <ele>226.60000610352</ele>
        <time>2019-08-17T06:13:09.000Z</time>
      </trkpt>
      <trkpt lat="45.97047" lon="4.70981">
        <ele>227</ele>
        <time>2019-08-17T06:13:10.000Z</time>
      </trkpt>
      <trkpt lat="45.97044" lon="4.70981">
        <ele>227.39999389648</ele>
        <time>2019-08-17T06:13:11.000Z</time>
      </trkpt>
      <trkpt lat="45.97042" lon="4.70981">
        <ele>227.39999389648</ele>
        <time>2019-08-17T06:13:12.000Z</time>
      </trkpt>
      <trkpt lat="45.97026" lon="4.70982">
        <ele>227.80000305176</ele>
        <time>2019-08-17T06:13:18.000Z</time>
      </trkpt>
      <trkpt lat="45.97023" lon="4.70983">
        <ele>228.19999694824</ele>
        <time>2019-08-17T06:13:19.000Z</time>
      </trkpt>
      <trkpt lat="45.97021" lon="4.70983">
        <ele>228.60000610352</ele>
        <time>2019-08-17T06:13:20.000Z</time>
      </trkpt>
      <trkpt lat="45.97018" lon="4.70984">
        <ele>229</ele>
        <time>2019-08-17T06:13:21.000Z</time>
      </trkpt>
      <trkpt lat="45.97015" lon="4.70984">
        <ele>229.39999389648</ele>
        <time>2019-08-17T06:13:22.000Z</time>
      </trkpt>
      <trkpt lat="45.96999" lon="4.70984">
        <ele>229.39999389648</ele>
        <time>2019-08-17T06:13:28.000Z</time>
      </trkpt>
      <trkpt lat="45.96988" lon="4.70984">
        <ele>230</ele>
        <time>2019-08-17T06:13:32.000Z</time>
      </trkpt>
      <trkpt lat="45.96986" lon="4.70984">
        <ele>230.39999389648</ele>
        <time>2019-08-17T06:13:33.000Z</time>
      </trkpt>
      <trkpt lat="45.96983" lon="4.70984">
        <ele>230.80000305176</ele>
        <time>2019-08-17T06:13:34.000Z</time>
      </trkpt>
      <trkpt lat="45.96981" lon="4.70983">
        <ele>231.19999694824</ele>
        <time>2019-08-17T06:13:35.000Z</time>
      </trkpt>
      <trkpt lat="45.96978" lon="4.70983">
        <ele>231.60000610352</ele>
        <time>2019-08-17T06:13:36.000Z</time>
      </trkpt>
      <trkpt lat="45.96956" lon="4.70981">
        <ele>232</ele>
        <time>2019-08-17T06:13:44.000Z</time>
      </trkpt>
      <trkpt lat="45.96954" lon="4.70981">
        <ele>232.60000610352</ele>
        <time>2019-08-17T06:13:45.000Z</time>
      </trkpt>
      <trkpt lat="45.96951" lon="4.7098">
        <ele>233</ele>
        <time>2019-08-17T06:13:46.000Z</time>
      </trkpt>
      <trkpt lat="45.96948" lon="4.70979">
        <ele>233.39999389648</ele>
        <time>2019-08-17T06:13:47.000Z</time>
      </trkpt>
      <trkpt lat="45.96945" lon="4.70978">
        <ele>233.80000305176</ele>
        <time>2019-08-17T06:13:48.000Z</time>
      </trkpt>
      <trkpt lat="45.96932" lon="4.70975">
        <ele>233.80000305176</ele>
        <time>2019-08-17T06:13:53.000Z</time>
      </trkpt>
      <trkpt lat="45.96919" lon="4.70972">
        <ele>234.19999694824</ele>
        <time>2019-08-17T06:13:58.000Z</time>
      </trkpt>
      <trkpt lat="45.96917" lon="4.70971">
        <ele>234.60000610352</ele>
        <time>2019-08-17T06:13:59.000Z</time>
      </trkpt>
      <trkpt lat="45.96914" lon="4.70971">
        <ele>235.19999694824</ele>
        <time>2019-08-17T06:14:00.000Z</time>
      </trkpt>
      <trkpt lat="45.96911" lon="4.7097">
        <ele>235.60000610352</ele>
        <time>2019-08-17T06:14:01.000Z</time>
      </trkpt>
      <trkpt lat="45.96908" lon="4.70969">
        <ele>236</ele>
        <time>2019-08-17T06:14:02.000Z</time>
      </trkpt>
      <trkpt lat="45.96893" lon="4.70965">
        <ele>236</ele>
        <time>2019-08-17T06:14:08.000Z</time>
      </trkpt>
      <trkpt lat="45.9689" lon="4.70964">
        <ele>236.39999389648</ele>
        <time>2019-08-17T06:14:09.000Z</time>
      </trkpt>
      <trkpt lat="45.96888" lon="4.70963">
        <ele>236.80000305176</ele>
        <time>2019-08-17T06:14:10.000Z</time>
      </trkpt>
      <trkpt lat="45.96885" lon="4.70962">
        <ele>237.19999694824</ele>
        <time>2019-08-17T06:14:11.000Z</time>
      </trkpt>
      <trkpt lat="45.96882" lon="4.70961">
        <ele>237.60000610352</ele>
        <time>2019-08-17T06:14:12.000Z</time>
      </trkpt>
      <trkpt lat="45.9688" lon="4.7096">
        <ele>238</ele>
        <time>2019-08-17T06:14:13.000Z</time>
      </trkpt>
      <trkpt lat="45.96872" lon="4.70956">
        <ele>238</ele>
        <time>2019-08-17T06:14:16.000Z</time>
      </trkpt>
      <trkpt lat="45.96857" lon="4.70948">
        <ele>238.39999389648</ele>
        <time>2019-08-17T06:14:22.000Z</time>
      </trkpt>
      <trkpt lat="45.96855" lon="4.70946">
        <ele>238.80000305176</ele>
        <time>2019-08-17T06:14:23.000Z</time>
      </trkpt>
      <trkpt lat="45.96852" lon="4.70944">
        <ele>239.39999389648</ele>
        <time>2019-08-17T06:14:24.000Z</time>
      </trkpt>
      <trkpt lat="45.9685" lon="4.70943">
        <ele>239.80000305176</ele>
        <time>2019-08-17T06:14:25.000Z</time>
      </trkpt>
      <trkpt lat="45.96847" lon="4.70941">
        <ele>240.19999694824</ele>
        <time>2019-08-17T06:14:26.000Z</time>
      </trkpt>
      <trkpt lat="45.96838" lon="4.70933">
        <ele>240.19999694824</ele>
        <time>2019-08-17T06:14:30.000Z</time>
      </trkpt>
      <trkpt lat="45.96831" lon="4.70928">
        <ele>240.60000610352</ele>
        <time>2019-08-17T06:14:33.000Z</time>
      </trkpt>
      <trkpt lat="45.96829" lon="4.70926">
        <ele>241</ele>
        <time>2019-08-17T06:14:34.000Z</time>
      </trkpt>
      <trkpt lat="45.96826" lon="4.70925">
        <ele>241.39999389648</ele>
        <time>2019-08-17T06:14:35.000Z</time>
      </trkpt>
      <trkpt lat="45.96824" lon="4.70924">
        <ele>241.80000305176</ele>
        <time>2019-08-17T06:14:36.000Z</time>
      </trkpt>
      <trkpt lat="45.96821" lon="4.70923">
        <ele>242.19999694824</ele>
        <time>2019-08-17T06:14:37.000Z</time>
      </trkpt>
      <trkpt lat="45.96806" lon="4.70914">
        <ele>242.19999694824</ele>
        <time>2019-08-17T06:14:43.000Z</time>
      </trkpt>
      <trkpt lat="45.96793" lon="4.70905">
        <ele>242.60000610352</ele>
        <time>2019-08-17T06:14:48.000Z</time>
      </trkpt>
      <trkpt lat="45.96791" lon="4.70903">
        <ele>243</ele>
        <time>2019-08-17T06:14:49.000Z</time>
      </trkpt>
      <trkpt lat="45.96789" lon="4.70902">
        <ele>243.39999389648</ele>
        <time>2019-08-17T06:14:50.000Z</time>
      </trkpt>
      <trkpt lat="45.96786" lon="4.709">
        <ele>243.80000305176</ele>
        <time>2019-08-17T06:14:51.000Z</time>
      </trkpt>
      <trkpt lat="45.96784" lon="4.70898">
        <ele>244.39999389648</ele>
        <time>2019-08-17T06:14:52.000Z</time>
      </trkpt>
      <trkpt lat="45.96764" lon="4.70885">
        <ele>244.80000305176</ele>
        <time>2019-08-17T06:15:00.000Z</time>
      </trkpt>
      <trkpt lat="45.96761" lon="4.70884">
        <ele>245.19999694824</ele>
        <time>2019-08-17T06:15:01.000Z</time>
      </trkpt>
      <trkpt lat="45.96759" lon="4.70882">
        <ele>245.60000610352</ele>
        <time>2019-08-17T06:15:02.000Z</time>
      </trkpt>
      <trkpt lat="45.96756" lon="4.7088">
        <ele>246</ele>
        <time>2019-08-17T06:15:03.000Z</time>
      </trkpt>
      <trkpt lat="45.96754" lon="4.70879">
        <ele>246.39999389648</ele>
        <time>2019-08-17T06:15:04.000Z</time>
      </trkpt>
      <trkpt lat="45.96744" lon="4.70873">
        <ele>246.39999389648</ele>
        <time>2019-08-17T06:15:08.000Z</time>
      </trkpt>
      <trkpt lat="45.96726" lon="4.70862">
        <ele>246.80000305176</ele>
        <time>2019-08-17T06:15:15.000Z</time>
      </trkpt>
      <trkpt lat="45.96724" lon="4.70861">
        <ele>247.19999694824</ele>
        <time>2019-08-17T06:15:16.000Z</time>
      </trkpt>
      <trkpt lat="45.96721" lon="4.70859">
        <ele>247.60000610352</ele>
        <time>2019-08-17T06:15:17.000Z</time>
      </trkpt>
      <trkpt lat="45.96719" lon="4.70857">
        <ele>248</ele>
        <time>2019-08-17T06:15:18.000Z</time>
      </trkpt>
      <trkpt lat="45.96716" lon="4.70856">
        <ele>248.39999389648</ele>
        <time>2019-08-17T06:15:19.000Z</time>
      </trkpt>
      <trkpt lat="45.96712" lon="4.70853">
        <ele>248.39999389648</ele>
        <time>2019-08-17T06:15:21.000Z</time>
      </trkpt>
      <trkpt lat="45.967" lon="4.70845">
        <ele>248.80000305176</ele>
        <time>2019-08-17T06:15:26.000Z</time>
      </trkpt>
      <trkpt lat="45.96697" lon="4.70843">
        <ele>249.19999694824</ele>
        <time>2019-08-17T06:15:27.000Z</time>
      </trkpt>
      <trkpt lat="45.96694" lon="4.70842">
        <ele>249.60000610352</ele>
        <time>2019-08-17T06:15:28.000Z</time>
      </trkpt>
      <trkpt lat="45.96692" lon="4.7084">
        <ele>250</ele>
        <time>2019-08-17T06:15:29.000Z</time>
      </trkpt>
      <trkpt lat="45.96689" lon="4.70839">
        <ele>250.39999389648</ele>
        <time>2019-08-17T06:15:30.000Z</time>
      </trkpt>
      <trkpt lat="45.96687" lon="4.70837">
        <ele>250.39999389648</ele>
        <time>2019-08-17T06:15:31.000Z</time>
      </trkpt>
      <trkpt lat="45.96664" lon="4.70821">
        <ele>250.80000305176</ele>
        <time>2019-08-17T06:15:40.000Z</time>
      </trkpt>
      <trkpt lat="45.96661" lon="4.70819">
        <ele>251.39999389648</ele>
        <time>2019-08-17T06:15:41.000Z</time>
      </trkpt>
      <trkpt lat="45.96659" lon="4.70818">
        <ele>251.80000305176</ele>
        <time>2019-08-17T06:15:42.000Z</time>
      </trkpt>
      <trkpt lat="45.96656" lon="4.70817">
        <ele>252.19999694824</ele>
        <time>2019-08-17T06:15:43.000Z</time>
      </trkpt>
      <trkpt lat="45.96654" lon="4.70815">
        <ele>252.60000610352</ele>
        <time>2019-08-17T06:15:44.000Z</time>
      </trkpt>
      <trkpt lat="45.96641" lon="4.70807">
        <ele>252.60000610352</ele>
        <time>2019-08-17T06:15:49.000Z</time>
      </trkpt>
      <trkpt lat="45.96634" lon="4.70802">
        <ele>253</ele>
        <time>2019-08-17T06:15:52.000Z</time>
      </trkpt>
      <trkpt lat="45.96631" lon="4.708">
        <ele>253.39999389648</ele>
        <time>2019-08-17T06:15:53.000Z</time>
      </trkpt>
      <trkpt lat="45.96629" lon="4.70799">
        <ele>253.80000305176</ele>
        <time>2019-08-17T06:15:54.000Z</time>
      </trkpt>
      <trkpt lat="45.96626" lon="4.70797">
        <ele>254.19999694824</ele>
        <time>2019-08-17T06:15:55.000Z</time>
      </trkpt>
      <trkpt lat="45.96624" lon="4.70796">
        <ele>254.60000610352</ele>
        <time>2019-08-17T06:15:56.000Z</time>
      </trkpt>
      <trkpt lat="45.96607" lon="4.70784">
        <ele>254.60000610352</ele>
        <time>2019-08-17T06:16:03.000Z</time>
      </trkpt>
      <trkpt lat="45.96602" lon="4.70781">
        <ele>255</ele>
        <time>2019-08-17T06:16:05.000Z</time>
      </trkpt>
      <trkpt lat="45.96599" lon="4.70779">
        <ele>255.39999389648</ele>
        <time>2019-08-17T06:16:06.000Z</time>
      </trkpt>
      <trkpt lat="45.96597" lon="4.70777">
        <ele>255.80000305176</ele>
        <time>2019-08-17T06:16:07.000Z</time>
      </trkpt>
      <trkpt lat="45.96594" lon="4.70775">
        <ele>256.20001220703</ele>
        <time>2019-08-17T06:16:08.000Z</time>
      </trkpt>
      <trkpt lat="45.96592" lon="4.70773">
        <ele>256.79998779297</ele>
        <time>2019-08-17T06:16:09.000Z</time>
      </trkpt>
      <trkpt lat="45.96583" lon="4.70765">
        <ele>256.79998779297</ele>
        <time>2019-08-17T06:16:13.000Z</time>
      </trkpt>
      <trkpt lat="45.96575" lon="4.7076">
        <ele>257.20001220703</ele>
        <time>2019-08-17T06:16:16.000Z</time>
      </trkpt>
      <trkpt lat="45.96573" lon="4.70759">
        <ele>257.60000610352</ele>
        <time>2019-08-17T06:16:17.000Z</time>
      </trkpt>
      <trkpt lat="45.9657" lon="4.70757">
        <ele>258</ele>
        <time>2019-08-17T06:16:18.000Z</time>
      </trkpt>
      <trkpt lat="45.96568" lon="4.70755">
        <ele>258.39999389648</ele>
        <time>2019-08-17T06:16:19.000Z</time>
      </trkpt>
      <trkpt lat="45.96565" lon="4.70753">
        <ele>258.79998779297</ele>
        <time>2019-08-17T06:16:20.000Z</time>
      </trkpt>
      <trkpt lat="45.96548" lon="4.70739">
        <ele>258.79998779297</ele>
        <time>2019-08-17T06:16:27.000Z</time>
      </trkpt>
      <trkpt lat="45.96546" lon="4.70737">
        <ele>259.20001220703</ele>
        <time>2019-08-17T06:16:28.000Z</time>
      </trkpt>
      <trkpt lat="45.96543" lon="4.70735">
        <ele>259.60000610352</ele>
        <time>2019-08-17T06:16:29.000Z</time>
      </trkpt>
      <trkpt lat="45.9654" lon="4.70733">
        <ele>260</ele>
        <time>2019-08-17T06:16:30.000Z</time>
      </trkpt>
      <trkpt lat="45.96538" lon="4.70731">
        <ele>260.39999389648</ele>
        <time>2019-08-17T06:16:31.000Z</time>
      </trkpt>
      <trkpt lat="45.96535" lon="4.70729">
        <ele>260.79998779297</ele>
        <time>2019-08-17T06:16:32.000Z</time>
      </trkpt>
      <trkpt lat="45.96528" lon="4.70723">
        <ele>260.79998779297</ele>
        <time>2019-08-17T06:16:35.000Z</time>
      </trkpt>
      <trkpt lat="45.96519" lon="4.70715">
        <ele>261.20001220703</ele>
        <time>2019-08-17T06:16:39.000Z</time>
      </trkpt>
      <trkpt lat="45.96517" lon="4.70712">
        <ele>261.79998779297</ele>
        <time>2019-08-17T06:16:40.000Z</time>
      </trkpt>
      <trkpt lat="45.96514" lon="4.7071">
        <ele>262.20001220703</ele>
        <time>2019-08-17T06:16:41.000Z</time>
      </trkpt>
      <trkpt lat="45.96511" lon="4.70709">
        <ele>262.60000610352</ele>
        <time>2019-08-17T06:16:42.000Z</time>
      </trkpt>
      <trkpt lat="45.96509" lon="4.70707">
        <ele>263</ele>
        <time>2019-08-17T06:16:43.000Z</time>
      </trkpt>
      <trkpt lat="45.96497" lon="4.70696">
        <ele>263</ele>
        <time>2019-08-17T06:16:48.000Z</time>
      </trkpt>
      <trkpt lat="45.96493" lon="4.70692">
        <ele>263.39999389648</ele>
        <time>2019-08-17T06:16:50.000Z</time>
      </trkpt>
      <trkpt lat="45.96491" lon="4.70691">
        <ele>263.79998779297</ele>
        <time>2019-08-17T06:16:51.000Z</time>
      </trkpt>
      <trkpt lat="45.96488" lon="4.70689">
        <ele>264.20001220703</ele>
        <time>2019-08-17T06:16:52.000Z</time>
      </trkpt>
      <trkpt lat="45.96486" lon="4.70687">
        <ele>264.79998779297</ele>
        <time>2019-08-17T06:16:53.000Z</time>
      </trkpt>
      <trkpt lat="45.96483" lon="4.70685">
        <ele>265.20001220703</ele>
        <time>2019-08-17T06:16:54.000Z</time>
      </trkpt>
      <trkpt lat="45.96478" lon="4.70681">
        <ele>265.20001220703</ele>
        <time>2019-08-17T06:16:56.000Z</time>
      </trkpt>
      <trkpt lat="45.96465" lon="4.70667">
        <ele>265.60000610352</ele>
        <time>2019-08-17T06:17:02.000Z</time>
      </trkpt>
      <trkpt lat="45.96462" lon="4.70665">
        <ele>266</ele>
        <time>2019-08-17T06:17:03.000Z</time>
      </trkpt>
      <trkpt lat="45.9646" lon="4.70663">
        <ele>266.39999389648</ele>
        <time>2019-08-17T06:17:04.000Z</time>
      </trkpt>
      <trkpt lat="45.96458" lon="4.70661">
        <ele>266.79998779297</ele>
        <time>2019-08-17T06:17:05.000Z</time>
      </trkpt>
      <trkpt lat="45.96456" lon="4.70659">
        <ele>267.20001220703</ele>
        <time>2019-08-17T06:17:06.000Z</time>
      </trkpt>
      <trkpt lat="45.9644" lon="4.70642">
        <ele>267.60000610352</ele>
        <time>2019-08-17T06:17:13.000Z</time>
      </trkpt>
      <trkpt lat="45.96437" lon="4.70639">
        <ele>268</ele>
        <time>2019-08-17T06:17:14.000Z</time>
      </trkpt>
      <trkpt lat="45.96435" lon="4.70636">
        <ele>268.39999389648</ele>
        <time>2019-08-17T06:17:15.000Z</time>
      </trkpt>
      <trkpt lat="45.96433" lon="4.70634">
        <ele>268.79998779297</ele>
        <time>2019-08-17T06:17:16.000Z</time>
      </trkpt>
      <trkpt lat="45.96431" lon="4.70631">
        <ele>269.20001220703</ele>
        <time>2019-08-17T06:17:17.000Z</time>
      </trkpt>
      <trkpt lat="45.96425" lon="4.70624">
        <ele>269.20001220703</ele>
        <time>2019-08-17T06:17:20.000Z</time>
      </trkpt>
      <trkpt lat="45.9641" lon="4.70608">
        <ele>269.60000610352</ele>
        <time>2019-08-17T06:17:27.000Z</time>
      </trkpt>
      <trkpt lat="45.96408" lon="4.70605">
        <ele>270.20001220703</ele>
        <time>2019-08-17T06:17:28.000Z</time>
      </trkpt>
      <trkpt lat="45.96406" lon="4.70603">
        <ele>270.60000610352</ele>
        <time>2019-08-17T06:17:29.000Z</time>
      </trkpt>
      <trkpt lat="45.96403" lon="4.706">
        <ele>271</ele>
        <time>2019-08-17T06:17:30.000Z</time>
      </trkpt>
      <trkpt lat="45.96401" lon="4.70598">
        <ele>271.39999389648</ele>
        <time>2019-08-17T06:17:31.000Z</time>
      </trkpt>
      <trkpt lat="45.96393" lon="4.70587">
        <ele>271.39999389648</ele>
        <time>2019-08-17T06:17:35.000Z</time>
      </trkpt>
      <trkpt lat="45.9638" lon="4.70573">
        <ele>271.79998779297</ele>
        <time>2019-08-17T06:17:41.000Z</time>
      </trkpt>
      <trkpt lat="45.96378" lon="4.7057">
        <ele>272.20001220703</ele>
        <time>2019-08-17T06:17:42.000Z</time>
      </trkpt>
      <trkpt lat="45.96376" lon="4.70567">
        <ele>272.60000610352</ele>
        <time>2019-08-17T06:17:43.000Z</time>
      </trkpt>
      <trkpt lat="45.96374" lon="4.70565">
        <ele>273</ele>
        <time>2019-08-17T06:17:44.000Z</time>
      </trkpt>
      <trkpt lat="45.96372" lon="4.70562">
        <ele>273.39999389648</ele>
        <time>2019-08-17T06:17:45.000Z</time>
      </trkpt>
      <trkpt lat="45.96361" lon="4.70549">
        <ele>273.39999389648</ele>
        <time>2019-08-17T06:17:50.000Z</time>
      </trkpt>
      <trkpt lat="45.96349" lon="4.70533">
        <ele>273.79998779297</ele>
        <time>2019-08-17T06:17:56.000Z</time>
      </trkpt>
      <trkpt lat="45.96347" lon="4.7053">
        <ele>274.20001220703</ele>
        <time>2019-08-17T06:17:57.000Z</time>
      </trkpt>
      <trkpt lat="45.96344" lon="4.70528">
        <ele>274.60000610352</ele>
        <time>2019-08-17T06:17:58.000Z</time>
      </trkpt>
      <trkpt lat="45.96342" lon="4.70525">
        <ele>275</ele>
        <time>2019-08-17T06:17:59.000Z</time>
      </trkpt>
      <trkpt lat="45.9634" lon="4.70522">
        <ele>275.39999389648</ele>
        <time>2019-08-17T06:18:00.000Z</time>
      </trkpt>
      <trkpt lat="45.96327" lon="4.70506">
        <ele>275.39999389648</ele>
        <time>2019-08-17T06:18:06.000Z</time>
      </trkpt>
      <trkpt lat="45.96318" lon="4.70493">
        <ele>275.79998779297</ele>
        <time>2019-08-17T06:18:10.000Z</time>
      </trkpt>
      <trkpt lat="45.96315" lon="4.7049">
        <ele>276.20001220703</ele>
        <time>2019-08-17T06:18:11.000Z</time>
      </trkpt>
      <trkpt lat="45.96313" lon="4.70487">
        <ele>276.60000610352</ele>
        <time>2019-08-17T06:18:12.000Z</time>
      </trkpt>
      <trkpt lat="45.96311" lon="4.70485">
        <ele>277</ele>
        <time>2019-08-17T06:18:13.000Z</time>
      </trkpt>
      <trkpt lat="45.96308" lon="4.70481">
        <ele>277.39999389648</ele>
        <time>2019-08-17T06:18:14.000Z</time>
      </trkpt>
      <trkpt lat="45.96292" lon="4.70458">
        <ele>277.39999389648</ele>
        <time>2019-08-17T06:18:21.000Z</time>
      </trkpt>
      <trkpt lat="45.96276" lon="4.70434">
        <ele>277.39999389648</ele>
        <time>2019-08-17T06:18:28.000Z</time>
      </trkpt>
      <trkpt lat="45.96271" lon="4.70427">
        <ele>277.79998779297</ele>
        <time>2019-08-17T06:18:30.000Z</time>
      </trkpt>
      <trkpt lat="45.96269" lon="4.70423">
        <ele>278.20001220703</ele>
        <time>2019-08-17T06:18:31.000Z</time>
      </trkpt>
      <trkpt lat="45.96266" lon="4.70419">
        <ele>278.79998779297</ele>
        <time>2019-08-17T06:18:32.000Z</time>
      </trkpt>
      <trkpt lat="45.96264" lon="4.70415">
        <ele>279.20001220703</ele>
        <time>2019-08-17T06:18:33.000Z</time>
      </trkpt>
      <trkpt lat="45.96262" lon="4.70412">
        <ele>279.60000610352</ele>
        <time>2019-08-17T06:18:34.000Z</time>
      </trkpt>
      <trkpt lat="45.96257" lon="4.70404">
        <ele>279.60000610352</ele>
        <time>2019-08-17T06:18:36.000Z</time>
      </trkpt>
      <trkpt lat="45.96238" lon="4.70375">
        <ele>279.60000610352</ele>
        <time>2019-08-17T06:18:44.000Z</time>
      </trkpt>
      <trkpt lat="45.96224" lon="4.70353">
        <ele>280</ele>
        <time>2019-08-17T06:18:50.000Z</time>
      </trkpt>
      <trkpt lat="45.96221" lon="4.70349">
        <ele>280.39999389648</ele>
        <time>2019-08-17T06:18:51.000Z</time>
      </trkpt>
      <trkpt lat="45.96219" lon="4.70345">
        <ele>281</ele>
        <time>2019-08-17T06:18:52.000Z</time>
      </trkpt>
      <trkpt lat="45.96216" lon="4.70341">
        <ele>281.39999389648</ele>
        <time>2019-08-17T06:18:53.000Z</time>
      </trkpt>
      <trkpt lat="45.96214" lon="4.70337">
        <ele>281.79998779297</ele>
        <time>2019-08-17T06:18:54.000Z</time>
      </trkpt>
      <trkpt lat="45.96204" lon="4.70322">
        <ele>281.79998779297</ele>
        <time>2019-08-17T06:18:58.000Z</time>
      </trkpt>
      <trkpt lat="45.9618" lon="4.70288">
        <ele>281.79998779297</ele>
        <time>2019-08-17T06:19:07.000Z</time>
      </trkpt>
      <trkpt lat="45.96171" lon="4.70276">
        <ele>282.20001220703</ele>
        <time>2019-08-17T06:19:10.000Z</time>
      </trkpt>
      <trkpt lat="45.96168" lon="4.70273">
        <ele>282.60000610352</ele>
        <time>2019-08-17T06:19:11.000Z</time>
      </trkpt>
      <trkpt lat="45.96165" lon="4.70269">
        <ele>283</ele>
        <time>2019-08-17T06:19:12.000Z</time>
      </trkpt>
      <trkpt lat="45.96162" lon="4.70266">
        <ele>283.39999389648</ele>
        <time>2019-08-17T06:19:13.000Z</time>
      </trkpt>
      <trkpt lat="45.96159" lon="4.70262">
        <ele>284</ele>
        <time>2019-08-17T06:19:14.000Z</time>
      </trkpt>
      <trkpt lat="45.96131" lon="4.70235">
        <ele>284</ele>
        <time>2019-08-17T06:19:22.000Z</time>
      </trkpt>
      <trkpt lat="45.96105" lon="4.70212">
        <ele>284.39999389648</ele>
        <time>2019-08-17T06:19:30.000Z</time>
      </trkpt>
      <trkpt lat="45.96102" lon="4.70209">
        <ele>284.79998779297</ele>
        <time>2019-08-17T06:19:31.000Z</time>
      </trkpt>
      <trkpt lat="45.96098" lon="4.70206">
        <ele>285.20001220703</ele>
        <time>2019-08-17T06:19:32.000Z</time>
      </trkpt>
      <trkpt lat="45.96095" lon="4.70203">
        <ele>285.60000610352</ele>
        <time>2019-08-17T06:19:33.000Z</time>
      </trkpt>
      <trkpt lat="45.96092" lon="4.70201">
        <ele>286</ele>
        <time>2019-08-17T06:19:34.000Z</time>
      </trkpt>
      <trkpt lat="45.96076" lon="4.70186">
        <ele>286</ele>
        <time>2019-08-17T06:19:39.000Z</time>
      </trkpt>
      <trkpt lat="45.96053" lon="4.70166">
        <ele>286</ele>
        <time>2019-08-17T06:19:46.000Z</time>
      </trkpt>
      <trkpt lat="45.96047" lon="4.7016">
        <ele>286.60000610352</ele>
        <time>2019-08-17T06:19:48.000Z</time>
      </trkpt>
      <trkpt lat="45.96044" lon="4.70157">
        <ele>287</ele>
        <time>2019-08-17T06:19:49.000Z</time>
      </trkpt>
      <trkpt lat="45.9604" lon="4.70154">
        <ele>287.39999389648</ele>
        <time>2019-08-17T06:19:50.000Z</time>
      </trkpt>
      <trkpt lat="45.96037" lon="4.70152">
        <ele>287.79998779297</ele>
        <time>2019-08-17T06:19:51.000Z</time>
      </trkpt>
      <trkpt lat="45.96034" lon="4.70149">
        <ele>288.20001220703</ele>
        <time>2019-08-17T06:19:52.000Z</time>
      </trkpt>
      <trkpt lat="45.96025" lon="4.7014">
        <ele>288.20001220703</ele>
        <time>2019-08-17T06:19:55.000Z</time>
      </trkpt>
      <trkpt lat="45.95997" lon="4.70114">
        <ele>288.20001220703</ele>
        <time>2019-08-17T06:20:03.000Z</time>
      </trkpt>
      <trkpt lat="45.95963" lon="4.70076">
        <ele>288.20001220703</ele>
        <time>2019-08-17T06:20:12.000Z</time>
      </trkpt>
      <trkpt lat="45.95936" lon="4.7004">
        <ele>288.20001220703</ele>
        <time>2019-08-17T06:20:19.000Z</time>
      </trkpt>
      <trkpt lat="45.95933" lon="4.70034">
        <ele>288.20001220703</ele>
        <time>2019-08-17T06:20:20.000Z</time>
      </trkpt>
      <trkpt lat="45.95913" lon="4.69991">
        <ele>288.20001220703</ele>
        <time>2019-08-17T06:20:27.000Z</time>
      </trkpt>
      <trkpt lat="45.95898" lon="4.69944">
        <ele>288.20001220703</ele>
        <time>2019-08-17T06:20:34.000Z</time>
      </trkpt>
      <trkpt lat="45.95883" lon="4.69882">
        <ele>288.20001220703</ele>
        <time>2019-08-17T06:20:43.000Z</time>
      </trkpt>
      <trkpt lat="45.95867" lon="4.69829">
        <ele>288.20001220703</ele>
        <time>2019-08-17T06:20:51.000Z</time>
      </trkpt>
      <trkpt lat="45.9585" lon="4.69792">
        <ele>288.20001220703</ele>
        <time>2019-08-17T06:20:57.000Z</time>
      </trkpt>
      <trkpt lat="45.95821" lon="4.69738">
        <ele>288.20001220703</ele>
        <time>2019-08-17T06:21:05.000Z</time>
      </trkpt>
      <trkpt lat="45.95813" lon="4.69723">
        <ele>287.79998779297</ele>
        <time>2019-08-17T06:21:07.000Z</time>
      </trkpt>
      <trkpt lat="45.95809" lon="4.69716">
        <ele>287.20001220703</ele>
        <time>2019-08-17T06:21:08.000Z</time>
      </trkpt>
      <trkpt lat="45.95804" lon="4.69709">
        <ele>286.79998779297</ele>
        <time>2019-08-17T06:21:09.000Z</time>
      </trkpt>
      <trkpt lat="45.95799" lon="4.69703">
        <ele>286.39999389648</ele>
        <time>2019-08-17T06:21:10.000Z</time>
      </trkpt>
      <trkpt lat="45.95795" lon="4.69696">
        <ele>285.79998779297</ele>
        <time>2019-08-17T06:21:11.000Z</time>
      </trkpt>
      <trkpt lat="45.95791" lon="4.69689">
        <ele>285.79998779297</ele>
        <time>2019-08-17T06:21:12.000Z</time>
      </trkpt>
      <trkpt lat="45.95782" lon="4.69668">
        <ele>285.79998779297</ele>
        <time>2019-08-17T06:21:15.000Z</time>
      </trkpt>
      <trkpt lat="45.95771" lon="4.69668">
        <ele>285.79998779297</ele>
        <time>2019-08-17T06:21:17.000Z</time>
      </trkpt>
      <trkpt lat="45.95759" lon="4.69672">
        <ele>285.79998779297</ele>
        <time>2019-08-17T06:21:20.000Z</time>
      </trkpt>
      <trkpt lat="45.95742" lon="4.69662">
        <ele>285.79998779297</ele>
        <time>2019-08-17T06:21:24.000Z</time>
      </trkpt>
      <trkpt lat="45.95712" lon="4.69648">
        <ele>285.79998779297</ele>
        <time>2019-08-17T06:21:31.000Z</time>
      </trkpt>
      <trkpt lat="45.95681" lon="4.69635">
        <ele>285.79998779297</ele>
        <time>2019-08-17T06:21:38.000Z</time>
      </trkpt>
      <trkpt lat="45.95667" lon="4.6963">
        <ele>285.79998779297</ele>
        <time>2019-08-17T06:21:41.000Z</time>
      </trkpt>
      <trkpt lat="45.95653" lon="4.69625">
        <ele>285.79998779297</ele>
        <time>2019-08-17T06:21:44.000Z</time>
      </trkpt>
      <trkpt lat="45.95619" lon="4.6961">
        <ele>285.79998779297</ele>
        <time>2019-08-17T06:21:52.000Z</time>
      </trkpt>
      <trkpt lat="45.95589" lon="4.69597">
        <ele>286.20001220703</ele>
        <time>2019-08-17T06:22:00.000Z</time>
      </trkpt>
      <trkpt lat="45.95586" lon="4.69596">
        <ele>286.79998779297</ele>
        <time>2019-08-17T06:22:01.000Z</time>
      </trkpt>
      <trkpt lat="45.95582" lon="4.69594">
        <ele>287.20001220703</ele>
        <time>2019-08-17T06:22:02.000Z</time>
      </trkpt>
      <trkpt lat="45.95579" lon="4.69593">
        <ele>287.60000610352</ele>
        <time>2019-08-17T06:22:03.000Z</time>
      </trkpt>
      <trkpt lat="45.95576" lon="4.69592">
        <ele>288</ele>
        <time>2019-08-17T06:22:04.000Z</time>
      </trkpt>
      <trkpt lat="45.95559" lon="4.69585">
        <ele>288</ele>
        <time>2019-08-17T06:22:09.000Z</time>
      </trkpt>
      <trkpt lat="45.95542" lon="4.69577">
        <ele>288.39999389648</ele>
        <time>2019-08-17T06:22:14.000Z</time>
      </trkpt>
      <trkpt lat="45.95539" lon="4.69575">
        <ele>288.79998779297</ele>
        <time>2019-08-17T06:22:15.000Z</time>
      </trkpt>
      <trkpt lat="45.95535" lon="4.69573">
        <ele>289.20001220703</ele>
        <time>2019-08-17T06:22:16.000Z</time>
      </trkpt>
      <trkpt lat="45.95532" lon="4.69571">
        <ele>289.60000610352</ele>
        <time>2019-08-17T06:22:17.000Z</time>
      </trkpt>
      <trkpt lat="45.95529" lon="4.69569">
        <ele>290</ele>
        <time>2019-08-17T06:22:18.000Z</time>
      </trkpt>
      <trkpt lat="45.95499" lon="4.69555">
        <ele>290.39999389648</ele>
        <time>2019-08-17T06:22:27.000Z</time>
      </trkpt>
      <trkpt lat="45.95495" lon="4.69553">
        <ele>290.79998779297</ele>
        <time>2019-08-17T06:22:28.000Z</time>
      </trkpt>
      <trkpt lat="45.95491" lon="4.69552">
        <ele>291.20001220703</ele>
        <time>2019-08-17T06:22:29.000Z</time>
      </trkpt>
      <trkpt lat="45.95488" lon="4.69551">
        <ele>291.60000610352</ele>
        <time>2019-08-17T06:22:30.000Z</time>
      </trkpt>
      <trkpt lat="45.95484" lon="4.6955">
        <ele>292</ele>
        <time>2019-08-17T06:22:31.000Z</time>
      </trkpt>
      <trkpt lat="45.95478" lon="4.69547">
        <ele>292</ele>
        <time>2019-08-17T06:22:33.000Z</time>
      </trkpt>
      <trkpt lat="45.95447" lon="4.69533">
        <ele>292.60000610352</ele>
        <time>2019-08-17T06:22:42.000Z</time>
      </trkpt>
      <trkpt lat="45.95443" lon="4.69531">
        <ele>293</ele>
        <time>2019-08-17T06:22:43.000Z</time>
      </trkpt>
      <trkpt lat="45.9544" lon="4.69529">
        <ele>293.39999389648</ele>
        <time>2019-08-17T06:22:44.000Z</time>
      </trkpt>
      <trkpt lat="45.95436" lon="4.69527">
        <ele>294.20001220703</ele>
        <time>2019-08-17T06:22:45.000Z</time>
      </trkpt>
      <trkpt lat="45.95422" lon="4.69519">
        <ele>294.20001220703</ele>
        <time>2019-08-17T06:22:49.000Z</time>
      </trkpt>
      <trkpt lat="45.95396" lon="4.695">
        <ele>294.20001220703</ele>
        <time>2019-08-17T06:22:57.000Z</time>
      </trkpt>
      <trkpt lat="45.95363" lon="4.69476">
        <ele>294.20001220703</ele>
        <time>2019-08-17T06:23:06.000Z</time>
      </trkpt>
      <trkpt lat="45.95359" lon="4.69474">
        <ele>294.60000610352</ele>
        <time>2019-08-17T06:23:07.000Z</time>
      </trkpt>
      <trkpt lat="45.95356" lon="4.69471">
        <ele>295</ele>
        <time>2019-08-17T06:23:08.000Z</time>
      </trkpt>
      <trkpt lat="45.95351" lon="4.69469">
        <ele>295.39999389648</ele>
        <time>2019-08-17T06:23:09.000Z</time>
      </trkpt>
      <trkpt lat="45.95348" lon="4.69466">
        <ele>296.39999389648</ele>
        <time>2019-08-17T06:23:10.000Z</time>
      </trkpt>
      <trkpt lat="45.95332" lon="4.69457">
        <ele>296.39999389648</ele>
        <time>2019-08-17T06:23:14.000Z</time>
      </trkpt>
      <trkpt lat="45.95302" lon="4.69444">
        <ele>296.39999389648</ele>
        <time>2019-08-17T06:23:21.000Z</time>
      </trkpt>
      <trkpt lat="45.95265" lon="4.69427">
        <ele>296.39999389648</ele>
        <time>2019-08-17T06:23:29.000Z</time>
      </trkpt>
      <trkpt lat="45.95222" lon="4.69408">
        <ele>296.39999389648</ele>
        <time>2019-08-17T06:23:38.000Z</time>
      </trkpt>
      <trkpt lat="45.95185" lon="4.69385">
        <ele>296.39999389648</ele>
        <time>2019-08-17T06:23:46.000Z</time>
      </trkpt>
      <trkpt lat="45.95154" lon="4.69354">
        <ele>296</ele>
        <time>2019-08-17T06:23:53.000Z</time>
      </trkpt>
      <trkpt lat="45.9515" lon="4.69349">
        <ele>295.60000610352</ele>
        <time>2019-08-17T06:23:54.000Z</time>
      </trkpt>
      <trkpt lat="45.95146" lon="4.69344">
        <ele>295.20001220703</ele>
        <time>2019-08-17T06:23:55.000Z</time>
      </trkpt>
      <trkpt lat="45.95142" lon="4.69339">
        <ele>294.60000610352</ele>
        <time>2019-08-17T06:23:56.000Z</time>
      </trkpt>
      <trkpt lat="45.95137" lon="4.69335">
        <ele>294.20001220703</ele>
        <time>2019-08-17T06:23:57.000Z</time>
      </trkpt>
      <trkpt lat="45.95128" lon="4.69327">
        <ele>294.20001220703</ele>
        <time>2019-08-17T06:23:59.000Z</time>
      </trkpt>
      <trkpt lat="45.95119" lon="4.69319">
        <ele>294.20001220703</ele>
        <time>2019-08-17T06:24:01.000Z</time>
      </trkpt>
      <trkpt lat="45.95107" lon="4.69307">
        <ele>294.20001220703</ele>
        <time>2019-08-17T06:24:04.000Z</time>
      </trkpt>
      <trkpt lat="45.95099" lon="4.69298">
        <ele>294.20001220703</ele>
        <time>2019-08-17T06:24:06.000Z</time>
      </trkpt>
      <trkpt lat="45.95069" lon="4.69264">
        <ele>294.20001220703</ele>
        <time>2019-08-17T06:24:14.000Z</time>
      </trkpt>
      <trkpt lat="45.95048" lon="4.69242">
        <ele>294.20001220703</ele>
        <time>2019-08-17T06:24:20.000Z</time>
      </trkpt>
      <trkpt lat="45.95025" lon="4.69224">
        <ele>294.20001220703</ele>
        <time>2019-08-17T06:24:27.000Z</time>
      </trkpt>
      <trkpt lat="45.95018" lon="4.6922">
        <ele>294.79998779297</ele>
        <time>2019-08-17T06:24:29.000Z</time>
      </trkpt>
      <trkpt lat="45.95015" lon="4.69218">
        <ele>295.20001220703</ele>
        <time>2019-08-17T06:24:30.000Z</time>
      </trkpt>
      <trkpt lat="45.95012" lon="4.69216">
        <ele>295.60000610352</ele>
        <time>2019-08-17T06:24:31.000Z</time>
      </trkpt>
      <trkpt lat="45.95009" lon="4.69214">
        <ele>296</ele>
        <time>2019-08-17T06:24:32.000Z</time>
      </trkpt>
      <trkpt lat="45.95006" lon="4.69213">
        <ele>296.39999389648</ele>
        <time>2019-08-17T06:24:33.000Z</time>
      </trkpt>
      <trkpt lat="45.94996" lon="4.69206">
        <ele>296.39999389648</ele>
        <time>2019-08-17T06:24:36.000Z</time>
      </trkpt>
      <trkpt lat="45.94979" lon="4.69195">
        <ele>296.79998779297</ele>
        <time>2019-08-17T06:24:41.000Z</time>
      </trkpt>
      <trkpt lat="45.94976" lon="4.69193">
        <ele>297.20001220703</ele>
        <time>2019-08-17T06:24:42.000Z</time>
      </trkpt>
      <trkpt lat="45.94972" lon="4.6919">
        <ele>297.60000610352</ele>
        <time>2019-08-17T06:24:43.000Z</time>
      </trkpt>
      <trkpt lat="45.94969" lon="4.69188">
        <ele>298</ele>
        <time>2019-08-17T06:24:44.000Z</time>
      </trkpt>
      <trkpt lat="45.94966" lon="4.69185">
        <ele>298.39999389648</ele>
        <time>2019-08-17T06:24:45.000Z</time>
      </trkpt>
      <trkpt lat="45.94941" lon="4.69169">
        <ele>299</ele>
        <time>2019-08-17T06:24:53.000Z</time>
      </trkpt>
      <trkpt lat="45.94938" lon="4.69167">
        <ele>299.39999389648</ele>
        <time>2019-08-17T06:24:54.000Z</time>
      </trkpt>
      <trkpt lat="45.94934" lon="4.69165">
        <ele>299.79998779297</ele>
        <time>2019-08-17T06:24:55.000Z</time>
      </trkpt>
      <trkpt lat="45.94931" lon="4.69163">
        <ele>300.20001220703</ele>
        <time>2019-08-17T06:24:56.000Z</time>
      </trkpt>
      <trkpt lat="45.94928" lon="4.69161">
        <ele>300.60000610352</ele>
        <time>2019-08-17T06:24:57.000Z</time>
      </trkpt>
      <trkpt lat="45.94909" lon="4.69149">
        <ele>300.60000610352</ele>
        <time>2019-08-17T06:25:03.000Z</time>
      </trkpt>
      <trkpt lat="45.94906" lon="4.69147">
        <ele>300.60000610352</ele>
        <time>2019-08-17T06:25:04.000Z</time>
      </trkpt>
      <trkpt lat="45.94897" lon="4.69142">
        <ele>301</ele>
        <time>2019-08-17T06:25:07.000Z</time>
      </trkpt>
      <trkpt lat="45.94894" lon="4.69141">
        <ele>301.39999389648</ele>
        <time>2019-08-17T06:25:08.000Z</time>
      </trkpt>
      <trkpt lat="45.9489" lon="4.69139">
        <ele>302</ele>
        <time>2019-08-17T06:25:09.000Z</time>
      </trkpt>
      <trkpt lat="45.94887" lon="4.69137">
        <ele>302.39999389648</ele>
        <time>2019-08-17T06:25:10.000Z</time>
      </trkpt>
      <trkpt lat="45.94883" lon="4.69136">
        <ele>302.79998779297</ele>
        <time>2019-08-17T06:25:11.000Z</time>
      </trkpt>
      <trkpt lat="45.9488" lon="4.69135">
        <ele>302.79998779297</ele>
        <time>2019-08-17T06:25:12.000Z</time>
      </trkpt>
      <trkpt lat="45.94846" lon="4.6912">
        <ele>302.79998779297</ele>
        <time>2019-08-17T06:25:21.000Z</time>
      </trkpt>
      <trkpt lat="45.9481" lon="4.69108">
        <ele>303.20001220703</ele>
        <time>2019-08-17T06:25:30.000Z</time>
      </trkpt>
      <trkpt lat="45.94806" lon="4.69107">
        <ele>303.60000610352</ele>
        <time>2019-08-17T06:25:31.000Z</time>
      </trkpt>
      <trkpt lat="45.94802" lon="4.69106">
        <ele>304</ele>
        <time>2019-08-17T06:25:32.000Z</time>
      </trkpt>
      <trkpt lat="45.94798" lon="4.69104">
        <ele>304.39999389648</ele>
        <time>2019-08-17T06:25:33.000Z</time>
      </trkpt>
      <trkpt lat="45.94794" lon="4.69103">
        <ele>304.79998779297</ele>
        <time>2019-08-17T06:25:34.000Z</time>
      </trkpt>
      <trkpt lat="45.94777" lon="4.69097">
        <ele>304.79998779297</ele>
        <time>2019-08-17T06:25:38.000Z</time>
      </trkpt>
      <trkpt lat="45.94745" lon="4.69087">
        <ele>304.79998779297</ele>
        <time>2019-08-17T06:25:45.000Z</time>
      </trkpt>
      <trkpt lat="45.94702" lon="4.69072">
        <ele>304.79998779297</ele>
        <time>2019-08-17T06:25:54.000Z</time>
      </trkpt>
      <trkpt lat="45.94657" lon="4.69056">
        <ele>304.79998779297</ele>
        <time>2019-08-17T06:26:03.000Z</time>
      </trkpt>
      <trkpt lat="45.94608" lon="4.6904">
        <ele>304.79998779297</ele>
        <time>2019-08-17T06:26:12.000Z</time>
      </trkpt>
      <trkpt lat="45.94565" lon="4.69027">
        <ele>304.79998779297</ele>
        <time>2019-08-17T06:26:20.000Z</time>
      </trkpt>
      <trkpt lat="45.94527" lon="4.69017">
        <ele>304</ele>
        <time>2019-08-17T06:26:27.000Z</time>
      </trkpt>
      <trkpt lat="45.94521" lon="4.69015">
        <ele>303.60000610352</ele>
        <time>2019-08-17T06:26:28.000Z</time>
      </trkpt>
      <trkpt lat="45.94515" lon="4.69014">
        <ele>303.20001220703</ele>
        <time>2019-08-17T06:26:29.000Z</time>
      </trkpt>
      <trkpt lat="45.9451" lon="4.69012">
        <ele>302.79998779297</ele>
        <time>2019-08-17T06:26:30.000Z</time>
      </trkpt>
      <trkpt lat="45.94469" lon="4.69004">
        <ele>302.79998779297</ele>
        <time>2019-08-17T06:26:37.000Z</time>
      </trkpt>
      <trkpt lat="45.94415" lon="4.69002">
        <ele>302.79998779297</ele>
        <time>2019-08-17T06:26:46.000Z</time>
      </trkpt>
      <trkpt lat="45.94397" lon="4.69003">
        <ele>302.39999389648</ele>
        <time>2019-08-17T06:26:49.000Z</time>
      </trkpt>
      <trkpt lat="45.94391" lon="4.69003">
        <ele>302</ele>
        <time>2019-08-17T06:26:50.000Z</time>
      </trkpt>
      <trkpt lat="45.94385" lon="4.69002">
        <ele>301.60000610352</ele>
        <time>2019-08-17T06:26:51.000Z</time>
      </trkpt>
      <trkpt lat="45.94379" lon="4.69002">
        <ele>300.79998779297</ele>
        <time>2019-08-17T06:26:52.000Z</time>
      </trkpt>
      <trkpt lat="45.94367" lon="4.69002">
        <ele>300.79998779297</ele>
        <time>2019-08-17T06:26:54.000Z</time>
      </trkpt>
      <trkpt lat="45.94328" lon="4.69001">
        <ele>300.79998779297</ele>
        <time>2019-08-17T06:27:00.000Z</time>
      </trkpt>
      <trkpt lat="45.94276" lon="4.68994">
        <ele>300.79998779297</ele>
        <time>2019-08-17T06:27:08.000Z</time>
      </trkpt>
      <trkpt lat="45.94228" lon="4.68984">
        <ele>300.79998779297</ele>
        <time>2019-08-17T06:27:16.000Z</time>
      </trkpt>
      <trkpt lat="45.94179" lon="4.68971">
        <ele>300.79998779297</ele>
        <time>2019-08-17T06:27:25.000Z</time>
      </trkpt>
      <trkpt lat="45.94143" lon="4.68959">
        <ele>300.79998779297</ele>
        <time>2019-08-17T06:27:32.000Z</time>
      </trkpt>
      <trkpt lat="45.94098" lon="4.68945">
        <ele>300.79998779297</ele>
        <time>2019-08-17T06:27:41.000Z</time>
      </trkpt>
      <trkpt lat="45.94065" lon="4.68933">
        <ele>300.79998779297</ele>
        <time>2019-08-17T06:27:48.000Z</time>
      </trkpt>
      <trkpt lat="45.94031" lon="4.68919">
        <ele>300.79998779297</ele>
        <time>2019-08-17T06:27:55.000Z</time>
      </trkpt>
      <trkpt lat="45.93994" lon="4.68905">
        <ele>300.79998779297</ele>
        <time>2019-08-17T06:28:03.000Z</time>
      </trkpt>
      <trkpt lat="45.93949" lon="4.68888">
        <ele>300.79998779297</ele>
        <time>2019-08-17T06:28:13.000Z</time>
      </trkpt>
      <trkpt lat="45.93921" lon="4.6888">
        <ele>300.79998779297</ele>
        <time>2019-08-17T06:28:19.000Z</time>
      </trkpt>
      <trkpt lat="45.93911" lon="4.68877">
        <ele>300.79998779297</ele>
        <time>2019-08-17T06:28:21.000Z</time>
      </trkpt>
      <trkpt lat="45.93896" lon="4.68871">
        <ele>300.79998779297</ele>
        <time>2019-08-17T06:28:24.000Z</time>
      </trkpt>
      <trkpt lat="45.93886" lon="4.68866">
        <ele>300.79998779297</ele>
        <time>2019-08-17T06:28:26.000Z</time>
      </trkpt>
      <trkpt lat="45.9386" lon="4.68848">
        <ele>300.79998779297</ele>
        <time>2019-08-17T06:28:31.000Z</time>
      </trkpt>
      <trkpt lat="45.93855" lon="4.68845">
        <ele>300.79998779297</ele>
        <time>2019-08-17T06:28:32.000Z</time>
      </trkpt>
      <trkpt lat="45.93832" lon="4.68831">
        <ele>300.79998779297</ele>
        <time>2019-08-17T06:28:36.000Z</time>
      </trkpt>
      <trkpt lat="45.93796" lon="4.68809">
        <ele>300.79998779297</ele>
        <time>2019-08-17T06:28:43.000Z</time>
      </trkpt>
      <trkpt lat="45.93791" lon="4.68806">
        <ele>300.79998779297</ele>
        <time>2019-08-17T06:28:44.000Z</time>
      </trkpt>
      <trkpt lat="45.93755" lon="4.68791">
        <ele>300.79998779297</ele>
        <time>2019-08-17T06:28:51.000Z</time>
      </trkpt>
      <trkpt lat="45.93719" lon="4.68782">
        <ele>300.79998779297</ele>
        <time>2019-08-17T06:28:58.000Z</time>
      </trkpt>
      <trkpt lat="45.93679" lon="4.68771">
        <ele>300.79998779297</ele>
        <time>2019-08-17T06:29:06.000Z</time>
      </trkpt>
      <trkpt lat="45.93643" lon="4.68761">
        <ele>300.79998779297</ele>
        <time>2019-08-17T06:29:13.000Z</time>
      </trkpt>
      <trkpt lat="45.93607" lon="4.68752">
        <ele>300.79998779297</ele>
        <time>2019-08-17T06:29:20.000Z</time>
      </trkpt>
      <trkpt lat="45.93557" lon="4.68739">
        <ele>300.79998779297</ele>
        <time>2019-08-17T06:29:29.000Z</time>
      </trkpt>
      <trkpt lat="45.93514" lon="4.68727">
        <ele>300.79998779297</ele>
        <time>2019-08-17T06:29:37.000Z</time>
      </trkpt>
      <trkpt lat="45.93475" lon="4.68719">
        <ele>300.79998779297</ele>
        <time>2019-08-17T06:29:44.000Z</time>
      </trkpt>
      <trkpt lat="45.93453" lon="4.68713">
        <ele>301.20001220703</ele>
        <time>2019-08-17T06:29:48.000Z</time>
      </trkpt>
      <trkpt lat="45.93447" lon="4.68712">
        <ele>301.60000610352</ele>
        <time>2019-08-17T06:29:49.000Z</time>
      </trkpt>
      <trkpt lat="45.93442" lon="4.6871">
        <ele>302</ele>
        <time>2019-08-17T06:29:50.000Z</time>
      </trkpt>
      <trkpt lat="45.93436" lon="4.68709">
        <ele>302.39999389648</ele>
        <time>2019-08-17T06:29:51.000Z</time>
      </trkpt>
      <trkpt lat="45.9343" lon="4.68707">
        <ele>302.79998779297</ele>
        <time>2019-08-17T06:29:52.000Z</time>
      </trkpt>
      <trkpt lat="45.93425" lon="4.68706">
        <ele>302.79998779297</ele>
        <time>2019-08-17T06:29:53.000Z</time>
      </trkpt>
      <trkpt lat="45.93374" lon="4.68694">
        <ele>302.79998779297</ele>
        <time>2019-08-17T06:30:02.000Z</time>
      </trkpt>
      <trkpt lat="45.93329" lon="4.68684">
        <ele>302.79998779297</ele>
        <time>2019-08-17T06:30:10.000Z</time>
      </trkpt>
      <trkpt lat="45.93282" lon="4.68673">
        <ele>302.79998779297</ele>
        <time>2019-08-17T06:30:19.000Z</time>
      </trkpt>
      <trkpt lat="45.93243" lon="4.68663">
        <ele>302.79998779297</ele>
        <time>2019-08-17T06:30:27.000Z</time>
      </trkpt>
      <trkpt lat="45.93208" lon="4.68655">
        <ele>302.79998779297</ele>
        <time>2019-08-17T06:30:34.000Z</time>
      </trkpt>
      <trkpt lat="45.93185" lon="4.6865">
        <ele>303.20001220703</ele>
        <time>2019-08-17T06:30:39.000Z</time>
      </trkpt>
      <trkpt lat="45.9318" lon="4.68649">
        <ele>303.60000610352</ele>
        <time>2019-08-17T06:30:40.000Z</time>
      </trkpt>
      <trkpt lat="45.93176" lon="4.68648">
        <ele>304</ele>
        <time>2019-08-17T06:30:41.000Z</time>
      </trkpt>
      <trkpt lat="45.93173" lon="4.68646">
        <ele>304.39999389648</ele>
        <time>2019-08-17T06:30:42.000Z</time>
      </trkpt>
      <trkpt lat="45.93168" lon="4.68646">
        <ele>304.79998779297</ele>
        <time>2019-08-17T06:30:43.000Z</time>
      </trkpt>
      <trkpt lat="45.93147" lon="4.6864">
        <ele>304.79998779297</ele>
        <time>2019-08-17T06:30:49.000Z</time>
      </trkpt>
      <trkpt lat="45.93143" lon="4.68639">
        <ele>305.20001220703</ele>
        <time>2019-08-17T06:30:50.000Z</time>
      </trkpt>
      <trkpt lat="45.93139" lon="4.68638">
        <ele>305.60000610352</ele>
        <time>2019-08-17T06:30:51.000Z</time>
      </trkpt>
      <trkpt lat="45.93135" lon="4.68638">
        <ele>306.20001220703</ele>
        <time>2019-08-17T06:30:52.000Z</time>
      </trkpt>
      <trkpt lat="45.93132" lon="4.68637">
        <ele>306.60000610352</ele>
        <time>2019-08-17T06:30:53.000Z</time>
      </trkpt>
      <trkpt lat="45.93128" lon="4.68636">
        <ele>307</ele>
        <time>2019-08-17T06:30:54.000Z</time>
      </trkpt>
      <trkpt lat="45.93125" lon="4.68635">
        <ele>307</ele>
        <time>2019-08-17T06:30:55.000Z</time>
      </trkpt>
      <trkpt lat="45.93111" lon="4.68632">
        <ele>307.39999389648</ele>
        <time>2019-08-17T06:30:59.000Z</time>
      </trkpt>
      <trkpt lat="45.93108" lon="4.68631">
        <ele>307.79998779297</ele>
        <time>2019-08-17T06:31:00.000Z</time>
      </trkpt>
      <trkpt lat="45.93104" lon="4.6863">
        <ele>308.20001220703</ele>
        <time>2019-08-17T06:31:01.000Z</time>
      </trkpt>
      <trkpt lat="45.93101" lon="4.68629">
        <ele>308.60000610352</ele>
        <time>2019-08-17T06:31:02.000Z</time>
      </trkpt>
      <trkpt lat="45.93097" lon="4.68629">
        <ele>309</ele>
        <time>2019-08-17T06:31:03.000Z</time>
      </trkpt>
      <trkpt lat="45.93094" lon="4.68628">
        <ele>309</ele>
        <time>2019-08-17T06:31:04.000Z</time>
      </trkpt>
      <trkpt lat="45.93073" lon="4.68623">
        <ele>309.39999389648</ele>
        <time>2019-08-17T06:31:10.000Z</time>
      </trkpt>
      <trkpt lat="45.9307" lon="4.68623">
        <ele>309.79998779297</ele>
        <time>2019-08-17T06:31:11.000Z</time>
      </trkpt>
      <trkpt lat="45.93067" lon="4.68622">
        <ele>310.39999389648</ele>
        <time>2019-08-17T06:31:12.000Z</time>
      </trkpt>
      <trkpt lat="45.93063" lon="4.68621">
        <ele>310.79998779297</ele>
        <time>2019-08-17T06:31:13.000Z</time>
      </trkpt>
      <trkpt lat="45.9306" lon="4.68621">
        <ele>311.20001220703</ele>
        <time>2019-08-17T06:31:14.000Z</time>
      </trkpt>
      <trkpt lat="45.9304" lon="4.68616">
        <ele>311.20001220703</ele>
        <time>2019-08-17T06:31:20.000Z</time>
      </trkpt>
      <trkpt lat="45.9302" lon="4.68611">
        <ele>311.60000610352</ele>
        <time>2019-08-17T06:31:26.000Z</time>
      </trkpt>
      <trkpt lat="45.93017" lon="4.6861">
        <ele>312</ele>
        <time>2019-08-17T06:31:27.000Z</time>
      </trkpt>
      <trkpt lat="45.93013" lon="4.68609">
        <ele>312.39999389648</ele>
        <time>2019-08-17T06:31:28.000Z</time>
      </trkpt>
      <trkpt lat="45.9301" lon="4.68609">
        <ele>312.79998779297</ele>
        <time>2019-08-17T06:31:29.000Z</time>
      </trkpt>
      <trkpt lat="45.93007" lon="4.68609">
        <ele>313.39999389648</ele>
        <time>2019-08-17T06:31:30.000Z</time>
      </trkpt>
      <trkpt lat="45.92993" lon="4.68606">
        <ele>313.39999389648</ele>
        <time>2019-08-17T06:31:34.000Z</time>
      </trkpt>
      <trkpt lat="45.92964" lon="4.686">
        <ele>313.39999389648</ele>
        <time>2019-08-17T06:31:42.000Z</time>
      </trkpt>
      <trkpt lat="45.92949" lon="4.68597">
        <ele>313.79998779297</ele>
        <time>2019-08-17T06:31:46.000Z</time>
      </trkpt>
      <trkpt lat="45.92946" lon="4.68597">
        <ele>314.20001220703</ele>
        <time>2019-08-17T06:31:47.000Z</time>
      </trkpt>
      <trkpt lat="45.92942" lon="4.68596">
        <ele>314.60000610352</ele>
        <time>2019-08-17T06:31:48.000Z</time>
      </trkpt>
      <trkpt lat="45.92938" lon="4.68595">
        <ele>315.39999389648</ele>
        <time>2019-08-17T06:31:49.000Z</time>
      </trkpt>
      <trkpt lat="45.92931" lon="4.68594">
        <ele>315.39999389648</ele>
        <time>2019-08-17T06:31:51.000Z</time>
      </trkpt>
      <trkpt lat="45.92896" lon="4.68587">
        <ele>315.79998779297</ele>
        <time>2019-08-17T06:32:00.000Z</time>
      </trkpt>
      <trkpt lat="45.92892" lon="4.68586">
        <ele>316.20001220703</ele>
        <time>2019-08-17T06:32:01.000Z</time>
      </trkpt>
      <trkpt lat="45.92888" lon="4.68586">
        <ele>316.60000610352</ele>
        <time>2019-08-17T06:32:02.000Z</time>
      </trkpt>
      <trkpt lat="45.92884" lon="4.68585">
        <ele>317</ele>
        <time>2019-08-17T06:32:03.000Z</time>
      </trkpt>
      <trkpt lat="45.92881" lon="4.68584">
        <ele>317.39999389648</ele>
        <time>2019-08-17T06:32:04.000Z</time>
      </trkpt>
      <trkpt lat="45.92874" lon="4.68583">
        <ele>317.39999389648</ele>
        <time>2019-08-17T06:32:06.000Z</time>
      </trkpt>
      <trkpt lat="45.92836" lon="4.68575">
        <ele>317.79998779297</ele>
        <time>2019-08-17T06:32:16.000Z</time>
      </trkpt>
      <trkpt lat="45.92832" lon="4.68575">
        <ele>318.20001220703</ele>
        <time>2019-08-17T06:32:17.000Z</time>
      </trkpt>
      <trkpt lat="45.92828" lon="4.68574">
        <ele>318.60000610352</ele>
        <time>2019-08-17T06:32:18.000Z</time>
      </trkpt>
      <trkpt lat="45.92825" lon="4.68573">
        <ele>319</ele>
        <time>2019-08-17T06:32:19.000Z</time>
      </trkpt>
      <trkpt lat="45.92821" lon="4.68572">
        <ele>319.39999389648</ele>
        <time>2019-08-17T06:32:20.000Z</time>
      </trkpt>
      <trkpt lat="45.9281" lon="4.6857">
        <ele>319.39999389648</ele>
        <time>2019-08-17T06:32:23.000Z</time>
      </trkpt>
      <trkpt lat="45.92782" lon="4.68564">
        <ele>319.79998779297</ele>
        <time>2019-08-17T06:32:31.000Z</time>
      </trkpt>
      <trkpt lat="45.92778" lon="4.68564">
        <ele>320.20001220703</ele>
        <time>2019-08-17T06:32:32.000Z</time>
      </trkpt>
      <trkpt lat="45.92774" lon="4.68563">
        <ele>320.60000610352</ele>
        <time>2019-08-17T06:32:33.000Z</time>
      </trkpt>
      <trkpt lat="45.92771" lon="4.68563">
        <ele>321.20001220703</ele>
        <time>2019-08-17T06:32:34.000Z</time>
      </trkpt>
      <trkpt lat="45.92767" lon="4.68563">
        <ele>321.60000610352</ele>
        <time>2019-08-17T06:32:35.000Z</time>
      </trkpt>
      <trkpt lat="45.9275" lon="4.68563">
        <ele>321.60000610352</ele>
        <time>2019-08-17T06:32:40.000Z</time>
      </trkpt>
      <trkpt lat="45.92724" lon="4.68569">
        <ele>321.60000610352</ele>
        <time>2019-08-17T06:32:47.000Z</time>
      </trkpt>
      <trkpt lat="45.9271" lon="4.68576">
        <ele>322</ele>
        <time>2019-08-17T06:32:51.000Z</time>
      </trkpt>
      <trkpt lat="45.92706" lon="4.68579">
        <ele>322.39999389648</ele>
        <time>2019-08-17T06:32:52.000Z</time>
      </trkpt>
      <trkpt lat="45.92702" lon="4.68581">
        <ele>322.79998779297</ele>
        <time>2019-08-17T06:32:53.000Z</time>
      </trkpt>
      <trkpt lat="45.92699" lon="4.68583">
        <ele>323.20001220703</ele>
        <time>2019-08-17T06:32:54.000Z</time>
      </trkpt>
      <trkpt lat="45.92695" lon="4.68586">
        <ele>323.60000610352</ele>
        <time>2019-08-17T06:32:55.000Z</time>
      </trkpt>
      <trkpt lat="45.92683" lon="4.68592">
        <ele>323.60000610352</ele>
        <time>2019-08-17T06:32:58.000Z</time>
      </trkpt>
      <trkpt lat="45.92669" lon="4.68599">
        <ele>323.60000610352</ele>
        <time>2019-08-17T06:33:01.000Z</time>
      </trkpt>
      <trkpt lat="45.92644" lon="4.68609">
        <ele>323.60000610352</ele>
        <time>2019-08-17T06:33:07.000Z</time>
      </trkpt>
      <trkpt lat="45.92622" lon="4.68618">
        <ele>323.60000610352</ele>
        <time>2019-08-17T06:33:13.000Z</time>
      </trkpt>
      <trkpt lat="45.92607" lon="4.68624">
        <ele>323.60000610352</ele>
        <time>2019-08-17T06:33:18.000Z</time>
      </trkpt>
      <trkpt lat="45.92596" lon="4.6863">
        <ele>324</ele>
        <time>2019-08-17T06:33:22.000Z</time>
      </trkpt>
      <trkpt lat="45.92594" lon="4.68631">
        <ele>324.39999389648</ele>
        <time>2019-08-17T06:33:23.000Z</time>
      </trkpt>
      <trkpt lat="45.92591" lon="4.68632">
        <ele>324.79998779297</ele>
        <time>2019-08-17T06:33:24.000Z</time>
      </trkpt>
      <trkpt lat="45.92589" lon="4.68633">
        <ele>325.20001220703</ele>
        <time>2019-08-17T06:33:25.000Z</time>
      </trkpt>
      <trkpt lat="45.92587" lon="4.68634">
        <ele>325.60000610352</ele>
        <time>2019-08-17T06:33:26.000Z</time>
      </trkpt>
      <trkpt lat="45.92576" lon="4.68639">
        <ele>326.20001220703</ele>
        <time>2019-08-17T06:33:31.000Z</time>
      </trkpt>
      <trkpt lat="45.92574" lon="4.6864">
        <ele>326.60000610352</ele>
        <time>2019-08-17T06:33:32.000Z</time>
      </trkpt>
      <trkpt lat="45.92572" lon="4.68642">
        <ele>327</ele>
        <time>2019-08-17T06:33:33.000Z</time>
      </trkpt>
      <trkpt lat="45.92569" lon="4.68644">
        <ele>327.39999389648</ele>
        <time>2019-08-17T06:33:34.000Z</time>
      </trkpt>
      <trkpt lat="45.92566" lon="4.68645">
        <ele>327.79998779297</ele>
        <time>2019-08-17T06:33:35.000Z</time>
      </trkpt>
      <trkpt lat="45.92564" lon="4.68647">
        <ele>327.79998779297</ele>
        <time>2019-08-17T06:33:36.000Z</time>
      </trkpt>
      <trkpt lat="45.9255" lon="4.68647">
        <ele>327.79998779297</ele>
        <time>2019-08-17T06:33:41.000Z</time>
      </trkpt>
      <trkpt lat="45.92547" lon="4.68646">
        <ele>328.20001220703</ele>
        <time>2019-08-17T06:33:42.000Z</time>
      </trkpt>
      <trkpt lat="45.92545" lon="4.68646">
        <ele>328.79998779297</ele>
        <time>2019-08-17T06:33:43.000Z</time>
      </trkpt>
      <trkpt lat="45.92542" lon="4.68645">
        <ele>329.20001220703</ele>
        <time>2019-08-17T06:33:44.000Z</time>
      </trkpt>
      <trkpt lat="45.9254" lon="4.68645">
        <ele>329.60000610352</ele>
        <time>2019-08-17T06:33:45.000Z</time>
      </trkpt>
      <trkpt lat="45.92537" lon="4.68644">
        <ele>330</ele>
        <time>2019-08-17T06:33:46.000Z</time>
      </trkpt>
      <trkpt lat="45.92529" lon="4.68641">
        <ele>330</ele>
        <time>2019-08-17T06:33:49.000Z</time>
      </trkpt>
      <trkpt lat="45.92521" lon="4.68639">
        <ele>331</ele>
        <time>2019-08-17T06:33:52.000Z</time>
      </trkpt>
      <trkpt lat="45.92519" lon="4.68639">
        <ele>331.39999389648</ele>
        <time>2019-08-17T06:33:53.000Z</time>
      </trkpt>
      <trkpt lat="45.92516" lon="4.68639">
        <ele>331.79998779297</ele>
        <time>2019-08-17T06:33:54.000Z</time>
      </trkpt>
      <trkpt lat="45.92514" lon="4.68639">
        <ele>332.20001220703</ele>
        <time>2019-08-17T06:33:55.000Z</time>
      </trkpt>
      <trkpt lat="45.92511" lon="4.68638">
        <ele>332.20001220703</ele>
        <time>2019-08-17T06:33:56.000Z</time>
      </trkpt>
      <trkpt lat="45.92499" lon="4.68634">
        <ele>332.60000610352</ele>
        <time>2019-08-17T06:34:01.000Z</time>
      </trkpt>
      <trkpt lat="45.92497" lon="4.68633">
        <ele>333</ele>
        <time>2019-08-17T06:34:02.000Z</time>
      </trkpt>
      <trkpt lat="45.92495" lon="4.68632">
        <ele>333.39999389648</ele>
        <time>2019-08-17T06:34:03.000Z</time>
      </trkpt>
      <trkpt lat="45.92492" lon="4.68632">
        <ele>333.79998779297</ele>
        <time>2019-08-17T06:34:04.000Z</time>
      </trkpt>
      <trkpt lat="45.9249" lon="4.68631">
        <ele>334.39999389648</ele>
        <time>2019-08-17T06:34:05.000Z</time>
      </trkpt>
      <trkpt lat="45.92471" lon="4.68624">
        <ele>334.39999389648</ele>
        <time>2019-08-17T06:34:12.000Z</time>
      </trkpt>
      <trkpt lat="45.92468" lon="4.68623">
        <ele>334.79998779297</ele>
        <time>2019-08-17T06:34:13.000Z</time>
      </trkpt>
      <trkpt lat="45.92465" lon="4.68622">
        <ele>335.20001220703</ele>
        <time>2019-08-17T06:34:14.000Z</time>
      </trkpt>
      <trkpt lat="45.92463" lon="4.6862">
        <ele>335.60000610352</ele>
        <time>2019-08-17T06:34:15.000Z</time>
      </trkpt>
      <trkpt lat="45.9246" lon="4.68619">
        <ele>336</ele>
        <time>2019-08-17T06:34:16.000Z</time>
      </trkpt>
      <trkpt lat="45.92457" lon="4.68618">
        <ele>336.39999389648</ele>
        <time>2019-08-17T06:34:17.000Z</time>
      </trkpt>
      <trkpt lat="45.92449" lon="4.68613">
        <ele>336.39999389648</ele>
        <time>2019-08-17T06:34:20.000Z</time>
      </trkpt>
      <trkpt lat="45.92438" lon="4.68608">
        <ele>336.79998779297</ele>
        <time>2019-08-17T06:34:24.000Z</time>
      </trkpt>
      <trkpt lat="45.92435" lon="4.68607">
        <ele>337.20001220703</ele>
        <time>2019-08-17T06:34:25.000Z</time>
      </trkpt>
      <trkpt lat="45.92432" lon="4.68605">
        <ele>337.60000610352</ele>
        <time>2019-08-17T06:34:26.000Z</time>
      </trkpt>
      <trkpt lat="45.9243" lon="4.68604">
        <ele>338</ele>
        <time>2019-08-17T06:34:27.000Z</time>
      </trkpt>
      <trkpt lat="45.92427" lon="4.68602">
        <ele>338.39999389648</ele>
        <time>2019-08-17T06:34:28.000Z</time>
      </trkpt>
      <trkpt lat="45.92402" lon="4.68587">
        <ele>338.39999389648</ele>
        <time>2019-08-17T06:34:37.000Z</time>
      </trkpt>
      <trkpt lat="45.924" lon="4.68584">
        <ele>339</ele>
        <time>2019-08-17T06:34:38.000Z</time>
      </trkpt>
      <trkpt lat="45.92396" lon="4.68583">
        <ele>339.39999389648</ele>
        <time>2019-08-17T06:34:39.000Z</time>
      </trkpt>
      <trkpt lat="45.92393" lon="4.68581">
        <ele>339.79998779297</ele>
        <time>2019-08-17T06:34:40.000Z</time>
      </trkpt>
      <trkpt lat="45.9239" lon="4.68579">
        <ele>340.20001220703</ele>
        <time>2019-08-17T06:34:41.000Z</time>
      </trkpt>
      <trkpt lat="45.92387" lon="4.68578">
        <ele>340.60000610352</ele>
        <time>2019-08-17T06:34:42.000Z</time>
      </trkpt>
      <trkpt lat="45.92384" lon="4.68577">
        <ele>340.60000610352</ele>
        <time>2019-08-17T06:34:43.000Z</time>
      </trkpt>
      <trkpt lat="45.92362" lon="4.68564">
        <ele>340.60000610352</ele>
        <time>2019-08-17T06:34:50.000Z</time>
      </trkpt>
      <trkpt lat="45.92338" lon="4.68548">
        <ele>341</ele>
        <time>2019-08-17T06:34:57.000Z</time>
      </trkpt>
      <trkpt lat="45.92335" lon="4.68546">
        <ele>341.39999389648</ele>
        <time>2019-08-17T06:34:58.000Z</time>
      </trkpt>
      <trkpt lat="45.92331" lon="4.68543">
        <ele>341.79998779297</ele>
        <time>2019-08-17T06:34:59.000Z</time>
      </trkpt>
      <trkpt lat="45.92327" lon="4.6854">
        <ele>342.20001220703</ele>
        <time>2019-08-17T06:35:00.000Z</time>
      </trkpt>
      <trkpt lat="45.92324" lon="4.68537">
        <ele>342.79998779297</ele>
        <time>2019-08-17T06:35:01.000Z</time>
      </trkpt>
      <trkpt lat="45.92305" lon="4.6852">
        <ele>342.79998779297</ele>
        <time>2019-08-17T06:35:06.000Z</time>
      </trkpt>
      <trkpt lat="45.92302" lon="4.68516">
        <ele>342.79998779297</ele>
        <time>2019-08-17T06:35:07.000Z</time>
      </trkpt>
      <trkpt lat="45.92294" lon="4.68509">
        <ele>342.79998779297</ele>
        <time>2019-08-17T06:35:09.000Z</time>
      </trkpt>
      <trkpt lat="45.92283" lon="4.68497">
        <ele>342.79998779297</ele>
        <time>2019-08-17T06:35:12.000Z</time>
      </trkpt>
      <trkpt lat="45.92248" lon="4.6846">
        <ele>342.79998779297</ele>
        <time>2019-08-17T06:35:21.000Z</time>
      </trkpt>
      <trkpt lat="45.92209" lon="4.68424">
        <ele>342.79998779297</ele>
        <time>2019-08-17T06:35:30.000Z</time>
      </trkpt>
      <trkpt lat="45.92196" lon="4.68411">
        <ele>342.79998779297</ele>
        <time>2019-08-17T06:35:33.000Z</time>
      </trkpt>
      <trkpt lat="45.92186" lon="4.68402">
        <ele>342.79998779297</ele>
        <time>2019-08-17T06:35:35.000Z</time>
      </trkpt>
      <trkpt lat="45.92181" lon="4.68399">
        <ele>342.79998779297</ele>
        <time>2019-08-17T06:35:36.000Z</time>
      </trkpt>
      <trkpt lat="45.92154" lon="4.68372">
        <ele>342.79998779297</ele>
        <time>2019-08-17T06:35:42.000Z</time>
      </trkpt>
      <trkpt lat="45.92123" lon="4.68344">
        <ele>342.79998779297</ele>
        <time>2019-08-17T06:35:48.000Z</time>
      </trkpt>
      <trkpt lat="45.92089" lon="4.68327">
        <ele>342.79998779297</ele>
        <time>2019-08-17T06:35:54.000Z</time>
      </trkpt>
      <trkpt lat="45.9205" lon="4.68316">
        <ele>342.79998779297</ele>
        <time>2019-08-17T06:36:01.000Z</time>
      </trkpt>
      <trkpt lat="45.92027" lon="4.68313">
        <ele>342.79998779297</ele>
        <time>2019-08-17T06:36:05.000Z</time>
      </trkpt>
      <trkpt lat="45.92022" lon="4.68312">
        <ele>342.79998779297</ele>
        <time>2019-08-17T06:36:06.000Z</time>
      </trkpt>
      <trkpt lat="45.91989" lon="4.68305">
        <ele>342.79998779297</ele>
        <time>2019-08-17T06:36:12.000Z</time>
      </trkpt>
      <trkpt lat="45.91949" lon="4.68295">
        <ele>342.20001220703</ele>
        <time>2019-08-17T06:36:18.000Z</time>
      </trkpt>
      <trkpt lat="45.91941" lon="4.68293">
        <ele>341.39999389648</ele>
        <time>2019-08-17T06:36:19.000Z</time>
      </trkpt>
      <trkpt lat="45.91934" lon="4.68292">
        <ele>341</ele>
        <time>2019-08-17T06:36:20.000Z</time>
      </trkpt>
      <trkpt lat="45.91926" lon="4.6829">
        <ele>340.60000610352</ele>
        <time>2019-08-17T06:36:21.000Z</time>
      </trkpt>
      <trkpt lat="45.91894" lon="4.68285">
        <ele>340.20001220703</ele>
        <time>2019-08-17T06:36:25.000Z</time>
      </trkpt>
      <trkpt lat="45.91885" lon="4.68285">
        <ele>339.79998779297</ele>
        <time>2019-08-17T06:36:26.000Z</time>
      </trkpt>
      <trkpt lat="45.91876" lon="4.68285">
        <ele>339.39999389648</ele>
        <time>2019-08-17T06:36:27.000Z</time>
      </trkpt>
      <trkpt lat="45.91867" lon="4.68284">
        <ele>338.79998779297</ele>
        <time>2019-08-17T06:36:28.000Z</time>
      </trkpt>
      <trkpt lat="45.91858" lon="4.68283">
        <ele>338.39999389648</ele>
        <time>2019-08-17T06:36:29.000Z</time>
      </trkpt>
      <trkpt lat="45.9185" lon="4.68281">
        <ele>338</ele>
        <time>2019-08-17T06:36:30.000Z</time>
      </trkpt>
      <trkpt lat="45.91841" lon="4.6828">
        <ele>337.60000610352</ele>
        <time>2019-08-17T06:36:31.000Z</time>
      </trkpt>
      <trkpt lat="45.91832" lon="4.68279">
        <ele>337.20001220703</ele>
        <time>2019-08-17T06:36:32.000Z</time>
      </trkpt>
      <trkpt lat="45.91823" lon="4.68277">
        <ele>336.79998779297</ele>
        <time>2019-08-17T06:36:33.000Z</time>
      </trkpt>
      <trkpt lat="45.91814" lon="4.68275">
        <ele>336.39999389648</ele>
        <time>2019-08-17T06:36:34.000Z</time>
      </trkpt>
      <trkpt lat="45.91804" lon="4.68273">
        <ele>336</ele>
        <time>2019-08-17T06:36:35.000Z</time>
      </trkpt>
      <trkpt lat="45.91795" lon="4.68272">
        <ele>335.60000610352</ele>
        <time>2019-08-17T06:36:36.000Z</time>
      </trkpt>
      <trkpt lat="45.91786" lon="4.6827">
        <ele>335</ele>
        <time>2019-08-17T06:36:37.000Z</time>
      </trkpt>
      <trkpt lat="45.91778" lon="4.68268">
        <ele>334.60000610352</ele>
        <time>2019-08-17T06:36:38.000Z</time>
      </trkpt>
      <trkpt lat="45.91769" lon="4.68266">
        <ele>334.20001220703</ele>
        <time>2019-08-17T06:36:39.000Z</time>
      </trkpt>
      <trkpt lat="45.91752" lon="4.68261">
        <ele>333.79998779297</ele>
        <time>2019-08-17T06:36:41.000Z</time>
      </trkpt>
      <trkpt lat="45.91743" lon="4.68259">
        <ele>333.39999389648</ele>
        <time>2019-08-17T06:36:42.000Z</time>
      </trkpt>
      <trkpt lat="45.91735" lon="4.68257">
        <ele>332.39999389648</ele>
        <time>2019-08-17T06:36:43.000Z</time>
      </trkpt>
      <trkpt lat="45.91727" lon="4.68254">
        <ele>332</ele>
        <time>2019-08-17T06:36:44.000Z</time>
      </trkpt>
      <trkpt lat="45.9172" lon="4.68252">
        <ele>332</ele>
        <time>2019-08-17T06:36:45.000Z</time>
      </trkpt>
      <trkpt lat="45.91692" lon="4.68238">
        <ele>332</ele>
        <time>2019-08-17T06:36:49.000Z</time>
      </trkpt>
      <trkpt lat="45.91687" lon="4.68235">
        <ele>332</ele>
        <time>2019-08-17T06:36:50.000Z</time>
      </trkpt>
      <trkpt lat="45.91662" lon="4.68217">
        <ele>332</ele>
        <time>2019-08-17T06:36:55.000Z</time>
      </trkpt>
      <trkpt lat="45.91634" lon="4.68198">
        <ele>332</ele>
        <time>2019-08-17T06:37:02.000Z</time>
      </trkpt>
      <trkpt lat="45.91615" lon="4.68184">
        <ele>332.39999389648</ele>
        <time>2019-08-17T06:37:07.000Z</time>
      </trkpt>
      <trkpt lat="45.91612" lon="4.68182">
        <ele>333.20001220703</ele>
        <time>2019-08-17T06:37:08.000Z</time>
      </trkpt>
      <trkpt lat="45.91609" lon="4.68179">
        <ele>333.60000610352</ele>
        <time>2019-08-17T06:37:09.000Z</time>
      </trkpt>
      <trkpt lat="45.91606" lon="4.68176">
        <ele>334</ele>
        <time>2019-08-17T06:37:10.000Z</time>
      </trkpt>
      <trkpt lat="45.91592" lon="4.68166">
        <ele>334.39999389648</ele>
        <time>2019-08-17T06:37:14.000Z</time>
      </trkpt>
      <trkpt lat="45.91588" lon="4.68164">
        <ele>335</ele>
        <time>2019-08-17T06:37:15.000Z</time>
      </trkpt>
      <trkpt lat="45.91585" lon="4.68161">
        <ele>335.39999389648</ele>
        <time>2019-08-17T06:37:16.000Z</time>
      </trkpt>
      <trkpt lat="45.91582" lon="4.68158">
        <ele>335.79998779297</ele>
        <time>2019-08-17T06:37:17.000Z</time>
      </trkpt>
      <trkpt lat="45.91579" lon="4.68156">
        <ele>336.20001220703</ele>
        <time>2019-08-17T06:37:18.000Z</time>
      </trkpt>
      <trkpt lat="45.91566" lon="4.6815">
        <ele>336.20001220703</ele>
        <time>2019-08-17T06:37:22.000Z</time>
      </trkpt>
      <trkpt lat="45.91548" lon="4.68139">
        <ele>336.60000610352</ele>
        <time>2019-08-17T06:37:28.000Z</time>
      </trkpt>
      <trkpt lat="45.91545" lon="4.68138">
        <ele>337</ele>
        <time>2019-08-17T06:37:29.000Z</time>
      </trkpt>
      <trkpt lat="45.91542" lon="4.68136">
        <ele>337.39999389648</ele>
        <time>2019-08-17T06:37:30.000Z</time>
      </trkpt>
      <trkpt lat="45.9154" lon="4.68135">
        <ele>337.79998779297</ele>
        <time>2019-08-17T06:37:31.000Z</time>
      </trkpt>
      <trkpt lat="45.91537" lon="4.68133">
        <ele>338.20001220703</ele>
        <time>2019-08-17T06:37:32.000Z</time>
      </trkpt>
      <trkpt lat="45.91519" lon="4.68124">
        <ele>338.20001220703</ele>
        <time>2019-08-17T06:37:38.000Z</time>
      </trkpt>
      <trkpt lat="45.91517" lon="4.68122">
        <ele>338.79998779297</ele>
        <time>2019-08-17T06:37:39.000Z</time>
      </trkpt>
      <trkpt lat="45.91514" lon="4.68121">
        <ele>339.20001220703</ele>
        <time>2019-08-17T06:37:40.000Z</time>
      </trkpt>
      <trkpt lat="45.91511" lon="4.6812">
        <ele>339.60000610352</ele>
        <time>2019-08-17T06:37:41.000Z</time>
      </trkpt>
      <trkpt lat="45.91508" lon="4.68118">
        <ele>340</ele>
        <time>2019-08-17T06:37:42.000Z</time>
      </trkpt>
      <trkpt lat="45.91505" lon="4.68116">
        <ele>340.60000610352</ele>
        <time>2019-08-17T06:37:43.000Z</time>
      </trkpt>
      <trkpt lat="45.91499" lon="4.68112">
        <ele>340.60000610352</ele>
        <time>2019-08-17T06:37:45.000Z</time>
      </trkpt>
      <trkpt lat="45.91478" lon="4.68099">
        <ele>341</ele>
        <time>2019-08-17T06:37:52.000Z</time>
      </trkpt>
      <trkpt lat="45.91475" lon="4.68097">
        <ele>341.39999389648</ele>
        <time>2019-08-17T06:37:53.000Z</time>
      </trkpt>
      <trkpt lat="45.91473" lon="4.68095">
        <ele>341.79998779297</ele>
        <time>2019-08-17T06:37:54.000Z</time>
      </trkpt>
      <trkpt lat="45.9147" lon="4.68093">
        <ele>342.20001220703</ele>
        <time>2019-08-17T06:37:55.000Z</time>
      </trkpt>
      <trkpt lat="45.91467" lon="4.68091">
        <ele>342.60000610352</ele>
        <time>2019-08-17T06:37:56.000Z</time>
      </trkpt>
      <trkpt lat="45.91448" lon="4.68082">
        <ele>342.60000610352</ele>
        <time>2019-08-17T06:38:02.000Z</time>
      </trkpt>
      <trkpt lat="45.91431" lon="4.68078">
        <ele>343</ele>
        <time>2019-08-17T06:38:07.000Z</time>
      </trkpt>
      <trkpt lat="45.91428" lon="4.68077">
        <ele>343.39999389648</ele>
        <time>2019-08-17T06:38:08.000Z</time>
      </trkpt>
      <trkpt lat="45.91425" lon="4.68077">
        <ele>343.79998779297</ele>
        <time>2019-08-17T06:38:09.000Z</time>
      </trkpt>
      <trkpt lat="45.91421" lon="4.68078">
        <ele>344.20001220703</ele>
        <time>2019-08-17T06:38:10.000Z</time>
      </trkpt>
      <trkpt lat="45.91418" lon="4.68079">
        <ele>344.60000610352</ele>
        <time>2019-08-17T06:38:11.000Z</time>
      </trkpt>
      <trkpt lat="45.91407" lon="4.68082">
        <ele>344.60000610352</ele>
        <time>2019-08-17T06:38:14.000Z</time>
      </trkpt>
      <trkpt lat="45.91381" lon="4.68084">
        <ele>344.60000610352</ele>
        <time>2019-08-17T06:38:21.000Z</time>
      </trkpt>
      <trkpt lat="45.91353" lon="4.68077">
        <ele>344.60000610352</ele>
        <time>2019-08-17T06:38:28.000Z</time>
      </trkpt>
      <trkpt lat="45.91316" lon="4.6806">
        <ele>344.60000610352</ele>
        <time>2019-08-17T06:38:37.000Z</time>
      </trkpt>
      <trkpt lat="45.91285" lon="4.68046">
        <ele>344.60000610352</ele>
        <time>2019-08-17T06:38:44.000Z</time>
      </trkpt>
      <trkpt lat="45.91247" lon="4.68027">
        <ele>344.60000610352</ele>
        <time>2019-08-17T06:38:52.000Z</time>
      </trkpt>
      <trkpt lat="45.91232" lon="4.68021">
        <ele>344.60000610352</ele>
        <time>2019-08-17T06:38:55.000Z</time>
      </trkpt>
      <trkpt lat="45.91222" lon="4.68016">
        <ele>344.60000610352</ele>
        <time>2019-08-17T06:38:57.000Z</time>
      </trkpt>
      <trkpt lat="45.91184" lon="4.67993">
        <ele>344.60000610352</ele>
        <time>2019-08-17T06:39:04.000Z</time>
      </trkpt>
      <trkpt lat="45.91173" lon="4.67985">
        <ele>344.60000610352</ele>
        <time>2019-08-17T06:39:06.000Z</time>
      </trkpt>
      <trkpt lat="45.91155" lon="4.67975">
        <ele>344.20001220703</ele>
        <time>2019-08-17T06:39:09.000Z</time>
      </trkpt>
      <trkpt lat="45.91149" lon="4.67972">
        <ele>343.60000610352</ele>
        <time>2019-08-17T06:39:10.000Z</time>
      </trkpt>
      <trkpt lat="45.91142" lon="4.6797">
        <ele>343.20001220703</ele>
        <time>2019-08-17T06:39:11.000Z</time>
      </trkpt>
      <trkpt lat="45.91136" lon="4.67967">
        <ele>342.20001220703</ele>
        <time>2019-08-17T06:39:12.000Z</time>
      </trkpt>
      <trkpt lat="45.91108" lon="4.67958">
        <ele>341.79998779297</ele>
        <time>2019-08-17T06:39:16.000Z</time>
      </trkpt>
      <trkpt lat="45.91101" lon="4.67956">
        <ele>341.39999389648</ele>
        <time>2019-08-17T06:39:17.000Z</time>
      </trkpt>
      <trkpt lat="45.91093" lon="4.67954">
        <ele>340.79998779297</ele>
        <time>2019-08-17T06:39:18.000Z</time>
      </trkpt>
      <trkpt lat="45.91086" lon="4.67952">
        <ele>340.39999389648</ele>
        <time>2019-08-17T06:39:19.000Z</time>
      </trkpt>
      <trkpt lat="45.91078" lon="4.67951">
        <ele>340</ele>
        <time>2019-08-17T06:39:20.000Z</time>
      </trkpt>
      <trkpt lat="45.91055" lon="4.67945">
        <ele>340</ele>
        <time>2019-08-17T06:39:23.000Z</time>
      </trkpt>
      <trkpt lat="45.91048" lon="4.67941">
        <ele>339.39999389648</ele>
        <time>2019-08-17T06:39:24.000Z</time>
      </trkpt>
      <trkpt lat="45.9104" lon="4.67938">
        <ele>339</ele>
        <time>2019-08-17T06:39:25.000Z</time>
      </trkpt>
      <trkpt lat="45.91033" lon="4.67934">
        <ele>338.60000610352</ele>
        <time>2019-08-17T06:39:26.000Z</time>
      </trkpt>
      <trkpt lat="45.91025" lon="4.67931">
        <ele>338.20001220703</ele>
        <time>2019-08-17T06:39:27.000Z</time>
      </trkpt>
      <trkpt lat="45.91018" lon="4.67927">
        <ele>337.60000610352</ele>
        <time>2019-08-17T06:39:28.000Z</time>
      </trkpt>
      <trkpt lat="45.90996" lon="4.67916">
        <ele>337.60000610352</ele>
        <time>2019-08-17T06:39:31.000Z</time>
      </trkpt>
      <trkpt lat="45.90981" lon="4.67909">
        <ele>337.20001220703</ele>
        <time>2019-08-17T06:39:33.000Z</time>
      </trkpt>
      <trkpt lat="45.90974" lon="4.67906">
        <ele>336.79998779297</ele>
        <time>2019-08-17T06:39:34.000Z</time>
      </trkpt>
      <trkpt lat="45.90967" lon="4.67903">
        <ele>336.20001220703</ele>
        <time>2019-08-17T06:39:35.000Z</time>
      </trkpt>
      <trkpt lat="45.90959" lon="4.679">
        <ele>335.39999389648</ele>
        <time>2019-08-17T06:39:36.000Z</time>
      </trkpt>
      <trkpt lat="45.90938" lon="4.67891">
        <ele>335.39999389648</ele>
        <time>2019-08-17T06:39:39.000Z</time>
      </trkpt>
      <trkpt lat="45.90906" lon="4.67878">
        <ele>335</ele>
        <time>2019-08-17T06:39:44.000Z</time>
      </trkpt>
      <trkpt lat="45.909" lon="4.67875">
        <ele>334.60000610352</ele>
        <time>2019-08-17T06:39:45.000Z</time>
      </trkpt>
      <trkpt lat="45.90894" lon="4.67872">
        <ele>334.20001220703</ele>
        <time>2019-08-17T06:39:46.000Z</time>
      </trkpt>
      <trkpt lat="45.90888" lon="4.6787">
        <ele>333.79998779297</ele>
        <time>2019-08-17T06:39:47.000Z</time>
      </trkpt>
      <trkpt lat="45.90882" lon="4.67868">
        <ele>333.39999389648</ele>
        <time>2019-08-17T06:39:48.000Z</time>
      </trkpt>
      <trkpt lat="45.90847" lon="4.67856">
        <ele>333.39999389648</ele>
        <time>2019-08-17T06:39:54.000Z</time>
      </trkpt>
      <trkpt lat="45.90793" lon="4.67838">
        <ele>333.39999389648</ele>
        <time>2019-08-17T06:40:03.000Z</time>
      </trkpt>
      <trkpt lat="45.90787" lon="4.67836">
        <ele>333.39999389648</ele>
        <time>2019-08-17T06:40:04.000Z</time>
      </trkpt>
      <trkpt lat="45.90749" lon="4.6782">
        <ele>333</ele>
        <time>2019-08-17T06:40:11.000Z</time>
      </trkpt>
      <trkpt lat="45.90744" lon="4.67818">
        <ele>332.60000610352</ele>
        <time>2019-08-17T06:40:12.000Z</time>
      </trkpt>
      <trkpt lat="45.90739" lon="4.67816">
        <ele>332.20001220703</ele>
        <time>2019-08-17T06:40:13.000Z</time>
      </trkpt>
      <trkpt lat="45.90733" lon="4.67814">
        <ele>331.79998779297</ele>
        <time>2019-08-17T06:40:14.000Z</time>
      </trkpt>
      <trkpt lat="45.90728" lon="4.67811">
        <ele>331.20001220703</ele>
        <time>2019-08-17T06:40:15.000Z</time>
      </trkpt>
      <trkpt lat="45.90683" lon="4.67796">
        <ele>331.20001220703</ele>
        <time>2019-08-17T06:40:23.000Z</time>
      </trkpt>
      <trkpt lat="45.90664" lon="4.67793">
        <ele>330.79998779297</ele>
        <time>2019-08-17T06:40:26.000Z</time>
      </trkpt>
      <trkpt lat="45.90658" lon="4.67793">
        <ele>330.39999389648</ele>
        <time>2019-08-17T06:40:27.000Z</time>
      </trkpt>
      <trkpt lat="45.90651" lon="4.67792">
        <ele>330</ele>
        <time>2019-08-17T06:40:28.000Z</time>
      </trkpt>
      <trkpt lat="45.90644" lon="4.67792">
        <ele>329.39999389648</ele>
        <time>2019-08-17T06:40:29.000Z</time>
      </trkpt>
      <trkpt lat="45.90638" lon="4.67792">
        <ele>329</ele>
        <time>2019-08-17T06:40:30.000Z</time>
      </trkpt>
      <trkpt lat="45.90631" lon="4.67792">
        <ele>329</ele>
        <time>2019-08-17T06:40:31.000Z</time>
      </trkpt>
      <trkpt lat="45.90611" lon="4.67791">
        <ele>328.60000610352</ele>
        <time>2019-08-17T06:40:34.000Z</time>
      </trkpt>
      <trkpt lat="45.90604" lon="4.67791">
        <ele>328.20001220703</ele>
        <time>2019-08-17T06:40:35.000Z</time>
      </trkpt>
      <trkpt lat="45.90597" lon="4.67791">
        <ele>327.79998779297</ele>
        <time>2019-08-17T06:40:36.000Z</time>
      </trkpt>
      <trkpt lat="45.9059" lon="4.67791">
        <ele>327.39999389648</ele>
        <time>2019-08-17T06:40:37.000Z</time>
      </trkpt>
      <trkpt lat="45.90583" lon="4.6779">
        <ele>327</ele>
        <time>2019-08-17T06:40:38.000Z</time>
      </trkpt>
      <trkpt lat="45.90563" lon="4.67786">
        <ele>327</ele>
        <time>2019-08-17T06:40:41.000Z</time>
      </trkpt>
      <trkpt lat="45.90513" lon="4.6777">
        <ele>327</ele>
        <time>2019-08-17T06:40:49.000Z</time>
      </trkpt>
      <trkpt lat="45.90502" lon="4.67766">
        <ele>326.60000610352</ele>
        <time>2019-08-17T06:40:51.000Z</time>
      </trkpt>
      <trkpt lat="45.90496" lon="4.67764">
        <ele>326.20001220703</ele>
        <time>2019-08-17T06:40:52.000Z</time>
      </trkpt>
      <trkpt lat="45.9049" lon="4.67761">
        <ele>325.79998779297</ele>
        <time>2019-08-17T06:40:53.000Z</time>
      </trkpt>
      <trkpt lat="45.90485" lon="4.67759">
        <ele>325.39999389648</ele>
        <time>2019-08-17T06:40:54.000Z</time>
      </trkpt>
      <trkpt lat="45.90479" lon="4.67757">
        <ele>325</ele>
        <time>2019-08-17T06:40:55.000Z</time>
      </trkpt>
      <trkpt lat="45.90474" lon="4.67755">
        <ele>325</ele>
        <time>2019-08-17T06:40:56.000Z</time>
      </trkpt>
      <trkpt lat="45.90434" lon="4.6774">
        <ele>325</ele>
        <time>2019-08-17T06:41:04.000Z</time>
      </trkpt>
      <trkpt lat="45.90424" lon="4.67737">
        <ele>325</ele>
        <time>2019-08-17T06:41:06.000Z</time>
      </trkpt>
      <trkpt lat="45.90411" lon="4.67733">
        <ele>325</ele>
        <time>2019-08-17T06:41:09.000Z</time>
      </trkpt>
      <trkpt lat="45.90407" lon="4.67732">
        <ele>325.39999389648</ele>
        <time>2019-08-17T06:41:10.000Z</time>
      </trkpt>
      <trkpt lat="45.90403" lon="4.67731">
        <ele>325.79998779297</ele>
        <time>2019-08-17T06:41:11.000Z</time>
      </trkpt>
      <trkpt lat="45.90398" lon="4.67729">
        <ele>326.20001220703</ele>
        <time>2019-08-17T06:41:12.000Z</time>
      </trkpt>
      <trkpt lat="45.90394" lon="4.67727">
        <ele>326.60000610352</ele>
        <time>2019-08-17T06:41:13.000Z</time>
      </trkpt>
      <trkpt lat="45.90389" lon="4.67725">
        <ele>327.20001220703</ele>
        <time>2019-08-17T06:41:14.000Z</time>
      </trkpt>
      <trkpt lat="45.90381" lon="4.67722">
        <ele>327.20001220703</ele>
        <time>2019-08-17T06:41:16.000Z</time>
      </trkpt>
      <trkpt lat="45.90366" lon="4.67717">
        <ele>327.60000610352</ele>
        <time>2019-08-17T06:41:20.000Z</time>
      </trkpt>
      <trkpt lat="45.90362" lon="4.67716">
        <ele>328</ele>
        <time>2019-08-17T06:41:21.000Z</time>
      </trkpt>
      <trkpt lat="45.90358" lon="4.67713">
        <ele>328.39999389648</ele>
        <time>2019-08-17T06:41:22.000Z</time>
      </trkpt>
      <trkpt lat="45.90354" lon="4.67712">
        <ele>328.79998779297</ele>
        <time>2019-08-17T06:41:23.000Z</time>
      </trkpt>
      <trkpt lat="45.9035" lon="4.67711">
        <ele>329.39999389648</ele>
        <time>2019-08-17T06:41:24.000Z</time>
      </trkpt>
      <trkpt lat="45.90339" lon="4.67706">
        <ele>329.39999389648</ele>
        <time>2019-08-17T06:41:27.000Z</time>
      </trkpt>
      <trkpt lat="45.90327" lon="4.67701">
        <ele>329.39999389648</ele>
        <time>2019-08-17T06:41:30.000Z</time>
      </trkpt>
      <trkpt lat="45.90317" lon="4.67696">
        <ele>329.39999389648</ele>
        <time>2019-08-17T06:41:33.000Z</time>
      </trkpt>
      <trkpt lat="45.90301" lon="4.67691">
        <ele>329.79998779297</ele>
        <time>2019-08-17T06:41:37.000Z</time>
      </trkpt>
      <trkpt lat="45.90297" lon="4.67689">
        <ele>330.20001220703</ele>
        <time>2019-08-17T06:41:38.000Z</time>
      </trkpt>
      <trkpt lat="45.90294" lon="4.67688">
        <ele>330.60000610352</ele>
        <time>2019-08-17T06:41:39.000Z</time>
      </trkpt>
      <trkpt lat="45.9029" lon="4.67687">
        <ele>331.39999389648</ele>
        <time>2019-08-17T06:41:40.000Z</time>
      </trkpt>
      <trkpt lat="45.90282" lon="4.67683">
        <ele>331.39999389648</ele>
        <time>2019-08-17T06:41:42.000Z</time>
      </trkpt>
      <trkpt lat="45.9027" lon="4.6768">
        <ele>331.39999389648</ele>
        <time>2019-08-17T06:41:45.000Z</time>
      </trkpt>
      <trkpt lat="45.90263" lon="4.67675">
        <ele>331.39999389648</ele>
        <time>2019-08-17T06:41:47.000Z</time>
      </trkpt>
      <trkpt lat="45.90254" lon="4.6767">
        <ele>331.39999389648</ele>
        <time>2019-08-17T06:41:49.000Z</time>
      </trkpt>
      <trkpt lat="45.90243" lon="4.67664">
        <ele>331.39999389648</ele>
        <time>2019-08-17T06:41:52.000Z</time>
      </trkpt>
      <trkpt lat="45.90224" lon="4.67655">
        <ele>331.39999389648</ele>
        <time>2019-08-17T06:41:57.000Z</time>
      </trkpt>
      <trkpt lat="45.90221" lon="4.67654">
        <ele>331.79998779297</ele>
        <time>2019-08-17T06:41:58.000Z</time>
      </trkpt>
      <trkpt lat="45.90218" lon="4.67655">
        <ele>332.39999389648</ele>
        <time>2019-08-17T06:41:59.000Z</time>
      </trkpt>
      <trkpt lat="45.90216" lon="4.67656">
        <ele>332.79998779297</ele>
        <time>2019-08-17T06:42:00.000Z</time>
      </trkpt>
      <trkpt lat="45.90212" lon="4.67658">
        <ele>333.20001220703</ele>
        <time>2019-08-17T06:42:01.000Z</time>
      </trkpt>
      <trkpt lat="45.90208" lon="4.6766">
        <ele>333.60000610352</ele>
        <time>2019-08-17T06:42:02.000Z</time>
      </trkpt>
      <trkpt lat="45.90189" lon="4.67668">
        <ele>333</ele>
        <time>2019-08-17T06:42:06.000Z</time>
      </trkpt>
      <trkpt lat="45.90184" lon="4.6767">
        <ele>332.60000610352</ele>
        <time>2019-08-17T06:42:07.000Z</time>
      </trkpt>
      <trkpt lat="45.90178" lon="4.67673">
        <ele>332</ele>
        <time>2019-08-17T06:42:08.000Z</time>
      </trkpt>
      <trkpt lat="45.90172" lon="4.67676">
        <ele>331.39999389648</ele>
        <time>2019-08-17T06:42:09.000Z</time>
      </trkpt>
      <trkpt lat="45.90165" lon="4.67679">
        <ele>330.79998779297</ele>
        <time>2019-08-17T06:42:10.000Z</time>
      </trkpt>
      <trkpt lat="45.90158" lon="4.67682">
        <ele>330.20001220703</ele>
        <time>2019-08-17T06:42:11.000Z</time>
      </trkpt>
      <trkpt lat="45.9015" lon="4.67686">
        <ele>329.39999389648</ele>
        <time>2019-08-17T06:42:12.000Z</time>
      </trkpt>
      <trkpt lat="45.90141" lon="4.67689">
        <ele>328.79998779297</ele>
        <time>2019-08-17T06:42:13.000Z</time>
      </trkpt>
      <trkpt lat="45.90132" lon="4.67694">
        <ele>328.20001220703</ele>
        <time>2019-08-17T06:42:14.000Z</time>
      </trkpt>
      <trkpt lat="45.90122" lon="4.67698">
        <ele>327.39999389648</ele>
        <time>2019-08-17T06:42:15.000Z</time>
      </trkpt>
      <trkpt lat="45.90113" lon="4.67703">
        <ele>326.79998779297</ele>
        <time>2019-08-17T06:42:16.000Z</time>
      </trkpt>
      <trkpt lat="45.90102" lon="4.67707">
        <ele>326</ele>
        <time>2019-08-17T06:42:17.000Z</time>
      </trkpt>
      <trkpt lat="45.90093" lon="4.67712">
        <ele>325.20001220703</ele>
        <time>2019-08-17T06:42:18.000Z</time>
      </trkpt>
      <trkpt lat="45.90083" lon="4.67717">
        <ele>324.20001220703</ele>
        <time>2019-08-17T06:42:19.000Z</time>
      </trkpt>
      <trkpt lat="45.90074" lon="4.67722">
        <ele>323.20001220703</ele>
        <time>2019-08-17T06:42:20.000Z</time>
      </trkpt>
      <trkpt lat="45.90065" lon="4.67729">
        <ele>322.20001220703</ele>
        <time>2019-08-17T06:42:21.000Z</time>
      </trkpt>
      <trkpt lat="45.90055" lon="4.67737">
        <ele>321</ele>
        <time>2019-08-17T06:42:22.000Z</time>
      </trkpt>
      <trkpt lat="45.90046" lon="4.67746">
        <ele>320</ele>
        <time>2019-08-17T06:42:23.000Z</time>
      </trkpt>
      <trkpt lat="45.90036" lon="4.67757">
        <ele>318.79998779297</ele>
        <time>2019-08-17T06:42:24.000Z</time>
      </trkpt>
      <trkpt lat="45.90027" lon="4.67767">
        <ele>317.79998779297</ele>
        <time>2019-08-17T06:42:25.000Z</time>
      </trkpt>
      <trkpt lat="45.90019" lon="4.67778">
        <ele>317</ele>
        <time>2019-08-17T06:42:26.000Z</time>
      </trkpt>
      <trkpt lat="45.9001" lon="4.6779">
        <ele>316</ele>
        <time>2019-08-17T06:42:27.000Z</time>
      </trkpt>
      <trkpt lat="45.90002" lon="4.67803">
        <ele>315</ele>
        <time>2019-08-17T06:42:28.000Z</time>
      </trkpt>
      <trkpt lat="45.89994" lon="4.67816">
        <ele>313.20001220703</ele>
        <time>2019-08-17T06:42:29.000Z</time>
      </trkpt>
      <trkpt lat="45.89985" lon="4.67829">
        <ele>312.39999389648</ele>
        <time>2019-08-17T06:42:30.000Z</time>
      </trkpt>
      <trkpt lat="45.89976" lon="4.67843">
        <ele>311.39999389648</ele>
        <time>2019-08-17T06:42:31.000Z</time>
      </trkpt>
      <trkpt lat="45.89967" lon="4.67856">
        <ele>310.39999389648</ele>
        <time>2019-08-17T06:42:32.000Z</time>
      </trkpt>
      <trkpt lat="45.89958" lon="4.67868">
        <ele>309.39999389648</ele>
        <time>2019-08-17T06:42:33.000Z</time>
      </trkpt>
      <trkpt lat="45.89949" lon="4.67881">
        <ele>308.39999389648</ele>
        <time>2019-08-17T06:42:34.000Z</time>
      </trkpt>
      <trkpt lat="45.89941" lon="4.67893">
        <ele>307.39999389648</ele>
        <time>2019-08-17T06:42:35.000Z</time>
      </trkpt>
      <trkpt lat="45.89932" lon="4.67906">
        <ele>306.60000610352</ele>
        <time>2019-08-17T06:42:36.000Z</time>
      </trkpt>
      <trkpt lat="45.89924" lon="4.67918">
        <ele>305.60000610352</ele>
        <time>2019-08-17T06:42:37.000Z</time>
      </trkpt>
      <trkpt lat="45.89917" lon="4.67928">
        <ele>304.60000610352</ele>
        <time>2019-08-17T06:42:38.000Z</time>
      </trkpt>
      <trkpt lat="45.89909" lon="4.67937">
        <ele>303.39999389648</ele>
        <time>2019-08-17T06:42:39.000Z</time>
      </trkpt>
      <trkpt lat="45.89901" lon="4.67945">
        <ele>302.20001220703</ele>
        <time>2019-08-17T06:42:40.000Z</time>
      </trkpt>
      <trkpt lat="45.89892" lon="4.67949">
        <ele>301.20001220703</ele>
        <time>2019-08-17T06:42:41.000Z</time>
      </trkpt>
      <trkpt lat="45.89883" lon="4.67952">
        <ele>300</ele>
        <time>2019-08-17T06:42:42.000Z</time>
      </trkpt>
      <trkpt lat="45.89873" lon="4.67955">
        <ele>298.79998779297</ele>
        <time>2019-08-17T06:42:43.000Z</time>
      </trkpt>
      <trkpt lat="45.89864" lon="4.67957">
        <ele>297.79998779297</ele>
        <time>2019-08-17T06:42:44.000Z</time>
      </trkpt>
      <trkpt lat="45.89854" lon="4.6796">
        <ele>297</ele>
        <time>2019-08-17T06:42:45.000Z</time>
      </trkpt>
      <trkpt lat="45.89847" lon="4.67961">
        <ele>296.20001220703</ele>
        <time>2019-08-17T06:42:46.000Z</time>
      </trkpt>
      <trkpt lat="45.89841" lon="4.67963">
        <ele>295.60000610352</ele>
        <time>2019-08-17T06:42:47.000Z</time>
      </trkpt>
      <trkpt lat="45.89836" lon="4.67964">
        <ele>294.79998779297</ele>
        <time>2019-08-17T06:42:48.000Z</time>
      </trkpt>
      <trkpt lat="45.89832" lon="4.67964">
        <ele>294</ele>
        <time>2019-08-17T06:42:49.000Z</time>
      </trkpt>
      <trkpt lat="45.89828" lon="4.67964">
        <ele>293.39999389648</ele>
        <time>2019-08-17T06:42:50.000Z</time>
      </trkpt>
      <trkpt lat="45.89825" lon="4.67964">
        <ele>292.60000610352</ele>
        <time>2019-08-17T06:42:51.000Z</time>
      </trkpt>
      <trkpt lat="45.89822" lon="4.67964">
        <ele>291.79998779297</ele>
        <time>2019-08-17T06:42:52.000Z</time>
      </trkpt>
      <trkpt lat="45.89819" lon="4.67965">
        <ele>291.79998779297</ele>
        <time>2019-08-17T06:42:54.000Z</time>
      </trkpt>
      <trkpt lat="45.8982" lon="4.67968">
        <ele>291.79998779297</ele>
        <time>2019-08-17T06:42:55.000Z</time>
      </trkpt>
      <trkpt lat="45.89828" lon="4.67966">
        <ele>291.79998779297</ele>
        <time>2019-08-17T06:42:58.000Z</time>
      </trkpt>
      <trkpt lat="45.89839" lon="4.67964">
        <ele>291.79998779297</ele>
        <time>2019-08-17T06:43:01.000Z</time>
      </trkpt>
      <trkpt lat="45.89848" lon="4.67962">
        <ele>291.79998779297</ele>
        <time>2019-08-17T06:43:03.000Z</time>
      </trkpt>
      <trkpt lat="45.89868" lon="4.67957">
        <ele>291.79998779297</ele>
        <time>2019-08-17T06:43:09.000Z</time>
      </trkpt>
      <trkpt lat="45.89869" lon="4.6796">
        <ele>291.79998779297</ele>
        <time>2019-08-17T06:43:10.000Z</time>
      </trkpt>
      <trkpt lat="45.89866" lon="4.67969">
        <ele>291.79998779297</ele>
        <time>2019-08-17T06:43:12.000Z</time>
      </trkpt>
      <trkpt lat="45.8986" lon="4.6798">
        <ele>291.79998779297</ele>
        <time>2019-08-17T06:43:14.000Z</time>
      </trkpt>
      <trkpt lat="45.89858" lon="4.67986">
        <ele>291.79998779297</ele>
        <time>2019-08-17T06:43:15.000Z</time>
      </trkpt>
      <trkpt lat="45.89855" lon="4.67992">
        <ele>291.39999389648</ele>
        <time>2019-08-17T06:43:16.000Z</time>
      </trkpt>
      <trkpt lat="45.89852" lon="4.67999">
        <ele>291</ele>
        <time>2019-08-17T06:43:17.000Z</time>
      </trkpt>
      <trkpt lat="45.89849" lon="4.68007">
        <ele>290.60000610352</ele>
        <time>2019-08-17T06:43:18.000Z</time>
      </trkpt>
      <trkpt lat="45.89846" lon="4.68013">
        <ele>289.79998779297</ele>
        <time>2019-08-17T06:43:19.000Z</time>
      </trkpt>
      <trkpt lat="45.89843" lon="4.6802">
        <ele>289.39999389648</ele>
        <time>2019-08-17T06:43:20.000Z</time>
      </trkpt>
      <trkpt lat="45.8984" lon="4.68027">
        <ele>288.79998779297</ele>
        <time>2019-08-17T06:43:21.000Z</time>
      </trkpt>
      <trkpt lat="45.89838" lon="4.68033">
        <ele>288.39999389648</ele>
        <time>2019-08-17T06:43:22.000Z</time>
      </trkpt>
      <trkpt lat="45.89836" lon="4.68039">
        <ele>288</ele>
        <time>2019-08-17T06:43:23.000Z</time>
      </trkpt>
      <trkpt lat="45.89833" lon="4.68046">
        <ele>287.60000610352</ele>
        <time>2019-08-17T06:43:24.000Z</time>
      </trkpt>
      <trkpt lat="45.89829" lon="4.68052">
        <ele>287.60000610352</ele>
        <time>2019-08-17T06:43:25.000Z</time>
      </trkpt>
      <trkpt lat="45.8982" lon="4.68067">
        <ele>287.20001220703</ele>
        <time>2019-08-17T06:43:27.000Z</time>
      </trkpt>
      <trkpt lat="45.89816" lon="4.68074">
        <ele>286.79998779297</ele>
        <time>2019-08-17T06:43:28.000Z</time>
      </trkpt>
      <trkpt lat="45.89811" lon="4.68082">
        <ele>286.20001220703</ele>
        <time>2019-08-17T06:43:29.000Z</time>
      </trkpt>
      <trkpt lat="45.89806" lon="4.6809">
        <ele>285.79998779297</ele>
        <time>2019-08-17T06:43:30.000Z</time>
      </trkpt>
      <trkpt lat="45.89801" lon="4.68098">
        <ele>285.20001220703</ele>
        <time>2019-08-17T06:43:31.000Z</time>
      </trkpt>
      <trkpt lat="45.89795" lon="4.68106">
        <ele>284.60000610352</ele>
        <time>2019-08-17T06:43:32.000Z</time>
      </trkpt>
      <trkpt lat="45.89789" lon="4.68114">
        <ele>284</ele>
        <time>2019-08-17T06:43:33.000Z</time>
      </trkpt>
      <trkpt lat="45.89783" lon="4.68122">
        <ele>283.39999389648</ele>
        <time>2019-08-17T06:43:34.000Z</time>
      </trkpt>
      <trkpt lat="45.89777" lon="4.68131">
        <ele>282.60000610352</ele>
        <time>2019-08-17T06:43:35.000Z</time>
      </trkpt>
      <trkpt lat="45.89773" lon="4.68141">
        <ele>281.79998779297</ele>
        <time>2019-08-17T06:43:36.000Z</time>
      </trkpt>
      <trkpt lat="45.89769" lon="4.68151">
        <ele>281.20001220703</ele>
        <time>2019-08-17T06:43:37.000Z</time>
      </trkpt>
      <trkpt lat="45.89766" lon="4.68161">
        <ele>280.39999389648</ele>
        <time>2019-08-17T06:43:38.000Z</time>
      </trkpt>
      <trkpt lat="45.89765" lon="4.68171">
        <ele>279.60000610352</ele>
        <time>2019-08-17T06:43:39.000Z</time>
      </trkpt>
      <trkpt lat="45.89765" lon="4.68182">
        <ele>278.79998779297</ele>
        <time>2019-08-17T06:43:40.000Z</time>
      </trkpt>
      <trkpt lat="45.89767" lon="4.68193">
        <ele>278</ele>
        <time>2019-08-17T06:43:41.000Z</time>
      </trkpt>
      <trkpt lat="45.8977" lon="4.68202">
        <ele>277.20001220703</ele>
        <time>2019-08-17T06:43:42.000Z</time>
      </trkpt>
      <trkpt lat="45.89773" lon="4.68211">
        <ele>276.39999389648</ele>
        <time>2019-08-17T06:43:43.000Z</time>
      </trkpt>
      <trkpt lat="45.89776" lon="4.6822">
        <ele>275.60000610352</ele>
        <time>2019-08-17T06:43:44.000Z</time>
      </trkpt>
      <trkpt lat="45.89778" lon="4.68229">
        <ele>275.60000610352</ele>
        <time>2019-08-17T06:43:45.000Z</time>
      </trkpt>
      <trkpt lat="45.89785" lon="4.6827">
        <ele>275.60000610352</ele>
        <time>2019-08-17T06:43:50.000Z</time>
      </trkpt>
      <trkpt lat="45.89789" lon="4.68283">
        <ele>275.60000610352</ele>
        <time>2019-08-17T06:43:52.000Z</time>
      </trkpt>
      <trkpt lat="45.89797" lon="4.68291">
        <ele>275.60000610352</ele>
        <time>2019-08-17T06:43:54.000Z</time>
      </trkpt>
      <trkpt lat="45.89821" lon="4.68313">
        <ele>275.60000610352</ele>
        <time>2019-08-17T06:44:00.000Z</time>
      </trkpt>
      <trkpt lat="45.89845" lon="4.6833">
        <ele>275.60000610352</ele>
        <time>2019-08-17T06:44:06.000Z</time>
      </trkpt>
      <trkpt lat="45.89852" lon="4.68336">
        <ele>275.60000610352</ele>
        <time>2019-08-17T06:44:08.000Z</time>
      </trkpt>
      <trkpt lat="45.89863" lon="4.68349">
        <ele>275.60000610352</ele>
        <time>2019-08-17T06:44:11.000Z</time>
      </trkpt>
      <trkpt lat="45.89887" lon="4.68377">
        <ele>275.60000610352</ele>
        <time>2019-08-17T06:44:16.000Z</time>
      </trkpt>
      <trkpt lat="45.89919" lon="4.68413">
        <ele>275.20001220703</ele>
        <time>2019-08-17T06:44:22.000Z</time>
      </trkpt>
      <trkpt lat="45.89925" lon="4.6842">
        <ele>274.79998779297</ele>
        <time>2019-08-17T06:44:23.000Z</time>
      </trkpt>
      <trkpt lat="45.89931" lon="4.68427">
        <ele>274.39999389648</ele>
        <time>2019-08-17T06:44:24.000Z</time>
      </trkpt>
      <trkpt lat="45.89938" lon="4.68435">
        <ele>274</ele>
        <time>2019-08-17T06:44:25.000Z</time>
      </trkpt>
      <trkpt lat="45.89943" lon="4.68443">
        <ele>273.39999389648</ele>
        <time>2019-08-17T06:44:26.000Z</time>
      </trkpt>
      <trkpt lat="45.89949" lon="4.68452">
        <ele>273</ele>
        <time>2019-08-17T06:44:27.000Z</time>
      </trkpt>
      <trkpt lat="45.89954" lon="4.68461">
        <ele>272.60000610352</ele>
        <time>2019-08-17T06:44:28.000Z</time>
      </trkpt>
      <trkpt lat="45.89958" lon="4.68472">
        <ele>272.20001220703</ele>
        <time>2019-08-17T06:44:29.000Z</time>
      </trkpt>
      <trkpt lat="45.8996" lon="4.68483">
        <ele>271.79998779297</ele>
        <time>2019-08-17T06:44:30.000Z</time>
      </trkpt>
      <trkpt lat="45.89961" lon="4.68496">
        <ele>271.20001220703</ele>
        <time>2019-08-17T06:44:31.000Z</time>
      </trkpt>
      <trkpt lat="45.89962" lon="4.68508">
        <ele>270.60000610352</ele>
        <time>2019-08-17T06:44:32.000Z</time>
      </trkpt>
      <trkpt lat="45.89962" lon="4.68522">
        <ele>269.20001220703</ele>
        <time>2019-08-17T06:44:33.000Z</time>
      </trkpt>
      <trkpt lat="45.89962" lon="4.68535">
        <ele>268.60000610352</ele>
        <time>2019-08-17T06:44:34.000Z</time>
      </trkpt>
      <trkpt lat="45.8996" lon="4.68549">
        <ele>268</ele>
        <time>2019-08-17T06:44:35.000Z</time>
      </trkpt>
      <trkpt lat="45.89959" lon="4.68563">
        <ele>267.20001220703</ele>
        <time>2019-08-17T06:44:36.000Z</time>
      </trkpt>
      <trkpt lat="45.89956" lon="4.68577">
        <ele>266.60000610352</ele>
        <time>2019-08-17T06:44:37.000Z</time>
      </trkpt>
      <trkpt lat="45.89955" lon="4.68591">
        <ele>266</ele>
        <time>2019-08-17T06:44:38.000Z</time>
      </trkpt>
      <trkpt lat="45.89953" lon="4.68606">
        <ele>265.39999389648</ele>
        <time>2019-08-17T06:44:39.000Z</time>
      </trkpt>
      <trkpt lat="45.89951" lon="4.6862">
        <ele>264.79998779297</ele>
        <time>2019-08-17T06:44:40.000Z</time>
      </trkpt>
      <trkpt lat="45.8995" lon="4.68634">
        <ele>264.20001220703</ele>
        <time>2019-08-17T06:44:41.000Z</time>
      </trkpt>
      <trkpt lat="45.89949" lon="4.68649">
        <ele>263.60000610352</ele>
        <time>2019-08-17T06:44:42.000Z</time>
      </trkpt>
      <trkpt lat="45.89948" lon="4.68665">
        <ele>263</ele>
        <time>2019-08-17T06:44:43.000Z</time>
      </trkpt>
      <trkpt lat="45.89946" lon="4.6868">
        <ele>262.39999389648</ele>
        <time>2019-08-17T06:44:44.000Z</time>
      </trkpt>
      <trkpt lat="45.89945" lon="4.68694">
        <ele>261.79998779297</ele>
        <time>2019-08-17T06:44:45.000Z</time>
      </trkpt>
      <trkpt lat="45.89943" lon="4.68709">
        <ele>261</ele>
        <time>2019-08-17T06:44:46.000Z</time>
      </trkpt>
      <trkpt lat="45.89941" lon="4.68724">
        <ele>260.20001220703</ele>
        <time>2019-08-17T06:44:47.000Z</time>
      </trkpt>
      <trkpt lat="45.89939" lon="4.68739">
        <ele>259.39999389648</ele>
        <time>2019-08-17T06:44:48.000Z</time>
      </trkpt>
      <trkpt lat="45.89936" lon="4.68755">
        <ele>258.60000610352</ele>
        <time>2019-08-17T06:44:49.000Z</time>
      </trkpt>
      <trkpt lat="45.89934" lon="4.68772">
        <ele>257.79998779297</ele>
        <time>2019-08-17T06:44:50.000Z</time>
      </trkpt>
      <trkpt lat="45.89934" lon="4.68788">
        <ele>257</ele>
        <time>2019-08-17T06:44:51.000Z</time>
      </trkpt>
      <trkpt lat="45.89934" lon="4.68805">
        <ele>256.20001220703</ele>
        <time>2019-08-17T06:44:52.000Z</time>
      </trkpt>
      <trkpt lat="45.89935" lon="4.68821">
        <ele>255.39999389648</ele>
        <time>2019-08-17T06:44:53.000Z</time>
      </trkpt>
      <trkpt lat="45.89937" lon="4.68837">
        <ele>254.60000610352</ele>
        <time>2019-08-17T06:44:54.000Z</time>
      </trkpt>
      <trkpt lat="45.89939" lon="4.68852">
        <ele>253.80000305176</ele>
        <time>2019-08-17T06:44:55.000Z</time>
      </trkpt>
      <trkpt lat="45.89943" lon="4.68865">
        <ele>253</ele>
        <time>2019-08-17T06:44:56.000Z</time>
      </trkpt>
      <trkpt lat="45.89948" lon="4.68875">
        <ele>251.80000305176</ele>
        <time>2019-08-17T06:44:57.000Z</time>
      </trkpt>
      <trkpt lat="45.89953" lon="4.68884">
        <ele>251.19999694824</ele>
        <time>2019-08-17T06:44:58.000Z</time>
      </trkpt>
      <trkpt lat="45.89959" lon="4.68893">
        <ele>250.60000610352</ele>
        <time>2019-08-17T06:44:59.000Z</time>
      </trkpt>
      <trkpt lat="45.89963" lon="4.68902">
        <ele>250</ele>
        <time>2019-08-17T06:45:00.000Z</time>
      </trkpt>
      <trkpt lat="45.89966" lon="4.68913">
        <ele>249.60000610352</ele>
        <time>2019-08-17T06:45:01.000Z</time>
      </trkpt>
      <trkpt lat="45.89967" lon="4.68926">
        <ele>249</ele>
        <time>2019-08-17T06:45:02.000Z</time>
      </trkpt>
      <trkpt lat="45.89967" lon="4.68938">
        <ele>248.39999389648</ele>
        <time>2019-08-17T06:45:03.000Z</time>
      </trkpt>
      <trkpt lat="45.89966" lon="4.68951">
        <ele>247.80000305176</ele>
        <time>2019-08-17T06:45:04.000Z</time>
      </trkpt>
      <trkpt lat="45.89965" lon="4.68963">
        <ele>247.80000305176</ele>
        <time>2019-08-17T06:45:05.000Z</time>
      </trkpt>
      <trkpt lat="45.89964" lon="4.68976">
        <ele>247.39999389648</ele>
        <time>2019-08-17T06:45:06.000Z</time>
      </trkpt>
      <trkpt lat="45.89963" lon="4.6899">
        <ele>247</ele>
        <time>2019-08-17T06:45:07.000Z</time>
      </trkpt>
      <trkpt lat="45.89963" lon="4.69004">
        <ele>246.60000610352</ele>
        <time>2019-08-17T06:45:08.000Z</time>
      </trkpt>
      <trkpt lat="45.89963" lon="4.69018">
        <ele>246.19999694824</ele>
        <time>2019-08-17T06:45:09.000Z</time>
      </trkpt>
      <trkpt lat="45.89963" lon="4.69033">
        <ele>245.80000305176</ele>
        <time>2019-08-17T06:45:10.000Z</time>
      </trkpt>
      <trkpt lat="45.89964" lon="4.69047">
        <ele>245.19999694824</ele>
        <time>2019-08-17T06:45:11.000Z</time>
      </trkpt>
      <trkpt lat="45.89965" lon="4.69062">
        <ele>244.80000305176</ele>
        <time>2019-08-17T06:45:12.000Z</time>
      </trkpt>
      <trkpt lat="45.89966" lon="4.69077">
        <ele>244.19999694824</ele>
        <time>2019-08-17T06:45:13.000Z</time>
      </trkpt>
      <trkpt lat="45.89967" lon="4.6909">
        <ele>243.60000610352</ele>
        <time>2019-08-17T06:45:14.000Z</time>
      </trkpt>
      <trkpt lat="45.89967" lon="4.69103">
        <ele>243</ele>
        <time>2019-08-17T06:45:15.000Z</time>
      </trkpt>
      <trkpt lat="45.89968" lon="4.69115">
        <ele>242.19999694824</ele>
        <time>2019-08-17T06:45:16.000Z</time>
      </trkpt>
      <trkpt lat="45.89967" lon="4.69128">
        <ele>241.39999389648</ele>
        <time>2019-08-17T06:45:17.000Z</time>
      </trkpt>
      <trkpt lat="45.89967" lon="4.69141">
        <ele>240.60000610352</ele>
        <time>2019-08-17T06:45:18.000Z</time>
      </trkpt>
      <trkpt lat="45.89966" lon="4.69154">
        <ele>239.80000305176</ele>
        <time>2019-08-17T06:45:19.000Z</time>
      </trkpt>
      <trkpt lat="45.89964" lon="4.69167">
        <ele>239</ele>
        <time>2019-08-17T06:45:20.000Z</time>
      </trkpt>
      <trkpt lat="45.89963" lon="4.69181">
        <ele>238.39999389648</ele>
        <time>2019-08-17T06:45:21.000Z</time>
      </trkpt>
      <trkpt lat="45.89962" lon="4.69195">
        <ele>237.39999389648</ele>
        <time>2019-08-17T06:45:22.000Z</time>
      </trkpt>
      <trkpt lat="45.8996" lon="4.69209">
        <ele>236.80000305176</ele>
        <time>2019-08-17T06:45:23.000Z</time>
      </trkpt>
      <trkpt lat="45.89958" lon="4.69223">
        <ele>236.19999694824</ele>
        <time>2019-08-17T06:45:24.000Z</time>
      </trkpt>
      <trkpt lat="45.89956" lon="4.69238">
        <ele>235.60000610352</ele>
        <time>2019-08-17T06:45:25.000Z</time>
      </trkpt>
      <trkpt lat="45.89954" lon="4.69253">
        <ele>235</ele>
        <time>2019-08-17T06:45:26.000Z</time>
      </trkpt>
      <trkpt lat="45.89953" lon="4.69268">
        <ele>234.39999389648</ele>
        <time>2019-08-17T06:45:27.000Z</time>
      </trkpt>
      <trkpt lat="45.89953" lon="4.69284">
        <ele>233.80000305176</ele>
        <time>2019-08-17T06:45:28.000Z</time>
      </trkpt>
      <trkpt lat="45.89952" lon="4.69299">
        <ele>233.19999694824</ele>
        <time>2019-08-17T06:45:29.000Z</time>
      </trkpt>
      <trkpt lat="45.89951" lon="4.69315">
        <ele>232.39999389648</ele>
        <time>2019-08-17T06:45:30.000Z</time>
      </trkpt>
      <trkpt lat="45.8995" lon="4.6933">
        <ele>231.80000305176</ele>
        <time>2019-08-17T06:45:31.000Z</time>
      </trkpt>
      <trkpt lat="45.8995" lon="4.69346">
        <ele>231</ele>
        <time>2019-08-17T06:45:32.000Z</time>
      </trkpt>
      <trkpt lat="45.89951" lon="4.69359">
        <ele>230.19999694824</ele>
        <time>2019-08-17T06:45:33.000Z</time>
      </trkpt>
      <trkpt lat="45.89951" lon="4.69371">
        <ele>229.39999389648</ele>
        <time>2019-08-17T06:45:34.000Z</time>
      </trkpt>
      <trkpt lat="45.89951" lon="4.69382">
        <ele>228.39999389648</ele>
        <time>2019-08-17T06:45:35.000Z</time>
      </trkpt>
      <trkpt lat="45.89951" lon="4.69394">
        <ele>227.39999389648</ele>
        <time>2019-08-17T06:45:36.000Z</time>
      </trkpt>
      <trkpt lat="45.89949" lon="4.69405">
        <ele>226.60000610352</ele>
        <time>2019-08-17T06:45:37.000Z</time>
      </trkpt>
      <trkpt lat="45.89946" lon="4.69417">
        <ele>225.80000305176</ele>
        <time>2019-08-17T06:45:38.000Z</time>
      </trkpt>
      <trkpt lat="45.89942" lon="4.69429">
        <ele>225</ele>
        <time>2019-08-17T06:45:39.000Z</time>
      </trkpt>
      <trkpt lat="45.89938" lon="4.6944">
        <ele>224.19999694824</ele>
        <time>2019-08-17T06:45:40.000Z</time>
      </trkpt>
      <trkpt lat="45.89935" lon="4.6945">
        <ele>223.39999389648</ele>
        <time>2019-08-17T06:45:41.000Z</time>
      </trkpt>
      <trkpt lat="45.8993" lon="4.6946">
        <ele>222.80000305176</ele>
        <time>2019-08-17T06:45:42.000Z</time>
      </trkpt>
      <trkpt lat="45.89926" lon="4.69467">
        <ele>222.19999694824</ele>
        <time>2019-08-17T06:45:43.000Z</time>
      </trkpt>
      <trkpt lat="45.89921" lon="4.69476">
        <ele>221.39999389648</ele>
        <time>2019-08-17T06:45:44.000Z</time>
      </trkpt>
      <trkpt lat="45.89916" lon="4.69482">
        <ele>219.80000305176</ele>
        <time>2019-08-17T06:45:45.000Z</time>
      </trkpt>
      <trkpt lat="45.89911" lon="4.69488">
        <ele>219</ele>
        <time>2019-08-17T06:45:46.000Z</time>
      </trkpt>
      <trkpt lat="45.89906" lon="4.69497">
        <ele>218.19999694824</ele>
        <time>2019-08-17T06:45:47.000Z</time>
      </trkpt>
      <trkpt lat="45.89901" lon="4.69503">
        <ele>217.39999389648</ele>
        <time>2019-08-17T06:45:48.000Z</time>
      </trkpt>
      <trkpt lat="45.89896" lon="4.69512">
        <ele>216.60000610352</ele>
        <time>2019-08-17T06:45:49.000Z</time>
      </trkpt>
      <trkpt lat="45.8989" lon="4.69521">
        <ele>215.80000305176</ele>
        <time>2019-08-17T06:45:50.000Z</time>
      </trkpt>
      <trkpt lat="45.89884" lon="4.69531">
        <ele>215</ele>
        <time>2019-08-17T06:45:51.000Z</time>
      </trkpt>
      <trkpt lat="45.89877" lon="4.6954">
        <ele>214</ele>
        <time>2019-08-17T06:45:52.000Z</time>
      </trkpt>
      <trkpt lat="45.89871" lon="4.69549">
        <ele>213.19999694824</ele>
        <time>2019-08-17T06:45:53.000Z</time>
      </trkpt>
      <trkpt lat="45.89865" lon="4.69559">
        <ele>212.19999694824</ele>
        <time>2019-08-17T06:45:54.000Z</time>
      </trkpt>
      <trkpt lat="45.89859" lon="4.69567">
        <ele>211.19999694824</ele>
        <time>2019-08-17T06:45:55.000Z</time>
      </trkpt>
      <trkpt lat="45.89854" lon="4.69575">
        <ele>210</ele>
        <time>2019-08-17T06:45:56.000Z</time>
      </trkpt>
      <trkpt lat="45.89849" lon="4.69581">
        <ele>208.80000305176</ele>
        <time>2019-08-17T06:45:57.000Z</time>
      </trkpt>
      <trkpt lat="45.89845" lon="4.69585">
        <ele>207.60000610352</ele>
        <time>2019-08-17T06:45:58.000Z</time>
      </trkpt>
      <trkpt lat="45.8984" lon="4.69589">
        <ele>206.39999389648</ele>
        <time>2019-08-17T06:45:59.000Z</time>
      </trkpt>
      <trkpt lat="45.89835" lon="4.69597">
        <ele>205.39999389648</ele>
        <time>2019-08-17T06:46:00.000Z</time>
      </trkpt>
      <trkpt lat="45.8983" lon="4.69604">
        <ele>204.39999389648</ele>
        <time>2019-08-17T06:46:01.000Z</time>
      </trkpt>
      <trkpt lat="45.89825" lon="4.69611">
        <ele>203.60000610352</ele>
        <time>2019-08-17T06:46:02.000Z</time>
      </trkpt>
      <trkpt lat="45.89821" lon="4.69621">
        <ele>202.60000610352</ele>
        <time>2019-08-17T06:46:03.000Z</time>
      </trkpt>
      <trkpt lat="45.89816" lon="4.69628">
        <ele>201.80000305176</ele>
        <time>2019-08-17T06:46:04.000Z</time>
      </trkpt>
      <trkpt lat="45.89812" lon="4.69638">
        <ele>200.80000305176</ele>
        <time>2019-08-17T06:46:05.000Z</time>
      </trkpt>
      <trkpt lat="45.8981" lon="4.69647">
        <ele>200</ele>
        <time>2019-08-17T06:46:06.000Z</time>
      </trkpt>
      <trkpt lat="45.89808" lon="4.69657">
        <ele>199.19999694824</ele>
        <time>2019-08-17T06:46:07.000Z</time>
      </trkpt>
      <trkpt lat="45.89808" lon="4.69666">
        <ele>198.60000610352</ele>
        <time>2019-08-17T06:46:08.000Z</time>
      </trkpt>
      <trkpt lat="45.89807" lon="4.69676">
        <ele>197.80000305176</ele>
        <time>2019-08-17T06:46:09.000Z</time>
      </trkpt>
      <trkpt lat="45.89808" lon="4.69684">
        <ele>196.60000610352</ele>
        <time>2019-08-17T06:46:10.000Z</time>
      </trkpt>
      <trkpt lat="45.89809" lon="4.69692">
        <ele>196</ele>
        <time>2019-08-17T06:46:11.000Z</time>
      </trkpt>
      <trkpt lat="45.8981" lon="4.697">
        <ele>195.39999389648</ele>
        <time>2019-08-17T06:46:12.000Z</time>
      </trkpt>
      <trkpt lat="45.89812" lon="4.69707">
        <ele>194.60000610352</ele>
        <time>2019-08-17T06:46:13.000Z</time>
      </trkpt>
      <trkpt lat="45.89813" lon="4.69714">
        <ele>194</ele>
        <time>2019-08-17T06:46:14.000Z</time>
      </trkpt>
      <trkpt lat="45.89813" lon="4.69721">
        <ele>193.19999694824</ele>
        <time>2019-08-17T06:46:15.000Z</time>
      </trkpt>
      <trkpt lat="45.89814" lon="4.69728">
        <ele>192.39999389648</ele>
        <time>2019-08-17T06:46:16.000Z</time>
      </trkpt>
      <trkpt lat="45.89817" lon="4.69734">
        <ele>191.80000305176</ele>
        <time>2019-08-17T06:46:17.000Z</time>
      </trkpt>
      <trkpt lat="45.8982" lon="4.69748">
        <ele>191.80000305176</ele>
        <time>2019-08-17T06:46:19.000Z</time>
      </trkpt>
      <trkpt lat="45.89821" lon="4.69756">
        <ele>191.80000305176</ele>
        <time>2019-08-17T06:46:20.000Z</time>
      </trkpt>
      <trkpt lat="45.89823" lon="4.69783">
        <ele>191.39999389648</ele>
        <time>2019-08-17T06:46:23.000Z</time>
      </trkpt>
      <trkpt lat="45.89822" lon="4.69793">
        <ele>191</ele>
        <time>2019-08-17T06:46:24.000Z</time>
      </trkpt>
      <trkpt lat="45.8982" lon="4.69802">
        <ele>190.60000610352</ele>
        <time>2019-08-17T06:46:25.000Z</time>
      </trkpt>
      <trkpt lat="45.89819" lon="4.6981">
        <ele>190</ele>
        <time>2019-08-17T06:46:26.000Z</time>
      </trkpt>
      <trkpt lat="45.89816" lon="4.69819">
        <ele>189.60000610352</ele>
        <time>2019-08-17T06:46:27.000Z</time>
      </trkpt>
      <trkpt lat="45.89814" lon="4.69827">
        <ele>189.60000610352</ele>
        <time>2019-08-17T06:46:28.000Z</time>
      </trkpt>
      <trkpt lat="45.89804" lon="4.69864">
        <ele>189.19999694824</ele>
        <time>2019-08-17T06:46:32.000Z</time>
      </trkpt>
      <trkpt lat="45.89803" lon="4.69874">
        <ele>188.80000305176</ele>
        <time>2019-08-17T06:46:33.000Z</time>
      </trkpt>
      <trkpt lat="45.89801" lon="4.69884">
        <ele>188.39999389648</ele>
        <time>2019-08-17T06:46:34.000Z</time>
      </trkpt>
      <trkpt lat="45.898" lon="4.69894">
        <ele>187.60000610352</ele>
        <time>2019-08-17T06:46:35.000Z</time>
      </trkpt>
      <trkpt lat="45.89794" lon="4.69936">
        <ele>187.19999694824</ele>
        <time>2019-08-17T06:46:40.000Z</time>
      </trkpt>
      <trkpt lat="45.89793" lon="4.69943">
        <ele>186.80000305176</ele>
        <time>2019-08-17T06:46:41.000Z</time>
      </trkpt>
      <trkpt lat="45.89792" lon="4.6995">
        <ele>186.39999389648</ele>
        <time>2019-08-17T06:46:42.000Z</time>
      </trkpt>
      <trkpt lat="45.89788" lon="4.69955">
        <ele>186</ele>
        <time>2019-08-17T06:46:43.000Z</time>
      </trkpt>
      <trkpt lat="45.89785" lon="4.69962">
        <ele>185.60000610352</ele>
        <time>2019-08-17T06:46:44.000Z</time>
      </trkpt>
      <trkpt lat="45.89785" lon="4.69978">
        <ele>185.60000610352</ele>
        <time>2019-08-17T06:46:47.000Z</time>
      </trkpt>
      <trkpt lat="45.89786" lon="4.69982">
        <ele>185.60000610352</ele>
        <time>2019-08-17T06:46:48.000Z</time>
      </trkpt>
      <trkpt lat="45.89786" lon="4.69986">
        <ele>185.19999694824</ele>
        <time>2019-08-17T06:46:49.000Z</time>
      </trkpt>
      <trkpt lat="45.89786" lon="4.6999">
        <ele>184.80000305176</ele>
        <time>2019-08-17T06:46:50.000Z</time>
      </trkpt>
      <trkpt lat="45.89786" lon="4.69995">
        <ele>184.39999389648</ele>
        <time>2019-08-17T06:46:51.000Z</time>
      </trkpt>
      <trkpt lat="45.89785" lon="4.69998">
        <ele>184</ele>
        <time>2019-08-17T06:46:52.000Z</time>
      </trkpt>
      <trkpt lat="45.89784" lon="4.70005">
        <ele>183.60000610352</ele>
        <time>2019-08-17T06:46:53.000Z</time>
      </trkpt>
      <trkpt lat="45.89784" lon="4.70012">
        <ele>183.60000610352</ele>
        <time>2019-08-17T06:46:54.000Z</time>
      </trkpt>
      <trkpt lat="45.89783" lon="4.70024">
        <ele>183.60000610352</ele>
        <time>2019-08-17T06:46:56.000Z</time>
      </trkpt>
      <trkpt lat="45.89781" lon="4.70037">
        <ele>183.60000610352</ele>
        <time>2019-08-17T06:47:00.000Z</time>
      </trkpt>
      <trkpt lat="45.89781" lon="4.70038">
        <ele>183.19999694824</ele>
        <time>2019-08-17T06:47:02.000Z</time>
      </trkpt>
      <trkpt lat="45.89782" lon="4.70038">
        <ele>182.80000305176</ele>
        <time>2019-08-17T06:47:03.000Z</time>
      </trkpt>
      <trkpt lat="45.89782" lon="4.70041">
        <ele>181.60000610352</ele>
        <time>2019-08-17T06:47:18.000Z</time>
      </trkpt>
      <trkpt lat="45.89776" lon="4.70062">
        <ele>181.60000610352</ele>
        <time>2019-08-17T06:47:22.000Z</time>
      </trkpt>
      <trkpt lat="45.89769" lon="4.70087">
        <ele>181.60000610352</ele>
        <time>2019-08-17T06:47:26.000Z</time>
      </trkpt>
      <trkpt lat="45.89756" lon="4.70131">
        <ele>181.60000610352</ele>
        <time>2019-08-17T06:47:32.000Z</time>
      </trkpt>
      <trkpt lat="45.89748" lon="4.70158">
        <ele>181.19999694824</ele>
        <time>2019-08-17T06:47:36.000Z</time>
      </trkpt>
      <trkpt lat="45.89747" lon="4.70166">
        <ele>180.60000610352</ele>
        <time>2019-08-17T06:47:37.000Z</time>
      </trkpt>
      <trkpt lat="45.89745" lon="4.70173">
        <ele>180.19999694824</ele>
        <time>2019-08-17T06:47:38.000Z</time>
      </trkpt>
      <trkpt lat="45.89744" lon="4.70181">
        <ele>179.80000305176</ele>
        <time>2019-08-17T06:47:39.000Z</time>
      </trkpt>
      <trkpt lat="45.89741" lon="4.70189">
        <ele>179.39999389648</ele>
        <time>2019-08-17T06:47:40.000Z</time>
      </trkpt>
      <trkpt lat="45.89726" lon="4.7024">
        <ele>179.39999389648</ele>
        <time>2019-08-17T06:47:47.000Z</time>
      </trkpt>
      <trkpt lat="45.89712" lon="4.70289">
        <ele>179</ele>
        <time>2019-08-17T06:47:53.000Z</time>
      </trkpt>
      <trkpt lat="45.89709" lon="4.70297">
        <ele>178.60000610352</ele>
        <time>2019-08-17T06:47:54.000Z</time>
      </trkpt>
      <trkpt lat="45.89707" lon="4.70305">
        <ele>178.19999694824</ele>
        <time>2019-08-17T06:47:55.000Z</time>
      </trkpt>
      <trkpt lat="45.89704" lon="4.70313">
        <ele>177.80000305176</ele>
        <time>2019-08-17T06:47:56.000Z</time>
      </trkpt>
      <trkpt lat="45.89702" lon="4.70321">
        <ele>177.39999389648</ele>
        <time>2019-08-17T06:47:57.000Z</time>
      </trkpt>
      <trkpt lat="45.89689" lon="4.70381">
        <ele>177.39999389648</ele>
        <time>2019-08-17T06:48:04.000Z</time>
      </trkpt>
      <trkpt lat="45.89687" lon="4.7039">
        <ele>177</ele>
        <time>2019-08-17T06:48:05.000Z</time>
      </trkpt>
      <trkpt lat="45.89686" lon="4.70398">
        <ele>176.60000610352</ele>
        <time>2019-08-17T06:48:06.000Z</time>
      </trkpt>
      <trkpt lat="45.89684" lon="4.70407">
        <ele>176.19999694824</ele>
        <time>2019-08-17T06:48:07.000Z</time>
      </trkpt>
      <trkpt lat="45.89683" lon="4.70416">
        <ele>175.80000305176</ele>
        <time>2019-08-17T06:48:08.000Z</time>
      </trkpt>
      <trkpt lat="45.89682" lon="4.70426">
        <ele>175.39999389648</ele>
        <time>2019-08-17T06:48:09.000Z</time>
      </trkpt>
      <trkpt lat="45.89682" lon="4.70435">
        <ele>175.39999389648</ele>
        <time>2019-08-17T06:48:10.000Z</time>
      </trkpt>
      <trkpt lat="45.89673" lon="4.70488">
        <ele>175</ele>
        <time>2019-08-17T06:48:16.000Z</time>
      </trkpt>
      <trkpt lat="45.89669" lon="4.70495">
        <ele>174.39999389648</ele>
        <time>2019-08-17T06:48:17.000Z</time>
      </trkpt>
      <trkpt lat="45.89664" lon="4.70501">
        <ele>174</ele>
        <time>2019-08-17T06:48:18.000Z</time>
      </trkpt>
      <trkpt lat="45.89659" lon="4.70506">
        <ele>173.60000610352</ele>
        <time>2019-08-17T06:48:19.000Z</time>
      </trkpt>
      <trkpt lat="45.89653" lon="4.7051">
        <ele>173.19999694824</ele>
        <time>2019-08-17T06:48:20.000Z</time>
      </trkpt>
      <trkpt lat="45.89647" lon="4.70513">
        <ele>173.19999694824</ele>
        <time>2019-08-17T06:48:21.000Z</time>
      </trkpt>
      <trkpt lat="45.8961" lon="4.70534">
        <ele>173.19999694824</ele>
        <time>2019-08-17T06:48:28.000Z</time>
      </trkpt>
      <trkpt lat="45.89599" lon="4.70543">
        <ele>173.19999694824</ele>
        <time>2019-08-17T06:48:30.000Z</time>
      </trkpt>
      <trkpt lat="45.8959" lon="4.70554">
        <ele>173.19999694824</ele>
        <time>2019-08-17T06:48:32.000Z</time>
      </trkpt>
      <trkpt lat="45.89585" lon="4.70561">
        <ele>173.19999694824</ele>
        <time>2019-08-17T06:48:33.000Z</time>
      </trkpt>
      <trkpt lat="45.89569" lon="4.70589">
        <ele>173.19999694824</ele>
        <time>2019-08-17T06:48:37.000Z</time>
      </trkpt>
      <trkpt lat="45.89549" lon="4.70639">
        <ele>173.19999694824</ele>
        <time>2019-08-17T06:48:43.000Z</time>
      </trkpt>
      <trkpt lat="45.89546" lon="4.70648">
        <ele>172.80000305176</ele>
        <time>2019-08-17T06:48:44.000Z</time>
      </trkpt>
      <trkpt lat="45.89543" lon="4.70657">
        <ele>172.39999389648</ele>
        <time>2019-08-17T06:48:45.000Z</time>
      </trkpt>
      <trkpt lat="45.89539" lon="4.70665">
        <ele>172</ele>
        <time>2019-08-17T06:48:46.000Z</time>
      </trkpt>
      <trkpt lat="45.89536" lon="4.70674">
        <ele>171.60000610352</ele>
        <time>2019-08-17T06:48:47.000Z</time>
      </trkpt>
      <trkpt lat="45.89531" lon="4.70682">
        <ele>171.19999694824</ele>
        <time>2019-08-17T06:48:48.000Z</time>
      </trkpt>
      <trkpt lat="45.89526" lon="4.70689">
        <ele>171.19999694824</ele>
        <time>2019-08-17T06:48:49.000Z</time>
      </trkpt>
      <trkpt lat="45.89488" lon="4.70736">
        <ele>171.19999694824</ele>
        <time>2019-08-17T06:48:56.000Z</time>
      </trkpt>
      <trkpt lat="45.89484" lon="4.70744">
        <ele>171.19999694824</ele>
        <time>2019-08-17T06:48:57.000Z</time>
      </trkpt>
      <trkpt lat="45.89454" lon="4.70799">
        <ele>171.19999694824</ele>
        <time>2019-08-17T06:49:04.000Z</time>
      </trkpt>
      <trkpt lat="45.89445" lon="4.70814">
        <ele>170.80000305176</ele>
        <time>2019-08-17T06:49:06.000Z</time>
      </trkpt>
      <trkpt lat="45.8944" lon="4.70821">
        <ele>170.39999389648</ele>
        <time>2019-08-17T06:49:07.000Z</time>
      </trkpt>
      <trkpt lat="45.89435" lon="4.70827">
        <ele>170</ele>
        <time>2019-08-17T06:49:08.000Z</time>
      </trkpt>
      <trkpt lat="45.89429" lon="4.70833">
        <ele>169.39999389648</ele>
        <time>2019-08-17T06:49:09.000Z</time>
      </trkpt>
      <trkpt lat="45.89423" lon="4.70837">
        <ele>169</ele>
        <time>2019-08-17T06:49:10.000Z</time>
      </trkpt>
      <trkpt lat="45.89399" lon="4.70853">
        <ele>169</ele>
        <time>2019-08-17T06:49:14.000Z</time>
      </trkpt>
      <trkpt lat="45.89374" lon="4.70867">
        <ele>169</ele>
        <time>2019-08-17T06:49:18.000Z</time>
      </trkpt>
      <trkpt lat="45.89355" lon="4.70878">
        <ele>169</ele>
        <time>2019-08-17T06:49:21.000Z</time>
      </trkpt>
      <trkpt lat="45.8931" lon="4.70901">
        <ele>169</ele>
        <time>2019-08-17T06:49:28.000Z</time>
      </trkpt>
      <trkpt lat="45.89286" lon="4.70918">
        <ele>169</ele>
        <time>2019-08-17T06:49:32.000Z</time>
      </trkpt>
      <trkpt lat="45.89281" lon="4.70925">
        <ele>169</ele>
        <time>2019-08-17T06:49:33.000Z</time>
      </trkpt>
      <trkpt lat="45.89274" lon="4.70953">
        <ele>169</ele>
        <time>2019-08-17T06:49:36.000Z</time>
      </trkpt>
      <trkpt lat="45.89274" lon="4.70963">
        <ele>169</ele>
        <time>2019-08-17T06:49:37.000Z</time>
      </trkpt>
      <trkpt lat="45.8927" lon="4.70995">
        <ele>169</ele>
        <time>2019-08-17T06:49:40.000Z</time>
      </trkpt>
      <trkpt lat="45.89267" lon="4.71005">
        <ele>168.60000610352</ele>
        <time>2019-08-17T06:49:41.000Z</time>
      </trkpt>
      <trkpt lat="45.89262" lon="4.71014">
        <ele>168.19999694824</ele>
        <time>2019-08-17T06:49:42.000Z</time>
      </trkpt>
      <trkpt lat="45.89257" lon="4.71021">
        <ele>167.80000305176</ele>
        <time>2019-08-17T06:49:43.000Z</time>
      </trkpt>
      <trkpt lat="45.89251" lon="4.71027">
        <ele>167.19999694824</ele>
        <time>2019-08-17T06:49:44.000Z</time>
      </trkpt>
      <trkpt lat="45.89244" lon="4.71032">
        <ele>166.80000305176</ele>
        <time>2019-08-17T06:49:45.000Z</time>
      </trkpt>
      <trkpt lat="45.8921" lon="4.71055">
        <ele>166.80000305176</ele>
        <time>2019-08-17T06:49:50.000Z</time>
      </trkpt>
      <trkpt lat="45.89164" lon="4.71084">
        <ele>166.39999389648</ele>
        <time>2019-08-17T06:49:57.000Z</time>
      </trkpt>
      <trkpt lat="45.89158" lon="4.71088">
        <ele>166</ele>
        <time>2019-08-17T06:49:58.000Z</time>
      </trkpt>
      <trkpt lat="45.89151" lon="4.71091">
        <ele>165.60000610352</ele>
        <time>2019-08-17T06:49:59.000Z</time>
      </trkpt>
      <trkpt lat="45.89145" lon="4.71095">
        <ele>165.19999694824</ele>
        <time>2019-08-17T06:50:00.000Z</time>
      </trkpt>
      <trkpt lat="45.89139" lon="4.71098">
        <ele>164.80000305176</ele>
        <time>2019-08-17T06:50:01.000Z</time>
      </trkpt>
      <trkpt lat="45.891" lon="4.71118">
        <ele>164.80000305176</ele>
        <time>2019-08-17T06:50:07.000Z</time>
      </trkpt>
      <trkpt lat="45.89056" lon="4.71135">
        <ele>164.80000305176</ele>
        <time>2019-08-17T06:50:14.000Z</time>
      </trkpt>
      <trkpt lat="45.89044" lon="4.7114">
        <ele>164.80000305176</ele>
        <time>2019-08-17T06:50:16.000Z</time>
      </trkpt>
      <trkpt lat="45.89028" lon="4.71157">
        <ele>164.80000305176</ele>
        <time>2019-08-17T06:50:19.000Z</time>
      </trkpt>
      <trkpt lat="45.89019" lon="4.71184">
        <ele>164.80000305176</ele>
        <time>2019-08-17T06:50:22.000Z</time>
      </trkpt>
      <trkpt lat="45.89018" lon="4.71205">
        <ele>164.80000305176</ele>
        <time>2019-08-17T06:50:24.000Z</time>
      </trkpt>
      <trkpt lat="45.89016" lon="4.71239">
        <ele>164.80000305176</ele>
        <time>2019-08-17T06:50:27.000Z</time>
      </trkpt>
      <trkpt lat="45.89016" lon="4.71251">
        <ele>164.39999389648</ele>
        <time>2019-08-17T06:50:28.000Z</time>
      </trkpt>
      <trkpt lat="45.89016" lon="4.71262">
        <ele>164</ele>
        <time>2019-08-17T06:50:29.000Z</time>
      </trkpt>
      <trkpt lat="45.89015" lon="4.71274">
        <ele>163.60000610352</ele>
        <time>2019-08-17T06:50:30.000Z</time>
      </trkpt>
      <trkpt lat="45.89014" lon="4.71285">
        <ele>163.19999694824</ele>
        <time>2019-08-17T06:50:31.000Z</time>
      </trkpt>
      <trkpt lat="45.89014" lon="4.71297">
        <ele>162.80000305176</ele>
        <time>2019-08-17T06:50:32.000Z</time>
      </trkpt>
      <trkpt lat="45.89012" lon="4.7133">
        <ele>162.80000305176</ele>
        <time>2019-08-17T06:50:35.000Z</time>
      </trkpt>
      <trkpt lat="45.8901" lon="4.71378">
        <ele>162.39999389648</ele>
        <time>2019-08-17T06:50:40.000Z</time>
      </trkpt>
      <trkpt lat="45.89009" lon="4.71388">
        <ele>161.80000305176</ele>
        <time>2019-08-17T06:50:41.000Z</time>
      </trkpt>
      <trkpt lat="45.89009" lon="4.71397">
        <ele>161.39999389648</ele>
        <time>2019-08-17T06:50:42.000Z</time>
      </trkpt>
      <trkpt lat="45.89009" lon="4.71406">
        <ele>160.39999389648</ele>
        <time>2019-08-17T06:50:43.000Z</time>
      </trkpt>
      <trkpt lat="45.89007" lon="4.71455">
        <ele>160</ele>
        <time>2019-08-17T06:50:48.000Z</time>
      </trkpt>
      <trkpt lat="45.89006" lon="4.71466">
        <ele>159.60000610352</ele>
        <time>2019-08-17T06:50:49.000Z</time>
      </trkpt>
      <trkpt lat="45.89006" lon="4.71477">
        <ele>159.19999694824</ele>
        <time>2019-08-17T06:50:50.000Z</time>
      </trkpt>
      <trkpt lat="45.89005" lon="4.71488">
        <ele>158.80000305176</ele>
        <time>2019-08-17T06:50:51.000Z</time>
      </trkpt>
      <trkpt lat="45.89004" lon="4.715">
        <ele>158.39999389648</ele>
        <time>2019-08-17T06:50:52.000Z</time>
      </trkpt>
      <trkpt lat="45.89001" lon="4.71525">
        <ele>158</ele>
        <time>2019-08-17T06:50:54.000Z</time>
      </trkpt>
      <trkpt lat="45.88999" lon="4.71537">
        <ele>157.60000610352</ele>
        <time>2019-08-17T06:50:55.000Z</time>
      </trkpt>
      <trkpt lat="45.88997" lon="4.7155">
        <ele>157.19999694824</ele>
        <time>2019-08-17T06:50:56.000Z</time>
      </trkpt>
      <trkpt lat="45.88994" lon="4.71563">
        <ele>156.60000610352</ele>
        <time>2019-08-17T06:50:57.000Z</time>
      </trkpt>
      <trkpt lat="45.88992" lon="4.71576">
        <ele>156.19999694824</ele>
        <time>2019-08-17T06:50:58.000Z</time>
      </trkpt>
      <trkpt lat="45.8899" lon="4.71589">
        <ele>155.60000610352</ele>
        <time>2019-08-17T06:50:59.000Z</time>
      </trkpt>
      <trkpt lat="45.88987" lon="4.71602">
        <ele>155.19999694824</ele>
        <time>2019-08-17T06:51:00.000Z</time>
      </trkpt>
      <trkpt lat="45.88985" lon="4.71615">
        <ele>154.60000610352</ele>
        <time>2019-08-17T06:51:01.000Z</time>
      </trkpt>
      <trkpt lat="45.88982" lon="4.71628">
        <ele>154.19999694824</ele>
        <time>2019-08-17T06:51:02.000Z</time>
      </trkpt>
      <trkpt lat="45.88979" lon="4.7164">
        <ele>153.80000305176</ele>
        <time>2019-08-17T06:51:03.000Z</time>
      </trkpt>
      <trkpt lat="45.88975" lon="4.71653">
        <ele>153.19999694824</ele>
        <time>2019-08-17T06:51:04.000Z</time>
      </trkpt>
      <trkpt lat="45.88971" lon="4.71665">
        <ele>152.80000305176</ele>
        <time>2019-08-17T06:51:05.000Z</time>
      </trkpt>
      <trkpt lat="45.88967" lon="4.71677">
        <ele>152.39999389648</ele>
        <time>2019-08-17T06:51:06.000Z</time>
      </trkpt>
      <trkpt lat="45.88961" lon="4.71687">
        <ele>151.80000305176</ele>
        <time>2019-08-17T06:51:07.000Z</time>
      </trkpt>
      <trkpt lat="45.88956" lon="4.71697">
        <ele>151</ele>
        <time>2019-08-17T06:51:08.000Z</time>
      </trkpt>
      <trkpt lat="45.88951" lon="4.71707">
        <ele>150.60000610352</ele>
        <time>2019-08-17T06:51:09.000Z</time>
      </trkpt>
      <trkpt lat="45.88946" lon="4.71717">
        <ele>150.19999694824</ele>
        <time>2019-08-17T06:51:10.000Z</time>
      </trkpt>
      <trkpt lat="45.88941" lon="4.71727">
        <ele>149.80000305176</ele>
        <time>2019-08-17T06:51:11.000Z</time>
      </trkpt>
      <trkpt lat="45.88933" lon="4.71748">
        <ele>149.80000305176</ele>
        <time>2019-08-17T06:51:13.000Z</time>
      </trkpt>
      <trkpt lat="45.88919" lon="4.71788">
        <ele>149.39999389648</ele>
        <time>2019-08-17T06:51:17.000Z</time>
      </trkpt>
      <trkpt lat="45.88916" lon="4.71798">
        <ele>149</ele>
        <time>2019-08-17T06:51:18.000Z</time>
      </trkpt>
      <trkpt lat="45.88912" lon="4.71808">
        <ele>148.60000610352</ele>
        <time>2019-08-17T06:51:19.000Z</time>
      </trkpt>
      <trkpt lat="45.88909" lon="4.71818">
        <ele>148</ele>
        <time>2019-08-17T06:51:20.000Z</time>
      </trkpt>
      <trkpt lat="45.88906" lon="4.71827">
        <ele>147.60000610352</ele>
        <time>2019-08-17T06:51:21.000Z</time>
      </trkpt>
      <trkpt lat="45.88878" lon="4.71904">
        <ele>147.60000610352</ele>
        <time>2019-08-17T06:51:29.000Z</time>
      </trkpt>
      <trkpt lat="45.88868" lon="4.71932">
        <ele>147.60000610352</ele>
        <time>2019-08-17T06:51:32.000Z</time>
      </trkpt>
      <trkpt lat="45.88853" lon="4.71983">
        <ele>147.60000610352</ele>
        <time>2019-08-17T06:51:38.000Z</time>
      </trkpt>
      <trkpt lat="45.88851" lon="4.7199">
        <ele>147.19999694824</ele>
        <time>2019-08-17T06:51:39.000Z</time>
      </trkpt>
      <trkpt lat="45.8885" lon="4.71998">
        <ele>146.80000305176</ele>
        <time>2019-08-17T06:51:40.000Z</time>
      </trkpt>
      <trkpt lat="45.88848" lon="4.72005">
        <ele>146.39999389648</ele>
        <time>2019-08-17T06:51:41.000Z</time>
      </trkpt>
      <trkpt lat="45.88847" lon="4.72012">
        <ele>146</ele>
        <time>2019-08-17T06:51:42.000Z</time>
      </trkpt>
      <trkpt lat="45.88846" lon="4.7202">
        <ele>145.60000610352</ele>
        <time>2019-08-17T06:51:43.000Z</time>
      </trkpt>
      <trkpt lat="45.88841" lon="4.72043">
        <ele>145.60000610352</ele>
        <time>2019-08-17T06:51:46.000Z</time>
      </trkpt>
      <trkpt lat="45.88828" lon="4.72119">
        <ele>145.60000610352</ele>
        <time>2019-08-17T06:51:55.000Z</time>
      </trkpt>
      <trkpt lat="45.88818" lon="4.72178">
        <ele>145.60000610352</ele>
        <time>2019-08-17T06:52:02.000Z</time>
      </trkpt>
      <trkpt lat="45.88807" lon="4.72242">
        <ele>145.60000610352</ele>
        <time>2019-08-17T06:52:10.000Z</time>
      </trkpt>
      <trkpt lat="45.88806" lon="4.72249">
        <ele>145.60000610352</ele>
        <time>2019-08-17T06:52:11.000Z</time>
      </trkpt>
      <trkpt lat="45.888" lon="4.72281">
        <ele>145.60000610352</ele>
        <time>2019-08-17T06:52:15.000Z</time>
      </trkpt>
      <trkpt lat="45.88784" lon="4.72333">
        <ele>145.60000610352</ele>
        <time>2019-08-17T06:52:22.000Z</time>
      </trkpt>
      <trkpt lat="45.88757" lon="4.72388">
        <ele>145.60000610352</ele>
        <time>2019-08-17T06:52:30.000Z</time>
      </trkpt>
      <trkpt lat="45.88729" lon="4.72448">
        <ele>145.60000610352</ele>
        <time>2019-08-17T06:52:39.000Z</time>
      </trkpt>
      <trkpt lat="45.88727" lon="4.72455">
        <ele>145.60000610352</ele>
        <time>2019-08-17T06:52:40.000Z</time>
      </trkpt>
      <trkpt lat="45.88722" lon="4.72488">
        <ele>145.60000610352</ele>
        <time>2019-08-17T06:52:44.000Z</time>
      </trkpt>
      <trkpt lat="45.88723" lon="4.72505">
        <ele>145.60000610352</ele>
        <time>2019-08-17T06:52:46.000Z</time>
      </trkpt>
      <trkpt lat="45.88726" lon="4.72521">
        <ele>145.60000610352</ele>
        <time>2019-08-17T06:52:48.000Z</time>
      </trkpt>
      <trkpt lat="45.88738" lon="4.72577">
        <ele>145.60000610352</ele>
        <time>2019-08-17T06:52:55.000Z</time>
      </trkpt>
      <trkpt lat="45.88744" lon="4.72629">
        <ele>145.60000610352</ele>
        <time>2019-08-17T06:53:01.000Z</time>
      </trkpt>
      <trkpt lat="45.88752" lon="4.72712">
        <ele>145.60000610352</ele>
        <time>2019-08-17T06:53:10.000Z</time>
      </trkpt>
      <trkpt lat="45.88756" lon="4.72782">
        <ele>145.60000610352</ele>
        <time>2019-08-17T06:53:18.000Z</time>
      </trkpt>
      <trkpt lat="45.88761" lon="4.72852">
        <ele>145.60000610352</ele>
        <time>2019-08-17T06:53:26.000Z</time>
      </trkpt>
      <trkpt lat="45.88764" lon="4.72907">
        <ele>145.60000610352</ele>
        <time>2019-08-17T06:53:33.000Z</time>
      </trkpt>
      <trkpt lat="45.88767" lon="4.72955">
        <ele>145.60000610352</ele>
        <time>2019-08-17T06:53:40.000Z</time>
      </trkpt>
      <trkpt lat="45.88768" lon="4.72962">
        <ele>145.60000610352</ele>
        <time>2019-08-17T06:53:41.000Z</time>
      </trkpt>
      <trkpt lat="45.88771" lon="4.73006">
        <ele>145.60000610352</ele>
        <time>2019-08-17T06:53:47.000Z</time>
      </trkpt>
      <trkpt lat="45.88772" lon="4.73021">
        <ele>145.60000610352</ele>
        <time>2019-08-17T06:53:49.000Z</time>
      </trkpt>
      <trkpt lat="45.88774" lon="4.73046">
        <ele>145.60000610352</ele>
        <time>2019-08-17T06:53:52.000Z</time>
      </trkpt>
      <trkpt lat="45.88779" lon="4.73115">
        <ele>145.60000610352</ele>
        <time>2019-08-17T06:54:00.000Z</time>
      </trkpt>
      <trkpt lat="45.88784" lon="4.73198">
        <ele>145.60000610352</ele>
        <time>2019-08-17T06:54:09.000Z</time>
      </trkpt>
      <trkpt lat="45.88783" lon="4.73256">
        <ele>145.60000610352</ele>
        <time>2019-08-17T06:54:16.000Z</time>
      </trkpt>
      <trkpt lat="45.88778" lon="4.73289">
        <ele>145.60000610352</ele>
        <time>2019-08-17T06:54:20.000Z</time>
      </trkpt>
      <trkpt lat="45.88776" lon="4.73297">
        <ele>145.60000610352</ele>
        <time>2019-08-17T06:54:21.000Z</time>
      </trkpt>
      <trkpt lat="45.88758" lon="4.73342">
        <ele>145.60000610352</ele>
        <time>2019-08-17T06:54:27.000Z</time>
      </trkpt>
      <trkpt lat="45.88754" lon="4.73348">
        <ele>145.60000610352</ele>
        <time>2019-08-17T06:54:28.000Z</time>
      </trkpt>
      <trkpt lat="45.88735" lon="4.73372">
        <ele>145.60000610352</ele>
        <time>2019-08-17T06:54:32.000Z</time>
      </trkpt>
      <trkpt lat="45.88698" lon="4.73421">
        <ele>145.60000610352</ele>
        <time>2019-08-17T06:54:40.000Z</time>
      </trkpt>
      <trkpt lat="45.8867" lon="4.73464">
        <ele>145.60000610352</ele>
        <time>2019-08-17T06:54:47.000Z</time>
      </trkpt>
      <trkpt lat="45.88666" lon="4.73469">
        <ele>145.60000610352</ele>
        <time>2019-08-17T06:54:48.000Z</time>
      </trkpt>
      <trkpt lat="45.88655" lon="4.73476">
        <ele>145.60000610352</ele>
        <time>2019-08-17T06:54:51.000Z</time>
      </trkpt>
      <trkpt lat="45.88651" lon="4.73478">
        <ele>145.60000610352</ele>
        <time>2019-08-17T06:54:52.000Z</time>
      </trkpt>
      <trkpt lat="45.88646" lon="4.7348">
        <ele>145.60000610352</ele>
        <time>2019-08-17T06:54:53.000Z</time>
      </trkpt>
      <trkpt lat="45.88641" lon="4.7349">
        <ele>145.60000610352</ele>
        <time>2019-08-17T06:54:55.000Z</time>
      </trkpt>
      <trkpt lat="45.88643" lon="4.73509">
        <ele>145.60000610352</ele>
        <time>2019-08-17T06:54:58.000Z</time>
      </trkpt>
      <trkpt lat="45.88645" lon="4.73533">
        <ele>145.60000610352</ele>
        <time>2019-08-17T06:55:02.000Z</time>
      </trkpt>
      <trkpt lat="45.88645" lon="4.73539">
        <ele>146</ele>
        <time>2019-08-17T06:55:03.000Z</time>
      </trkpt>
      <trkpt lat="45.88646" lon="4.73545">
        <ele>146.39999389648</ele>
        <time>2019-08-17T06:55:04.000Z</time>
      </trkpt>
      <trkpt lat="45.88645" lon="4.73551">
        <ele>147</ele>
        <time>2019-08-17T06:55:05.000Z</time>
      </trkpt>
      <trkpt lat="45.88645" lon="4.73557">
        <ele>147.39999389648</ele>
        <time>2019-08-17T06:55:06.000Z</time>
      </trkpt>
      <trkpt lat="45.88645" lon="4.73562">
        <ele>147.80000305176</ele>
        <time>2019-08-17T06:55:07.000Z</time>
      </trkpt>
      <trkpt lat="45.88645" lon="4.73574">
        <ele>147.80000305176</ele>
        <time>2019-08-17T06:55:09.000Z</time>
      </trkpt>
      <trkpt lat="45.88645" lon="4.73592">
        <ele>148.39999389648</ele>
        <time>2019-08-17T06:55:12.000Z</time>
      </trkpt>
      <trkpt lat="45.88645" lon="4.73598">
        <ele>148.80000305176</ele>
        <time>2019-08-17T06:55:13.000Z</time>
      </trkpt>
      <trkpt lat="45.88645" lon="4.73604">
        <ele>149.60000610352</ele>
        <time>2019-08-17T06:55:14.000Z</time>
      </trkpt>
      <trkpt lat="45.88645" lon="4.7361">
        <ele>150</ele>
        <time>2019-08-17T06:55:15.000Z</time>
      </trkpt>
      <trkpt lat="45.88645" lon="4.73624">
        <ele>150</ele>
        <time>2019-08-17T06:55:17.000Z</time>
      </trkpt>
      <trkpt lat="45.88644" lon="4.73657">
        <ele>150.39999389648</ele>
        <time>2019-08-17T06:55:22.000Z</time>
      </trkpt>
      <trkpt lat="45.88644" lon="4.73664">
        <ele>151</ele>
        <time>2019-08-17T06:55:23.000Z</time>
      </trkpt>
      <trkpt lat="45.88644" lon="4.73671">
        <ele>151.39999389648</ele>
        <time>2019-08-17T06:55:24.000Z</time>
      </trkpt>
      <trkpt lat="45.88644" lon="4.73678">
        <ele>151.80000305176</ele>
        <time>2019-08-17T06:55:25.000Z</time>
      </trkpt>
      <trkpt lat="45.88644" lon="4.73685">
        <ele>152.19999694824</ele>
        <time>2019-08-17T06:55:26.000Z</time>
      </trkpt>
      <trkpt lat="45.88643" lon="4.7375">
        <ele>152.19999694824</ele>
        <time>2019-08-17T06:55:34.000Z</time>
      </trkpt>
      <trkpt lat="45.88642" lon="4.73789">
        <ele>151.39999389648</ele>
        <time>2019-08-17T06:55:38.000Z</time>
      </trkpt>
      <trkpt lat="45.88642" lon="4.73799">
        <ele>150.80000305176</ele>
        <time>2019-08-17T06:55:39.000Z</time>
      </trkpt>
      <trkpt lat="45.88642" lon="4.73809">
        <ele>150.39999389648</ele>
        <time>2019-08-17T06:55:40.000Z</time>
      </trkpt>
      <trkpt lat="45.88641" lon="4.7382">
        <ele>150</ele>
        <time>2019-08-17T06:55:41.000Z</time>
      </trkpt>
      <trkpt lat="45.8864" lon="4.73841">
        <ele>149.60000610352</ele>
        <time>2019-08-17T06:55:43.000Z</time>
      </trkpt>
      <trkpt lat="45.8864" lon="4.73851">
        <ele>149.19999694824</ele>
        <time>2019-08-17T06:55:44.000Z</time>
      </trkpt>
      <trkpt lat="45.8864" lon="4.73861">
        <ele>148.80000305176</ele>
        <time>2019-08-17T06:55:45.000Z</time>
      </trkpt>
      <trkpt lat="45.8864" lon="4.73872">
        <ele>148.39999389648</ele>
        <time>2019-08-17T06:55:46.000Z</time>
      </trkpt>
      <trkpt lat="45.8864" lon="4.73882">
        <ele>148</ele>
        <time>2019-08-17T06:55:47.000Z</time>
      </trkpt>
      <trkpt lat="45.8864" lon="4.73911">
        <ele>148</ele>
        <time>2019-08-17T06:55:50.000Z</time>
      </trkpt>
      <trkpt lat="45.88646" lon="4.73986">
        <ele>148</ele>
        <time>2019-08-17T06:55:58.000Z</time>
      </trkpt>
      <trkpt lat="45.88656" lon="4.74039">
        <ele>148</ele>
        <time>2019-08-17T06:56:04.000Z</time>
      </trkpt>
      <trkpt lat="45.88661" lon="4.74065">
        <ele>148</ele>
        <time>2019-08-17T06:56:07.000Z</time>
      </trkpt>
      <trkpt lat="45.88668" lon="4.74089">
        <ele>148</ele>
        <time>2019-08-17T06:56:10.000Z</time>
      </trkpt>
      <trkpt lat="45.88681" lon="4.7413">
        <ele>148</ele>
        <time>2019-08-17T06:56:16.000Z</time>
      </trkpt>
      <trkpt lat="45.88695" lon="4.74186">
        <ele>148</ele>
        <time>2019-08-17T06:56:23.000Z</time>
      </trkpt>
      <trkpt lat="45.88702" lon="4.7425">
        <ele>148</ele>
        <time>2019-08-17T06:56:31.000Z</time>
      </trkpt>
      <trkpt lat="45.88702" lon="4.74301">
        <ele>148</ele>
        <time>2019-08-17T06:56:38.000Z</time>
      </trkpt>
      <trkpt lat="45.88701" lon="4.74325">
        <ele>148</ele>
        <time>2019-08-17T06:56:43.000Z</time>
      </trkpt>
      <trkpt lat="45.88702" lon="4.74346">
        <ele>148</ele>
        <time>2019-08-17T06:56:50.000Z</time>
      </trkpt>
      <trkpt lat="45.88702" lon="4.74348">
        <ele>148</ele>
        <time>2019-08-17T06:56:51.000Z</time>
      </trkpt>
      <trkpt lat="45.88702" lon="4.74349">
        <ele>148</ele>
        <time>2019-08-17T06:56:53.000Z</time>
      </trkpt>
      <trkpt lat="45.88703" lon="4.74351">
        <ele>148</ele>
        <time>2019-08-17T06:57:03.000Z</time>
      </trkpt>
      <trkpt lat="45.88701" lon="4.74365">
        <ele>148.39999389648</ele>
        <time>2019-08-17T06:57:07.000Z</time>
      </trkpt>
      <trkpt lat="45.887" lon="4.7437">
        <ele>148.80000305176</ele>
        <time>2019-08-17T06:57:08.000Z</time>
      </trkpt>
      <trkpt lat="45.887" lon="4.74375">
        <ele>149.19999694824</ele>
        <time>2019-08-17T06:57:09.000Z</time>
      </trkpt>
      <trkpt lat="45.887" lon="4.74381">
        <ele>149.60000610352</ele>
        <time>2019-08-17T06:57:10.000Z</time>
      </trkpt>
      <trkpt lat="45.88701" lon="4.74387">
        <ele>150</ele>
        <time>2019-08-17T06:57:11.000Z</time>
      </trkpt>
      <trkpt lat="45.88708" lon="4.74438">
        <ele>150</ele>
        <time>2019-08-17T06:57:19.000Z</time>
      </trkpt>
      <trkpt lat="45.88713" lon="4.74498">
        <ele>150</ele>
        <time>2019-08-17T06:57:28.000Z</time>
      </trkpt>
      <trkpt lat="45.88718" lon="4.74549">
        <ele>150</ele>
        <time>2019-08-17T06:57:36.000Z</time>
      </trkpt>
      <trkpt lat="45.8872" lon="4.74567">
        <ele>150</ele>
        <time>2019-08-17T06:57:39.000Z</time>
      </trkpt>
      <trkpt lat="45.88721" lon="4.74573">
        <ele>150.60000610352</ele>
        <time>2019-08-17T06:57:40.000Z</time>
      </trkpt>
      <trkpt lat="45.88721" lon="4.74579">
        <ele>151</ele>
        <time>2019-08-17T06:57:41.000Z</time>
      </trkpt>
      <trkpt lat="45.88722" lon="4.74586">
        <ele>151.80000305176</ele>
        <time>2019-08-17T06:57:42.000Z</time>
      </trkpt>
      <trkpt lat="45.88722" lon="4.74592">
        <ele>152.19999694824</ele>
        <time>2019-08-17T06:57:43.000Z</time>
      </trkpt>
      <trkpt lat="45.88719" lon="4.74621">
        <ele>152.19999694824</ele>
        <time>2019-08-17T06:57:48.000Z</time>
      </trkpt>
      <trkpt lat="45.88716" lon="4.74643">
        <ele>152.60000610352</ele>
        <time>2019-08-17T06:57:52.000Z</time>
      </trkpt>
      <trkpt lat="45.88715" lon="4.74648">
        <ele>153</ele>
        <time>2019-08-17T06:57:53.000Z</time>
      </trkpt>
      <trkpt lat="45.88713" lon="4.74653">
        <ele>153.39999389648</ele>
        <time>2019-08-17T06:57:54.000Z</time>
      </trkpt>
      <trkpt lat="45.88712" lon="4.74659">
        <ele>153.80000305176</ele>
        <time>2019-08-17T06:57:55.000Z</time>
      </trkpt>
      <trkpt lat="45.88711" lon="4.74664">
        <ele>154.19999694824</ele>
        <time>2019-08-17T06:57:56.000Z</time>
      </trkpt>
      <trkpt lat="45.88707" lon="4.74696">
        <ele>154.19999694824</ele>
        <time>2019-08-17T06:58:02.000Z</time>
      </trkpt>
      <trkpt lat="45.88703" lon="4.74718">
        <ele>155</ele>
        <time>2019-08-17T06:58:06.000Z</time>
      </trkpt>
      <trkpt lat="45.88702" lon="4.74723">
        <ele>155.39999389648</ele>
        <time>2019-08-17T06:58:07.000Z</time>
      </trkpt>
      <trkpt lat="45.88701" lon="4.74728">
        <ele>155.80000305176</ele>
        <time>2019-08-17T06:58:08.000Z</time>
      </trkpt>
      <trkpt lat="45.887" lon="4.74733">
        <ele>156.39999389648</ele>
        <time>2019-08-17T06:58:09.000Z</time>
      </trkpt>
      <trkpt lat="45.88695" lon="4.7477">
        <ele>156.39999389648</ele>
        <time>2019-08-17T06:58:16.000Z</time>
      </trkpt>
      <trkpt lat="45.88694" lon="4.74781">
        <ele>156.80000305176</ele>
        <time>2019-08-17T06:58:18.000Z</time>
      </trkpt>
      <trkpt lat="45.88693" lon="4.74785">
        <ele>157.19999694824</ele>
        <time>2019-08-17T06:58:19.000Z</time>
      </trkpt>
      <trkpt lat="45.88693" lon="4.74791">
        <ele>157.60000610352</ele>
        <time>2019-08-17T06:58:20.000Z</time>
      </trkpt>
      <trkpt lat="45.88693" lon="4.74796">
        <ele>158</ele>
        <time>2019-08-17T06:58:21.000Z</time>
      </trkpt>
      <trkpt lat="45.88692" lon="4.74801">
        <ele>158.39999389648</ele>
        <time>2019-08-17T06:58:22.000Z</time>
      </trkpt>
      <trkpt lat="45.88692" lon="4.74806">
        <ele>158.39999389648</ele>
        <time>2019-08-17T06:58:23.000Z</time>
      </trkpt>
      <trkpt lat="45.88685" lon="4.74853">
        <ele>158.80000305176</ele>
        <time>2019-08-17T06:58:32.000Z</time>
      </trkpt>
      <trkpt lat="45.88684" lon="4.74859">
        <ele>159.19999694824</ele>
        <time>2019-08-17T06:58:33.000Z</time>
      </trkpt>
      <trkpt lat="45.88682" lon="4.74864">
        <ele>159.60000610352</ele>
        <time>2019-08-17T06:58:34.000Z</time>
      </trkpt>
      <trkpt lat="45.88681" lon="4.7487">
        <ele>160</ele>
        <time>2019-08-17T06:58:35.000Z</time>
      </trkpt>
      <trkpt lat="45.88679" lon="4.74875">
        <ele>160.39999389648</ele>
        <time>2019-08-17T06:58:36.000Z</time>
      </trkpt>
      <trkpt lat="45.88673" lon="4.74898">
        <ele>160.39999389648</ele>
        <time>2019-08-17T06:58:40.000Z</time>
      </trkpt>
      <trkpt lat="45.88671" lon="4.74904">
        <ele>160.39999389648</ele>
        <time>2019-08-17T06:58:41.000Z</time>
      </trkpt>
      <trkpt lat="45.88659" lon="4.7492">
        <ele>160.39999389648</ele>
        <time>2019-08-17T06:58:45.000Z</time>
      </trkpt>
      <trkpt lat="45.88655" lon="4.74923">
        <ele>160.39999389648</ele>
        <time>2019-08-17T06:58:46.000Z</time>
      </trkpt>
      <trkpt lat="45.88648" lon="4.7493">
        <ele>160.39999389648</ele>
        <time>2019-08-17T06:58:48.000Z</time>
      </trkpt>
      <trkpt lat="45.88642" lon="4.74939">
        <ele>160.39999389648</ele>
        <time>2019-08-17T06:58:50.000Z</time>
      </trkpt>
      <trkpt lat="45.88639" lon="4.74944">
        <ele>160.39999389648</ele>
        <time>2019-08-17T06:58:51.000Z</time>
      </trkpt>
      <trkpt lat="45.88637" lon="4.7495">
        <ele>160.39999389648</ele>
        <time>2019-08-17T06:58:52.000Z</time>
      </trkpt>
      <trkpt lat="45.88632" lon="4.74969">
        <ele>160.39999389648</ele>
        <time>2019-08-17T06:58:55.000Z</time>
      </trkpt>
      <trkpt lat="45.8863" lon="4.74976">
        <ele>160.80000305176</ele>
        <time>2019-08-17T06:58:56.000Z</time>
      </trkpt>
      <trkpt lat="45.88629" lon="4.74983">
        <ele>161.19999694824</ele>
        <time>2019-08-17T06:58:57.000Z</time>
      </trkpt>
      <trkpt lat="45.88627" lon="4.7499">
        <ele>161.60000610352</ele>
        <time>2019-08-17T06:58:58.000Z</time>
      </trkpt>
      <trkpt lat="45.88626" lon="4.74997">
        <ele>162</ele>
        <time>2019-08-17T06:58:59.000Z</time>
      </trkpt>
      <trkpt lat="45.88624" lon="4.75003">
        <ele>162.60000610352</ele>
        <time>2019-08-17T06:59:00.000Z</time>
      </trkpt>
      <trkpt lat="45.88623" lon="4.7501">
        <ele>162.60000610352</ele>
        <time>2019-08-17T06:59:01.000Z</time>
      </trkpt>
      <trkpt lat="45.88621" lon="4.75024">
        <ele>162.60000610352</ele>
        <time>2019-08-17T06:59:03.000Z</time>
      </trkpt>
      <trkpt lat="45.88611" lon="4.75072">
        <ele>162.60000610352</ele>
        <time>2019-08-17T06:59:10.000Z</time>
      </trkpt>
      <trkpt lat="45.88608" lon="4.75078">
        <ele>162.60000610352</ele>
        <time>2019-08-17T06:59:11.000Z</time>
      </trkpt>
      <trkpt lat="45.88597" lon="4.75094">
        <ele>162.60000610352</ele>
        <time>2019-08-17T06:59:14.000Z</time>
      </trkpt>
      <trkpt lat="45.88588" lon="4.75104">
        <ele>162.60000610352</ele>
        <time>2019-08-17T06:59:16.000Z</time>
      </trkpt>
      <trkpt lat="45.88568" lon="4.75129">
        <ele>162.60000610352</ele>
        <time>2019-08-17T06:59:21.000Z</time>
      </trkpt>
      <trkpt lat="45.88564" lon="4.75134">
        <ele>162.60000610352</ele>
        <time>2019-08-17T06:59:22.000Z</time>
      </trkpt>
      <trkpt lat="45.88551" lon="4.75155">
        <ele>162.60000610352</ele>
        <time>2019-08-17T06:59:26.000Z</time>
      </trkpt>
      <trkpt lat="45.88544" lon="4.75167">
        <ele>162.60000610352</ele>
        <time>2019-08-17T06:59:28.000Z</time>
      </trkpt>
      <trkpt lat="45.88516" lon="4.75227">
        <ele>162.60000610352</ele>
        <time>2019-08-17T06:59:37.000Z</time>
      </trkpt>
      <trkpt lat="45.88498" lon="4.75247">
        <ele>162.60000610352</ele>
        <time>2019-08-17T06:59:41.000Z</time>
      </trkpt>
      <trkpt lat="45.88492" lon="4.75251">
        <ele>162.60000610352</ele>
        <time>2019-08-17T06:59:42.000Z</time>
      </trkpt>
      <trkpt lat="45.8846" lon="4.75268">
        <ele>162.60000610352</ele>
        <time>2019-08-17T06:59:48.000Z</time>
      </trkpt>
      <trkpt lat="45.88424" lon="4.75294">
        <ele>162.60000610352</ele>
        <time>2019-08-17T06:59:55.000Z</time>
      </trkpt>
      <trkpt lat="45.88409" lon="4.75319">
        <ele>162.60000610352</ele>
        <time>2019-08-17T06:59:59.000Z</time>
      </trkpt>
      <trkpt lat="45.88406" lon="4.75325">
        <ele>162.60000610352</ele>
        <time>2019-08-17T07:00:00.000Z</time>
      </trkpt>
      <trkpt lat="45.88387" lon="4.75364">
        <ele>162.60000610352</ele>
        <time>2019-08-17T07:00:06.000Z</time>
      </trkpt>
      <trkpt lat="45.88384" lon="4.7537">
        <ele>162.60000610352</ele>
        <time>2019-08-17T07:00:07.000Z</time>
      </trkpt>
      <trkpt lat="45.8838" lon="4.75387">
        <ele>162.60000610352</ele>
        <time>2019-08-17T07:00:10.000Z</time>
      </trkpt>
      <trkpt lat="45.88372" lon="4.75427">
        <ele>162.60000610352</ele>
        <time>2019-08-17T07:00:16.000Z</time>
      </trkpt>
      <trkpt lat="45.88371" lon="4.75434">
        <ele>162.60000610352</ele>
        <time>2019-08-17T07:00:17.000Z</time>
      </trkpt>
      <trkpt lat="45.88366" lon="4.75464">
        <ele>162.60000610352</ele>
        <time>2019-08-17T07:00:21.000Z</time>
      </trkpt>
      <trkpt lat="45.88364" lon="4.75479">
        <ele>162.60000610352</ele>
        <time>2019-08-17T07:00:23.000Z</time>
      </trkpt>
      <trkpt lat="45.88364" lon="4.75486">
        <ele>162.60000610352</ele>
        <time>2019-08-17T07:00:24.000Z</time>
      </trkpt>
      <trkpt lat="45.88362" lon="4.75516">
        <ele>162.60000610352</ele>
        <time>2019-08-17T07:00:28.000Z</time>
      </trkpt>
      <trkpt lat="45.88362" lon="4.75524">
        <ele>162.60000610352</ele>
        <time>2019-08-17T07:00:29.000Z</time>
      </trkpt>
      <trkpt lat="45.88362" lon="4.75554">
        <ele>162.60000610352</ele>
        <time>2019-08-17T07:00:33.000Z</time>
      </trkpt>
      <trkpt lat="45.88362" lon="4.75607">
        <ele>162.60000610352</ele>
        <time>2019-08-17T07:00:40.000Z</time>
      </trkpt>
      <trkpt lat="45.8836" lon="4.75665">
        <ele>162.60000610352</ele>
        <time>2019-08-17T07:00:48.000Z</time>
      </trkpt>
      <trkpt lat="45.88352" lon="4.75714">
        <ele>162.60000610352</ele>
        <time>2019-08-17T07:00:55.000Z</time>
      </trkpt>
      <trkpt lat="45.88346" lon="4.7574">
        <ele>163</ele>
        <time>2019-08-17T07:00:59.000Z</time>
      </trkpt>
      <trkpt lat="45.88345" lon="4.75747">
        <ele>163.80000305176</ele>
        <time>2019-08-17T07:01:00.000Z</time>
      </trkpt>
      <trkpt lat="45.88344" lon="4.75754">
        <ele>164.19999694824</ele>
        <time>2019-08-17T07:01:01.000Z</time>
      </trkpt>
      <trkpt lat="45.88343" lon="4.75761">
        <ele>164.60000610352</ele>
        <time>2019-08-17T07:01:02.000Z</time>
      </trkpt>
      <trkpt lat="45.88339" lon="4.75804">
        <ele>164.60000610352</ele>
        <time>2019-08-17T07:01:08.000Z</time>
      </trkpt>
      <trkpt lat="45.88337" lon="4.75839">
        <ele>164.60000610352</ele>
        <time>2019-08-17T07:01:13.000Z</time>
      </trkpt>
      <trkpt lat="45.88337" lon="4.75854">
        <ele>164.60000610352</ele>
        <time>2019-08-17T07:01:15.000Z</time>
      </trkpt>
      <trkpt lat="45.88331" lon="4.75896">
        <ele>164.60000610352</ele>
        <time>2019-08-17T07:01:21.000Z</time>
      </trkpt>
      <trkpt lat="45.8832" lon="4.75942">
        <ele>164.60000610352</ele>
        <time>2019-08-17T07:01:28.000Z</time>
      </trkpt>
      <trkpt lat="45.88313" lon="4.75962">
        <ele>165</ele>
        <time>2019-08-17T07:01:31.000Z</time>
      </trkpt>
      <trkpt lat="45.88311" lon="4.75968">
        <ele>165.39999389648</ele>
        <time>2019-08-17T07:01:32.000Z</time>
      </trkpt>
      <trkpt lat="45.88309" lon="4.75973">
        <ele>165.80000305176</ele>
        <time>2019-08-17T07:01:33.000Z</time>
      </trkpt>
      <trkpt lat="45.88307" lon="4.75979">
        <ele>166.19999694824</ele>
        <time>2019-08-17T07:01:34.000Z</time>
      </trkpt>
      <trkpt lat="45.88305" lon="4.75985">
        <ele>166.60000610352</ele>
        <time>2019-08-17T07:01:35.000Z</time>
      </trkpt>
      <trkpt lat="45.88303" lon="4.75991">
        <ele>166.60000610352</ele>
        <time>2019-08-17T07:01:36.000Z</time>
      </trkpt>
      <trkpt lat="45.88294" lon="4.76032">
        <ele>166.60000610352</ele>
        <time>2019-08-17T07:01:43.000Z</time>
      </trkpt>
      <trkpt lat="45.8829" lon="4.76063">
        <ele>167</ele>
        <time>2019-08-17T07:01:48.000Z</time>
      </trkpt>
      <trkpt lat="45.8829" lon="4.76069">
        <ele>167.80000305176</ele>
        <time>2019-08-17T07:01:49.000Z</time>
      </trkpt>
      <trkpt lat="45.88289" lon="4.76076">
        <ele>168.19999694824</ele>
        <time>2019-08-17T07:01:50.000Z</time>
      </trkpt>
      <trkpt lat="45.88289" lon="4.76082">
        <ele>168.60000610352</ele>
        <time>2019-08-17T07:01:51.000Z</time>
      </trkpt>
      <trkpt lat="45.88287" lon="4.76124">
        <ele>169</ele>
        <time>2019-08-17T07:01:58.000Z</time>
      </trkpt>
      <trkpt lat="45.88287" lon="4.76129">
        <ele>169.39999389648</ele>
        <time>2019-08-17T07:01:59.000Z</time>
      </trkpt>
      <trkpt lat="45.88287" lon="4.76136">
        <ele>169.80000305176</ele>
        <time>2019-08-17T07:02:00.000Z</time>
      </trkpt>
      <trkpt lat="45.88287" lon="4.76142">
        <ele>170.39999389648</ele>
        <time>2019-08-17T07:02:01.000Z</time>
      </trkpt>
      <trkpt lat="45.88286" lon="4.76149">
        <ele>170.80000305176</ele>
        <time>2019-08-17T07:02:02.000Z</time>
      </trkpt>
      <trkpt lat="45.88285" lon="4.7618">
        <ele>170.80000305176</ele>
        <time>2019-08-17T07:02:07.000Z</time>
      </trkpt>
      <trkpt lat="45.88282" lon="4.76223">
        <ele>171.19999694824</ele>
        <time>2019-08-17T07:02:14.000Z</time>
      </trkpt>
      <trkpt lat="45.88281" lon="4.76229">
        <ele>171.60000610352</ele>
        <time>2019-08-17T07:02:15.000Z</time>
      </trkpt>
      <trkpt lat="45.88281" lon="4.76236">
        <ele>172</ele>
        <time>2019-08-17T07:02:16.000Z</time>
      </trkpt>
      <trkpt lat="45.8828" lon="4.76242">
        <ele>172.39999389648</ele>
        <time>2019-08-17T07:02:17.000Z</time>
      </trkpt>
      <trkpt lat="45.88279" lon="4.76248">
        <ele>172.80000305176</ele>
        <time>2019-08-17T07:02:18.000Z</time>
      </trkpt>
      <trkpt lat="45.88272" lon="4.76297">
        <ele>172.80000305176</ele>
        <time>2019-08-17T07:02:26.000Z</time>
      </trkpt>
      <trkpt lat="45.88263" lon="4.76333">
        <ele>172.80000305176</ele>
        <time>2019-08-17T07:02:32.000Z</time>
      </trkpt>
      <trkpt lat="45.88259" lon="4.76345">
        <ele>172.80000305176</ele>
        <time>2019-08-17T07:02:34.000Z</time>
      </trkpt>
      <trkpt lat="45.88257" lon="4.76351">
        <ele>173.19999694824</ele>
        <time>2019-08-17T07:02:35.000Z</time>
      </trkpt>
      <trkpt lat="45.88255" lon="4.76357">
        <ele>173.60000610352</ele>
        <time>2019-08-17T07:02:36.000Z</time>
      </trkpt>
      <trkpt lat="45.88252" lon="4.76363">
        <ele>174</ele>
        <time>2019-08-17T07:02:37.000Z</time>
      </trkpt>
      <trkpt lat="45.8825" lon="4.76369">
        <ele>174.39999389648</ele>
        <time>2019-08-17T07:02:38.000Z</time>
      </trkpt>
      <trkpt lat="45.88248" lon="4.76375">
        <ele>175</ele>
        <time>2019-08-17T07:02:39.000Z</time>
      </trkpt>
      <trkpt lat="45.88243" lon="4.76388">
        <ele>175</ele>
        <time>2019-08-17T07:02:41.000Z</time>
      </trkpt>
      <trkpt lat="45.88226" lon="4.76434">
        <ele>175</ele>
        <time>2019-08-17T07:02:48.000Z</time>
      </trkpt>
      <trkpt lat="45.88207" lon="4.76485">
        <ele>175</ele>
        <time>2019-08-17T07:02:56.000Z</time>
      </trkpt>
      <trkpt lat="45.88191" lon="4.76538">
        <ele>175</ele>
        <time>2019-08-17T07:03:03.000Z</time>
      </trkpt>
      <trkpt lat="45.88184" lon="4.7656">
        <ele>175</ele>
        <time>2019-08-17T07:03:06.000Z</time>
      </trkpt>
      <trkpt lat="45.88176" lon="4.7659">
        <ele>175</ele>
        <time>2019-08-17T07:03:10.000Z</time>
      </trkpt>
      <trkpt lat="45.8817" lon="4.76607">
        <ele>175</ele>
        <time>2019-08-17T07:03:13.000Z</time>
      </trkpt>
      <trkpt lat="45.88165" lon="4.76619">
        <ele>175</ele>
        <time>2019-08-17T07:03:15.000Z</time>
      </trkpt>
      <trkpt lat="45.88156" lon="4.76641">
        <ele>175</ele>
        <time>2019-08-17T07:03:18.000Z</time>
      </trkpt>
      <trkpt lat="45.88151" lon="4.76655">
        <ele>175</ele>
        <time>2019-08-17T07:03:20.000Z</time>
      </trkpt>
      <trkpt lat="45.88131" lon="4.76703">
        <ele>175</ele>
        <time>2019-08-17T07:03:27.000Z</time>
      </trkpt>
      <trkpt lat="45.88112" lon="4.76742">
        <ele>175</ele>
        <time>2019-08-17T07:03:33.000Z</time>
      </trkpt>
      <trkpt lat="45.8811" lon="4.7675">
        <ele>175</ele>
        <time>2019-08-17T07:03:34.000Z</time>
      </trkpt>
      <trkpt lat="45.88106" lon="4.76796">
        <ele>175</ele>
        <time>2019-08-17T07:03:39.000Z</time>
      </trkpt>
      <trkpt lat="45.88102" lon="4.76831">
        <ele>175</ele>
        <time>2019-08-17T07:03:43.000Z</time>
      </trkpt>
      <trkpt lat="45.881" lon="4.76839">
        <ele>174.39999389648</ele>
        <time>2019-08-17T07:03:44.000Z</time>
      </trkpt>
      <trkpt lat="45.88099" lon="4.76848">
        <ele>174</ele>
        <time>2019-08-17T07:03:45.000Z</time>
      </trkpt>
      <trkpt lat="45.88098" lon="4.76856">
        <ele>173.60000610352</ele>
        <time>2019-08-17T07:03:46.000Z</time>
      </trkpt>
      <trkpt lat="45.88097" lon="4.76864">
        <ele>173.19999694824</ele>
        <time>2019-08-17T07:03:47.000Z</time>
      </trkpt>
      <trkpt lat="45.88096" lon="4.76872">
        <ele>172.80000305176</ele>
        <time>2019-08-17T07:03:48.000Z</time>
      </trkpt>
      <trkpt lat="45.88093" lon="4.76889">
        <ele>172.80000305176</ele>
        <time>2019-08-17T07:03:50.000Z</time>
      </trkpt>
      <trkpt lat="45.88091" lon="4.76904">
        <ele>172.80000305176</ele>
        <time>2019-08-17T07:03:52.000Z</time>
      </trkpt>
      <trkpt lat="45.88087" lon="4.76928">
        <ele>172.80000305176</ele>
        <time>2019-08-17T07:03:55.000Z</time>
      </trkpt>
      <trkpt lat="45.88084" lon="4.76941">
        <ele>172.80000305176</ele>
        <time>2019-08-17T07:03:57.000Z</time>
      </trkpt>
      <trkpt lat="45.88077" lon="4.7698">
        <ele>172.80000305176</ele>
        <time>2019-08-17T07:04:02.000Z</time>
      </trkpt>
      <trkpt lat="45.88071" lon="4.77007">
        <ele>172.80000305176</ele>
        <time>2019-08-17T07:04:06.000Z</time>
      </trkpt>
      <trkpt lat="45.8807" lon="4.77013">
        <ele>172.80000305176</ele>
        <time>2019-08-17T07:04:07.000Z</time>
      </trkpt>
      <trkpt lat="45.88061" lon="4.77048">
        <ele>172.80000305176</ele>
        <time>2019-08-17T07:04:12.000Z</time>
      </trkpt>
      <trkpt lat="45.88056" lon="4.77067">
        <ele>172.80000305176</ele>
        <time>2019-08-17T07:04:15.000Z</time>
      </trkpt>
      <trkpt lat="45.88052" lon="4.77081">
        <ele>172.80000305176</ele>
        <time>2019-08-17T07:04:17.000Z</time>
      </trkpt>
      <trkpt lat="45.88042" lon="4.77131">
        <ele>172.80000305176</ele>
        <time>2019-08-17T07:04:24.000Z</time>
      </trkpt>
      <trkpt lat="45.88037" lon="4.77174">
        <ele>173.19999694824</ele>
        <time>2019-08-17T07:04:30.000Z</time>
      </trkpt>
      <trkpt lat="45.88036" lon="4.77181">
        <ele>173.60000610352</ele>
        <time>2019-08-17T07:04:31.000Z</time>
      </trkpt>
      <trkpt lat="45.88036" lon="4.77188">
        <ele>174</ele>
        <time>2019-08-17T07:04:32.000Z</time>
      </trkpt>
      <trkpt lat="45.88035" lon="4.77195">
        <ele>174.39999389648</ele>
        <time>2019-08-17T07:04:33.000Z</time>
      </trkpt>
      <trkpt lat="45.88034" lon="4.77201">
        <ele>174.80000305176</ele>
        <time>2019-08-17T07:04:34.000Z</time>
      </trkpt>
      <trkpt lat="45.88032" lon="4.77207">
        <ele>174.80000305176</ele>
        <time>2019-08-17T07:04:35.000Z</time>
      </trkpt>
      <trkpt lat="45.88028" lon="4.77211">
        <ele>174.80000305176</ele>
        <time>2019-08-17T07:04:36.000Z</time>
      </trkpt>
      <trkpt lat="45.88016" lon="4.77214">
        <ele>174.80000305176</ele>
        <time>2019-08-17T07:04:39.000Z</time>
      </trkpt>
      <trkpt lat="45.87991" lon="4.77217">
        <ele>175.39999389648</ele>
        <time>2019-08-17T07:04:45.000Z</time>
      </trkpt>
      <trkpt lat="45.87987" lon="4.77217">
        <ele>175.80000305176</ele>
        <time>2019-08-17T07:04:46.000Z</time>
      </trkpt>
      <trkpt lat="45.87983" lon="4.77217">
        <ele>176.19999694824</ele>
        <time>2019-08-17T07:04:47.000Z</time>
      </trkpt>
      <trkpt lat="45.87979" lon="4.77217">
        <ele>176.80000305176</ele>
        <time>2019-08-17T07:04:48.000Z</time>
      </trkpt>
      <trkpt lat="45.87975" lon="4.77217">
        <ele>177.19999694824</ele>
        <time>2019-08-17T07:04:49.000Z</time>
      </trkpt>
      <trkpt lat="45.87968" lon="4.77217">
        <ele>177.19999694824</ele>
        <time>2019-08-17T07:04:51.000Z</time>
      </trkpt>
      <trkpt lat="45.87945" lon="4.77217">
        <ele>177.19999694824</ele>
        <time>2019-08-17T07:04:57.000Z</time>
      </trkpt>
      <trkpt lat="45.87923" lon="4.77217">
        <ele>177.60000610352</ele>
        <time>2019-08-17T07:05:03.000Z</time>
      </trkpt>
      <trkpt lat="45.87919" lon="4.77218">
        <ele>178</ele>
        <time>2019-08-17T07:05:04.000Z</time>
      </trkpt>
      <trkpt lat="45.87916" lon="4.77217">
        <ele>178.39999389648</ele>
        <time>2019-08-17T07:05:05.000Z</time>
      </trkpt>
      <trkpt lat="45.87912" lon="4.77217">
        <ele>179.19999694824</ele>
        <time>2019-08-17T07:05:06.000Z</time>
      </trkpt>
      <trkpt lat="45.8789" lon="4.77217">
        <ele>179.19999694824</ele>
        <time>2019-08-17T07:05:12.000Z</time>
      </trkpt>
      <trkpt lat="45.87858" lon="4.7722">
        <ele>179.19999694824</ele>
        <time>2019-08-17T07:05:20.000Z</time>
      </trkpt>
      <trkpt lat="45.87829" lon="4.77224">
        <ele>179.19999694824</ele>
        <time>2019-08-17T07:05:27.000Z</time>
      </trkpt>
      <trkpt lat="45.87818" lon="4.77226">
        <ele>179.60000610352</ele>
        <time>2019-08-17T07:05:30.000Z</time>
      </trkpt>
      <trkpt lat="45.87814" lon="4.77227">
        <ele>180.39999389648</ele>
        <time>2019-08-17T07:05:31.000Z</time>
      </trkpt>
      <trkpt lat="45.8781" lon="4.77228">
        <ele>180.80000305176</ele>
        <time>2019-08-17T07:05:32.000Z</time>
      </trkpt>
      <trkpt lat="45.87806" lon="4.77229">
        <ele>181.19999694824</ele>
        <time>2019-08-17T07:05:33.000Z</time>
      </trkpt>
      <trkpt lat="45.87802" lon="4.77229">
        <ele>181.19999694824</ele>
        <time>2019-08-17T07:05:34.000Z</time>
      </trkpt>
      <trkpt lat="45.87774" lon="4.77234">
        <ele>181.19999694824</ele>
        <time>2019-08-17T07:05:41.000Z</time>
      </trkpt>
      <trkpt lat="45.87763" lon="4.77237">
        <ele>181.19999694824</ele>
        <time>2019-08-17T07:05:44.000Z</time>
      </trkpt>
      <trkpt lat="45.87754" lon="4.77237">
        <ele>181.19999694824</ele>
        <time>2019-08-17T07:05:46.000Z</time>
      </trkpt>
      <trkpt lat="45.8775" lon="4.77238">
        <ele>181.19999694824</ele>
        <time>2019-08-17T07:05:47.000Z</time>
      </trkpt>
      <trkpt lat="45.87728" lon="4.77242">
        <ele>181.19999694824</ele>
        <time>2019-08-17T07:05:52.000Z</time>
      </trkpt>
      <trkpt lat="45.87691" lon="4.77247">
        <ele>181.19999694824</ele>
        <time>2019-08-17T07:06:00.000Z</time>
      </trkpt>
      <trkpt lat="45.87683" lon="4.77248">
        <ele>181.60000610352</ele>
        <time>2019-08-17T07:06:02.000Z</time>
      </trkpt>
      <trkpt lat="45.87679" lon="4.77248">
        <ele>182.19999694824</ele>
        <time>2019-08-17T07:06:03.000Z</time>
      </trkpt>
      <trkpt lat="45.87674" lon="4.77249">
        <ele>182.60000610352</ele>
        <time>2019-08-17T07:06:04.000Z</time>
      </trkpt>
      <trkpt lat="45.8767" lon="4.77249">
        <ele>183</ele>
        <time>2019-08-17T07:06:05.000Z</time>
      </trkpt>
      <trkpt lat="45.87666" lon="4.77251">
        <ele>183.39999389648</ele>
        <time>2019-08-17T07:06:06.000Z</time>
      </trkpt>
      <trkpt lat="45.87661" lon="4.77252">
        <ele>183.39999389648</ele>
        <time>2019-08-17T07:06:07.000Z</time>
      </trkpt>
      <trkpt lat="45.87624" lon="4.77262">
        <ele>183.39999389648</ele>
        <time>2019-08-17T07:06:16.000Z</time>
      </trkpt>
      <trkpt lat="45.8762" lon="4.77262">
        <ele>183.39999389648</ele>
        <time>2019-08-17T07:06:17.000Z</time>
      </trkpt>
      <trkpt lat="45.87608" lon="4.77263">
        <ele>184.19999694824</ele>
        <time>2019-08-17T07:06:20.000Z</time>
      </trkpt>
      <trkpt lat="45.87604" lon="4.77264">
        <ele>184.60000610352</ele>
        <time>2019-08-17T07:06:21.000Z</time>
      </trkpt>
      <trkpt lat="45.87601" lon="4.77264">
        <ele>185</ele>
        <time>2019-08-17T07:06:22.000Z</time>
      </trkpt>
      <trkpt lat="45.87598" lon="4.77265">
        <ele>185.39999389648</ele>
        <time>2019-08-17T07:06:23.000Z</time>
      </trkpt>
      <trkpt lat="45.8758" lon="4.77268">
        <ele>185.39999389648</ele>
        <time>2019-08-17T07:06:28.000Z</time>
      </trkpt>
      <trkpt lat="45.87559" lon="4.77257">
        <ele>185.39999389648</ele>
        <time>2019-08-17T07:06:34.000Z</time>
      </trkpt>
      <trkpt lat="45.87548" lon="4.77245">
        <ele>185.39999389648</ele>
        <time>2019-08-17T07:06:38.000Z</time>
      </trkpt>
      <trkpt lat="45.87547" lon="4.7724">
        <ele>185.39999389648</ele>
        <time>2019-08-17T07:06:39.000Z</time>
      </trkpt>
      <trkpt lat="45.87546" lon="4.77223">
        <ele>185.39999389648</ele>
        <time>2019-08-17T07:06:42.000Z</time>
      </trkpt>
      <trkpt lat="45.87545" lon="4.77218">
        <ele>185.80000305176</ele>
        <time>2019-08-17T07:06:43.000Z</time>
      </trkpt>
      <trkpt lat="45.87546" lon="4.77212">
        <ele>186.19999694824</ele>
        <time>2019-08-17T07:06:44.000Z</time>
      </trkpt>
      <trkpt lat="45.87545" lon="4.77207">
        <ele>187</ele>
        <time>2019-08-17T07:06:45.000Z</time>
      </trkpt>
      <trkpt lat="45.87545" lon="4.77201">
        <ele>187.39999389648</ele>
        <time>2019-08-17T07:06:46.000Z</time>
      </trkpt>
      <trkpt lat="45.87541" lon="4.77179">
        <ele>187.39999389648</ele>
        <time>2019-08-17T07:06:50.000Z</time>
      </trkpt>
      <trkpt lat="45.87532" lon="4.77151">
        <ele>187.39999389648</ele>
        <time>2019-08-17T07:06:56.000Z</time>
      </trkpt>
      <trkpt lat="45.87521" lon="4.77131">
        <ele>187.39999389648</ele>
        <time>2019-08-17T07:07:01.000Z</time>
      </trkpt>
      <trkpt lat="45.87508" lon="4.77131">
        <ele>187.39999389648</ele>
        <time>2019-08-17T07:07:05.000Z</time>
      </trkpt>
      <trkpt lat="45.87487" lon="4.77139">
        <ele>187.39999389648</ele>
        <time>2019-08-17T07:07:11.000Z</time>
      </trkpt>
      <trkpt lat="45.8746" lon="4.77151">
        <ele>187.80000305176</ele>
        <time>2019-08-17T07:07:19.000Z</time>
      </trkpt>
      <trkpt lat="45.87457" lon="4.77153">
        <ele>188.19999694824</ele>
        <time>2019-08-17T07:07:20.000Z</time>
      </trkpt>
      <trkpt lat="45.87452" lon="4.77154">
        <ele>188.60000610352</ele>
        <time>2019-08-17T07:07:21.000Z</time>
      </trkpt>
      <trkpt lat="45.87448" lon="4.77155">
        <ele>189.19999694824</ele>
        <time>2019-08-17T07:07:22.000Z</time>
      </trkpt>
      <trkpt lat="45.87444" lon="4.77157">
        <ele>189.60000610352</ele>
        <time>2019-08-17T07:07:23.000Z</time>
      </trkpt>
      <trkpt lat="45.87432" lon="4.77163">
        <ele>189.60000610352</ele>
        <time>2019-08-17T07:07:26.000Z</time>
      </trkpt>
      <trkpt lat="45.87414" lon="4.7717">
        <ele>189.60000610352</ele>
        <time>2019-08-17T07:07:31.000Z</time>
      </trkpt>
      <trkpt lat="45.87401" lon="4.77175">
        <ele>190</ele>
        <time>2019-08-17T07:07:35.000Z</time>
      </trkpt>
      <trkpt lat="45.87398" lon="4.77175">
        <ele>190.39999389648</ele>
        <time>2019-08-17T07:07:36.000Z</time>
      </trkpt>
      <trkpt lat="45.87397" lon="4.77174">
        <ele>190.80000305176</ele>
        <time>2019-08-17T07:07:37.000Z</time>
      </trkpt>
      <trkpt lat="45.87395" lon="4.77171">
        <ele>191.19999694824</ele>
        <time>2019-08-17T07:07:38.000Z</time>
      </trkpt>
      <trkpt lat="45.87395" lon="4.77167">
        <ele>191.60000610352</ele>
        <time>2019-08-17T07:07:39.000Z</time>
      </trkpt>
      <trkpt lat="45.87395" lon="4.77137">
        <ele>191.60000610352</ele>
        <time>2019-08-17T07:07:46.000Z</time>
      </trkpt>
      <trkpt lat="45.87396" lon="4.77127">
        <ele>191.60000610352</ele>
        <time>2019-08-17T07:07:51.000Z</time>
      </trkpt>
      <trkpt lat="45.87396" lon="4.77126">
        <ele>191.60000610352</ele>
        <time>2019-08-17T07:07:59.000Z</time>
      </trkpt>
      <trkpt lat="45.87395" lon="4.77125">
        <ele>191.60000610352</ele>
        <time>2019-08-17T07:08:01.000Z</time>
      </trkpt>
      <trkpt lat="45.87395" lon="4.77124">
        <ele>191.60000610352</ele>
        <time>2019-08-17T07:13:40.000Z</time>
      </trkpt>
      <trkpt lat="45.87395" lon="4.77125">
        <ele>191.60000610352</ele>
        <time>2019-08-17T07:13:41.000Z</time>
      </trkpt>
      <trkpt lat="45.87395" lon="4.77131">
        <ele>191.60000610352</ele>
        <time>2019-08-17T07:16:11.000Z</time>
      </trkpt>
      <trkpt lat="45.87395" lon="4.77132">
        <ele>191.60000610352</ele>
        <time>2019-08-17T07:16:13.000Z</time>
      </trkpt>
      <trkpt lat="45.87394" lon="4.77133">
        <ele>191.60000610352</ele>
        <time>2019-08-17T07:18:07.000Z</time>
      </trkpt>
      <trkpt lat="45.87396" lon="4.77135">
        <ele>191.60000610352</ele>
        <time>2019-08-17T07:18:09.000Z</time>
      </trkpt>
      <trkpt lat="45.87396" lon="4.77133">
        <ele>191.60000610352</ele>
        <time>2019-08-17T07:18:11.000Z</time>
      </trkpt>
      <trkpt lat="45.87393" lon="4.77126">
        <ele>191.60000610352</ele>
        <time>2019-08-17T07:18:17.000Z</time>
      </trkpt>
      <trkpt lat="45.87393" lon="4.77126">
        <ele>191.60000610352</ele>
        <time>2019-08-17T07:18:19.000Z</time>
      </trkpt>
      <trkpt lat="45.87392" lon="4.77125">
        <ele>191.60000610352</ele>
        <time>2019-08-17T07:18:22.000Z</time>
      </trkpt>
      <trkpt lat="45.87392" lon="4.77124">
        <ele>191.60000610352</ele>
        <time>2019-08-17T07:18:24.000Z</time>
      </trkpt>
      <trkpt lat="45.87393" lon="4.77123">
        <ele>191.60000610352</ele>
        <time>2019-08-17T07:18:30.000Z</time>
      </trkpt>
      <trkpt lat="45.87393" lon="4.77123">
        <ele>191.60000610352</ele>
        <time>2019-08-17T07:18:32.000Z</time>
      </trkpt>
      <trkpt lat="45.87392" lon="4.77128">
        <ele>191.60000610352</ele>
        <time>2019-08-17T07:18:49.000Z</time>
      </trkpt>
      <trkpt lat="45.87391" lon="4.77129">
        <ele>191.60000610352</ele>
        <time>2019-08-17T07:18:50.000Z</time>
      </trkpt>
      <trkpt lat="45.87389" lon="4.77137">
        <ele>191.60000610352</ele>
        <time>2019-08-17T07:18:55.000Z</time>
      </trkpt>
      <trkpt lat="45.8739" lon="4.77142">
        <ele>191.60000610352</ele>
        <time>2019-08-17T07:18:56.000Z</time>
      </trkpt>
      <trkpt lat="45.87393" lon="4.77169">
        <ele>191.60000610352</ele>
        <time>2019-08-17T07:19:02.000Z</time>
      </trkpt>
      <trkpt lat="45.8739" lon="4.77192">
        <ele>191.60000610352</ele>
        <time>2019-08-17T07:19:07.000Z</time>
      </trkpt>
      <trkpt lat="45.87385" lon="4.77202">
        <ele>192</ele>
        <time>2019-08-17T07:19:10.000Z</time>
      </trkpt>
      <trkpt lat="45.87384" lon="4.77207">
        <ele>192.60000610352</ele>
        <time>2019-08-17T07:19:11.000Z</time>
      </trkpt>
      <trkpt lat="45.87384" lon="4.77212">
        <ele>193</ele>
        <time>2019-08-17T07:19:12.000Z</time>
      </trkpt>
      <trkpt lat="45.87386" lon="4.77216">
        <ele>193.39999389648</ele>
        <time>2019-08-17T07:19:13.000Z</time>
      </trkpt>
      <trkpt lat="45.87388" lon="4.77219">
        <ele>193.80000305176</ele>
        <time>2019-08-17T07:19:14.000Z</time>
      </trkpt>
      <trkpt lat="45.87391" lon="4.77222">
        <ele>193.80000305176</ele>
        <time>2019-08-17T07:19:15.000Z</time>
      </trkpt>
      <trkpt lat="45.87397" lon="4.77241">
        <ele>193.80000305176</ele>
        <time>2019-08-17T07:19:19.000Z</time>
      </trkpt>
      <trkpt lat="45.87402" lon="4.77273">
        <ele>193.80000305176</ele>
        <time>2019-08-17T07:19:25.000Z</time>
      </trkpt>
      <trkpt lat="45.87403" lon="4.77293">
        <ele>193.80000305176</ele>
        <time>2019-08-17T07:19:29.000Z</time>
      </trkpt>
      <trkpt lat="45.87409" lon="4.77328">
        <ele>193.80000305176</ele>
        <time>2019-08-17T07:19:35.000Z</time>
      </trkpt>
      <trkpt lat="45.8741" lon="4.77333">
        <ele>193.80000305176</ele>
        <time>2019-08-17T07:19:36.000Z</time>
      </trkpt>
      <trkpt lat="45.87415" lon="4.77356">
        <ele>193.80000305176</ele>
        <time>2019-08-17T07:19:40.000Z</time>
      </trkpt>
      <trkpt lat="45.87417" lon="4.77368">
        <ele>193.80000305176</ele>
        <time>2019-08-17T07:19:42.000Z</time>
      </trkpt>
      <trkpt lat="45.87419" lon="4.77405">
        <ele>193.80000305176</ele>
        <time>2019-08-17T07:19:50.000Z</time>
      </trkpt>
      <trkpt lat="45.87419" lon="4.7742">
        <ele>194.19999694824</ele>
        <time>2019-08-17T07:19:53.000Z</time>
      </trkpt>
      <trkpt lat="45.87419" lon="4.77425">
        <ele>194.60000610352</ele>
        <time>2019-08-17T07:19:54.000Z</time>
      </trkpt>
      <trkpt lat="45.87419" lon="4.7743">
        <ele>195</ele>
        <time>2019-08-17T07:19:55.000Z</time>
      </trkpt>
      <trkpt lat="45.87419" lon="4.77435">
        <ele>196</ele>
        <time>2019-08-17T07:19:56.000Z</time>
      </trkpt>
      <trkpt lat="45.8742" lon="4.77451">
        <ele>196</ele>
        <time>2019-08-17T07:19:59.000Z</time>
      </trkpt>
      <trkpt lat="45.87419" lon="4.77476">
        <ele>196</ele>
        <time>2019-08-17T07:20:04.000Z</time>
      </trkpt>
      <trkpt lat="45.87425" lon="4.77512">
        <ele>196</ele>
        <time>2019-08-17T07:20:11.000Z</time>
      </trkpt>
      <trkpt lat="45.8743" lon="4.77566">
        <ele>196</ele>
        <time>2019-08-17T07:20:21.000Z</time>
      </trkpt>
      <trkpt lat="45.87438" lon="4.77604">
        <ele>196</ele>
        <time>2019-08-17T07:20:28.000Z</time>
      </trkpt>
      <trkpt lat="45.87443" lon="4.7764">
        <ele>196</ele>
        <time>2019-08-17T07:20:34.000Z</time>
      </trkpt>
      <trkpt lat="45.8745" lon="4.77686">
        <ele>196</ele>
        <time>2019-08-17T07:20:42.000Z</time>
      </trkpt>
      <trkpt lat="45.87452" lon="4.77696">
        <ele>196</ele>
        <time>2019-08-17T07:20:44.000Z</time>
      </trkpt>
      <trkpt lat="45.87456" lon="4.77714">
        <ele>196</ele>
        <time>2019-08-17T07:20:47.000Z</time>
      </trkpt>
      <trkpt lat="45.8746" lon="4.77731">
        <ele>196</ele>
        <time>2019-08-17T07:20:50.000Z</time>
      </trkpt>
      <trkpt lat="45.87466" lon="4.77755">
        <ele>196</ele>
        <time>2019-08-17T07:20:54.000Z</time>
      </trkpt>
      <trkpt lat="45.87477" lon="4.77804">
        <ele>196</ele>
        <time>2019-08-17T07:21:02.000Z</time>
      </trkpt>
      <trkpt lat="45.8748" lon="4.77846">
        <ele>196</ele>
        <time>2019-08-17T07:21:09.000Z</time>
      </trkpt>
      <trkpt lat="45.87481" lon="4.77852">
        <ele>196</ele>
        <time>2019-08-17T07:21:10.000Z</time>
      </trkpt>
      <trkpt lat="45.87485" lon="4.77897">
        <ele>196</ele>
        <time>2019-08-17T07:21:17.000Z</time>
      </trkpt>
      <trkpt lat="45.87488" lon="4.77933">
        <ele>196</ele>
        <time>2019-08-17T07:21:23.000Z</time>
      </trkpt>
      <trkpt lat="45.87496" lon="4.77969">
        <ele>196</ele>
        <time>2019-08-17T07:21:30.000Z</time>
      </trkpt>
      <trkpt lat="45.87499" lon="4.77971">
        <ele>196</ele>
        <time>2019-08-17T07:21:31.000Z</time>
      </trkpt>
      <trkpt lat="45.87507" lon="4.77969">
        <ele>196</ele>
        <time>2019-08-17T07:21:33.000Z</time>
      </trkpt>
      <trkpt lat="45.87522" lon="4.77966">
        <ele>196</ele>
        <time>2019-08-17T07:21:36.000Z</time>
      </trkpt>
      <trkpt lat="45.87531" lon="4.77965">
        <ele>196</ele>
        <time>2019-08-17T07:21:38.000Z</time>
      </trkpt>
      <trkpt lat="45.87553" lon="4.77964">
        <ele>196</ele>
        <time>2019-08-17T07:21:43.000Z</time>
      </trkpt>
      <trkpt lat="45.87557" lon="4.77966">
        <ele>196</ele>
        <time>2019-08-17T07:21:44.000Z</time>
      </trkpt>
      <trkpt lat="45.87578" lon="4.77968">
        <ele>196</ele>
        <time>2019-08-17T07:21:48.000Z</time>
      </trkpt>
      <trkpt lat="45.87584" lon="4.77968">
        <ele>196</ele>
        <time>2019-08-17T07:21:49.000Z</time>
      </trkpt>
      <trkpt lat="45.87591" lon="4.77969">
        <ele>195.60000610352</ele>
        <time>2019-08-17T07:21:50.000Z</time>
      </trkpt>
      <trkpt lat="45.87597" lon="4.77969">
        <ele>195</ele>
        <time>2019-08-17T07:21:51.000Z</time>
      </trkpt>
      <trkpt lat="45.87604" lon="4.77969">
        <ele>194.60000610352</ele>
        <time>2019-08-17T07:21:52.000Z</time>
      </trkpt>
      <trkpt lat="45.87611" lon="4.7797">
        <ele>194.19999694824</ele>
        <time>2019-08-17T07:21:53.000Z</time>
      </trkpt>
      <trkpt lat="45.87619" lon="4.77971">
        <ele>193.80000305176</ele>
        <time>2019-08-17T07:21:54.000Z</time>
      </trkpt>
      <trkpt lat="45.87626" lon="4.77972">
        <ele>193.80000305176</ele>
        <time>2019-08-17T07:21:55.000Z</time>
      </trkpt>
      <trkpt lat="45.87653" lon="4.77971">
        <ele>193.39999389648</ele>
        <time>2019-08-17T07:21:59.000Z</time>
      </trkpt>
      <trkpt lat="45.87658" lon="4.77971">
        <ele>192.39999389648</ele>
        <time>2019-08-17T07:22:00.000Z</time>
      </trkpt>
      <trkpt lat="45.87661" lon="4.7797">
        <ele>192</ele>
        <time>2019-08-17T07:22:01.000Z</time>
      </trkpt>
      <trkpt lat="45.87663" lon="4.77969">
        <ele>191.60000610352</ele>
        <time>2019-08-17T07:22:02.000Z</time>
      </trkpt>
      <trkpt lat="45.87665" lon="4.7797">
        <ele>191.60000610352</ele>
        <time>2019-08-17T07:22:03.000Z</time>
      </trkpt>
      <trkpt lat="45.87666" lon="4.77971">
        <ele>191.60000610352</ele>
        <time>2019-08-17T07:22:04.000Z</time>
      </trkpt>
      <trkpt lat="45.8767" lon="4.77986">
        <ele>191.60000610352</ele>
        <time>2019-08-17T07:22:07.000Z</time>
      </trkpt>
      <trkpt lat="45.87671" lon="4.78009">
        <ele>191.60000610352</ele>
        <time>2019-08-17T07:22:11.000Z</time>
      </trkpt>
      <trkpt lat="45.87671" lon="4.78015">
        <ele>191.60000610352</ele>
        <time>2019-08-17T07:22:12.000Z</time>
      </trkpt>
      <trkpt lat="45.87676" lon="4.78064">
        <ele>191.19999694824</ele>
        <time>2019-08-17T07:22:19.000Z</time>
      </trkpt>
      <trkpt lat="45.87676" lon="4.78071">
        <ele>190.80000305176</ele>
        <time>2019-08-17T07:22:20.000Z</time>
      </trkpt>
      <trkpt lat="45.87677" lon="4.78078">
        <ele>190.39999389648</ele>
        <time>2019-08-17T07:22:21.000Z</time>
      </trkpt>
      <trkpt lat="45.87678" lon="4.78086">
        <ele>190</ele>
        <time>2019-08-17T07:22:22.000Z</time>
      </trkpt>
      <trkpt lat="45.87678" lon="4.78093">
        <ele>189.60000610352</ele>
        <time>2019-08-17T07:22:23.000Z</time>
      </trkpt>
      <trkpt lat="45.87682" lon="4.78125">
        <ele>189.60000610352</ele>
        <time>2019-08-17T07:22:27.000Z</time>
      </trkpt>
      <trkpt lat="45.87695" lon="4.78179">
        <ele>189.60000610352</ele>
        <time>2019-08-17T07:22:34.000Z</time>
      </trkpt>
      <trkpt lat="45.87712" lon="4.78231">
        <ele>189.60000610352</ele>
        <time>2019-08-17T07:22:41.000Z</time>
      </trkpt>
      <trkpt lat="45.8772" lon="4.78253">
        <ele>189.19999694824</ele>
        <time>2019-08-17T07:22:44.000Z</time>
      </trkpt>
      <trkpt lat="45.87723" lon="4.7826">
        <ele>188.60000610352</ele>
        <time>2019-08-17T07:22:45.000Z</time>
      </trkpt>
      <trkpt lat="45.87726" lon="4.78267">
        <ele>188.19999694824</ele>
        <time>2019-08-17T07:22:46.000Z</time>
      </trkpt>
      <trkpt lat="45.8773" lon="4.78275">
        <ele>187.80000305176</ele>
        <time>2019-08-17T07:22:47.000Z</time>
      </trkpt>
      <trkpt lat="45.87733" lon="4.78283">
        <ele>187.39999389648</ele>
        <time>2019-08-17T07:22:48.000Z</time>
      </trkpt>
      <trkpt lat="45.87736" lon="4.78291">
        <ele>187.39999389648</ele>
        <time>2019-08-17T07:22:49.000Z</time>
      </trkpt>
      <trkpt lat="45.87762" lon="4.78349">
        <ele>187.39999389648</ele>
        <time>2019-08-17T07:22:57.000Z</time>
      </trkpt>
      <trkpt lat="45.87786" lon="4.78407">
        <ele>187.39999389648</ele>
        <time>2019-08-17T07:23:05.000Z</time>
      </trkpt>
      <trkpt lat="45.87807" lon="4.78465">
        <ele>187</ele>
        <time>2019-08-17T07:23:13.000Z</time>
      </trkpt>
      <trkpt lat="45.87808" lon="4.78472">
        <ele>186.60000610352</ele>
        <time>2019-08-17T07:23:14.000Z</time>
      </trkpt>
      <trkpt lat="45.8781" lon="4.7848">
        <ele>185.80000305176</ele>
        <time>2019-08-17T07:23:15.000Z</time>
      </trkpt>
      <trkpt lat="45.87811" lon="4.78487">
        <ele>185.39999389648</ele>
        <time>2019-08-17T07:23:16.000Z</time>
      </trkpt>
      <trkpt lat="45.87817" lon="4.78514">
        <ele>185.39999389648</ele>
        <time>2019-08-17T07:23:20.000Z</time>
      </trkpt>
      <trkpt lat="45.87828" lon="4.7857">
        <ele>185.39999389648</ele>
        <time>2019-08-17T07:23:28.000Z</time>
      </trkpt>
      <trkpt lat="45.87839" lon="4.7864">
        <ele>185.39999389648</ele>
        <time>2019-08-17T07:23:38.000Z</time>
      </trkpt>
      <trkpt lat="45.87848" lon="4.78713">
        <ele>185.39999389648</ele>
        <time>2019-08-17T07:23:48.000Z</time>
      </trkpt>
      <trkpt lat="45.8785" lon="4.78765">
        <ele>185.39999389648</ele>
        <time>2019-08-17T07:23:55.000Z</time>
      </trkpt>
      <trkpt lat="45.87849" lon="4.78823">
        <ele>185.39999389648</ele>
        <time>2019-08-17T07:24:03.000Z</time>
      </trkpt>
      <trkpt lat="45.87844" lon="4.78884">
        <ele>185.39999389648</ele>
        <time>2019-08-17T07:24:12.000Z</time>
      </trkpt>
      <trkpt lat="45.87841" lon="4.78903">
        <ele>185.80000305176</ele>
        <time>2019-08-17T07:24:15.000Z</time>
      </trkpt>
      <trkpt lat="45.8784" lon="4.7891">
        <ele>186.19999694824</ele>
        <time>2019-08-17T07:24:16.000Z</time>
      </trkpt>
      <trkpt lat="45.87839" lon="4.78915">
        <ele>186.60000610352</ele>
        <time>2019-08-17T07:24:17.000Z</time>
      </trkpt>
      <trkpt lat="45.87837" lon="4.78921">
        <ele>187</ele>
        <time>2019-08-17T07:24:18.000Z</time>
      </trkpt>
      <trkpt lat="45.87837" lon="4.78929">
        <ele>187.39999389648</ele>
        <time>2019-08-17T07:24:19.000Z</time>
      </trkpt>
      <trkpt lat="45.87835" lon="4.78974">
        <ele>187.39999389648</ele>
        <time>2019-08-17T07:24:26.000Z</time>
      </trkpt>
      <trkpt lat="45.8784" lon="4.79003">
        <ele>187.39999389648</ele>
        <time>2019-08-17T07:24:31.000Z</time>
      </trkpt>
      <trkpt lat="45.87841" lon="4.7901">
        <ele>187.39999389648</ele>
        <time>2019-08-17T07:24:32.000Z</time>
      </trkpt>
      <trkpt lat="45.87842" lon="4.79017">
        <ele>187.80000305176</ele>
        <time>2019-08-17T07:24:33.000Z</time>
      </trkpt>
      <trkpt lat="45.87843" lon="4.79023">
        <ele>188.19999694824</ele>
        <time>2019-08-17T07:24:34.000Z</time>
      </trkpt>
      <trkpt lat="45.87844" lon="4.79029">
        <ele>188.60000610352</ele>
        <time>2019-08-17T07:24:35.000Z</time>
      </trkpt>
      <trkpt lat="45.87844" lon="4.79035">
        <ele>189</ele>
        <time>2019-08-17T07:24:36.000Z</time>
      </trkpt>
      <trkpt lat="45.87845" lon="4.79041">
        <ele>189.39999389648</ele>
        <time>2019-08-17T07:24:37.000Z</time>
      </trkpt>
      <trkpt lat="45.87846" lon="4.79045">
        <ele>189.39999389648</ele>
        <time>2019-08-17T07:24:38.000Z</time>
      </trkpt>
      <trkpt lat="45.87847" lon="4.79062">
        <ele>189.39999389648</ele>
        <time>2019-08-17T07:24:41.000Z</time>
      </trkpt>
      <trkpt lat="45.87848" lon="4.79072">
        <ele>189.39999389648</ele>
        <time>2019-08-17T07:24:43.000Z</time>
      </trkpt>
      <trkpt lat="45.87851" lon="4.79094">
        <ele>189.39999389648</ele>
        <time>2019-08-17T07:24:47.000Z</time>
      </trkpt>
      <trkpt lat="45.87853" lon="4.79104">
        <ele>190</ele>
        <time>2019-08-17T07:24:49.000Z</time>
      </trkpt>
      <trkpt lat="45.87854" lon="4.7911">
        <ele>190.39999389648</ele>
        <time>2019-08-17T07:24:50.000Z</time>
      </trkpt>
      <trkpt lat="45.87854" lon="4.79115">
        <ele>190.80000305176</ele>
        <time>2019-08-17T07:24:51.000Z</time>
      </trkpt>
      <trkpt lat="45.87855" lon="4.7912">
        <ele>191.19999694824</ele>
        <time>2019-08-17T07:24:52.000Z</time>
      </trkpt>
      <trkpt lat="45.87856" lon="4.79125">
        <ele>191.60000610352</ele>
        <time>2019-08-17T07:24:53.000Z</time>
      </trkpt>
      <trkpt lat="45.87861" lon="4.79158">
        <ele>191.60000610352</ele>
        <time>2019-08-17T07:24:59.000Z</time>
      </trkpt>
      <trkpt lat="45.87864" lon="4.79179">
        <ele>192</ele>
        <time>2019-08-17T07:25:03.000Z</time>
      </trkpt>
      <trkpt lat="45.87865" lon="4.79184">
        <ele>192.39999389648</ele>
        <time>2019-08-17T07:25:04.000Z</time>
      </trkpt>
      <trkpt lat="45.87865" lon="4.7919">
        <ele>193</ele>
        <time>2019-08-17T07:25:05.000Z</time>
      </trkpt>
      <trkpt lat="45.87866" lon="4.79195">
        <ele>193.39999389648</ele>
        <time>2019-08-17T07:25:06.000Z</time>
      </trkpt>
      <trkpt lat="45.87867" lon="4.79201">
        <ele>193.80000305176</ele>
        <time>2019-08-17T07:25:07.000Z</time>
      </trkpt>
      <trkpt lat="45.87875" lon="4.79259">
        <ele>193.80000305176</ele>
        <time>2019-08-17T07:25:17.000Z</time>
      </trkpt>
      <trkpt lat="45.87876" lon="4.79265">
        <ele>194.60000610352</ele>
        <time>2019-08-17T07:25:18.000Z</time>
      </trkpt>
      <trkpt lat="45.87877" lon="4.7927">
        <ele>195</ele>
        <time>2019-08-17T07:25:19.000Z</time>
      </trkpt>
      <trkpt lat="45.87878" lon="4.79276">
        <ele>195.60000610352</ele>
        <time>2019-08-17T07:25:20.000Z</time>
      </trkpt>
      <trkpt lat="45.87879" lon="4.79282">
        <ele>196</ele>
        <time>2019-08-17T07:25:21.000Z</time>
      </trkpt>
      <trkpt lat="45.87882" lon="4.79299">
        <ele>196</ele>
        <time>2019-08-17T07:25:24.000Z</time>
      </trkpt>
      <trkpt lat="45.87882" lon="4.79306">
        <ele>196</ele>
        <time>2019-08-17T07:25:25.000Z</time>
      </trkpt>
      <trkpt lat="45.87886" lon="4.79338">
        <ele>196.39999389648</ele>
        <time>2019-08-17T07:25:30.000Z</time>
      </trkpt>
      <trkpt lat="45.87887" lon="4.79345">
        <ele>196.80000305176</ele>
        <time>2019-08-17T07:25:31.000Z</time>
      </trkpt>
      <trkpt lat="45.87888" lon="4.79351">
        <ele>197.19999694824</ele>
        <time>2019-08-17T07:25:32.000Z</time>
      </trkpt>
      <trkpt lat="45.87888" lon="4.79358">
        <ele>197.60000610352</ele>
        <time>2019-08-17T07:25:33.000Z</time>
      </trkpt>
      <trkpt lat="45.87889" lon="4.79364">
        <ele>198</ele>
        <time>2019-08-17T07:25:34.000Z</time>
      </trkpt>
      <trkpt lat="45.87894" lon="4.7939">
        <ele>198</ele>
        <time>2019-08-17T07:25:38.000Z</time>
      </trkpt>
      <trkpt lat="45.87896" lon="4.79402">
        <ele>198.39999389648</ele>
        <time>2019-08-17T07:25:40.000Z</time>
      </trkpt>
      <trkpt lat="45.87897" lon="4.79408">
        <ele>199</ele>
        <time>2019-08-17T07:25:41.000Z</time>
      </trkpt>
      <trkpt lat="45.87898" lon="4.79414">
        <ele>199.80000305176</ele>
        <time>2019-08-17T07:25:42.000Z</time>
      </trkpt>
      <trkpt lat="45.87899" lon="4.79421">
        <ele>200.19999694824</ele>
        <time>2019-08-17T07:25:43.000Z</time>
      </trkpt>
      <trkpt lat="45.87901" lon="4.79432">
        <ele>200.19999694824</ele>
        <time>2019-08-17T07:25:45.000Z</time>
      </trkpt>
      <trkpt lat="45.87909" lon="4.79472">
        <ele>200.60000610352</ele>
        <time>2019-08-17T07:25:52.000Z</time>
      </trkpt>
      <trkpt lat="45.8791" lon="4.79477">
        <ele>201</ele>
        <time>2019-08-17T07:25:53.000Z</time>
      </trkpt>
      <trkpt lat="45.87912" lon="4.79482">
        <ele>201.60000610352</ele>
        <time>2019-08-17T07:25:54.000Z</time>
      </trkpt>
      <trkpt lat="45.87913" lon="4.79488">
        <ele>202</ele>
        <time>2019-08-17T07:25:55.000Z</time>
      </trkpt>
      <trkpt lat="45.87915" lon="4.79494">
        <ele>202.39999389648</ele>
        <time>2019-08-17T07:25:56.000Z</time>
      </trkpt>
      <trkpt lat="45.87919" lon="4.79512">
        <ele>202.39999389648</ele>
        <time>2019-08-17T07:25:59.000Z</time>
      </trkpt>
      <trkpt lat="45.87921" lon="4.79525">
        <ele>202.39999389648</ele>
        <time>2019-08-17T07:26:01.000Z</time>
      </trkpt>
      <trkpt lat="45.87923" lon="4.79532">
        <ele>202.39999389648</ele>
        <time>2019-08-17T07:26:02.000Z</time>
      </trkpt>
      <trkpt lat="45.87931" lon="4.79561">
        <ele>202.39999389648</ele>
        <time>2019-08-17T07:26:06.000Z</time>
      </trkpt>
      <trkpt lat="45.87941" lon="4.79595">
        <ele>201.80000305176</ele>
        <time>2019-08-17T07:26:10.000Z</time>
      </trkpt>
      <trkpt lat="45.87944" lon="4.79604">
        <ele>201.39999389648</ele>
        <time>2019-08-17T07:26:11.000Z</time>
      </trkpt>
      <trkpt lat="45.87948" lon="4.79614">
        <ele>201</ele>
        <time>2019-08-17T07:26:12.000Z</time>
      </trkpt>
      <trkpt lat="45.87953" lon="4.79623">
        <ele>200.60000610352</ele>
        <time>2019-08-17T07:26:13.000Z</time>
      </trkpt>
      <trkpt lat="45.87957" lon="4.79632">
        <ele>200.19999694824</ele>
        <time>2019-08-17T07:26:14.000Z</time>
      </trkpt>
      <trkpt lat="45.87967" lon="4.79649">
        <ele>200.19999694824</ele>
        <time>2019-08-17T07:26:16.000Z</time>
      </trkpt>
      <trkpt lat="45.87971" lon="4.79658">
        <ele>199.80000305176</ele>
        <time>2019-08-17T07:26:17.000Z</time>
      </trkpt>
      <trkpt lat="45.87975" lon="4.79667">
        <ele>199.39999389648</ele>
        <time>2019-08-17T07:26:18.000Z</time>
      </trkpt>
      <trkpt lat="45.87979" lon="4.79676">
        <ele>198.80000305176</ele>
        <time>2019-08-17T07:26:19.000Z</time>
      </trkpt>
      <trkpt lat="45.87983" lon="4.79683">
        <ele>198.39999389648</ele>
        <time>2019-08-17T07:26:20.000Z</time>
      </trkpt>
      <trkpt lat="45.87987" lon="4.79691">
        <ele>198</ele>
        <time>2019-08-17T07:26:21.000Z</time>
      </trkpt>
      <trkpt lat="45.87994" lon="4.79705">
        <ele>198</ele>
        <time>2019-08-17T07:26:23.000Z</time>
      </trkpt>
      <trkpt lat="45.88003" lon="4.79724">
        <ele>198</ele>
        <time>2019-08-17T07:26:26.000Z</time>
      </trkpt>
      <trkpt lat="45.8802" lon="4.79763">
        <ele>198</ele>
        <time>2019-08-17T07:26:33.000Z</time>
      </trkpt>
      <trkpt lat="45.88022" lon="4.79769">
        <ele>198.39999389648</ele>
        <time>2019-08-17T07:26:34.000Z</time>
      </trkpt>
      <trkpt lat="45.88023" lon="4.79775">
        <ele>199</ele>
        <time>2019-08-17T07:26:35.000Z</time>
      </trkpt>
      <trkpt lat="45.88024" lon="4.79781">
        <ele>199.39999389648</ele>
        <time>2019-08-17T07:26:36.000Z</time>
      </trkpt>
      <trkpt lat="45.88025" lon="4.79788">
        <ele>199.80000305176</ele>
        <time>2019-08-17T07:26:37.000Z</time>
      </trkpt>
      <trkpt lat="45.88025" lon="4.79794">
        <ele>200.39999389648</ele>
        <time>2019-08-17T07:26:38.000Z</time>
      </trkpt>
      <trkpt lat="45.88027" lon="4.7981">
        <ele>200.80000305176</ele>
        <time>2019-08-17T07:26:41.000Z</time>
      </trkpt>
      <trkpt lat="45.88028" lon="4.79816">
        <ele>201.19999694824</ele>
        <time>2019-08-17T07:26:42.000Z</time>
      </trkpt>
      <trkpt lat="45.88028" lon="4.79821">
        <ele>201.60000610352</ele>
        <time>2019-08-17T07:26:43.000Z</time>
      </trkpt>
      <trkpt lat="45.88028" lon="4.79825">
        <ele>202</ele>
        <time>2019-08-17T07:26:44.000Z</time>
      </trkpt>
      <trkpt lat="45.88028" lon="4.79829">
        <ele>202.39999389648</ele>
        <time>2019-08-17T07:26:45.000Z</time>
      </trkpt>
      <trkpt lat="45.88032" lon="4.79853">
        <ele>202.39999389648</ele>
        <time>2019-08-17T07:26:50.000Z</time>
      </trkpt>
      <trkpt lat="45.88028" lon="4.79862">
        <ele>203</ele>
        <time>2019-08-17T07:26:52.000Z</time>
      </trkpt>
      <trkpt lat="45.88027" lon="4.79866">
        <ele>203.39999389648</ele>
        <time>2019-08-17T07:26:53.000Z</time>
      </trkpt>
      <trkpt lat="45.88027" lon="4.7987">
        <ele>203.80000305176</ele>
        <time>2019-08-17T07:26:54.000Z</time>
      </trkpt>
      <trkpt lat="45.88026" lon="4.79874">
        <ele>204.19999694824</ele>
        <time>2019-08-17T07:26:55.000Z</time>
      </trkpt>
      <trkpt lat="45.88025" lon="4.79879">
        <ele>204.60000610352</ele>
        <time>2019-08-17T07:26:56.000Z</time>
      </trkpt>
      <trkpt lat="45.88023" lon="4.79893">
        <ele>204.60000610352</ele>
        <time>2019-08-17T07:26:59.000Z</time>
      </trkpt>
      <trkpt lat="45.8802" lon="4.79907">
        <ele>205</ele>
        <time>2019-08-17T07:27:02.000Z</time>
      </trkpt>
      <trkpt lat="45.88018" lon="4.79912">
        <ele>205.60000610352</ele>
        <time>2019-08-17T07:27:03.000Z</time>
      </trkpt>
      <trkpt lat="45.88017" lon="4.79917">
        <ele>206</ele>
        <time>2019-08-17T07:27:04.000Z</time>
      </trkpt>
      <trkpt lat="45.88016" lon="4.79921">
        <ele>206.39999389648</ele>
        <time>2019-08-17T07:27:05.000Z</time>
      </trkpt>
      <trkpt lat="45.88015" lon="4.79926">
        <ele>207</ele>
        <time>2019-08-17T07:27:06.000Z</time>
      </trkpt>
      <trkpt lat="45.88014" lon="4.79931">
        <ele>207</ele>
        <time>2019-08-17T07:27:07.000Z</time>
      </trkpt>
      <trkpt lat="45.88004" lon="4.79964">
        <ele>207</ele>
        <time>2019-08-17T07:27:14.000Z</time>
      </trkpt>
      <trkpt lat="45.88003" lon="4.79968">
        <ele>207.39999389648</ele>
        <time>2019-08-17T07:27:15.000Z</time>
      </trkpt>
      <trkpt lat="45.88002" lon="4.79973">
        <ele>207.80000305176</ele>
        <time>2019-08-17T07:27:16.000Z</time>
      </trkpt>
      <trkpt lat="45.88001" lon="4.79978">
        <ele>208.19999694824</ele>
        <time>2019-08-17T07:27:17.000Z</time>
      </trkpt>
      <trkpt lat="45.88" lon="4.79983">
        <ele>208.60000610352</ele>
        <time>2019-08-17T07:27:18.000Z</time>
      </trkpt>
      <trkpt lat="45.87999" lon="4.79989">
        <ele>209.19999694824</ele>
        <time>2019-08-17T07:27:19.000Z</time>
      </trkpt>
      <trkpt lat="45.87998" lon="4.79993">
        <ele>209.19999694824</ele>
        <time>2019-08-17T07:27:20.000Z</time>
      </trkpt>
      <trkpt lat="45.87989" lon="4.80019">
        <ele>209.60000610352</ele>
        <time>2019-08-17T07:27:26.000Z</time>
      </trkpt>
      <trkpt lat="45.87987" lon="4.80024">
        <ele>210</ele>
        <time>2019-08-17T07:27:27.000Z</time>
      </trkpt>
      <trkpt lat="45.87985" lon="4.80028">
        <ele>210.39999389648</ele>
        <time>2019-08-17T07:27:28.000Z</time>
      </trkpt>
      <trkpt lat="45.87982" lon="4.80032">
        <ele>210.80000305176</ele>
        <time>2019-08-17T07:27:29.000Z</time>
      </trkpt>
      <trkpt lat="45.87979" lon="4.80036">
        <ele>211.19999694824</ele>
        <time>2019-08-17T07:27:30.000Z</time>
      </trkpt>
      <trkpt lat="45.87967" lon="4.80055">
        <ele>211.19999694824</ele>
        <time>2019-08-17T07:27:35.000Z</time>
      </trkpt>
      <trkpt lat="45.8795" lon="4.80072">
        <ele>211.19999694824</ele>
        <time>2019-08-17T07:27:40.000Z</time>
      </trkpt>
      <trkpt lat="45.87944" lon="4.80076">
        <ele>211.60000610352</ele>
        <time>2019-08-17T07:27:42.000Z</time>
      </trkpt>
      <trkpt lat="45.8794" lon="4.80078">
        <ele>212</ele>
        <time>2019-08-17T07:27:43.000Z</time>
      </trkpt>
      <trkpt lat="45.87937" lon="4.8008">
        <ele>212.39999389648</ele>
        <time>2019-08-17T07:27:44.000Z</time>
      </trkpt>
      <trkpt lat="45.87933" lon="4.80082">
        <ele>212.80000305176</ele>
        <time>2019-08-17T07:27:45.000Z</time>
      </trkpt>
      <trkpt lat="45.87929" lon="4.80084">
        <ele>213.19999694824</ele>
        <time>2019-08-17T07:27:46.000Z</time>
      </trkpt>
      <trkpt lat="45.8791" lon="4.80099">
        <ele>213.19999694824</ele>
        <time>2019-08-17T07:27:52.000Z</time>
      </trkpt>
      <trkpt lat="45.87904" lon="4.80111">
        <ele>213.60000610352</ele>
        <time>2019-08-17T07:27:55.000Z</time>
      </trkpt>
      <trkpt lat="45.87902" lon="4.80116">
        <ele>214</ele>
        <time>2019-08-17T07:27:56.000Z</time>
      </trkpt>
      <trkpt lat="45.879" lon="4.80119">
        <ele>214.39999389648</ele>
        <time>2019-08-17T07:27:57.000Z</time>
      </trkpt>
      <trkpt lat="45.87896" lon="4.80122">
        <ele>214.80000305176</ele>
        <time>2019-08-17T07:27:58.000Z</time>
      </trkpt>
      <trkpt lat="45.87892" lon="4.80124">
        <ele>215.19999694824</ele>
        <time>2019-08-17T07:27:59.000Z</time>
      </trkpt>
      <trkpt lat="45.8788" lon="4.80139">
        <ele>215.19999694824</ele>
        <time>2019-08-17T07:28:03.000Z</time>
      </trkpt>
      <trkpt lat="45.8787" lon="4.80151">
        <ele>215.19999694824</ele>
        <time>2019-08-17T07:28:06.000Z</time>
      </trkpt>
      <trkpt lat="45.8786" lon="4.80165">
        <ele>215.19999694824</ele>
        <time>2019-08-17T07:28:09.000Z</time>
      </trkpt>
      <trkpt lat="45.87845" lon="4.80188">
        <ele>215.19999694824</ele>
        <time>2019-08-17T07:28:14.000Z</time>
      </trkpt>
      <trkpt lat="45.87838" lon="4.80199">
        <ele>215.19999694824</ele>
        <time>2019-08-17T07:28:17.000Z</time>
      </trkpt>
      <trkpt lat="45.87831" lon="4.80214">
        <ele>215.19999694824</ele>
        <time>2019-08-17T07:28:22.000Z</time>
      </trkpt>
      <trkpt lat="45.87827" lon="4.80231">
        <ele>215.19999694824</ele>
        <time>2019-08-17T07:28:27.000Z</time>
      </trkpt>
      <trkpt lat="45.87821" lon="4.8026">
        <ele>215.19999694824</ele>
        <time>2019-08-17T07:28:33.000Z</time>
      </trkpt>
      <trkpt lat="45.87815" lon="4.80294">
        <ele>215.19999694824</ele>
        <time>2019-08-17T07:28:39.000Z</time>
      </trkpt>
      <trkpt lat="45.87807" lon="4.80318">
        <ele>215.19999694824</ele>
        <time>2019-08-17T07:28:43.000Z</time>
      </trkpt>
      <trkpt lat="45.87804" lon="4.80332">
        <ele>215.19999694824</ele>
        <time>2019-08-17T07:28:45.000Z</time>
      </trkpt>
      <trkpt lat="45.87799" lon="4.80354">
        <ele>215.19999694824</ele>
        <time>2019-08-17T07:28:48.000Z</time>
      </trkpt>
      <trkpt lat="45.87795" lon="4.8036">
        <ele>215.19999694824</ele>
        <time>2019-08-17T07:28:49.000Z</time>
      </trkpt>
      <trkpt lat="45.87783" lon="4.80377">
        <ele>215.19999694824</ele>
        <time>2019-08-17T07:28:52.000Z</time>
      </trkpt>
      <trkpt lat="45.87776" lon="4.80388">
        <ele>215.19999694824</ele>
        <time>2019-08-17T07:28:54.000Z</time>
      </trkpt>
      <trkpt lat="45.87773" lon="4.80393">
        <ele>215.19999694824</ele>
        <time>2019-08-17T07:28:55.000Z</time>
      </trkpt>
      <trkpt lat="45.87753" lon="4.80424">
        <ele>215.19999694824</ele>
        <time>2019-08-17T07:29:02.000Z</time>
      </trkpt>
      <trkpt lat="45.87743" lon="4.80439">
        <ele>214.80000305176</ele>
        <time>2019-08-17T07:29:06.000Z</time>
      </trkpt>
      <trkpt lat="45.87741" lon="4.80443">
        <ele>214.39999389648</ele>
        <time>2019-08-17T07:29:07.000Z</time>
      </trkpt>
      <trkpt lat="45.87739" lon="4.80446">
        <ele>214</ele>
        <time>2019-08-17T07:29:08.000Z</time>
      </trkpt>
      <trkpt lat="45.87736" lon="4.80449">
        <ele>213.60000610352</ele>
        <time>2019-08-17T07:29:09.000Z</time>
      </trkpt>
      <trkpt lat="45.87735" lon="4.80452">
        <ele>213.19999694824</ele>
        <time>2019-08-17T07:29:10.000Z</time>
      </trkpt>
      <trkpt lat="45.87732" lon="4.80461">
        <ele>213.19999694824</ele>
        <time>2019-08-17T07:29:12.000Z</time>
      </trkpt>
      <trkpt lat="45.8772" lon="4.80473">
        <ele>213.19999694824</ele>
        <time>2019-08-17T07:29:16.000Z</time>
      </trkpt>
      <trkpt lat="45.87704" lon="4.80493">
        <ele>213.19999694824</ele>
        <time>2019-08-17T07:29:22.000Z</time>
      </trkpt>
      <trkpt lat="45.87703" lon="4.80499">
        <ele>213.19999694824</ele>
        <time>2019-08-17T07:29:23.000Z</time>
      </trkpt>
      <trkpt lat="45.87701" lon="4.80504">
        <ele>213.60000610352</ele>
        <time>2019-08-17T07:29:24.000Z</time>
      </trkpt>
      <trkpt lat="45.877" lon="4.8051">
        <ele>214.60000610352</ele>
        <time>2019-08-17T07:29:25.000Z</time>
      </trkpt>
      <trkpt lat="45.87698" lon="4.80515">
        <ele>215</ele>
        <time>2019-08-17T07:29:26.000Z</time>
      </trkpt>
      <trkpt lat="45.87695" lon="4.80521">
        <ele>215.39999389648</ele>
        <time>2019-08-17T07:29:27.000Z</time>
      </trkpt>
      <trkpt lat="45.87692" lon="4.80535">
        <ele>215.80000305176</ele>
        <time>2019-08-17T07:29:29.000Z</time>
      </trkpt>
      <trkpt lat="45.87691" lon="4.80541">
        <ele>216.19999694824</ele>
        <time>2019-08-17T07:29:30.000Z</time>
      </trkpt>
      <trkpt lat="45.87689" lon="4.80547">
        <ele>216.60000610352</ele>
        <time>2019-08-17T07:29:31.000Z</time>
      </trkpt>
      <trkpt lat="45.87688" lon="4.80552">
        <ele>217</ele>
        <time>2019-08-17T07:29:32.000Z</time>
      </trkpt>
      <trkpt lat="45.87687" lon="4.80558">
        <ele>217.60000610352</ele>
        <time>2019-08-17T07:29:33.000Z</time>
      </trkpt>
      <trkpt lat="45.87685" lon="4.80565">
        <ele>218</ele>
        <time>2019-08-17T07:29:34.000Z</time>
      </trkpt>
      <trkpt lat="45.87684" lon="4.80571">
        <ele>218.39999389648</ele>
        <time>2019-08-17T07:29:35.000Z</time>
      </trkpt>
      <trkpt lat="45.87683" lon="4.80578">
        <ele>218.80000305176</ele>
        <time>2019-08-17T07:29:36.000Z</time>
      </trkpt>
      <trkpt lat="45.87683" lon="4.80584">
        <ele>219.19999694824</ele>
        <time>2019-08-17T07:29:37.000Z</time>
      </trkpt>
      <trkpt lat="45.87682" lon="4.8059">
        <ele>219.80000305176</ele>
        <time>2019-08-17T07:29:38.000Z</time>
      </trkpt>
      <trkpt lat="45.87681" lon="4.80595">
        <ele>220.39999389648</ele>
        <time>2019-08-17T07:29:39.000Z</time>
      </trkpt>
      <trkpt lat="45.87681" lon="4.806">
        <ele>220.80000305176</ele>
        <time>2019-08-17T07:29:40.000Z</time>
      </trkpt>
      <trkpt lat="45.8768" lon="4.80604">
        <ele>221.39999389648</ele>
        <time>2019-08-17T07:29:41.000Z</time>
      </trkpt>
      <trkpt lat="45.8768" lon="4.80608">
        <ele>222</ele>
        <time>2019-08-17T07:29:42.000Z</time>
      </trkpt>
      <trkpt lat="45.87678" lon="4.80624">
        <ele>222</ele>
        <time>2019-08-17T07:29:46.000Z</time>
      </trkpt>
      <trkpt lat="45.87681" lon="4.80622">
        <ele>222</ele>
        <time>2019-08-17T07:29:49.000Z</time>
      </trkpt>
      <trkpt lat="45.8768" lon="4.80619">
        <ele>222</ele>
        <time>2019-08-17T07:29:52.000Z</time>
      </trkpt>
      <trkpt lat="45.87679" lon="4.80621">
        <ele>222</ele>
        <time>2019-08-17T07:29:54.000Z</time>
      </trkpt>
      <trkpt lat="45.87678" lon="4.80627">
        <ele>222</ele>
        <time>2019-08-17T07:29:56.000Z</time>
      </trkpt>
      <trkpt lat="45.87676" lon="4.80639">
        <ele>222.39999389648</ele>
        <time>2019-08-17T07:29:59.000Z</time>
      </trkpt>
      <trkpt lat="45.87676" lon="4.80643">
        <ele>222.80000305176</ele>
        <time>2019-08-17T07:30:00.000Z</time>
      </trkpt>
      <trkpt lat="45.87675" lon="4.80648">
        <ele>223.19999694824</ele>
        <time>2019-08-17T07:30:01.000Z</time>
      </trkpt>
      <trkpt lat="45.87675" lon="4.80652">
        <ele>223.60000610352</ele>
        <time>2019-08-17T07:30:02.000Z</time>
      </trkpt>
      <trkpt lat="45.87674" lon="4.80657">
        <ele>224</ele>
        <time>2019-08-17T07:30:03.000Z</time>
      </trkpt>
      <trkpt lat="45.8767" lon="4.8068">
        <ele>224</ele>
        <time>2019-08-17T07:30:08.000Z</time>
      </trkpt>
      <trkpt lat="45.87663" lon="4.80708">
        <ele>224</ele>
        <time>2019-08-17T07:30:14.000Z</time>
      </trkpt>
      <trkpt lat="45.87658" lon="4.80727">
        <ele>224</ele>
        <time>2019-08-17T07:30:17.000Z</time>
      </trkpt>
      <trkpt lat="45.87653" lon="4.8075">
        <ele>224</ele>
        <time>2019-08-17T07:30:20.000Z</time>
      </trkpt>
      <trkpt lat="45.87641" lon="4.80803">
        <ele>224</ele>
        <time>2019-08-17T07:30:26.000Z</time>
      </trkpt>
      <trkpt lat="45.87639" lon="4.80811">
        <ele>223.39999389648</ele>
        <time>2019-08-17T07:30:27.000Z</time>
      </trkpt>
      <trkpt lat="45.87637" lon="4.80818">
        <ele>223</ele>
        <time>2019-08-17T07:30:28.000Z</time>
      </trkpt>
      <trkpt lat="45.87636" lon="4.80824">
        <ele>222.60000610352</ele>
        <time>2019-08-17T07:30:29.000Z</time>
      </trkpt>
      <trkpt lat="45.87635" lon="4.80829">
        <ele>222</ele>
        <time>2019-08-17T07:30:30.000Z</time>
      </trkpt>
      <trkpt lat="45.87633" lon="4.80834">
        <ele>221.60000610352</ele>
        <time>2019-08-17T07:30:31.000Z</time>
      </trkpt>
      <trkpt lat="45.87625" lon="4.80856">
        <ele>221.60000610352</ele>
        <time>2019-08-17T07:30:35.000Z</time>
      </trkpt>
      <trkpt lat="45.87614" lon="4.80888">
        <ele>221.60000610352</ele>
        <time>2019-08-17T07:30:41.000Z</time>
      </trkpt>
      <trkpt lat="45.87616" lon="4.809">
        <ele>222</ele>
        <time>2019-08-17T07:30:44.000Z</time>
      </trkpt>
      <trkpt lat="45.87615" lon="4.80904">
        <ele>222.39999389648</ele>
        <time>2019-08-17T07:30:45.000Z</time>
      </trkpt>
      <trkpt lat="45.87614" lon="4.80908">
        <ele>222.80000305176</ele>
        <time>2019-08-17T07:30:46.000Z</time>
      </trkpt>
      <trkpt lat="45.87614" lon="4.80912">
        <ele>223.19999694824</ele>
        <time>2019-08-17T07:30:47.000Z</time>
      </trkpt>
      <trkpt lat="45.87613" lon="4.80917">
        <ele>223.80000305176</ele>
        <time>2019-08-17T07:30:48.000Z</time>
      </trkpt>
      <trkpt lat="45.87608" lon="4.80937">
        <ele>223.80000305176</ele>
        <time>2019-08-17T07:30:52.000Z</time>
      </trkpt>
      <trkpt lat="45.87603" lon="4.80952">
        <ele>223.80000305176</ele>
        <time>2019-08-17T07:30:55.000Z</time>
      </trkpt>
      <trkpt lat="45.87598" lon="4.80961">
        <ele>223.80000305176</ele>
        <time>2019-08-17T07:30:57.000Z</time>
      </trkpt>
      <trkpt lat="45.87584" lon="4.80988">
        <ele>223.80000305176</ele>
        <time>2019-08-17T07:31:02.000Z</time>
      </trkpt>
      <trkpt lat="45.87581" lon="4.80995">
        <ele>223.80000305176</ele>
        <time>2019-08-17T07:31:03.000Z</time>
      </trkpt>
      <trkpt lat="45.87571" lon="4.81043">
        <ele>223.80000305176</ele>
        <time>2019-08-17T07:31:09.000Z</time>
      </trkpt>
      <trkpt lat="45.87559" lon="4.81097">
        <ele>223.19999694824</ele>
        <time>2019-08-17T07:31:15.000Z</time>
      </trkpt>
      <trkpt lat="45.87556" lon="4.81107">
        <ele>222.80000305176</ele>
        <time>2019-08-17T07:31:16.000Z</time>
      </trkpt>
      <trkpt lat="45.87554" lon="4.81116">
        <ele>222.39999389648</ele>
        <time>2019-08-17T07:31:17.000Z</time>
      </trkpt>
      <trkpt lat="45.87551" lon="4.81126">
        <ele>221.80000305176</ele>
        <time>2019-08-17T07:31:18.000Z</time>
      </trkpt>
      <trkpt lat="45.87548" lon="4.81136">
        <ele>221.39999389648</ele>
        <time>2019-08-17T07:31:19.000Z</time>
      </trkpt>
      <trkpt lat="45.87546" lon="4.81146">
        <ele>220.80000305176</ele>
        <time>2019-08-17T07:31:20.000Z</time>
      </trkpt>
      <trkpt lat="45.87543" lon="4.81156">
        <ele>220.19999694824</ele>
        <time>2019-08-17T07:31:21.000Z</time>
      </trkpt>
      <trkpt lat="45.8754" lon="4.81167">
        <ele>219.39999389648</ele>
        <time>2019-08-17T07:31:22.000Z</time>
      </trkpt>
      <trkpt lat="45.87536" lon="4.81177">
        <ele>218.60000610352</ele>
        <time>2019-08-17T07:31:23.000Z</time>
      </trkpt>
      <trkpt lat="45.87533" lon="4.81189">
        <ele>218</ele>
        <time>2019-08-17T07:31:24.000Z</time>
      </trkpt>
      <trkpt lat="45.87529" lon="4.81199">
        <ele>217.19999694824</ele>
        <time>2019-08-17T07:31:25.000Z</time>
      </trkpt>
      <trkpt lat="45.87525" lon="4.8121">
        <ele>216.39999389648</ele>
        <time>2019-08-17T07:31:26.000Z</time>
      </trkpt>
      <trkpt lat="45.87521" lon="4.8122">
        <ele>215.80000305176</ele>
        <time>2019-08-17T07:31:27.000Z</time>
      </trkpt>
      <trkpt lat="45.87517" lon="4.81229">
        <ele>214.60000610352</ele>
        <time>2019-08-17T07:31:28.000Z</time>
      </trkpt>
      <trkpt lat="45.87514" lon="4.81237">
        <ele>214</ele>
        <time>2019-08-17T07:31:29.000Z</time>
      </trkpt>
      <trkpt lat="45.87512" lon="4.81245">
        <ele>213.39999389648</ele>
        <time>2019-08-17T07:31:30.000Z</time>
      </trkpt>
      <trkpt lat="45.8751" lon="4.81253">
        <ele>212.80000305176</ele>
        <time>2019-08-17T07:31:31.000Z</time>
      </trkpt>
      <trkpt lat="45.87508" lon="4.81261">
        <ele>212</ele>
        <time>2019-08-17T07:31:32.000Z</time>
      </trkpt>
      <trkpt lat="45.87507" lon="4.81268">
        <ele>211.39999389648</ele>
        <time>2019-08-17T07:31:33.000Z</time>
      </trkpt>
      <trkpt lat="45.87503" lon="4.81283">
        <ele>211.39999389648</ele>
        <time>2019-08-17T07:31:35.000Z</time>
      </trkpt>
      <trkpt lat="45.875" lon="4.81328">
        <ele>211</ele>
        <time>2019-08-17T07:31:40.000Z</time>
      </trkpt>
      <trkpt lat="45.87498" lon="4.81338">
        <ele>210.60000610352</ele>
        <time>2019-08-17T07:31:41.000Z</time>
      </trkpt>
      <trkpt lat="45.87495" lon="4.81347">
        <ele>210.19999694824</ele>
        <time>2019-08-17T07:31:42.000Z</time>
      </trkpt>
      <trkpt lat="45.87491" lon="4.81356">
        <ele>209.60000610352</ele>
        <time>2019-08-17T07:31:43.000Z</time>
      </trkpt>
      <trkpt lat="45.87485" lon="4.81365">
        <ele>209.19999694824</ele>
        <time>2019-08-17T07:31:44.000Z</time>
      </trkpt>
      <trkpt lat="45.87478" lon="4.81375">
        <ele>209.19999694824</ele>
        <time>2019-08-17T07:31:45.000Z</time>
      </trkpt>
      <trkpt lat="45.87473" lon="4.81384">
        <ele>208.80000305176</ele>
        <time>2019-08-17T07:31:46.000Z</time>
      </trkpt>
      <trkpt lat="45.87467" lon="4.81393">
        <ele>208.39999389648</ele>
        <time>2019-08-17T07:31:47.000Z</time>
      </trkpt>
      <trkpt lat="45.87461" lon="4.81402">
        <ele>208</ele>
        <time>2019-08-17T07:31:48.000Z</time>
      </trkpt>
      <trkpt lat="45.87455" lon="4.8141">
        <ele>207.39999389648</ele>
        <time>2019-08-17T07:31:49.000Z</time>
      </trkpt>
      <trkpt lat="45.87449" lon="4.81418">
        <ele>207</ele>
        <time>2019-08-17T07:31:50.000Z</time>
      </trkpt>
      <trkpt lat="45.87438" lon="4.81436">
        <ele>206.60000610352</ele>
        <time>2019-08-17T07:31:52.000Z</time>
      </trkpt>
      <trkpt lat="45.87433" lon="4.81446">
        <ele>205.80000305176</ele>
        <time>2019-08-17T07:31:53.000Z</time>
      </trkpt>
      <trkpt lat="45.87429" lon="4.81456">
        <ele>205.39999389648</ele>
        <time>2019-08-17T07:31:54.000Z</time>
      </trkpt>
      <trkpt lat="45.87424" lon="4.81466">
        <ele>205</ele>
        <time>2019-08-17T07:31:55.000Z</time>
      </trkpt>
      <trkpt lat="45.8742" lon="4.81475">
        <ele>205</ele>
        <time>2019-08-17T07:31:56.000Z</time>
      </trkpt>
      <trkpt lat="45.87409" lon="4.81504">
        <ele>204.60000610352</ele>
        <time>2019-08-17T07:31:59.000Z</time>
      </trkpt>
      <trkpt lat="45.87405" lon="4.81513">
        <ele>204</ele>
        <time>2019-08-17T07:32:00.000Z</time>
      </trkpt>
      <trkpt lat="45.87401" lon="4.81522">
        <ele>203.60000610352</ele>
        <time>2019-08-17T07:32:01.000Z</time>
      </trkpt>
      <trkpt lat="45.87398" lon="4.81532">
        <ele>203.19999694824</ele>
        <time>2019-08-17T07:32:02.000Z</time>
      </trkpt>
      <trkpt lat="45.87394" lon="4.81541">
        <ele>202.80000305176</ele>
        <time>2019-08-17T07:32:03.000Z</time>
      </trkpt>
      <trkpt lat="45.8738" lon="4.8159">
        <ele>202.80000305176</ele>
        <time>2019-08-17T07:32:08.000Z</time>
      </trkpt>
      <trkpt lat="45.87378" lon="4.816">
        <ele>202.39999389648</ele>
        <time>2019-08-17T07:32:09.000Z</time>
      </trkpt>
      <trkpt lat="45.87375" lon="4.81612">
        <ele>201.80000305176</ele>
        <time>2019-08-17T07:32:10.000Z</time>
      </trkpt>
      <trkpt lat="45.87372" lon="4.81622">
        <ele>201.39999389648</ele>
        <time>2019-08-17T07:32:11.000Z</time>
      </trkpt>
      <trkpt lat="45.87369" lon="4.81632">
        <ele>201</ele>
        <time>2019-08-17T07:32:12.000Z</time>
      </trkpt>
      <trkpt lat="45.87366" lon="4.81641">
        <ele>200.39999389648</ele>
        <time>2019-08-17T07:32:13.000Z</time>
      </trkpt>
      <trkpt lat="45.87363" lon="4.81649">
        <ele>200.39999389648</ele>
        <time>2019-08-17T07:32:14.000Z</time>
      </trkpt>
      <trkpt lat="45.8736" lon="4.81657">
        <ele>200</ele>
        <time>2019-08-17T07:32:15.000Z</time>
      </trkpt>
      <trkpt lat="45.87357" lon="4.81665">
        <ele>199.39999389648</ele>
        <time>2019-08-17T07:32:16.000Z</time>
      </trkpt>
      <trkpt lat="45.87354" lon="4.81672">
        <ele>199</ele>
        <time>2019-08-17T07:32:17.000Z</time>
      </trkpt>
      <trkpt lat="45.87351" lon="4.8168">
        <ele>198</ele>
        <time>2019-08-17T07:32:18.000Z</time>
      </trkpt>
      <trkpt lat="45.87348" lon="4.81688">
        <ele>198</ele>
        <time>2019-08-17T07:32:19.000Z</time>
      </trkpt>
      <trkpt lat="45.87343" lon="4.81704">
        <ele>198</ele>
        <time>2019-08-17T07:32:21.000Z</time>
      </trkpt>
      <trkpt lat="45.87341" lon="4.81712">
        <ele>197.60000610352</ele>
        <time>2019-08-17T07:32:22.000Z</time>
      </trkpt>
      <trkpt lat="45.87339" lon="4.8172">
        <ele>197.19999694824</ele>
        <time>2019-08-17T07:32:23.000Z</time>
      </trkpt>
      <trkpt lat="45.87337" lon="4.81728">
        <ele>196.80000305176</ele>
        <time>2019-08-17T07:32:24.000Z</time>
      </trkpt>
      <trkpt lat="45.87335" lon="4.81737">
        <ele>196.39999389648</ele>
        <time>2019-08-17T07:32:25.000Z</time>
      </trkpt>
      <trkpt lat="45.87333" lon="4.81745">
        <ele>196</ele>
        <time>2019-08-17T07:32:26.000Z</time>
      </trkpt>
      <trkpt lat="45.87331" lon="4.81753">
        <ele>196</ele>
        <time>2019-08-17T07:32:27.000Z</time>
      </trkpt>
      <trkpt lat="45.87329" lon="4.81761">
        <ele>196</ele>
        <time>2019-08-17T07:32:28.000Z</time>
      </trkpt>
      <trkpt lat="45.87312" lon="4.81818">
        <ele>196</ele>
        <time>2019-08-17T07:32:35.000Z</time>
      </trkpt>
      <trkpt lat="45.87305" lon="4.81844">
        <ele>195.60000610352</ele>
        <time>2019-08-17T07:32:38.000Z</time>
      </trkpt>
      <trkpt lat="45.87304" lon="4.81853">
        <ele>195.19999694824</ele>
        <time>2019-08-17T07:32:39.000Z</time>
      </trkpt>
      <trkpt lat="45.87302" lon="4.81863">
        <ele>194.80000305176</ele>
        <time>2019-08-17T07:32:40.000Z</time>
      </trkpt>
      <trkpt lat="45.87301" lon="4.81872">
        <ele>194.39999389648</ele>
        <time>2019-08-17T07:32:41.000Z</time>
      </trkpt>
      <trkpt lat="45.87301" lon="4.8188">
        <ele>194</ele>
        <time>2019-08-17T07:32:42.000Z</time>
      </trkpt>
      <trkpt lat="45.87298" lon="4.81897">
        <ele>194</ele>
        <time>2019-08-17T07:32:44.000Z</time>
      </trkpt>
      <trkpt lat="45.87296" lon="4.81906">
        <ele>194</ele>
        <time>2019-08-17T07:32:45.000Z</time>
      </trkpt>
      <trkpt lat="45.87282" lon="4.81922">
        <ele>193.60000610352</ele>
        <time>2019-08-17T07:32:48.000Z</time>
      </trkpt>
      <trkpt lat="45.87277" lon="4.81926">
        <ele>193.19999694824</ele>
        <time>2019-08-17T07:32:49.000Z</time>
      </trkpt>
      <trkpt lat="45.87271" lon="4.8193">
        <ele>192.80000305176</ele>
        <time>2019-08-17T07:32:50.000Z</time>
      </trkpt>
      <trkpt lat="45.87266" lon="4.81934">
        <ele>192.39999389648</ele>
        <time>2019-08-17T07:32:51.000Z</time>
      </trkpt>
      <trkpt lat="45.87262" lon="4.81938">
        <ele>192</ele>
        <time>2019-08-17T07:32:52.000Z</time>
      </trkpt>
      <trkpt lat="45.87256" lon="4.81941">
        <ele>192</ele>
        <time>2019-08-17T07:32:53.000Z</time>
      </trkpt>
      <trkpt lat="45.87222" lon="4.81956">
        <ele>192</ele>
        <time>2019-08-17T07:32:59.000Z</time>
      </trkpt>
      <trkpt lat="45.87216" lon="4.81958">
        <ele>192</ele>
        <time>2019-08-17T07:33:00.000Z</time>
      </trkpt>
      <trkpt lat="45.87198" lon="4.81965">
        <ele>192</ele>
        <time>2019-08-17T07:33:03.000Z</time>
      </trkpt>
      <trkpt lat="45.87181" lon="4.81972">
        <ele>191.39999389648</ele>
        <time>2019-08-17T07:33:06.000Z</time>
      </trkpt>
      <trkpt lat="45.87176" lon="4.81974">
        <ele>190.60000610352</ele>
        <time>2019-08-17T07:33:07.000Z</time>
      </trkpt>
      <trkpt lat="45.8717" lon="4.81976">
        <ele>190.19999694824</ele>
        <time>2019-08-17T07:33:08.000Z</time>
      </trkpt>
      <trkpt lat="45.87164" lon="4.81977">
        <ele>189.80000305176</ele>
        <time>2019-08-17T07:33:09.000Z</time>
      </trkpt>
      <trkpt lat="45.87156" lon="4.81977">
        <ele>189.80000305176</ele>
        <time>2019-08-17T07:33:10.000Z</time>
      </trkpt>
      <trkpt lat="45.87138" lon="4.81974">
        <ele>189.39999389648</ele>
        <time>2019-08-17T07:33:12.000Z</time>
      </trkpt>
      <trkpt lat="45.8713" lon="4.81973">
        <ele>189</ele>
        <time>2019-08-17T07:33:13.000Z</time>
      </trkpt>
      <trkpt lat="45.87122" lon="4.81973">
        <ele>188.60000610352</ele>
        <time>2019-08-17T07:33:14.000Z</time>
      </trkpt>
      <trkpt lat="45.87114" lon="4.81972">
        <ele>188</ele>
        <time>2019-08-17T07:33:15.000Z</time>
      </trkpt>
      <trkpt lat="45.87105" lon="4.81971">
        <ele>187.60000610352</ele>
        <time>2019-08-17T07:33:16.000Z</time>
      </trkpt>
      <trkpt lat="45.87097" lon="4.8197">
        <ele>187</ele>
        <time>2019-08-17T07:33:17.000Z</time>
      </trkpt>
      <trkpt lat="45.87088" lon="4.81967">
        <ele>186.60000610352</ele>
        <time>2019-08-17T07:33:18.000Z</time>
      </trkpt>
      <trkpt lat="45.87079" lon="4.81963">
        <ele>186</ele>
        <time>2019-08-17T07:33:19.000Z</time>
      </trkpt>
      <trkpt lat="45.8707" lon="4.8196">
        <ele>185.60000610352</ele>
        <time>2019-08-17T07:33:20.000Z</time>
      </trkpt>
      <trkpt lat="45.87053" lon="4.81953">
        <ele>185.19999694824</ele>
        <time>2019-08-17T07:33:22.000Z</time>
      </trkpt>
      <trkpt lat="45.87044" lon="4.81949">
        <ele>184.60000610352</ele>
        <time>2019-08-17T07:33:23.000Z</time>
      </trkpt>
      <trkpt lat="45.87035" lon="4.81945">
        <ele>184.19999694824</ele>
        <time>2019-08-17T07:33:24.000Z</time>
      </trkpt>
      <trkpt lat="45.87026" lon="4.81942">
        <ele>183.80000305176</ele>
        <time>2019-08-17T07:33:25.000Z</time>
      </trkpt>
      <trkpt lat="45.87017" lon="4.8194">
        <ele>183.39999389648</ele>
        <time>2019-08-17T07:33:26.000Z</time>
      </trkpt>
      <trkpt lat="45.87009" lon="4.8194">
        <ele>182.80000305176</ele>
        <time>2019-08-17T07:33:27.000Z</time>
      </trkpt>
      <trkpt lat="45.87002" lon="4.81944">
        <ele>182.39999389648</ele>
        <time>2019-08-17T07:33:28.000Z</time>
      </trkpt>
      <trkpt lat="45.86996" lon="4.81949">
        <ele>181.60000610352</ele>
        <time>2019-08-17T07:33:29.000Z</time>
      </trkpt>
      <trkpt lat="45.86991" lon="4.81954">
        <ele>180.80000305176</ele>
        <time>2019-08-17T07:33:30.000Z</time>
      </trkpt>
      <trkpt lat="45.86988" lon="4.81958">
        <ele>180.19999694824</ele>
        <time>2019-08-17T07:33:31.000Z</time>
      </trkpt>
      <trkpt lat="45.86986" lon="4.8196">
        <ele>178.60000610352</ele>
        <time>2019-08-17T07:33:32.000Z</time>
      </trkpt>
      <trkpt lat="45.86982" lon="4.81963">
        <ele>178.60000610352</ele>
        <time>2019-08-17T07:33:35.000Z</time>
      </trkpt>
      <trkpt lat="45.86981" lon="4.81963">
        <ele>178.60000610352</ele>
        <time>2019-08-17T07:33:36.000Z</time>
      </trkpt>
      <trkpt lat="45.8698" lon="4.81962">
        <ele>178.60000610352</ele>
        <time>2019-08-17T07:33:38.000Z</time>
      </trkpt>
      <trkpt lat="45.86979" lon="4.81962">
        <ele>178.60000610352</ele>
        <time>2019-08-17T07:33:42.000Z</time>
      </trkpt>
      <trkpt lat="45.86979" lon="4.81963">
        <ele>178.60000610352</ele>
        <time>2019-08-17T07:33:43.000Z</time>
      </trkpt>
      <trkpt lat="45.86979" lon="4.81965">
        <ele>178.60000610352</ele>
        <time>2019-08-17T07:33:44.000Z</time>
      </trkpt>
      <trkpt lat="45.86984" lon="4.81971">
        <ele>178.19999694824</ele>
        <time>2019-08-17T07:33:48.000Z</time>
      </trkpt>
      <trkpt lat="45.86984" lon="4.81974">
        <ele>177.80000305176</ele>
        <time>2019-08-17T07:33:49.000Z</time>
      </trkpt>
      <trkpt lat="45.86985" lon="4.81977">
        <ele>177.39999389648</ele>
        <time>2019-08-17T07:33:50.000Z</time>
      </trkpt>
      <trkpt lat="45.86985" lon="4.81982">
        <ele>177</ele>
        <time>2019-08-17T07:33:51.000Z</time>
      </trkpt>
      <trkpt lat="45.86986" lon="4.81987">
        <ele>176.60000610352</ele>
        <time>2019-08-17T07:33:52.000Z</time>
      </trkpt>
      <trkpt lat="45.86985" lon="4.82013">
        <ele>176.60000610352</ele>
        <time>2019-08-17T07:33:58.000Z</time>
      </trkpt>
      <trkpt lat="45.86977" lon="4.82013">
        <ele>176.60000610352</ele>
        <time>2019-08-17T07:34:02.000Z</time>
      </trkpt>
      <trkpt lat="45.86974" lon="4.82012">
        <ele>176.60000610352</ele>
        <time>2019-08-17T07:34:03.000Z</time>
      </trkpt>
      <trkpt lat="45.86963" lon="4.82007">
        <ele>176.60000610352</ele>
        <time>2019-08-17T07:34:07.000Z</time>
      </trkpt>
      <trkpt lat="45.86949" lon="4.81995">
        <ele>176.60000610352</ele>
        <time>2019-08-17T07:34:13.000Z</time>
      </trkpt>
      <trkpt lat="45.86946" lon="4.81992">
        <ele>177</ele>
        <time>2019-08-17T07:34:14.000Z</time>
      </trkpt>
      <trkpt lat="45.86941" lon="4.81988">
        <ele>177.39999389648</ele>
        <time>2019-08-17T07:34:15.000Z</time>
      </trkpt>
      <trkpt lat="45.86937" lon="4.81985">
        <ele>177.80000305176</ele>
        <time>2019-08-17T07:34:16.000Z</time>
      </trkpt>
      <trkpt lat="45.86933" lon="4.8198">
        <ele>178.19999694824</ele>
        <time>2019-08-17T07:34:17.000Z</time>
      </trkpt>
      <trkpt lat="45.86929" lon="4.81976">
        <ele>178.60000610352</ele>
        <time>2019-08-17T07:34:18.000Z</time>
      </trkpt>
      <trkpt lat="45.86922" lon="4.81968">
        <ele>179</ele>
        <time>2019-08-17T07:34:20.000Z</time>
      </trkpt>
      <trkpt lat="45.8692" lon="4.81964">
        <ele>179.39999389648</ele>
        <time>2019-08-17T07:34:21.000Z</time>
      </trkpt>
      <trkpt lat="45.86917" lon="4.8196">
        <ele>179.80000305176</ele>
        <time>2019-08-17T07:34:22.000Z</time>
      </trkpt>
      <trkpt lat="45.86915" lon="4.81957">
        <ele>180.19999694824</ele>
        <time>2019-08-17T07:34:23.000Z</time>
      </trkpt>
      <trkpt lat="45.86912" lon="4.81953">
        <ele>180.60000610352</ele>
        <time>2019-08-17T07:34:24.000Z</time>
      </trkpt>
      <trkpt lat="45.869" lon="4.81937">
        <ele>181</ele>
        <time>2019-08-17T07:34:29.000Z</time>
      </trkpt>
      <trkpt lat="45.86898" lon="4.81934">
        <ele>181.39999389648</ele>
        <time>2019-08-17T07:34:30.000Z</time>
      </trkpt>
      <trkpt lat="45.86896" lon="4.81932">
        <ele>181.80000305176</ele>
        <time>2019-08-17T07:34:31.000Z</time>
      </trkpt>
      <trkpt lat="45.86894" lon="4.81929">
        <ele>182.19999694824</ele>
        <time>2019-08-17T07:34:32.000Z</time>
      </trkpt>
      <trkpt lat="45.86891" lon="4.81926">
        <ele>182.60000610352</ele>
        <time>2019-08-17T07:34:33.000Z</time>
      </trkpt>
      <trkpt lat="45.86883" lon="4.81915">
        <ele>182.60000610352</ele>
        <time>2019-08-17T07:34:37.000Z</time>
      </trkpt>
      <trkpt lat="45.86871" lon="4.81892">
        <ele>182.60000610352</ele>
        <time>2019-08-17T07:34:43.000Z</time>
      </trkpt>
      <trkpt lat="45.86867" lon="4.81884">
        <ele>183.39999389648</ele>
        <time>2019-08-17T07:34:45.000Z</time>
      </trkpt>
      <trkpt lat="45.86864" lon="4.8188">
        <ele>184</ele>
        <time>2019-08-17T07:34:46.000Z</time>
      </trkpt>
      <trkpt lat="45.86862" lon="4.81877">
        <ele>184.39999389648</ele>
        <time>2019-08-17T07:34:47.000Z</time>
      </trkpt>
      <trkpt lat="45.8686" lon="4.81873">
        <ele>184.80000305176</ele>
        <time>2019-08-17T07:34:48.000Z</time>
      </trkpt>
      <trkpt lat="45.86856" lon="4.81865">
        <ele>184.80000305176</ele>
        <time>2019-08-17T07:34:50.000Z</time>
      </trkpt>
      <trkpt lat="45.86844" lon="4.8184">
        <ele>184.80000305176</ele>
        <time>2019-08-17T07:34:56.000Z</time>
      </trkpt>
      <trkpt lat="45.86831" lon="4.8181">
        <ele>184.80000305176</ele>
        <time>2019-08-17T07:35:03.000Z</time>
      </trkpt>
      <trkpt lat="45.8682" lon="4.81786">
        <ele>185.60000610352</ele>
        <time>2019-08-17T07:35:09.000Z</time>
      </trkpt>
      <trkpt lat="45.86818" lon="4.81782">
        <ele>186</ele>
        <time>2019-08-17T07:35:10.000Z</time>
      </trkpt>
      <trkpt lat="45.86816" lon="4.81777">
        <ele>186.39999389648</ele>
        <time>2019-08-17T07:35:11.000Z</time>
      </trkpt>
      <trkpt lat="45.86814" lon="4.81773">
        <ele>186.80000305176</ele>
        <time>2019-08-17T07:35:12.000Z</time>
      </trkpt>
      <trkpt lat="45.86799" lon="4.81741">
        <ele>186.80000305176</ele>
        <time>2019-08-17T07:35:19.000Z</time>
      </trkpt>
      <trkpt lat="45.86781" lon="4.81702">
        <ele>186.80000305176</ele>
        <time>2019-08-17T07:35:28.000Z</time>
      </trkpt>
      <trkpt lat="45.86775" lon="4.81689">
        <ele>187.19999694824</ele>
        <time>2019-08-17T07:35:31.000Z</time>
      </trkpt>
      <trkpt lat="45.86773" lon="4.81685">
        <ele>187.60000610352</ele>
        <time>2019-08-17T07:35:32.000Z</time>
      </trkpt>
      <trkpt lat="45.86771" lon="4.8168">
        <ele>188</ele>
        <time>2019-08-17T07:35:33.000Z</time>
      </trkpt>
      <trkpt lat="45.86769" lon="4.81676">
        <ele>189</ele>
        <time>2019-08-17T07:35:34.000Z</time>
      </trkpt>
      <trkpt lat="45.86765" lon="4.81667">
        <ele>189</ele>
        <time>2019-08-17T07:35:36.000Z</time>
      </trkpt>
      <trkpt lat="45.86744" lon="4.81623">
        <ele>189</ele>
        <time>2019-08-17T07:35:46.000Z</time>
      </trkpt>
      <trkpt lat="45.86731" lon="4.81587">
        <ele>189</ele>
        <time>2019-08-17T07:35:54.000Z</time>
      </trkpt>
      <trkpt lat="45.86729" lon="4.81583">
        <ele>189.39999389648</ele>
        <time>2019-08-17T07:35:55.000Z</time>
      </trkpt>
      <trkpt lat="45.86727" lon="4.81579">
        <ele>189.80000305176</ele>
        <time>2019-08-17T07:35:56.000Z</time>
      </trkpt>
      <trkpt lat="45.86725" lon="4.81575">
        <ele>190.19999694824</ele>
        <time>2019-08-17T07:35:57.000Z</time>
      </trkpt>
      <trkpt lat="45.86723" lon="4.81571">
        <ele>190.60000610352</ele>
        <time>2019-08-17T07:35:58.000Z</time>
      </trkpt>
      <trkpt lat="45.8672" lon="4.81567">
        <ele>191</ele>
        <time>2019-08-17T07:35:59.000Z</time>
      </trkpt>
      <trkpt lat="45.86713" lon="4.81556">
        <ele>191</ele>
        <time>2019-08-17T07:36:02.000Z</time>
      </trkpt>
      <trkpt lat="45.86691" lon="4.81529">
        <ele>191</ele>
        <time>2019-08-17T07:36:10.000Z</time>
      </trkpt>
      <trkpt lat="45.8668" lon="4.81517">
        <ele>191.39999389648</ele>
        <time>2019-08-17T07:36:14.000Z</time>
      </trkpt>
      <trkpt lat="45.86677" lon="4.81514">
        <ele>191.80000305176</ele>
        <time>2019-08-17T07:36:15.000Z</time>
      </trkpt>
      <trkpt lat="45.86675" lon="4.8151">
        <ele>192.19999694824</ele>
        <time>2019-08-17T07:36:16.000Z</time>
      </trkpt>
      <trkpt lat="45.86672" lon="4.81507">
        <ele>192.60000610352</ele>
        <time>2019-08-17T07:36:17.000Z</time>
      </trkpt>
      <trkpt lat="45.86669" lon="4.81504">
        <ele>193</ele>
        <time>2019-08-17T07:36:18.000Z</time>
      </trkpt>
      <trkpt lat="45.86649" lon="4.81483">
        <ele>193</ele>
        <time>2019-08-17T07:36:24.000Z</time>
      </trkpt>
      <trkpt lat="45.8664" lon="4.81471">
        <ele>193.39999389648</ele>
        <time>2019-08-17T07:36:27.000Z</time>
      </trkpt>
      <trkpt lat="45.86637" lon="4.81468">
        <ele>193.80000305176</ele>
        <time>2019-08-17T07:36:28.000Z</time>
      </trkpt>
      <trkpt lat="45.86634" lon="4.81465">
        <ele>194.19999694824</ele>
        <time>2019-08-17T07:36:29.000Z</time>
      </trkpt>
      <trkpt lat="45.86631" lon="4.81461">
        <ele>194.60000610352</ele>
        <time>2019-08-17T07:36:30.000Z</time>
      </trkpt>
      <trkpt lat="45.86628" lon="4.81457">
        <ele>195</ele>
        <time>2019-08-17T07:36:31.000Z</time>
      </trkpt>
      <trkpt lat="45.8662" lon="4.81444">
        <ele>195</ele>
        <time>2019-08-17T07:36:34.000Z</time>
      </trkpt>
      <trkpt lat="45.86617" lon="4.8144">
        <ele>195</ele>
        <time>2019-08-17T07:36:35.000Z</time>
      </trkpt>
      <trkpt lat="45.86599" lon="4.81408">
        <ele>195.39999389648</ele>
        <time>2019-08-17T07:36:41.000Z</time>
      </trkpt>
      <trkpt lat="45.86596" lon="4.81402">
        <ele>195.80000305176</ele>
        <time>2019-08-17T07:36:42.000Z</time>
      </trkpt>
      <trkpt lat="45.86593" lon="4.81396">
        <ele>196.39999389648</ele>
        <time>2019-08-17T07:36:43.000Z</time>
      </trkpt>
      <trkpt lat="45.8659" lon="4.8139">
        <ele>196.80000305176</ele>
        <time>2019-08-17T07:36:44.000Z</time>
      </trkpt>
      <trkpt lat="45.86587" lon="4.81385">
        <ele>197.19999694824</ele>
        <time>2019-08-17T07:36:45.000Z</time>
      </trkpt>
      <trkpt lat="45.86578" lon="4.81369">
        <ele>197.19999694824</ele>
        <time>2019-08-17T07:36:48.000Z</time>
      </trkpt>
      <trkpt lat="45.86575" lon="4.81365">
        <ele>197.19999694824</ele>
        <time>2019-08-17T07:36:49.000Z</time>
      </trkpt>
      <trkpt lat="45.86572" lon="4.8136">
        <ele>197.19999694824</ele>
        <time>2019-08-17T07:36:50.000Z</time>
      </trkpt>
      <trkpt lat="45.86564" lon="4.81352">
        <ele>197.60000610352</ele>
        <time>2019-08-17T07:36:52.000Z</time>
      </trkpt>
      <trkpt lat="45.8656" lon="4.81349">
        <ele>198</ele>
        <time>2019-08-17T07:36:53.000Z</time>
      </trkpt>
      <trkpt lat="45.86556" lon="4.81346">
        <ele>198.39999389648</ele>
        <time>2019-08-17T07:36:54.000Z</time>
      </trkpt>
      <trkpt lat="45.86552" lon="4.81343">
        <ele>198.80000305176</ele>
        <time>2019-08-17T07:36:55.000Z</time>
      </trkpt>
      <trkpt lat="45.86548" lon="4.81342">
        <ele>199.19999694824</ele>
        <time>2019-08-17T07:36:56.000Z</time>
      </trkpt>
      <trkpt lat="45.86539" lon="4.8134">
        <ele>199.19999694824</ele>
        <time>2019-08-17T07:36:58.000Z</time>
      </trkpt>
      <trkpt lat="45.86525" lon="4.81337">
        <ele>199.19999694824</ele>
        <time>2019-08-17T07:37:01.000Z</time>
      </trkpt>
      <trkpt lat="45.86512" lon="4.81335">
        <ele>199.60000610352</ele>
        <time>2019-08-17T07:37:04.000Z</time>
      </trkpt>
      <trkpt lat="45.86507" lon="4.81334">
        <ele>200</ele>
        <time>2019-08-17T07:37:05.000Z</time>
      </trkpt>
      <trkpt lat="45.86503" lon="4.81334">
        <ele>200.39999389648</ele>
        <time>2019-08-17T07:37:06.000Z</time>
      </trkpt>
      <trkpt lat="45.86499" lon="4.81333">
        <ele>201</ele>
        <time>2019-08-17T07:37:07.000Z</time>
      </trkpt>
      <trkpt lat="45.86495" lon="4.81333">
        <ele>201.39999389648</ele>
        <time>2019-08-17T07:37:08.000Z</time>
      </trkpt>
      <trkpt lat="45.86479" lon="4.81331">
        <ele>201.80000305176</ele>
        <time>2019-08-17T07:37:12.000Z</time>
      </trkpt>
      <trkpt lat="45.86475" lon="4.8133">
        <ele>202.19999694824</ele>
        <time>2019-08-17T07:37:13.000Z</time>
      </trkpt>
      <trkpt lat="45.86471" lon="4.81329">
        <ele>202.80000305176</ele>
        <time>2019-08-17T07:37:14.000Z</time>
      </trkpt>
      <trkpt lat="45.86467" lon="4.81329">
        <ele>203.19999694824</ele>
        <time>2019-08-17T07:37:15.000Z</time>
      </trkpt>
      <trkpt lat="45.86463" lon="4.81328">
        <ele>203.60000610352</ele>
        <time>2019-08-17T07:37:16.000Z</time>
      </trkpt>
      <trkpt lat="45.86439" lon="4.81326">
        <ele>204</ele>
        <time>2019-08-17T07:37:22.000Z</time>
      </trkpt>
      <trkpt lat="45.86436" lon="4.81325">
        <ele>204.39999389648</ele>
        <time>2019-08-17T07:37:23.000Z</time>
      </trkpt>
      <trkpt lat="45.86432" lon="4.81324">
        <ele>204.80000305176</ele>
        <time>2019-08-17T07:37:24.000Z</time>
      </trkpt>
      <trkpt lat="45.86428" lon="4.81323">
        <ele>205.19999694824</ele>
        <time>2019-08-17T07:37:25.000Z</time>
      </trkpt>
      <trkpt lat="45.86424" lon="4.81322">
        <ele>205.60000610352</ele>
        <time>2019-08-17T07:37:26.000Z</time>
      </trkpt>
      <trkpt lat="45.86405" lon="4.81319">
        <ele>205.60000610352</ele>
        <time>2019-08-17T07:37:31.000Z</time>
      </trkpt>
      <trkpt lat="45.86401" lon="4.81318">
        <ele>206</ele>
        <time>2019-08-17T07:37:32.000Z</time>
      </trkpt>
      <trkpt lat="45.86398" lon="4.81318">
        <ele>206.60000610352</ele>
        <time>2019-08-17T07:37:33.000Z</time>
      </trkpt>
      <trkpt lat="45.86394" lon="4.81317">
        <ele>207</ele>
        <time>2019-08-17T07:37:34.000Z</time>
      </trkpt>
      <trkpt lat="45.86391" lon="4.81316">
        <ele>207.39999389648</ele>
        <time>2019-08-17T07:37:35.000Z</time>
      </trkpt>
      <trkpt lat="45.86387" lon="4.81316">
        <ele>208</ele>
        <time>2019-08-17T07:37:36.000Z</time>
      </trkpt>
      <trkpt lat="45.86376" lon="4.81313">
        <ele>208.39999389648</ele>
        <time>2019-08-17T07:37:39.000Z</time>
      </trkpt>
      <trkpt lat="45.86372" lon="4.81313">
        <ele>208.80000305176</ele>
        <time>2019-08-17T07:37:40.000Z</time>
      </trkpt>
      <trkpt lat="45.86369" lon="4.81312">
        <ele>209.19999694824</ele>
        <time>2019-08-17T07:37:41.000Z</time>
      </trkpt>
      <trkpt lat="45.86365" lon="4.81312">
        <ele>209.60000610352</ele>
        <time>2019-08-17T07:37:42.000Z</time>
      </trkpt>
      <trkpt lat="45.86361" lon="4.81311">
        <ele>210</ele>
        <time>2019-08-17T07:37:43.000Z</time>
      </trkpt>
      <trkpt lat="45.8635" lon="4.8131">
        <ele>210</ele>
        <time>2019-08-17T07:37:46.000Z</time>
      </trkpt>
      <trkpt lat="45.86346" lon="4.8131">
        <ele>210.39999389648</ele>
        <time>2019-08-17T07:37:47.000Z</time>
      </trkpt>
      <trkpt lat="45.86342" lon="4.81309">
        <ele>210.80000305176</ele>
        <time>2019-08-17T07:37:48.000Z</time>
      </trkpt>
      <trkpt lat="45.86339" lon="4.81309">
        <ele>211.19999694824</ele>
        <time>2019-08-17T07:37:49.000Z</time>
      </trkpt>
      <trkpt lat="45.86335" lon="4.81309">
        <ele>211.80000305176</ele>
        <time>2019-08-17T07:37:50.000Z</time>
      </trkpt>
      <trkpt lat="45.86332" lon="4.81308">
        <ele>212.19999694824</ele>
        <time>2019-08-17T07:37:51.000Z</time>
      </trkpt>
      <trkpt lat="45.86324" lon="4.81307">
        <ele>212.19999694824</ele>
        <time>2019-08-17T07:37:53.000Z</time>
      </trkpt>
      <trkpt lat="45.8632" lon="4.81307">
        <ele>212.60000610352</ele>
        <time>2019-08-17T07:37:54.000Z</time>
      </trkpt>
      <trkpt lat="45.86317" lon="4.81307">
        <ele>213</ele>
        <time>2019-08-17T07:37:55.000Z</time>
      </trkpt>
      <trkpt lat="45.86313" lon="4.81306">
        <ele>213.39999389648</ele>
        <time>2019-08-17T07:37:56.000Z</time>
      </trkpt>
      <trkpt lat="45.8631" lon="4.81306">
        <ele>213.80000305176</ele>
        <time>2019-08-17T07:37:57.000Z</time>
      </trkpt>
      <trkpt lat="45.86306" lon="4.81305">
        <ele>214.39999389648</ele>
        <time>2019-08-17T07:37:58.000Z</time>
      </trkpt>
      <trkpt lat="45.86296" lon="4.81306">
        <ele>215.19999694824</ele>
        <time>2019-08-17T07:38:01.000Z</time>
      </trkpt>
      <trkpt lat="45.86292" lon="4.81306">
        <ele>215.60000610352</ele>
        <time>2019-08-17T07:38:02.000Z</time>
      </trkpt>
      <trkpt lat="45.86289" lon="4.81306">
        <ele>216</ele>
        <time>2019-08-17T07:38:03.000Z</time>
      </trkpt>
      <trkpt lat="45.86286" lon="4.81306">
        <ele>216.39999389648</ele>
        <time>2019-08-17T07:38:04.000Z</time>
      </trkpt>
      <trkpt lat="45.86274" lon="4.81305">
        <ele>216.80000305176</ele>
        <time>2019-08-17T07:38:07.000Z</time>
      </trkpt>
      <trkpt lat="45.86271" lon="4.81305">
        <ele>217.19999694824</ele>
        <time>2019-08-17T07:38:08.000Z</time>
      </trkpt>
      <trkpt lat="45.86267" lon="4.81305">
        <ele>217.60000610352</ele>
        <time>2019-08-17T07:38:09.000Z</time>
      </trkpt>
      <trkpt lat="45.86263" lon="4.81305">
        <ele>218.19999694824</ele>
        <time>2019-08-17T07:38:10.000Z</time>
      </trkpt>
      <trkpt lat="45.8626" lon="4.81305">
        <ele>218.60000610352</ele>
        <time>2019-08-17T07:38:11.000Z</time>
      </trkpt>
      <trkpt lat="45.86249" lon="4.81305">
        <ele>219</ele>
        <time>2019-08-17T07:38:14.000Z</time>
      </trkpt>
      <trkpt lat="45.86246" lon="4.81305">
        <ele>219.39999389648</ele>
        <time>2019-08-17T07:38:15.000Z</time>
      </trkpt>
      <trkpt lat="45.86242" lon="4.81305">
        <ele>219.80000305176</ele>
        <time>2019-08-17T07:38:16.000Z</time>
      </trkpt>
      <trkpt lat="45.86238" lon="4.81305">
        <ele>220.19999694824</ele>
        <time>2019-08-17T07:38:17.000Z</time>
      </trkpt>
      <trkpt lat="45.86235" lon="4.81305">
        <ele>220.60000610352</ele>
        <time>2019-08-17T07:38:18.000Z</time>
      </trkpt>
      <trkpt lat="45.86217" lon="4.81303">
        <ele>221</ele>
        <time>2019-08-17T07:38:23.000Z</time>
      </trkpt>
      <trkpt lat="45.86213" lon="4.81302">
        <ele>221.39999389648</ele>
        <time>2019-08-17T07:38:24.000Z</time>
      </trkpt>
      <trkpt lat="45.8621" lon="4.81301">
        <ele>221.80000305176</ele>
        <time>2019-08-17T07:38:25.000Z</time>
      </trkpt>
      <trkpt lat="45.86206" lon="4.813">
        <ele>222.60000610352</ele>
        <time>2019-08-17T07:38:26.000Z</time>
      </trkpt>
      <trkpt lat="45.86191" lon="4.81295">
        <ele>223</ele>
        <time>2019-08-17T07:38:30.000Z</time>
      </trkpt>
      <trkpt lat="45.86188" lon="4.81294">
        <ele>223.60000610352</ele>
        <time>2019-08-17T07:38:31.000Z</time>
      </trkpt>
      <trkpt lat="45.86185" lon="4.81293">
        <ele>224</ele>
        <time>2019-08-17T07:38:32.000Z</time>
      </trkpt>
      <trkpt lat="45.86181" lon="4.81292">
        <ele>224.39999389648</ele>
        <time>2019-08-17T07:38:33.000Z</time>
      </trkpt>
      <trkpt lat="45.86177" lon="4.8129">
        <ele>224.80000305176</ele>
        <time>2019-08-17T07:38:34.000Z</time>
      </trkpt>
      <trkpt lat="45.86173" lon="4.81288">
        <ele>224.80000305176</ele>
        <time>2019-08-17T07:38:35.000Z</time>
      </trkpt>
      <trkpt lat="45.86151" lon="4.81278">
        <ele>224.80000305176</ele>
        <time>2019-08-17T07:38:41.000Z</time>
      </trkpt>
      <trkpt lat="45.86121" lon="4.81261">
        <ele>224.80000305176</ele>
        <time>2019-08-17T07:38:49.000Z</time>
      </trkpt>
      <trkpt lat="45.86113" lon="4.81256">
        <ele>225.60000610352</ele>
        <time>2019-08-17T07:38:51.000Z</time>
      </trkpt>
      <trkpt lat="45.86109" lon="4.81253">
        <ele>226</ele>
        <time>2019-08-17T07:38:52.000Z</time>
      </trkpt>
      <trkpt lat="45.86105" lon="4.8125">
        <ele>226.39999389648</ele>
        <time>2019-08-17T07:38:53.000Z</time>
      </trkpt>
      <trkpt lat="45.86102" lon="4.81247">
        <ele>226.80000305176</ele>
        <time>2019-08-17T07:38:54.000Z</time>
      </trkpt>
      <trkpt lat="45.86094" lon="4.81242">
        <ele>226.80000305176</ele>
        <time>2019-08-17T07:38:56.000Z</time>
      </trkpt>
      <trkpt lat="45.86069" lon="4.81227">
        <ele>226.80000305176</ele>
        <time>2019-08-17T07:39:02.000Z</time>
      </trkpt>
      <trkpt lat="45.86051" lon="4.81208">
        <ele>226.80000305176</ele>
        <time>2019-08-17T07:39:07.000Z</time>
      </trkpt>
      <trkpt lat="45.86031" lon="4.81174">
        <ele>226.80000305176</ele>
        <time>2019-08-17T07:39:14.000Z</time>
      </trkpt>
      <trkpt lat="45.86023" lon="4.81157">
        <ele>227.19999694824</ele>
        <time>2019-08-17T07:39:17.000Z</time>
      </trkpt>
      <trkpt lat="45.86021" lon="4.81151">
        <ele>227.60000610352</ele>
        <time>2019-08-17T07:39:18.000Z</time>
      </trkpt>
      <trkpt lat="45.86019" lon="4.81145">
        <ele>228</ele>
        <time>2019-08-17T07:39:19.000Z</time>
      </trkpt>
      <trkpt lat="45.86016" lon="4.81139">
        <ele>228.39999389648</ele>
        <time>2019-08-17T07:39:20.000Z</time>
      </trkpt>
      <trkpt lat="45.86014" lon="4.81133">
        <ele>228.80000305176</ele>
        <time>2019-08-17T07:39:21.000Z</time>
      </trkpt>
      <trkpt lat="45.86001" lon="4.81102">
        <ele>228.80000305176</ele>
        <time>2019-08-17T07:39:26.000Z</time>
      </trkpt>
      <trkpt lat="45.85996" lon="4.8109">
        <ele>228.80000305176</ele>
        <time>2019-08-17T07:39:28.000Z</time>
      </trkpt>
      <trkpt lat="45.85993" lon="4.81084">
        <ele>228.80000305176</ele>
        <time>2019-08-17T07:39:29.000Z</time>
      </trkpt>
      <trkpt lat="45.85987" lon="4.81073">
        <ele>229.19999694824</ele>
        <time>2019-08-17T07:39:31.000Z</time>
      </trkpt>
      <trkpt lat="45.85984" lon="4.81067">
        <ele>229.60000610352</ele>
        <time>2019-08-17T07:39:32.000Z</time>
      </trkpt>
      <trkpt lat="45.85981" lon="4.8106">
        <ele>230.19999694824</ele>
        <time>2019-08-17T07:39:33.000Z</time>
      </trkpt>
      <trkpt lat="45.85978" lon="4.81054">
        <ele>230.60000610352</ele>
        <time>2019-08-17T07:39:34.000Z</time>
      </trkpt>
      <trkpt lat="45.85975" lon="4.81048">
        <ele>231</ele>
        <time>2019-08-17T07:39:35.000Z</time>
      </trkpt>
      <trkpt lat="45.85962" lon="4.81026">
        <ele>231</ele>
        <time>2019-08-17T07:39:39.000Z</time>
      </trkpt>
      <trkpt lat="45.85956" lon="4.81015">
        <ele>231.39999389648</ele>
        <time>2019-08-17T07:39:41.000Z</time>
      </trkpt>
      <trkpt lat="45.85952" lon="4.8101">
        <ele>231.80000305176</ele>
        <time>2019-08-17T07:39:42.000Z</time>
      </trkpt>
      <trkpt lat="45.85949" lon="4.81005">
        <ele>232.19999694824</ele>
        <time>2019-08-17T07:39:43.000Z</time>
      </trkpt>
      <trkpt lat="45.85945" lon="4.81">
        <ele>232.60000610352</ele>
        <time>2019-08-17T07:39:44.000Z</time>
      </trkpt>
      <trkpt lat="45.85941" lon="4.80995">
        <ele>233</ele>
        <time>2019-08-17T07:39:45.000Z</time>
      </trkpt>
      <trkpt lat="45.85937" lon="4.80991">
        <ele>233</ele>
        <time>2019-08-17T07:39:46.000Z</time>
      </trkpt>
      <trkpt lat="45.85921" lon="4.80975">
        <ele>233.39999389648</ele>
        <time>2019-08-17T07:39:50.000Z</time>
      </trkpt>
      <trkpt lat="45.85916" lon="4.80971">
        <ele>233.80000305176</ele>
        <time>2019-08-17T07:39:51.000Z</time>
      </trkpt>
      <trkpt lat="45.85911" lon="4.80968">
        <ele>234.19999694824</ele>
        <time>2019-08-17T07:39:52.000Z</time>
      </trkpt>
      <trkpt lat="45.85906" lon="4.80965">
        <ele>234.60000610352</ele>
        <time>2019-08-17T07:39:53.000Z</time>
      </trkpt>
      <trkpt lat="45.85901" lon="4.80963">
        <ele>235.19999694824</ele>
        <time>2019-08-17T07:39:54.000Z</time>
      </trkpt>
      <trkpt lat="45.85892" lon="4.80959">
        <ele>235.19999694824</ele>
        <time>2019-08-17T07:39:56.000Z</time>
      </trkpt>
      <trkpt lat="45.85877" lon="4.80954">
        <ele>235.60000610352</ele>
        <time>2019-08-17T07:39:59.000Z</time>
      </trkpt>
      <trkpt lat="45.85871" lon="4.80952">
        <ele>236</ele>
        <time>2019-08-17T07:40:00.000Z</time>
      </trkpt>
      <trkpt lat="45.85867" lon="4.80951">
        <ele>236.39999389648</ele>
        <time>2019-08-17T07:40:01.000Z</time>
      </trkpt>
      <trkpt lat="45.85862" lon="4.80949">
        <ele>237</ele>
        <time>2019-08-17T07:40:02.000Z</time>
      </trkpt>
      <trkpt lat="45.85858" lon="4.80947">
        <ele>237.39999389648</ele>
        <time>2019-08-17T07:40:03.000Z</time>
      </trkpt>
      <trkpt lat="45.85832" lon="4.80936">
        <ele>237.39999389648</ele>
        <time>2019-08-17T07:40:09.000Z</time>
      </trkpt>
      <trkpt lat="45.85821" lon="4.80929">
        <ele>237.80000305176</ele>
        <time>2019-08-17T07:40:12.000Z</time>
      </trkpt>
      <trkpt lat="45.85817" lon="4.80927">
        <ele>238.19999694824</ele>
        <time>2019-08-17T07:40:13.000Z</time>
      </trkpt>
      <trkpt lat="45.85813" lon="4.80924">
        <ele>238.60000610352</ele>
        <time>2019-08-17T07:40:14.000Z</time>
      </trkpt>
      <trkpt lat="45.85809" lon="4.80921">
        <ele>239</ele>
        <time>2019-08-17T07:40:15.000Z</time>
      </trkpt>
      <trkpt lat="45.85805" lon="4.80919">
        <ele>239.39999389648</ele>
        <time>2019-08-17T07:40:16.000Z</time>
      </trkpt>
      <trkpt lat="45.85801" lon="4.80917">
        <ele>239.39999389648</ele>
        <time>2019-08-17T07:40:17.000Z</time>
      </trkpt>
      <trkpt lat="45.85789" lon="4.8091">
        <ele>239.39999389648</ele>
        <time>2019-08-17T07:40:20.000Z</time>
      </trkpt>
      <trkpt lat="45.85778" lon="4.80902">
        <ele>239.39999389648</ele>
        <time>2019-08-17T07:40:23.000Z</time>
      </trkpt>
      <trkpt lat="45.85757" lon="4.80892">
        <ele>239.80000305176</ele>
        <time>2019-08-17T07:40:28.000Z</time>
      </trkpt>
      <trkpt lat="45.85753" lon="4.8089">
        <ele>240.60000610352</ele>
        <time>2019-08-17T07:40:29.000Z</time>
      </trkpt>
      <trkpt lat="45.85749" lon="4.80889">
        <ele>241</ele>
        <time>2019-08-17T07:40:30.000Z</time>
      </trkpt>
      <trkpt lat="45.85745" lon="4.80887">
        <ele>241.39999389648</ele>
        <time>2019-08-17T07:40:31.000Z</time>
      </trkpt>
      <trkpt lat="45.85722" lon="4.80883">
        <ele>241.39999389648</ele>
        <time>2019-08-17T07:40:37.000Z</time>
      </trkpt>
      <trkpt lat="45.85714" lon="4.80882">
        <ele>241.80000305176</ele>
        <time>2019-08-17T07:40:39.000Z</time>
      </trkpt>
      <trkpt lat="45.8571" lon="4.80882">
        <ele>242.19999694824</ele>
        <time>2019-08-17T07:40:40.000Z</time>
      </trkpt>
      <trkpt lat="45.85706" lon="4.80881">
        <ele>242.80000305176</ele>
        <time>2019-08-17T07:40:41.000Z</time>
      </trkpt>
      <trkpt lat="45.85702" lon="4.8088">
        <ele>243.19999694824</ele>
        <time>2019-08-17T07:40:42.000Z</time>
      </trkpt>
      <trkpt lat="45.85699" lon="4.8088">
        <ele>243.60000610352</ele>
        <time>2019-08-17T07:40:43.000Z</time>
      </trkpt>
      <trkpt lat="45.85695" lon="4.80879">
        <ele>243.60000610352</ele>
        <time>2019-08-17T07:40:44.000Z</time>
      </trkpt>
      <trkpt lat="45.85678" lon="4.80872">
        <ele>244</ele>
        <time>2019-08-17T07:40:49.000Z</time>
      </trkpt>
      <trkpt lat="45.85674" lon="4.80869">
        <ele>244.39999389648</ele>
        <time>2019-08-17T07:40:50.000Z</time>
      </trkpt>
      <trkpt lat="45.85671" lon="4.80866">
        <ele>244.80000305176</ele>
        <time>2019-08-17T07:40:51.000Z</time>
      </trkpt>
      <trkpt lat="45.85668" lon="4.80862">
        <ele>245.19999694824</ele>
        <time>2019-08-17T07:40:52.000Z</time>
      </trkpt>
      <trkpt lat="45.85665" lon="4.80858">
        <ele>245.60000610352</ele>
        <time>2019-08-17T07:40:53.000Z</time>
      </trkpt>
      <trkpt lat="45.85659" lon="4.8085">
        <ele>245.60000610352</ele>
        <time>2019-08-17T07:40:55.000Z</time>
      </trkpt>
      <trkpt lat="45.85656" lon="4.80846">
        <ele>246</ele>
        <time>2019-08-17T07:40:56.000Z</time>
      </trkpt>
      <trkpt lat="45.85653" lon="4.80841">
        <ele>246.39999389648</ele>
        <time>2019-08-17T07:40:57.000Z</time>
      </trkpt>
      <trkpt lat="45.8565" lon="4.80836">
        <ele>246.80000305176</ele>
        <time>2019-08-17T07:40:58.000Z</time>
      </trkpt>
      <trkpt lat="45.85647" lon="4.80832">
        <ele>247.19999694824</ele>
        <time>2019-08-17T07:40:59.000Z</time>
      </trkpt>
      <trkpt lat="45.85645" lon="4.80827">
        <ele>247.80000305176</ele>
        <time>2019-08-17T07:41:00.000Z</time>
      </trkpt>
      <trkpt lat="45.85637" lon="4.80807">
        <ele>248.19999694824</ele>
        <time>2019-08-17T07:41:04.000Z</time>
      </trkpt>
      <trkpt lat="45.85635" lon="4.80802">
        <ele>248.60000610352</ele>
        <time>2019-08-17T07:41:05.000Z</time>
      </trkpt>
      <trkpt lat="45.85633" lon="4.80797">
        <ele>249</ele>
        <time>2019-08-17T07:41:06.000Z</time>
      </trkpt>
      <trkpt lat="45.85631" lon="4.80793">
        <ele>249.39999389648</ele>
        <time>2019-08-17T07:41:07.000Z</time>
      </trkpt>
      <trkpt lat="45.85629" lon="4.80788">
        <ele>250</ele>
        <time>2019-08-17T07:41:08.000Z</time>
      </trkpt>
      <trkpt lat="45.85622" lon="4.80776">
        <ele>250</ele>
        <time>2019-08-17T07:41:11.000Z</time>
      </trkpt>
      <trkpt lat="45.85606" lon="4.80744">
        <ele>250.39999389648</ele>
        <time>2019-08-17T07:41:18.000Z</time>
      </trkpt>
      <trkpt lat="45.85603" lon="4.8074">
        <ele>251.19999694824</ele>
        <time>2019-08-17T07:41:19.000Z</time>
      </trkpt>
      <trkpt lat="45.85601" lon="4.80735">
        <ele>251.60000610352</ele>
        <time>2019-08-17T07:41:20.000Z</time>
      </trkpt>
      <trkpt lat="45.85599" lon="4.80731">
        <ele>252</ele>
        <time>2019-08-17T07:41:21.000Z</time>
      </trkpt>
      <trkpt lat="45.85587" lon="4.80708">
        <ele>252</ele>
        <time>2019-08-17T07:41:26.000Z</time>
      </trkpt>
      <trkpt lat="45.85578" lon="4.80691">
        <ele>252.39999389648</ele>
        <time>2019-08-17T07:41:30.000Z</time>
      </trkpt>
      <trkpt lat="45.85576" lon="4.80687">
        <ele>252.80000305176</ele>
        <time>2019-08-17T07:41:31.000Z</time>
      </trkpt>
      <trkpt lat="45.85574" lon="4.80683">
        <ele>253.19999694824</ele>
        <time>2019-08-17T07:41:32.000Z</time>
      </trkpt>
      <trkpt lat="45.85572" lon="4.80679">
        <ele>253.60000610352</ele>
        <time>2019-08-17T07:41:33.000Z</time>
      </trkpt>
      <trkpt lat="45.8557" lon="4.80676">
        <ele>254.19999694824</ele>
        <time>2019-08-17T07:41:34.000Z</time>
      </trkpt>
      <trkpt lat="45.85561" lon="4.80659">
        <ele>254.19999694824</ele>
        <time>2019-08-17T07:41:39.000Z</time>
      </trkpt>
      <trkpt lat="45.85559" lon="4.80656">
        <ele>254.60000610352</ele>
        <time>2019-08-17T07:41:40.000Z</time>
      </trkpt>
      <trkpt lat="45.85557" lon="4.80652">
        <ele>255</ele>
        <time>2019-08-17T07:41:41.000Z</time>
      </trkpt>
      <trkpt lat="45.85555" lon="4.80649">
        <ele>255.39999389648</ele>
        <time>2019-08-17T07:41:42.000Z</time>
      </trkpt>
      <trkpt lat="45.85552" lon="4.80645">
        <ele>256.39999389648</ele>
        <time>2019-08-17T07:41:43.000Z</time>
      </trkpt>
      <trkpt lat="45.85546" lon="4.80633">
        <ele>256.39999389648</ele>
        <time>2019-08-17T07:41:46.000Z</time>
      </trkpt>
      <trkpt lat="45.85539" lon="4.80618">
        <ele>256.79998779297</ele>
        <time>2019-08-17T07:41:50.000Z</time>
      </trkpt>
      <trkpt lat="45.85537" lon="4.80614">
        <ele>257.20001220703</ele>
        <time>2019-08-17T07:41:51.000Z</time>
      </trkpt>
      <trkpt lat="45.85535" lon="4.8061">
        <ele>257.60000610352</ele>
        <time>2019-08-17T07:41:52.000Z</time>
      </trkpt>
      <trkpt lat="45.85533" lon="4.80606">
        <ele>258.20001220703</ele>
        <time>2019-08-17T07:41:53.000Z</time>
      </trkpt>
      <trkpt lat="45.8553" lon="4.80602">
        <ele>258.60000610352</ele>
        <time>2019-08-17T07:41:54.000Z</time>
      </trkpt>
      <trkpt lat="45.85519" lon="4.80581">
        <ele>259</ele>
        <time>2019-08-17T07:41:59.000Z</time>
      </trkpt>
      <trkpt lat="45.85516" lon="4.80577">
        <ele>259.39999389648</ele>
        <time>2019-08-17T07:42:00.000Z</time>
      </trkpt>
      <trkpt lat="45.85514" lon="4.80572">
        <ele>259.79998779297</ele>
        <time>2019-08-17T07:42:01.000Z</time>
      </trkpt>
      <trkpt lat="45.85512" lon="4.80568">
        <ele>260.20001220703</ele>
        <time>2019-08-17T07:42:02.000Z</time>
      </trkpt>
      <trkpt lat="45.8551" lon="4.80564">
        <ele>260.60000610352</ele>
        <time>2019-08-17T07:42:03.000Z</time>
      </trkpt>
      <trkpt lat="45.85504" lon="4.80552">
        <ele>260.60000610352</ele>
        <time>2019-08-17T07:42:06.000Z</time>
      </trkpt>
      <trkpt lat="45.855" lon="4.80544">
        <ele>261</ele>
        <time>2019-08-17T07:42:08.000Z</time>
      </trkpt>
      <trkpt lat="45.85499" lon="4.80539">
        <ele>261.60000610352</ele>
        <time>2019-08-17T07:42:09.000Z</time>
      </trkpt>
      <trkpt lat="45.85497" lon="4.80535">
        <ele>262</ele>
        <time>2019-08-17T07:42:10.000Z</time>
      </trkpt>
      <trkpt lat="45.85496" lon="4.80531">
        <ele>262.39999389648</ele>
        <time>2019-08-17T07:42:11.000Z</time>
      </trkpt>
      <trkpt lat="45.85494" lon="4.80527">
        <ele>262.79998779297</ele>
        <time>2019-08-17T07:42:12.000Z</time>
      </trkpt>
      <trkpt lat="45.85491" lon="4.80518">
        <ele>262.79998779297</ele>
        <time>2019-08-17T07:42:14.000Z</time>
      </trkpt>
      <trkpt lat="45.85487" lon="4.805">
        <ele>263.20001220703</ele>
        <time>2019-08-17T07:42:19.000Z</time>
      </trkpt>
      <trkpt lat="45.85486" lon="4.80498">
        <ele>263.60000610352</ele>
        <time>2019-08-17T07:42:20.000Z</time>
      </trkpt>
      <trkpt lat="45.85485" lon="4.80496">
        <ele>264</ele>
        <time>2019-08-17T07:42:21.000Z</time>
      </trkpt>
      <trkpt lat="45.85484" lon="4.80494">
        <ele>264.39999389648</ele>
        <time>2019-08-17T07:42:22.000Z</time>
      </trkpt>
      <trkpt lat="45.85482" lon="4.80493">
        <ele>264.79998779297</ele>
        <time>2019-08-17T07:42:23.000Z</time>
      </trkpt>
      <trkpt lat="45.85478" lon="4.80494">
        <ele>264.79998779297</ele>
        <time>2019-08-17T07:42:25.000Z</time>
      </trkpt>
      <trkpt lat="45.85473" lon="4.80507">
        <ele>264.79998779297</ele>
        <time>2019-08-17T07:42:29.000Z</time>
      </trkpt>
      <trkpt lat="45.85471" lon="4.80528">
        <ele>264.79998779297</ele>
        <time>2019-08-17T07:42:34.000Z</time>
      </trkpt>
      <trkpt lat="45.85472" lon="4.80537">
        <ele>265.20001220703</ele>
        <time>2019-08-17T07:42:36.000Z</time>
      </trkpt>
      <trkpt lat="45.85472" lon="4.80542">
        <ele>265.60000610352</ele>
        <time>2019-08-17T07:42:37.000Z</time>
      </trkpt>
      <trkpt lat="45.85472" lon="4.80547">
        <ele>266</ele>
        <time>2019-08-17T07:42:38.000Z</time>
      </trkpt>
      <trkpt lat="45.85472" lon="4.80552">
        <ele>266.39999389648</ele>
        <time>2019-08-17T07:42:39.000Z</time>
      </trkpt>
      <trkpt lat="45.85473" lon="4.80556">
        <ele>266.79998779297</ele>
        <time>2019-08-17T07:42:40.000Z</time>
      </trkpt>
      <trkpt lat="45.85474" lon="4.80565">
        <ele>266.79998779297</ele>
        <time>2019-08-17T07:42:42.000Z</time>
      </trkpt>
      <trkpt lat="45.85475" lon="4.80596">
        <ele>266.79998779297</ele>
        <time>2019-08-17T07:42:49.000Z</time>
      </trkpt>
      <trkpt lat="45.85478" lon="4.80608">
        <ele>267.20001220703</ele>
        <time>2019-08-17T07:42:52.000Z</time>
      </trkpt>
      <trkpt lat="45.85479" lon="4.80612">
        <ele>267.60000610352</ele>
        <time>2019-08-17T07:42:53.000Z</time>
      </trkpt>
      <trkpt lat="45.85481" lon="4.80617">
        <ele>268</ele>
        <time>2019-08-17T07:42:54.000Z</time>
      </trkpt>
      <trkpt lat="45.85483" lon="4.80622">
        <ele>268.39999389648</ele>
        <time>2019-08-17T07:42:55.000Z</time>
      </trkpt>
      <trkpt lat="45.85485" lon="4.80628">
        <ele>268.79998779297</ele>
        <time>2019-08-17T07:42:56.000Z</time>
      </trkpt>
      <trkpt lat="45.8549" lon="4.80653">
        <ele>268.79998779297</ele>
        <time>2019-08-17T07:43:00.000Z</time>
      </trkpt>
      <trkpt lat="45.85491" lon="4.80659">
        <ele>268.79998779297</ele>
        <time>2019-08-17T07:43:01.000Z</time>
      </trkpt>
      <trkpt lat="45.85495" lon="4.80684">
        <ele>268.79998779297</ele>
        <time>2019-08-17T07:43:06.000Z</time>
      </trkpt>
      <trkpt lat="45.85497" lon="4.80691">
        <ele>268.79998779297</ele>
        <time>2019-08-17T07:43:10.000Z</time>
      </trkpt>
      <trkpt lat="45.85503" lon="4.80703">
        <ele>268.79998779297</ele>
        <time>2019-08-17T07:43:15.000Z</time>
      </trkpt>
      <trkpt lat="45.85508" lon="4.80716">
        <ele>269.39999389648</ele>
        <time>2019-08-17T07:43:18.000Z</time>
      </trkpt>
      <trkpt lat="45.85509" lon="4.8072">
        <ele>269.79998779297</ele>
        <time>2019-08-17T07:43:19.000Z</time>
      </trkpt>
      <trkpt lat="45.85511" lon="4.80725">
        <ele>270.20001220703</ele>
        <time>2019-08-17T07:43:20.000Z</time>
      </trkpt>
      <trkpt lat="45.85512" lon="4.80729">
        <ele>270.60000610352</ele>
        <time>2019-08-17T07:43:21.000Z</time>
      </trkpt>
      <trkpt lat="45.85513" lon="4.80734">
        <ele>271</ele>
        <time>2019-08-17T07:43:22.000Z</time>
      </trkpt>
      <trkpt lat="45.85518" lon="4.80753">
        <ele>271.39999389648</ele>
        <time>2019-08-17T07:43:27.000Z</time>
      </trkpt>
      <trkpt lat="45.85519" lon="4.80757">
        <ele>271.79998779297</ele>
        <time>2019-08-17T07:43:28.000Z</time>
      </trkpt>
      <trkpt lat="45.85521" lon="4.80761">
        <ele>272.39999389648</ele>
        <time>2019-08-17T07:43:29.000Z</time>
      </trkpt>
      <trkpt lat="45.85522" lon="4.80765">
        <ele>272.79998779297</ele>
        <time>2019-08-17T07:43:30.000Z</time>
      </trkpt>
      <trkpt lat="45.85524" lon="4.80769">
        <ele>273.20001220703</ele>
        <time>2019-08-17T07:43:31.000Z</time>
      </trkpt>
      <trkpt lat="45.85528" lon="4.80779">
        <ele>273.20001220703</ele>
        <time>2019-08-17T07:43:33.000Z</time>
      </trkpt>
      <trkpt lat="45.85542" lon="4.80805">
        <ele>273.20001220703</ele>
        <time>2019-08-17T07:43:40.000Z</time>
      </trkpt>
      <trkpt lat="45.85554" lon="4.80835">
        <ele>273.20001220703</ele>
        <time>2019-08-17T07:43:47.000Z</time>
      </trkpt>
      <trkpt lat="45.85561" lon="4.80867">
        <ele>273.20001220703</ele>
        <time>2019-08-17T07:43:54.000Z</time>
      </trkpt>
      <trkpt lat="45.8556" lon="4.80875">
        <ele>273.60000610352</ele>
        <time>2019-08-17T07:43:56.000Z</time>
      </trkpt>
      <trkpt lat="45.8556" lon="4.80879">
        <ele>274</ele>
        <time>2019-08-17T07:43:57.000Z</time>
      </trkpt>
      <trkpt lat="45.85559" lon="4.80882">
        <ele>274.39999389648</ele>
        <time>2019-08-17T07:43:58.000Z</time>
      </trkpt>
      <trkpt lat="45.85559" lon="4.80886">
        <ele>274.79998779297</ele>
        <time>2019-08-17T07:43:59.000Z</time>
      </trkpt>
      <trkpt lat="45.85558" lon="4.80889">
        <ele>275.20001220703</ele>
        <time>2019-08-17T07:44:00.000Z</time>
      </trkpt>
      <trkpt lat="45.85553" lon="4.80899">
        <ele>275.60000610352</ele>
        <time>2019-08-17T07:44:04.000Z</time>
      </trkpt>
      <trkpt lat="45.85551" lon="4.80901">
        <ele>276</ele>
        <time>2019-08-17T07:44:05.000Z</time>
      </trkpt>
      <trkpt lat="45.85549" lon="4.80902">
        <ele>277</ele>
        <time>2019-08-17T07:44:06.000Z</time>
      </trkpt>
      <trkpt lat="45.85547" lon="4.80903">
        <ele>277.39999389648</ele>
        <time>2019-08-17T07:44:07.000Z</time>
      </trkpt>
      <trkpt lat="45.8554" lon="4.80904">
        <ele>277.79998779297</ele>
        <time>2019-08-17T07:44:10.000Z</time>
      </trkpt>
      <trkpt lat="45.85537" lon="4.80904">
        <ele>278.20001220703</ele>
        <time>2019-08-17T07:44:11.000Z</time>
      </trkpt>
      <trkpt lat="45.85534" lon="4.80903">
        <ele>278.79998779297</ele>
        <time>2019-08-17T07:44:12.000Z</time>
      </trkpt>
      <trkpt lat="45.85532" lon="4.80901">
        <ele>279.20001220703</ele>
        <time>2019-08-17T07:44:13.000Z</time>
      </trkpt>
      <trkpt lat="45.8553" lon="4.80899">
        <ele>279.60000610352</ele>
        <time>2019-08-17T07:44:14.000Z</time>
      </trkpt>
      <trkpt lat="45.85524" lon="4.80891">
        <ele>280</ele>
        <time>2019-08-17T07:44:17.000Z</time>
      </trkpt>
      <trkpt lat="45.85522" lon="4.80888">
        <ele>280.60000610352</ele>
        <time>2019-08-17T07:44:18.000Z</time>
      </trkpt>
      <trkpt lat="45.85521" lon="4.80885">
        <ele>281</ele>
        <time>2019-08-17T07:44:19.000Z</time>
      </trkpt>
      <trkpt lat="45.85519" lon="4.80883">
        <ele>281.39999389648</ele>
        <time>2019-08-17T07:44:20.000Z</time>
      </trkpt>
      <trkpt lat="45.85517" lon="4.8088">
        <ele>281.79998779297</ele>
        <time>2019-08-17T07:44:21.000Z</time>
      </trkpt>
      <trkpt lat="45.85512" lon="4.80868">
        <ele>281.79998779297</ele>
        <time>2019-08-17T07:44:25.000Z</time>
      </trkpt>
      <trkpt lat="45.85507" lon="4.8086">
        <ele>282.20001220703</ele>
        <time>2019-08-17T07:44:28.000Z</time>
      </trkpt>
      <trkpt lat="45.85506" lon="4.80858">
        <ele>282.60000610352</ele>
        <time>2019-08-17T07:44:29.000Z</time>
      </trkpt>
      <trkpt lat="45.85505" lon="4.80855">
        <ele>283</ele>
        <time>2019-08-17T07:44:30.000Z</time>
      </trkpt>
      <trkpt lat="45.85504" lon="4.80852">
        <ele>283.60000610352</ele>
        <time>2019-08-17T07:44:31.000Z</time>
      </trkpt>
      <trkpt lat="45.85502" lon="4.80849">
        <ele>284</ele>
        <time>2019-08-17T07:44:32.000Z</time>
      </trkpt>
      <trkpt lat="45.85501" lon="4.80847">
        <ele>284</ele>
        <time>2019-08-17T07:44:33.000Z</time>
      </trkpt>
      <trkpt lat="45.85497" lon="4.80838">
        <ele>284.39999389648</ele>
        <time>2019-08-17T07:44:36.000Z</time>
      </trkpt>
      <trkpt lat="45.85496" lon="4.80835">
        <ele>284.79998779297</ele>
        <time>2019-08-17T07:44:37.000Z</time>
      </trkpt>
      <trkpt lat="45.85495" lon="4.80832">
        <ele>285.20001220703</ele>
        <time>2019-08-17T07:44:38.000Z</time>
      </trkpt>
      <trkpt lat="45.85494" lon="4.80829">
        <ele>285.60000610352</ele>
        <time>2019-08-17T07:44:39.000Z</time>
      </trkpt>
      <trkpt lat="45.85493" lon="4.80826">
        <ele>286</ele>
        <time>2019-08-17T07:44:40.000Z</time>
      </trkpt>
      <trkpt lat="45.85492" lon="4.80823">
        <ele>286</ele>
        <time>2019-08-17T07:44:41.000Z</time>
      </trkpt>
      <trkpt lat="45.8549" lon="4.80813">
        <ele>286.60000610352</ele>
        <time>2019-08-17T07:44:44.000Z</time>
      </trkpt>
      <trkpt lat="45.85489" lon="4.8081">
        <ele>287</ele>
        <time>2019-08-17T07:44:45.000Z</time>
      </trkpt>
      <trkpt lat="45.85488" lon="4.80806">
        <ele>287.39999389648</ele>
        <time>2019-08-17T07:44:46.000Z</time>
      </trkpt>
      <trkpt lat="45.85487" lon="4.80803">
        <ele>287.79998779297</ele>
        <time>2019-08-17T07:44:47.000Z</time>
      </trkpt>
      <trkpt lat="45.85486" lon="4.80799">
        <ele>288.20001220703</ele>
        <time>2019-08-17T07:44:48.000Z</time>
      </trkpt>
      <trkpt lat="45.85481" lon="4.80789">
        <ele>288.60000610352</ele>
        <time>2019-08-17T07:44:52.000Z</time>
      </trkpt>
      <trkpt lat="45.85479" lon="4.80787">
        <ele>289</ele>
        <time>2019-08-17T07:44:53.000Z</time>
      </trkpt>
      <trkpt lat="45.85477" lon="4.80785">
        <ele>289.39999389648</ele>
        <time>2019-08-17T07:44:54.000Z</time>
      </trkpt>
      <trkpt lat="45.85476" lon="4.80783">
        <ele>289.79998779297</ele>
        <time>2019-08-17T07:44:55.000Z</time>
      </trkpt>
      <trkpt lat="45.85474" lon="4.8078">
        <ele>290.20001220703</ele>
        <time>2019-08-17T07:44:56.000Z</time>
      </trkpt>
      <trkpt lat="45.85464" lon="4.8077">
        <ele>290.60000610352</ele>
        <time>2019-08-17T07:45:01.000Z</time>
      </trkpt>
      <trkpt lat="45.85462" lon="4.80768">
        <ele>291.20001220703</ele>
        <time>2019-08-17T07:45:02.000Z</time>
      </trkpt>
      <trkpt lat="45.8546" lon="4.80766">
        <ele>291.60000610352</ele>
        <time>2019-08-17T07:45:03.000Z</time>
      </trkpt>
      <trkpt lat="45.85458" lon="4.80764">
        <ele>292</ele>
        <time>2019-08-17T07:45:04.000Z</time>
      </trkpt>
      <trkpt lat="45.85456" lon="4.80763">
        <ele>292.60000610352</ele>
        <time>2019-08-17T07:45:05.000Z</time>
      </trkpt>
      <trkpt lat="45.85449" lon="4.80758">
        <ele>292.60000610352</ele>
        <time>2019-08-17T07:45:08.000Z</time>
      </trkpt>
      <trkpt lat="45.85447" lon="4.80757">
        <ele>293</ele>
        <time>2019-08-17T07:45:09.000Z</time>
      </trkpt>
      <trkpt lat="45.85444" lon="4.80755">
        <ele>293.39999389648</ele>
        <time>2019-08-17T07:45:10.000Z</time>
      </trkpt>
      <trkpt lat="45.85442" lon="4.80755">
        <ele>293.79998779297</ele>
        <time>2019-08-17T07:45:11.000Z</time>
      </trkpt>
      <trkpt lat="45.85439" lon="4.80754">
        <ele>294.20001220703</ele>
        <time>2019-08-17T07:45:12.000Z</time>
      </trkpt>
      <trkpt lat="45.85437" lon="4.80753">
        <ele>294.60000610352</ele>
        <time>2019-08-17T07:45:13.000Z</time>
      </trkpt>
      <trkpt lat="45.85435" lon="4.80752">
        <ele>294.60000610352</ele>
        <time>2019-08-17T07:45:14.000Z</time>
      </trkpt>
      <trkpt lat="45.85427" lon="4.80749">
        <ele>295</ele>
        <time>2019-08-17T07:45:17.000Z</time>
      </trkpt>
      <trkpt lat="45.85424" lon="4.80747">
        <ele>295.39999389648</ele>
        <time>2019-08-17T07:45:18.000Z</time>
      </trkpt>
      <trkpt lat="45.85422" lon="4.80745">
        <ele>295.79998779297</ele>
        <time>2019-08-17T07:45:19.000Z</time>
      </trkpt>
      <trkpt lat="45.8542" lon="4.80742">
        <ele>296.20001220703</ele>
        <time>2019-08-17T07:45:20.000Z</time>
      </trkpt>
      <trkpt lat="45.85418" lon="4.80738">
        <ele>296.60000610352</ele>
        <time>2019-08-17T07:45:21.000Z</time>
      </trkpt>
      <trkpt lat="45.85414" lon="4.80727">
        <ele>296.60000610352</ele>
        <time>2019-08-17T07:45:24.000Z</time>
      </trkpt>
      <trkpt lat="45.85407" lon="4.80713">
        <ele>297</ele>
        <time>2019-08-17T07:45:28.000Z</time>
      </trkpt>
      <trkpt lat="45.85405" lon="4.8071">
        <ele>297.39999389648</ele>
        <time>2019-08-17T07:45:29.000Z</time>
      </trkpt>
      <trkpt lat="45.85403" lon="4.80707">
        <ele>298</ele>
        <time>2019-08-17T07:45:30.000Z</time>
      </trkpt>
      <trkpt lat="45.85401" lon="4.80704">
        <ele>298.39999389648</ele>
        <time>2019-08-17T07:45:31.000Z</time>
      </trkpt>
      <trkpt lat="45.85398" lon="4.80701">
        <ele>298.79998779297</ele>
        <time>2019-08-17T07:45:32.000Z</time>
      </trkpt>
      <trkpt lat="45.85377" lon="4.80682">
        <ele>298.79998779297</ele>
        <time>2019-08-17T07:45:41.000Z</time>
      </trkpt>
      <trkpt lat="45.85373" lon="4.80678">
        <ele>299.20001220703</ele>
        <time>2019-08-17T07:45:43.000Z</time>
      </trkpt>
      <trkpt lat="45.8537" lon="4.80677">
        <ele>299.60000610352</ele>
        <time>2019-08-17T07:45:44.000Z</time>
      </trkpt>
      <trkpt lat="45.85368" lon="4.80676">
        <ele>300</ele>
        <time>2019-08-17T07:45:45.000Z</time>
      </trkpt>
      <trkpt lat="45.85366" lon="4.80674">
        <ele>300.79998779297</ele>
        <time>2019-08-17T07:45:46.000Z</time>
      </trkpt>
      <trkpt lat="45.85363" lon="4.80673">
        <ele>300.79998779297</ele>
        <time>2019-08-17T07:45:47.000Z</time>
      </trkpt>
      <trkpt lat="45.85351" lon="4.80678">
        <ele>301.20001220703</ele>
        <time>2019-08-17T07:45:52.000Z</time>
      </trkpt>
      <trkpt lat="45.85349" lon="4.80681">
        <ele>301.60000610352</ele>
        <time>2019-08-17T07:45:53.000Z</time>
      </trkpt>
      <trkpt lat="45.85347" lon="4.80685">
        <ele>302.20001220703</ele>
        <time>2019-08-17T07:45:54.000Z</time>
      </trkpt>
      <trkpt lat="45.85346" lon="4.80689">
        <ele>302.60000610352</ele>
        <time>2019-08-17T07:45:55.000Z</time>
      </trkpt>
      <trkpt lat="45.85346" lon="4.80693">
        <ele>303</ele>
        <time>2019-08-17T07:45:56.000Z</time>
      </trkpt>
      <trkpt lat="45.85349" lon="4.80701">
        <ele>303</ele>
        <time>2019-08-17T07:45:58.000Z</time>
      </trkpt>
      <trkpt lat="45.85352" lon="4.80709">
        <ele>303</ele>
        <time>2019-08-17T07:46:00.000Z</time>
      </trkpt>
      <trkpt lat="45.85352" lon="4.80722">
        <ele>303</ele>
        <time>2019-08-17T07:46:04.000Z</time>
      </trkpt>
      <trkpt lat="45.85349" lon="4.80722">
        <ele>303</ele>
        <time>2019-08-17T07:46:05.000Z</time>
      </trkpt>
      <trkpt lat="45.85347" lon="4.80721">
        <ele>303.39999389648</ele>
        <time>2019-08-17T07:46:06.000Z</time>
      </trkpt>
      <trkpt lat="45.85345" lon="4.80719">
        <ele>303.79998779297</ele>
        <time>2019-08-17T07:46:07.000Z</time>
      </trkpt>
      <trkpt lat="45.85344" lon="4.80716">
        <ele>304.20001220703</ele>
        <time>2019-08-17T07:46:08.000Z</time>
      </trkpt>
      <trkpt lat="45.85343" lon="4.80713">
        <ele>304.79998779297</ele>
        <time>2019-08-17T07:46:09.000Z</time>
      </trkpt>
      <trkpt lat="45.85341" lon="4.8071">
        <ele>305.20001220703</ele>
        <time>2019-08-17T07:46:10.000Z</time>
      </trkpt>
      <trkpt lat="45.85333" lon="4.80695">
        <ele>305.20001220703</ele>
        <time>2019-08-17T07:46:15.000Z</time>
      </trkpt>
      <trkpt lat="45.85331" lon="4.80692">
        <ele>305.60000610352</ele>
        <time>2019-08-17T07:46:16.000Z</time>
      </trkpt>
      <trkpt lat="45.8533" lon="4.80689">
        <ele>306</ele>
        <time>2019-08-17T07:46:17.000Z</time>
      </trkpt>
      <trkpt lat="45.85329" lon="4.80686">
        <ele>306.39999389648</ele>
        <time>2019-08-17T07:46:18.000Z</time>
      </trkpt>
      <trkpt lat="45.85328" lon="4.80683">
        <ele>306.79998779297</ele>
        <time>2019-08-17T07:46:19.000Z</time>
      </trkpt>
      <trkpt lat="45.85326" lon="4.8068">
        <ele>307.20001220703</ele>
        <time>2019-08-17T07:46:20.000Z</time>
      </trkpt>
      <trkpt lat="45.85323" lon="4.80675">
        <ele>307.20001220703</ele>
        <time>2019-08-17T07:46:22.000Z</time>
      </trkpt>
      <trkpt lat="45.85313" lon="4.80658">
        <ele>307.60000610352</ele>
        <time>2019-08-17T07:46:28.000Z</time>
      </trkpt>
      <trkpt lat="45.85312" lon="4.80655">
        <ele>308</ele>
        <time>2019-08-17T07:46:29.000Z</time>
      </trkpt>
      <trkpt lat="45.85311" lon="4.80652">
        <ele>308.39999389648</ele>
        <time>2019-08-17T07:46:30.000Z</time>
      </trkpt>
      <trkpt lat="45.8531" lon="4.8065">
        <ele>308.79998779297</ele>
        <time>2019-08-17T07:46:31.000Z</time>
      </trkpt>
      <trkpt lat="45.85308" lon="4.80647">
        <ele>309.20001220703</ele>
        <time>2019-08-17T07:46:32.000Z</time>
      </trkpt>
      <trkpt lat="45.85303" lon="4.80627">
        <ele>309.60000610352</ele>
        <time>2019-08-17T07:46:38.000Z</time>
      </trkpt>
      <trkpt lat="45.85302" lon="4.80624">
        <ele>310.20001220703</ele>
        <time>2019-08-17T07:46:39.000Z</time>
      </trkpt>
      <trkpt lat="45.85301" lon="4.80621">
        <ele>310.60000610352</ele>
        <time>2019-08-17T07:46:40.000Z</time>
      </trkpt>
      <trkpt lat="45.85301" lon="4.80618">
        <ele>311</ele>
        <time>2019-08-17T07:46:41.000Z</time>
      </trkpt>
      <trkpt lat="45.853" lon="4.80615">
        <ele>311.39999389648</ele>
        <time>2019-08-17T07:46:42.000Z</time>
      </trkpt>
      <trkpt lat="45.85295" lon="4.80601">
        <ele>311.39999389648</ele>
        <time>2019-08-17T07:46:47.000Z</time>
      </trkpt>
      <trkpt lat="45.85294" lon="4.80598">
        <ele>311.79998779297</ele>
        <time>2019-08-17T07:46:48.000Z</time>
      </trkpt>
      <trkpt lat="45.85293" lon="4.80595">
        <ele>312.20001220703</ele>
        <time>2019-08-17T07:46:49.000Z</time>
      </trkpt>
      <trkpt lat="45.85292" lon="4.80592">
        <ele>312.60000610352</ele>
        <time>2019-08-17T07:46:50.000Z</time>
      </trkpt>
      <trkpt lat="45.85291" lon="4.8059">
        <ele>313</ele>
        <time>2019-08-17T07:46:51.000Z</time>
      </trkpt>
      <trkpt lat="45.8529" lon="4.80587">
        <ele>313.39999389648</ele>
        <time>2019-08-17T07:46:52.000Z</time>
      </trkpt>
      <trkpt lat="45.85289" lon="4.80582">
        <ele>313.39999389648</ele>
        <time>2019-08-17T07:46:54.000Z</time>
      </trkpt>
      <trkpt lat="45.85284" lon="4.80568">
        <ele>313.79998779297</ele>
        <time>2019-08-17T07:46:58.000Z</time>
      </trkpt>
      <trkpt lat="45.85283" lon="4.80565">
        <ele>314.20001220703</ele>
        <time>2019-08-17T07:46:59.000Z</time>
      </trkpt>
      <trkpt lat="45.85282" lon="4.80562">
        <ele>315.20001220703</ele>
        <time>2019-08-17T07:47:00.000Z</time>
      </trkpt>
      <trkpt lat="45.85281" lon="4.80559">
        <ele>315.60000610352</ele>
        <time>2019-08-17T07:47:01.000Z</time>
      </trkpt>
      <trkpt lat="45.85278" lon="4.80546">
        <ele>316</ele>
        <time>2019-08-17T07:47:06.000Z</time>
      </trkpt>
      <trkpt lat="45.85278" lon="4.80543">
        <ele>316.39999389648</ele>
        <time>2019-08-17T07:47:07.000Z</time>
      </trkpt>
      <trkpt lat="45.85277" lon="4.8054">
        <ele>316.79998779297</ele>
        <time>2019-08-17T07:47:08.000Z</time>
      </trkpt>
      <trkpt lat="45.85277" lon="4.80537">
        <ele>317.20001220703</ele>
        <time>2019-08-17T07:47:09.000Z</time>
      </trkpt>
      <trkpt lat="45.85277" lon="4.80534">
        <ele>317.60000610352</ele>
        <time>2019-08-17T07:47:10.000Z</time>
      </trkpt>
      <trkpt lat="45.85275" lon="4.80519">
        <ele>318</ele>
        <time>2019-08-17T07:47:15.000Z</time>
      </trkpt>
      <trkpt lat="45.85275" lon="4.80516">
        <ele>318.60000610352</ele>
        <time>2019-08-17T07:47:16.000Z</time>
      </trkpt>
      <trkpt lat="45.85275" lon="4.80512">
        <ele>319</ele>
        <time>2019-08-17T07:47:17.000Z</time>
      </trkpt>
      <trkpt lat="45.85275" lon="4.80509">
        <ele>319.39999389648</ele>
        <time>2019-08-17T07:47:18.000Z</time>
      </trkpt>
      <trkpt lat="45.85274" lon="4.80506">
        <ele>319.79998779297</ele>
        <time>2019-08-17T07:47:19.000Z</time>
      </trkpt>
      <trkpt lat="45.85272" lon="4.80495">
        <ele>320.20001220703</ele>
        <time>2019-08-17T07:47:23.000Z</time>
      </trkpt>
      <trkpt lat="45.85272" lon="4.80492">
        <ele>321</ele>
        <time>2019-08-17T07:47:24.000Z</time>
      </trkpt>
      <trkpt lat="45.85271" lon="4.8049">
        <ele>321.60000610352</ele>
        <time>2019-08-17T07:47:25.000Z</time>
      </trkpt>
      <trkpt lat="45.8527" lon="4.80487">
        <ele>322</ele>
        <time>2019-08-17T07:47:26.000Z</time>
      </trkpt>
      <trkpt lat="45.85266" lon="4.80477">
        <ele>322</ele>
        <time>2019-08-17T07:47:30.000Z</time>
      </trkpt>
      <trkpt lat="45.85264" lon="4.8047">
        <ele>322.39999389648</ele>
        <time>2019-08-17T07:47:33.000Z</time>
      </trkpt>
      <trkpt lat="45.85264" lon="4.80468">
        <ele>322.79998779297</ele>
        <time>2019-08-17T07:47:34.000Z</time>
      </trkpt>
      <trkpt lat="45.85262" lon="4.80466">
        <ele>323.20001220703</ele>
        <time>2019-08-17T07:47:35.000Z</time>
      </trkpt>
      <trkpt lat="45.85261" lon="4.80464">
        <ele>323.60000610352</ele>
        <time>2019-08-17T07:47:36.000Z</time>
      </trkpt>
      <trkpt lat="45.8526" lon="4.80462">
        <ele>324</ele>
        <time>2019-08-17T07:47:37.000Z</time>
      </trkpt>
      <trkpt lat="45.85254" lon="4.80455">
        <ele>324.39999389648</ele>
        <time>2019-08-17T07:47:41.000Z</time>
      </trkpt>
      <trkpt lat="45.85252" lon="4.80454">
        <ele>324.79998779297</ele>
        <time>2019-08-17T07:47:42.000Z</time>
      </trkpt>
      <trkpt lat="45.8525" lon="4.80453">
        <ele>325.20001220703</ele>
        <time>2019-08-17T07:47:43.000Z</time>
      </trkpt>
      <trkpt lat="45.85248" lon="4.80451">
        <ele>325.60000610352</ele>
        <time>2019-08-17T07:47:44.000Z</time>
      </trkpt>
      <trkpt lat="45.85246" lon="4.8045">
        <ele>326</ele>
        <time>2019-08-17T07:47:45.000Z</time>
      </trkpt>
      <trkpt lat="45.85238" lon="4.80448">
        <ele>326</ele>
        <time>2019-08-17T07:47:48.000Z</time>
      </trkpt>
      <trkpt lat="45.85236" lon="4.80448">
        <ele>327</ele>
        <time>2019-08-17T07:47:49.000Z</time>
      </trkpt>
      <trkpt lat="45.85233" lon="4.80449">
        <ele>327.39999389648</ele>
        <time>2019-08-17T07:47:50.000Z</time>
      </trkpt>
      <trkpt lat="45.85231" lon="4.80451">
        <ele>327.79998779297</ele>
        <time>2019-08-17T07:47:51.000Z</time>
      </trkpt>
      <trkpt lat="45.8523" lon="4.80453">
        <ele>328.20001220703</ele>
        <time>2019-08-17T07:47:52.000Z</time>
      </trkpt>
      <trkpt lat="45.85226" lon="4.80457">
        <ele>328.20001220703</ele>
        <time>2019-08-17T07:47:54.000Z</time>
      </trkpt>
      <trkpt lat="45.85224" lon="4.80459">
        <ele>328.79998779297</ele>
        <time>2019-08-17T07:47:55.000Z</time>
      </trkpt>
      <trkpt lat="45.85223" lon="4.80462">
        <ele>329.20001220703</ele>
        <time>2019-08-17T07:47:56.000Z</time>
      </trkpt>
      <trkpt lat="45.85221" lon="4.80464">
        <ele>329.60000610352</ele>
        <time>2019-08-17T07:47:57.000Z</time>
      </trkpt>
      <trkpt lat="45.85219" lon="4.80466">
        <ele>330</ele>
        <time>2019-08-17T07:47:58.000Z</time>
      </trkpt>
      <trkpt lat="45.85217" lon="4.80468">
        <ele>330.39999389648</ele>
        <time>2019-08-17T07:47:59.000Z</time>
      </trkpt>
      <trkpt lat="45.85216" lon="4.80471">
        <ele>330.39999389648</ele>
        <time>2019-08-17T07:48:00.000Z</time>
      </trkpt>
      <trkpt lat="45.85204" lon="4.80487">
        <ele>330.79998779297</ele>
        <time>2019-08-17T07:48:07.000Z</time>
      </trkpt>
      <trkpt lat="45.85202" lon="4.8049">
        <ele>331.20001220703</ele>
        <time>2019-08-17T07:48:08.000Z</time>
      </trkpt>
      <trkpt lat="45.852" lon="4.80492">
        <ele>331.60000610352</ele>
        <time>2019-08-17T07:48:09.000Z</time>
      </trkpt>
      <trkpt lat="45.85199" lon="4.80495">
        <ele>332</ele>
        <time>2019-08-17T07:48:10.000Z</time>
      </trkpt>
      <trkpt lat="45.85197" lon="4.80498">
        <ele>332.39999389648</ele>
        <time>2019-08-17T07:48:11.000Z</time>
      </trkpt>
      <trkpt lat="45.85191" lon="4.80507">
        <ele>332.39999389648</ele>
        <time>2019-08-17T07:48:15.000Z</time>
      </trkpt>
      <trkpt lat="45.85188" lon="4.80512">
        <ele>333</ele>
        <time>2019-08-17T07:48:17.000Z</time>
      </trkpt>
      <trkpt lat="45.85186" lon="4.80515">
        <ele>333.39999389648</ele>
        <time>2019-08-17T07:48:18.000Z</time>
      </trkpt>
      <trkpt lat="45.85184" lon="4.80518">
        <ele>333.79998779297</ele>
        <time>2019-08-17T07:48:19.000Z</time>
      </trkpt>
      <trkpt lat="45.85182" lon="4.8052">
        <ele>334.20001220703</ele>
        <time>2019-08-17T07:48:20.000Z</time>
      </trkpt>
      <trkpt lat="45.85181" lon="4.80523">
        <ele>334.60000610352</ele>
        <time>2019-08-17T07:48:21.000Z</time>
      </trkpt>
      <trkpt lat="45.85172" lon="4.80541">
        <ele>335</ele>
        <time>2019-08-17T07:48:27.000Z</time>
      </trkpt>
      <trkpt lat="45.85171" lon="4.80544">
        <ele>335.39999389648</ele>
        <time>2019-08-17T07:48:28.000Z</time>
      </trkpt>
      <trkpt lat="45.8517" lon="4.80547">
        <ele>335.79998779297</ele>
        <time>2019-08-17T07:48:29.000Z</time>
      </trkpt>
      <trkpt lat="45.8517" lon="4.8055">
        <ele>336.20001220703</ele>
        <time>2019-08-17T07:48:30.000Z</time>
      </trkpt>
      <trkpt lat="45.85169" lon="4.80553">
        <ele>336.60000610352</ele>
        <time>2019-08-17T07:48:31.000Z</time>
      </trkpt>
      <trkpt lat="45.85167" lon="4.80559">
        <ele>336.60000610352</ele>
        <time>2019-08-17T07:48:33.000Z</time>
      </trkpt>
      <trkpt lat="45.85165" lon="4.80573">
        <ele>337</ele>
        <time>2019-08-17T07:48:37.000Z</time>
      </trkpt>
      <trkpt lat="45.85165" lon="4.80577">
        <ele>337.39999389648</ele>
        <time>2019-08-17T07:48:38.000Z</time>
      </trkpt>
      <trkpt lat="45.85165" lon="4.8058">
        <ele>338.20001220703</ele>
        <time>2019-08-17T07:48:39.000Z</time>
      </trkpt>
      <trkpt lat="45.85166" lon="4.80584">
        <ele>338.60000610352</ele>
        <time>2019-08-17T07:48:40.000Z</time>
      </trkpt>
      <trkpt lat="45.8517" lon="4.80609">
        <ele>338.60000610352</ele>
        <time>2019-08-17T07:48:47.000Z</time>
      </trkpt>
      <trkpt lat="45.85171" lon="4.80613">
        <ele>339</ele>
        <time>2019-08-17T07:48:48.000Z</time>
      </trkpt>
      <trkpt lat="45.85172" lon="4.80616">
        <ele>339.60000610352</ele>
        <time>2019-08-17T07:48:49.000Z</time>
      </trkpt>
      <trkpt lat="45.85173" lon="4.80619">
        <ele>340</ele>
        <time>2019-08-17T07:48:50.000Z</time>
      </trkpt>
      <trkpt lat="45.85174" lon="4.80622">
        <ele>340.39999389648</ele>
        <time>2019-08-17T07:48:51.000Z</time>
      </trkpt>
      <trkpt lat="45.85174" lon="4.80626">
        <ele>340.79998779297</ele>
        <time>2019-08-17T07:48:52.000Z</time>
      </trkpt>
      <trkpt lat="45.85176" lon="4.80636">
        <ele>340.79998779297</ele>
        <time>2019-08-17T07:48:55.000Z</time>
      </trkpt>
      <trkpt lat="45.85178" lon="4.80644">
        <ele>341.20001220703</ele>
        <time>2019-08-17T07:48:57.000Z</time>
      </trkpt>
      <trkpt lat="45.85179" lon="4.80648">
        <ele>341.79998779297</ele>
        <time>2019-08-17T07:48:58.000Z</time>
      </trkpt>
      <trkpt lat="45.85179" lon="4.80652">
        <ele>342.20001220703</ele>
        <time>2019-08-17T07:48:59.000Z</time>
      </trkpt>
      <trkpt lat="45.8518" lon="4.80655">
        <ele>342.60000610352</ele>
        <time>2019-08-17T07:49:00.000Z</time>
      </trkpt>
      <trkpt lat="45.8518" lon="4.80659">
        <ele>343</ele>
        <time>2019-08-17T07:49:01.000Z</time>
      </trkpt>
      <trkpt lat="45.85183" lon="4.80676">
        <ele>343.60000610352</ele>
        <time>2019-08-17T07:49:06.000Z</time>
      </trkpt>
      <trkpt lat="45.85183" lon="4.8068">
        <ele>344</ele>
        <time>2019-08-17T07:49:07.000Z</time>
      </trkpt>
      <trkpt lat="45.85184" lon="4.80684">
        <ele>344.39999389648</ele>
        <time>2019-08-17T07:49:08.000Z</time>
      </trkpt>
      <trkpt lat="45.85184" lon="4.80688">
        <ele>344.79998779297</ele>
        <time>2019-08-17T07:49:09.000Z</time>
      </trkpt>
      <trkpt lat="45.85185" lon="4.80691">
        <ele>345.39999389648</ele>
        <time>2019-08-17T07:49:10.000Z</time>
      </trkpt>
      <trkpt lat="45.85187" lon="4.80702">
        <ele>345.39999389648</ele>
        <time>2019-08-17T07:49:13.000Z</time>
      </trkpt>
      <trkpt lat="45.85188" lon="4.80708">
        <ele>345.79998779297</ele>
        <time>2019-08-17T07:49:15.000Z</time>
      </trkpt>
      <trkpt lat="45.85188" lon="4.80711">
        <ele>346.20001220703</ele>
        <time>2019-08-17T07:49:16.000Z</time>
      </trkpt>
      <trkpt lat="45.85188" lon="4.80715">
        <ele>346.60000610352</ele>
        <time>2019-08-17T07:49:17.000Z</time>
      </trkpt>
      <trkpt lat="45.85189" lon="4.80718">
        <ele>347</ele>
        <time>2019-08-17T07:49:18.000Z</time>
      </trkpt>
      <trkpt lat="45.85189" lon="4.80722">
        <ele>347.39999389648</ele>
        <time>2019-08-17T07:49:19.000Z</time>
      </trkpt>
      <trkpt lat="45.85191" lon="4.80745">
        <ele>347.79998779297</ele>
        <time>2019-08-17T07:49:25.000Z</time>
      </trkpt>
      <trkpt lat="45.85192" lon="4.80748">
        <ele>348.20001220703</ele>
        <time>2019-08-17T07:49:26.000Z</time>
      </trkpt>
      <trkpt lat="45.85192" lon="4.80752">
        <ele>348.60000610352</ele>
        <time>2019-08-17T07:49:27.000Z</time>
      </trkpt>
      <trkpt lat="45.85193" lon="4.80756">
        <ele>349.39999389648</ele>
        <time>2019-08-17T07:49:28.000Z</time>
      </trkpt>
      <trkpt lat="45.85192" lon="4.80768">
        <ele>349.39999389648</ele>
        <time>2019-08-17T07:49:31.000Z</time>
      </trkpt>
      <trkpt lat="45.85194" lon="4.80782">
        <ele>349.79998779297</ele>
        <time>2019-08-17T07:49:35.000Z</time>
      </trkpt>
      <trkpt lat="45.85195" lon="4.80785">
        <ele>350.39999389648</ele>
        <time>2019-08-17T07:49:36.000Z</time>
      </trkpt>
      <trkpt lat="45.85196" lon="4.80789">
        <ele>350.79998779297</ele>
        <time>2019-08-17T07:49:37.000Z</time>
      </trkpt>
      <trkpt lat="45.85196" lon="4.80793">
        <ele>351.20001220703</ele>
        <time>2019-08-17T07:49:38.000Z</time>
      </trkpt>
      <trkpt lat="45.85198" lon="4.80796">
        <ele>351.60000610352</ele>
        <time>2019-08-17T07:49:39.000Z</time>
      </trkpt>
      <trkpt lat="45.85201" lon="4.80804">
        <ele>351.60000610352</ele>
        <time>2019-08-17T07:49:41.000Z</time>
      </trkpt>
      <trkpt lat="45.85203" lon="4.80811">
        <ele>352.20001220703</ele>
        <time>2019-08-17T07:49:44.000Z</time>
      </trkpt>
      <trkpt lat="45.85203" lon="4.80813">
        <ele>352.60000610352</ele>
        <time>2019-08-17T07:49:45.000Z</time>
      </trkpt>
      <trkpt lat="45.85204" lon="4.80815">
        <ele>353</ele>
        <time>2019-08-17T07:49:46.000Z</time>
      </trkpt>
      <trkpt lat="45.85205" lon="4.80818">
        <ele>353.39999389648</ele>
        <time>2019-08-17T07:49:47.000Z</time>
      </trkpt>
      <trkpt lat="45.85205" lon="4.80821">
        <ele>353.79998779297</ele>
        <time>2019-08-17T07:49:48.000Z</time>
      </trkpt>
      <trkpt lat="45.85208" lon="4.80824">
        <ele>353.79998779297</ele>
        <time>2019-08-17T07:49:50.000Z</time>
      </trkpt>
      <trkpt lat="45.8521" lon="4.80828">
        <ele>353.79998779297</ele>
        <time>2019-08-17T07:49:52.000Z</time>
      </trkpt>
      <trkpt lat="45.85211" lon="4.8083">
        <ele>354.20001220703</ele>
        <time>2019-08-17T07:49:53.000Z</time>
      </trkpt>
      <trkpt lat="45.85212" lon="4.80833">
        <ele>354.60000610352</ele>
        <time>2019-08-17T07:49:54.000Z</time>
      </trkpt>
      <trkpt lat="45.85213" lon="4.80836">
        <ele>355</ele>
        <time>2019-08-17T07:49:55.000Z</time>
      </trkpt>
      <trkpt lat="45.85214" lon="4.80839">
        <ele>355.39999389648</ele>
        <time>2019-08-17T07:49:56.000Z</time>
      </trkpt>
      <trkpt lat="45.85215" lon="4.80841">
        <ele>355.79998779297</ele>
        <time>2019-08-17T07:49:57.000Z</time>
      </trkpt>
      <trkpt lat="45.85218" lon="4.80846">
        <ele>355.79998779297</ele>
        <time>2019-08-17T07:49:59.000Z</time>
      </trkpt>
      <trkpt lat="45.85224" lon="4.80856">
        <ele>356.20001220703</ele>
        <time>2019-08-17T07:50:03.000Z</time>
      </trkpt>
      <trkpt lat="45.85225" lon="4.80859">
        <ele>356.60000610352</ele>
        <time>2019-08-17T07:50:04.000Z</time>
      </trkpt>
      <trkpt lat="45.85225" lon="4.80862">
        <ele>357</ele>
        <time>2019-08-17T07:50:05.000Z</time>
      </trkpt>
      <trkpt lat="45.85225" lon="4.80864">
        <ele>357.39999389648</ele>
        <time>2019-08-17T07:50:06.000Z</time>
      </trkpt>
      <trkpt lat="45.85226" lon="4.80868">
        <ele>358</ele>
        <time>2019-08-17T07:50:07.000Z</time>
      </trkpt>
      <trkpt lat="45.85229" lon="4.80875">
        <ele>358</ele>
        <time>2019-08-17T07:50:10.000Z</time>
      </trkpt>
      <trkpt lat="45.85235" lon="4.8089">
        <ele>358.39999389648</ele>
        <time>2019-08-17T07:50:13.000Z</time>
      </trkpt>
      <trkpt lat="45.85236" lon="4.80893">
        <ele>358.79998779297</ele>
        <time>2019-08-17T07:50:14.000Z</time>
      </trkpt>
      <trkpt lat="45.85237" lon="4.80896">
        <ele>359.20001220703</ele>
        <time>2019-08-17T07:50:15.000Z</time>
      </trkpt>
      <trkpt lat="45.85237" lon="4.80899">
        <ele>359.60000610352</ele>
        <time>2019-08-17T07:50:16.000Z</time>
      </trkpt>
      <trkpt lat="45.85238" lon="4.80901">
        <ele>360</ele>
        <time>2019-08-17T07:50:17.000Z</time>
      </trkpt>
      <trkpt lat="45.85239" lon="4.80905">
        <ele>360</ele>
        <time>2019-08-17T07:50:18.000Z</time>
      </trkpt>
      <trkpt lat="45.85245" lon="4.80924">
        <ele>360.39999389648</ele>
        <time>2019-08-17T07:50:22.000Z</time>
      </trkpt>
      <trkpt lat="45.85246" lon="4.80927">
        <ele>361</ele>
        <time>2019-08-17T07:50:23.000Z</time>
      </trkpt>
      <trkpt lat="45.85247" lon="4.8093">
        <ele>361.39999389648</ele>
        <time>2019-08-17T07:50:24.000Z</time>
      </trkpt>
      <trkpt lat="45.85248" lon="4.80932">
        <ele>361.79998779297</ele>
        <time>2019-08-17T07:50:25.000Z</time>
      </trkpt>
      <trkpt lat="45.85249" lon="4.80935">
        <ele>362.20001220703</ele>
        <time>2019-08-17T07:50:26.000Z</time>
      </trkpt>
      <trkpt lat="45.85252" lon="4.80942">
        <ele>362.20001220703</ele>
        <time>2019-08-17T07:50:28.000Z</time>
      </trkpt>
      <trkpt lat="45.85261" lon="4.80956">
        <ele>362.60000610352</ele>
        <time>2019-08-17T07:50:32.000Z</time>
      </trkpt>
      <trkpt lat="45.85263" lon="4.8096">
        <ele>363.20001220703</ele>
        <time>2019-08-17T07:50:33.000Z</time>
      </trkpt>
      <trkpt lat="45.85266" lon="4.80963">
        <ele>363.60000610352</ele>
        <time>2019-08-17T07:50:34.000Z</time>
      </trkpt>
      <trkpt lat="45.85268" lon="4.80966">
        <ele>364</ele>
        <time>2019-08-17T07:50:35.000Z</time>
      </trkpt>
      <trkpt lat="45.8527" lon="4.80968">
        <ele>364.39999389648</ele>
        <time>2019-08-17T07:50:36.000Z</time>
      </trkpt>
      <trkpt lat="45.85274" lon="4.80977">
        <ele>364.39999389648</ele>
        <time>2019-08-17T07:50:39.000Z</time>
      </trkpt>
      <trkpt lat="45.85275" lon="4.8098">
        <ele>364.79998779297</ele>
        <time>2019-08-17T07:50:40.000Z</time>
      </trkpt>
      <trkpt lat="45.85275" lon="4.80983">
        <ele>365.20001220703</ele>
        <time>2019-08-17T07:50:41.000Z</time>
      </trkpt>
      <trkpt lat="45.85276" lon="4.80985">
        <ele>365.60000610352</ele>
        <time>2019-08-17T07:50:42.000Z</time>
      </trkpt>
      <trkpt lat="45.85275" lon="4.80986">
        <ele>366</ele>
        <time>2019-08-17T07:50:43.000Z</time>
      </trkpt>
      <trkpt lat="45.85275" lon="4.80988">
        <ele>366.60000610352</ele>
        <time>2019-08-17T07:50:44.000Z</time>
      </trkpt>
      <trkpt lat="45.85285" lon="4.81003">
        <ele>367</ele>
        <time>2019-08-17T07:50:49.000Z</time>
      </trkpt>
      <trkpt lat="45.85287" lon="4.81005">
        <ele>367.39999389648</ele>
        <time>2019-08-17T07:50:50.000Z</time>
      </trkpt>
      <trkpt lat="45.85289" lon="4.81009">
        <ele>367.79998779297</ele>
        <time>2019-08-17T07:50:51.000Z</time>
      </trkpt>
      <trkpt lat="45.85291" lon="4.81012">
        <ele>368.20001220703</ele>
        <time>2019-08-17T07:50:52.000Z</time>
      </trkpt>
      <trkpt lat="45.85294" lon="4.81017">
        <ele>368.60000610352</ele>
        <time>2019-08-17T07:50:53.000Z</time>
      </trkpt>
      <trkpt lat="45.853" lon="4.81025">
        <ele>368.60000610352</ele>
        <time>2019-08-17T07:50:55.000Z</time>
      </trkpt>
      <trkpt lat="45.85301" lon="4.8103">
        <ele>368.60000610352</ele>
        <time>2019-08-17T07:50:56.000Z</time>
      </trkpt>
      <trkpt lat="45.85305" lon="4.8104">
        <ele>369</ele>
        <time>2019-08-17T07:50:59.000Z</time>
      </trkpt>
      <trkpt lat="45.85307" lon="4.81043">
        <ele>369.39999389648</ele>
        <time>2019-08-17T07:51:00.000Z</time>
      </trkpt>
      <trkpt lat="45.85308" lon="4.81045">
        <ele>369.79998779297</ele>
        <time>2019-08-17T07:51:01.000Z</time>
      </trkpt>
      <trkpt lat="45.85309" lon="4.81049">
        <ele>370.39999389648</ele>
        <time>2019-08-17T07:51:02.000Z</time>
      </trkpt>
      <trkpt lat="45.85311" lon="4.81052">
        <ele>370.79998779297</ele>
        <time>2019-08-17T07:51:03.000Z</time>
      </trkpt>
      <trkpt lat="45.85314" lon="4.81056">
        <ele>370.79998779297</ele>
        <time>2019-08-17T07:51:05.000Z</time>
      </trkpt>
      <trkpt lat="45.85317" lon="4.81059">
        <ele>370.79998779297</ele>
        <time>2019-08-17T07:51:06.000Z</time>
      </trkpt>
      <trkpt lat="45.8532" lon="4.81066">
        <ele>371.20001220703</ele>
        <time>2019-08-17T07:51:08.000Z</time>
      </trkpt>
      <trkpt lat="45.85322" lon="4.81069">
        <ele>371.60000610352</ele>
        <time>2019-08-17T07:51:09.000Z</time>
      </trkpt>
      <trkpt lat="45.85324" lon="4.81072">
        <ele>372</ele>
        <time>2019-08-17T07:51:10.000Z</time>
      </trkpt>
      <trkpt lat="45.85325" lon="4.81075">
        <ele>372.60000610352</ele>
        <time>2019-08-17T07:51:11.000Z</time>
      </trkpt>
      <trkpt lat="45.85327" lon="4.81077">
        <ele>373</ele>
        <time>2019-08-17T07:51:12.000Z</time>
      </trkpt>
      <trkpt lat="45.85333" lon="4.81086">
        <ele>373</ele>
        <time>2019-08-17T07:51:16.000Z</time>
      </trkpt>
      <trkpt lat="45.85334" lon="4.81087">
        <ele>373.39999389648</ele>
        <time>2019-08-17T07:51:17.000Z</time>
      </trkpt>
      <trkpt lat="45.85338" lon="4.81091">
        <ele>373.79998779297</ele>
        <time>2019-08-17T07:51:18.000Z</time>
      </trkpt>
      <trkpt lat="45.85341" lon="4.81095">
        <ele>374.20001220703</ele>
        <time>2019-08-17T07:51:19.000Z</time>
      </trkpt>
      <trkpt lat="45.85343" lon="4.81098">
        <ele>374.60000610352</ele>
        <time>2019-08-17T07:51:20.000Z</time>
      </trkpt>
      <trkpt lat="45.85345" lon="4.81101">
        <ele>375</ele>
        <time>2019-08-17T07:51:21.000Z</time>
      </trkpt>
      <trkpt lat="45.85349" lon="4.81104">
        <ele>375</ele>
        <time>2019-08-17T07:51:22.000Z</time>
      </trkpt>
      <trkpt lat="45.85352" lon="4.81109">
        <ele>375</ele>
        <time>2019-08-17T07:51:23.000Z</time>
      </trkpt>
      <trkpt lat="45.8536" lon="4.81118">
        <ele>375.39999389648</ele>
        <time>2019-08-17T07:51:25.000Z</time>
      </trkpt>
      <trkpt lat="45.85363" lon="4.81122">
        <ele>375.79998779297</ele>
        <time>2019-08-17T07:51:26.000Z</time>
      </trkpt>
      <trkpt lat="45.85366" lon="4.81126">
        <ele>376.20001220703</ele>
        <time>2019-08-17T07:51:27.000Z</time>
      </trkpt>
      <trkpt lat="45.85368" lon="4.81131">
        <ele>376.60000610352</ele>
        <time>2019-08-17T07:51:28.000Z</time>
      </trkpt>
      <trkpt lat="45.85371" lon="4.81134">
        <ele>377</ele>
        <time>2019-08-17T07:51:29.000Z</time>
      </trkpt>
      <trkpt lat="45.85379" lon="4.81147">
        <ele>377.39999389648</ele>
        <time>2019-08-17T07:51:33.000Z</time>
      </trkpt>
      <trkpt lat="45.85382" lon="4.8115">
        <ele>378</ele>
        <time>2019-08-17T07:51:34.000Z</time>
      </trkpt>
      <trkpt lat="45.85383" lon="4.81153">
        <ele>378.39999389648</ele>
        <time>2019-08-17T07:51:35.000Z</time>
      </trkpt>
      <trkpt lat="45.85386" lon="4.81156">
        <ele>378.79998779297</ele>
        <time>2019-08-17T07:51:36.000Z</time>
      </trkpt>
      <trkpt lat="45.85389" lon="4.81159">
        <ele>379.20001220703</ele>
        <time>2019-08-17T07:51:37.000Z</time>
      </trkpt>
      <trkpt lat="45.85398" lon="4.8117">
        <ele>379.20001220703</ele>
        <time>2019-08-17T07:51:40.000Z</time>
      </trkpt>
      <trkpt lat="45.85403" lon="4.81176">
        <ele>379.60000610352</ele>
        <time>2019-08-17T07:51:42.000Z</time>
      </trkpt>
      <trkpt lat="45.85405" lon="4.81179">
        <ele>380</ele>
        <time>2019-08-17T07:51:43.000Z</time>
      </trkpt>
      <trkpt lat="45.85407" lon="4.81182">
        <ele>380.39999389648</ele>
        <time>2019-08-17T07:51:44.000Z</time>
      </trkpt>
      <trkpt lat="45.8541" lon="4.81184">
        <ele>380.79998779297</ele>
        <time>2019-08-17T07:51:45.000Z</time>
      </trkpt>
      <trkpt lat="45.85412" lon="4.81187">
        <ele>381.20001220703</ele>
        <time>2019-08-17T07:51:46.000Z</time>
      </trkpt>
      <trkpt lat="45.85421" lon="4.81197">
        <ele>381.60000610352</ele>
        <time>2019-08-17T07:51:51.000Z</time>
      </trkpt>
      <trkpt lat="45.85423" lon="4.81199">
        <ele>382</ele>
        <time>2019-08-17T07:51:52.000Z</time>
      </trkpt>
      <trkpt lat="45.85425" lon="4.81202">
        <ele>382.39999389648</ele>
        <time>2019-08-17T07:51:53.000Z</time>
      </trkpt>
      <trkpt lat="45.85427" lon="4.81204">
        <ele>382.79998779297</ele>
        <time>2019-08-17T07:51:54.000Z</time>
      </trkpt>
      <trkpt lat="45.85429" lon="4.81207">
        <ele>383.20001220703</ele>
        <time>2019-08-17T07:51:55.000Z</time>
      </trkpt>
      <trkpt lat="45.85438" lon="4.81218">
        <ele>383.60000610352</ele>
        <time>2019-08-17T07:51:59.000Z</time>
      </trkpt>
      <trkpt lat="45.85441" lon="4.81221">
        <ele>384.20001220703</ele>
        <time>2019-08-17T07:52:00.000Z</time>
      </trkpt>
      <trkpt lat="45.85444" lon="4.81225">
        <ele>384.60000610352</ele>
        <time>2019-08-17T07:52:01.000Z</time>
      </trkpt>
      <trkpt lat="45.85447" lon="4.81228">
        <ele>385</ele>
        <time>2019-08-17T07:52:02.000Z</time>
      </trkpt>
      <trkpt lat="45.8545" lon="4.81231">
        <ele>385.39999389648</ele>
        <time>2019-08-17T07:52:03.000Z</time>
      </trkpt>
      <trkpt lat="45.85461" lon="4.81242">
        <ele>385.39999389648</ele>
        <time>2019-08-17T07:52:07.000Z</time>
      </trkpt>
      <trkpt lat="45.85464" lon="4.81245">
        <ele>385.79998779297</ele>
        <time>2019-08-17T07:52:08.000Z</time>
      </trkpt>
      <trkpt lat="45.85467" lon="4.81249">
        <ele>386.20001220703</ele>
        <time>2019-08-17T07:52:09.000Z</time>
      </trkpt>
      <trkpt lat="45.85469" lon="4.81253">
        <ele>386.79998779297</ele>
        <time>2019-08-17T07:52:10.000Z</time>
      </trkpt>
      <trkpt lat="45.85473" lon="4.81256">
        <ele>387.20001220703</ele>
        <time>2019-08-17T07:52:11.000Z</time>
      </trkpt>
      <trkpt lat="45.85476" lon="4.8126">
        <ele>387.60000610352</ele>
        <time>2019-08-17T07:52:12.000Z</time>
      </trkpt>
      <trkpt lat="45.85488" lon="4.81268">
        <ele>387.60000610352</ele>
        <time>2019-08-17T07:52:13.000Z</time>
      </trkpt>
      <trkpt lat="45.855" lon="4.8128">
        <ele>388</ele>
        <time>2019-08-17T07:52:17.000Z</time>
      </trkpt>
      <trkpt lat="45.85501" lon="4.81282">
        <ele>388.39999389648</ele>
        <time>2019-08-17T07:52:18.000Z</time>
      </trkpt>
      <trkpt lat="45.85501" lon="4.81283">
        <ele>389.39999389648</ele>
        <time>2019-08-17T07:52:19.000Z</time>
      </trkpt>
      <trkpt lat="45.85502" lon="4.81285">
        <ele>389.79998779297</ele>
        <time>2019-08-17T07:52:20.000Z</time>
      </trkpt>
      <trkpt lat="45.85501" lon="4.81289">
        <ele>389.79998779297</ele>
        <time>2019-08-17T07:52:21.000Z</time>
      </trkpt>
      <trkpt lat="45.85501" lon="4.81289">
        <ele>389.79998779297</ele>
        <time>2019-08-17T07:52:22.000Z</time>
      </trkpt>
      <trkpt lat="45.855" lon="4.8129">
        <ele>389.79998779297</ele>
        <time>2019-08-17T07:52:23.000Z</time>
      </trkpt>
      <trkpt lat="45.855" lon="4.81286">
        <ele>389.79998779297</ele>
        <time>2019-08-17T07:52:26.000Z</time>
      </trkpt>
      <trkpt lat="45.85501" lon="4.81282">
        <ele>389.79998779297</ele>
        <time>2019-08-17T07:52:28.000Z</time>
      </trkpt>
      <trkpt lat="45.85506" lon="4.81283">
        <ele>389.79998779297</ele>
        <time>2019-08-17T07:52:32.000Z</time>
      </trkpt>
      <trkpt lat="45.85503" lon="4.81289">
        <ele>389.79998779297</ele>
        <time>2019-08-17T07:52:36.000Z</time>
      </trkpt>
      <trkpt lat="45.85499" lon="4.81294">
        <ele>389.79998779297</ele>
        <time>2019-08-17T07:52:42.000Z</time>
      </trkpt>
      <trkpt lat="45.855" lon="4.81293">
        <ele>389.79998779297</ele>
        <time>2019-08-17T07:52:43.000Z</time>
      </trkpt>
      <trkpt lat="45.85503" lon="4.81291">
        <ele>389.79998779297</ele>
        <time>2019-08-17T07:52:46.000Z</time>
      </trkpt>
      <trkpt lat="45.85503" lon="4.81291">
        <ele>389.79998779297</ele>
        <time>2019-08-17T07:52:47.000Z</time>
      </trkpt>
      <trkpt lat="45.85503" lon="4.81289">
        <ele>389.79998779297</ele>
        <time>2019-08-17T07:52:54.000Z</time>
      </trkpt>
      <trkpt lat="45.85504" lon="4.81288">
        <ele>389.79998779297</ele>
        <time>2019-08-17T07:52:55.000Z</time>
      </trkpt>
      <trkpt lat="45.85502" lon="4.81286">
        <ele>389.79998779297</ele>
        <time>2019-08-17T07:52:57.000Z</time>
      </trkpt>
      <trkpt lat="45.85503" lon="4.81284">
        <ele>389.79998779297</ele>
        <time>2019-08-17T07:52:58.000Z</time>
      </trkpt>
      <trkpt lat="45.85504" lon="4.81284">
        <ele>389.79998779297</ele>
        <time>2019-08-17T07:53:01.000Z</time>
      </trkpt>
      <trkpt lat="45.85504" lon="4.81283">
        <ele>389.79998779297</ele>
        <time>2019-08-17T07:53:02.000Z</time>
      </trkpt>
      <trkpt lat="45.85504" lon="4.81285">
        <ele>389.79998779297</ele>
        <time>2019-08-17T07:53:03.000Z</time>
      </trkpt>
      <trkpt lat="45.85504" lon="4.81286">
        <ele>389.79998779297</ele>
        <time>2019-08-17T07:53:05.000Z</time>
      </trkpt>
      <trkpt lat="45.85504" lon="4.81285">
        <ele>389.79998779297</ele>
        <time>2019-08-17T07:53:27.000Z</time>
      </trkpt>
      <trkpt lat="45.85505" lon="4.81285">
        <ele>389.79998779297</ele>
        <time>2019-08-17T07:53:30.000Z</time>
      </trkpt>
      <trkpt lat="45.85503" lon="4.81283">
        <ele>389.79998779297</ele>
        <time>2019-08-17T07:53:57.000Z</time>
      </trkpt>
      <trkpt lat="45.85501" lon="4.81284">
        <ele>389.79998779297</ele>
        <time>2019-08-17T07:54:00.000Z</time>
      </trkpt>
      <trkpt lat="45.85501" lon="4.81284">
        <ele>389.79998779297</ele>
        <time>2019-08-17T07:54:01.000Z</time>
      </trkpt>
      <trkpt lat="45.85502" lon="4.81284">
        <ele>389.79998779297</ele>
        <time>2019-08-17T07:54:18.000Z</time>
      </trkpt>
      <trkpt lat="45.85502" lon="4.81285">
        <ele>389.79998779297</ele>
        <time>2019-08-17T07:54:20.000Z</time>
      </trkpt>
      <trkpt lat="45.85502" lon="4.81286">
        <ele>389.79998779297</ele>
        <time>2019-08-17T07:54:37.000Z</time>
      </trkpt>
      <trkpt lat="45.85496" lon="4.81294">
        <ele>389.79998779297</ele>
        <time>2019-08-17T07:54:42.000Z</time>
      </trkpt>
      <trkpt lat="45.85494" lon="4.81297">
        <ele>389.79998779297</ele>
        <time>2019-08-17T07:54:43.000Z</time>
      </trkpt>
      <trkpt lat="45.85488" lon="4.81307">
        <ele>389.79998779297</ele>
        <time>2019-08-17T07:54:46.000Z</time>
      </trkpt>
      <trkpt lat="45.85477" lon="4.81323">
        <ele>389.79998779297</ele>
        <time>2019-08-17T07:54:50.000Z</time>
      </trkpt>
      <trkpt lat="45.85474" lon="4.81327">
        <ele>389.79998779297</ele>
        <time>2019-08-17T07:54:51.000Z</time>
      </trkpt>
      <trkpt lat="45.85471" lon="4.81333">
        <ele>389.79998779297</ele>
        <time>2019-08-17T07:54:52.000Z</time>
      </trkpt>
      <trkpt lat="45.85467" lon="4.81345">
        <ele>389.79998779297</ele>
        <time>2019-08-17T07:54:54.000Z</time>
      </trkpt>
      <trkpt lat="45.85464" lon="4.81358">
        <ele>389.79998779297</ele>
        <time>2019-08-17T07:54:56.000Z</time>
      </trkpt>
      <trkpt lat="45.85463" lon="4.81395">
        <ele>389.79998779297</ele>
        <time>2019-08-17T07:55:01.000Z</time>
      </trkpt>
      <trkpt lat="45.85464" lon="4.81403">
        <ele>389.79998779297</ele>
        <time>2019-08-17T07:55:02.000Z</time>
      </trkpt>
      <trkpt lat="45.85469" lon="4.81443">
        <ele>389.39999389648</ele>
        <time>2019-08-17T07:55:07.000Z</time>
      </trkpt>
      <trkpt lat="45.85471" lon="4.81452">
        <ele>388.79998779297</ele>
        <time>2019-08-17T07:55:08.000Z</time>
      </trkpt>
      <trkpt lat="45.85472" lon="4.81461">
        <ele>388.39999389648</ele>
        <time>2019-08-17T07:55:09.000Z</time>
      </trkpt>
      <trkpt lat="45.85475" lon="4.8147">
        <ele>388</ele>
        <time>2019-08-17T07:55:10.000Z</time>
      </trkpt>
      <trkpt lat="45.85477" lon="4.8148">
        <ele>387.39999389648</ele>
        <time>2019-08-17T07:55:11.000Z</time>
      </trkpt>
      <trkpt lat="45.85479" lon="4.81491">
        <ele>387</ele>
        <time>2019-08-17T07:55:12.000Z</time>
      </trkpt>
      <trkpt lat="45.85482" lon="4.81502">
        <ele>386.60000610352</ele>
        <time>2019-08-17T07:55:13.000Z</time>
      </trkpt>
      <trkpt lat="45.85485" lon="4.81514">
        <ele>386.20001220703</ele>
        <time>2019-08-17T07:55:14.000Z</time>
      </trkpt>
      <trkpt lat="45.85488" lon="4.81525">
        <ele>385.39999389648</ele>
        <time>2019-08-17T07:55:15.000Z</time>
      </trkpt>
      <trkpt lat="45.85491" lon="4.81537">
        <ele>385</ele>
        <time>2019-08-17T07:55:16.000Z</time>
      </trkpt>
      <trkpt lat="45.85494" lon="4.81549">
        <ele>384.39999389648</ele>
        <time>2019-08-17T07:55:17.000Z</time>
      </trkpt>
      <trkpt lat="45.85497" lon="4.81561">
        <ele>384</ele>
        <time>2019-08-17T07:55:18.000Z</time>
      </trkpt>
      <trkpt lat="45.85501" lon="4.81573">
        <ele>383.60000610352</ele>
        <time>2019-08-17T07:55:19.000Z</time>
      </trkpt>
      <trkpt lat="45.85504" lon="4.81586">
        <ele>383</ele>
        <time>2019-08-17T07:55:20.000Z</time>
      </trkpt>
      <trkpt lat="45.85508" lon="4.816">
        <ele>382.39999389648</ele>
        <time>2019-08-17T07:55:21.000Z</time>
      </trkpt>
      <trkpt lat="45.85512" lon="4.81614">
        <ele>381.79998779297</ele>
        <time>2019-08-17T07:55:22.000Z</time>
      </trkpt>
      <trkpt lat="45.85516" lon="4.81629">
        <ele>381.20001220703</ele>
        <time>2019-08-17T07:55:23.000Z</time>
      </trkpt>
      <trkpt lat="45.8552" lon="4.81643">
        <ele>380.39999389648</ele>
        <time>2019-08-17T07:55:24.000Z</time>
      </trkpt>
      <trkpt lat="45.85525" lon="4.81658">
        <ele>379.60000610352</ele>
        <time>2019-08-17T07:55:25.000Z</time>
      </trkpt>
      <trkpt lat="45.85529" lon="4.81672">
        <ele>378.79998779297</ele>
        <time>2019-08-17T07:55:26.000Z</time>
      </trkpt>
      <trkpt lat="45.85533" lon="4.81685">
        <ele>378</ele>
        <time>2019-08-17T07:55:27.000Z</time>
      </trkpt>
      <trkpt lat="45.85537" lon="4.81697">
        <ele>377.39999389648</ele>
        <time>2019-08-17T07:55:28.000Z</time>
      </trkpt>
      <trkpt lat="45.8554" lon="4.8171">
        <ele>376.79998779297</ele>
        <time>2019-08-17T07:55:29.000Z</time>
      </trkpt>
      <trkpt lat="45.85542" lon="4.81725">
        <ele>376.20001220703</ele>
        <time>2019-08-17T07:55:30.000Z</time>
      </trkpt>
      <trkpt lat="45.85542" lon="4.81739">
        <ele>375.60000610352</ele>
        <time>2019-08-17T07:55:31.000Z</time>
      </trkpt>
      <trkpt lat="45.85538" lon="4.81752">
        <ele>374.79998779297</ele>
        <time>2019-08-17T07:55:32.000Z</time>
      </trkpt>
      <trkpt lat="45.85533" lon="4.81764">
        <ele>374</ele>
        <time>2019-08-17T07:55:33.000Z</time>
      </trkpt>
      <trkpt lat="45.85528" lon="4.81774">
        <ele>373.20001220703</ele>
        <time>2019-08-17T07:55:34.000Z</time>
      </trkpt>
      <trkpt lat="45.85522" lon="4.81782">
        <ele>372.20001220703</ele>
        <time>2019-08-17T07:55:35.000Z</time>
      </trkpt>
      <trkpt lat="45.85517" lon="4.81787">
        <ele>371.39999389648</ele>
        <time>2019-08-17T07:55:36.000Z</time>
      </trkpt>
      <trkpt lat="45.85513" lon="4.8179">
        <ele>370.60000610352</ele>
        <time>2019-08-17T07:55:37.000Z</time>
      </trkpt>
      <trkpt lat="45.85504" lon="4.81789">
        <ele>369.79998779297</ele>
        <time>2019-08-17T07:55:38.000Z</time>
      </trkpt>
      <trkpt lat="45.85497" lon="4.81787">
        <ele>368.39999389648</ele>
        <time>2019-08-17T07:55:39.000Z</time>
      </trkpt>
      <trkpt lat="45.85494" lon="4.81785">
        <ele>367.60000610352</ele>
        <time>2019-08-17T07:55:40.000Z</time>
      </trkpt>
      <trkpt lat="45.85493" lon="4.81784">
        <ele>367.20001220703</ele>
        <time>2019-08-17T07:55:41.000Z</time>
      </trkpt>
      <trkpt lat="45.85492" lon="4.81782">
        <ele>366.60000610352</ele>
        <time>2019-08-17T07:55:42.000Z</time>
      </trkpt>
      <trkpt lat="45.85491" lon="4.81782">
        <ele>365.39999389648</ele>
        <time>2019-08-17T07:56:07.000Z</time>
      </trkpt>
      <trkpt lat="45.85491" lon="4.81784">
        <ele>365.39999389648</ele>
        <time>2019-08-17T07:56:08.000Z</time>
      </trkpt>
      <trkpt lat="45.85493" lon="4.81784">
        <ele>365.39999389648</ele>
        <time>2019-08-17T07:56:09.000Z</time>
      </trkpt>
      <trkpt lat="45.85496" lon="4.81777">
        <ele>365.39999389648</ele>
        <time>2019-08-17T07:56:12.000Z</time>
      </trkpt>
      <trkpt lat="45.85485" lon="4.81765">
        <ele>365.39999389648</ele>
        <time>2019-08-17T07:56:15.000Z</time>
      </trkpt>
      <trkpt lat="45.8547" lon="4.81758">
        <ele>365.39999389648</ele>
        <time>2019-08-17T07:56:18.000Z</time>
      </trkpt>
      <trkpt lat="45.85464" lon="4.81756">
        <ele>365.39999389648</ele>
        <time>2019-08-17T07:56:19.000Z</time>
      </trkpt>
      <trkpt lat="45.85451" lon="4.81754">
        <ele>365.79998779297</ele>
        <time>2019-08-17T07:56:21.000Z</time>
      </trkpt>
      <trkpt lat="45.85445" lon="4.81753">
        <ele>366.39999389648</ele>
        <time>2019-08-17T07:56:22.000Z</time>
      </trkpt>
      <trkpt lat="45.85439" lon="4.81752">
        <ele>366.79998779297</ele>
        <time>2019-08-17T07:56:23.000Z</time>
      </trkpt>
      <trkpt lat="45.85432" lon="4.8175">
        <ele>367.20001220703</ele>
        <time>2019-08-17T07:56:24.000Z</time>
      </trkpt>
      <trkpt lat="45.85424" lon="4.81746">
        <ele>367.79998779297</ele>
        <time>2019-08-17T07:56:25.000Z</time>
      </trkpt>
      <trkpt lat="45.854" lon="4.81735">
        <ele>368.20001220703</ele>
        <time>2019-08-17T07:56:28.000Z</time>
      </trkpt>
      <trkpt lat="45.85394" lon="4.81732">
        <ele>369</ele>
        <time>2019-08-17T07:56:29.000Z</time>
      </trkpt>
      <trkpt lat="45.85387" lon="4.81728">
        <ele>369.39999389648</ele>
        <time>2019-08-17T07:56:30.000Z</time>
      </trkpt>
      <trkpt lat="45.8538" lon="4.81724">
        <ele>369.79998779297</ele>
        <time>2019-08-17T07:56:31.000Z</time>
      </trkpt>
      <trkpt lat="45.85368" lon="4.81718">
        <ele>369.79998779297</ele>
        <time>2019-08-17T07:56:33.000Z</time>
      </trkpt>
      <trkpt lat="45.85354" lon="4.81708">
        <ele>369.79998779297</ele>
        <time>2019-08-17T07:56:36.000Z</time>
      </trkpt>
      <trkpt lat="45.85341" lon="4.81699">
        <ele>369.79998779297</ele>
        <time>2019-08-17T07:56:39.000Z</time>
      </trkpt>
      <trkpt lat="45.8532" lon="4.81686">
        <ele>369.79998779297</ele>
        <time>2019-08-17T07:56:45.000Z</time>
      </trkpt>
      <trkpt lat="45.85317" lon="4.81684">
        <ele>370.20001220703</ele>
        <time>2019-08-17T07:56:46.000Z</time>
      </trkpt>
      <trkpt lat="45.85313" lon="4.81683">
        <ele>370.60000610352</ele>
        <time>2019-08-17T07:56:47.000Z</time>
      </trkpt>
      <trkpt lat="45.8531" lon="4.81682">
        <ele>371.20001220703</ele>
        <time>2019-08-17T07:56:48.000Z</time>
      </trkpt>
      <trkpt lat="45.85307" lon="4.8168">
        <ele>371.60000610352</ele>
        <time>2019-08-17T07:56:49.000Z</time>
      </trkpt>
      <trkpt lat="45.85303" lon="4.81679">
        <ele>372</ele>
        <time>2019-08-17T07:56:50.000Z</time>
      </trkpt>
      <trkpt lat="45.853" lon="4.81678">
        <ele>372</ele>
        <time>2019-08-17T07:56:51.000Z</time>
      </trkpt>
      <trkpt lat="45.85274" lon="4.81678">
        <ele>372</ele>
        <time>2019-08-17T07:56:58.000Z</time>
      </trkpt>
      <trkpt lat="45.85253" lon="4.81689">
        <ele>372.39999389648</ele>
        <time>2019-08-17T07:57:04.000Z</time>
      </trkpt>
      <trkpt lat="45.85249" lon="4.81691">
        <ele>372.79998779297</ele>
        <time>2019-08-17T07:57:05.000Z</time>
      </trkpt>
      <trkpt lat="45.85246" lon="4.81694">
        <ele>373.20001220703</ele>
        <time>2019-08-17T07:57:06.000Z</time>
      </trkpt>
      <trkpt lat="45.85243" lon="4.81695">
        <ele>373.79998779297</ele>
        <time>2019-08-17T07:57:07.000Z</time>
      </trkpt>
      <trkpt lat="45.8524" lon="4.81698">
        <ele>374.20001220703</ele>
        <time>2019-08-17T07:57:08.000Z</time>
      </trkpt>
      <trkpt lat="45.85225" lon="4.81711">
        <ele>374.20001220703</ele>
        <time>2019-08-17T07:57:12.000Z</time>
      </trkpt>
      <trkpt lat="45.85196" lon="4.81735">
        <ele>374.20001220703</ele>
        <time>2019-08-17T07:57:19.000Z</time>
      </trkpt>
      <trkpt lat="45.85186" lon="4.81743">
        <ele>374.60000610352</ele>
        <time>2019-08-17T07:57:21.000Z</time>
      </trkpt>
      <trkpt lat="45.85182" lon="4.81747">
        <ele>375</ele>
        <time>2019-08-17T07:57:22.000Z</time>
      </trkpt>
      <trkpt lat="45.85178" lon="4.81751">
        <ele>375.39999389648</ele>
        <time>2019-08-17T07:57:23.000Z</time>
      </trkpt>
      <trkpt lat="45.85173" lon="4.81756">
        <ele>375.79998779297</ele>
        <time>2019-08-17T07:57:24.000Z</time>
      </trkpt>
      <trkpt lat="45.85168" lon="4.8176">
        <ele>376.20001220703</ele>
        <time>2019-08-17T07:57:25.000Z</time>
      </trkpt>
      <trkpt lat="45.85163" lon="4.81764">
        <ele>376.20001220703</ele>
        <time>2019-08-17T07:57:26.000Z</time>
      </trkpt>
      <trkpt lat="45.85136" lon="4.8178">
        <ele>376.20001220703</ele>
        <time>2019-08-17T07:57:32.000Z</time>
      </trkpt>
      <trkpt lat="45.85115" lon="4.81779">
        <ele>376.20001220703</ele>
        <time>2019-08-17T07:57:37.000Z</time>
      </trkpt>
      <trkpt lat="45.85111" lon="4.81777">
        <ele>376.60000610352</ele>
        <time>2019-08-17T07:57:38.000Z</time>
      </trkpt>
      <trkpt lat="45.85107" lon="4.81775">
        <ele>377</ele>
        <time>2019-08-17T07:57:39.000Z</time>
      </trkpt>
      <trkpt lat="45.85103" lon="4.81771">
        <ele>377.39999389648</ele>
        <time>2019-08-17T07:57:40.000Z</time>
      </trkpt>
      <trkpt lat="45.85099" lon="4.81767">
        <ele>377.79998779297</ele>
        <time>2019-08-17T07:57:41.000Z</time>
      </trkpt>
      <trkpt lat="45.85096" lon="4.81763">
        <ele>378.20001220703</ele>
        <time>2019-08-17T07:57:42.000Z</time>
      </trkpt>
      <trkpt lat="45.8509" lon="4.81753">
        <ele>378.20001220703</ele>
        <time>2019-08-17T07:57:44.000Z</time>
      </trkpt>
      <trkpt lat="45.85088" lon="4.81747">
        <ele>378.20001220703</ele>
        <time>2019-08-17T07:57:45.000Z</time>
      </trkpt>
      <trkpt lat="45.85085" lon="4.81735">
        <ele>378.20001220703</ele>
        <time>2019-08-17T07:57:47.000Z</time>
      </trkpt>
      <trkpt lat="45.85083" lon="4.81722">
        <ele>378.20001220703</ele>
        <time>2019-08-17T07:57:49.000Z</time>
      </trkpt>
      <trkpt lat="45.85081" lon="4.81697">
        <ele>378.60000610352</ele>
        <time>2019-08-17T07:57:53.000Z</time>
      </trkpt>
      <trkpt lat="45.85081" lon="4.81691">
        <ele>379</ele>
        <time>2019-08-17T07:57:54.000Z</time>
      </trkpt>
      <trkpt lat="45.8508" lon="4.81684">
        <ele>379.39999389648</ele>
        <time>2019-08-17T07:57:55.000Z</time>
      </trkpt>
      <trkpt lat="45.8508" lon="4.81678">
        <ele>379.79998779297</ele>
        <time>2019-08-17T07:57:56.000Z</time>
      </trkpt>
      <trkpt lat="45.8508" lon="4.81672">
        <ele>380.20001220703</ele>
        <time>2019-08-17T07:57:57.000Z</time>
      </trkpt>
      <trkpt lat="45.85079" lon="4.81653">
        <ele>380.20001220703</ele>
        <time>2019-08-17T07:58:00.000Z</time>
      </trkpt>
      <trkpt lat="45.85075" lon="4.81612">
        <ele>380.79998779297</ele>
        <time>2019-08-17T07:58:06.000Z</time>
      </trkpt>
      <trkpt lat="45.85075" lon="4.81605">
        <ele>381.60000610352</ele>
        <time>2019-08-17T07:58:07.000Z</time>
      </trkpt>
      <trkpt lat="45.85075" lon="4.81598">
        <ele>382</ele>
        <time>2019-08-17T07:58:08.000Z</time>
      </trkpt>
      <trkpt lat="45.85076" lon="4.81591">
        <ele>382.60000610352</ele>
        <time>2019-08-17T07:58:09.000Z</time>
      </trkpt>
      <trkpt lat="45.85077" lon="4.8157">
        <ele>382.60000610352</ele>
        <time>2019-08-17T07:58:12.000Z</time>
      </trkpt>
      <trkpt lat="45.85078" lon="4.81563">
        <ele>382.60000610352</ele>
        <time>2019-08-17T07:58:13.000Z</time>
      </trkpt>
      <trkpt lat="45.85084" lon="4.81531">
        <ele>382.60000610352</ele>
        <time>2019-08-17T07:58:18.000Z</time>
      </trkpt>
      <trkpt lat="45.85086" lon="4.81518">
        <ele>383</ele>
        <time>2019-08-17T07:58:20.000Z</time>
      </trkpt>
      <trkpt lat="45.85087" lon="4.81512">
        <ele>383.39999389648</ele>
        <time>2019-08-17T07:58:21.000Z</time>
      </trkpt>
      <trkpt lat="45.85087" lon="4.81506">
        <ele>383.79998779297</ele>
        <time>2019-08-17T07:58:22.000Z</time>
      </trkpt>
      <trkpt lat="45.85088" lon="4.81499">
        <ele>384.20001220703</ele>
        <time>2019-08-17T07:58:23.000Z</time>
      </trkpt>
      <trkpt lat="45.85089" lon="4.81492">
        <ele>384.60000610352</ele>
        <time>2019-08-17T07:58:24.000Z</time>
      </trkpt>
      <trkpt lat="45.85091" lon="4.81487">
        <ele>384.60000610352</ele>
        <time>2019-08-17T07:58:25.000Z</time>
      </trkpt>
      <trkpt lat="45.85098" lon="4.81441">
        <ele>385</ele>
        <time>2019-08-17T07:58:32.000Z</time>
      </trkpt>
      <trkpt lat="45.851" lon="4.81435">
        <ele>385.39999389648</ele>
        <time>2019-08-17T07:58:33.000Z</time>
      </trkpt>
      <trkpt lat="45.85101" lon="4.81428">
        <ele>386</ele>
        <time>2019-08-17T07:58:34.000Z</time>
      </trkpt>
      <trkpt lat="45.85103" lon="4.81422">
        <ele>386.39999389648</ele>
        <time>2019-08-17T07:58:35.000Z</time>
      </trkpt>
      <trkpt lat="45.85104" lon="4.81416">
        <ele>386.79998779297</ele>
        <time>2019-08-17T07:58:36.000Z</time>
      </trkpt>
      <trkpt lat="45.85117" lon="4.81382">
        <ele>386.79998779297</ele>
        <time>2019-08-17T07:58:42.000Z</time>
      </trkpt>
      <trkpt lat="45.8512" lon="4.81377">
        <ele>387.20001220703</ele>
        <time>2019-08-17T07:58:43.000Z</time>
      </trkpt>
      <trkpt lat="45.85122" lon="4.81371">
        <ele>387.60000610352</ele>
        <time>2019-08-17T07:58:44.000Z</time>
      </trkpt>
      <trkpt lat="45.85125" lon="4.81367">
        <ele>388</ele>
        <time>2019-08-17T07:58:45.000Z</time>
      </trkpt>
      <trkpt lat="45.85128" lon="4.81362">
        <ele>388.60000610352</ele>
        <time>2019-08-17T07:58:46.000Z</time>
      </trkpt>
      <trkpt lat="45.8513" lon="4.81357">
        <ele>389</ele>
        <time>2019-08-17T07:58:47.000Z</time>
      </trkpt>
      <trkpt lat="45.85132" lon="4.81351">
        <ele>389</ele>
        <time>2019-08-17T07:58:48.000Z</time>
      </trkpt>
      <trkpt lat="45.85135" lon="4.81323">
        <ele>389</ele>
        <time>2019-08-17T07:58:53.000Z</time>
      </trkpt>
      <trkpt lat="45.85133" lon="4.81318">
        <ele>389.39999389648</ele>
        <time>2019-08-17T07:58:54.000Z</time>
      </trkpt>
      <trkpt lat="45.85128" lon="4.81314">
        <ele>389.79998779297</ele>
        <time>2019-08-17T07:58:55.000Z</time>
      </trkpt>
      <trkpt lat="45.85123" lon="4.8131">
        <ele>390.20001220703</ele>
        <time>2019-08-17T07:58:56.000Z</time>
      </trkpt>
      <trkpt lat="45.85119" lon="4.81307">
        <ele>391</ele>
        <time>2019-08-17T07:58:57.000Z</time>
      </trkpt>
      <trkpt lat="45.85111" lon="4.81302">
        <ele>391</ele>
        <time>2019-08-17T07:58:59.000Z</time>
      </trkpt>
      <trkpt lat="45.85098" lon="4.81296">
        <ele>391.39999389648</ele>
        <time>2019-08-17T07:59:02.000Z</time>
      </trkpt>
      <trkpt lat="45.85094" lon="4.81294">
        <ele>391.79998779297</ele>
        <time>2019-08-17T07:59:03.000Z</time>
      </trkpt>
      <trkpt lat="45.8509" lon="4.81293">
        <ele>392.20001220703</ele>
        <time>2019-08-17T07:59:04.000Z</time>
      </trkpt>
      <trkpt lat="45.85085" lon="4.81291">
        <ele>392.79998779297</ele>
        <time>2019-08-17T07:59:05.000Z</time>
      </trkpt>
      <trkpt lat="45.85081" lon="4.8129">
        <ele>393.20001220703</ele>
        <time>2019-08-17T07:59:06.000Z</time>
      </trkpt>
      <trkpt lat="45.85069" lon="4.81291">
        <ele>393.20001220703</ele>
        <time>2019-08-17T07:59:09.000Z</time>
      </trkpt>
      <trkpt lat="45.85042" lon="4.81302">
        <ele>393.20001220703</ele>
        <time>2019-08-17T07:59:15.000Z</time>
      </trkpt>
      <trkpt lat="45.85023" lon="4.81308">
        <ele>393.60000610352</ele>
        <time>2019-08-17T07:59:19.000Z</time>
      </trkpt>
      <trkpt lat="45.85019" lon="4.8131">
        <ele>394</ele>
        <time>2019-08-17T07:59:20.000Z</time>
      </trkpt>
      <trkpt lat="45.85014" lon="4.81312">
        <ele>394.60000610352</ele>
        <time>2019-08-17T07:59:21.000Z</time>
      </trkpt>
      <trkpt lat="45.8501" lon="4.81313">
        <ele>395.39999389648</ele>
        <time>2019-08-17T07:59:22.000Z</time>
      </trkpt>
      <trkpt lat="45.85005" lon="4.81314">
        <ele>395.39999389648</ele>
        <time>2019-08-17T07:59:23.000Z</time>
      </trkpt>
      <trkpt lat="45.84991" lon="4.81311">
        <ele>395.39999389648</ele>
        <time>2019-08-17T07:59:26.000Z</time>
      </trkpt>
      <trkpt lat="45.84982" lon="4.81305">
        <ele>395.39999389648</ele>
        <time>2019-08-17T07:59:28.000Z</time>
      </trkpt>
      <trkpt lat="45.84974" lon="4.81297">
        <ele>395.39999389648</ele>
        <time>2019-08-17T07:59:30.000Z</time>
      </trkpt>
      <trkpt lat="45.84964" lon="4.81286">
        <ele>395.79998779297</ele>
        <time>2019-08-17T07:59:33.000Z</time>
      </trkpt>
      <trkpt lat="45.84962" lon="4.81281">
        <ele>396.20001220703</ele>
        <time>2019-08-17T07:59:34.000Z</time>
      </trkpt>
      <trkpt lat="45.84959" lon="4.81276">
        <ele>396.79998779297</ele>
        <time>2019-08-17T07:59:35.000Z</time>
      </trkpt>
      <trkpt lat="45.84957" lon="4.81271">
        <ele>397.20001220703</ele>
        <time>2019-08-17T07:59:36.000Z</time>
      </trkpt>
      <trkpt lat="45.84954" lon="4.81267">
        <ele>397.60000610352</ele>
        <time>2019-08-17T07:59:37.000Z</time>
      </trkpt>
      <trkpt lat="45.84946" lon="4.81247">
        <ele>397.60000610352</ele>
        <time>2019-08-17T07:59:41.000Z</time>
      </trkpt>
      <trkpt lat="45.8494" lon="4.81228">
        <ele>398</ele>
        <time>2019-08-17T07:59:45.000Z</time>
      </trkpt>
      <trkpt lat="45.84938" lon="4.81223">
        <ele>398.79998779297</ele>
        <time>2019-08-17T07:59:46.000Z</time>
      </trkpt>
      <trkpt lat="45.84937" lon="4.81217">
        <ele>399.39999389648</ele>
        <time>2019-08-17T07:59:47.000Z</time>
      </trkpt>
      <trkpt lat="45.84935" lon="4.81212">
        <ele>399.79998779297</ele>
        <time>2019-08-17T07:59:48.000Z</time>
      </trkpt>
      <trkpt lat="45.84924" lon="4.81176">
        <ele>399.79998779297</ele>
        <time>2019-08-17T07:59:55.000Z</time>
      </trkpt>
      <trkpt lat="45.84921" lon="4.81161">
        <ele>400.20001220703</ele>
        <time>2019-08-17T07:59:58.000Z</time>
      </trkpt>
      <trkpt lat="45.84921" lon="4.81156">
        <ele>400.60000610352</ele>
        <time>2019-08-17T07:59:59.000Z</time>
      </trkpt>
      <trkpt lat="45.8492" lon="4.81151">
        <ele>401</ele>
        <time>2019-08-17T08:00:00.000Z</time>
      </trkpt>
      <trkpt lat="45.8492" lon="4.81147">
        <ele>401.39999389648</ele>
        <time>2019-08-17T08:00:01.000Z</time>
      </trkpt>
      <trkpt lat="45.8492" lon="4.81143">
        <ele>401.79998779297</ele>
        <time>2019-08-17T08:00:02.000Z</time>
      </trkpt>
      <trkpt lat="45.84912" lon="4.81117">
        <ele>401.79998779297</ele>
        <time>2019-08-17T08:00:07.000Z</time>
      </trkpt>
      <trkpt lat="45.84903" lon="4.81106">
        <ele>402.20001220703</ele>
        <time>2019-08-17T08:00:10.000Z</time>
      </trkpt>
      <trkpt lat="45.84899" lon="4.81103">
        <ele>403</ele>
        <time>2019-08-17T08:00:11.000Z</time>
      </trkpt>
      <trkpt lat="45.84897" lon="4.81101">
        <ele>403.39999389648</ele>
        <time>2019-08-17T08:00:12.000Z</time>
      </trkpt>
      <trkpt lat="45.84894" lon="4.81099">
        <ele>403.79998779297</ele>
        <time>2019-08-17T08:00:13.000Z</time>
      </trkpt>
      <trkpt lat="45.84881" lon="4.81092">
        <ele>403.79998779297</ele>
        <time>2019-08-17T08:00:19.000Z</time>
      </trkpt>
      <trkpt lat="45.84874" lon="4.81088">
        <ele>404.20001220703</ele>
        <time>2019-08-17T08:00:23.000Z</time>
      </trkpt>
      <trkpt lat="45.84872" lon="4.81088">
        <ele>404.60000610352</ele>
        <time>2019-08-17T08:00:24.000Z</time>
      </trkpt>
      <trkpt lat="45.8487" lon="4.81087">
        <ele>405</ele>
        <time>2019-08-17T08:00:25.000Z</time>
      </trkpt>
      <trkpt lat="45.84867" lon="4.81085">
        <ele>405.39999389648</ele>
        <time>2019-08-17T08:00:26.000Z</time>
      </trkpt>
      <trkpt lat="45.84864" lon="4.81084">
        <ele>406</ele>
        <time>2019-08-17T08:00:27.000Z</time>
      </trkpt>
      <trkpt lat="45.84854" lon="4.81077">
        <ele>406</ele>
        <time>2019-08-17T08:00:31.000Z</time>
      </trkpt>
      <trkpt lat="45.84839" lon="4.81058">
        <ele>406</ele>
        <time>2019-08-17T08:00:38.000Z</time>
      </trkpt>
      <trkpt lat="45.84826" lon="4.81037">
        <ele>406.39999389648</ele>
        <time>2019-08-17T08:00:45.000Z</time>
      </trkpt>
      <trkpt lat="45.84824" lon="4.81034">
        <ele>406.79998779297</ele>
        <time>2019-08-17T08:00:46.000Z</time>
      </trkpt>
      <trkpt lat="45.84823" lon="4.81031">
        <ele>407.20001220703</ele>
        <time>2019-08-17T08:00:47.000Z</time>
      </trkpt>
      <trkpt lat="45.84822" lon="4.81028">
        <ele>407.60000610352</ele>
        <time>2019-08-17T08:00:48.000Z</time>
      </trkpt>
      <trkpt lat="45.8482" lon="4.81024">
        <ele>408.20001220703</ele>
        <time>2019-08-17T08:00:49.000Z</time>
      </trkpt>
      <trkpt lat="45.84815" lon="4.81006">
        <ele>408.20001220703</ele>
        <time>2019-08-17T08:00:54.000Z</time>
      </trkpt>
      <trkpt lat="45.84811" lon="4.80986">
        <ele>408.60000610352</ele>
        <time>2019-08-17T08:00:59.000Z</time>
      </trkpt>
      <trkpt lat="45.8481" lon="4.80982">
        <ele>409</ele>
        <time>2019-08-17T08:01:00.000Z</time>
      </trkpt>
      <trkpt lat="45.8481" lon="4.80979">
        <ele>409.79998779297</ele>
        <time>2019-08-17T08:01:01.000Z</time>
      </trkpt>
      <trkpt lat="45.84809" lon="4.80975">
        <ele>410.20001220703</ele>
        <time>2019-08-17T08:01:02.000Z</time>
      </trkpt>
      <trkpt lat="45.84807" lon="4.80959">
        <ele>410.20001220703</ele>
        <time>2019-08-17T08:01:06.000Z</time>
      </trkpt>
      <trkpt lat="45.84805" lon="4.80931">
        <ele>410.20001220703</ele>
        <time>2019-08-17T08:01:13.000Z</time>
      </trkpt>
      <trkpt lat="45.84804" lon="4.80919">
        <ele>410.60000610352</ele>
        <time>2019-08-17T08:01:16.000Z</time>
      </trkpt>
      <trkpt lat="45.84804" lon="4.80915">
        <ele>411</ele>
        <time>2019-08-17T08:01:17.000Z</time>
      </trkpt>
      <trkpt lat="45.84805" lon="4.80912">
        <ele>411.39999389648</ele>
        <time>2019-08-17T08:01:18.000Z</time>
      </trkpt>
      <trkpt lat="45.84805" lon="4.80909">
        <ele>411.79998779297</ele>
        <time>2019-08-17T08:01:19.000Z</time>
      </trkpt>
      <trkpt lat="45.84805" lon="4.80905">
        <ele>412.20001220703</ele>
        <time>2019-08-17T08:01:20.000Z</time>
      </trkpt>
      <trkpt lat="45.84803" lon="4.80883">
        <ele>412.20001220703</ele>
        <time>2019-08-17T08:01:25.000Z</time>
      </trkpt>
      <trkpt lat="45.84802" lon="4.80864">
        <ele>412.79998779297</ele>
        <time>2019-08-17T08:01:30.000Z</time>
      </trkpt>
      <trkpt lat="45.84801" lon="4.8086">
        <ele>413.20001220703</ele>
        <time>2019-08-17T08:01:31.000Z</time>
      </trkpt>
      <trkpt lat="45.848" lon="4.80856">
        <ele>413.60000610352</ele>
        <time>2019-08-17T08:01:32.000Z</time>
      </trkpt>
      <trkpt lat="45.84797" lon="4.80851">
        <ele>414</ele>
        <time>2019-08-17T08:01:33.000Z</time>
      </trkpt>
      <trkpt lat="45.84794" lon="4.80846">
        <ele>414.60000610352</ele>
        <time>2019-08-17T08:01:34.000Z</time>
      </trkpt>
      <trkpt lat="45.84791" lon="4.80841">
        <ele>414.60000610352</ele>
        <time>2019-08-17T08:01:35.000Z</time>
      </trkpt>
      <trkpt lat="45.84778" lon="4.80828">
        <ele>414.60000610352</ele>
        <time>2019-08-17T08:01:39.000Z</time>
      </trkpt>
      <trkpt lat="45.84757" lon="4.80819">
        <ele>415</ele>
        <time>2019-08-17T08:01:45.000Z</time>
      </trkpt>
      <trkpt lat="45.84754" lon="4.80819">
        <ele>415.39999389648</ele>
        <time>2019-08-17T08:01:46.000Z</time>
      </trkpt>
      <trkpt lat="45.84751" lon="4.80819">
        <ele>415.79998779297</ele>
        <time>2019-08-17T08:01:47.000Z</time>
      </trkpt>
      <trkpt lat="45.84748" lon="4.8082">
        <ele>416.20001220703</ele>
        <time>2019-08-17T08:01:48.000Z</time>
      </trkpt>
      <trkpt lat="45.84745" lon="4.8082">
        <ele>416.60000610352</ele>
        <time>2019-08-17T08:01:49.000Z</time>
      </trkpt>
      <trkpt lat="45.8474" lon="4.80822">
        <ele>416.60000610352</ele>
        <time>2019-08-17T08:01:51.000Z</time>
      </trkpt>
      <trkpt lat="45.84725" lon="4.80823">
        <ele>416.60000610352</ele>
        <time>2019-08-17T08:01:57.000Z</time>
      </trkpt>
      <trkpt lat="45.84715" lon="4.8083">
        <ele>417</ele>
        <time>2019-08-17T08:02:01.000Z</time>
      </trkpt>
      <trkpt lat="45.84713" lon="4.80832">
        <ele>417.39999389648</ele>
        <time>2019-08-17T08:02:02.000Z</time>
      </trkpt>
      <trkpt lat="45.8471" lon="4.80833">
        <ele>417.79998779297</ele>
        <time>2019-08-17T08:02:03.000Z</time>
      </trkpt>
      <trkpt lat="45.84707" lon="4.80835">
        <ele>418.20001220703</ele>
        <time>2019-08-17T08:02:04.000Z</time>
      </trkpt>
      <trkpt lat="45.84705" lon="4.80837">
        <ele>418.60000610352</ele>
        <time>2019-08-17T08:02:05.000Z</time>
      </trkpt>
      <trkpt lat="45.84692" lon="4.80843">
        <ele>418.60000610352</ele>
        <time>2019-08-17T08:02:10.000Z</time>
      </trkpt>
      <trkpt lat="45.84673" lon="4.80846">
        <ele>418.60000610352</ele>
        <time>2019-08-17T08:02:17.000Z</time>
      </trkpt>
      <trkpt lat="45.84663" lon="4.80843">
        <ele>419</ele>
        <time>2019-08-17T08:02:20.000Z</time>
      </trkpt>
      <trkpt lat="45.84659" lon="4.80841">
        <ele>419.39999389648</ele>
        <time>2019-08-17T08:02:21.000Z</time>
      </trkpt>
      <trkpt lat="45.84655" lon="4.80839">
        <ele>419.79998779297</ele>
        <time>2019-08-17T08:02:22.000Z</time>
      </trkpt>
      <trkpt lat="45.84653" lon="4.80838">
        <ele>420.20001220703</ele>
        <time>2019-08-17T08:02:23.000Z</time>
      </trkpt>
      <trkpt lat="45.8465" lon="4.80837">
        <ele>420.60000610352</ele>
        <time>2019-08-17T08:02:24.000Z</time>
      </trkpt>
      <trkpt lat="45.84636" lon="4.80828">
        <ele>420.60000610352</ele>
        <time>2019-08-17T08:02:29.000Z</time>
      </trkpt>
      <trkpt lat="45.84619" lon="4.80813">
        <ele>420.60000610352</ele>
        <time>2019-08-17T08:02:35.000Z</time>
      </trkpt>
      <trkpt lat="45.84617" lon="4.80811">
        <ele>421</ele>
        <time>2019-08-17T08:02:36.000Z</time>
      </trkpt>
      <trkpt lat="45.84615" lon="4.80808">
        <ele>421.39999389648</ele>
        <time>2019-08-17T08:02:37.000Z</time>
      </trkpt>
      <trkpt lat="45.84613" lon="4.80805">
        <ele>421.79998779297</ele>
        <time>2019-08-17T08:02:38.000Z</time>
      </trkpt>
      <trkpt lat="45.84611" lon="4.80802">
        <ele>422.60000610352</ele>
        <time>2019-08-17T08:02:39.000Z</time>
      </trkpt>
      <trkpt lat="45.84609" lon="4.80799">
        <ele>422.60000610352</ele>
        <time>2019-08-17T08:02:40.000Z</time>
      </trkpt>
      <trkpt lat="45.84592" lon="4.80776">
        <ele>422.60000610352</ele>
        <time>2019-08-17T08:02:47.000Z</time>
      </trkpt>
      <trkpt lat="45.84582" lon="4.80759">
        <ele>423</ele>
        <time>2019-08-17T08:02:52.000Z</time>
      </trkpt>
      <trkpt lat="45.84581" lon="4.80755">
        <ele>423.39999389648</ele>
        <time>2019-08-17T08:02:53.000Z</time>
      </trkpt>
      <trkpt lat="45.84579" lon="4.80752">
        <ele>423.79998779297</ele>
        <time>2019-08-17T08:02:54.000Z</time>
      </trkpt>
      <trkpt lat="45.84577" lon="4.80748">
        <ele>424.39999389648</ele>
        <time>2019-08-17T08:02:55.000Z</time>
      </trkpt>
      <trkpt lat="45.84576" lon="4.80745">
        <ele>424.79998779297</ele>
        <time>2019-08-17T08:02:56.000Z</time>
      </trkpt>
      <trkpt lat="45.84569" lon="4.80726">
        <ele>424.79998779297</ele>
        <time>2019-08-17T08:03:01.000Z</time>
      </trkpt>
      <trkpt lat="45.84567" lon="4.807">
        <ele>424.79998779297</ele>
        <time>2019-08-17T08:03:07.000Z</time>
      </trkpt>
      <trkpt lat="45.84566" lon="4.80691">
        <ele>425.20001220703</ele>
        <time>2019-08-17T08:03:09.000Z</time>
      </trkpt>
      <trkpt lat="45.84566" lon="4.80686">
        <ele>425.60000610352</ele>
        <time>2019-08-17T08:03:10.000Z</time>
      </trkpt>
      <trkpt lat="45.84566" lon="4.80681">
        <ele>426</ele>
        <time>2019-08-17T08:03:11.000Z</time>
      </trkpt>
      <trkpt lat="45.84566" lon="4.80676">
        <ele>426.39999389648</ele>
        <time>2019-08-17T08:03:12.000Z</time>
      </trkpt>
      <trkpt lat="45.84565" lon="4.80672">
        <ele>426.79998779297</ele>
        <time>2019-08-17T08:03:13.000Z</time>
      </trkpt>
      <trkpt lat="45.84566" lon="4.80653">
        <ele>426.79998779297</ele>
        <time>2019-08-17T08:03:17.000Z</time>
      </trkpt>
      <trkpt lat="45.84564" lon="4.8063">
        <ele>427.20001220703</ele>
        <time>2019-08-17T08:03:22.000Z</time>
      </trkpt>
      <trkpt lat="45.84563" lon="4.80625">
        <ele>427.60000610352</ele>
        <time>2019-08-17T08:03:23.000Z</time>
      </trkpt>
      <trkpt lat="45.84562" lon="4.80621">
        <ele>428</ele>
        <time>2019-08-17T08:03:24.000Z</time>
      </trkpt>
      <trkpt lat="45.84561" lon="4.80617">
        <ele>428.39999389648</ele>
        <time>2019-08-17T08:03:25.000Z</time>
      </trkpt>
      <trkpt lat="45.84559" lon="4.80613">
        <ele>428.79998779297</ele>
        <time>2019-08-17T08:03:26.000Z</time>
      </trkpt>
      <trkpt lat="45.84557" lon="4.80609">
        <ele>428.79998779297</ele>
        <time>2019-08-17T08:03:27.000Z</time>
      </trkpt>
      <trkpt lat="45.8455" lon="4.80599">
        <ele>428.79998779297</ele>
        <time>2019-08-17T08:03:30.000Z</time>
      </trkpt>
      <trkpt lat="45.84546" lon="4.80598">
        <ele>428.79998779297</ele>
        <time>2019-08-17T08:03:31.000Z</time>
      </trkpt>
      <trkpt lat="45.84537" lon="4.806">
        <ele>429.20001220703</ele>
        <time>2019-08-17T08:03:34.000Z</time>
      </trkpt>
      <trkpt lat="45.84534" lon="4.80602">
        <ele>429.60000610352</ele>
        <time>2019-08-17T08:03:35.000Z</time>
      </trkpt>
      <trkpt lat="45.84531" lon="4.80603">
        <ele>430.20001220703</ele>
        <time>2019-08-17T08:03:36.000Z</time>
      </trkpt>
      <trkpt lat="45.84527" lon="4.80605">
        <ele>430.60000610352</ele>
        <time>2019-08-17T08:03:37.000Z</time>
      </trkpt>
      <trkpt lat="45.84524" lon="4.80607">
        <ele>431</ele>
        <time>2019-08-17T08:03:38.000Z</time>
      </trkpt>
      <trkpt lat="45.84506" lon="4.80619">
        <ele>431</ele>
        <time>2019-08-17T08:03:43.000Z</time>
      </trkpt>
      <trkpt lat="45.84489" lon="4.80636">
        <ele>431.39999389648</ele>
        <time>2019-08-17T08:03:49.000Z</time>
      </trkpt>
      <trkpt lat="45.84486" lon="4.80637">
        <ele>431.79998779297</ele>
        <time>2019-08-17T08:03:50.000Z</time>
      </trkpt>
      <trkpt lat="45.84483" lon="4.80639">
        <ele>432.20001220703</ele>
        <time>2019-08-17T08:03:51.000Z</time>
      </trkpt>
      <trkpt lat="45.84479" lon="4.80641">
        <ele>432.60000610352</ele>
        <time>2019-08-17T08:03:52.000Z</time>
      </trkpt>
      <trkpt lat="45.84476" lon="4.80642">
        <ele>433</ele>
        <time>2019-08-17T08:03:53.000Z</time>
      </trkpt>
      <trkpt lat="45.84471" lon="4.80645">
        <ele>433</ele>
        <time>2019-08-17T08:03:55.000Z</time>
      </trkpt>
      <trkpt lat="45.84448" lon="4.80657">
        <ele>433</ele>
        <time>2019-08-17T08:04:03.000Z</time>
      </trkpt>
      <trkpt lat="45.84434" lon="4.80664">
        <ele>433.39999389648</ele>
        <time>2019-08-17T08:04:08.000Z</time>
      </trkpt>
      <trkpt lat="45.84431" lon="4.80665">
        <ele>434</ele>
        <time>2019-08-17T08:04:09.000Z</time>
      </trkpt>
      <trkpt lat="45.84428" lon="4.80666">
        <ele>434.39999389648</ele>
        <time>2019-08-17T08:04:10.000Z</time>
      </trkpt>
      <trkpt lat="45.84425" lon="4.80666">
        <ele>434.79998779297</ele>
        <time>2019-08-17T08:04:11.000Z</time>
      </trkpt>
      <trkpt lat="45.84422" lon="4.80666">
        <ele>435.39999389648</ele>
        <time>2019-08-17T08:04:12.000Z</time>
      </trkpt>
      <trkpt lat="45.84413" lon="4.80666">
        <ele>435.39999389648</ele>
        <time>2019-08-17T08:04:15.000Z</time>
      </trkpt>
      <trkpt lat="45.8439" lon="4.80658">
        <ele>435.39999389648</ele>
        <time>2019-08-17T08:04:22.000Z</time>
      </trkpt>
      <trkpt lat="45.84381" lon="4.80652">
        <ele>435.79998779297</ele>
        <time>2019-08-17T08:04:25.000Z</time>
      </trkpt>
      <trkpt lat="45.84378" lon="4.8065">
        <ele>436.20001220703</ele>
        <time>2019-08-17T08:04:26.000Z</time>
      </trkpt>
      <trkpt lat="45.84375" lon="4.80647">
        <ele>436.60000610352</ele>
        <time>2019-08-17T08:04:27.000Z</time>
      </trkpt>
      <trkpt lat="45.84372" lon="4.80645">
        <ele>437</ele>
        <time>2019-08-17T08:04:28.000Z</time>
      </trkpt>
      <trkpt lat="45.84369" lon="4.80643">
        <ele>437.39999389648</ele>
        <time>2019-08-17T08:04:29.000Z</time>
      </trkpt>
      <trkpt lat="45.84348" lon="4.80627">
        <ele>437.39999389648</ele>
        <time>2019-08-17T08:04:36.000Z</time>
      </trkpt>
      <trkpt lat="45.84345" lon="4.80625">
        <ele>437.79998779297</ele>
        <time>2019-08-17T08:04:37.000Z</time>
      </trkpt>
      <trkpt lat="45.84343" lon="4.80623">
        <ele>438.20001220703</ele>
        <time>2019-08-17T08:04:38.000Z</time>
      </trkpt>
      <trkpt lat="45.8434" lon="4.80621">
        <ele>438.60000610352</ele>
        <time>2019-08-17T08:04:39.000Z</time>
      </trkpt>
      <trkpt lat="45.84337" lon="4.80619">
        <ele>439</ele>
        <time>2019-08-17T08:04:40.000Z</time>
      </trkpt>
      <trkpt lat="45.84334" lon="4.80618">
        <ele>439.39999389648</ele>
        <time>2019-08-17T08:04:41.000Z</time>
      </trkpt>
      <trkpt lat="45.84328" lon="4.80616">
        <ele>439.39999389648</ele>
        <time>2019-08-17T08:04:43.000Z</time>
      </trkpt>
      <trkpt lat="45.84314" lon="4.80609">
        <ele>439.39999389648</ele>
        <time>2019-08-17T08:04:49.000Z</time>
      </trkpt>
      <trkpt lat="45.84311" lon="4.80608">
        <ele>439.79998779297</ele>
        <time>2019-08-17T08:04:50.000Z</time>
      </trkpt>
      <trkpt lat="45.84309" lon="4.80607">
        <ele>440.20001220703</ele>
        <time>2019-08-17T08:04:51.000Z</time>
      </trkpt>
      <trkpt lat="45.84306" lon="4.80606">
        <ele>440.60000610352</ele>
        <time>2019-08-17T08:04:52.000Z</time>
      </trkpt>
      <trkpt lat="45.84302" lon="4.80605">
        <ele>441</ele>
        <time>2019-08-17T08:04:53.000Z</time>
      </trkpt>
      <trkpt lat="45.84299" lon="4.80603">
        <ele>441.39999389648</ele>
        <time>2019-08-17T08:04:54.000Z</time>
      </trkpt>
      <trkpt lat="45.84295" lon="4.806">
        <ele>441.39999389648</ele>
        <time>2019-08-17T08:04:55.000Z</time>
      </trkpt>
      <trkpt lat="45.84281" lon="4.80592">
        <ele>441.39999389648</ele>
        <time>2019-08-17T08:05:00.000Z</time>
      </trkpt>
      <trkpt lat="45.84276" lon="4.8059">
        <ele>441.39999389648</ele>
        <time>2019-08-17T08:05:03.000Z</time>
      </trkpt>
      <trkpt lat="45.84273" lon="4.8059">
        <ele>441.39999389648</ele>
        <time>2019-08-17T08:05:05.000Z</time>
      </trkpt>
      <trkpt lat="45.8427" lon="4.80594">
        <ele>441.39999389648</ele>
        <time>2019-08-17T08:05:09.000Z</time>
      </trkpt>
      <trkpt lat="45.84262" lon="4.80602">
        <ele>441.39999389648</ele>
        <time>2019-08-17T08:05:13.000Z</time>
      </trkpt>
      <trkpt lat="45.84258" lon="4.80604">
        <ele>441.39999389648</ele>
        <time>2019-08-17T08:05:14.000Z</time>
      </trkpt>
      <trkpt lat="45.84238" lon="4.80612">
        <ele>441.39999389648</ele>
        <time>2019-08-17T08:05:18.000Z</time>
      </trkpt>
      <trkpt lat="45.84232" lon="4.80614">
        <ele>441.39999389648</ele>
        <time>2019-08-17T08:05:19.000Z</time>
      </trkpt>
      <trkpt lat="45.84228" lon="4.80616">
        <ele>441</ele>
        <time>2019-08-17T08:05:20.000Z</time>
      </trkpt>
      <trkpt lat="45.84224" lon="4.80617">
        <ele>440.60000610352</ele>
        <time>2019-08-17T08:05:21.000Z</time>
      </trkpt>
      <trkpt lat="45.84222" lon="4.80618">
        <ele>440.20001220703</ele>
        <time>2019-08-17T08:05:22.000Z</time>
      </trkpt>
      <trkpt lat="45.8422" lon="4.80619">
        <ele>439.60000610352</ele>
        <time>2019-08-17T08:05:23.000Z</time>
      </trkpt>
      <trkpt lat="45.84219" lon="4.80619">
        <ele>439</ele>
        <time>2019-08-17T08:05:24.000Z</time>
      </trkpt>
      <trkpt lat="45.84219" lon="4.80619">
        <ele>437.39999389648</ele>
        <time>2019-08-17T08:05:57.000Z</time>
      </trkpt>
      <trkpt lat="45.84217" lon="4.80619">
        <ele>437.39999389648</ele>
        <time>2019-08-17T08:05:58.000Z</time>
      </trkpt>
      <trkpt lat="45.84204" lon="4.80624">
        <ele>437.39999389648</ele>
        <time>2019-08-17T08:06:02.000Z</time>
      </trkpt>
      <trkpt lat="45.84185" lon="4.80632">
        <ele>437</ele>
        <time>2019-08-17T08:06:05.000Z</time>
      </trkpt>
      <trkpt lat="45.84178" lon="4.80634">
        <ele>436.39999389648</ele>
        <time>2019-08-17T08:06:06.000Z</time>
      </trkpt>
      <trkpt lat="45.84171" lon="4.80634">
        <ele>436</ele>
        <time>2019-08-17T08:06:07.000Z</time>
      </trkpt>
      <trkpt lat="45.84164" lon="4.80632">
        <ele>435.20001220703</ele>
        <time>2019-08-17T08:06:08.000Z</time>
      </trkpt>
      <trkpt lat="45.84158" lon="4.80628">
        <ele>434.39999389648</ele>
        <time>2019-08-17T08:06:09.000Z</time>
      </trkpt>
      <trkpt lat="45.84152" lon="4.80623">
        <ele>433.60000610352</ele>
        <time>2019-08-17T08:06:10.000Z</time>
      </trkpt>
      <trkpt lat="45.84146" lon="4.80617">
        <ele>432.79998779297</ele>
        <time>2019-08-17T08:06:11.000Z</time>
      </trkpt>
      <trkpt lat="45.84139" lon="4.80612">
        <ele>432</ele>
        <time>2019-08-17T08:06:12.000Z</time>
      </trkpt>
      <trkpt lat="45.84133" lon="4.80608">
        <ele>431.60000610352</ele>
        <time>2019-08-17T08:06:13.000Z</time>
      </trkpt>
      <trkpt lat="45.84127" lon="4.80604">
        <ele>431</ele>
        <time>2019-08-17T08:06:14.000Z</time>
      </trkpt>
      <trkpt lat="45.84121" lon="4.80602">
        <ele>430.60000610352</ele>
        <time>2019-08-17T08:06:15.000Z</time>
      </trkpt>
      <trkpt lat="45.84114" lon="4.80601">
        <ele>430</ele>
        <time>2019-08-17T08:06:16.000Z</time>
      </trkpt>
      <trkpt lat="45.84108" lon="4.806">
        <ele>429.39999389648</ele>
        <time>2019-08-17T08:06:17.000Z</time>
      </trkpt>
      <trkpt lat="45.84101" lon="4.806">
        <ele>429</ele>
        <time>2019-08-17T08:06:18.000Z</time>
      </trkpt>
      <trkpt lat="45.84094" lon="4.806">
        <ele>428.39999389648</ele>
        <time>2019-08-17T08:06:19.000Z</time>
      </trkpt>
      <trkpt lat="45.84087" lon="4.80601">
        <ele>427.79998779297</ele>
        <time>2019-08-17T08:06:20.000Z</time>
      </trkpt>
      <trkpt lat="45.8408" lon="4.80603">
        <ele>426.60000610352</ele>
        <time>2019-08-17T08:06:21.000Z</time>
      </trkpt>
      <trkpt lat="45.84074" lon="4.80606">
        <ele>425.79998779297</ele>
        <time>2019-08-17T08:06:22.000Z</time>
      </trkpt>
      <trkpt lat="45.84068" lon="4.80609">
        <ele>425.20001220703</ele>
        <time>2019-08-17T08:06:23.000Z</time>
      </trkpt>
      <trkpt lat="45.84062" lon="4.80612">
        <ele>424.60000610352</ele>
        <time>2019-08-17T08:06:24.000Z</time>
      </trkpt>
      <trkpt lat="45.84049" lon="4.80619">
        <ele>424.60000610352</ele>
        <time>2019-08-17T08:06:26.000Z</time>
      </trkpt>
      <trkpt lat="45.84042" lon="4.80623">
        <ele>424.60000610352</ele>
        <time>2019-08-17T08:06:27.000Z</time>
      </trkpt>
      <trkpt lat="45.83999" lon="4.80638">
        <ele>424.60000610352</ele>
        <time>2019-08-17T08:06:34.000Z</time>
      </trkpt>
      <trkpt lat="45.83964" lon="4.80643">
        <ele>424.60000610352</ele>
        <time>2019-08-17T08:06:40.000Z</time>
      </trkpt>
      <trkpt lat="45.83935" lon="4.80642">
        <ele>424.60000610352</ele>
        <time>2019-08-17T08:06:45.000Z</time>
      </trkpt>
      <trkpt lat="45.83929" lon="4.80642">
        <ele>423.79998779297</ele>
        <time>2019-08-17T08:06:46.000Z</time>
      </trkpt>
      <trkpt lat="45.83923" lon="4.80641">
        <ele>423.20001220703</ele>
        <time>2019-08-17T08:06:47.000Z</time>
      </trkpt>
      <trkpt lat="45.83917" lon="4.8064">
        <ele>422.79998779297</ele>
        <time>2019-08-17T08:06:48.000Z</time>
      </trkpt>
      <trkpt lat="45.83912" lon="4.80639">
        <ele>422.39999389648</ele>
        <time>2019-08-17T08:06:49.000Z</time>
      </trkpt>
      <trkpt lat="45.83901" lon="4.80635">
        <ele>422.39999389648</ele>
        <time>2019-08-17T08:06:51.000Z</time>
      </trkpt>
      <trkpt lat="45.83896" lon="4.80632">
        <ele>422.39999389648</ele>
        <time>2019-08-17T08:06:52.000Z</time>
      </trkpt>
      <trkpt lat="45.83878" lon="4.8062">
        <ele>421.79998779297</ele>
        <time>2019-08-17T08:06:55.000Z</time>
      </trkpt>
      <trkpt lat="45.83871" lon="4.80616">
        <ele>421.39999389648</ele>
        <time>2019-08-17T08:06:56.000Z</time>
      </trkpt>
      <trkpt lat="45.83865" lon="4.80613">
        <ele>420.79998779297</ele>
        <time>2019-08-17T08:06:57.000Z</time>
      </trkpt>
      <trkpt lat="45.83859" lon="4.80609">
        <ele>420.20001220703</ele>
        <time>2019-08-17T08:06:58.000Z</time>
      </trkpt>
      <trkpt lat="45.83853" lon="4.80605">
        <ele>419.39999389648</ele>
        <time>2019-08-17T08:06:59.000Z</time>
      </trkpt>
      <trkpt lat="45.83846" lon="4.806">
        <ele>418.60000610352</ele>
        <time>2019-08-17T08:07:00.000Z</time>
      </trkpt>
      <trkpt lat="45.83839" lon="4.80593">
        <ele>417.79998779297</ele>
        <time>2019-08-17T08:07:01.000Z</time>
      </trkpt>
      <trkpt lat="45.83833" lon="4.80587">
        <ele>417</ele>
        <time>2019-08-17T08:07:02.000Z</time>
      </trkpt>
      <trkpt lat="45.83827" lon="4.80578">
        <ele>416</ele>
        <time>2019-08-17T08:07:03.000Z</time>
      </trkpt>
      <trkpt lat="45.83821" lon="4.80569">
        <ele>415</ele>
        <time>2019-08-17T08:07:04.000Z</time>
      </trkpt>
      <trkpt lat="45.83816" lon="4.80561">
        <ele>414.20001220703</ele>
        <time>2019-08-17T08:07:05.000Z</time>
      </trkpt>
      <trkpt lat="45.83811" lon="4.80554">
        <ele>413.20001220703</ele>
        <time>2019-08-17T08:07:06.000Z</time>
      </trkpt>
      <trkpt lat="45.83806" lon="4.80548">
        <ele>412</ele>
        <time>2019-08-17T08:07:07.000Z</time>
      </trkpt>
      <trkpt lat="45.83802" lon="4.80542">
        <ele>411</ele>
        <time>2019-08-17T08:07:08.000Z</time>
      </trkpt>
      <trkpt lat="45.83797" lon="4.80536">
        <ele>409.79998779297</ele>
        <time>2019-08-17T08:07:09.000Z</time>
      </trkpt>
      <trkpt lat="45.83791" lon="4.80531">
        <ele>408.79998779297</ele>
        <time>2019-08-17T08:07:10.000Z</time>
      </trkpt>
      <trkpt lat="45.83785" lon="4.80527">
        <ele>406.60000610352</ele>
        <time>2019-08-17T08:07:11.000Z</time>
      </trkpt>
      <trkpt lat="45.8378" lon="4.80524">
        <ele>405.79998779297</ele>
        <time>2019-08-17T08:07:12.000Z</time>
      </trkpt>
      <trkpt lat="45.83774" lon="4.80524">
        <ele>404.79998779297</ele>
        <time>2019-08-17T08:07:13.000Z</time>
      </trkpt>
      <trkpt lat="45.83769" lon="4.80525">
        <ele>403.79998779297</ele>
        <time>2019-08-17T08:07:14.000Z</time>
      </trkpt>
      <trkpt lat="45.83764" lon="4.80528">
        <ele>403.20001220703</ele>
        <time>2019-08-17T08:07:15.000Z</time>
      </trkpt>
      <trkpt lat="45.83759" lon="4.80531">
        <ele>402.60000610352</ele>
        <time>2019-08-17T08:07:16.000Z</time>
      </trkpt>
      <trkpt lat="45.83753" lon="4.80533">
        <ele>402</ele>
        <time>2019-08-17T08:07:17.000Z</time>
      </trkpt>
      <trkpt lat="45.83748" lon="4.80535">
        <ele>401.20001220703</ele>
        <time>2019-08-17T08:07:18.000Z</time>
      </trkpt>
      <trkpt lat="45.83743" lon="4.80536">
        <ele>400.79998779297</ele>
        <time>2019-08-17T08:07:19.000Z</time>
      </trkpt>
      <trkpt lat="45.83738" lon="4.80538">
        <ele>400.20001220703</ele>
        <time>2019-08-17T08:07:20.000Z</time>
      </trkpt>
      <trkpt lat="45.83734" lon="4.80538">
        <ele>399.60000610352</ele>
        <time>2019-08-17T08:07:21.000Z</time>
      </trkpt>
      <trkpt lat="45.83729" lon="4.80538">
        <ele>399</ele>
        <time>2019-08-17T08:07:22.000Z</time>
      </trkpt>
      <trkpt lat="45.83724" lon="4.80538">
        <ele>398.60000610352</ele>
        <time>2019-08-17T08:07:23.000Z</time>
      </trkpt>
      <trkpt lat="45.83719" lon="4.80538">
        <ele>398.60000610352</ele>
        <time>2019-08-17T08:07:24.000Z</time>
      </trkpt>
      <trkpt lat="45.83713" lon="4.80538">
        <ele>398</ele>
        <time>2019-08-17T08:07:25.000Z</time>
      </trkpt>
      <trkpt lat="45.83708" lon="4.80537">
        <ele>397.60000610352</ele>
        <time>2019-08-17T08:07:26.000Z</time>
      </trkpt>
      <trkpt lat="45.83703" lon="4.80538">
        <ele>397.20001220703</ele>
        <time>2019-08-17T08:07:27.000Z</time>
      </trkpt>
      <trkpt lat="45.83698" lon="4.80538">
        <ele>396.79998779297</ele>
        <time>2019-08-17T08:07:28.000Z</time>
      </trkpt>
      <trkpt lat="45.83693" lon="4.8054">
        <ele>396.39999389648</ele>
        <time>2019-08-17T08:07:29.000Z</time>
      </trkpt>
      <trkpt lat="45.83687" lon="4.80543">
        <ele>396.39999389648</ele>
        <time>2019-08-17T08:07:30.000Z</time>
      </trkpt>
      <trkpt lat="45.83674" lon="4.80557">
        <ele>396.39999389648</ele>
        <time>2019-08-17T08:07:33.000Z</time>
      </trkpt>
      <trkpt lat="45.83664" lon="4.80565">
        <ele>396.39999389648</ele>
        <time>2019-08-17T08:07:35.000Z</time>
      </trkpt>
      <trkpt lat="45.8364" lon="4.80587">
        <ele>396.39999389648</ele>
        <time>2019-08-17T08:07:41.000Z</time>
      </trkpt>
      <trkpt lat="45.83619" lon="4.806">
        <ele>396.39999389648</ele>
        <time>2019-08-17T08:07:46.000Z</time>
      </trkpt>
      <trkpt lat="45.83591" lon="4.80615">
        <ele>396</ele>
        <time>2019-08-17T08:07:51.000Z</time>
      </trkpt>
      <trkpt lat="45.83584" lon="4.80619">
        <ele>395.39999389648</ele>
        <time>2019-08-17T08:07:52.000Z</time>
      </trkpt>
      <trkpt lat="45.83578" lon="4.80623">
        <ele>395</ele>
        <time>2019-08-17T08:07:53.000Z</time>
      </trkpt>
      <trkpt lat="45.83571" lon="4.80628">
        <ele>394.39999389648</ele>
        <time>2019-08-17T08:07:54.000Z</time>
      </trkpt>
      <trkpt lat="45.83564" lon="4.80633">
        <ele>394</ele>
        <time>2019-08-17T08:07:55.000Z</time>
      </trkpt>
      <trkpt lat="45.83549" lon="4.80644">
        <ele>394</ele>
        <time>2019-08-17T08:07:57.000Z</time>
      </trkpt>
      <trkpt lat="45.83526" lon="4.80663">
        <ele>393</ele>
        <time>2019-08-17T08:08:00.000Z</time>
      </trkpt>
      <trkpt lat="45.83518" lon="4.80668">
        <ele>392.60000610352</ele>
        <time>2019-08-17T08:08:01.000Z</time>
      </trkpt>
      <trkpt lat="45.83511" lon="4.80674">
        <ele>392.20001220703</ele>
        <time>2019-08-17T08:08:02.000Z</time>
      </trkpt>
      <trkpt lat="45.83503" lon="4.80679">
        <ele>391.79998779297</ele>
        <time>2019-08-17T08:08:03.000Z</time>
      </trkpt>
      <trkpt lat="45.83495" lon="4.80684">
        <ele>391.39999389648</ele>
        <time>2019-08-17T08:08:04.000Z</time>
      </trkpt>
      <trkpt lat="45.83487" lon="4.80689">
        <ele>391</ele>
        <time>2019-08-17T08:08:05.000Z</time>
      </trkpt>
      <trkpt lat="45.8348" lon="4.80694">
        <ele>390.60000610352</ele>
        <time>2019-08-17T08:08:06.000Z</time>
      </trkpt>
      <trkpt lat="45.83472" lon="4.80698">
        <ele>390.20001220703</ele>
        <time>2019-08-17T08:08:07.000Z</time>
      </trkpt>
      <trkpt lat="45.83465" lon="4.80702">
        <ele>389.79998779297</ele>
        <time>2019-08-17T08:08:08.000Z</time>
      </trkpt>
      <trkpt lat="45.83451" lon="4.8071">
        <ele>389.79998779297</ele>
        <time>2019-08-17T08:08:10.000Z</time>
      </trkpt>
      <trkpt lat="45.83425" lon="4.80721">
        <ele>389.79998779297</ele>
        <time>2019-08-17T08:08:14.000Z</time>
      </trkpt>
      <trkpt lat="45.83419" lon="4.8072">
        <ele>389.39999389648</ele>
        <time>2019-08-17T08:08:15.000Z</time>
      </trkpt>
      <trkpt lat="45.83415" lon="4.80718">
        <ele>389</ele>
        <time>2019-08-17T08:08:16.000Z</time>
      </trkpt>
      <trkpt lat="45.83412" lon="4.80714">
        <ele>388.39999389648</ele>
        <time>2019-08-17T08:08:17.000Z</time>
      </trkpt>
      <trkpt lat="45.83409" lon="4.80709">
        <ele>388</ele>
        <time>2019-08-17T08:08:18.000Z</time>
      </trkpt>
      <trkpt lat="45.83406" lon="4.80703">
        <ele>387.60000610352</ele>
        <time>2019-08-17T08:08:19.000Z</time>
      </trkpt>
      <trkpt lat="45.83404" lon="4.80698">
        <ele>387.60000610352</ele>
        <time>2019-08-17T08:08:20.000Z</time>
      </trkpt>
      <trkpt lat="45.83397" lon="4.80683">
        <ele>387.60000610352</ele>
        <time>2019-08-17T08:08:23.000Z</time>
      </trkpt>
      <trkpt lat="45.83392" lon="4.80673">
        <ele>387.60000610352</ele>
        <time>2019-08-17T08:08:25.000Z</time>
      </trkpt>
      <trkpt lat="45.83388" lon="4.80661">
        <ele>388.20001220703</ele>
        <time>2019-08-17T08:08:27.000Z</time>
      </trkpt>
      <trkpt lat="45.83386" lon="4.80655">
        <ele>388.60000610352</ele>
        <time>2019-08-17T08:08:28.000Z</time>
      </trkpt>
      <trkpt lat="45.83385" lon="4.80648">
        <ele>389</ele>
        <time>2019-08-17T08:08:29.000Z</time>
      </trkpt>
      <trkpt lat="45.83384" lon="4.80641">
        <ele>389.39999389648</ele>
        <time>2019-08-17T08:08:30.000Z</time>
      </trkpt>
      <trkpt lat="45.83384" lon="4.80634">
        <ele>389.79998779297</ele>
        <time>2019-08-17T08:08:31.000Z</time>
      </trkpt>
      <trkpt lat="45.8338" lon="4.80594">
        <ele>389.79998779297</ele>
        <time>2019-08-17T08:08:37.000Z</time>
      </trkpt>
      <trkpt lat="45.83372" lon="4.80567">
        <ele>389.79998779297</ele>
        <time>2019-08-17T08:08:42.000Z</time>
      </trkpt>
      <trkpt lat="45.83364" lon="4.80562">
        <ele>389.79998779297</ele>
        <time>2019-08-17T08:08:44.000Z</time>
      </trkpt>
      <trkpt lat="45.83355" lon="4.80561">
        <ele>389.79998779297</ele>
        <time>2019-08-17T08:08:46.000Z</time>
      </trkpt>
      <trkpt lat="45.83334" lon="4.8056">
        <ele>389.39999389648</ele>
        <time>2019-08-17T08:08:49.000Z</time>
      </trkpt>
      <trkpt lat="45.83326" lon="4.80558">
        <ele>388.60000610352</ele>
        <time>2019-08-17T08:08:50.000Z</time>
      </trkpt>
      <trkpt lat="45.83318" lon="4.80555">
        <ele>388.20001220703</ele>
        <time>2019-08-17T08:08:51.000Z</time>
      </trkpt>
      <trkpt lat="45.8331" lon="4.80551">
        <ele>387.79998779297</ele>
        <time>2019-08-17T08:08:52.000Z</time>
      </trkpt>
      <trkpt lat="45.83302" lon="4.80548">
        <ele>387.39999389648</ele>
        <time>2019-08-17T08:08:53.000Z</time>
      </trkpt>
      <trkpt lat="45.83295" lon="4.80545">
        <ele>386.79998779297</ele>
        <time>2019-08-17T08:08:54.000Z</time>
      </trkpt>
      <trkpt lat="45.83287" lon="4.80543">
        <ele>386.39999389648</ele>
        <time>2019-08-17T08:08:55.000Z</time>
      </trkpt>
      <trkpt lat="45.8328" lon="4.80543">
        <ele>386</ele>
        <time>2019-08-17T08:08:56.000Z</time>
      </trkpt>
      <trkpt lat="45.83272" lon="4.80544">
        <ele>385.39999389648</ele>
        <time>2019-08-17T08:08:57.000Z</time>
      </trkpt>
      <trkpt lat="45.83265" lon="4.80547">
        <ele>385.39999389648</ele>
        <time>2019-08-17T08:08:58.000Z</time>
      </trkpt>
      <trkpt lat="45.8325" lon="4.80555">
        <ele>385</ele>
        <time>2019-08-17T08:09:00.000Z</time>
      </trkpt>
      <trkpt lat="45.83243" lon="4.80559">
        <ele>384.60000610352</ele>
        <time>2019-08-17T08:09:01.000Z</time>
      </trkpt>
      <trkpt lat="45.83236" lon="4.80563">
        <ele>384.20001220703</ele>
        <time>2019-08-17T08:09:02.000Z</time>
      </trkpt>
      <trkpt lat="45.83229" lon="4.80567">
        <ele>383.79998779297</ele>
        <time>2019-08-17T08:09:03.000Z</time>
      </trkpt>
      <trkpt lat="45.83222" lon="4.80571">
        <ele>383.39999389648</ele>
        <time>2019-08-17T08:09:04.000Z</time>
      </trkpt>
      <trkpt lat="45.83191" lon="4.80588">
        <ele>383.39999389648</ele>
        <time>2019-08-17T08:09:09.000Z</time>
      </trkpt>
      <trkpt lat="45.83185" lon="4.80592">
        <ele>383.39999389648</ele>
        <time>2019-08-17T08:09:10.000Z</time>
      </trkpt>
      <trkpt lat="45.8317" lon="4.80612">
        <ele>383.39999389648</ele>
        <time>2019-08-17T08:09:14.000Z</time>
      </trkpt>
      <trkpt lat="45.83167" lon="4.80618">
        <ele>383.39999389648</ele>
        <time>2019-08-17T08:09:15.000Z</time>
      </trkpt>
      <trkpt lat="45.8315" lon="4.80652">
        <ele>383.39999389648</ele>
        <time>2019-08-17T08:09:22.000Z</time>
      </trkpt>
      <trkpt lat="45.83146" lon="4.80658">
        <ele>383.39999389648</ele>
        <time>2019-08-17T08:09:25.000Z</time>
      </trkpt>
      <trkpt lat="45.83146" lon="4.80658">
        <ele>383.39999389648</ele>
        <time>2019-08-17T08:09:26.000Z</time>
      </trkpt>
      <trkpt lat="45.83146" lon="4.80658">
        <ele>383.39999389648</ele>
        <time>2019-08-17T08:10:00.000Z</time>
      </trkpt>
      <trkpt lat="45.83143" lon="4.80659">
        <ele>383.39999389648</ele>
        <time>2019-08-17T08:10:04.000Z</time>
      </trkpt>
      <trkpt lat="45.83143" lon="4.80659">
        <ele>383.39999389648</ele>
        <time>2019-08-17T08:10:05.000Z</time>
      </trkpt>
      <trkpt lat="45.83143" lon="4.80659">
        <ele>383.39999389648</ele>
        <time>2019-08-17T08:10:33.000Z</time>
      </trkpt>
      <trkpt lat="45.83141" lon="4.8066">
        <ele>383.39999389648</ele>
        <time>2019-08-17T08:10:35.000Z</time>
      </trkpt>
      <trkpt lat="45.83141" lon="4.80661">
        <ele>383.39999389648</ele>
        <time>2019-08-17T08:10:46.000Z</time>
      </trkpt>
      <trkpt lat="45.83142" lon="4.80667">
        <ele>383.39999389648</ele>
        <time>2019-08-17T08:10:49.000Z</time>
      </trkpt>
      <trkpt lat="45.83145" lon="4.80679">
        <ele>383.39999389648</ele>
        <time>2019-08-17T08:10:53.000Z</time>
      </trkpt>
      <trkpt lat="45.83145" lon="4.80684">
        <ele>383.39999389648</ele>
        <time>2019-08-17T08:10:54.000Z</time>
      </trkpt>
      <trkpt lat="45.83145" lon="4.80696">
        <ele>383.39999389648</ele>
        <time>2019-08-17T08:10:56.000Z</time>
      </trkpt>
      <trkpt lat="45.83146" lon="4.80709">
        <ele>383</ele>
        <time>2019-08-17T08:10:58.000Z</time>
      </trkpt>
      <trkpt lat="45.83146" lon="4.80715">
        <ele>382.39999389648</ele>
        <time>2019-08-17T08:10:59.000Z</time>
      </trkpt>
      <trkpt lat="45.83146" lon="4.80722">
        <ele>382</ele>
        <time>2019-08-17T08:11:00.000Z</time>
      </trkpt>
      <trkpt lat="45.83145" lon="4.80729">
        <ele>381.60000610352</ele>
        <time>2019-08-17T08:11:01.000Z</time>
      </trkpt>
      <trkpt lat="45.83145" lon="4.80736">
        <ele>381.20001220703</ele>
        <time>2019-08-17T08:11:02.000Z</time>
      </trkpt>
      <trkpt lat="45.83144" lon="4.8075">
        <ele>381.20001220703</ele>
        <time>2019-08-17T08:11:04.000Z</time>
      </trkpt>
      <trkpt lat="45.83136" lon="4.80793">
        <ele>381.20001220703</ele>
        <time>2019-08-17T08:11:10.000Z</time>
      </trkpt>
      <trkpt lat="45.83132" lon="4.80804">
        <ele>380.79998779297</ele>
        <time>2019-08-17T08:11:12.000Z</time>
      </trkpt>
      <trkpt lat="45.83129" lon="4.8081">
        <ele>380.39999389648</ele>
        <time>2019-08-17T08:11:13.000Z</time>
      </trkpt>
      <trkpt lat="45.83127" lon="4.80816">
        <ele>380</ele>
        <time>2019-08-17T08:11:14.000Z</time>
      </trkpt>
      <trkpt lat="45.83124" lon="4.80822">
        <ele>379.60000610352</ele>
        <time>2019-08-17T08:11:15.000Z</time>
      </trkpt>
      <trkpt lat="45.83121" lon="4.80827">
        <ele>379.20001220703</ele>
        <time>2019-08-17T08:11:16.000Z</time>
      </trkpt>
      <trkpt lat="45.83111" lon="4.80843">
        <ele>379.20001220703</ele>
        <time>2019-08-17T08:11:19.000Z</time>
      </trkpt>
      <trkpt lat="45.83098" lon="4.80856">
        <ele>379.20001220703</ele>
        <time>2019-08-17T08:11:22.000Z</time>
      </trkpt>
      <trkpt lat="45.83067" lon="4.80889">
        <ele>378.79998779297</ele>
        <time>2019-08-17T08:11:28.000Z</time>
      </trkpt>
      <trkpt lat="45.83061" lon="4.80895">
        <ele>378.39999389648</ele>
        <time>2019-08-17T08:11:29.000Z</time>
      </trkpt>
      <trkpt lat="45.83056" lon="4.809">
        <ele>378</ele>
        <time>2019-08-17T08:11:30.000Z</time>
      </trkpt>
      <trkpt lat="45.83049" lon="4.80907">
        <ele>377.60000610352</ele>
        <time>2019-08-17T08:11:31.000Z</time>
      </trkpt>
      <trkpt lat="45.83043" lon="4.80913">
        <ele>377.20001220703</ele>
        <time>2019-08-17T08:11:32.000Z</time>
      </trkpt>
      <trkpt lat="45.83029" lon="4.80927">
        <ele>377.20001220703</ele>
        <time>2019-08-17T08:11:34.000Z</time>
      </trkpt>
      <trkpt lat="45.83023" lon="4.80934">
        <ele>376.60000610352</ele>
        <time>2019-08-17T08:11:35.000Z</time>
      </trkpt>
      <trkpt lat="45.83016" lon="4.8094">
        <ele>376.20001220703</ele>
        <time>2019-08-17T08:11:36.000Z</time>
      </trkpt>
      <trkpt lat="45.83009" lon="4.80948">
        <ele>375.79998779297</ele>
        <time>2019-08-17T08:11:37.000Z</time>
      </trkpt>
      <trkpt lat="45.83003" lon="4.80955">
        <ele>375.39999389648</ele>
        <time>2019-08-17T08:11:38.000Z</time>
      </trkpt>
      <trkpt lat="45.82996" lon="4.80962">
        <ele>374.79998779297</ele>
        <time>2019-08-17T08:11:39.000Z</time>
      </trkpt>
      <trkpt lat="45.82989" lon="4.8097">
        <ele>374.39999389648</ele>
        <time>2019-08-17T08:11:40.000Z</time>
      </trkpt>
      <trkpt lat="45.82982" lon="4.80976">
        <ele>373.79998779297</ele>
        <time>2019-08-17T08:11:41.000Z</time>
      </trkpt>
      <trkpt lat="45.82975" lon="4.80984">
        <ele>373.39999389648</ele>
        <time>2019-08-17T08:11:42.000Z</time>
      </trkpt>
      <trkpt lat="45.82967" lon="4.80992">
        <ele>372.39999389648</ele>
        <time>2019-08-17T08:11:43.000Z</time>
      </trkpt>
      <trkpt lat="45.8296" lon="4.81">
        <ele>372</ele>
        <time>2019-08-17T08:11:44.000Z</time>
      </trkpt>
      <trkpt lat="45.82952" lon="4.81007">
        <ele>371.39999389648</ele>
        <time>2019-08-17T08:11:45.000Z</time>
      </trkpt>
      <trkpt lat="45.82945" lon="4.81015">
        <ele>371</ele>
        <time>2019-08-17T08:11:46.000Z</time>
      </trkpt>
      <trkpt lat="45.82938" lon="4.81023">
        <ele>370.60000610352</ele>
        <time>2019-08-17T08:11:47.000Z</time>
      </trkpt>
      <trkpt lat="45.82917" lon="4.81045">
        <ele>370</ele>
        <time>2019-08-17T08:11:50.000Z</time>
      </trkpt>
      <trkpt lat="45.8291" lon="4.81053">
        <ele>369.60000610352</ele>
        <time>2019-08-17T08:11:51.000Z</time>
      </trkpt>
      <trkpt lat="45.82902" lon="4.8106">
        <ele>369.20001220703</ele>
        <time>2019-08-17T08:11:52.000Z</time>
      </trkpt>
      <trkpt lat="45.82895" lon="4.81067">
        <ele>368.79998779297</ele>
        <time>2019-08-17T08:11:53.000Z</time>
      </trkpt>
      <trkpt lat="45.82888" lon="4.81075">
        <ele>368.20001220703</ele>
        <time>2019-08-17T08:11:54.000Z</time>
      </trkpt>
      <trkpt lat="45.82856" lon="4.81108">
        <ele>367.79998779297</ele>
        <time>2019-08-17T08:11:59.000Z</time>
      </trkpt>
      <trkpt lat="45.8285" lon="4.81115">
        <ele>367.39999389648</ele>
        <time>2019-08-17T08:12:00.000Z</time>
      </trkpt>
      <trkpt lat="45.82844" lon="4.81121">
        <ele>367</ele>
        <time>2019-08-17T08:12:01.000Z</time>
      </trkpt>
      <trkpt lat="45.82838" lon="4.81128">
        <ele>366.60000610352</ele>
        <time>2019-08-17T08:12:02.000Z</time>
      </trkpt>
      <trkpt lat="45.82833" lon="4.81135">
        <ele>366.20001220703</ele>
        <time>2019-08-17T08:12:03.000Z</time>
      </trkpt>
      <trkpt lat="45.82824" lon="4.81149">
        <ele>366.20001220703</ele>
        <time>2019-08-17T08:12:05.000Z</time>
      </trkpt>
      <trkpt lat="45.82817" lon="4.81164">
        <ele>366.20001220703</ele>
        <time>2019-08-17T08:12:07.000Z</time>
      </trkpt>
      <trkpt lat="45.8281" lon="4.81184">
        <ele>366.20001220703</ele>
        <time>2019-08-17T08:12:10.000Z</time>
      </trkpt>
      <trkpt lat="45.82801" lon="4.81216">
        <ele>366.20001220703</ele>
        <time>2019-08-17T08:12:16.000Z</time>
      </trkpt>
      <trkpt lat="45.82794" lon="4.81246">
        <ele>366.20001220703</ele>
        <time>2019-08-17T08:12:22.000Z</time>
      </trkpt>
      <trkpt lat="45.82793" lon="4.81251">
        <ele>366.60000610352</ele>
        <time>2019-08-17T08:12:23.000Z</time>
      </trkpt>
      <trkpt lat="45.82793" lon="4.81256">
        <ele>367</ele>
        <time>2019-08-17T08:12:24.000Z</time>
      </trkpt>
      <trkpt lat="45.82792" lon="4.8126">
        <ele>367.39999389648</ele>
        <time>2019-08-17T08:12:25.000Z</time>
      </trkpt>
      <trkpt lat="45.82791" lon="4.81265">
        <ele>367.79998779297</ele>
        <time>2019-08-17T08:12:26.000Z</time>
      </trkpt>
      <trkpt lat="45.8279" lon="4.8127">
        <ele>368.39999389648</ele>
        <time>2019-08-17T08:12:27.000Z</time>
      </trkpt>
      <trkpt lat="45.82789" lon="4.81275">
        <ele>368.39999389648</ele>
        <time>2019-08-17T08:12:28.000Z</time>
      </trkpt>
      <trkpt lat="45.82786" lon="4.81297">
        <ele>369.20001220703</ele>
        <time>2019-08-17T08:12:32.000Z</time>
      </trkpt>
      <trkpt lat="45.82786" lon="4.81303">
        <ele>369.60000610352</ele>
        <time>2019-08-17T08:12:33.000Z</time>
      </trkpt>
      <trkpt lat="45.82785" lon="4.81307">
        <ele>370</ele>
        <time>2019-08-17T08:12:34.000Z</time>
      </trkpt>
      <trkpt lat="45.82785" lon="4.81312">
        <ele>370.39999389648</ele>
        <time>2019-08-17T08:12:35.000Z</time>
      </trkpt>
      <trkpt lat="45.82781" lon="4.81334">
        <ele>370.39999389648</ele>
        <time>2019-08-17T08:12:40.000Z</time>
      </trkpt>
      <trkpt lat="45.82779" lon="4.81342">
        <ele>370.79998779297</ele>
        <time>2019-08-17T08:12:42.000Z</time>
      </trkpt>
      <trkpt lat="45.82779" lon="4.81346">
        <ele>371.20001220703</ele>
        <time>2019-08-17T08:12:43.000Z</time>
      </trkpt>
      <trkpt lat="45.82778" lon="4.81351">
        <ele>371.60000610352</ele>
        <time>2019-08-17T08:12:44.000Z</time>
      </trkpt>
      <trkpt lat="45.82777" lon="4.81354">
        <ele>372.20001220703</ele>
        <time>2019-08-17T08:12:45.000Z</time>
      </trkpt>
      <trkpt lat="45.82776" lon="4.81358">
        <ele>372.60000610352</ele>
        <time>2019-08-17T08:12:46.000Z</time>
      </trkpt>
      <trkpt lat="45.82776" lon="4.81362">
        <ele>372.60000610352</ele>
        <time>2019-08-17T08:12:47.000Z</time>
      </trkpt>
      <trkpt lat="45.8277" lon="4.81381">
        <ele>373</ele>
        <time>2019-08-17T08:12:52.000Z</time>
      </trkpt>
      <trkpt lat="45.82768" lon="4.81385">
        <ele>373.39999389648</ele>
        <time>2019-08-17T08:12:53.000Z</time>
      </trkpt>
      <trkpt lat="45.82767" lon="4.81388">
        <ele>373.79998779297</ele>
        <time>2019-08-17T08:12:54.000Z</time>
      </trkpt>
      <trkpt lat="45.82766" lon="4.81392">
        <ele>374.20001220703</ele>
        <time>2019-08-17T08:12:55.000Z</time>
      </trkpt>
      <trkpt lat="45.82765" lon="4.81395">
        <ele>374.79998779297</ele>
        <time>2019-08-17T08:12:56.000Z</time>
      </trkpt>
      <trkpt lat="45.82757" lon="4.8141">
        <ele>374.79998779297</ele>
        <time>2019-08-17T08:13:01.000Z</time>
      </trkpt>
      <trkpt lat="45.82755" lon="4.81413">
        <ele>375.20001220703</ele>
        <time>2019-08-17T08:13:02.000Z</time>
      </trkpt>
      <trkpt lat="45.82753" lon="4.81416">
        <ele>375.60000610352</ele>
        <time>2019-08-17T08:13:03.000Z</time>
      </trkpt>
      <trkpt lat="45.82751" lon="4.81419">
        <ele>376</ele>
        <time>2019-08-17T08:13:04.000Z</time>
      </trkpt>
      <trkpt lat="45.8275" lon="4.81422">
        <ele>376.39999389648</ele>
        <time>2019-08-17T08:13:05.000Z</time>
      </trkpt>
      <trkpt lat="45.82748" lon="4.81425">
        <ele>376.79998779297</ele>
        <time>2019-08-17T08:13:06.000Z</time>
      </trkpt>
      <trkpt lat="45.82742" lon="4.81432">
        <ele>376.79998779297</ele>
        <time>2019-08-17T08:13:09.000Z</time>
      </trkpt>
      <trkpt lat="45.82734" lon="4.81443">
        <ele>377.20001220703</ele>
        <time>2019-08-17T08:13:13.000Z</time>
      </trkpt>
      <trkpt lat="45.82732" lon="4.81445">
        <ele>377.60000610352</ele>
        <time>2019-08-17T08:13:14.000Z</time>
      </trkpt>
      <trkpt lat="45.8273" lon="4.81448">
        <ele>378.20001220703</ele>
        <time>2019-08-17T08:13:15.000Z</time>
      </trkpt>
      <trkpt lat="45.82728" lon="4.8145">
        <ele>378.60000610352</ele>
        <time>2019-08-17T08:13:16.000Z</time>
      </trkpt>
      <trkpt lat="45.82726" lon="4.81452">
        <ele>379</ele>
        <time>2019-08-17T08:13:17.000Z</time>
      </trkpt>
      <trkpt lat="45.82715" lon="4.81459">
        <ele>379.79998779297</ele>
        <time>2019-08-17T08:13:22.000Z</time>
      </trkpt>
      <trkpt lat="45.82713" lon="4.81461">
        <ele>380.20001220703</ele>
        <time>2019-08-17T08:13:23.000Z</time>
      </trkpt>
      <trkpt lat="45.82711" lon="4.81463">
        <ele>380.79998779297</ele>
        <time>2019-08-17T08:13:24.000Z</time>
      </trkpt>
      <trkpt lat="45.82709" lon="4.81463">
        <ele>381.20001220703</ele>
        <time>2019-08-17T08:13:25.000Z</time>
      </trkpt>
      <trkpt lat="45.82701" lon="4.81469">
        <ele>381.20001220703</ele>
        <time>2019-08-17T08:13:29.000Z</time>
      </trkpt>
      <trkpt lat="45.827" lon="4.81471">
        <ele>381.60000610352</ele>
        <time>2019-08-17T08:13:30.000Z</time>
      </trkpt>
      <trkpt lat="45.82697" lon="4.81472">
        <ele>382</ele>
        <time>2019-08-17T08:13:31.000Z</time>
      </trkpt>
      <trkpt lat="45.82695" lon="4.81474">
        <ele>382.39999389648</ele>
        <time>2019-08-17T08:13:32.000Z</time>
      </trkpt>
      <trkpt lat="45.82693" lon="4.81475">
        <ele>382.79998779297</ele>
        <time>2019-08-17T08:13:33.000Z</time>
      </trkpt>
      <trkpt lat="45.82691" lon="4.81476">
        <ele>383.20001220703</ele>
        <time>2019-08-17T08:13:34.000Z</time>
      </trkpt>
      <trkpt lat="45.82688" lon="4.81478">
        <ele>383.20001220703</ele>
        <time>2019-08-17T08:13:36.000Z</time>
      </trkpt>
      <trkpt lat="45.8268" lon="4.81483">
        <ele>383.60000610352</ele>
        <time>2019-08-17T08:13:40.000Z</time>
      </trkpt>
      <trkpt lat="45.82678" lon="4.81484">
        <ele>384</ele>
        <time>2019-08-17T08:13:41.000Z</time>
      </trkpt>
      <trkpt lat="45.82676" lon="4.81485">
        <ele>384.39999389648</ele>
        <time>2019-08-17T08:13:42.000Z</time>
      </trkpt>
      <trkpt lat="45.82673" lon="4.81486">
        <ele>384.79998779297</ele>
        <time>2019-08-17T08:13:43.000Z</time>
      </trkpt>
      <trkpt lat="45.82671" lon="4.81487">
        <ele>385.20001220703</ele>
        <time>2019-08-17T08:13:44.000Z</time>
      </trkpt>
      <trkpt lat="45.82658" lon="4.81492">
        <ele>385.60000610352</ele>
        <time>2019-08-17T08:13:49.000Z</time>
      </trkpt>
      <trkpt lat="45.82655" lon="4.81493">
        <ele>386</ele>
        <time>2019-08-17T08:13:50.000Z</time>
      </trkpt>
      <trkpt lat="45.82652" lon="4.81494">
        <ele>386.60000610352</ele>
        <time>2019-08-17T08:13:51.000Z</time>
      </trkpt>
      <trkpt lat="45.82649" lon="4.81494">
        <ele>387</ele>
        <time>2019-08-17T08:13:52.000Z</time>
      </trkpt>
      <trkpt lat="45.82647" lon="4.81494">
        <ele>387.39999389648</ele>
        <time>2019-08-17T08:13:53.000Z</time>
      </trkpt>
      <trkpt lat="45.8264" lon="4.81497">
        <ele>387.39999389648</ele>
        <time>2019-08-17T08:13:57.000Z</time>
      </trkpt>
      <trkpt lat="45.82632" lon="4.81499">
        <ele>387.79998779297</ele>
        <time>2019-08-17T08:14:00.000Z</time>
      </trkpt>
      <trkpt lat="45.82629" lon="4.815">
        <ele>388.20001220703</ele>
        <time>2019-08-17T08:14:01.000Z</time>
      </trkpt>
      <trkpt lat="45.82627" lon="4.81501">
        <ele>388.79998779297</ele>
        <time>2019-08-17T08:14:02.000Z</time>
      </trkpt>
      <trkpt lat="45.82624" lon="4.81502">
        <ele>389.20001220703</ele>
        <time>2019-08-17T08:14:03.000Z</time>
      </trkpt>
      <trkpt lat="45.82622" lon="4.81503">
        <ele>389.60000610352</ele>
        <time>2019-08-17T08:14:04.000Z</time>
      </trkpt>
      <trkpt lat="45.82604" lon="4.81508">
        <ele>390</ele>
        <time>2019-08-17T08:14:10.000Z</time>
      </trkpt>
      <trkpt lat="45.82601" lon="4.81509">
        <ele>390.79998779297</ele>
        <time>2019-08-17T08:14:11.000Z</time>
      </trkpt>
      <trkpt lat="45.82598" lon="4.81509">
        <ele>391.20001220703</ele>
        <time>2019-08-17T08:14:12.000Z</time>
      </trkpt>
      <trkpt lat="45.82595" lon="4.81511">
        <ele>391.60000610352</ele>
        <time>2019-08-17T08:14:13.000Z</time>
      </trkpt>
      <trkpt lat="45.82579" lon="4.81523">
        <ele>391.60000610352</ele>
        <time>2019-08-17T08:14:19.000Z</time>
      </trkpt>
      <trkpt lat="45.82574" lon="4.81529">
        <ele>392</ele>
        <time>2019-08-17T08:14:21.000Z</time>
      </trkpt>
      <trkpt lat="45.82571" lon="4.81531">
        <ele>392.39999389648</ele>
        <time>2019-08-17T08:14:22.000Z</time>
      </trkpt>
      <trkpt lat="45.82569" lon="4.81533">
        <ele>392.79998779297</ele>
        <time>2019-08-17T08:14:23.000Z</time>
      </trkpt>
      <trkpt lat="45.82567" lon="4.81536">
        <ele>393.20001220703</ele>
        <time>2019-08-17T08:14:24.000Z</time>
      </trkpt>
      <trkpt lat="45.82565" lon="4.81539">
        <ele>393.79998779297</ele>
        <time>2019-08-17T08:14:25.000Z</time>
      </trkpt>
      <trkpt lat="45.82563" lon="4.81543">
        <ele>393.79998779297</ele>
        <time>2019-08-17T08:14:26.000Z</time>
      </trkpt>
      <trkpt lat="45.82552" lon="4.81563">
        <ele>393.79998779297</ele>
        <time>2019-08-17T08:14:31.000Z</time>
      </trkpt>
      <trkpt lat="45.8255" lon="4.81567">
        <ele>394.20001220703</ele>
        <time>2019-08-17T08:14:32.000Z</time>
      </trkpt>
      <trkpt lat="45.82548" lon="4.81571">
        <ele>394.60000610352</ele>
        <time>2019-08-17T08:14:33.000Z</time>
      </trkpt>
      <trkpt lat="45.82546" lon="4.81576">
        <ele>395</ele>
        <time>2019-08-17T08:14:34.000Z</time>
      </trkpt>
      <trkpt lat="45.82544" lon="4.8158">
        <ele>395.39999389648</ele>
        <time>2019-08-17T08:14:35.000Z</time>
      </trkpt>
      <trkpt lat="45.82543" lon="4.81585">
        <ele>395.79998779297</ele>
        <time>2019-08-17T08:14:36.000Z</time>
      </trkpt>
      <trkpt lat="45.82541" lon="4.81595">
        <ele>396.39999389648</ele>
        <time>2019-08-17T08:14:38.000Z</time>
      </trkpt>
      <trkpt lat="45.82541" lon="4.816">
        <ele>396.79998779297</ele>
        <time>2019-08-17T08:14:39.000Z</time>
      </trkpt>
      <trkpt lat="45.8254" lon="4.81605">
        <ele>397.20001220703</ele>
        <time>2019-08-17T08:14:40.000Z</time>
      </trkpt>
      <trkpt lat="45.82539" lon="4.81611">
        <ele>397.79998779297</ele>
        <time>2019-08-17T08:14:41.000Z</time>
      </trkpt>
      <trkpt lat="45.82538" lon="4.81615">
        <ele>398.20001220703</ele>
        <time>2019-08-17T08:14:42.000Z</time>
      </trkpt>
      <trkpt lat="45.82537" lon="4.81626">
        <ele>398.20001220703</ele>
        <time>2019-08-17T08:14:44.000Z</time>
      </trkpt>
      <trkpt lat="45.82533" lon="4.81652">
        <ele>398.60000610352</ele>
        <time>2019-08-17T08:14:49.000Z</time>
      </trkpt>
      <trkpt lat="45.82532" lon="4.81657">
        <ele>399.20001220703</ele>
        <time>2019-08-17T08:14:50.000Z</time>
      </trkpt>
      <trkpt lat="45.82532" lon="4.81662">
        <ele>399.60000610352</ele>
        <time>2019-08-17T08:14:51.000Z</time>
      </trkpt>
      <trkpt lat="45.82531" lon="4.81667">
        <ele>400</ele>
        <time>2019-08-17T08:14:52.000Z</time>
      </trkpt>
      <trkpt lat="45.82531" lon="4.81672">
        <ele>400.39999389648</ele>
        <time>2019-08-17T08:14:53.000Z</time>
      </trkpt>
      <trkpt lat="45.82527" lon="4.81701">
        <ele>401</ele>
        <time>2019-08-17T08:14:59.000Z</time>
      </trkpt>
      <trkpt lat="45.82526" lon="4.81706">
        <ele>401.39999389648</ele>
        <time>2019-08-17T08:15:00.000Z</time>
      </trkpt>
      <trkpt lat="45.82526" lon="4.81711">
        <ele>402.20001220703</ele>
        <time>2019-08-17T08:15:01.000Z</time>
      </trkpt>
      <trkpt lat="45.82525" lon="4.81716">
        <ele>402.60000610352</ele>
        <time>2019-08-17T08:15:02.000Z</time>
      </trkpt>
      <trkpt lat="45.82521" lon="4.81745">
        <ele>402.60000610352</ele>
        <time>2019-08-17T08:15:08.000Z</time>
      </trkpt>
      <trkpt lat="45.82517" lon="4.8176">
        <ele>403</ele>
        <time>2019-08-17T08:15:11.000Z</time>
      </trkpt>
      <trkpt lat="45.82516" lon="4.81765">
        <ele>403.39999389648</ele>
        <time>2019-08-17T08:15:12.000Z</time>
      </trkpt>
      <trkpt lat="45.82515" lon="4.8177">
        <ele>404</ele>
        <time>2019-08-17T08:15:13.000Z</time>
      </trkpt>
      <trkpt lat="45.82513" lon="4.81775">
        <ele>404.39999389648</ele>
        <time>2019-08-17T08:15:14.000Z</time>
      </trkpt>
      <trkpt lat="45.82512" lon="4.81779">
        <ele>404.79998779297</ele>
        <time>2019-08-17T08:15:15.000Z</time>
      </trkpt>
      <trkpt lat="45.82498" lon="4.81802">
        <ele>404.79998779297</ele>
        <time>2019-08-17T08:15:21.000Z</time>
      </trkpt>
      <trkpt lat="45.82487" lon="4.81815">
        <ele>405.79998779297</ele>
        <time>2019-08-17T08:15:25.000Z</time>
      </trkpt>
      <trkpt lat="45.82484" lon="4.81818">
        <ele>406.20001220703</ele>
        <time>2019-08-17T08:15:26.000Z</time>
      </trkpt>
      <trkpt lat="45.82481" lon="4.8182">
        <ele>406.60000610352</ele>
        <time>2019-08-17T08:15:27.000Z</time>
      </trkpt>
      <trkpt lat="45.82478" lon="4.81823">
        <ele>407</ele>
        <time>2019-08-17T08:15:28.000Z</time>
      </trkpt>
      <trkpt lat="45.82464" lon="4.81833">
        <ele>407.39999389648</ele>
        <time>2019-08-17T08:15:32.000Z</time>
      </trkpt>
      <trkpt lat="45.82461" lon="4.81836">
        <ele>408</ele>
        <time>2019-08-17T08:15:33.000Z</time>
      </trkpt>
      <trkpt lat="45.82458" lon="4.81839">
        <ele>408.39999389648</ele>
        <time>2019-08-17T08:15:34.000Z</time>
      </trkpt>
      <trkpt lat="45.82455" lon="4.81842">
        <ele>408.79998779297</ele>
        <time>2019-08-17T08:15:35.000Z</time>
      </trkpt>
      <trkpt lat="45.82452" lon="4.81844">
        <ele>409.20001220703</ele>
        <time>2019-08-17T08:15:36.000Z</time>
      </trkpt>
      <trkpt lat="45.82434" lon="4.81859">
        <ele>409.60000610352</ele>
        <time>2019-08-17T08:15:42.000Z</time>
      </trkpt>
      <trkpt lat="45.82431" lon="4.81861">
        <ele>410.20001220703</ele>
        <time>2019-08-17T08:15:43.000Z</time>
      </trkpt>
      <trkpt lat="45.82427" lon="4.81863">
        <ele>410.60000610352</ele>
        <time>2019-08-17T08:15:44.000Z</time>
      </trkpt>
      <trkpt lat="45.82424" lon="4.81866">
        <ele>411</ele>
        <time>2019-08-17T08:15:45.000Z</time>
      </trkpt>
      <trkpt lat="45.82422" lon="4.81868">
        <ele>411.60000610352</ele>
        <time>2019-08-17T08:15:46.000Z</time>
      </trkpt>
      <trkpt lat="45.82412" lon="4.81875">
        <ele>411.60000610352</ele>
        <time>2019-08-17T08:15:49.000Z</time>
      </trkpt>
      <trkpt lat="45.82404" lon="4.81883">
        <ele>412</ele>
        <time>2019-08-17T08:15:52.000Z</time>
      </trkpt>
      <trkpt lat="45.82401" lon="4.81886">
        <ele>412.39999389648</ele>
        <time>2019-08-17T08:15:53.000Z</time>
      </trkpt>
      <trkpt lat="45.82398" lon="4.81888">
        <ele>412.79998779297</ele>
        <time>2019-08-17T08:15:54.000Z</time>
      </trkpt>
      <trkpt lat="45.82395" lon="4.81891">
        <ele>413.39999389648</ele>
        <time>2019-08-17T08:15:55.000Z</time>
      </trkpt>
      <trkpt lat="45.82392" lon="4.81894">
        <ele>413.79998779297</ele>
        <time>2019-08-17T08:15:56.000Z</time>
      </trkpt>
      <trkpt lat="45.82373" lon="4.8191">
        <ele>414.20001220703</ele>
        <time>2019-08-17T08:16:02.000Z</time>
      </trkpt>
      <trkpt lat="45.8237" lon="4.81913">
        <ele>414.60000610352</ele>
        <time>2019-08-17T08:16:03.000Z</time>
      </trkpt>
      <trkpt lat="45.82367" lon="4.81915">
        <ele>415</ele>
        <time>2019-08-17T08:16:04.000Z</time>
      </trkpt>
      <trkpt lat="45.82364" lon="4.81918">
        <ele>415.39999389648</ele>
        <time>2019-08-17T08:16:05.000Z</time>
      </trkpt>
      <trkpt lat="45.82361" lon="4.8192">
        <ele>415.79998779297</ele>
        <time>2019-08-17T08:16:06.000Z</time>
      </trkpt>
      <trkpt lat="45.82348" lon="4.8193">
        <ele>415.79998779297</ele>
        <time>2019-08-17T08:16:10.000Z</time>
      </trkpt>
      <trkpt lat="45.8233" lon="4.81945">
        <ele>416.60000610352</ele>
        <time>2019-08-17T08:16:15.000Z</time>
      </trkpt>
      <trkpt lat="45.82326" lon="4.81948">
        <ele>417</ele>
        <time>2019-08-17T08:16:16.000Z</time>
      </trkpt>
      <trkpt lat="45.82321" lon="4.8195">
        <ele>417.39999389648</ele>
        <time>2019-08-17T08:16:17.000Z</time>
      </trkpt>
      <trkpt lat="45.82316" lon="4.81953">
        <ele>417.79998779297</ele>
        <time>2019-08-17T08:16:18.000Z</time>
      </trkpt>
      <trkpt lat="45.8229" lon="4.81968">
        <ele>417.79998779297</ele>
        <time>2019-08-17T08:16:24.000Z</time>
      </trkpt>
      <trkpt lat="45.82283" lon="4.81977">
        <ele>418.39999389648</ele>
        <time>2019-08-17T08:16:26.000Z</time>
      </trkpt>
      <trkpt lat="45.8228" lon="4.81982">
        <ele>418.79998779297</ele>
        <time>2019-08-17T08:16:27.000Z</time>
      </trkpt>
      <trkpt lat="45.82278" lon="4.81988">
        <ele>419.20001220703</ele>
        <time>2019-08-17T08:16:28.000Z</time>
      </trkpt>
      <trkpt lat="45.82275" lon="4.81993">
        <ele>419.60000610352</ele>
        <time>2019-08-17T08:16:29.000Z</time>
      </trkpt>
      <trkpt lat="45.82273" lon="4.81997">
        <ele>420</ele>
        <time>2019-08-17T08:16:30.000Z</time>
      </trkpt>
      <trkpt lat="45.82272" lon="4.82007">
        <ele>420</ele>
        <time>2019-08-17T08:16:32.000Z</time>
      </trkpt>
      <trkpt lat="45.82272" lon="4.82012">
        <ele>420</ele>
        <time>2019-08-17T08:16:33.000Z</time>
      </trkpt>
      <trkpt lat="45.82268" lon="4.82023">
        <ele>420</ele>
        <time>2019-08-17T08:16:36.000Z</time>
      </trkpt>
      <trkpt lat="45.82266" lon="4.82025">
        <ele>420</ele>
        <time>2019-08-17T08:16:37.000Z</time>
      </trkpt>
      <trkpt lat="45.82257" lon="4.82017">
        <ele>420</ele>
        <time>2019-08-17T08:16:40.000Z</time>
      </trkpt>
      <trkpt lat="45.82253" lon="4.81996">
        <ele>420</ele>
        <time>2019-08-17T08:16:44.000Z</time>
      </trkpt>
      <trkpt lat="45.82252" lon="4.81991">
        <ele>420</ele>
        <time>2019-08-17T08:16:45.000Z</time>
      </trkpt>
      <trkpt lat="45.82251" lon="4.81968">
        <ele>420</ele>
        <time>2019-08-17T08:16:49.000Z</time>
      </trkpt>
      <trkpt lat="45.82249" lon="4.81962">
        <ele>420</ele>
        <time>2019-08-17T08:16:50.000Z</time>
      </trkpt>
      <trkpt lat="45.82243" lon="4.81954">
        <ele>420</ele>
        <time>2019-08-17T08:16:52.000Z</time>
      </trkpt>
      <trkpt lat="45.82238" lon="4.81952">
        <ele>419.60000610352</ele>
        <time>2019-08-17T08:16:53.000Z</time>
      </trkpt>
      <trkpt lat="45.82233" lon="4.81951">
        <ele>419.20001220703</ele>
        <time>2019-08-17T08:16:54.000Z</time>
      </trkpt>
      <trkpt lat="45.82227" lon="4.81951">
        <ele>418.79998779297</ele>
        <time>2019-08-17T08:16:55.000Z</time>
      </trkpt>
      <trkpt lat="45.82223" lon="4.81951">
        <ele>418.39999389648</ele>
        <time>2019-08-17T08:16:56.000Z</time>
      </trkpt>
      <trkpt lat="45.82219" lon="4.81952">
        <ele>417.79998779297</ele>
        <time>2019-08-17T08:16:57.000Z</time>
      </trkpt>
      <trkpt lat="45.82216" lon="4.81952">
        <ele>417.39999389648</ele>
        <time>2019-08-17T08:16:58.000Z</time>
      </trkpt>
      <trkpt lat="45.82214" lon="4.81951">
        <ele>416.79998779297</ele>
        <time>2019-08-17T08:16:59.000Z</time>
      </trkpt>
      <trkpt lat="45.82212" lon="4.8195">
        <ele>416.39999389648</ele>
        <time>2019-08-17T08:17:00.000Z</time>
      </trkpt>
      <trkpt lat="45.8221" lon="4.81951">
        <ele>415.79998779297</ele>
        <time>2019-08-17T08:17:01.000Z</time>
      </trkpt>
      <trkpt lat="45.82207" lon="4.81951">
        <ele>415.79998779297</ele>
        <time>2019-08-17T08:17:03.000Z</time>
      </trkpt>
      <trkpt lat="45.82203" lon="4.81952">
        <ele>415</ele>
        <time>2019-08-17T08:17:05.000Z</time>
      </trkpt>
      <trkpt lat="45.82201" lon="4.81953">
        <ele>414.60000610352</ele>
        <time>2019-08-17T08:17:06.000Z</time>
      </trkpt>
      <trkpt lat="45.82199" lon="4.81954">
        <ele>414.20001220703</ele>
        <time>2019-08-17T08:17:07.000Z</time>
      </trkpt>
      <trkpt lat="45.82196" lon="4.81956">
        <ele>413.79998779297</ele>
        <time>2019-08-17T08:17:08.000Z</time>
      </trkpt>
      <trkpt lat="45.82189" lon="4.81963">
        <ele>413.79998779297</ele>
        <time>2019-08-17T08:17:10.000Z</time>
      </trkpt>
      <trkpt lat="45.82176" lon="4.81976">
        <ele>413.79998779297</ele>
        <time>2019-08-17T08:17:14.000Z</time>
      </trkpt>
      <trkpt lat="45.82175" lon="4.81976">
        <ele>413.20001220703</ele>
        <time>2019-08-17T08:17:15.000Z</time>
      </trkpt>
      <trkpt lat="45.82174" lon="4.81977">
        <ele>412.79998779297</ele>
        <time>2019-08-17T08:17:16.000Z</time>
      </trkpt>
      <trkpt lat="45.82173" lon="4.81978">
        <ele>412.39999389648</ele>
        <time>2019-08-17T08:17:17.000Z</time>
      </trkpt>
      <trkpt lat="45.82172" lon="4.81979">
        <ele>412</ele>
        <time>2019-08-17T08:17:18.000Z</time>
      </trkpt>
      <trkpt lat="45.82171" lon="4.8198">
        <ele>411.60000610352</ele>
        <time>2019-08-17T08:17:19.000Z</time>
      </trkpt>
      <trkpt lat="45.82174" lon="4.81991">
        <ele>411.60000610352</ele>
        <time>2019-08-17T08:17:24.000Z</time>
      </trkpt>
      <trkpt lat="45.82174" lon="4.81996">
        <ele>411.60000610352</ele>
        <time>2019-08-17T08:17:26.000Z</time>
      </trkpt>
      <trkpt lat="45.82178" lon="4.82007">
        <ele>411.60000610352</ele>
        <time>2019-08-17T08:17:29.000Z</time>
      </trkpt>
      <trkpt lat="45.82179" lon="4.82011">
        <ele>412.20001220703</ele>
        <time>2019-08-17T08:17:30.000Z</time>
      </trkpt>
      <trkpt lat="45.8218" lon="4.82015">
        <ele>412.60000610352</ele>
        <time>2019-08-17T08:17:31.000Z</time>
      </trkpt>
      <trkpt lat="45.82182" lon="4.8202">
        <ele>413</ele>
        <time>2019-08-17T08:17:32.000Z</time>
      </trkpt>
      <trkpt lat="45.82184" lon="4.82025">
        <ele>413.60000610352</ele>
        <time>2019-08-17T08:17:33.000Z</time>
      </trkpt>
      <trkpt lat="45.82186" lon="4.82029">
        <ele>414.20001220703</ele>
        <time>2019-08-17T08:17:34.000Z</time>
      </trkpt>
      <trkpt lat="45.82188" lon="4.82033">
        <ele>414.60000610352</ele>
        <time>2019-08-17T08:17:35.000Z</time>
      </trkpt>
      <trkpt lat="45.8219" lon="4.82036">
        <ele>415.20001220703</ele>
        <time>2019-08-17T08:17:36.000Z</time>
      </trkpt>
      <trkpt lat="45.82191" lon="4.82039">
        <ele>415.79998779297</ele>
        <time>2019-08-17T08:17:37.000Z</time>
      </trkpt>
      <trkpt lat="45.82193" lon="4.82042">
        <ele>416.39999389648</ele>
        <time>2019-08-17T08:17:38.000Z</time>
      </trkpt>
      <trkpt lat="45.82206" lon="4.82061">
        <ele>416.39999389648</ele>
        <time>2019-08-17T08:17:44.000Z</time>
      </trkpt>
      <trkpt lat="45.82218" lon="4.82079">
        <ele>416.39999389648</ele>
        <time>2019-08-17T08:17:49.000Z</time>
      </trkpt>
      <trkpt lat="45.82232" lon="4.82105">
        <ele>416.39999389648</ele>
        <time>2019-08-17T08:17:56.000Z</time>
      </trkpt>
      <trkpt lat="45.82239" lon="4.82113">
        <ele>416.39999389648</ele>
        <time>2019-08-17T08:18:01.000Z</time>
      </trkpt>
      <trkpt lat="45.82242" lon="4.82114">
        <ele>416.39999389648</ele>
        <time>2019-08-17T08:18:03.000Z</time>
      </trkpt>
      <trkpt lat="45.82246" lon="4.82109">
        <ele>416.39999389648</ele>
        <time>2019-08-17T08:18:06.000Z</time>
      </trkpt>
      <trkpt lat="45.82253" lon="4.82096">
        <ele>416.39999389648</ele>
        <time>2019-08-17T08:18:11.000Z</time>
      </trkpt>
      <trkpt lat="45.8226" lon="4.8208">
        <ele>416.79998779297</ele>
        <time>2019-08-17T08:18:16.000Z</time>
      </trkpt>
      <trkpt lat="45.82261" lon="4.82076">
        <ele>417.20001220703</ele>
        <time>2019-08-17T08:18:17.000Z</time>
      </trkpt>
      <trkpt lat="45.82262" lon="4.82072">
        <ele>417.60000610352</ele>
        <time>2019-08-17T08:18:18.000Z</time>
      </trkpt>
      <trkpt lat="45.82262" lon="4.82068">
        <ele>418.39999389648</ele>
        <time>2019-08-17T08:18:19.000Z</time>
      </trkpt>
      <trkpt lat="45.8226" lon="4.82055">
        <ele>418.39999389648</ele>
        <time>2019-08-17T08:18:22.000Z</time>
      </trkpt>
      <trkpt lat="45.82259" lon="4.82034">
        <ele>418.39999389648</ele>
        <time>2019-08-17T08:18:28.000Z</time>
      </trkpt>
      <trkpt lat="45.8226" lon="4.82032">
        <ele>418.39999389648</ele>
        <time>2019-08-17T08:18:31.000Z</time>
      </trkpt>
      <trkpt lat="45.8226" lon="4.82032">
        <ele>418.39999389648</ele>
        <time>2019-08-17T08:18:55.000Z</time>
      </trkpt>
      <trkpt lat="45.82261" lon="4.82032">
        <ele>418.39999389648</ele>
        <time>2019-08-17T08:18:56.000Z</time>
      </trkpt>
      <trkpt lat="45.82266" lon="4.82031">
        <ele>418.79998779297</ele>
        <time>2019-08-17T08:19:00.000Z</time>
      </trkpt>
      <trkpt lat="45.82266" lon="4.82029">
        <ele>419.20001220703</ele>
        <time>2019-08-17T08:19:01.000Z</time>
      </trkpt>
      <trkpt lat="45.82266" lon="4.82029">
        <ele>419.60000610352</ele>
        <time>2019-08-17T08:19:02.000Z</time>
      </trkpt>
      <trkpt lat="45.82265" lon="4.82029">
        <ele>420</ele>
        <time>2019-08-17T08:19:03.000Z</time>
      </trkpt>
      <trkpt lat="45.82266" lon="4.82026">
        <ele>420.39999389648</ele>
        <time>2019-08-17T08:19:44.000Z</time>
      </trkpt>
      <trkpt lat="45.8227" lon="4.82027">
        <ele>420.39999389648</ele>
        <time>2019-08-17T08:19:48.000Z</time>
      </trkpt>
      <trkpt lat="45.8227" lon="4.82027">
        <ele>420.39999389648</ele>
        <time>2019-08-17T08:19:49.000Z</time>
      </trkpt>
      <trkpt lat="45.8227" lon="4.82027">
        <ele>420.39999389648</ele>
        <time>2019-08-17T08:19:51.000Z</time>
      </trkpt>
      <trkpt lat="45.82268" lon="4.82027">
        <ele>420.39999389648</ele>
        <time>2019-08-17T08:19:53.000Z</time>
      </trkpt>
      <trkpt lat="45.82267" lon="4.82028">
        <ele>420.39999389648</ele>
        <time>2019-08-17T08:19:55.000Z</time>
      </trkpt>
      <trkpt lat="45.82267" lon="4.82027">
        <ele>420.39999389648</ele>
        <time>2019-08-17T08:20:13.000Z</time>
      </trkpt>
      <trkpt lat="45.82267" lon="4.82026">
        <ele>420.39999389648</ele>
        <time>2019-08-17T08:20:14.000Z</time>
      </trkpt>
      <trkpt lat="45.82267" lon="4.82026">
        <ele>420.39999389648</ele>
        <time>2019-08-17T08:20:15.000Z</time>
      </trkpt>
      <trkpt lat="45.82269" lon="4.82025">
        <ele>420.39999389648</ele>
        <time>2019-08-17T08:20:16.000Z</time>
      </trkpt>
      <trkpt lat="45.8227" lon="4.82025">
        <ele>420.39999389648</ele>
        <time>2019-08-17T08:20:18.000Z</time>
      </trkpt>
      <trkpt lat="45.82271" lon="4.82025">
        <ele>420.39999389648</ele>
        <time>2019-08-17T08:20:20.000Z</time>
      </trkpt>
      <trkpt lat="45.82273" lon="4.82026">
        <ele>420.39999389648</ele>
        <time>2019-08-17T08:20:21.000Z</time>
      </trkpt>
      <trkpt lat="45.82275" lon="4.82027">
        <ele>420.39999389648</ele>
        <time>2019-08-17T08:20:23.000Z</time>
      </trkpt>
      <trkpt lat="45.82276" lon="4.82033">
        <ele>420.39999389648</ele>
        <time>2019-08-17T08:20:25.000Z</time>
      </trkpt>
      <trkpt lat="45.82278" lon="4.82039">
        <ele>420.39999389648</ele>
        <time>2019-08-17T08:20:27.000Z</time>
      </trkpt>
      <trkpt lat="45.82289" lon="4.82056">
        <ele>420.39999389648</ele>
        <time>2019-08-17T08:20:32.000Z</time>
      </trkpt>
      <trkpt lat="45.82308" lon="4.82081">
        <ele>420.39999389648</ele>
        <time>2019-08-17T08:20:40.000Z</time>
      </trkpt>
      <trkpt lat="45.82328" lon="4.82102">
        <ele>420.39999389648</ele>
        <time>2019-08-17T08:20:47.000Z</time>
      </trkpt>
      <trkpt lat="45.82351" lon="4.82121">
        <ele>420.39999389648</ele>
        <time>2019-08-17T08:20:53.000Z</time>
      </trkpt>
      <trkpt lat="45.82377" lon="4.82153">
        <ele>420.39999389648</ele>
        <time>2019-08-17T08:20:59.000Z</time>
      </trkpt>
      <trkpt lat="45.82382" lon="4.82159">
        <ele>420</ele>
        <time>2019-08-17T08:21:00.000Z</time>
      </trkpt>
      <trkpt lat="45.82387" lon="4.82166">
        <ele>419.60000610352</ele>
        <time>2019-08-17T08:21:01.000Z</time>
      </trkpt>
      <trkpt lat="45.82391" lon="4.82173">
        <ele>419.20001220703</ele>
        <time>2019-08-17T08:21:02.000Z</time>
      </trkpt>
      <trkpt lat="45.82396" lon="4.8218">
        <ele>418.79998779297</ele>
        <time>2019-08-17T08:21:03.000Z</time>
      </trkpt>
      <trkpt lat="45.82401" lon="4.82186">
        <ele>418.39999389648</ele>
        <time>2019-08-17T08:21:04.000Z</time>
      </trkpt>
      <trkpt lat="45.82406" lon="4.82194">
        <ele>418.39999389648</ele>
        <time>2019-08-17T08:21:05.000Z</time>
      </trkpt>
      <trkpt lat="45.82411" lon="4.82202">
        <ele>418</ele>
        <time>2019-08-17T08:21:06.000Z</time>
      </trkpt>
      <trkpt lat="45.82416" lon="4.82209">
        <ele>417.60000610352</ele>
        <time>2019-08-17T08:21:07.000Z</time>
      </trkpt>
      <trkpt lat="45.82422" lon="4.82217">
        <ele>417.20001220703</ele>
        <time>2019-08-17T08:21:08.000Z</time>
      </trkpt>
      <trkpt lat="45.82427" lon="4.82225">
        <ele>416.79998779297</ele>
        <time>2019-08-17T08:21:09.000Z</time>
      </trkpt>
      <trkpt lat="45.82433" lon="4.82233">
        <ele>416.39999389648</ele>
        <time>2019-08-17T08:21:10.000Z</time>
      </trkpt>
      <trkpt lat="45.82439" lon="4.82242">
        <ele>416.39999389648</ele>
        <time>2019-08-17T08:21:11.000Z</time>
      </trkpt>
      <trkpt lat="45.82452" lon="4.8226">
        <ele>415.79998779297</ele>
        <time>2019-08-17T08:21:13.000Z</time>
      </trkpt>
      <trkpt lat="45.82459" lon="4.82269">
        <ele>415.39999389648</ele>
        <time>2019-08-17T08:21:14.000Z</time>
      </trkpt>
      <trkpt lat="45.82465" lon="4.82278">
        <ele>414.79998779297</ele>
        <time>2019-08-17T08:21:15.000Z</time>
      </trkpt>
      <trkpt lat="45.82471" lon="4.82286">
        <ele>414.39999389648</ele>
        <time>2019-08-17T08:21:16.000Z</time>
      </trkpt>
      <trkpt lat="45.82477" lon="4.82294">
        <ele>413.79998779297</ele>
        <time>2019-08-17T08:21:17.000Z</time>
      </trkpt>
      <trkpt lat="45.82483" lon="4.82302">
        <ele>413.39999389648</ele>
        <time>2019-08-17T08:21:18.000Z</time>
      </trkpt>
      <trkpt lat="45.82488" lon="4.8231">
        <ele>413</ele>
        <time>2019-08-17T08:21:19.000Z</time>
      </trkpt>
      <trkpt lat="45.82494" lon="4.82319">
        <ele>412.39999389648</ele>
        <time>2019-08-17T08:21:20.000Z</time>
      </trkpt>
      <trkpt lat="45.82502" lon="4.82328">
        <ele>411.60000610352</ele>
        <time>2019-08-17T08:21:21.000Z</time>
      </trkpt>
      <trkpt lat="45.82509" lon="4.82337">
        <ele>410.79998779297</ele>
        <time>2019-08-17T08:21:22.000Z</time>
      </trkpt>
      <trkpt lat="45.82517" lon="4.82344">
        <ele>410</ele>
        <time>2019-08-17T08:21:23.000Z</time>
      </trkpt>
      <trkpt lat="45.82526" lon="4.82352">
        <ele>409.20001220703</ele>
        <time>2019-08-17T08:21:24.000Z</time>
      </trkpt>
      <trkpt lat="45.82536" lon="4.8236">
        <ele>408.39999389648</ele>
        <time>2019-08-17T08:21:25.000Z</time>
      </trkpt>
      <trkpt lat="45.82546" lon="4.82368">
        <ele>408</ele>
        <time>2019-08-17T08:21:26.000Z</time>
      </trkpt>
      <trkpt lat="45.82556" lon="4.82375">
        <ele>407.60000610352</ele>
        <time>2019-08-17T08:21:27.000Z</time>
      </trkpt>
      <trkpt lat="45.82566" lon="4.82383">
        <ele>406.79998779297</ele>
        <time>2019-08-17T08:21:28.000Z</time>
      </trkpt>
      <trkpt lat="45.82577" lon="4.82389">
        <ele>406.20001220703</ele>
        <time>2019-08-17T08:21:29.000Z</time>
      </trkpt>
      <trkpt lat="45.82587" lon="4.82396">
        <ele>405.39999389648</ele>
        <time>2019-08-17T08:21:30.000Z</time>
      </trkpt>
      <trkpt lat="45.82598" lon="4.82402">
        <ele>404.79998779297</ele>
        <time>2019-08-17T08:21:31.000Z</time>
      </trkpt>
      <trkpt lat="45.82609" lon="4.82407">
        <ele>404</ele>
        <time>2019-08-17T08:21:32.000Z</time>
      </trkpt>
      <trkpt lat="45.82619" lon="4.82413">
        <ele>403.39999389648</ele>
        <time>2019-08-17T08:21:33.000Z</time>
      </trkpt>
      <trkpt lat="45.8263" lon="4.82418">
        <ele>402.60000610352</ele>
        <time>2019-08-17T08:21:34.000Z</time>
      </trkpt>
      <trkpt lat="45.82641" lon="4.82424">
        <ele>401.60000610352</ele>
        <time>2019-08-17T08:21:35.000Z</time>
      </trkpt>
      <trkpt lat="45.82651" lon="4.8243">
        <ele>400.79998779297</ele>
        <time>2019-08-17T08:21:36.000Z</time>
      </trkpt>
      <trkpt lat="45.82661" lon="4.82437">
        <ele>399.39999389648</ele>
        <time>2019-08-17T08:21:37.000Z</time>
      </trkpt>
      <trkpt lat="45.82671" lon="4.82444">
        <ele>398.60000610352</ele>
        <time>2019-08-17T08:21:38.000Z</time>
      </trkpt>
      <trkpt lat="45.82681" lon="4.82451">
        <ele>397.60000610352</ele>
        <time>2019-08-17T08:21:39.000Z</time>
      </trkpt>
      <trkpt lat="45.8269" lon="4.8246">
        <ele>396.79998779297</ele>
        <time>2019-08-17T08:21:40.000Z</time>
      </trkpt>
      <trkpt lat="45.82699" lon="4.82469">
        <ele>396</ele>
        <time>2019-08-17T08:21:41.000Z</time>
      </trkpt>
      <trkpt lat="45.82708" lon="4.82479">
        <ele>395</ele>
        <time>2019-08-17T08:21:42.000Z</time>
      </trkpt>
      <trkpt lat="45.82719" lon="4.82488">
        <ele>394.20001220703</ele>
        <time>2019-08-17T08:21:43.000Z</time>
      </trkpt>
      <trkpt lat="45.82729" lon="4.82496">
        <ele>393.39999389648</ele>
        <time>2019-08-17T08:21:44.000Z</time>
      </trkpt>
      <trkpt lat="45.8274" lon="4.82502">
        <ele>392.60000610352</ele>
        <time>2019-08-17T08:21:45.000Z</time>
      </trkpt>
      <trkpt lat="45.8275" lon="4.82506">
        <ele>391.79998779297</ele>
        <time>2019-08-17T08:21:46.000Z</time>
      </trkpt>
      <trkpt lat="45.8276" lon="4.8251">
        <ele>391</ele>
        <time>2019-08-17T08:21:47.000Z</time>
      </trkpt>
      <trkpt lat="45.82768" lon="4.82515">
        <ele>390.20001220703</ele>
        <time>2019-08-17T08:21:48.000Z</time>
      </trkpt>
      <trkpt lat="45.82776" lon="4.82521">
        <ele>389.39999389648</ele>
        <time>2019-08-17T08:21:49.000Z</time>
      </trkpt>
      <trkpt lat="45.82781" lon="4.82532">
        <ele>388.39999389648</ele>
        <time>2019-08-17T08:21:50.000Z</time>
      </trkpt>
      <trkpt lat="45.82784" lon="4.82542">
        <ele>387.60000610352</ele>
        <time>2019-08-17T08:21:51.000Z</time>
      </trkpt>
      <trkpt lat="45.82786" lon="4.82548">
        <ele>386.60000610352</ele>
        <time>2019-08-17T08:21:52.000Z</time>
      </trkpt>
      <trkpt lat="45.82783" lon="4.82553">
        <ele>385.60000610352</ele>
        <time>2019-08-17T08:21:53.000Z</time>
      </trkpt>
      <trkpt lat="45.82775" lon="4.82553">
        <ele>385</ele>
        <time>2019-08-17T08:21:54.000Z</time>
      </trkpt>
      <trkpt lat="45.82767" lon="4.82551">
        <ele>384.39999389648</ele>
        <time>2019-08-17T08:21:55.000Z</time>
      </trkpt>
      <trkpt lat="45.82758" lon="4.82547">
        <ele>383.79998779297</ele>
        <time>2019-08-17T08:21:56.000Z</time>
      </trkpt>
      <trkpt lat="45.82748" lon="4.82543">
        <ele>383.20001220703</ele>
        <time>2019-08-17T08:21:57.000Z</time>
      </trkpt>
      <trkpt lat="45.82739" lon="4.8254">
        <ele>382.60000610352</ele>
        <time>2019-08-17T08:21:58.000Z</time>
      </trkpt>
      <trkpt lat="45.82729" lon="4.82536">
        <ele>382.60000610352</ele>
        <time>2019-08-17T08:21:59.000Z</time>
      </trkpt>
      <trkpt lat="45.8272" lon="4.82533">
        <ele>382.20001220703</ele>
        <time>2019-08-17T08:22:00.000Z</time>
      </trkpt>
      <trkpt lat="45.8271" lon="4.8253">
        <ele>381.79998779297</ele>
        <time>2019-08-17T08:22:01.000Z</time>
      </trkpt>
      <trkpt lat="45.827" lon="4.82527">
        <ele>380.79998779297</ele>
        <time>2019-08-17T08:22:02.000Z</time>
      </trkpt>
      <trkpt lat="45.82691" lon="4.82524">
        <ele>380.39999389648</ele>
        <time>2019-08-17T08:22:03.000Z</time>
      </trkpt>
      <trkpt lat="45.82682" lon="4.82521">
        <ele>379.79998779297</ele>
        <time>2019-08-17T08:22:04.000Z</time>
      </trkpt>
      <trkpt lat="45.82672" lon="4.82516">
        <ele>379.20001220703</ele>
        <time>2019-08-17T08:22:05.000Z</time>
      </trkpt>
      <trkpt lat="45.82663" lon="4.8251">
        <ele>378.79998779297</ele>
        <time>2019-08-17T08:22:06.000Z</time>
      </trkpt>
      <trkpt lat="45.82653" lon="4.82504">
        <ele>378.20001220703</ele>
        <time>2019-08-17T08:22:07.000Z</time>
      </trkpt>
      <trkpt lat="45.82643" lon="4.82499">
        <ele>377.79998779297</ele>
        <time>2019-08-17T08:22:08.000Z</time>
      </trkpt>
      <trkpt lat="45.82634" lon="4.82495">
        <ele>377.39999389648</ele>
        <time>2019-08-17T08:22:09.000Z</time>
      </trkpt>
      <trkpt lat="45.82624" lon="4.82495">
        <ele>377</ele>
        <time>2019-08-17T08:22:10.000Z</time>
      </trkpt>
      <trkpt lat="45.82613" lon="4.82499">
        <ele>376.39999389648</ele>
        <time>2019-08-17T08:22:11.000Z</time>
      </trkpt>
      <trkpt lat="45.82603" lon="4.82504">
        <ele>376</ele>
        <time>2019-08-17T08:22:12.000Z</time>
      </trkpt>
      <trkpt lat="45.82593" lon="4.82509">
        <ele>375.39999389648</ele>
        <time>2019-08-17T08:22:13.000Z</time>
      </trkpt>
      <trkpt lat="45.82583" lon="4.82515">
        <ele>374.79998779297</ele>
        <time>2019-08-17T08:22:14.000Z</time>
      </trkpt>
      <trkpt lat="45.82572" lon="4.8252">
        <ele>374</ele>
        <time>2019-08-17T08:22:15.000Z</time>
      </trkpt>
      <trkpt lat="45.82562" lon="4.82524">
        <ele>373.20001220703</ele>
        <time>2019-08-17T08:22:16.000Z</time>
      </trkpt>
      <trkpt lat="45.82552" lon="4.82527">
        <ele>372.60000610352</ele>
        <time>2019-08-17T08:22:17.000Z</time>
      </trkpt>
      <trkpt lat="45.82541" lon="4.82528">
        <ele>371.79998779297</ele>
        <time>2019-08-17T08:22:18.000Z</time>
      </trkpt>
      <trkpt lat="45.8253" lon="4.82528">
        <ele>371.39999389648</ele>
        <time>2019-08-17T08:22:19.000Z</time>
      </trkpt>
      <trkpt lat="45.82519" lon="4.82527">
        <ele>370.79998779297</ele>
        <time>2019-08-17T08:22:20.000Z</time>
      </trkpt>
      <trkpt lat="45.82508" lon="4.82526">
        <ele>370.20001220703</ele>
        <time>2019-08-17T08:22:21.000Z</time>
      </trkpt>
      <trkpt lat="45.82497" lon="4.82523">
        <ele>369.60000610352</ele>
        <time>2019-08-17T08:22:22.000Z</time>
      </trkpt>
      <trkpt lat="45.82486" lon="4.82519">
        <ele>369</ele>
        <time>2019-08-17T08:22:23.000Z</time>
      </trkpt>
      <trkpt lat="45.82476" lon="4.82513">
        <ele>368.20001220703</ele>
        <time>2019-08-17T08:22:24.000Z</time>
      </trkpt>
      <trkpt lat="45.82466" lon="4.82507">
        <ele>367.60000610352</ele>
        <time>2019-08-17T08:22:25.000Z</time>
      </trkpt>
      <trkpt lat="45.82456" lon="4.82502">
        <ele>367</ele>
        <time>2019-08-17T08:22:26.000Z</time>
      </trkpt>
      <trkpt lat="45.82446" lon="4.82497">
        <ele>365.79998779297</ele>
        <time>2019-08-17T08:22:27.000Z</time>
      </trkpt>
      <trkpt lat="45.82435" lon="4.82493">
        <ele>365</ele>
        <time>2019-08-17T08:22:28.000Z</time>
      </trkpt>
      <trkpt lat="45.82424" lon="4.8249">
        <ele>364.39999389648</ele>
        <time>2019-08-17T08:22:29.000Z</time>
      </trkpt>
      <trkpt lat="45.82414" lon="4.82486">
        <ele>363.60000610352</ele>
        <time>2019-08-17T08:22:30.000Z</time>
      </trkpt>
      <trkpt lat="45.82402" lon="4.82482">
        <ele>362.79998779297</ele>
        <time>2019-08-17T08:22:31.000Z</time>
      </trkpt>
      <trkpt lat="45.8239" lon="4.82479">
        <ele>362</ele>
        <time>2019-08-17T08:22:32.000Z</time>
      </trkpt>
      <trkpt lat="45.82379" lon="4.82474">
        <ele>361.20001220703</ele>
        <time>2019-08-17T08:22:33.000Z</time>
      </trkpt>
      <trkpt lat="45.82368" lon="4.82469">
        <ele>360.20001220703</ele>
        <time>2019-08-17T08:22:34.000Z</time>
      </trkpt>
      <trkpt lat="45.82356" lon="4.82462">
        <ele>359.20001220703</ele>
        <time>2019-08-17T08:22:35.000Z</time>
      </trkpt>
      <trkpt lat="45.82345" lon="4.82455">
        <ele>358.39999389648</ele>
        <time>2019-08-17T08:22:36.000Z</time>
      </trkpt>
      <trkpt lat="45.82333" lon="4.82447">
        <ele>357.39999389648</ele>
        <time>2019-08-17T08:22:37.000Z</time>
      </trkpt>
      <trkpt lat="45.82323" lon="4.82439">
        <ele>356.60000610352</ele>
        <time>2019-08-17T08:22:38.000Z</time>
      </trkpt>
      <trkpt lat="45.82312" lon="4.82432">
        <ele>356</ele>
        <time>2019-08-17T08:22:39.000Z</time>
      </trkpt>
      <trkpt lat="45.82302" lon="4.82426">
        <ele>355.20001220703</ele>
        <time>2019-08-17T08:22:40.000Z</time>
      </trkpt>
      <trkpt lat="45.82291" lon="4.82421">
        <ele>354.60000610352</ele>
        <time>2019-08-17T08:22:41.000Z</time>
      </trkpt>
      <trkpt lat="45.82279" lon="4.82417">
        <ele>353.79998779297</ele>
        <time>2019-08-17T08:22:42.000Z</time>
      </trkpt>
      <trkpt lat="45.82268" lon="4.82414">
        <ele>353</ele>
        <time>2019-08-17T08:22:43.000Z</time>
      </trkpt>
      <trkpt lat="45.82257" lon="4.82411">
        <ele>352.20001220703</ele>
        <time>2019-08-17T08:22:44.000Z</time>
      </trkpt>
      <trkpt lat="45.82246" lon="4.82409">
        <ele>351.20001220703</ele>
        <time>2019-08-17T08:22:45.000Z</time>
      </trkpt>
      <trkpt lat="45.82235" lon="4.82408">
        <ele>350.39999389648</ele>
        <time>2019-08-17T08:22:46.000Z</time>
      </trkpt>
      <trkpt lat="45.82222" lon="4.82407">
        <ele>349.60000610352</ele>
        <time>2019-08-17T08:22:47.000Z</time>
      </trkpt>
      <trkpt lat="45.82211" lon="4.82408">
        <ele>348.79998779297</ele>
        <time>2019-08-17T08:22:48.000Z</time>
      </trkpt>
      <trkpt lat="45.82199" lon="4.82411">
        <ele>347.79998779297</ele>
        <time>2019-08-17T08:22:49.000Z</time>
      </trkpt>
      <trkpt lat="45.82186" lon="4.82415">
        <ele>347</ele>
        <time>2019-08-17T08:22:50.000Z</time>
      </trkpt>
      <trkpt lat="45.82173" lon="4.82419">
        <ele>345.39999389648</ele>
        <time>2019-08-17T08:22:51.000Z</time>
      </trkpt>
      <trkpt lat="45.82161" lon="4.82421">
        <ele>344.79998779297</ele>
        <time>2019-08-17T08:22:52.000Z</time>
      </trkpt>
      <trkpt lat="45.8215" lon="4.82424">
        <ele>343.79998779297</ele>
        <time>2019-08-17T08:22:53.000Z</time>
      </trkpt>
      <trkpt lat="45.82138" lon="4.82422">
        <ele>343</ele>
        <time>2019-08-17T08:22:54.000Z</time>
      </trkpt>
      <trkpt lat="45.82127" lon="4.82419">
        <ele>342</ele>
        <time>2019-08-17T08:22:55.000Z</time>
      </trkpt>
      <trkpt lat="45.82116" lon="4.82415">
        <ele>341.20001220703</ele>
        <time>2019-08-17T08:22:56.000Z</time>
      </trkpt>
      <trkpt lat="45.82108" lon="4.82412">
        <ele>340.20001220703</ele>
        <time>2019-08-17T08:22:57.000Z</time>
      </trkpt>
      <trkpt lat="45.82099" lon="4.82408">
        <ele>339.39999389648</ele>
        <time>2019-08-17T08:22:58.000Z</time>
      </trkpt>
      <trkpt lat="45.82091" lon="4.82402">
        <ele>338.60000610352</ele>
        <time>2019-08-17T08:22:59.000Z</time>
      </trkpt>
      <trkpt lat="45.82084" lon="4.82395">
        <ele>337.79998779297</ele>
        <time>2019-08-17T08:23:00.000Z</time>
      </trkpt>
      <trkpt lat="45.82077" lon="4.8239">
        <ele>337</ele>
        <time>2019-08-17T08:23:01.000Z</time>
      </trkpt>
      <trkpt lat="45.82072" lon="4.82386">
        <ele>336</ele>
        <time>2019-08-17T08:23:02.000Z</time>
      </trkpt>
      <trkpt lat="45.82069" lon="4.82382">
        <ele>335.20001220703</ele>
        <time>2019-08-17T08:23:03.000Z</time>
      </trkpt>
      <trkpt lat="45.82065" lon="4.82378">
        <ele>334.20001220703</ele>
        <time>2019-08-17T08:23:04.000Z</time>
      </trkpt>
      <trkpt lat="45.82062" lon="4.82373">
        <ele>333.20001220703</ele>
        <time>2019-08-17T08:23:05.000Z</time>
      </trkpt>
      <trkpt lat="45.82058" lon="4.82369">
        <ele>332.39999389648</ele>
        <time>2019-08-17T08:23:06.000Z</time>
      </trkpt>
      <trkpt lat="45.82055" lon="4.82365">
        <ele>331.79998779297</ele>
        <time>2019-08-17T08:23:07.000Z</time>
      </trkpt>
      <trkpt lat="45.82052" lon="4.82361">
        <ele>331.20001220703</ele>
        <time>2019-08-17T08:23:08.000Z</time>
      </trkpt>
      <trkpt lat="45.82048" lon="4.82358">
        <ele>330.39999389648</ele>
        <time>2019-08-17T08:23:09.000Z</time>
      </trkpt>
      <trkpt lat="45.82044" lon="4.82354">
        <ele>329.79998779297</ele>
        <time>2019-08-17T08:23:10.000Z</time>
      </trkpt>
      <trkpt lat="45.82041" lon="4.8235">
        <ele>329.20001220703</ele>
        <time>2019-08-17T08:23:11.000Z</time>
      </trkpt>
      <trkpt lat="45.82038" lon="4.82347">
        <ele>329.20001220703</ele>
        <time>2019-08-17T08:23:12.000Z</time>
      </trkpt>
      <trkpt lat="45.82034" lon="4.82344">
        <ele>328.79998779297</ele>
        <time>2019-08-17T08:23:13.000Z</time>
      </trkpt>
      <trkpt lat="45.8203" lon="4.82341">
        <ele>328.39999389648</ele>
        <time>2019-08-17T08:23:14.000Z</time>
      </trkpt>
      <trkpt lat="45.82025" lon="4.82338">
        <ele>328</ele>
        <time>2019-08-17T08:23:15.000Z</time>
      </trkpt>
      <trkpt lat="45.82021" lon="4.82334">
        <ele>327.20001220703</ele>
        <time>2019-08-17T08:23:16.000Z</time>
      </trkpt>
      <trkpt lat="45.82011" lon="4.82327">
        <ele>326.79998779297</ele>
        <time>2019-08-17T08:23:18.000Z</time>
      </trkpt>
      <trkpt lat="45.82008" lon="4.82325">
        <ele>326.39999389648</ele>
        <time>2019-08-17T08:23:19.000Z</time>
      </trkpt>
      <trkpt lat="45.82006" lon="4.82324">
        <ele>326</ele>
        <time>2019-08-17T08:23:20.000Z</time>
      </trkpt>
      <trkpt lat="45.82003" lon="4.82321">
        <ele>325.60000610352</ele>
        <time>2019-08-17T08:23:21.000Z</time>
      </trkpt>
      <trkpt lat="45.82" lon="4.82319">
        <ele>325.20001220703</ele>
        <time>2019-08-17T08:23:22.000Z</time>
      </trkpt>
      <trkpt lat="45.81984" lon="4.82309">
        <ele>324.60000610352</ele>
        <time>2019-08-17T08:23:26.000Z</time>
      </trkpt>
      <trkpt lat="45.81979" lon="4.82304">
        <ele>324.20001220703</ele>
        <time>2019-08-17T08:23:27.000Z</time>
      </trkpt>
      <trkpt lat="45.81975" lon="4.82299">
        <ele>323.79998779297</ele>
        <time>2019-08-17T08:23:28.000Z</time>
      </trkpt>
      <trkpt lat="45.8197" lon="4.82293">
        <ele>323.20001220703</ele>
        <time>2019-08-17T08:23:29.000Z</time>
      </trkpt>
      <trkpt lat="45.81965" lon="4.82288">
        <ele>322.79998779297</ele>
        <time>2019-08-17T08:23:30.000Z</time>
      </trkpt>
      <trkpt lat="45.8196" lon="4.82282">
        <ele>322.79998779297</ele>
        <time>2019-08-17T08:23:31.000Z</time>
      </trkpt>
      <trkpt lat="45.81956" lon="4.82276">
        <ele>322.39999389648</ele>
        <time>2019-08-17T08:23:32.000Z</time>
      </trkpt>
      <trkpt lat="45.81951" lon="4.8227">
        <ele>322</ele>
        <time>2019-08-17T08:23:33.000Z</time>
      </trkpt>
      <trkpt lat="45.81946" lon="4.82264">
        <ele>321.60000610352</ele>
        <time>2019-08-17T08:23:34.000Z</time>
      </trkpt>
      <trkpt lat="45.81941" lon="4.82259">
        <ele>321.20001220703</ele>
        <time>2019-08-17T08:23:35.000Z</time>
      </trkpt>
      <trkpt lat="45.81935" lon="4.82253">
        <ele>320.79998779297</ele>
        <time>2019-08-17T08:23:36.000Z</time>
      </trkpt>
      <trkpt lat="45.81925" lon="4.82243">
        <ele>320.20001220703</ele>
        <time>2019-08-17T08:23:38.000Z</time>
      </trkpt>
      <trkpt lat="45.81921" lon="4.82238">
        <ele>319.79998779297</ele>
        <time>2019-08-17T08:23:39.000Z</time>
      </trkpt>
      <trkpt lat="45.81916" lon="4.82234">
        <ele>319.39999389648</ele>
        <time>2019-08-17T08:23:40.000Z</time>
      </trkpt>
      <trkpt lat="45.81912" lon="4.82229">
        <ele>318.60000610352</ele>
        <time>2019-08-17T08:23:41.000Z</time>
      </trkpt>
      <trkpt lat="45.81907" lon="4.82224">
        <ele>318</ele>
        <time>2019-08-17T08:23:42.000Z</time>
      </trkpt>
      <trkpt lat="45.81902" lon="4.8222">
        <ele>317.60000610352</ele>
        <time>2019-08-17T08:23:43.000Z</time>
      </trkpt>
      <trkpt lat="45.81896" lon="4.82214">
        <ele>317</ele>
        <time>2019-08-17T08:23:44.000Z</time>
      </trkpt>
      <trkpt lat="45.8189" lon="4.82208">
        <ele>316.60000610352</ele>
        <time>2019-08-17T08:23:45.000Z</time>
      </trkpt>
      <trkpt lat="45.81885" lon="4.82202">
        <ele>316</ele>
        <time>2019-08-17T08:23:46.000Z</time>
      </trkpt>
      <trkpt lat="45.8188" lon="4.82195">
        <ele>315.60000610352</ele>
        <time>2019-08-17T08:23:47.000Z</time>
      </trkpt>
      <trkpt lat="45.81875" lon="4.82188">
        <ele>315.20001220703</ele>
        <time>2019-08-17T08:23:48.000Z</time>
      </trkpt>
      <trkpt lat="45.8187" lon="4.8218">
        <ele>314.60000610352</ele>
        <time>2019-08-17T08:23:49.000Z</time>
      </trkpt>
      <trkpt lat="45.81866" lon="4.82172">
        <ele>314.20001220703</ele>
        <time>2019-08-17T08:23:50.000Z</time>
      </trkpt>
      <trkpt lat="45.81858" lon="4.82149">
        <ele>314.20001220703</ele>
        <time>2019-08-17T08:23:53.000Z</time>
      </trkpt>
      <trkpt lat="45.81857" lon="4.82123">
        <ele>314.20001220703</ele>
        <time>2019-08-17T08:23:56.000Z</time>
      </trkpt>
      <trkpt lat="45.81857" lon="4.82094">
        <ele>314.20001220703</ele>
        <time>2019-08-17T08:24:00.000Z</time>
      </trkpt>
      <trkpt lat="45.81856" lon="4.82088">
        <ele>314.20001220703</ele>
        <time>2019-08-17T08:24:01.000Z</time>
      </trkpt>
      <trkpt lat="45.81854" lon="4.82082">
        <ele>314.20001220703</ele>
        <time>2019-08-17T08:24:02.000Z</time>
      </trkpt>
      <trkpt lat="45.81848" lon="4.82055">
        <ele>313.39999389648</ele>
        <time>2019-08-17T08:24:06.000Z</time>
      </trkpt>
      <trkpt lat="45.81846" lon="4.82046">
        <ele>313</ele>
        <time>2019-08-17T08:24:07.000Z</time>
      </trkpt>
      <trkpt lat="45.81844" lon="4.82038">
        <ele>312.39999389648</ele>
        <time>2019-08-17T08:24:08.000Z</time>
      </trkpt>
      <trkpt lat="45.81843" lon="4.8203">
        <ele>312</ele>
        <time>2019-08-17T08:24:09.000Z</time>
      </trkpt>
      <trkpt lat="45.8184" lon="4.82003">
        <ele>312</ele>
        <time>2019-08-17T08:24:12.000Z</time>
      </trkpt>
      <trkpt lat="45.81842" lon="4.81954">
        <ele>311.60000610352</ele>
        <time>2019-08-17T08:24:17.000Z</time>
      </trkpt>
      <trkpt lat="45.81843" lon="4.81945">
        <ele>311.20001220703</ele>
        <time>2019-08-17T08:24:18.000Z</time>
      </trkpt>
      <trkpt lat="45.81844" lon="4.81936">
        <ele>310.79998779297</ele>
        <time>2019-08-17T08:24:19.000Z</time>
      </trkpt>
      <trkpt lat="45.81845" lon="4.81927">
        <ele>310.39999389648</ele>
        <time>2019-08-17T08:24:20.000Z</time>
      </trkpt>
      <trkpt lat="45.81846" lon="4.81917">
        <ele>310</ele>
        <time>2019-08-17T08:24:21.000Z</time>
      </trkpt>
      <trkpt lat="45.81851" lon="4.81888">
        <ele>310</ele>
        <time>2019-08-17T08:24:24.000Z</time>
      </trkpt>
      <trkpt lat="45.81855" lon="4.81847">
        <ele>309.39999389648</ele>
        <time>2019-08-17T08:24:28.000Z</time>
      </trkpt>
      <trkpt lat="45.81855" lon="4.81836">
        <ele>309</ele>
        <time>2019-08-17T08:24:29.000Z</time>
      </trkpt>
      <trkpt lat="45.81851" lon="4.81826">
        <ele>308.20001220703</ele>
        <time>2019-08-17T08:24:30.000Z</time>
      </trkpt>
      <trkpt lat="45.81845" lon="4.81818">
        <ele>307.79998779297</ele>
        <time>2019-08-17T08:24:31.000Z</time>
      </trkpt>
      <trkpt lat="45.81839" lon="4.81811">
        <ele>307.20001220703</ele>
        <time>2019-08-17T08:24:32.000Z</time>
      </trkpt>
      <trkpt lat="45.81831" lon="4.81806">
        <ele>306.79998779297</ele>
        <time>2019-08-17T08:24:33.000Z</time>
      </trkpt>
      <trkpt lat="45.81825" lon="4.81801">
        <ele>306.20001220703</ele>
        <time>2019-08-17T08:24:34.000Z</time>
      </trkpt>
      <trkpt lat="45.81818" lon="4.81796">
        <ele>305.79998779297</ele>
        <time>2019-08-17T08:24:35.000Z</time>
      </trkpt>
      <trkpt lat="45.8181" lon="4.81792">
        <ele>305.20001220703</ele>
        <time>2019-08-17T08:24:36.000Z</time>
      </trkpt>
      <trkpt lat="45.81801" lon="4.81788">
        <ele>304.60000610352</ele>
        <time>2019-08-17T08:24:37.000Z</time>
      </trkpt>
      <trkpt lat="45.81793" lon="4.81784">
        <ele>304.20001220703</ele>
        <time>2019-08-17T08:24:38.000Z</time>
      </trkpt>
      <trkpt lat="45.81784" lon="4.8178">
        <ele>303.60000610352</ele>
        <time>2019-08-17T08:24:39.000Z</time>
      </trkpt>
      <trkpt lat="45.81774" lon="4.81776">
        <ele>303</ele>
        <time>2019-08-17T08:24:40.000Z</time>
      </trkpt>
      <trkpt lat="45.81764" lon="4.81771">
        <ele>302.39999389648</ele>
        <time>2019-08-17T08:24:41.000Z</time>
      </trkpt>
      <trkpt lat="45.81754" lon="4.81764">
        <ele>302</ele>
        <time>2019-08-17T08:24:42.000Z</time>
      </trkpt>
      <trkpt lat="45.81747" lon="4.81753">
        <ele>301.39999389648</ele>
        <time>2019-08-17T08:24:43.000Z</time>
      </trkpt>
      <trkpt lat="45.81743" lon="4.8174">
        <ele>300.79998779297</ele>
        <time>2019-08-17T08:24:44.000Z</time>
      </trkpt>
      <trkpt lat="45.81741" lon="4.81728">
        <ele>300</ele>
        <time>2019-08-17T08:24:45.000Z</time>
      </trkpt>
      <trkpt lat="45.8174" lon="4.81717">
        <ele>299.39999389648</ele>
        <time>2019-08-17T08:24:46.000Z</time>
      </trkpt>
      <trkpt lat="45.81739" lon="4.81708">
        <ele>298.79998779297</ele>
        <time>2019-08-17T08:24:47.000Z</time>
      </trkpt>
      <trkpt lat="45.81739" lon="4.81699">
        <ele>298.20001220703</ele>
        <time>2019-08-17T08:24:48.000Z</time>
      </trkpt>
      <trkpt lat="45.8174" lon="4.8169">
        <ele>298.20001220703</ele>
        <time>2019-08-17T08:24:49.000Z</time>
      </trkpt>
      <trkpt lat="45.81745" lon="4.81653">
        <ele>298.20001220703</ele>
        <time>2019-08-17T08:24:53.000Z</time>
      </trkpt>
      <trkpt lat="45.81746" lon="4.81645">
        <ele>298.60000610352</ele>
        <time>2019-08-17T08:24:54.000Z</time>
      </trkpt>
      <trkpt lat="45.81746" lon="4.81637">
        <ele>299.39999389648</ele>
        <time>2019-08-17T08:24:55.000Z</time>
      </trkpt>
      <trkpt lat="45.81746" lon="4.81629">
        <ele>300</ele>
        <time>2019-08-17T08:24:56.000Z</time>
      </trkpt>
      <trkpt lat="45.81746" lon="4.81623">
        <ele>300.39999389648</ele>
        <time>2019-08-17T08:24:57.000Z</time>
      </trkpt>
      <trkpt lat="45.81746" lon="4.81616">
        <ele>300.79998779297</ele>
        <time>2019-08-17T08:24:58.000Z</time>
      </trkpt>
      <trkpt lat="45.81745" lon="4.8161">
        <ele>301.39999389648</ele>
        <time>2019-08-17T08:24:59.000Z</time>
      </trkpt>
      <trkpt lat="45.81745" lon="4.81606">
        <ele>301.79998779297</ele>
        <time>2019-08-17T08:25:00.000Z</time>
      </trkpt>
      <trkpt lat="45.81744" lon="4.81601">
        <ele>302.20001220703</ele>
        <time>2019-08-17T08:25:01.000Z</time>
      </trkpt>
      <trkpt lat="45.81744" lon="4.81597">
        <ele>302.79998779297</ele>
        <time>2019-08-17T08:25:02.000Z</time>
      </trkpt>
      <trkpt lat="45.81742" lon="4.8159">
        <ele>302.79998779297</ele>
        <time>2019-08-17T08:25:04.000Z</time>
      </trkpt>
      <trkpt lat="45.8174" lon="4.81584">
        <ele>302.79998779297</ele>
        <time>2019-08-17T08:25:07.000Z</time>
      </trkpt>
      <trkpt lat="45.81738" lon="4.81583">
        <ele>302.79998779297</ele>
        <time>2019-08-17T08:25:08.000Z</time>
      </trkpt>
      <trkpt lat="45.81732" lon="4.81585">
        <ele>302.79998779297</ele>
        <time>2019-08-17T08:25:11.000Z</time>
      </trkpt>
      <trkpt lat="45.81724" lon="4.81587">
        <ele>302.79998779297</ele>
        <time>2019-08-17T08:25:15.000Z</time>
      </trkpt>
      <trkpt lat="45.81722" lon="4.81588">
        <ele>302.79998779297</ele>
        <time>2019-08-17T08:25:16.000Z</time>
      </trkpt>
      <trkpt lat="45.81719" lon="4.81593">
        <ele>302.79998779297</ele>
        <time>2019-08-17T08:25:21.000Z</time>
      </trkpt>
      <trkpt lat="45.81721" lon="4.81591">
        <ele>302.79998779297</ele>
        <time>2019-08-17T08:25:24.000Z</time>
      </trkpt>
      <trkpt lat="45.81724" lon="4.8159">
        <ele>302.79998779297</ele>
        <time>2019-08-17T08:25:26.000Z</time>
      </trkpt>
      <trkpt lat="45.8173" lon="4.81585">
        <ele>302.79998779297</ele>
        <time>2019-08-17T08:25:30.000Z</time>
      </trkpt>
      <trkpt lat="45.81731" lon="4.81583">
        <ele>302.79998779297</ele>
        <time>2019-08-17T08:25:31.000Z</time>
      </trkpt>
      <trkpt lat="45.81733" lon="4.81582">
        <ele>302.79998779297</ele>
        <time>2019-08-17T08:25:32.000Z</time>
      </trkpt>
      <trkpt lat="45.81739" lon="4.81576">
        <ele>302.79998779297</ele>
        <time>2019-08-17T08:25:35.000Z</time>
      </trkpt>
      <trkpt lat="45.81751" lon="4.81568">
        <ele>303.20001220703</ele>
        <time>2019-08-17T08:25:40.000Z</time>
      </trkpt>
      <trkpt lat="45.81754" lon="4.81566">
        <ele>303.60000610352</ele>
        <time>2019-08-17T08:25:41.000Z</time>
      </trkpt>
      <trkpt lat="45.81756" lon="4.81564">
        <ele>304</ele>
        <time>2019-08-17T08:25:42.000Z</time>
      </trkpt>
      <trkpt lat="45.81758" lon="4.81563">
        <ele>304.39999389648</ele>
        <time>2019-08-17T08:25:43.000Z</time>
      </trkpt>
      <trkpt lat="45.8176" lon="4.81562">
        <ele>304.79998779297</ele>
        <time>2019-08-17T08:25:44.000Z</time>
      </trkpt>
      <trkpt lat="45.81765" lon="4.81559">
        <ele>304.79998779297</ele>
        <time>2019-08-17T08:25:46.000Z</time>
      </trkpt>
      <trkpt lat="45.81783" lon="4.81544">
        <ele>304.79998779297</ele>
        <time>2019-08-17T08:25:53.000Z</time>
      </trkpt>
      <trkpt lat="45.81787" lon="4.81539">
        <ele>305.20001220703</ele>
        <time>2019-08-17T08:25:55.000Z</time>
      </trkpt>
      <trkpt lat="45.81788" lon="4.81536">
        <ele>305.79998779297</ele>
        <time>2019-08-17T08:25:56.000Z</time>
      </trkpt>
      <trkpt lat="45.8179" lon="4.81533">
        <ele>306.20001220703</ele>
        <time>2019-08-17T08:25:57.000Z</time>
      </trkpt>
      <trkpt lat="45.81791" lon="4.81529">
        <ele>306.60000610352</ele>
        <time>2019-08-17T08:25:58.000Z</time>
      </trkpt>
      <trkpt lat="45.81792" lon="4.81524">
        <ele>307</ele>
        <time>2019-08-17T08:25:59.000Z</time>
      </trkpt>
      <trkpt lat="45.81793" lon="4.8152">
        <ele>307</ele>
        <time>2019-08-17T08:26:00.000Z</time>
      </trkpt>
      <trkpt lat="45.81805" lon="4.81501">
        <ele>307</ele>
        <time>2019-08-17T08:26:07.000Z</time>
      </trkpt>
      <trkpt lat="45.81809" lon="4.81496">
        <ele>307.39999389648</ele>
        <time>2019-08-17T08:26:09.000Z</time>
      </trkpt>
      <trkpt lat="45.81811" lon="4.81493">
        <ele>307.79998779297</ele>
        <time>2019-08-17T08:26:10.000Z</time>
      </trkpt>
      <trkpt lat="45.81813" lon="4.8149">
        <ele>308.20001220703</ele>
        <time>2019-08-17T08:26:11.000Z</time>
      </trkpt>
      <trkpt lat="45.81815" lon="4.81487">
        <ele>308.79998779297</ele>
        <time>2019-08-17T08:26:12.000Z</time>
      </trkpt>
      <trkpt lat="45.81817" lon="4.81484">
        <ele>309.20001220703</ele>
        <time>2019-08-17T08:26:13.000Z</time>
      </trkpt>
      <trkpt lat="45.81819" lon="4.8148">
        <ele>309.20001220703</ele>
        <time>2019-08-17T08:26:14.000Z</time>
      </trkpt>
      <trkpt lat="45.81828" lon="4.81462">
        <ele>309.20001220703</ele>
        <time>2019-08-17T08:26:20.000Z</time>
      </trkpt>
      <trkpt lat="45.81831" lon="4.81452">
        <ele>309.60000610352</ele>
        <time>2019-08-17T08:26:23.000Z</time>
      </trkpt>
      <trkpt lat="45.81832" lon="4.81449">
        <ele>310</ele>
        <time>2019-08-17T08:26:24.000Z</time>
      </trkpt>
      <trkpt lat="45.81833" lon="4.81446">
        <ele>310.39999389648</ele>
        <time>2019-08-17T08:26:25.000Z</time>
      </trkpt>
      <trkpt lat="45.81834" lon="4.81444">
        <ele>310.79998779297</ele>
        <time>2019-08-17T08:26:26.000Z</time>
      </trkpt>
      <trkpt lat="45.81835" lon="4.81441">
        <ele>311.39999389648</ele>
        <time>2019-08-17T08:26:27.000Z</time>
      </trkpt>
      <trkpt lat="45.81836" lon="4.81438">
        <ele>311.39999389648</ele>
        <time>2019-08-17T08:26:28.000Z</time>
      </trkpt>
      <trkpt lat="45.81837" lon="4.8143">
        <ele>311.39999389648</ele>
        <time>2019-08-17T08:26:34.000Z</time>
      </trkpt>
      <trkpt lat="45.81838" lon="4.81427">
        <ele>311.39999389648</ele>
        <time>2019-08-17T08:26:39.000Z</time>
      </trkpt>
      <trkpt lat="45.81839" lon="4.81425">
        <ele>311.39999389648</ele>
        <time>2019-08-17T08:26:40.000Z</time>
      </trkpt>
      <trkpt lat="45.81839" lon="4.81418">
        <ele>311.39999389648</ele>
        <time>2019-08-17T08:26:43.000Z</time>
      </trkpt>
      <trkpt lat="45.81837" lon="4.8141">
        <ele>311.39999389648</ele>
        <time>2019-08-17T08:26:48.000Z</time>
      </trkpt>
      <trkpt lat="45.81836" lon="4.8141">
        <ele>311.39999389648</ele>
        <time>2019-08-17T08:26:49.000Z</time>
      </trkpt>
      <trkpt lat="45.81833" lon="4.8142">
        <ele>311.39999389648</ele>
        <time>2019-08-17T08:26:53.000Z</time>
      </trkpt>
      <trkpt lat="45.81843" lon="4.81437">
        <ele>311.39999389648</ele>
        <time>2019-08-17T08:26:56.000Z</time>
      </trkpt>
      <trkpt lat="45.81858" lon="4.81438">
        <ele>311.39999389648</ele>
        <time>2019-08-17T08:26:59.000Z</time>
      </trkpt>
      <trkpt lat="45.81863" lon="4.81439">
        <ele>311.79998779297</ele>
        <time>2019-08-17T08:27:00.000Z</time>
      </trkpt>
      <trkpt lat="45.81867" lon="4.81439">
        <ele>312.20001220703</ele>
        <time>2019-08-17T08:27:01.000Z</time>
      </trkpt>
      <trkpt lat="45.81872" lon="4.81439">
        <ele>312.60000610352</ele>
        <time>2019-08-17T08:27:02.000Z</time>
      </trkpt>
      <trkpt lat="45.81876" lon="4.81439">
        <ele>313</ele>
        <time>2019-08-17T08:27:03.000Z</time>
      </trkpt>
      <trkpt lat="45.81879" lon="4.81439">
        <ele>313.39999389648</ele>
        <time>2019-08-17T08:27:04.000Z</time>
      </trkpt>
      <trkpt lat="45.81884" lon="4.81439">
        <ele>313.39999389648</ele>
        <time>2019-08-17T08:27:05.000Z</time>
      </trkpt>
      <trkpt lat="45.81916" lon="4.81442">
        <ele>313.39999389648</ele>
        <time>2019-08-17T08:27:13.000Z</time>
      </trkpt>
      <trkpt lat="45.81919" lon="4.81441">
        <ele>313.79998779297</ele>
        <time>2019-08-17T08:27:14.000Z</time>
      </trkpt>
      <trkpt lat="45.81922" lon="4.81441">
        <ele>314.20001220703</ele>
        <time>2019-08-17T08:27:15.000Z</time>
      </trkpt>
      <trkpt lat="45.81925" lon="4.81441">
        <ele>314.60000610352</ele>
        <time>2019-08-17T08:27:16.000Z</time>
      </trkpt>
      <trkpt lat="45.81928" lon="4.81441">
        <ele>315</ele>
        <time>2019-08-17T08:27:17.000Z</time>
      </trkpt>
      <trkpt lat="45.81932" lon="4.81441">
        <ele>315.39999389648</ele>
        <time>2019-08-17T08:27:18.000Z</time>
      </trkpt>
      <trkpt lat="45.81938" lon="4.81441">
        <ele>315.39999389648</ele>
        <time>2019-08-17T08:27:20.000Z</time>
      </trkpt>
      <trkpt lat="45.8196" lon="4.81433">
        <ele>315.39999389648</ele>
        <time>2019-08-17T08:27:27.000Z</time>
      </trkpt>
      <trkpt lat="45.81985" lon="4.81443">
        <ele>315.39999389648</ele>
        <time>2019-08-17T08:27:34.000Z</time>
      </trkpt>
      <trkpt lat="45.81989" lon="4.81445">
        <ele>315.79998779297</ele>
        <time>2019-08-17T08:27:35.000Z</time>
      </trkpt>
      <trkpt lat="45.81993" lon="4.81447">
        <ele>316.20001220703</ele>
        <time>2019-08-17T08:27:36.000Z</time>
      </trkpt>
      <trkpt lat="45.81997" lon="4.81449">
        <ele>316.60000610352</ele>
        <time>2019-08-17T08:27:37.000Z</time>
      </trkpt>
      <trkpt lat="45.82002" lon="4.81451">
        <ele>317</ele>
        <time>2019-08-17T08:27:38.000Z</time>
      </trkpt>
      <trkpt lat="45.82005" lon="4.81452">
        <ele>317.39999389648</ele>
        <time>2019-08-17T08:27:39.000Z</time>
      </trkpt>
      <trkpt lat="45.82013" lon="4.81455">
        <ele>317.39999389648</ele>
        <time>2019-08-17T08:27:41.000Z</time>
      </trkpt>
      <trkpt lat="45.82038" lon="4.8146">
        <ele>317.39999389648</ele>
        <time>2019-08-17T08:27:47.000Z</time>
      </trkpt>
      <trkpt lat="45.82064" lon="4.81463">
        <ele>317.39999389648</ele>
        <time>2019-08-17T08:27:54.000Z</time>
      </trkpt>
      <trkpt lat="45.82071" lon="4.81464">
        <ele>318</ele>
        <time>2019-08-17T08:27:56.000Z</time>
      </trkpt>
      <trkpt lat="45.82074" lon="4.81464">
        <ele>318.39999389648</ele>
        <time>2019-08-17T08:27:57.000Z</time>
      </trkpt>
      <trkpt lat="45.82077" lon="4.81464">
        <ele>318.79998779297</ele>
        <time>2019-08-17T08:27:58.000Z</time>
      </trkpt>
      <trkpt lat="45.82081" lon="4.81463">
        <ele>319.20001220703</ele>
        <time>2019-08-17T08:27:59.000Z</time>
      </trkpt>
      <trkpt lat="45.82085" lon="4.81463">
        <ele>319.60000610352</ele>
        <time>2019-08-17T08:28:00.000Z</time>
      </trkpt>
      <trkpt lat="45.82105" lon="4.81462">
        <ele>319.60000610352</ele>
        <time>2019-08-17T08:28:05.000Z</time>
      </trkpt>
      <trkpt lat="45.82125" lon="4.81459">
        <ele>319.60000610352</ele>
        <time>2019-08-17T08:28:10.000Z</time>
      </trkpt>
      <trkpt lat="45.82132" lon="4.81458">
        <ele>320</ele>
        <time>2019-08-17T08:28:12.000Z</time>
      </trkpt>
      <trkpt lat="45.82134" lon="4.81458">
        <ele>320.79998779297</ele>
        <time>2019-08-17T08:28:13.000Z</time>
      </trkpt>
      <trkpt lat="45.82137" lon="4.81458">
        <ele>321.20001220703</ele>
        <time>2019-08-17T08:28:14.000Z</time>
      </trkpt>
      <trkpt lat="45.8214" lon="4.81457">
        <ele>321.60000610352</ele>
        <time>2019-08-17T08:28:15.000Z</time>
      </trkpt>
      <trkpt lat="45.82143" lon="4.81456">
        <ele>321.60000610352</ele>
        <time>2019-08-17T08:28:16.000Z</time>
      </trkpt>
      <trkpt lat="45.8217" lon="4.8145">
        <ele>321.60000610352</ele>
        <time>2019-08-17T08:28:24.000Z</time>
      </trkpt>
      <trkpt lat="45.82193" lon="4.81446">
        <ele>321.60000610352</ele>
        <time>2019-08-17T08:28:30.000Z</time>
      </trkpt>
      <trkpt lat="45.82201" lon="4.81444">
        <ele>322.20001220703</ele>
        <time>2019-08-17T08:28:32.000Z</time>
      </trkpt>
      <trkpt lat="45.82204" lon="4.81442">
        <ele>322.60000610352</ele>
        <time>2019-08-17T08:28:33.000Z</time>
      </trkpt>
      <trkpt lat="45.82208" lon="4.81442">
        <ele>323</ele>
        <time>2019-08-17T08:28:34.000Z</time>
      </trkpt>
      <trkpt lat="45.82212" lon="4.81441">
        <ele>323.39999389648</ele>
        <time>2019-08-17T08:28:35.000Z</time>
      </trkpt>
      <trkpt lat="45.82215" lon="4.81439">
        <ele>323.79998779297</ele>
        <time>2019-08-17T08:28:36.000Z</time>
      </trkpt>
      <trkpt lat="45.82225" lon="4.81435">
        <ele>323.79998779297</ele>
        <time>2019-08-17T08:28:39.000Z</time>
      </trkpt>
      <trkpt lat="45.82243" lon="4.81427">
        <ele>323.79998779297</ele>
        <time>2019-08-17T08:28:44.000Z</time>
      </trkpt>
      <trkpt lat="45.82258" lon="4.81422">
        <ele>324.20001220703</ele>
        <time>2019-08-17T08:28:48.000Z</time>
      </trkpt>
      <trkpt lat="45.82262" lon="4.81421">
        <ele>324.60000610352</ele>
        <time>2019-08-17T08:28:49.000Z</time>
      </trkpt>
      <trkpt lat="45.82265" lon="4.81421">
        <ele>325</ele>
        <time>2019-08-17T08:28:50.000Z</time>
      </trkpt>
      <trkpt lat="45.8227" lon="4.8142">
        <ele>325.39999389648</ele>
        <time>2019-08-17T08:28:51.000Z</time>
      </trkpt>
      <trkpt lat="45.82273" lon="4.8142">
        <ele>325.79998779297</ele>
        <time>2019-08-17T08:28:52.000Z</time>
      </trkpt>
      <trkpt lat="45.82294" lon="4.81409">
        <ele>325.79998779297</ele>
        <time>2019-08-17T08:28:58.000Z</time>
      </trkpt>
      <trkpt lat="45.82305" lon="4.81398">
        <ele>326.39999389648</ele>
        <time>2019-08-17T08:29:02.000Z</time>
      </trkpt>
      <trkpt lat="45.82308" lon="4.81395">
        <ele>326.79998779297</ele>
        <time>2019-08-17T08:29:03.000Z</time>
      </trkpt>
      <trkpt lat="45.8231" lon="4.81392">
        <ele>327.20001220703</ele>
        <time>2019-08-17T08:29:04.000Z</time>
      </trkpt>
      <trkpt lat="45.82313" lon="4.81389">
        <ele>327.60000610352</ele>
        <time>2019-08-17T08:29:05.000Z</time>
      </trkpt>
      <trkpt lat="45.82315" lon="4.81385">
        <ele>328.20001220703</ele>
        <time>2019-08-17T08:29:06.000Z</time>
      </trkpt>
      <trkpt lat="45.82325" lon="4.81367">
        <ele>328.20001220703</ele>
        <time>2019-08-17T08:29:11.000Z</time>
      </trkpt>
      <trkpt lat="45.8233" lon="4.81355">
        <ele>328.60000610352</ele>
        <time>2019-08-17T08:29:14.000Z</time>
      </trkpt>
      <trkpt lat="45.82332" lon="4.81351">
        <ele>329</ele>
        <time>2019-08-17T08:29:15.000Z</time>
      </trkpt>
      <trkpt lat="45.82334" lon="4.81347">
        <ele>329.39999389648</ele>
        <time>2019-08-17T08:29:16.000Z</time>
      </trkpt>
      <trkpt lat="45.82336" lon="4.81343">
        <ele>329.79998779297</ele>
        <time>2019-08-17T08:29:17.000Z</time>
      </trkpt>
      <trkpt lat="45.82338" lon="4.8134">
        <ele>330.20001220703</ele>
        <time>2019-08-17T08:29:18.000Z</time>
      </trkpt>
      <trkpt lat="45.8234" lon="4.81336">
        <ele>330.20001220703</ele>
        <time>2019-08-17T08:29:19.000Z</time>
      </trkpt>
      <trkpt lat="45.82349" lon="4.81317">
        <ele>330.60000610352</ele>
        <time>2019-08-17T08:29:24.000Z</time>
      </trkpt>
      <trkpt lat="45.82351" lon="4.81313">
        <ele>331</ele>
        <time>2019-08-17T08:29:25.000Z</time>
      </trkpt>
      <trkpt lat="45.82353" lon="4.81309">
        <ele>331.39999389648</ele>
        <time>2019-08-17T08:29:26.000Z</time>
      </trkpt>
      <trkpt lat="45.82355" lon="4.81304">
        <ele>332.20001220703</ele>
        <time>2019-08-17T08:29:27.000Z</time>
      </trkpt>
      <trkpt lat="45.82356" lon="4.813">
        <ele>332.20001220703</ele>
        <time>2019-08-17T08:29:28.000Z</time>
      </trkpt>
      <trkpt lat="45.82371" lon="4.81271">
        <ele>332.20001220703</ele>
        <time>2019-08-17T08:29:36.000Z</time>
      </trkpt>
      <trkpt lat="45.82382" lon="4.81247">
        <ele>332.20001220703</ele>
        <time>2019-08-17T08:29:43.000Z</time>
      </trkpt>
      <trkpt lat="45.82401" lon="4.81221">
        <ele>332.20001220703</ele>
        <time>2019-08-17T08:29:49.000Z</time>
      </trkpt>
      <trkpt lat="45.82427" lon="4.81193">
        <ele>332.20001220703</ele>
        <time>2019-08-17T08:29:56.000Z</time>
      </trkpt>
      <trkpt lat="45.82448" lon="4.81169">
        <ele>332.20001220703</ele>
        <time>2019-08-17T08:30:03.000Z</time>
      </trkpt>
      <trkpt lat="45.82457" lon="4.81159">
        <ele>332.60000610352</ele>
        <time>2019-08-17T08:30:06.000Z</time>
      </trkpt>
      <trkpt lat="45.8246" lon="4.81156">
        <ele>333.20001220703</ele>
        <time>2019-08-17T08:30:07.000Z</time>
      </trkpt>
      <trkpt lat="45.82463" lon="4.81152">
        <ele>333.60000610352</ele>
        <time>2019-08-17T08:30:08.000Z</time>
      </trkpt>
      <trkpt lat="45.82466" lon="4.81149">
        <ele>334</ele>
        <time>2019-08-17T08:30:09.000Z</time>
      </trkpt>
      <trkpt lat="45.82469" lon="4.81145">
        <ele>334.39999389648</ele>
        <time>2019-08-17T08:30:10.000Z</time>
      </trkpt>
      <trkpt lat="45.82492" lon="4.81125">
        <ele>334.39999389648</ele>
        <time>2019-08-17T08:30:17.000Z</time>
      </trkpt>
      <trkpt lat="45.82512" lon="4.8111">
        <ele>334.39999389648</ele>
        <time>2019-08-17T08:30:24.000Z</time>
      </trkpt>
      <trkpt lat="45.8253" lon="4.81094">
        <ele>334.39999389648</ele>
        <time>2019-08-17T08:30:30.000Z</time>
      </trkpt>
      <trkpt lat="45.82549" lon="4.81081">
        <ele>334.39999389648</ele>
        <time>2019-08-17T08:30:36.000Z</time>
      </trkpt>
      <trkpt lat="45.82562" lon="4.81081">
        <ele>334.39999389648</ele>
        <time>2019-08-17T08:30:40.000Z</time>
      </trkpt>
      <trkpt lat="45.82574" lon="4.81077">
        <ele>334.39999389648</ele>
        <time>2019-08-17T08:30:43.000Z</time>
      </trkpt>
      <trkpt lat="45.82583" lon="4.81073">
        <ele>334.39999389648</ele>
        <time>2019-08-17T08:30:45.000Z</time>
      </trkpt>
      <trkpt lat="45.82594" lon="4.81063">
        <ele>334.39999389648</ele>
        <time>2019-08-17T08:30:48.000Z</time>
      </trkpt>
      <trkpt lat="45.82605" lon="4.81053">
        <ele>334.39999389648</ele>
        <time>2019-08-17T08:30:51.000Z</time>
      </trkpt>
      <trkpt lat="45.82609" lon="4.8105">
        <ele>334.39999389648</ele>
        <time>2019-08-17T08:30:52.000Z</time>
      </trkpt>
      <trkpt lat="45.82616" lon="4.81043">
        <ele>334.39999389648</ele>
        <time>2019-08-17T08:30:54.000Z</time>
      </trkpt>
      <trkpt lat="45.82625" lon="4.81029">
        <ele>334.39999389648</ele>
        <time>2019-08-17T08:30:57.000Z</time>
      </trkpt>
      <trkpt lat="45.82635" lon="4.81016">
        <ele>334.39999389648</ele>
        <time>2019-08-17T08:31:02.000Z</time>
      </trkpt>
      <trkpt lat="45.82638" lon="4.81013">
        <ele>334.39999389648</ele>
        <time>2019-08-17T08:31:07.000Z</time>
      </trkpt>
      <trkpt lat="45.8264" lon="4.81008">
        <ele>334.39999389648</ele>
        <time>2019-08-17T08:31:09.000Z</time>
      </trkpt>
      <trkpt lat="45.82639" lon="4.81004">
        <ele>334.39999389648</ele>
        <time>2019-08-17T08:31:11.000Z</time>
      </trkpt>
      <trkpt lat="45.82638" lon="4.81002">
        <ele>334.39999389648</ele>
        <time>2019-08-17T08:31:14.000Z</time>
      </trkpt>
      <trkpt lat="45.82636" lon="4.80999">
        <ele>334.39999389648</ele>
        <time>2019-08-17T08:31:17.000Z</time>
      </trkpt>
      <trkpt lat="45.82634" lon="4.80996">
        <ele>334.39999389648</ele>
        <time>2019-08-17T08:31:18.000Z</time>
      </trkpt>
      <trkpt lat="45.82628" lon="4.80987">
        <ele>334.39999389648</ele>
        <time>2019-08-17T08:31:20.000Z</time>
      </trkpt>
      <trkpt lat="45.82619" lon="4.80979">
        <ele>334.39999389648</ele>
        <time>2019-08-17T08:31:22.000Z</time>
      </trkpt>
      <trkpt lat="45.826" lon="4.80974">
        <ele>334.39999389648</ele>
        <time>2019-08-17T08:31:26.000Z</time>
      </trkpt>
      <trkpt lat="45.82585" lon="4.80972">
        <ele>334</ele>
        <time>2019-08-17T08:31:29.000Z</time>
      </trkpt>
      <trkpt lat="45.8258" lon="4.80971">
        <ele>333.60000610352</ele>
        <time>2019-08-17T08:31:30.000Z</time>
      </trkpt>
      <trkpt lat="45.82575" lon="4.80971">
        <ele>332.60000610352</ele>
        <time>2019-08-17T08:31:31.000Z</time>
      </trkpt>
      <trkpt lat="45.8257" lon="4.8097">
        <ele>332.20001220703</ele>
        <time>2019-08-17T08:31:32.000Z</time>
      </trkpt>
      <trkpt lat="45.82565" lon="4.80969">
        <ele>332.20001220703</ele>
        <time>2019-08-17T08:31:33.000Z</time>
      </trkpt>
      <trkpt lat="45.82527" lon="4.8096">
        <ele>332.20001220703</ele>
        <time>2019-08-17T08:31:39.000Z</time>
      </trkpt>
      <trkpt lat="45.82512" lon="4.80957">
        <ele>331.79998779297</ele>
        <time>2019-08-17T08:31:41.000Z</time>
      </trkpt>
      <trkpt lat="45.82504" lon="4.80955">
        <ele>331.39999389648</ele>
        <time>2019-08-17T08:31:42.000Z</time>
      </trkpt>
      <trkpt lat="45.82497" lon="4.80953">
        <ele>331</ele>
        <time>2019-08-17T08:31:43.000Z</time>
      </trkpt>
      <trkpt lat="45.82489" lon="4.8095">
        <ele>330.60000610352</ele>
        <time>2019-08-17T08:31:44.000Z</time>
      </trkpt>
      <trkpt lat="45.82481" lon="4.80947">
        <ele>330.20001220703</ele>
        <time>2019-08-17T08:31:45.000Z</time>
      </trkpt>
      <trkpt lat="45.82466" lon="4.8094">
        <ele>329.60000610352</ele>
        <time>2019-08-17T08:31:47.000Z</time>
      </trkpt>
      <trkpt lat="45.8246" lon="4.80935">
        <ele>329.20001220703</ele>
        <time>2019-08-17T08:31:48.000Z</time>
      </trkpt>
      <trkpt lat="45.82453" lon="4.80928">
        <ele>328.79998779297</ele>
        <time>2019-08-17T08:31:49.000Z</time>
      </trkpt>
      <trkpt lat="45.82446" lon="4.80922">
        <ele>328.39999389648</ele>
        <time>2019-08-17T08:31:50.000Z</time>
      </trkpt>
      <trkpt lat="45.8244" lon="4.80916">
        <ele>328</ele>
        <time>2019-08-17T08:31:51.000Z</time>
      </trkpt>
      <trkpt lat="45.82416" lon="4.80891">
        <ele>328</ele>
        <time>2019-08-17T08:31:55.000Z</time>
      </trkpt>
      <trkpt lat="45.82406" lon="4.8088">
        <ele>327.60000610352</ele>
        <time>2019-08-17T08:31:57.000Z</time>
      </trkpt>
      <trkpt lat="45.82402" lon="4.80875">
        <ele>327.20001220703</ele>
        <time>2019-08-17T08:31:58.000Z</time>
      </trkpt>
      <trkpt lat="45.82397" lon="4.8087">
        <ele>326.60000610352</ele>
        <time>2019-08-17T08:31:59.000Z</time>
      </trkpt>
      <trkpt lat="45.82393" lon="4.80866">
        <ele>326.20001220703</ele>
        <time>2019-08-17T08:32:00.000Z</time>
      </trkpt>
      <trkpt lat="45.8239" lon="4.80862">
        <ele>325.79998779297</ele>
        <time>2019-08-17T08:32:01.000Z</time>
      </trkpt>
      <trkpt lat="45.82377" lon="4.80846">
        <ele>325.79998779297</ele>
        <time>2019-08-17T08:32:05.000Z</time>
      </trkpt>
      <trkpt lat="45.82359" lon="4.80833">
        <ele>325.79998779297</ele>
        <time>2019-08-17T08:32:10.000Z</time>
      </trkpt>
      <trkpt lat="45.82328" lon="4.80815">
        <ele>325.79998779297</ele>
        <time>2019-08-17T08:32:16.000Z</time>
      </trkpt>
      <trkpt lat="45.82312" lon="4.80806">
        <ele>325.79998779297</ele>
        <time>2019-08-17T08:32:19.000Z</time>
      </trkpt>
      <trkpt lat="45.82307" lon="4.80802">
        <ele>325</ele>
        <time>2019-08-17T08:32:20.000Z</time>
      </trkpt>
      <trkpt lat="45.82303" lon="4.80798">
        <ele>324.60000610352</ele>
        <time>2019-08-17T08:32:21.000Z</time>
      </trkpt>
      <trkpt lat="45.82299" lon="4.80795">
        <ele>324.20001220703</ele>
        <time>2019-08-17T08:32:22.000Z</time>
      </trkpt>
      <trkpt lat="45.82296" lon="4.80791">
        <ele>323.79998779297</ele>
        <time>2019-08-17T08:32:23.000Z</time>
      </trkpt>
      <trkpt lat="45.82288" lon="4.80782">
        <ele>323.79998779297</ele>
        <time>2019-08-17T08:32:26.000Z</time>
      </trkpt>
      <trkpt lat="45.82286" lon="4.80776">
        <ele>323.79998779297</ele>
        <time>2019-08-17T08:32:28.000Z</time>
      </trkpt>
      <trkpt lat="45.82286" lon="4.80766">
        <ele>323.79998779297</ele>
        <time>2019-08-17T08:32:30.000Z</time>
      </trkpt>
      <trkpt lat="45.82285" lon="4.80761">
        <ele>324.20001220703</ele>
        <time>2019-08-17T08:32:31.000Z</time>
      </trkpt>
      <trkpt lat="45.82284" lon="4.80757">
        <ele>324.79998779297</ele>
        <time>2019-08-17T08:32:32.000Z</time>
      </trkpt>
      <trkpt lat="45.82282" lon="4.80752">
        <ele>325.20001220703</ele>
        <time>2019-08-17T08:32:33.000Z</time>
      </trkpt>
      <trkpt lat="45.82281" lon="4.80748">
        <ele>325.79998779297</ele>
        <time>2019-08-17T08:32:34.000Z</time>
      </trkpt>
      <trkpt lat="45.82279" lon="4.80745">
        <ele>326.39999389648</ele>
        <time>2019-08-17T08:32:35.000Z</time>
      </trkpt>
      <trkpt lat="45.82277" lon="4.80741">
        <ele>326.79998779297</ele>
        <time>2019-08-17T08:32:36.000Z</time>
      </trkpt>
      <trkpt lat="45.82275" lon="4.80737">
        <ele>327.20001220703</ele>
        <time>2019-08-17T08:32:37.000Z</time>
      </trkpt>
      <trkpt lat="45.82274" lon="4.80733">
        <ele>327.60000610352</ele>
        <time>2019-08-17T08:32:38.000Z</time>
      </trkpt>
      <trkpt lat="45.82273" lon="4.80729">
        <ele>328</ele>
        <time>2019-08-17T08:32:39.000Z</time>
      </trkpt>
      <trkpt lat="45.82271" lon="4.80725">
        <ele>328.39999389648</ele>
        <time>2019-08-17T08:32:40.000Z</time>
      </trkpt>
      <trkpt lat="45.82271" lon="4.80722">
        <ele>328.39999389648</ele>
        <time>2019-08-17T08:32:41.000Z</time>
      </trkpt>
      <trkpt lat="45.8227" lon="4.80718">
        <ele>328.79998779297</ele>
        <time>2019-08-17T08:32:42.000Z</time>
      </trkpt>
      <trkpt lat="45.82269" lon="4.80713">
        <ele>329.20001220703</ele>
        <time>2019-08-17T08:32:43.000Z</time>
      </trkpt>
      <trkpt lat="45.82268" lon="4.80709">
        <ele>329.60000610352</ele>
        <time>2019-08-17T08:32:44.000Z</time>
      </trkpt>
      <trkpt lat="45.82267" lon="4.80706">
        <ele>330.39999389648</ele>
        <time>2019-08-17T08:32:45.000Z</time>
      </trkpt>
      <trkpt lat="45.82261" lon="4.80693">
        <ele>330.39999389648</ele>
        <time>2019-08-17T08:32:48.000Z</time>
      </trkpt>
      <trkpt lat="45.82252" lon="4.80666">
        <ele>330.39999389648</ele>
        <time>2019-08-17T08:32:54.000Z</time>
      </trkpt>
      <trkpt lat="45.8225" lon="4.80662">
        <ele>330.79998779297</ele>
        <time>2019-08-17T08:32:55.000Z</time>
      </trkpt>
      <trkpt lat="45.82249" lon="4.80658">
        <ele>331.39999389648</ele>
        <time>2019-08-17T08:32:56.000Z</time>
      </trkpt>
      <trkpt lat="45.82247" lon="4.80654">
        <ele>331.79998779297</ele>
        <time>2019-08-17T08:32:57.000Z</time>
      </trkpt>
      <trkpt lat="45.82245" lon="4.8065">
        <ele>332.20001220703</ele>
        <time>2019-08-17T08:32:58.000Z</time>
      </trkpt>
      <trkpt lat="45.82243" lon="4.80646">
        <ele>332.60000610352</ele>
        <time>2019-08-17T08:32:59.000Z</time>
      </trkpt>
      <trkpt lat="45.82236" lon="4.80634">
        <ele>332.60000610352</ele>
        <time>2019-08-17T08:33:02.000Z</time>
      </trkpt>
      <trkpt lat="45.82213" lon="4.80602">
        <ele>332.60000610352</ele>
        <time>2019-08-17T08:33:10.000Z</time>
      </trkpt>
      <trkpt lat="45.82203" lon="4.80593">
        <ele>333</ele>
        <time>2019-08-17T08:33:13.000Z</time>
      </trkpt>
      <trkpt lat="45.82199" lon="4.80589">
        <ele>333.39999389648</ele>
        <time>2019-08-17T08:33:14.000Z</time>
      </trkpt>
      <trkpt lat="45.82196" lon="4.80585">
        <ele>333.79998779297</ele>
        <time>2019-08-17T08:33:15.000Z</time>
      </trkpt>
      <trkpt lat="45.82192" lon="4.80582">
        <ele>334.20001220703</ele>
        <time>2019-08-17T08:33:16.000Z</time>
      </trkpt>
      <trkpt lat="45.82189" lon="4.80579">
        <ele>334.60000610352</ele>
        <time>2019-08-17T08:33:17.000Z</time>
      </trkpt>
      <trkpt lat="45.82164" lon="4.80554">
        <ele>334.60000610352</ele>
        <time>2019-08-17T08:33:24.000Z</time>
      </trkpt>
      <trkpt lat="45.82143" lon="4.80522">
        <ele>334.60000610352</ele>
        <time>2019-08-17T08:33:31.000Z</time>
      </trkpt>
      <trkpt lat="45.82132" lon="4.80506">
        <ele>335</ele>
        <time>2019-08-17T08:33:35.000Z</time>
      </trkpt>
      <trkpt lat="45.82129" lon="4.80502">
        <ele>335.39999389648</ele>
        <time>2019-08-17T08:33:36.000Z</time>
      </trkpt>
      <trkpt lat="45.82127" lon="4.80498">
        <ele>335.79998779297</ele>
        <time>2019-08-17T08:33:37.000Z</time>
      </trkpt>
      <trkpt lat="45.82124" lon="4.80494">
        <ele>336.20001220703</ele>
        <time>2019-08-17T08:33:38.000Z</time>
      </trkpt>
      <trkpt lat="45.82122" lon="4.8049">
        <ele>336.60000610352</ele>
        <time>2019-08-17T08:33:39.000Z</time>
      </trkpt>
      <trkpt lat="45.82113" lon="4.80475">
        <ele>336.60000610352</ele>
        <time>2019-08-17T08:33:43.000Z</time>
      </trkpt>
      <trkpt lat="45.82103" lon="4.80461">
        <ele>336.60000610352</ele>
        <time>2019-08-17T08:33:48.000Z</time>
      </trkpt>
      <trkpt lat="45.82103" lon="4.8046">
        <ele>336.20001220703</ele>
        <time>2019-08-17T08:33:50.000Z</time>
      </trkpt>
      <trkpt lat="45.82101" lon="4.80459">
        <ele>334.60000610352</ele>
        <time>2019-08-17T08:34:06.000Z</time>
      </trkpt>
      <trkpt lat="45.82101" lon="4.80459">
        <ele>334.60000610352</ele>
        <time>2019-08-17T08:34:07.000Z</time>
      </trkpt>
      <trkpt lat="45.821" lon="4.80457">
        <ele>334.60000610352</ele>
        <time>2019-08-17T08:34:10.000Z</time>
      </trkpt>
      <trkpt lat="45.82097" lon="4.80457">
        <ele>334.60000610352</ele>
        <time>2019-08-17T08:34:35.000Z</time>
      </trkpt>
      <trkpt lat="45.82097" lon="4.80463">
        <ele>334.60000610352</ele>
        <time>2019-08-17T08:34:37.000Z</time>
      </trkpt>
      <trkpt lat="45.82098" lon="4.80463">
        <ele>334.60000610352</ele>
        <time>2019-08-17T08:34:40.000Z</time>
      </trkpt>
      <trkpt lat="45.82099" lon="4.80459">
        <ele>334.60000610352</ele>
        <time>2019-08-17T08:34:53.000Z</time>
      </trkpt>
      <trkpt lat="45.821" lon="4.80456">
        <ele>334.60000610352</ele>
        <time>2019-08-17T08:34:56.000Z</time>
      </trkpt>
      <trkpt lat="45.821" lon="4.80459">
        <ele>334.60000610352</ele>
        <time>2019-08-17T08:35:07.000Z</time>
      </trkpt>
      <trkpt lat="45.82099" lon="4.80459">
        <ele>334.60000610352</ele>
        <time>2019-08-17T08:35:09.000Z</time>
      </trkpt>
      <trkpt lat="45.82099" lon="4.80461">
        <ele>334.60000610352</ele>
        <time>2019-08-17T08:35:28.000Z</time>
      </trkpt>
      <trkpt lat="45.82097" lon="4.80462">
        <ele>334.60000610352</ele>
        <time>2019-08-17T08:35:29.000Z</time>
      </trkpt>
      <trkpt lat="45.82095" lon="4.8046">
        <ele>334.60000610352</ele>
        <time>2019-08-17T08:35:33.000Z</time>
      </trkpt>
      <trkpt lat="45.82093" lon="4.80456">
        <ele>334.60000610352</ele>
        <time>2019-08-17T08:36:21.000Z</time>
      </trkpt>
      <trkpt lat="45.82086" lon="4.80449">
        <ele>334.60000610352</ele>
        <time>2019-08-17T08:36:23.000Z</time>
      </trkpt>
      <trkpt lat="45.82077" lon="4.80443">
        <ele>334.20001220703</ele>
        <time>2019-08-17T08:36:25.000Z</time>
      </trkpt>
      <trkpt lat="45.82071" lon="4.80439">
        <ele>333.79998779297</ele>
        <time>2019-08-17T08:36:26.000Z</time>
      </trkpt>
      <trkpt lat="45.82064" lon="4.80434">
        <ele>333.39999389648</ele>
        <time>2019-08-17T08:36:27.000Z</time>
      </trkpt>
      <trkpt lat="45.82056" lon="4.80431">
        <ele>332.39999389648</ele>
        <time>2019-08-17T08:36:28.000Z</time>
      </trkpt>
      <trkpt lat="45.82049" lon="4.80429">
        <ele>331.79998779297</ele>
        <time>2019-08-17T08:36:29.000Z</time>
      </trkpt>
      <trkpt lat="45.82041" lon="4.80427">
        <ele>331.39999389648</ele>
        <time>2019-08-17T08:36:30.000Z</time>
      </trkpt>
      <trkpt lat="45.82033" lon="4.80426">
        <ele>330.79998779297</ele>
        <time>2019-08-17T08:36:31.000Z</time>
      </trkpt>
      <trkpt lat="45.82027" lon="4.80426">
        <ele>330</ele>
        <time>2019-08-17T08:36:32.000Z</time>
      </trkpt>
      <trkpt lat="45.82021" lon="4.80426">
        <ele>329.39999389648</ele>
        <time>2019-08-17T08:36:33.000Z</time>
      </trkpt>
      <trkpt lat="45.82016" lon="4.80424">
        <ele>328.60000610352</ele>
        <time>2019-08-17T08:36:34.000Z</time>
      </trkpt>
      <trkpt lat="45.82015" lon="4.80419">
        <ele>327.60000610352</ele>
        <time>2019-08-17T08:36:35.000Z</time>
      </trkpt>
      <trkpt lat="45.82014" lon="4.80413">
        <ele>326.79998779297</ele>
        <time>2019-08-17T08:36:36.000Z</time>
      </trkpt>
      <trkpt lat="45.82015" lon="4.80407">
        <ele>326</ele>
        <time>2019-08-17T08:36:37.000Z</time>
      </trkpt>
      <trkpt lat="45.82016" lon="4.80399">
        <ele>325.20001220703</ele>
        <time>2019-08-17T08:36:38.000Z</time>
      </trkpt>
      <trkpt lat="45.82017" lon="4.8039">
        <ele>324.39999389648</ele>
        <time>2019-08-17T08:36:39.000Z</time>
      </trkpt>
      <trkpt lat="45.82017" lon="4.80381">
        <ele>323.60000610352</ele>
        <time>2019-08-17T08:36:40.000Z</time>
      </trkpt>
      <trkpt lat="45.82018" lon="4.80371">
        <ele>323</ele>
        <time>2019-08-17T08:36:41.000Z</time>
      </trkpt>
      <trkpt lat="45.8202" lon="4.80359">
        <ele>322.39999389648</ele>
        <time>2019-08-17T08:36:42.000Z</time>
      </trkpt>
      <trkpt lat="45.82021" lon="4.80348">
        <ele>321.79998779297</ele>
        <time>2019-08-17T08:36:43.000Z</time>
      </trkpt>
      <trkpt lat="45.82023" lon="4.80333">
        <ele>321.20001220703</ele>
        <time>2019-08-17T08:36:44.000Z</time>
      </trkpt>
      <trkpt lat="45.82026" lon="4.8032">
        <ele>320.60000610352</ele>
        <time>2019-08-17T08:36:45.000Z</time>
      </trkpt>
      <trkpt lat="45.82029" lon="4.80305">
        <ele>319.79998779297</ele>
        <time>2019-08-17T08:36:46.000Z</time>
      </trkpt>
      <trkpt lat="45.82032" lon="4.80289">
        <ele>319</ele>
        <time>2019-08-17T08:36:47.000Z</time>
      </trkpt>
      <trkpt lat="45.82034" lon="4.80275">
        <ele>318.39999389648</ele>
        <time>2019-08-17T08:36:48.000Z</time>
      </trkpt>
      <trkpt lat="45.82036" lon="4.80263">
        <ele>317.39999389648</ele>
        <time>2019-08-17T08:36:49.000Z</time>
      </trkpt>
      <trkpt lat="45.82039" lon="4.80252">
        <ele>316.39999389648</ele>
        <time>2019-08-17T08:36:50.000Z</time>
      </trkpt>
      <trkpt lat="45.82041" lon="4.80243">
        <ele>315.20001220703</ele>
        <time>2019-08-17T08:36:51.000Z</time>
      </trkpt>
      <trkpt lat="45.82042" lon="4.80239">
        <ele>312.60000610352</ele>
        <time>2019-08-17T08:36:52.000Z</time>
      </trkpt>
      <trkpt lat="45.82043" lon="4.80236">
        <ele>311.39999389648</ele>
        <time>2019-08-17T08:36:53.000Z</time>
      </trkpt>
      <trkpt lat="45.82044" lon="4.80231">
        <ele>310</ele>
        <time>2019-08-17T08:36:54.000Z</time>
      </trkpt>
      <trkpt lat="45.82046" lon="4.80226">
        <ele>308.79998779297</ele>
        <time>2019-08-17T08:36:55.000Z</time>
      </trkpt>
      <trkpt lat="45.82048" lon="4.8022">
        <ele>307.60000610352</ele>
        <time>2019-08-17T08:36:56.000Z</time>
      </trkpt>
      <trkpt lat="45.82051" lon="4.80214">
        <ele>307.20001220703</ele>
        <time>2019-08-17T08:36:57.000Z</time>
      </trkpt>
      <trkpt lat="45.82053" lon="4.80207">
        <ele>306.79998779297</ele>
        <time>2019-08-17T08:36:58.000Z</time>
      </trkpt>
      <trkpt lat="45.82054" lon="4.802">
        <ele>306.39999389648</ele>
        <time>2019-08-17T08:36:59.000Z</time>
      </trkpt>
      <trkpt lat="45.82055" lon="4.80192">
        <ele>306</ele>
        <time>2019-08-17T08:37:00.000Z</time>
      </trkpt>
      <trkpt lat="45.82055" lon="4.80183">
        <ele>305.39999389648</ele>
        <time>2019-08-17T08:37:01.000Z</time>
      </trkpt>
      <trkpt lat="45.82056" lon="4.80174">
        <ele>305.39999389648</ele>
        <time>2019-08-17T08:37:02.000Z</time>
      </trkpt>
      <trkpt lat="45.82053" lon="4.80127">
        <ele>305</ele>
        <time>2019-08-17T08:37:07.000Z</time>
      </trkpt>
      <trkpt lat="45.82053" lon="4.80118">
        <ele>304.60000610352</ele>
        <time>2019-08-17T08:37:08.000Z</time>
      </trkpt>
      <trkpt lat="45.82053" lon="4.80109">
        <ele>304.20001220703</ele>
        <time>2019-08-17T08:37:09.000Z</time>
      </trkpt>
      <trkpt lat="45.82053" lon="4.80102">
        <ele>303.79998779297</ele>
        <time>2019-08-17T08:37:10.000Z</time>
      </trkpt>
      <trkpt lat="45.82052" lon="4.80095">
        <ele>303.39999389648</ele>
        <time>2019-08-17T08:37:11.000Z</time>
      </trkpt>
      <trkpt lat="45.82052" lon="4.80088">
        <ele>303.39999389648</ele>
        <time>2019-08-17T08:37:12.000Z</time>
      </trkpt>
      <trkpt lat="45.82051" lon="4.80055">
        <ele>303.39999389648</ele>
        <time>2019-08-17T08:37:17.000Z</time>
      </trkpt>
      <trkpt lat="45.82051" lon="4.80043">
        <ele>303.39999389648</ele>
        <time>2019-08-17T08:37:19.000Z</time>
      </trkpt>
      <trkpt lat="45.8205" lon="4.80033">
        <ele>303.79998779297</ele>
        <time>2019-08-17T08:37:21.000Z</time>
      </trkpt>
      <trkpt lat="45.8205" lon="4.80028">
        <ele>304.39999389648</ele>
        <time>2019-08-17T08:37:22.000Z</time>
      </trkpt>
      <trkpt lat="45.82049" lon="4.80023">
        <ele>304.79998779297</ele>
        <time>2019-08-17T08:37:23.000Z</time>
      </trkpt>
      <trkpt lat="45.82048" lon="4.80019">
        <ele>305.20001220703</ele>
        <time>2019-08-17T08:37:24.000Z</time>
      </trkpt>
      <trkpt lat="45.82047" lon="4.80014">
        <ele>305.60000610352</ele>
        <time>2019-08-17T08:37:25.000Z</time>
      </trkpt>
      <trkpt lat="45.82037" lon="4.80006">
        <ele>305.60000610352</ele>
        <time>2019-08-17T08:37:28.000Z</time>
      </trkpt>
      <trkpt lat="45.82032" lon="4.80003">
        <ele>305.60000610352</ele>
        <time>2019-08-17T08:37:29.000Z</time>
      </trkpt>
      <trkpt lat="45.82028" lon="4.80003">
        <ele>306.20001220703</ele>
        <time>2019-08-17T08:37:30.000Z</time>
      </trkpt>
      <trkpt lat="45.82023" lon="4.80003">
        <ele>306.60000610352</ele>
        <time>2019-08-17T08:37:31.000Z</time>
      </trkpt>
      <trkpt lat="45.82019" lon="4.80004">
        <ele>307</ele>
        <time>2019-08-17T08:37:32.000Z</time>
      </trkpt>
      <trkpt lat="45.82014" lon="4.80004">
        <ele>307.39999389648</ele>
        <time>2019-08-17T08:37:33.000Z</time>
      </trkpt>
      <trkpt lat="45.82009" lon="4.80006">
        <ele>307.79998779297</ele>
        <time>2019-08-17T08:37:34.000Z</time>
      </trkpt>
      <trkpt lat="45.8199" lon="4.8001">
        <ele>307.79998779297</ele>
        <time>2019-08-17T08:37:38.000Z</time>
      </trkpt>
      <trkpt lat="45.8196" lon="4.80018">
        <ele>307.79998779297</ele>
        <time>2019-08-17T08:37:44.000Z</time>
      </trkpt>
      <trkpt lat="45.81928" lon="4.80024">
        <ele>307.79998779297</ele>
        <time>2019-08-17T08:37:50.000Z</time>
      </trkpt>
      <trkpt lat="45.8189" lon="4.80027">
        <ele>307.79998779297</ele>
        <time>2019-08-17T08:37:57.000Z</time>
      </trkpt>
      <trkpt lat="45.81858" lon="4.80012">
        <ele>307.79998779297</ele>
        <time>2019-08-17T08:38:03.000Z</time>
      </trkpt>
      <trkpt lat="45.81854" lon="4.80008">
        <ele>308.20001220703</ele>
        <time>2019-08-17T08:38:04.000Z</time>
      </trkpt>
      <trkpt lat="45.81849" lon="4.80005">
        <ele>308.60000610352</ele>
        <time>2019-08-17T08:38:05.000Z</time>
      </trkpt>
      <trkpt lat="45.81844" lon="4.80002">
        <ele>309.60000610352</ele>
        <time>2019-08-17T08:38:06.000Z</time>
      </trkpt>
      <trkpt lat="45.8184" lon="4.79999">
        <ele>310</ele>
        <time>2019-08-17T08:38:07.000Z</time>
      </trkpt>
      <trkpt lat="45.81831" lon="4.79993">
        <ele>310</ele>
        <time>2019-08-17T08:38:09.000Z</time>
      </trkpt>
      <trkpt lat="45.81808" lon="4.79974">
        <ele>310.39999389648</ele>
        <time>2019-08-17T08:38:15.000Z</time>
      </trkpt>
      <trkpt lat="45.81805" lon="4.79971">
        <ele>310.79998779297</ele>
        <time>2019-08-17T08:38:16.000Z</time>
      </trkpt>
      <trkpt lat="45.81802" lon="4.79967">
        <ele>311.20001220703</ele>
        <time>2019-08-17T08:38:17.000Z</time>
      </trkpt>
      <trkpt lat="45.81799" lon="4.79963">
        <ele>311.60000610352</ele>
        <time>2019-08-17T08:38:18.000Z</time>
      </trkpt>
      <trkpt lat="45.81797" lon="4.79959">
        <ele>312</ele>
        <time>2019-08-17T08:38:19.000Z</time>
      </trkpt>
      <trkpt lat="45.81791" lon="4.79947">
        <ele>312</ele>
        <time>2019-08-17T08:38:22.000Z</time>
      </trkpt>
      <trkpt lat="45.81785" lon="4.79935">
        <ele>312.39999389648</ele>
        <time>2019-08-17T08:38:25.000Z</time>
      </trkpt>
      <trkpt lat="45.81783" lon="4.79931">
        <ele>312.79998779297</ele>
        <time>2019-08-17T08:38:26.000Z</time>
      </trkpt>
      <trkpt lat="45.81781" lon="4.79927">
        <ele>313.39999389648</ele>
        <time>2019-08-17T08:38:27.000Z</time>
      </trkpt>
      <trkpt lat="45.81779" lon="4.79923">
        <ele>313.79998779297</ele>
        <time>2019-08-17T08:38:28.000Z</time>
      </trkpt>
      <trkpt lat="45.81777" lon="4.79919">
        <ele>314.20001220703</ele>
        <time>2019-08-17T08:38:29.000Z</time>
      </trkpt>
      <trkpt lat="45.81773" lon="4.79911">
        <ele>314.20001220703</ele>
        <time>2019-08-17T08:38:31.000Z</time>
      </trkpt>
      <trkpt lat="45.81766" lon="4.79897">
        <ele>314.60000610352</ele>
        <time>2019-08-17T08:38:34.000Z</time>
      </trkpt>
      <trkpt lat="45.81764" lon="4.79893">
        <ele>315</ele>
        <time>2019-08-17T08:38:35.000Z</time>
      </trkpt>
      <trkpt lat="45.81761" lon="4.79888">
        <ele>315.39999389648</ele>
        <time>2019-08-17T08:38:36.000Z</time>
      </trkpt>
      <trkpt lat="45.81759" lon="4.79883">
        <ele>315.79998779297</ele>
        <time>2019-08-17T08:38:37.000Z</time>
      </trkpt>
      <trkpt lat="45.81756" lon="4.79877">
        <ele>316.20001220703</ele>
        <time>2019-08-17T08:38:38.000Z</time>
      </trkpt>
      <trkpt lat="45.8175" lon="4.79866">
        <ele>316.20001220703</ele>
        <time>2019-08-17T08:38:40.000Z</time>
      </trkpt>
      <trkpt lat="45.81743" lon="4.79851">
        <ele>316.60000610352</ele>
        <time>2019-08-17T08:38:43.000Z</time>
      </trkpt>
      <trkpt lat="45.81741" lon="4.79846">
        <ele>317</ele>
        <time>2019-08-17T08:38:44.000Z</time>
      </trkpt>
      <trkpt lat="45.81738" lon="4.79841">
        <ele>317.60000610352</ele>
        <time>2019-08-17T08:38:45.000Z</time>
      </trkpt>
      <trkpt lat="45.81736" lon="4.79836">
        <ele>318</ele>
        <time>2019-08-17T08:38:46.000Z</time>
      </trkpt>
      <trkpt lat="45.81734" lon="4.79831">
        <ele>318.39999389648</ele>
        <time>2019-08-17T08:38:47.000Z</time>
      </trkpt>
      <trkpt lat="45.81732" lon="4.79826">
        <ele>318.39999389648</ele>
        <time>2019-08-17T08:38:48.000Z</time>
      </trkpt>
      <trkpt lat="45.81723" lon="4.79807">
        <ele>318.79998779297</ele>
        <time>2019-08-17T08:38:52.000Z</time>
      </trkpt>
      <trkpt lat="45.8172" lon="4.79803">
        <ele>319.20001220703</ele>
        <time>2019-08-17T08:38:53.000Z</time>
      </trkpt>
      <trkpt lat="45.81717" lon="4.79798">
        <ele>319.60000610352</ele>
        <time>2019-08-17T08:38:54.000Z</time>
      </trkpt>
      <trkpt lat="45.81714" lon="4.79792">
        <ele>320.39999389648</ele>
        <time>2019-08-17T08:38:55.000Z</time>
      </trkpt>
      <trkpt lat="45.81701" lon="4.79765">
        <ele>320.79998779297</ele>
        <time>2019-08-17T08:39:00.000Z</time>
      </trkpt>
      <trkpt lat="45.81698" lon="4.79761">
        <ele>321.39999389648</ele>
        <time>2019-08-17T08:39:01.000Z</time>
      </trkpt>
      <trkpt lat="45.81695" lon="4.79757">
        <ele>321.79998779297</ele>
        <time>2019-08-17T08:39:02.000Z</time>
      </trkpt>
      <trkpt lat="45.81691" lon="4.79753">
        <ele>322.20001220703</ele>
        <time>2019-08-17T08:39:03.000Z</time>
      </trkpt>
      <trkpt lat="45.81688" lon="4.79749">
        <ele>322.60000610352</ele>
        <time>2019-08-17T08:39:04.000Z</time>
      </trkpt>
      <trkpt lat="45.81682" lon="4.79743">
        <ele>322.60000610352</ele>
        <time>2019-08-17T08:39:06.000Z</time>
      </trkpt>
      <trkpt lat="45.81675" lon="4.79737">
        <ele>323</ele>
        <time>2019-08-17T08:39:08.000Z</time>
      </trkpt>
      <trkpt lat="45.81671" lon="4.79734">
        <ele>323.60000610352</ele>
        <time>2019-08-17T08:39:09.000Z</time>
      </trkpt>
      <trkpt lat="45.81667" lon="4.79731">
        <ele>324</ele>
        <time>2019-08-17T08:39:10.000Z</time>
      </trkpt>
      <trkpt lat="45.81663" lon="4.79728">
        <ele>324.39999389648</ele>
        <time>2019-08-17T08:39:11.000Z</time>
      </trkpt>
      <trkpt lat="45.81659" lon="4.79725">
        <ele>324.79998779297</ele>
        <time>2019-08-17T08:39:12.000Z</time>
      </trkpt>
      <trkpt lat="45.81656" lon="4.79723">
        <ele>324.79998779297</ele>
        <time>2019-08-17T08:39:13.000Z</time>
      </trkpt>
      <trkpt lat="45.81649" lon="4.79718">
        <ele>324.79998779297</ele>
        <time>2019-08-17T08:39:15.000Z</time>
      </trkpt>
      <trkpt lat="45.81637" lon="4.79711">
        <ele>325.20001220703</ele>
        <time>2019-08-17T08:39:18.000Z</time>
      </trkpt>
      <trkpt lat="45.81633" lon="4.79708">
        <ele>325.60000610352</ele>
        <time>2019-08-17T08:39:19.000Z</time>
      </trkpt>
      <trkpt lat="45.8163" lon="4.79705">
        <ele>326.39999389648</ele>
        <time>2019-08-17T08:39:20.000Z</time>
      </trkpt>
      <trkpt lat="45.81626" lon="4.79702">
        <ele>326.79998779297</ele>
        <time>2019-08-17T08:39:21.000Z</time>
      </trkpt>
      <trkpt lat="45.81617" lon="4.79692">
        <ele>326.79998779297</ele>
        <time>2019-08-17T08:39:24.000Z</time>
      </trkpt>
      <trkpt lat="45.81612" lon="4.79682">
        <ele>327.20001220703</ele>
        <time>2019-08-17T08:39:26.000Z</time>
      </trkpt>
      <trkpt lat="45.8161" lon="4.79677">
        <ele>327.60000610352</ele>
        <time>2019-08-17T08:39:27.000Z</time>
      </trkpt>
      <trkpt lat="45.81609" lon="4.79672">
        <ele>328</ele>
        <time>2019-08-17T08:39:28.000Z</time>
      </trkpt>
      <trkpt lat="45.81608" lon="4.79668">
        <ele>328.60000610352</ele>
        <time>2019-08-17T08:39:29.000Z</time>
      </trkpt>
      <trkpt lat="45.81607" lon="4.79664">
        <ele>329</ele>
        <time>2019-08-17T08:39:30.000Z</time>
      </trkpt>
      <trkpt lat="45.81607" lon="4.7966">
        <ele>329</ele>
        <time>2019-08-17T08:39:31.000Z</time>
      </trkpt>
      <trkpt lat="45.81609" lon="4.7965">
        <ele>329</ele>
        <time>2019-08-17T08:39:33.000Z</time>
      </trkpt>
      <trkpt lat="45.81612" lon="4.79643">
        <ele>329.39999389648</ele>
        <time>2019-08-17T08:39:35.000Z</time>
      </trkpt>
      <trkpt lat="45.81614" lon="4.79641">
        <ele>329.79998779297</ele>
        <time>2019-08-17T08:39:36.000Z</time>
      </trkpt>
      <trkpt lat="45.81617" lon="4.79638">
        <ele>330.20001220703</ele>
        <time>2019-08-17T08:39:37.000Z</time>
      </trkpt>
      <trkpt lat="45.8162" lon="4.79635">
        <ele>330.60000610352</ele>
        <time>2019-08-17T08:39:38.000Z</time>
      </trkpt>
      <trkpt lat="45.81623" lon="4.79633">
        <ele>331</ele>
        <time>2019-08-17T08:39:39.000Z</time>
      </trkpt>
      <trkpt lat="45.81629" lon="4.79627">
        <ele>331</ele>
        <time>2019-08-17T08:39:41.000Z</time>
      </trkpt>
      <trkpt lat="45.81651" lon="4.79613">
        <ele>331</ele>
        <time>2019-08-17T08:39:47.000Z</time>
      </trkpt>
      <trkpt lat="45.81655" lon="4.7961">
        <ele>331.39999389648</ele>
        <time>2019-08-17T08:39:48.000Z</time>
      </trkpt>
      <trkpt lat="45.81659" lon="4.79608">
        <ele>331.79998779297</ele>
        <time>2019-08-17T08:39:49.000Z</time>
      </trkpt>
      <trkpt lat="45.81663" lon="4.79606">
        <ele>332.39999389648</ele>
        <time>2019-08-17T08:39:50.000Z</time>
      </trkpt>
      <trkpt lat="45.81667" lon="4.79604">
        <ele>332.79998779297</ele>
        <time>2019-08-17T08:39:51.000Z</time>
      </trkpt>
      <trkpt lat="45.81671" lon="4.79601">
        <ele>333.20001220703</ele>
        <time>2019-08-17T08:39:52.000Z</time>
      </trkpt>
      <trkpt lat="45.81674" lon="4.79598">
        <ele>333.20001220703</ele>
        <time>2019-08-17T08:39:53.000Z</time>
      </trkpt>
      <trkpt lat="45.81696" lon="4.79578">
        <ele>333.20001220703</ele>
        <time>2019-08-17T08:39:59.000Z</time>
      </trkpt>
      <trkpt lat="45.817" lon="4.79576">
        <ele>333.20001220703</ele>
        <time>2019-08-17T08:40:00.000Z</time>
      </trkpt>
      <trkpt lat="45.81709" lon="4.7957">
        <ele>333.60000610352</ele>
        <time>2019-08-17T08:40:02.000Z</time>
      </trkpt>
      <trkpt lat="45.81713" lon="4.79567">
        <ele>334</ele>
        <time>2019-08-17T08:40:03.000Z</time>
      </trkpt>
      <trkpt lat="45.81717" lon="4.79563">
        <ele>334.39999389648</ele>
        <time>2019-08-17T08:40:04.000Z</time>
      </trkpt>
      <trkpt lat="45.81721" lon="4.7956">
        <ele>335</ele>
        <time>2019-08-17T08:40:05.000Z</time>
      </trkpt>
      <trkpt lat="45.81724" lon="4.79556">
        <ele>335.39999389648</ele>
        <time>2019-08-17T08:40:06.000Z</time>
      </trkpt>
      <trkpt lat="45.8174" lon="4.79533">
        <ele>335.39999389648</ele>
        <time>2019-08-17T08:40:11.000Z</time>
      </trkpt>
      <trkpt lat="45.81742" lon="4.79528">
        <ele>335.79998779297</ele>
        <time>2019-08-17T08:40:12.000Z</time>
      </trkpt>
      <trkpt lat="45.81745" lon="4.79523">
        <ele>336.20001220703</ele>
        <time>2019-08-17T08:40:13.000Z</time>
      </trkpt>
      <trkpt lat="45.81748" lon="4.79519">
        <ele>336.60000610352</ele>
        <time>2019-08-17T08:40:14.000Z</time>
      </trkpt>
      <trkpt lat="45.8175" lon="4.79514">
        <ele>337</ele>
        <time>2019-08-17T08:40:15.000Z</time>
      </trkpt>
      <trkpt lat="45.81753" lon="4.7951">
        <ele>337.39999389648</ele>
        <time>2019-08-17T08:40:16.000Z</time>
      </trkpt>
      <trkpt lat="45.8176" lon="4.79503">
        <ele>337.39999389648</ele>
        <time>2019-08-17T08:40:18.000Z</time>
      </trkpt>
      <trkpt lat="45.81764" lon="4.795">
        <ele>337.39999389648</ele>
        <time>2019-08-17T08:40:19.000Z</time>
      </trkpt>
      <trkpt lat="45.81779" lon="4.7949">
        <ele>337.79998779297</ele>
        <time>2019-08-17T08:40:23.000Z</time>
      </trkpt>
      <trkpt lat="45.81783" lon="4.79489">
        <ele>338.20001220703</ele>
        <time>2019-08-17T08:40:24.000Z</time>
      </trkpt>
      <trkpt lat="45.81787" lon="4.79487">
        <ele>338.60000610352</ele>
        <time>2019-08-17T08:40:25.000Z</time>
      </trkpt>
      <trkpt lat="45.8179" lon="4.79485">
        <ele>339</ele>
        <time>2019-08-17T08:40:26.000Z</time>
      </trkpt>
      <trkpt lat="45.81794" lon="4.79483">
        <ele>339.60000610352</ele>
        <time>2019-08-17T08:40:27.000Z</time>
      </trkpt>
      <trkpt lat="45.81804" lon="4.79477">
        <ele>339.60000610352</ele>
        <time>2019-08-17T08:40:30.000Z</time>
      </trkpt>
      <trkpt lat="45.8181" lon="4.79472">
        <ele>340</ele>
        <time>2019-08-17T08:40:32.000Z</time>
      </trkpt>
      <trkpt lat="45.81812" lon="4.7947">
        <ele>340.39999389648</ele>
        <time>2019-08-17T08:40:33.000Z</time>
      </trkpt>
      <trkpt lat="45.81814" lon="4.79468">
        <ele>341.20001220703</ele>
        <time>2019-08-17T08:40:34.000Z</time>
      </trkpt>
      <trkpt lat="45.81816" lon="4.79466">
        <ele>341.60000610352</ele>
        <time>2019-08-17T08:40:35.000Z</time>
      </trkpt>
      <trkpt lat="45.81819" lon="4.79464">
        <ele>341.60000610352</ele>
        <time>2019-08-17T08:40:36.000Z</time>
      </trkpt>
      <trkpt lat="45.8182" lon="4.79462">
        <ele>341.60000610352</ele>
        <time>2019-08-17T08:40:37.000Z</time>
      </trkpt>
      <trkpt lat="45.81823" lon="4.7945">
        <ele>341.60000610352</ele>
        <time>2019-08-17T08:40:41.000Z</time>
      </trkpt>
      <trkpt lat="45.81831" lon="4.79426">
        <ele>341.60000610352</ele>
        <time>2019-08-17T08:40:47.000Z</time>
      </trkpt>
      <trkpt lat="45.81847" lon="4.79392">
        <ele>341.60000610352</ele>
        <time>2019-08-17T08:40:54.000Z</time>
      </trkpt>
      <trkpt lat="45.81856" lon="4.79374">
        <ele>341.60000610352</ele>
        <time>2019-08-17T08:40:57.000Z</time>
      </trkpt>
      <trkpt lat="45.81864" lon="4.79363">
        <ele>341.60000610352</ele>
        <time>2019-08-17T08:40:59.000Z</time>
      </trkpt>
      <trkpt lat="45.81893" lon="4.79335">
        <ele>341.60000610352</ele>
        <time>2019-08-17T08:41:05.000Z</time>
      </trkpt>
      <trkpt lat="45.81934" lon="4.79301">
        <ele>341.60000610352</ele>
        <time>2019-08-17T08:41:12.000Z</time>
      </trkpt>
      <trkpt lat="45.81944" lon="4.7929">
        <ele>341.60000610352</ele>
        <time>2019-08-17T08:41:14.000Z</time>
      </trkpt>
      <trkpt lat="45.81952" lon="4.79275">
        <ele>341</ele>
        <time>2019-08-17T08:41:16.000Z</time>
      </trkpt>
      <trkpt lat="45.81955" lon="4.79267">
        <ele>340.60000610352</ele>
        <time>2019-08-17T08:41:17.000Z</time>
      </trkpt>
      <trkpt lat="45.81958" lon="4.79258">
        <ele>340.20001220703</ele>
        <time>2019-08-17T08:41:18.000Z</time>
      </trkpt>
      <trkpt lat="45.81961" lon="4.7925">
        <ele>339.79998779297</ele>
        <time>2019-08-17T08:41:19.000Z</time>
      </trkpt>
      <trkpt lat="45.81964" lon="4.79242">
        <ele>339.20001220703</ele>
        <time>2019-08-17T08:41:20.000Z</time>
      </trkpt>
      <trkpt lat="45.81972" lon="4.79222">
        <ele>339.20001220703</ele>
        <time>2019-08-17T08:41:23.000Z</time>
      </trkpt>
      <trkpt lat="45.81978" lon="4.79211">
        <ele>339.20001220703</ele>
        <time>2019-08-17T08:41:25.000Z</time>
      </trkpt>
      <trkpt lat="45.81985" lon="4.79201">
        <ele>339.20001220703</ele>
        <time>2019-08-17T08:41:27.000Z</time>
      </trkpt>
      <trkpt lat="45.81989" lon="4.79195">
        <ele>339.20001220703</ele>
        <time>2019-08-17T08:41:28.000Z</time>
      </trkpt>
      <trkpt lat="45.81993" lon="4.79189">
        <ele>339.20001220703</ele>
        <time>2019-08-17T08:41:29.000Z</time>
      </trkpt>
      <trkpt lat="45.82004" lon="4.7918">
        <ele>339.20001220703</ele>
        <time>2019-08-17T08:41:31.000Z</time>
      </trkpt>
      <trkpt lat="45.82039" lon="4.79153">
        <ele>339.20001220703</ele>
        <time>2019-08-17T08:41:38.000Z</time>
      </trkpt>
      <trkpt lat="45.8206" lon="4.7914">
        <ele>339.20001220703</ele>
        <time>2019-08-17T08:41:42.000Z</time>
      </trkpt>
      <trkpt lat="45.82066" lon="4.79137">
        <ele>339.20001220703</ele>
        <time>2019-08-17T08:41:43.000Z</time>
      </trkpt>
      <trkpt lat="45.82101" lon="4.79124">
        <ele>339.20001220703</ele>
        <time>2019-08-17T08:41:49.000Z</time>
      </trkpt>
      <trkpt lat="45.82138" lon="4.7911">
        <ele>339.20001220703</ele>
        <time>2019-08-17T08:41:55.000Z</time>
      </trkpt>
      <trkpt lat="45.82159" lon="4.79104">
        <ele>339.60000610352</ele>
        <time>2019-08-17T08:41:59.000Z</time>
      </trkpt>
      <trkpt lat="45.82165" lon="4.79102">
        <ele>340</ele>
        <time>2019-08-17T08:42:00.000Z</time>
      </trkpt>
      <trkpt lat="45.8217" lon="4.791">
        <ele>340.39999389648</ele>
        <time>2019-08-17T08:42:01.000Z</time>
      </trkpt>
      <trkpt lat="45.82175" lon="4.79098">
        <ele>340.79998779297</ele>
        <time>2019-08-17T08:42:02.000Z</time>
      </trkpt>
      <trkpt lat="45.82181" lon="4.79096">
        <ele>341.20001220703</ele>
        <time>2019-08-17T08:42:03.000Z</time>
      </trkpt>
      <trkpt lat="45.82219" lon="4.79081">
        <ele>341.20001220703</ele>
        <time>2019-08-17T08:42:10.000Z</time>
      </trkpt>
      <trkpt lat="45.82246" lon="4.7906">
        <ele>341.20001220703</ele>
        <time>2019-08-17T08:42:16.000Z</time>
      </trkpt>
      <trkpt lat="45.82267" lon="4.79038">
        <ele>341.20001220703</ele>
        <time>2019-08-17T08:42:21.000Z</time>
      </trkpt>
      <trkpt lat="45.82276" lon="4.79027">
        <ele>341.20001220703</ele>
        <time>2019-08-17T08:42:23.000Z</time>
      </trkpt>
      <trkpt lat="45.82298" lon="4.78994">
        <ele>341.20001220703</ele>
        <time>2019-08-17T08:42:28.000Z</time>
      </trkpt>
      <trkpt lat="45.82305" lon="4.78978">
        <ele>341.20001220703</ele>
        <time>2019-08-17T08:42:30.000Z</time>
      </trkpt>
      <trkpt lat="45.82311" lon="4.78959">
        <ele>340.79998779297</ele>
        <time>2019-08-17T08:42:32.000Z</time>
      </trkpt>
      <trkpt lat="45.82315" lon="4.78949">
        <ele>340.39999389648</ele>
        <time>2019-08-17T08:42:33.000Z</time>
      </trkpt>
      <trkpt lat="45.82318" lon="4.78938">
        <ele>340</ele>
        <time>2019-08-17T08:42:34.000Z</time>
      </trkpt>
      <trkpt lat="45.82323" lon="4.78928">
        <ele>339.60000610352</ele>
        <time>2019-08-17T08:42:35.000Z</time>
      </trkpt>
      <trkpt lat="45.82328" lon="4.78918">
        <ele>339.20001220703</ele>
        <time>2019-08-17T08:42:36.000Z</time>
      </trkpt>
      <trkpt lat="45.8234" lon="4.78904">
        <ele>338.39999389648</ele>
        <time>2019-08-17T08:42:38.000Z</time>
      </trkpt>
      <trkpt lat="45.82347" lon="4.789">
        <ele>337.79998779297</ele>
        <time>2019-08-17T08:42:39.000Z</time>
      </trkpt>
      <trkpt lat="45.82354" lon="4.78897">
        <ele>337.39999389648</ele>
        <time>2019-08-17T08:42:40.000Z</time>
      </trkpt>
      <trkpt lat="45.82361" lon="4.78894">
        <ele>337</ele>
        <time>2019-08-17T08:42:41.000Z</time>
      </trkpt>
      <trkpt lat="45.82368" lon="4.78892">
        <ele>337</ele>
        <time>2019-08-17T08:42:42.000Z</time>
      </trkpt>
      <trkpt lat="45.82406" lon="4.78883">
        <ele>337</ele>
        <time>2019-08-17T08:42:48.000Z</time>
      </trkpt>
      <trkpt lat="45.82453" lon="4.78875">
        <ele>337</ele>
        <time>2019-08-17T08:42:55.000Z</time>
      </trkpt>
      <trkpt lat="45.82507" lon="4.78866">
        <ele>337</ele>
        <time>2019-08-17T08:43:03.000Z</time>
      </trkpt>
      <trkpt lat="45.82541" lon="4.78849">
        <ele>337</ele>
        <time>2019-08-17T08:43:09.000Z</time>
      </trkpt>
      <trkpt lat="45.82547" lon="4.78846">
        <ele>337</ele>
        <time>2019-08-17T08:43:10.000Z</time>
      </trkpt>
      <trkpt lat="45.82557" lon="4.78843">
        <ele>337.39999389648</ele>
        <time>2019-08-17T08:43:12.000Z</time>
      </trkpt>
      <trkpt lat="45.82563" lon="4.78842">
        <ele>337.79998779297</ele>
        <time>2019-08-17T08:43:13.000Z</time>
      </trkpt>
      <trkpt lat="45.82568" lon="4.78841">
        <ele>338.20001220703</ele>
        <time>2019-08-17T08:43:14.000Z</time>
      </trkpt>
      <trkpt lat="45.82573" lon="4.78841">
        <ele>338.60000610352</ele>
        <time>2019-08-17T08:43:15.000Z</time>
      </trkpt>
      <trkpt lat="45.82579" lon="4.78841">
        <ele>339</ele>
        <time>2019-08-17T08:43:16.000Z</time>
      </trkpt>
      <trkpt lat="45.82606" lon="4.78839">
        <ele>339</ele>
        <time>2019-08-17T08:43:21.000Z</time>
      </trkpt>
      <trkpt lat="45.82616" lon="4.78835">
        <ele>339.39999389648</ele>
        <time>2019-08-17T08:43:23.000Z</time>
      </trkpt>
      <trkpt lat="45.82621" lon="4.78832">
        <ele>340</ele>
        <time>2019-08-17T08:43:24.000Z</time>
      </trkpt>
      <trkpt lat="45.82626" lon="4.78828">
        <ele>340.39999389648</ele>
        <time>2019-08-17T08:43:25.000Z</time>
      </trkpt>
      <trkpt lat="45.8263" lon="4.78825">
        <ele>340.79998779297</ele>
        <time>2019-08-17T08:43:26.000Z</time>
      </trkpt>
      <trkpt lat="45.82635" lon="4.7882">
        <ele>341.20001220703</ele>
        <time>2019-08-17T08:43:27.000Z</time>
      </trkpt>
      <trkpt lat="45.82655" lon="4.78793">
        <ele>341.20001220703</ele>
        <time>2019-08-17T08:43:32.000Z</time>
      </trkpt>
      <trkpt lat="45.8267" lon="4.78768">
        <ele>341.20001220703</ele>
        <time>2019-08-17T08:43:36.000Z</time>
      </trkpt>
      <trkpt lat="45.82682" lon="4.7875">
        <ele>341.20001220703</ele>
        <time>2019-08-17T08:43:39.000Z</time>
      </trkpt>
      <trkpt lat="45.8271" lon="4.7871">
        <ele>341.20001220703</ele>
        <time>2019-08-17T08:43:46.000Z</time>
      </trkpt>
      <trkpt lat="45.82724" lon="4.78698">
        <ele>341.20001220703</ele>
        <time>2019-08-17T08:43:49.000Z</time>
      </trkpt>
      <trkpt lat="45.82734" lon="4.78693">
        <ele>341.20001220703</ele>
        <time>2019-08-17T08:43:51.000Z</time>
      </trkpt>
      <trkpt lat="45.8276" lon="4.78685">
        <ele>341.60000610352</ele>
        <time>2019-08-17T08:43:56.000Z</time>
      </trkpt>
      <trkpt lat="45.82765" lon="4.78683">
        <ele>342</ele>
        <time>2019-08-17T08:43:57.000Z</time>
      </trkpt>
      <trkpt lat="45.8277" lon="4.78682">
        <ele>342.39999389648</ele>
        <time>2019-08-17T08:43:58.000Z</time>
      </trkpt>
      <trkpt lat="45.82775" lon="4.78681">
        <ele>342.79998779297</ele>
        <time>2019-08-17T08:43:59.000Z</time>
      </trkpt>
      <trkpt lat="45.8278" lon="4.78679">
        <ele>343.20001220703</ele>
        <time>2019-08-17T08:44:00.000Z</time>
      </trkpt>
      <trkpt lat="45.82789" lon="4.78676">
        <ele>343.20001220703</ele>
        <time>2019-08-17T08:44:02.000Z</time>
      </trkpt>
      <trkpt lat="45.82799" lon="4.78672">
        <ele>343.20001220703</ele>
        <time>2019-08-17T08:44:04.000Z</time>
      </trkpt>
      <trkpt lat="45.82812" lon="4.78661">
        <ele>343.20001220703</ele>
        <time>2019-08-17T08:44:07.000Z</time>
      </trkpt>
      <trkpt lat="45.82814" lon="4.78656">
        <ele>343.60000610352</ele>
        <time>2019-08-17T08:44:08.000Z</time>
      </trkpt>
      <trkpt lat="45.82816" lon="4.78649">
        <ele>344</ele>
        <time>2019-08-17T08:44:09.000Z</time>
      </trkpt>
      <trkpt lat="45.82817" lon="4.78642">
        <ele>344.39999389648</ele>
        <time>2019-08-17T08:44:10.000Z</time>
      </trkpt>
      <trkpt lat="45.82817" lon="4.78634">
        <ele>344.79998779297</ele>
        <time>2019-08-17T08:44:11.000Z</time>
      </trkpt>
      <trkpt lat="45.82818" lon="4.78627">
        <ele>345.20001220703</ele>
        <time>2019-08-17T08:44:12.000Z</time>
      </trkpt>
      <trkpt lat="45.82816" lon="4.78613">
        <ele>345.20001220703</ele>
        <time>2019-08-17T08:44:14.000Z</time>
      </trkpt>
      <trkpt lat="45.82809" lon="4.78586">
        <ele>345.20001220703</ele>
        <time>2019-08-17T08:44:18.000Z</time>
      </trkpt>
      <trkpt lat="45.82807" lon="4.78581">
        <ele>345.20001220703</ele>
        <time>2019-08-17T08:44:19.000Z</time>
      </trkpt>
      <trkpt lat="45.82802" lon="4.78569">
        <ele>345.20001220703</ele>
        <time>2019-08-17T08:44:21.000Z</time>
      </trkpt>
      <trkpt lat="45.82795" lon="4.78551">
        <ele>345.20001220703</ele>
        <time>2019-08-17T08:44:24.000Z</time>
      </trkpt>
      <trkpt lat="45.82789" lon="4.78521">
        <ele>345.60000610352</ele>
        <time>2019-08-17T08:44:28.000Z</time>
      </trkpt>
      <trkpt lat="45.82789" lon="4.78513">
        <ele>346</ele>
        <time>2019-08-17T08:44:29.000Z</time>
      </trkpt>
      <trkpt lat="45.82789" lon="4.78505">
        <ele>346.39999389648</ele>
        <time>2019-08-17T08:44:30.000Z</time>
      </trkpt>
      <trkpt lat="45.8279" lon="4.78497">
        <ele>346.79998779297</ele>
        <time>2019-08-17T08:44:31.000Z</time>
      </trkpt>
      <trkpt lat="45.82791" lon="4.78489">
        <ele>347.20001220703</ele>
        <time>2019-08-17T08:44:32.000Z</time>
      </trkpt>
      <trkpt lat="45.82793" lon="4.78482">
        <ele>347.20001220703</ele>
        <time>2019-08-17T08:44:33.000Z</time>
      </trkpt>
      <trkpt lat="45.82803" lon="4.78465">
        <ele>347.20001220703</ele>
        <time>2019-08-17T08:44:36.000Z</time>
      </trkpt>
      <trkpt lat="45.82816" lon="4.78454">
        <ele>347.20001220703</ele>
        <time>2019-08-17T08:44:39.000Z</time>
      </trkpt>
      <trkpt lat="45.82825" lon="4.78449">
        <ele>347.79998779297</ele>
        <time>2019-08-17T08:44:41.000Z</time>
      </trkpt>
      <trkpt lat="45.8283" lon="4.78447">
        <ele>348.20001220703</ele>
        <time>2019-08-17T08:44:42.000Z</time>
      </trkpt>
      <trkpt lat="45.82835" lon="4.78445">
        <ele>348.60000610352</ele>
        <time>2019-08-17T08:44:43.000Z</time>
      </trkpt>
      <trkpt lat="45.82839" lon="4.78444">
        <ele>349</ele>
        <time>2019-08-17T08:44:44.000Z</time>
      </trkpt>
      <trkpt lat="45.82844" lon="4.78443">
        <ele>349.60000610352</ele>
        <time>2019-08-17T08:44:45.000Z</time>
      </trkpt>
      <trkpt lat="45.82859" lon="4.7844">
        <ele>349.60000610352</ele>
        <time>2019-08-17T08:44:48.000Z</time>
      </trkpt>
      <trkpt lat="45.82868" lon="4.7844">
        <ele>349.60000610352</ele>
        <time>2019-08-17T08:44:50.000Z</time>
      </trkpt>
      <trkpt lat="45.82882" lon="4.78444">
        <ele>349.60000610352</ele>
        <time>2019-08-17T08:44:53.000Z</time>
      </trkpt>
      <trkpt lat="45.82901" lon="4.78454">
        <ele>350</ele>
        <time>2019-08-17T08:44:57.000Z</time>
      </trkpt>
      <trkpt lat="45.82906" lon="4.78456">
        <ele>350.39999389648</ele>
        <time>2019-08-17T08:44:58.000Z</time>
      </trkpt>
      <trkpt lat="45.82912" lon="4.78456">
        <ele>350.79998779297</ele>
        <time>2019-08-17T08:44:59.000Z</time>
      </trkpt>
      <trkpt lat="45.82917" lon="4.78456">
        <ele>351.20001220703</ele>
        <time>2019-08-17T08:45:00.000Z</time>
      </trkpt>
      <trkpt lat="45.82922" lon="4.78454">
        <ele>351.60000610352</ele>
        <time>2019-08-17T08:45:01.000Z</time>
      </trkpt>
      <trkpt lat="45.82927" lon="4.78451">
        <ele>351.60000610352</ele>
        <time>2019-08-17T08:45:02.000Z</time>
      </trkpt>
      <trkpt lat="45.82932" lon="4.78448">
        <ele>351.60000610352</ele>
        <time>2019-08-17T08:45:03.000Z</time>
      </trkpt>
      <trkpt lat="45.82946" lon="4.78437">
        <ele>352</ele>
        <time>2019-08-17T08:45:06.000Z</time>
      </trkpt>
      <trkpt lat="45.8295" lon="4.78434">
        <ele>352.39999389648</ele>
        <time>2019-08-17T08:45:07.000Z</time>
      </trkpt>
      <trkpt lat="45.82954" lon="4.78431">
        <ele>352.79998779297</ele>
        <time>2019-08-17T08:45:08.000Z</time>
      </trkpt>
      <trkpt lat="45.82959" lon="4.78428">
        <ele>353.20001220703</ele>
        <time>2019-08-17T08:45:09.000Z</time>
      </trkpt>
      <trkpt lat="45.82963" lon="4.78425">
        <ele>353.60000610352</ele>
        <time>2019-08-17T08:45:10.000Z</time>
      </trkpt>
      <trkpt lat="45.82986" lon="4.78413">
        <ele>353.60000610352</ele>
        <time>2019-08-17T08:45:15.000Z</time>
      </trkpt>
      <trkpt lat="45.8299" lon="4.78411">
        <ele>354</ele>
        <time>2019-08-17T08:45:16.000Z</time>
      </trkpt>
      <trkpt lat="45.82994" lon="4.78409">
        <ele>354.39999389648</ele>
        <time>2019-08-17T08:45:17.000Z</time>
      </trkpt>
      <trkpt lat="45.82998" lon="4.78407">
        <ele>354.79998779297</ele>
        <time>2019-08-17T08:45:18.000Z</time>
      </trkpt>
      <trkpt lat="45.83003" lon="4.78404">
        <ele>355.20001220703</ele>
        <time>2019-08-17T08:45:19.000Z</time>
      </trkpt>
      <trkpt lat="45.83007" lon="4.78401">
        <ele>355.60000610352</ele>
        <time>2019-08-17T08:45:20.000Z</time>
      </trkpt>
      <trkpt lat="45.83015" lon="4.78394">
        <ele>355.60000610352</ele>
        <time>2019-08-17T08:45:22.000Z</time>
      </trkpt>
      <trkpt lat="45.83022" lon="4.78385">
        <ele>355.60000610352</ele>
        <time>2019-08-17T08:45:24.000Z</time>
      </trkpt>
      <trkpt lat="45.8303" lon="4.78368">
        <ele>356</ele>
        <time>2019-08-17T08:45:27.000Z</time>
      </trkpt>
      <trkpt lat="45.83032" lon="4.78361">
        <ele>356.60000610352</ele>
        <time>2019-08-17T08:45:28.000Z</time>
      </trkpt>
      <trkpt lat="45.83034" lon="4.78355">
        <ele>357</ele>
        <time>2019-08-17T08:45:29.000Z</time>
      </trkpt>
      <trkpt lat="45.83035" lon="4.78349">
        <ele>357.39999389648</ele>
        <time>2019-08-17T08:45:30.000Z</time>
      </trkpt>
      <trkpt lat="45.83036" lon="4.78344">
        <ele>357.79998779297</ele>
        <time>2019-08-17T08:45:31.000Z</time>
      </trkpt>
      <trkpt lat="45.83036" lon="4.78338">
        <ele>357.79998779297</ele>
        <time>2019-08-17T08:45:32.000Z</time>
      </trkpt>
      <trkpt lat="45.83035" lon="4.78325">
        <ele>357.79998779297</ele>
        <time>2019-08-17T08:45:34.000Z</time>
      </trkpt>
      <trkpt lat="45.8303" lon="4.78305">
        <ele>357.79998779297</ele>
        <time>2019-08-17T08:45:37.000Z</time>
      </trkpt>
      <trkpt lat="45.83028" lon="4.78299">
        <ele>358.20001220703</ele>
        <time>2019-08-17T08:45:38.000Z</time>
      </trkpt>
      <trkpt lat="45.83026" lon="4.78293">
        <ele>358.60000610352</ele>
        <time>2019-08-17T08:45:39.000Z</time>
      </trkpt>
      <trkpt lat="45.83023" lon="4.78286">
        <ele>359</ele>
        <time>2019-08-17T08:45:40.000Z</time>
      </trkpt>
      <trkpt lat="45.8302" lon="4.7828">
        <ele>359.39999389648</ele>
        <time>2019-08-17T08:45:41.000Z</time>
      </trkpt>
      <trkpt lat="45.83017" lon="4.78274">
        <ele>359.79998779297</ele>
        <time>2019-08-17T08:45:42.000Z</time>
      </trkpt>
      <trkpt lat="45.83014" lon="4.78268">
        <ele>359.79998779297</ele>
        <time>2019-08-17T08:45:43.000Z</time>
      </trkpt>
      <trkpt lat="45.83002" lon="4.7824">
        <ele>359.79998779297</ele>
        <time>2019-08-17T08:45:47.000Z</time>
      </trkpt>
      <trkpt lat="45.83" lon="4.78232">
        <ele>360.20001220703</ele>
        <time>2019-08-17T08:45:48.000Z</time>
      </trkpt>
      <trkpt lat="45.82999" lon="4.78223">
        <ele>360.60000610352</ele>
        <time>2019-08-17T08:45:49.000Z</time>
      </trkpt>
      <trkpt lat="45.82999" lon="4.78214">
        <ele>361</ele>
        <time>2019-08-17T08:45:50.000Z</time>
      </trkpt>
      <trkpt lat="45.83" lon="4.78206">
        <ele>361.39999389648</ele>
        <time>2019-08-17T08:45:51.000Z</time>
      </trkpt>
      <trkpt lat="45.83001" lon="4.78198">
        <ele>362</ele>
        <time>2019-08-17T08:45:52.000Z</time>
      </trkpt>
      <trkpt lat="45.83003" lon="4.78191">
        <ele>362</ele>
        <time>2019-08-17T08:45:53.000Z</time>
      </trkpt>
      <trkpt lat="45.83014" lon="4.78149">
        <ele>362</ele>
        <time>2019-08-17T08:45:59.000Z</time>
      </trkpt>
      <trkpt lat="45.8302" lon="4.78133">
        <ele>362</ele>
        <time>2019-08-17T08:46:01.000Z</time>
      </trkpt>
      <trkpt lat="45.83029" lon="4.78119">
        <ele>362</ele>
        <time>2019-08-17T08:46:03.000Z</time>
      </trkpt>
      <trkpt lat="45.83049" lon="4.78106">
        <ele>361.39999389648</ele>
        <time>2019-08-17T08:46:06.000Z</time>
      </trkpt>
      <trkpt lat="45.83056" lon="4.78105">
        <ele>361</ele>
        <time>2019-08-17T08:46:07.000Z</time>
      </trkpt>
      <trkpt lat="45.83063" lon="4.78106">
        <ele>360.60000610352</ele>
        <time>2019-08-17T08:46:08.000Z</time>
      </trkpt>
      <trkpt lat="45.83071" lon="4.78109">
        <ele>360.20001220703</ele>
        <time>2019-08-17T08:46:09.000Z</time>
      </trkpt>
      <trkpt lat="45.83078" lon="4.78114">
        <ele>359.79998779297</ele>
        <time>2019-08-17T08:46:10.000Z</time>
      </trkpt>
      <trkpt lat="45.83087" lon="4.7812">
        <ele>359.79998779297</ele>
        <time>2019-08-17T08:46:11.000Z</time>
      </trkpt>
      <trkpt lat="45.83102" lon="4.78127">
        <ele>359.79998779297</ele>
        <time>2019-08-17T08:46:13.000Z</time>
      </trkpt>
      <trkpt lat="45.8311" lon="4.78127">
        <ele>359.79998779297</ele>
        <time>2019-08-17T08:46:14.000Z</time>
      </trkpt>
      <trkpt lat="45.83124" lon="4.78119">
        <ele>359.79998779297</ele>
        <time>2019-08-17T08:46:16.000Z</time>
      </trkpt>
      <trkpt lat="45.83135" lon="4.78096">
        <ele>359.79998779297</ele>
        <time>2019-08-17T08:46:19.000Z</time>
      </trkpt>
      <trkpt lat="45.83138" lon="4.7807">
        <ele>359.79998779297</ele>
        <time>2019-08-17T08:46:22.000Z</time>
      </trkpt>
      <trkpt lat="45.83138" lon="4.78062">
        <ele>359.39999389648</ele>
        <time>2019-08-17T08:46:23.000Z</time>
      </trkpt>
      <trkpt lat="45.83138" lon="4.78053">
        <ele>359</ele>
        <time>2019-08-17T08:46:24.000Z</time>
      </trkpt>
      <trkpt lat="45.83138" lon="4.78045">
        <ele>358.39999389648</ele>
        <time>2019-08-17T08:46:25.000Z</time>
      </trkpt>
      <trkpt lat="45.83138" lon="4.78037">
        <ele>358</ele>
        <time>2019-08-17T08:46:26.000Z</time>
      </trkpt>
      <trkpt lat="45.83139" lon="4.78029">
        <ele>357.60000610352</ele>
        <time>2019-08-17T08:46:27.000Z</time>
      </trkpt>
      <trkpt lat="45.8314" lon="4.78014">
        <ele>357.60000610352</ele>
        <time>2019-08-17T08:46:29.000Z</time>
      </trkpt>
      <trkpt lat="45.83142" lon="4.78008">
        <ele>357.60000610352</ele>
        <time>2019-08-17T08:46:30.000Z</time>
      </trkpt>
      <trkpt lat="45.83149" lon="4.77991">
        <ele>357.60000610352</ele>
        <time>2019-08-17T08:46:33.000Z</time>
      </trkpt>
      <trkpt lat="45.83157" lon="4.77977">
        <ele>357.60000610352</ele>
        <time>2019-08-17T08:46:37.000Z</time>
      </trkpt>
      <trkpt lat="45.83158" lon="4.77972">
        <ele>357.60000610352</ele>
        <time>2019-08-17T08:46:39.000Z</time>
      </trkpt>
      <trkpt lat="45.83155" lon="4.77971">
        <ele>357.60000610352</ele>
        <time>2019-08-17T08:46:41.000Z</time>
      </trkpt>
      <trkpt lat="45.83152" lon="4.77974">
        <ele>357.60000610352</ele>
        <time>2019-08-17T08:46:43.000Z</time>
      </trkpt>
      <trkpt lat="45.83148" lon="4.77981">
        <ele>357.60000610352</ele>
        <time>2019-08-17T08:46:46.000Z</time>
      </trkpt>
      <trkpt lat="45.83147" lon="4.77986">
        <ele>357.60000610352</ele>
        <time>2019-08-17T08:46:48.000Z</time>
      </trkpt>
      <trkpt lat="45.83149" lon="4.77989">
        <ele>357.60000610352</ele>
        <time>2019-08-17T08:46:50.000Z</time>
      </trkpt>
      <trkpt lat="45.83157" lon="4.77983">
        <ele>357.60000610352</ele>
        <time>2019-08-17T08:46:53.000Z</time>
      </trkpt>
      <trkpt lat="45.83161" lon="4.77979">
        <ele>357.60000610352</ele>
        <time>2019-08-17T08:46:54.000Z</time>
      </trkpt>
      <trkpt lat="45.83165" lon="4.77976">
        <ele>357.60000610352</ele>
        <time>2019-08-17T08:46:55.000Z</time>
      </trkpt>
      <trkpt lat="45.83182" lon="4.77965">
        <ele>357.60000610352</ele>
        <time>2019-08-17T08:46:59.000Z</time>
      </trkpt>
      <trkpt lat="45.83202" lon="4.77953">
        <ele>357.60000610352</ele>
        <time>2019-08-17T08:47:04.000Z</time>
      </trkpt>
      <trkpt lat="45.83207" lon="4.7795">
        <ele>357.60000610352</ele>
        <time>2019-08-17T08:47:05.000Z</time>
      </trkpt>
      <trkpt lat="45.83218" lon="4.77932">
        <ele>357.60000610352</ele>
        <time>2019-08-17T08:47:08.000Z</time>
      </trkpt>
      <trkpt lat="45.83219" lon="4.77909">
        <ele>357.60000610352</ele>
        <time>2019-08-17T08:47:11.000Z</time>
      </trkpt>
      <trkpt lat="45.83209" lon="4.77882">
        <ele>357.60000610352</ele>
        <time>2019-08-17T08:47:15.000Z</time>
      </trkpt>
      <trkpt lat="45.8318" lon="4.77837">
        <ele>357.60000610352</ele>
        <time>2019-08-17T08:47:21.000Z</time>
      </trkpt>
      <trkpt lat="45.83149" lon="4.77801">
        <ele>357.60000610352</ele>
        <time>2019-08-17T08:47:27.000Z</time>
      </trkpt>
      <trkpt lat="45.83132" lon="4.77789">
        <ele>357.60000610352</ele>
        <time>2019-08-17T08:47:30.000Z</time>
      </trkpt>
      <trkpt lat="45.83121" lon="4.77782">
        <ele>357.60000610352</ele>
        <time>2019-08-17T08:47:32.000Z</time>
      </trkpt>
      <trkpt lat="45.83105" lon="4.77771">
        <ele>357.60000610352</ele>
        <time>2019-08-17T08:47:35.000Z</time>
      </trkpt>
      <trkpt lat="45.83097" lon="4.77758">
        <ele>357.60000610352</ele>
        <time>2019-08-17T08:47:37.000Z</time>
      </trkpt>
      <trkpt lat="45.83095" lon="4.7774">
        <ele>357.20001220703</ele>
        <time>2019-08-17T08:47:39.000Z</time>
      </trkpt>
      <trkpt lat="45.83097" lon="4.77729">
        <ele>356.60000610352</ele>
        <time>2019-08-17T08:47:40.000Z</time>
      </trkpt>
      <trkpt lat="45.83101" lon="4.77719">
        <ele>356.20001220703</ele>
        <time>2019-08-17T08:47:41.000Z</time>
      </trkpt>
      <trkpt lat="45.83106" lon="4.7771">
        <ele>355.60000610352</ele>
        <time>2019-08-17T08:47:42.000Z</time>
      </trkpt>
      <trkpt lat="45.83113" lon="4.77704">
        <ele>355.20001220703</ele>
        <time>2019-08-17T08:47:43.000Z</time>
      </trkpt>
      <trkpt lat="45.8312" lon="4.77698">
        <ele>355.20001220703</ele>
        <time>2019-08-17T08:47:44.000Z</time>
      </trkpt>
      <trkpt lat="45.83134" lon="4.77684">
        <ele>354.79998779297</ele>
        <time>2019-08-17T08:47:46.000Z</time>
      </trkpt>
      <trkpt lat="45.8314" lon="4.77675">
        <ele>354.39999389648</ele>
        <time>2019-08-17T08:47:47.000Z</time>
      </trkpt>
      <trkpt lat="45.83145" lon="4.77666">
        <ele>354</ele>
        <time>2019-08-17T08:47:48.000Z</time>
      </trkpt>
      <trkpt lat="45.83149" lon="4.77655">
        <ele>353.39999389648</ele>
        <time>2019-08-17T08:47:49.000Z</time>
      </trkpt>
      <trkpt lat="45.83152" lon="4.77644">
        <ele>353</ele>
        <time>2019-08-17T08:47:50.000Z</time>
      </trkpt>
      <trkpt lat="45.83154" lon="4.77633">
        <ele>353</ele>
        <time>2019-08-17T08:47:51.000Z</time>
      </trkpt>
      <trkpt lat="45.83157" lon="4.77621">
        <ele>352.60000610352</ele>
        <time>2019-08-17T08:47:52.000Z</time>
      </trkpt>
      <trkpt lat="45.83159" lon="4.77609">
        <ele>352.20001220703</ele>
        <time>2019-08-17T08:47:53.000Z</time>
      </trkpt>
      <trkpt lat="45.83163" lon="4.77597">
        <ele>351.79998779297</ele>
        <time>2019-08-17T08:47:54.000Z</time>
      </trkpt>
      <trkpt lat="45.83168" lon="4.77586">
        <ele>351.39999389648</ele>
        <time>2019-08-17T08:47:55.000Z</time>
      </trkpt>
      <trkpt lat="45.83175" lon="4.77578">
        <ele>351</ele>
        <time>2019-08-17T08:47:56.000Z</time>
      </trkpt>
      <trkpt lat="45.83183" lon="4.77572">
        <ele>350.39999389648</ele>
        <time>2019-08-17T08:47:57.000Z</time>
      </trkpt>
      <trkpt lat="45.83192" lon="4.77568">
        <ele>349.79998779297</ele>
        <time>2019-08-17T08:47:58.000Z</time>
      </trkpt>
      <trkpt lat="45.83202" lon="4.77565">
        <ele>348.79998779297</ele>
        <time>2019-08-17T08:47:59.000Z</time>
      </trkpt>
      <trkpt lat="45.83211" lon="4.7756">
        <ele>348.20001220703</ele>
        <time>2019-08-17T08:48:00.000Z</time>
      </trkpt>
      <trkpt lat="45.83218" lon="4.77552">
        <ele>347.79998779297</ele>
        <time>2019-08-17T08:48:01.000Z</time>
      </trkpt>
      <trkpt lat="45.83225" lon="4.77541">
        <ele>347.20001220703</ele>
        <time>2019-08-17T08:48:02.000Z</time>
      </trkpt>
      <trkpt lat="45.8323" lon="4.77529">
        <ele>346.79998779297</ele>
        <time>2019-08-17T08:48:03.000Z</time>
      </trkpt>
      <trkpt lat="45.83236" lon="4.77516">
        <ele>346.20001220703</ele>
        <time>2019-08-17T08:48:04.000Z</time>
      </trkpt>
      <trkpt lat="45.83241" lon="4.77504">
        <ele>345.79998779297</ele>
        <time>2019-08-17T08:48:05.000Z</time>
      </trkpt>
      <trkpt lat="45.83246" lon="4.77489">
        <ele>345.20001220703</ele>
        <time>2019-08-17T08:48:06.000Z</time>
      </trkpt>
      <trkpt lat="45.83251" lon="4.77476">
        <ele>344.79998779297</ele>
        <time>2019-08-17T08:48:07.000Z</time>
      </trkpt>
      <trkpt lat="45.83255" lon="4.77463">
        <ele>344.20001220703</ele>
        <time>2019-08-17T08:48:08.000Z</time>
      </trkpt>
      <trkpt lat="45.8326" lon="4.7745">
        <ele>343.79998779297</ele>
        <time>2019-08-17T08:48:09.000Z</time>
      </trkpt>
      <trkpt lat="45.83265" lon="4.77436">
        <ele>343.20001220703</ele>
        <time>2019-08-17T08:48:10.000Z</time>
      </trkpt>
      <trkpt lat="45.83271" lon="4.77423">
        <ele>342.60000610352</ele>
        <time>2019-08-17T08:48:11.000Z</time>
      </trkpt>
      <trkpt lat="45.83278" lon="4.77411">
        <ele>342.20001220703</ele>
        <time>2019-08-17T08:48:12.000Z</time>
      </trkpt>
      <trkpt lat="45.83286" lon="4.774">
        <ele>341.39999389648</ele>
        <time>2019-08-17T08:48:13.000Z</time>
      </trkpt>
      <trkpt lat="45.83295" lon="4.77389">
        <ele>340.79998779297</ele>
        <time>2019-08-17T08:48:14.000Z</time>
      </trkpt>
      <trkpt lat="45.83303" lon="4.77377">
        <ele>340.20001220703</ele>
        <time>2019-08-17T08:48:15.000Z</time>
      </trkpt>
      <trkpt lat="45.83309" lon="4.77363">
        <ele>339.39999389648</ele>
        <time>2019-08-17T08:48:16.000Z</time>
      </trkpt>
      <trkpt lat="45.83313" lon="4.77348">
        <ele>338.79998779297</ele>
        <time>2019-08-17T08:48:17.000Z</time>
      </trkpt>
      <trkpt lat="45.83316" lon="4.77332">
        <ele>338.20001220703</ele>
        <time>2019-08-17T08:48:18.000Z</time>
      </trkpt>
      <trkpt lat="45.83319" lon="4.77316">
        <ele>337.39999389648</ele>
        <time>2019-08-17T08:48:19.000Z</time>
      </trkpt>
      <trkpt lat="45.83322" lon="4.773">
        <ele>336.79998779297</ele>
        <time>2019-08-17T08:48:20.000Z</time>
      </trkpt>
      <trkpt lat="45.83328" lon="4.77286">
        <ele>336.20001220703</ele>
        <time>2019-08-17T08:48:21.000Z</time>
      </trkpt>
      <trkpt lat="45.83335" lon="4.77277">
        <ele>335.60000610352</ele>
        <time>2019-08-17T08:48:22.000Z</time>
      </trkpt>
      <trkpt lat="45.83343" lon="4.77272">
        <ele>335</ele>
        <time>2019-08-17T08:48:23.000Z</time>
      </trkpt>
      <trkpt lat="45.83351" lon="4.7727">
        <ele>334</ele>
        <time>2019-08-17T08:48:24.000Z</time>
      </trkpt>
      <trkpt lat="45.83358" lon="4.77269">
        <ele>333.39999389648</ele>
        <time>2019-08-17T08:48:25.000Z</time>
      </trkpt>
      <trkpt lat="45.83365" lon="4.77269">
        <ele>333.39999389648</ele>
        <time>2019-08-17T08:48:26.000Z</time>
      </trkpt>
      <trkpt lat="45.83371" lon="4.77269">
        <ele>333.39999389648</ele>
        <time>2019-08-17T08:48:27.000Z</time>
      </trkpt>
      <trkpt lat="45.83394" lon="4.77277">
        <ele>334</ele>
        <time>2019-08-17T08:48:30.000Z</time>
      </trkpt>
      <trkpt lat="45.83402" lon="4.77279">
        <ele>334.39999389648</ele>
        <time>2019-08-17T08:48:31.000Z</time>
      </trkpt>
      <trkpt lat="45.8341" lon="4.77282">
        <ele>334.79998779297</ele>
        <time>2019-08-17T08:48:32.000Z</time>
      </trkpt>
      <trkpt lat="45.83418" lon="4.77285">
        <ele>335.39999389648</ele>
        <time>2019-08-17T08:48:33.000Z</time>
      </trkpt>
      <trkpt lat="45.83426" lon="4.77287">
        <ele>336</ele>
        <time>2019-08-17T08:48:34.000Z</time>
      </trkpt>
      <trkpt lat="45.83434" lon="4.77287">
        <ele>336.39999389648</ele>
        <time>2019-08-17T08:48:35.000Z</time>
      </trkpt>
      <trkpt lat="45.83441" lon="4.77286">
        <ele>337</ele>
        <time>2019-08-17T08:48:36.000Z</time>
      </trkpt>
      <trkpt lat="45.83447" lon="4.77284">
        <ele>337.39999389648</ele>
        <time>2019-08-17T08:48:37.000Z</time>
      </trkpt>
      <trkpt lat="45.83452" lon="4.7728">
        <ele>338</ele>
        <time>2019-08-17T08:48:38.000Z</time>
      </trkpt>
      <trkpt lat="45.83458" lon="4.77272">
        <ele>338.39999389648</ele>
        <time>2019-08-17T08:48:40.000Z</time>
      </trkpt>
      <trkpt lat="45.83461" lon="4.7727">
        <ele>338.79998779297</ele>
        <time>2019-08-17T08:48:41.000Z</time>
      </trkpt>
      <trkpt lat="45.83463" lon="4.77268">
        <ele>339.20001220703</ele>
        <time>2019-08-17T08:48:42.000Z</time>
      </trkpt>
      <trkpt lat="45.83465" lon="4.77266">
        <ele>339.60000610352</ele>
        <time>2019-08-17T08:48:43.000Z</time>
      </trkpt>
      <trkpt lat="45.83466" lon="4.77264">
        <ele>340</ele>
        <time>2019-08-17T08:48:44.000Z</time>
      </trkpt>
      <trkpt lat="45.83468" lon="4.77257">
        <ele>340</ele>
        <time>2019-08-17T08:48:47.000Z</time>
      </trkpt>
      <trkpt lat="45.83471" lon="4.77239">
        <ele>340</ele>
        <time>2019-08-17T08:48:53.000Z</time>
      </trkpt>
      <trkpt lat="45.83473" lon="4.77224">
        <ele>340.39999389648</ele>
        <time>2019-08-17T08:48:58.000Z</time>
      </trkpt>
      <trkpt lat="45.83473" lon="4.7722">
        <ele>340.79998779297</ele>
        <time>2019-08-17T08:48:59.000Z</time>
      </trkpt>
      <trkpt lat="45.83472" lon="4.77217">
        <ele>341.39999389648</ele>
        <time>2019-08-17T08:49:00.000Z</time>
      </trkpt>
      <trkpt lat="45.83472" lon="4.77213">
        <ele>341.79998779297</ele>
        <time>2019-08-17T08:49:01.000Z</time>
      </trkpt>
      <trkpt lat="45.83472" lon="4.77209">
        <ele>342.20001220703</ele>
        <time>2019-08-17T08:49:02.000Z</time>
      </trkpt>
      <trkpt lat="45.83474" lon="4.77195">
        <ele>342.20001220703</ele>
        <time>2019-08-17T08:49:06.000Z</time>
      </trkpt>
      <trkpt lat="45.83475" lon="4.77176">
        <ele>342.60000610352</ele>
        <time>2019-08-17T08:49:12.000Z</time>
      </trkpt>
      <trkpt lat="45.83475" lon="4.77172">
        <ele>343.39999389648</ele>
        <time>2019-08-17T08:49:13.000Z</time>
      </trkpt>
      <trkpt lat="45.83476" lon="4.77169">
        <ele>343.79998779297</ele>
        <time>2019-08-17T08:49:14.000Z</time>
      </trkpt>
      <trkpt lat="45.83476" lon="4.77167">
        <ele>344.39999389648</ele>
        <time>2019-08-17T08:49:15.000Z</time>
      </trkpt>
      <trkpt lat="45.83476" lon="4.77163">
        <ele>344.39999389648</ele>
        <time>2019-08-17T08:49:18.000Z</time>
      </trkpt>
      <trkpt lat="45.83476" lon="4.77163">
        <ele>344.39999389648</ele>
        <time>2019-08-17T08:50:06.000Z</time>
      </trkpt>
      <trkpt lat="45.83477" lon="4.77156">
        <ele>344.39999389648</ele>
        <time>2019-08-17T08:50:09.000Z</time>
      </trkpt>
      <trkpt lat="45.83485" lon="4.77149">
        <ele>344.39999389648</ele>
        <time>2019-08-17T08:50:12.000Z</time>
      </trkpt>
      <trkpt lat="45.83489" lon="4.77148">
        <ele>344.39999389648</ele>
        <time>2019-08-17T08:50:13.000Z</time>
      </trkpt>
      <trkpt lat="45.83497" lon="4.77147">
        <ele>344.79998779297</ele>
        <time>2019-08-17T08:50:15.000Z</time>
      </trkpt>
      <trkpt lat="45.83501" lon="4.77146">
        <ele>345.20001220703</ele>
        <time>2019-08-17T08:50:16.000Z</time>
      </trkpt>
      <trkpt lat="45.83505" lon="4.77145">
        <ele>345.60000610352</ele>
        <time>2019-08-17T08:50:17.000Z</time>
      </trkpt>
      <trkpt lat="45.83509" lon="4.77144">
        <ele>346</ele>
        <time>2019-08-17T08:50:18.000Z</time>
      </trkpt>
      <trkpt lat="45.83513" lon="4.77144">
        <ele>346.39999389648</ele>
        <time>2019-08-17T08:50:19.000Z</time>
      </trkpt>
      <trkpt lat="45.83532" lon="4.77143">
        <ele>346.39999389648</ele>
        <time>2019-08-17T08:50:24.000Z</time>
      </trkpt>
      <trkpt lat="45.8355" lon="4.77143">
        <ele>346.79998779297</ele>
        <time>2019-08-17T08:50:28.000Z</time>
      </trkpt>
      <trkpt lat="45.83554" lon="4.77144">
        <ele>347.39999389648</ele>
        <time>2019-08-17T08:50:29.000Z</time>
      </trkpt>
      <trkpt lat="45.83558" lon="4.77144">
        <ele>347.79998779297</ele>
        <time>2019-08-17T08:50:30.000Z</time>
      </trkpt>
      <trkpt lat="45.83563" lon="4.77144">
        <ele>348.20001220703</ele>
        <time>2019-08-17T08:50:31.000Z</time>
      </trkpt>
      <trkpt lat="45.83566" lon="4.77143">
        <ele>348.60000610352</ele>
        <time>2019-08-17T08:50:32.000Z</time>
      </trkpt>
      <trkpt lat="45.83578" lon="4.7715">
        <ele>348.60000610352</ele>
        <time>2019-08-17T08:50:36.000Z</time>
      </trkpt>
      <trkpt lat="45.83579" lon="4.77161">
        <ele>348.60000610352</ele>
        <time>2019-08-17T08:50:39.000Z</time>
      </trkpt>
      <trkpt lat="45.83579" lon="4.77165">
        <ele>349</ele>
        <time>2019-08-17T08:50:40.000Z</time>
      </trkpt>
      <trkpt lat="45.83579" lon="4.7717">
        <ele>349.39999389648</ele>
        <time>2019-08-17T08:50:41.000Z</time>
      </trkpt>
      <trkpt lat="45.83579" lon="4.77176">
        <ele>349.79998779297</ele>
        <time>2019-08-17T08:50:42.000Z</time>
      </trkpt>
      <trkpt lat="45.83579" lon="4.77181">
        <ele>350.20001220703</ele>
        <time>2019-08-17T08:50:43.000Z</time>
      </trkpt>
      <trkpt lat="45.83579" lon="4.77185">
        <ele>350.60000610352</ele>
        <time>2019-08-17T08:50:44.000Z</time>
      </trkpt>
      <trkpt lat="45.83576" lon="4.77198">
        <ele>350.60000610352</ele>
        <time>2019-08-17T08:50:47.000Z</time>
      </trkpt>
      <trkpt lat="45.83574" lon="4.77222">
        <ele>350.60000610352</ele>
        <time>2019-08-17T08:50:52.000Z</time>
      </trkpt>
      <trkpt lat="45.83575" lon="4.77251">
        <ele>350.60000610352</ele>
        <time>2019-08-17T08:50:59.000Z</time>
      </trkpt>
      <trkpt lat="45.83578" lon="4.7726">
        <ele>350.60000610352</ele>
        <time>2019-08-17T08:51:04.000Z</time>
      </trkpt>
      <trkpt lat="45.8358" lon="4.7726">
        <ele>350.60000610352</ele>
        <time>2019-08-17T08:51:05.000Z</time>
      </trkpt>
      <trkpt lat="45.8358" lon="4.77261">
        <ele>350.60000610352</ele>
        <time>2019-08-17T08:51:07.000Z</time>
      </trkpt>
      <trkpt lat="45.8358" lon="4.77261">
        <ele>350.60000610352</ele>
        <time>2019-08-17T08:51:10.000Z</time>
      </trkpt>
      <trkpt lat="45.8358" lon="4.77261">
        <ele>350.60000610352</ele>
        <time>2019-08-17T08:51:11.000Z</time>
      </trkpt>
      <trkpt lat="45.8358" lon="4.77261">
        <ele>350.60000610352</ele>
        <time>2019-08-17T08:51:12.000Z</time>
      </trkpt>
      <trkpt lat="45.83574" lon="4.77255">
        <ele>350.60000610352</ele>
        <time>2019-08-17T08:55:16.000Z</time>
      </trkpt>
      <trkpt lat="45.83573" lon="4.77254">
        <ele>350.60000610352</ele>
        <time>2019-08-17T08:55:17.000Z</time>
      </trkpt>
      <trkpt lat="45.83573" lon="4.77235">
        <ele>350.60000610352</ele>
        <time>2019-08-17T08:55:22.000Z</time>
      </trkpt>
      <trkpt lat="45.83574" lon="4.77209">
        <ele>350.60000610352</ele>
        <time>2019-08-17T08:55:30.000Z</time>
      </trkpt>
      <trkpt lat="45.83575" lon="4.77202">
        <ele>350.60000610352</ele>
        <time>2019-08-17T08:55:32.000Z</time>
      </trkpt>
      <trkpt lat="45.83578" lon="4.77198">
        <ele>350.60000610352</ele>
        <time>2019-08-17T08:55:34.000Z</time>
      </trkpt>
      <trkpt lat="45.83581" lon="4.7718">
        <ele>350.60000610352</ele>
        <time>2019-08-17T08:55:39.000Z</time>
      </trkpt>
      <trkpt lat="45.83581" lon="4.77162">
        <ele>350.60000610352</ele>
        <time>2019-08-17T08:55:44.000Z</time>
      </trkpt>
      <trkpt lat="45.83581" lon="4.77154">
        <ele>350.60000610352</ele>
        <time>2019-08-17T08:55:50.000Z</time>
      </trkpt>
      <trkpt lat="45.83585" lon="4.77149">
        <ele>350.60000610352</ele>
        <time>2019-08-17T08:55:53.000Z</time>
      </trkpt>
      <trkpt lat="45.83587" lon="4.77149">
        <ele>350.60000610352</ele>
        <time>2019-08-17T08:55:54.000Z</time>
      </trkpt>
      <trkpt lat="45.83603" lon="4.77149">
        <ele>350.60000610352</ele>
        <time>2019-08-17T08:56:00.000Z</time>
      </trkpt>
      <trkpt lat="45.83616" lon="4.77151">
        <ele>350.60000610352</ele>
        <time>2019-08-17T08:56:05.000Z</time>
      </trkpt>
      <trkpt lat="45.83619" lon="4.77151">
        <ele>351</ele>
        <time>2019-08-17T08:56:06.000Z</time>
      </trkpt>
      <trkpt lat="45.83622" lon="4.77151">
        <ele>351.39999389648</ele>
        <time>2019-08-17T08:56:07.000Z</time>
      </trkpt>
      <trkpt lat="45.83625" lon="4.77151">
        <ele>351.79998779297</ele>
        <time>2019-08-17T08:56:08.000Z</time>
      </trkpt>
      <trkpt lat="45.83628" lon="4.77151">
        <ele>352.20001220703</ele>
        <time>2019-08-17T08:56:09.000Z</time>
      </trkpt>
      <trkpt lat="45.83631" lon="4.77151">
        <ele>352.60000610352</ele>
        <time>2019-08-17T08:56:10.000Z</time>
      </trkpt>
      <trkpt lat="45.83639" lon="4.77151">
        <ele>352.60000610352</ele>
        <time>2019-08-17T08:56:13.000Z</time>
      </trkpt>
      <trkpt lat="45.83642" lon="4.77151">
        <ele>353</ele>
        <time>2019-08-17T08:56:14.000Z</time>
      </trkpt>
      <trkpt lat="45.83644" lon="4.77152">
        <ele>353.39999389648</ele>
        <time>2019-08-17T08:56:15.000Z</time>
      </trkpt>
      <trkpt lat="45.83647" lon="4.77152">
        <ele>353.79998779297</ele>
        <time>2019-08-17T08:56:16.000Z</time>
      </trkpt>
      <trkpt lat="45.83649" lon="4.77152">
        <ele>354.20001220703</ele>
        <time>2019-08-17T08:56:17.000Z</time>
      </trkpt>
      <trkpt lat="45.83652" lon="4.77152">
        <ele>354.60000610352</ele>
        <time>2019-08-17T08:56:18.000Z</time>
      </trkpt>
      <trkpt lat="45.83659" lon="4.77152">
        <ele>354.60000610352</ele>
        <time>2019-08-17T08:56:21.000Z</time>
      </trkpt>
      <trkpt lat="45.83665" lon="4.77153">
        <ele>355</ele>
        <time>2019-08-17T08:56:23.000Z</time>
      </trkpt>
      <trkpt lat="45.83667" lon="4.77152">
        <ele>355.39999389648</ele>
        <time>2019-08-17T08:56:24.000Z</time>
      </trkpt>
      <trkpt lat="45.83669" lon="4.77152">
        <ele>355.79998779297</ele>
        <time>2019-08-17T08:56:25.000Z</time>
      </trkpt>
      <trkpt lat="45.83672" lon="4.77152">
        <ele>356.20001220703</ele>
        <time>2019-08-17T08:56:26.000Z</time>
      </trkpt>
      <trkpt lat="45.83675" lon="4.77152">
        <ele>356.60000610352</ele>
        <time>2019-08-17T08:56:27.000Z</time>
      </trkpt>
      <trkpt lat="45.83693" lon="4.77148">
        <ele>357.20001220703</ele>
        <time>2019-08-17T08:56:34.000Z</time>
      </trkpt>
      <trkpt lat="45.83696" lon="4.77148">
        <ele>357.60000610352</ele>
        <time>2019-08-17T08:56:35.000Z</time>
      </trkpt>
      <trkpt lat="45.83699" lon="4.77148">
        <ele>358</ele>
        <time>2019-08-17T08:56:36.000Z</time>
      </trkpt>
      <trkpt lat="45.83702" lon="4.77149">
        <ele>358.39999389648</ele>
        <time>2019-08-17T08:56:37.000Z</time>
      </trkpt>
      <trkpt lat="45.83705" lon="4.77149">
        <ele>359</ele>
        <time>2019-08-17T08:56:38.000Z</time>
      </trkpt>
      <trkpt lat="45.83713" lon="4.77151">
        <ele>359</ele>
        <time>2019-08-17T08:56:41.000Z</time>
      </trkpt>
      <trkpt lat="45.83716" lon="4.77151">
        <ele>359.39999389648</ele>
        <time>2019-08-17T08:56:42.000Z</time>
      </trkpt>
      <trkpt lat="45.83719" lon="4.77152">
        <ele>359.79998779297</ele>
        <time>2019-08-17T08:56:43.000Z</time>
      </trkpt>
      <trkpt lat="45.83722" lon="4.77153">
        <ele>360.20001220703</ele>
        <time>2019-08-17T08:56:44.000Z</time>
      </trkpt>
      <trkpt lat="45.83725" lon="4.77153">
        <ele>360.60000610352</ele>
        <time>2019-08-17T08:56:45.000Z</time>
      </trkpt>
      <trkpt lat="45.83728" lon="4.77154">
        <ele>361</ele>
        <time>2019-08-17T08:56:46.000Z</time>
      </trkpt>
      <trkpt lat="45.83736" lon="4.77157">
        <ele>361</ele>
        <time>2019-08-17T08:56:49.000Z</time>
      </trkpt>
      <trkpt lat="45.83744" lon="4.7716">
        <ele>361.39999389648</ele>
        <time>2019-08-17T08:56:52.000Z</time>
      </trkpt>
      <trkpt lat="45.83746" lon="4.7716">
        <ele>361.79998779297</ele>
        <time>2019-08-17T08:56:53.000Z</time>
      </trkpt>
      <trkpt lat="45.83748" lon="4.77161">
        <ele>362.20001220703</ele>
        <time>2019-08-17T08:56:54.000Z</time>
      </trkpt>
      <trkpt lat="45.83751" lon="4.77162">
        <ele>362.60000610352</ele>
        <time>2019-08-17T08:56:55.000Z</time>
      </trkpt>
      <trkpt lat="45.83754" lon="4.77164">
        <ele>363</ele>
        <time>2019-08-17T08:56:56.000Z</time>
      </trkpt>
      <trkpt lat="45.83766" lon="4.77175">
        <ele>363</ele>
        <time>2019-08-17T08:57:02.000Z</time>
      </trkpt>
      <trkpt lat="45.83767" lon="4.77179">
        <ele>363</ele>
        <time>2019-08-17T08:57:03.000Z</time>
      </trkpt>
      <trkpt lat="45.83768" lon="4.77182">
        <ele>363.39999389648</ele>
        <time>2019-08-17T08:57:04.000Z</time>
      </trkpt>
      <trkpt lat="45.83768" lon="4.77186">
        <ele>363.79998779297</ele>
        <time>2019-08-17T08:57:05.000Z</time>
      </trkpt>
      <trkpt lat="45.83769" lon="4.77189">
        <ele>364.20001220703</ele>
        <time>2019-08-17T08:57:06.000Z</time>
      </trkpt>
      <trkpt lat="45.83769" lon="4.77193">
        <ele>364.60000610352</ele>
        <time>2019-08-17T08:57:07.000Z</time>
      </trkpt>
      <trkpt lat="45.83769" lon="4.77196">
        <ele>365</ele>
        <time>2019-08-17T08:57:08.000Z</time>
      </trkpt>
      <trkpt lat="45.83772" lon="4.77215">
        <ele>365.39999389648</ele>
        <time>2019-08-17T08:57:13.000Z</time>
      </trkpt>
      <trkpt lat="45.83772" lon="4.77219">
        <ele>365.79998779297</ele>
        <time>2019-08-17T08:57:14.000Z</time>
      </trkpt>
      <trkpt lat="45.83773" lon="4.77223">
        <ele>366.20001220703</ele>
        <time>2019-08-17T08:57:15.000Z</time>
      </trkpt>
      <trkpt lat="45.83773" lon="4.77227">
        <ele>366.60000610352</ele>
        <time>2019-08-17T08:57:16.000Z</time>
      </trkpt>
      <trkpt lat="45.83774" lon="4.77231">
        <ele>367.20001220703</ele>
        <time>2019-08-17T08:57:17.000Z</time>
      </trkpt>
      <trkpt lat="45.83777" lon="4.77242">
        <ele>367.60000610352</ele>
        <time>2019-08-17T08:57:20.000Z</time>
      </trkpt>
      <trkpt lat="45.83779" lon="4.77246">
        <ele>368</ele>
        <time>2019-08-17T08:57:21.000Z</time>
      </trkpt>
      <trkpt lat="45.8378" lon="4.77249">
        <ele>368.39999389648</ele>
        <time>2019-08-17T08:57:22.000Z</time>
      </trkpt>
      <trkpt lat="45.83781" lon="4.77252">
        <ele>368.79998779297</ele>
        <time>2019-08-17T08:57:23.000Z</time>
      </trkpt>
      <trkpt lat="45.83783" lon="4.77256">
        <ele>369.20001220703</ele>
        <time>2019-08-17T08:57:24.000Z</time>
      </trkpt>
      <trkpt lat="45.83786" lon="4.77262">
        <ele>369.60000610352</ele>
        <time>2019-08-17T08:57:26.000Z</time>
      </trkpt>
      <trkpt lat="45.83787" lon="4.77265">
        <ele>370.39999389648</ele>
        <time>2019-08-17T08:57:27.000Z</time>
      </trkpt>
      <trkpt lat="45.83789" lon="4.77269">
        <ele>370.79998779297</ele>
        <time>2019-08-17T08:57:28.000Z</time>
      </trkpt>
      <trkpt lat="45.8379" lon="4.77272">
        <ele>371.20001220703</ele>
        <time>2019-08-17T08:57:29.000Z</time>
      </trkpt>
      <trkpt lat="45.83796" lon="4.77285">
        <ele>371.60000610352</ele>
        <time>2019-08-17T08:57:33.000Z</time>
      </trkpt>
      <trkpt lat="45.83797" lon="4.77288">
        <ele>372.20001220703</ele>
        <time>2019-08-17T08:57:34.000Z</time>
      </trkpt>
      <trkpt lat="45.83799" lon="4.77292">
        <ele>372.60000610352</ele>
        <time>2019-08-17T08:57:35.000Z</time>
      </trkpt>
      <trkpt lat="45.838" lon="4.77295">
        <ele>373</ele>
        <time>2019-08-17T08:57:36.000Z</time>
      </trkpt>
      <trkpt lat="45.83802" lon="4.77298">
        <ele>373.39999389648</ele>
        <time>2019-08-17T08:57:37.000Z</time>
      </trkpt>
      <trkpt lat="45.83807" lon="4.77313">
        <ele>373.39999389648</ele>
        <time>2019-08-17T08:57:42.000Z</time>
      </trkpt>
      <trkpt lat="45.83811" lon="4.77318">
        <ele>373.79998779297</ele>
        <time>2019-08-17T08:57:44.000Z</time>
      </trkpt>
      <trkpt lat="45.83812" lon="4.7732">
        <ele>374.20001220703</ele>
        <time>2019-08-17T08:57:45.000Z</time>
      </trkpt>
      <trkpt lat="45.83814" lon="4.77322">
        <ele>374.60000610352</ele>
        <time>2019-08-17T08:57:46.000Z</time>
      </trkpt>
      <trkpt lat="45.83815" lon="4.77324">
        <ele>375</ele>
        <time>2019-08-17T08:57:47.000Z</time>
      </trkpt>
      <trkpt lat="45.83816" lon="4.77327">
        <ele>375.39999389648</ele>
        <time>2019-08-17T08:57:48.000Z</time>
      </trkpt>
      <trkpt lat="45.83816" lon="4.77331">
        <ele>375.39999389648</ele>
        <time>2019-08-17T08:57:49.000Z</time>
      </trkpt>
      <trkpt lat="45.83813" lon="4.7735">
        <ele>375.39999389648</ele>
        <time>2019-08-17T08:57:54.000Z</time>
      </trkpt>
      <trkpt lat="45.83806" lon="4.7736">
        <ele>375.79998779297</ele>
        <time>2019-08-17T08:57:57.000Z</time>
      </trkpt>
      <trkpt lat="45.83803" lon="4.77363">
        <ele>376.20001220703</ele>
        <time>2019-08-17T08:57:58.000Z</time>
      </trkpt>
      <trkpt lat="45.83801" lon="4.77365">
        <ele>376.79998779297</ele>
        <time>2019-08-17T08:57:59.000Z</time>
      </trkpt>
      <trkpt lat="45.83798" lon="4.77368">
        <ele>377.20001220703</ele>
        <time>2019-08-17T08:58:00.000Z</time>
      </trkpt>
      <trkpt lat="45.83796" lon="4.77372">
        <ele>377.60000610352</ele>
        <time>2019-08-17T08:58:01.000Z</time>
      </trkpt>
      <trkpt lat="45.83781" lon="4.7739">
        <ele>377.60000610352</ele>
        <time>2019-08-17T08:58:07.000Z</time>
      </trkpt>
      <trkpt lat="45.83761" lon="4.77419">
        <ele>377.60000610352</ele>
        <time>2019-08-17T08:58:16.000Z</time>
      </trkpt>
      <trkpt lat="45.83754" lon="4.77433">
        <ele>378</ele>
        <time>2019-08-17T08:58:20.000Z</time>
      </trkpt>
      <trkpt lat="45.83753" lon="4.77437">
        <ele>378.39999389648</ele>
        <time>2019-08-17T08:58:21.000Z</time>
      </trkpt>
      <trkpt lat="45.83751" lon="4.77441">
        <ele>378.79998779297</ele>
        <time>2019-08-17T08:58:22.000Z</time>
      </trkpt>
      <trkpt lat="45.83751" lon="4.77445">
        <ele>379.20001220703</ele>
        <time>2019-08-17T08:58:23.000Z</time>
      </trkpt>
      <trkpt lat="45.83751" lon="4.77448">
        <ele>379.60000610352</ele>
        <time>2019-08-17T08:58:24.000Z</time>
      </trkpt>
      <trkpt lat="45.8375" lon="4.77462">
        <ele>379.60000610352</ele>
        <time>2019-08-17T08:58:28.000Z</time>
      </trkpt>
      <trkpt lat="45.83751" lon="4.77468">
        <ele>380</ele>
        <time>2019-08-17T08:58:30.000Z</time>
      </trkpt>
      <trkpt lat="45.83751" lon="4.77471">
        <ele>380.39999389648</ele>
        <time>2019-08-17T08:58:31.000Z</time>
      </trkpt>
      <trkpt lat="45.83751" lon="4.77474">
        <ele>380.79998779297</ele>
        <time>2019-08-17T08:58:32.000Z</time>
      </trkpt>
      <trkpt lat="45.83752" lon="4.77476">
        <ele>381.20001220703</ele>
        <time>2019-08-17T08:58:33.000Z</time>
      </trkpt>
      <trkpt lat="45.83752" lon="4.77479">
        <ele>381.60000610352</ele>
        <time>2019-08-17T08:58:34.000Z</time>
      </trkpt>
      <trkpt lat="45.83754" lon="4.77485">
        <ele>381.60000610352</ele>
        <time>2019-08-17T08:58:38.000Z</time>
      </trkpt>
      <trkpt lat="45.83761" lon="4.77497">
        <ele>381.60000610352</ele>
        <time>2019-08-17T08:58:43.000Z</time>
      </trkpt>
      <trkpt lat="45.83772" lon="4.77511">
        <ele>381.60000610352</ele>
        <time>2019-08-17T08:58:49.000Z</time>
      </trkpt>
      <trkpt lat="45.83772" lon="4.77519">
        <ele>382</ele>
        <time>2019-08-17T08:58:51.000Z</time>
      </trkpt>
      <trkpt lat="45.83772" lon="4.77524">
        <ele>382.60000610352</ele>
        <time>2019-08-17T08:58:52.000Z</time>
      </trkpt>
      <trkpt lat="45.83773" lon="4.77529">
        <ele>383</ele>
        <time>2019-08-17T08:58:53.000Z</time>
      </trkpt>
      <trkpt lat="45.83774" lon="4.77533">
        <ele>383.39999389648</ele>
        <time>2019-08-17T08:58:54.000Z</time>
      </trkpt>
      <trkpt lat="45.83774" lon="4.77537">
        <ele>383.79998779297</ele>
        <time>2019-08-17T08:58:55.000Z</time>
      </trkpt>
      <trkpt lat="45.83775" lon="4.77557">
        <ele>384.20001220703</ele>
        <time>2019-08-17T08:59:00.000Z</time>
      </trkpt>
      <trkpt lat="45.83776" lon="4.7756">
        <ele>384.60000610352</ele>
        <time>2019-08-17T08:59:01.000Z</time>
      </trkpt>
      <trkpt lat="45.83776" lon="4.77565">
        <ele>385</ele>
        <time>2019-08-17T08:59:02.000Z</time>
      </trkpt>
      <trkpt lat="45.83777" lon="4.77569">
        <ele>385.39999389648</ele>
        <time>2019-08-17T08:59:03.000Z</time>
      </trkpt>
      <trkpt lat="45.83777" lon="4.77573">
        <ele>385.79998779297</ele>
        <time>2019-08-17T08:59:04.000Z</time>
      </trkpt>
      <trkpt lat="45.8378" lon="4.77589">
        <ele>386.20001220703</ele>
        <time>2019-08-17T08:59:08.000Z</time>
      </trkpt>
      <trkpt lat="45.83782" lon="4.77592">
        <ele>386.60000610352</ele>
        <time>2019-08-17T08:59:09.000Z</time>
      </trkpt>
      <trkpt lat="45.83783" lon="4.77596">
        <ele>387</ele>
        <time>2019-08-17T08:59:10.000Z</time>
      </trkpt>
      <trkpt lat="45.83784" lon="4.776">
        <ele>387.60000610352</ele>
        <time>2019-08-17T08:59:11.000Z</time>
      </trkpt>
      <trkpt lat="45.83785" lon="4.77603">
        <ele>388</ele>
        <time>2019-08-17T08:59:12.000Z</time>
      </trkpt>
      <trkpt lat="45.83791" lon="4.77623">
        <ele>388</ele>
        <time>2019-08-17T08:59:17.000Z</time>
      </trkpt>
      <trkpt lat="45.83792" lon="4.77627">
        <ele>388.39999389648</ele>
        <time>2019-08-17T08:59:18.000Z</time>
      </trkpt>
      <trkpt lat="45.83793" lon="4.77631">
        <ele>388.79998779297</ele>
        <time>2019-08-17T08:59:19.000Z</time>
      </trkpt>
      <trkpt lat="45.83794" lon="4.77635">
        <ele>389.20001220703</ele>
        <time>2019-08-17T08:59:20.000Z</time>
      </trkpt>
      <trkpt lat="45.83795" lon="4.77639">
        <ele>389.60000610352</ele>
        <time>2019-08-17T08:59:21.000Z</time>
      </trkpt>
      <trkpt lat="45.83797" lon="4.77642">
        <ele>390</ele>
        <time>2019-08-17T08:59:22.000Z</time>
      </trkpt>
      <trkpt lat="45.83801" lon="4.77658">
        <ele>390</ele>
        <time>2019-08-17T08:59:26.000Z</time>
      </trkpt>
      <trkpt lat="45.83802" lon="4.77662">
        <ele>390.39999389648</ele>
        <time>2019-08-17T08:59:27.000Z</time>
      </trkpt>
      <trkpt lat="45.83804" lon="4.77666">
        <ele>390.79998779297</ele>
        <time>2019-08-17T08:59:28.000Z</time>
      </trkpt>
      <trkpt lat="45.83805" lon="4.7767">
        <ele>391.20001220703</ele>
        <time>2019-08-17T08:59:29.000Z</time>
      </trkpt>
      <trkpt lat="45.83806" lon="4.77675">
        <ele>391.60000610352</ele>
        <time>2019-08-17T08:59:30.000Z</time>
      </trkpt>
      <trkpt lat="45.83806" lon="4.77679">
        <ele>392</ele>
        <time>2019-08-17T08:59:31.000Z</time>
      </trkpt>
      <trkpt lat="45.83809" lon="4.77687">
        <ele>392</ele>
        <time>2019-08-17T08:59:33.000Z</time>
      </trkpt>
      <trkpt lat="45.8381" lon="4.7769">
        <ele>392.60000610352</ele>
        <time>2019-08-17T08:59:34.000Z</time>
      </trkpt>
      <trkpt lat="45.83811" lon="4.77694">
        <ele>393</ele>
        <time>2019-08-17T08:59:35.000Z</time>
      </trkpt>
      <trkpt lat="45.83812" lon="4.77698">
        <ele>393.39999389648</ele>
        <time>2019-08-17T08:59:36.000Z</time>
      </trkpt>
      <trkpt lat="45.83813" lon="4.77702">
        <ele>393.79998779297</ele>
        <time>2019-08-17T08:59:37.000Z</time>
      </trkpt>
      <trkpt lat="45.83814" lon="4.77707">
        <ele>394.20001220703</ele>
        <time>2019-08-17T08:59:38.000Z</time>
      </trkpt>
      <trkpt lat="45.83815" lon="4.77711">
        <ele>394.20001220703</ele>
        <time>2019-08-17T08:59:39.000Z</time>
      </trkpt>
      <trkpt lat="45.83818" lon="4.77728">
        <ele>394.60000610352</ele>
        <time>2019-08-17T08:59:43.000Z</time>
      </trkpt>
      <trkpt lat="45.83819" lon="4.77732">
        <ele>395</ele>
        <time>2019-08-17T08:59:44.000Z</time>
      </trkpt>
      <trkpt lat="45.8382" lon="4.77735">
        <ele>395.60000610352</ele>
        <time>2019-08-17T08:59:45.000Z</time>
      </trkpt>
      <trkpt lat="45.83821" lon="4.77739">
        <ele>396</ele>
        <time>2019-08-17T08:59:46.000Z</time>
      </trkpt>
      <trkpt lat="45.83823" lon="4.77743">
        <ele>396.39999389648</ele>
        <time>2019-08-17T08:59:47.000Z</time>
      </trkpt>
      <trkpt lat="45.83827" lon="4.77758">
        <ele>396.39999389648</ele>
        <time>2019-08-17T08:59:51.000Z</time>
      </trkpt>
      <trkpt lat="45.83829" lon="4.77761">
        <ele>396.79998779297</ele>
        <time>2019-08-17T08:59:52.000Z</time>
      </trkpt>
      <trkpt lat="45.83831" lon="4.77765">
        <ele>397.20001220703</ele>
        <time>2019-08-17T08:59:53.000Z</time>
      </trkpt>
      <trkpt lat="45.83833" lon="4.77768">
        <ele>397.79998779297</ele>
        <time>2019-08-17T08:59:54.000Z</time>
      </trkpt>
      <trkpt lat="45.83835" lon="4.77771">
        <ele>398.20001220703</ele>
        <time>2019-08-17T08:59:55.000Z</time>
      </trkpt>
      <trkpt lat="45.83838" lon="4.77773">
        <ele>398.60000610352</ele>
        <time>2019-08-17T08:59:56.000Z</time>
      </trkpt>
      <trkpt lat="45.8384" lon="4.77776">
        <ele>398.60000610352</ele>
        <time>2019-08-17T08:59:57.000Z</time>
      </trkpt>
      <trkpt lat="45.83848" lon="4.77788">
        <ele>399</ele>
        <time>2019-08-17T09:00:01.000Z</time>
      </trkpt>
      <trkpt lat="45.8385" lon="4.7779">
        <ele>399.39999389648</ele>
        <time>2019-08-17T09:00:02.000Z</time>
      </trkpt>
      <trkpt lat="45.83853" lon="4.77792">
        <ele>400</ele>
        <time>2019-08-17T09:00:03.000Z</time>
      </trkpt>
      <trkpt lat="45.83855" lon="4.77794">
        <ele>400.39999389648</ele>
        <time>2019-08-17T09:00:04.000Z</time>
      </trkpt>
      <trkpt lat="45.83858" lon="4.77796">
        <ele>400.79998779297</ele>
        <time>2019-08-17T09:00:05.000Z</time>
      </trkpt>
      <trkpt lat="45.83872" lon="4.77801">
        <ele>401.20001220703</ele>
        <time>2019-08-17T09:00:10.000Z</time>
      </trkpt>
      <trkpt lat="45.83875" lon="4.77801">
        <ele>401.60000610352</ele>
        <time>2019-08-17T09:00:11.000Z</time>
      </trkpt>
      <trkpt lat="45.83878" lon="4.77801">
        <ele>402</ele>
        <time>2019-08-17T09:00:12.000Z</time>
      </trkpt>
      <trkpt lat="45.83881" lon="4.778">
        <ele>402.39999389648</ele>
        <time>2019-08-17T09:00:13.000Z</time>
      </trkpt>
      <trkpt lat="45.83884" lon="4.778">
        <ele>402.79998779297</ele>
        <time>2019-08-17T09:00:14.000Z</time>
      </trkpt>
      <trkpt lat="45.83896" lon="4.778">
        <ele>402.79998779297</ele>
        <time>2019-08-17T09:00:18.000Z</time>
      </trkpt>
      <trkpt lat="45.83902" lon="4.778">
        <ele>403.39999389648</ele>
        <time>2019-08-17T09:00:20.000Z</time>
      </trkpt>
      <trkpt lat="45.83905" lon="4.778">
        <ele>404.20001220703</ele>
        <time>2019-08-17T09:00:21.000Z</time>
      </trkpt>
      <trkpt lat="45.83909" lon="4.77799">
        <ele>404.60000610352</ele>
        <time>2019-08-17T09:00:22.000Z</time>
      </trkpt>
      <trkpt lat="45.83912" lon="4.77799">
        <ele>405.20001220703</ele>
        <time>2019-08-17T09:00:23.000Z</time>
      </trkpt>
      <trkpt lat="45.83915" lon="4.77799">
        <ele>405.20001220703</ele>
        <time>2019-08-17T09:00:24.000Z</time>
      </trkpt>
      <trkpt lat="45.83923" lon="4.77799">
        <ele>405.60000610352</ele>
        <time>2019-08-17T09:00:27.000Z</time>
      </trkpt>
      <trkpt lat="45.83926" lon="4.77799">
        <ele>406</ele>
        <time>2019-08-17T09:00:28.000Z</time>
      </trkpt>
      <trkpt lat="45.83929" lon="4.77799">
        <ele>406.39999389648</ele>
        <time>2019-08-17T09:00:29.000Z</time>
      </trkpt>
      <trkpt lat="45.83932" lon="4.778">
        <ele>406.79998779297</ele>
        <time>2019-08-17T09:00:30.000Z</time>
      </trkpt>
      <trkpt lat="45.83935" lon="4.778">
        <ele>407.20001220703</ele>
        <time>2019-08-17T09:00:31.000Z</time>
      </trkpt>
      <trkpt lat="45.83951" lon="4.77798">
        <ele>407.60000610352</ele>
        <time>2019-08-17T09:00:36.000Z</time>
      </trkpt>
      <trkpt lat="45.83955" lon="4.77798">
        <ele>408</ele>
        <time>2019-08-17T09:00:37.000Z</time>
      </trkpt>
      <trkpt lat="45.83958" lon="4.77797">
        <ele>408.39999389648</ele>
        <time>2019-08-17T09:00:38.000Z</time>
      </trkpt>
      <trkpt lat="45.83961" lon="4.77797">
        <ele>409</ele>
        <time>2019-08-17T09:00:39.000Z</time>
      </trkpt>
      <trkpt lat="45.83964" lon="4.77797">
        <ele>409.39999389648</ele>
        <time>2019-08-17T09:00:40.000Z</time>
      </trkpt>
      <trkpt lat="45.83981" lon="4.77797">
        <ele>409.79998779297</ele>
        <time>2019-08-17T09:00:45.000Z</time>
      </trkpt>
      <trkpt lat="45.83984" lon="4.77797">
        <ele>410.60000610352</ele>
        <time>2019-08-17T09:00:46.000Z</time>
      </trkpt>
      <trkpt lat="45.83986" lon="4.77796">
        <ele>411</ele>
        <time>2019-08-17T09:00:47.000Z</time>
      </trkpt>
      <trkpt lat="45.83989" lon="4.77796">
        <ele>411.60000610352</ele>
        <time>2019-08-17T09:00:48.000Z</time>
      </trkpt>
      <trkpt lat="45.83998" lon="4.77797">
        <ele>411.60000610352</ele>
        <time>2019-08-17T09:00:51.000Z</time>
      </trkpt>
      <trkpt lat="45.84004" lon="4.77797">
        <ele>412</ele>
        <time>2019-08-17T09:00:53.000Z</time>
      </trkpt>
      <trkpt lat="45.84007" lon="4.77797">
        <ele>412.39999389648</ele>
        <time>2019-08-17T09:00:54.000Z</time>
      </trkpt>
      <trkpt lat="45.8401" lon="4.77798">
        <ele>412.79998779297</ele>
        <time>2019-08-17T09:00:55.000Z</time>
      </trkpt>
      <trkpt lat="45.84013" lon="4.77799">
        <ele>413.39999389648</ele>
        <time>2019-08-17T09:00:56.000Z</time>
      </trkpt>
      <trkpt lat="45.84016" lon="4.778">
        <ele>413.79998779297</ele>
        <time>2019-08-17T09:00:57.000Z</time>
      </trkpt>
      <trkpt lat="45.84019" lon="4.77803">
        <ele>413.79998779297</ele>
        <time>2019-08-17T09:00:58.000Z</time>
      </trkpt>
      <trkpt lat="45.84029" lon="4.77819">
        <ele>413.79998779297</ele>
        <time>2019-08-17T09:01:02.000Z</time>
      </trkpt>
      <trkpt lat="45.8403" lon="4.7783">
        <ele>414.20001220703</ele>
        <time>2019-08-17T09:01:04.000Z</time>
      </trkpt>
      <trkpt lat="45.84029" lon="4.77835">
        <ele>414.60000610352</ele>
        <time>2019-08-17T09:01:05.000Z</time>
      </trkpt>
      <trkpt lat="45.84026" lon="4.77841">
        <ele>415</ele>
        <time>2019-08-17T09:01:06.000Z</time>
      </trkpt>
      <trkpt lat="45.84023" lon="4.77845">
        <ele>415.39999389648</ele>
        <time>2019-08-17T09:01:07.000Z</time>
      </trkpt>
      <trkpt lat="45.8402" lon="4.7785">
        <ele>415.79998779297</ele>
        <time>2019-08-17T09:01:08.000Z</time>
      </trkpt>
      <trkpt lat="45.84014" lon="4.77862">
        <ele>415.79998779297</ele>
        <time>2019-08-17T09:01:11.000Z</time>
      </trkpt>
      <trkpt lat="45.8401" lon="4.77871">
        <ele>416.20001220703</ele>
        <time>2019-08-17T09:01:13.000Z</time>
      </trkpt>
      <trkpt lat="45.84009" lon="4.77876">
        <ele>416.60000610352</ele>
        <time>2019-08-17T09:01:14.000Z</time>
      </trkpt>
      <trkpt lat="45.84009" lon="4.77881">
        <ele>417</ele>
        <time>2019-08-17T09:01:15.000Z</time>
      </trkpt>
      <trkpt lat="45.84009" lon="4.77886">
        <ele>417.39999389648</ele>
        <time>2019-08-17T09:01:16.000Z</time>
      </trkpt>
      <trkpt lat="45.84009" lon="4.77892">
        <ele>417.79998779297</ele>
        <time>2019-08-17T09:01:17.000Z</time>
      </trkpt>
      <trkpt lat="45.84017" lon="4.77908">
        <ele>417.79998779297</ele>
        <time>2019-08-17T09:01:21.000Z</time>
      </trkpt>
      <trkpt lat="45.84033" lon="4.77911">
        <ele>418.39999389648</ele>
        <time>2019-08-17T09:01:25.000Z</time>
      </trkpt>
      <trkpt lat="45.84036" lon="4.77909">
        <ele>418.79998779297</ele>
        <time>2019-08-17T09:01:26.000Z</time>
      </trkpt>
      <trkpt lat="45.8404" lon="4.77907">
        <ele>419.20001220703</ele>
        <time>2019-08-17T09:01:27.000Z</time>
      </trkpt>
      <trkpt lat="45.84044" lon="4.77904">
        <ele>419.60000610352</ele>
        <time>2019-08-17T09:01:28.000Z</time>
      </trkpt>
      <trkpt lat="45.84047" lon="4.77901">
        <ele>420</ele>
        <time>2019-08-17T09:01:29.000Z</time>
      </trkpt>
      <trkpt lat="45.84053" lon="4.77893">
        <ele>420</ele>
        <time>2019-08-17T09:01:31.000Z</time>
      </trkpt>
      <trkpt lat="45.84056" lon="4.77888">
        <ele>420</ele>
        <time>2019-08-17T09:01:32.000Z</time>
      </trkpt>
      <trkpt lat="45.8406" lon="4.77878">
        <ele>420</ele>
        <time>2019-08-17T09:01:34.000Z</time>
      </trkpt>
      <trkpt lat="45.84061" lon="4.77872">
        <ele>420.39999389648</ele>
        <time>2019-08-17T09:01:35.000Z</time>
      </trkpt>
      <trkpt lat="45.84062" lon="4.77866">
        <ele>421</ele>
        <time>2019-08-17T09:01:36.000Z</time>
      </trkpt>
      <trkpt lat="45.84063" lon="4.77861">
        <ele>421.39999389648</ele>
        <time>2019-08-17T09:01:37.000Z</time>
      </trkpt>
      <trkpt lat="45.84064" lon="4.77855">
        <ele>421.79998779297</ele>
        <time>2019-08-17T09:01:38.000Z</time>
      </trkpt>
      <trkpt lat="45.84065" lon="4.7785">
        <ele>422.39999389648</ele>
        <time>2019-08-17T09:01:39.000Z</time>
      </trkpt>
      <trkpt lat="45.84066" lon="4.77844">
        <ele>422.39999389648</ele>
        <time>2019-08-17T09:01:40.000Z</time>
      </trkpt>
      <trkpt lat="45.8407" lon="4.77822">
        <ele>422.79998779297</ele>
        <time>2019-08-17T09:01:44.000Z</time>
      </trkpt>
      <trkpt lat="45.84071" lon="4.77817">
        <ele>423.20001220703</ele>
        <time>2019-08-17T09:01:45.000Z</time>
      </trkpt>
      <trkpt lat="45.84071" lon="4.77811">
        <ele>423.79998779297</ele>
        <time>2019-08-17T09:01:46.000Z</time>
      </trkpt>
      <trkpt lat="45.84072" lon="4.77805">
        <ele>424.20001220703</ele>
        <time>2019-08-17T09:01:47.000Z</time>
      </trkpt>
      <trkpt lat="45.84073" lon="4.778">
        <ele>424.60000610352</ele>
        <time>2019-08-17T09:01:48.000Z</time>
      </trkpt>
      <trkpt lat="45.84076" lon="4.77779">
        <ele>425</ele>
        <time>2019-08-17T09:01:52.000Z</time>
      </trkpt>
      <trkpt lat="45.84077" lon="4.77774">
        <ele>425.39999389648</ele>
        <time>2019-08-17T09:01:53.000Z</time>
      </trkpt>
      <trkpt lat="45.84078" lon="4.77769">
        <ele>425.79998779297</ele>
        <time>2019-08-17T09:01:54.000Z</time>
      </trkpt>
      <trkpt lat="45.8408" lon="4.77765">
        <ele>426.39999389648</ele>
        <time>2019-08-17T09:01:55.000Z</time>
      </trkpt>
      <trkpt lat="45.84083" lon="4.77762">
        <ele>426.79998779297</ele>
        <time>2019-08-17T09:01:56.000Z</time>
      </trkpt>
      <trkpt lat="45.8409" lon="4.77753">
        <ele>426.79998779297</ele>
        <time>2019-08-17T09:01:59.000Z</time>
      </trkpt>
      <trkpt lat="45.84093" lon="4.77751">
        <ele>427.20001220703</ele>
        <time>2019-08-17T09:02:00.000Z</time>
      </trkpt>
      <trkpt lat="45.84096" lon="4.7775">
        <ele>427.60000610352</ele>
        <time>2019-08-17T09:02:01.000Z</time>
      </trkpt>
      <trkpt lat="45.841" lon="4.7775">
        <ele>428</ele>
        <time>2019-08-17T09:02:02.000Z</time>
      </trkpt>
      <trkpt lat="45.84104" lon="4.77751">
        <ele>428.60000610352</ele>
        <time>2019-08-17T09:02:03.000Z</time>
      </trkpt>
      <trkpt lat="45.84108" lon="4.77753">
        <ele>429</ele>
        <time>2019-08-17T09:02:04.000Z</time>
      </trkpt>
      <trkpt lat="45.84119" lon="4.77763">
        <ele>429</ele>
        <time>2019-08-17T09:02:07.000Z</time>
      </trkpt>
      <trkpt lat="45.84124" lon="4.77779">
        <ele>429.39999389648</ele>
        <time>2019-08-17T09:02:10.000Z</time>
      </trkpt>
      <trkpt lat="45.84126" lon="4.77784">
        <ele>429.79998779297</ele>
        <time>2019-08-17T09:02:11.000Z</time>
      </trkpt>
      <trkpt lat="45.84126" lon="4.77789">
        <ele>430.39999389648</ele>
        <time>2019-08-17T09:02:12.000Z</time>
      </trkpt>
      <trkpt lat="45.84126" lon="4.77795">
        <ele>430.79998779297</ele>
        <time>2019-08-17T09:02:13.000Z</time>
      </trkpt>
      <trkpt lat="45.84125" lon="4.77801">
        <ele>431.20001220703</ele>
        <time>2019-08-17T09:02:14.000Z</time>
      </trkpt>
      <trkpt lat="45.84124" lon="4.77806">
        <ele>431.20001220703</ele>
        <time>2019-08-17T09:02:15.000Z</time>
      </trkpt>
      <trkpt lat="45.8412" lon="4.77834">
        <ele>431.60000610352</ele>
        <time>2019-08-17T09:02:20.000Z</time>
      </trkpt>
      <trkpt lat="45.84118" lon="4.77839">
        <ele>432</ele>
        <time>2019-08-17T09:02:21.000Z</time>
      </trkpt>
      <trkpt lat="45.84116" lon="4.77844">
        <ele>432.60000610352</ele>
        <time>2019-08-17T09:02:22.000Z</time>
      </trkpt>
      <trkpt lat="45.84115" lon="4.77849">
        <ele>433</ele>
        <time>2019-08-17T09:02:23.000Z</time>
      </trkpt>
      <trkpt lat="45.84113" lon="4.77855">
        <ele>433.39999389648</ele>
        <time>2019-08-17T09:02:24.000Z</time>
      </trkpt>
      <trkpt lat="45.84104" lon="4.77874">
        <ele>433.79998779297</ele>
        <time>2019-08-17T09:02:28.000Z</time>
      </trkpt>
      <trkpt lat="45.84102" lon="4.77878">
        <ele>434.20001220703</ele>
        <time>2019-08-17T09:02:29.000Z</time>
      </trkpt>
      <trkpt lat="45.841" lon="4.77883">
        <ele>434.60000610352</ele>
        <time>2019-08-17T09:02:30.000Z</time>
      </trkpt>
      <trkpt lat="45.84098" lon="4.77888">
        <ele>435</ele>
        <time>2019-08-17T09:02:31.000Z</time>
      </trkpt>
      <trkpt lat="45.84096" lon="4.77893">
        <ele>435.39999389648</ele>
        <time>2019-08-17T09:02:32.000Z</time>
      </trkpt>
      <trkpt lat="45.84095" lon="4.77898">
        <ele>435.39999389648</ele>
        <time>2019-08-17T09:02:33.000Z</time>
      </trkpt>
      <trkpt lat="45.84093" lon="4.7791">
        <ele>435.39999389648</ele>
        <time>2019-08-17T09:02:35.000Z</time>
      </trkpt>
      <trkpt lat="45.84096" lon="4.77927">
        <ele>435.79998779297</ele>
        <time>2019-08-17T09:02:38.000Z</time>
      </trkpt>
      <trkpt lat="45.84097" lon="4.77932">
        <ele>436.20001220703</ele>
        <time>2019-08-17T09:02:39.000Z</time>
      </trkpt>
      <trkpt lat="45.841" lon="4.77935">
        <ele>436.60000610352</ele>
        <time>2019-08-17T09:02:40.000Z</time>
      </trkpt>
      <trkpt lat="45.84103" lon="4.77939">
        <ele>437</ele>
        <time>2019-08-17T09:02:41.000Z</time>
      </trkpt>
      <trkpt lat="45.84106" lon="4.77942">
        <ele>437.39999389648</ele>
        <time>2019-08-17T09:02:42.000Z</time>
      </trkpt>
      <trkpt lat="45.8411" lon="4.77943">
        <ele>437.39999389648</ele>
        <time>2019-08-17T09:02:43.000Z</time>
      </trkpt>
      <trkpt lat="45.84129" lon="4.77939">
        <ele>437.79998779297</ele>
        <time>2019-08-17T09:02:47.000Z</time>
      </trkpt>
      <trkpt lat="45.84132" lon="4.77936">
        <ele>438.39999389648</ele>
        <time>2019-08-17T09:02:48.000Z</time>
      </trkpt>
      <trkpt lat="45.84136" lon="4.77931">
        <ele>439.20001220703</ele>
        <time>2019-08-17T09:02:49.000Z</time>
      </trkpt>
      <trkpt lat="45.8414" lon="4.77927">
        <ele>439.60000610352</ele>
        <time>2019-08-17T09:02:50.000Z</time>
      </trkpt>
      <trkpt lat="45.84143" lon="4.77923">
        <ele>439.60000610352</ele>
        <time>2019-08-17T09:02:51.000Z</time>
      </trkpt>
      <trkpt lat="45.84162" lon="4.77888">
        <ele>440</ele>
        <time>2019-08-17T09:02:58.000Z</time>
      </trkpt>
      <trkpt lat="45.84165" lon="4.77883">
        <ele>440.39999389648</ele>
        <time>2019-08-17T09:02:59.000Z</time>
      </trkpt>
      <trkpt lat="45.84167" lon="4.77878">
        <ele>441</ele>
        <time>2019-08-17T09:03:00.000Z</time>
      </trkpt>
      <trkpt lat="45.8417" lon="4.77872">
        <ele>441.39999389648</ele>
        <time>2019-08-17T09:03:01.000Z</time>
      </trkpt>
      <trkpt lat="45.84172" lon="4.77867">
        <ele>441.79998779297</ele>
        <time>2019-08-17T09:03:02.000Z</time>
      </trkpt>
      <trkpt lat="45.8418" lon="4.77852">
        <ele>442.20001220703</ele>
        <time>2019-08-17T09:03:05.000Z</time>
      </trkpt>
      <trkpt lat="45.84183" lon="4.77847">
        <ele>442.60000610352</ele>
        <time>2019-08-17T09:03:06.000Z</time>
      </trkpt>
      <trkpt lat="45.84186" lon="4.77843">
        <ele>443</ele>
        <time>2019-08-17T09:03:07.000Z</time>
      </trkpt>
      <trkpt lat="45.84188" lon="4.77838">
        <ele>443.39999389648</ele>
        <time>2019-08-17T09:03:08.000Z</time>
      </trkpt>
      <trkpt lat="45.84191" lon="4.77834">
        <ele>443.79998779297</ele>
        <time>2019-08-17T09:03:09.000Z</time>
      </trkpt>
      <trkpt lat="45.84206" lon="4.77815">
        <ele>444.60000610352</ele>
        <time>2019-08-17T09:03:14.000Z</time>
      </trkpt>
      <trkpt lat="45.84209" lon="4.77811">
        <ele>445.20001220703</ele>
        <time>2019-08-17T09:03:15.000Z</time>
      </trkpt>
      <trkpt lat="45.84213" lon="4.77808">
        <ele>445.60000610352</ele>
        <time>2019-08-17T09:03:16.000Z</time>
      </trkpt>
      <trkpt lat="45.84216" lon="4.77805">
        <ele>446</ele>
        <time>2019-08-17T09:03:17.000Z</time>
      </trkpt>
      <trkpt lat="45.84226" lon="4.77794">
        <ele>446</ele>
        <time>2019-08-17T09:03:20.000Z</time>
      </trkpt>
      <trkpt lat="45.84231" lon="4.77785">
        <ele>446</ele>
        <time>2019-08-17T09:03:22.000Z</time>
      </trkpt>
      <trkpt lat="45.84236" lon="4.77775">
        <ele>446.39999389648</ele>
        <time>2019-08-17T09:03:24.000Z</time>
      </trkpt>
      <trkpt lat="45.84237" lon="4.77769">
        <ele>446.79998779297</ele>
        <time>2019-08-17T09:03:25.000Z</time>
      </trkpt>
      <trkpt lat="45.84236" lon="4.77763">
        <ele>447.20001220703</ele>
        <time>2019-08-17T09:03:26.000Z</time>
      </trkpt>
      <trkpt lat="45.84237" lon="4.77756">
        <ele>447.79998779297</ele>
        <time>2019-08-17T09:03:27.000Z</time>
      </trkpt>
      <trkpt lat="45.84236" lon="4.77751">
        <ele>448.20001220703</ele>
        <time>2019-08-17T09:03:28.000Z</time>
      </trkpt>
      <trkpt lat="45.84236" lon="4.77746">
        <ele>448.20001220703</ele>
        <time>2019-08-17T09:03:29.000Z</time>
      </trkpt>
      <trkpt lat="45.84233" lon="4.77741">
        <ele>448.20001220703</ele>
        <time>2019-08-17T09:03:30.000Z</time>
      </trkpt>
      <trkpt lat="45.84227" lon="4.77731">
        <ele>448.20001220703</ele>
        <time>2019-08-17T09:03:32.000Z</time>
      </trkpt>
      <trkpt lat="45.84214" lon="4.77718">
        <ele>448.60000610352</ele>
        <time>2019-08-17T09:03:35.000Z</time>
      </trkpt>
      <trkpt lat="45.8421" lon="4.77715">
        <ele>449</ele>
        <time>2019-08-17T09:03:36.000Z</time>
      </trkpt>
      <trkpt lat="45.84206" lon="4.77712">
        <ele>449.39999389648</ele>
        <time>2019-08-17T09:03:37.000Z</time>
      </trkpt>
      <trkpt lat="45.84202" lon="4.7771">
        <ele>449.79998779297</ele>
        <time>2019-08-17T09:03:38.000Z</time>
      </trkpt>
      <trkpt lat="45.84197" lon="4.77708">
        <ele>450.20001220703</ele>
        <time>2019-08-17T09:03:39.000Z</time>
      </trkpt>
      <trkpt lat="45.84193" lon="4.77707">
        <ele>450.20001220703</ele>
        <time>2019-08-17T09:03:40.000Z</time>
      </trkpt>
      <trkpt lat="45.84174" lon="4.77701">
        <ele>450.20001220703</ele>
        <time>2019-08-17T09:03:44.000Z</time>
      </trkpt>
      <trkpt lat="45.84164" lon="4.77689">
        <ele>450.60000610352</ele>
        <time>2019-08-17T09:03:47.000Z</time>
      </trkpt>
      <trkpt lat="45.84162" lon="4.77682">
        <ele>451</ele>
        <time>2019-08-17T09:03:48.000Z</time>
      </trkpt>
      <trkpt lat="45.84162" lon="4.77674">
        <ele>451.39999389648</ele>
        <time>2019-08-17T09:03:49.000Z</time>
      </trkpt>
      <trkpt lat="45.84163" lon="4.77667">
        <ele>451.79998779297</ele>
        <time>2019-08-17T09:03:50.000Z</time>
      </trkpt>
      <trkpt lat="45.84165" lon="4.7766">
        <ele>452.20001220703</ele>
        <time>2019-08-17T09:03:51.000Z</time>
      </trkpt>
      <trkpt lat="45.84175" lon="4.77649">
        <ele>452.20001220703</ele>
        <time>2019-08-17T09:03:54.000Z</time>
      </trkpt>
      <trkpt lat="45.84184" lon="4.77654">
        <ele>452.60000610352</ele>
        <time>2019-08-17T09:03:56.000Z</time>
      </trkpt>
      <trkpt lat="45.84189" lon="4.77658">
        <ele>453.20001220703</ele>
        <time>2019-08-17T09:03:57.000Z</time>
      </trkpt>
      <trkpt lat="45.84194" lon="4.77662">
        <ele>453.60000610352</ele>
        <time>2019-08-17T09:03:58.000Z</time>
      </trkpt>
      <trkpt lat="45.84199" lon="4.77665">
        <ele>454</ele>
        <time>2019-08-17T09:03:59.000Z</time>
      </trkpt>
      <trkpt lat="45.84204" lon="4.77668">
        <ele>454.39999389648</ele>
        <time>2019-08-17T09:04:00.000Z</time>
      </trkpt>
      <trkpt lat="45.84212" lon="4.77674">
        <ele>454.39999389648</ele>
        <time>2019-08-17T09:04:02.000Z</time>
      </trkpt>
      <trkpt lat="45.84222" lon="4.77677">
        <ele>454.39999389648</ele>
        <time>2019-08-17T09:04:04.000Z</time>
      </trkpt>
      <trkpt lat="45.84236" lon="4.77676">
        <ele>454.79998779297</ele>
        <time>2019-08-17T09:04:07.000Z</time>
      </trkpt>
      <trkpt lat="45.84241" lon="4.77676">
        <ele>455.39999389648</ele>
        <time>2019-08-17T09:04:08.000Z</time>
      </trkpt>
      <trkpt lat="45.84246" lon="4.77675">
        <ele>455.79998779297</ele>
        <time>2019-08-17T09:04:09.000Z</time>
      </trkpt>
      <trkpt lat="45.84251" lon="4.77674">
        <ele>456.20001220703</ele>
        <time>2019-08-17T09:04:10.000Z</time>
      </trkpt>
      <trkpt lat="45.84256" lon="4.77674">
        <ele>456.60000610352</ele>
        <time>2019-08-17T09:04:11.000Z</time>
      </trkpt>
      <trkpt lat="45.84278" lon="4.77671">
        <ele>457</ele>
        <time>2019-08-17T09:04:16.000Z</time>
      </trkpt>
      <trkpt lat="45.84282" lon="4.77671">
        <ele>457.39999389648</ele>
        <time>2019-08-17T09:04:17.000Z</time>
      </trkpt>
      <trkpt lat="45.84287" lon="4.77672">
        <ele>458</ele>
        <time>2019-08-17T09:04:18.000Z</time>
      </trkpt>
      <trkpt lat="45.84291" lon="4.77672">
        <ele>458.39999389648</ele>
        <time>2019-08-17T09:04:19.000Z</time>
      </trkpt>
      <trkpt lat="45.84296" lon="4.77673">
        <ele>458.79998779297</ele>
        <time>2019-08-17T09:04:20.000Z</time>
      </trkpt>
      <trkpt lat="45.84304" lon="4.77675">
        <ele>458.79998779297</ele>
        <time>2019-08-17T09:04:22.000Z</time>
      </trkpt>
      <trkpt lat="45.84311" lon="4.77677">
        <ele>459.20001220703</ele>
        <time>2019-08-17T09:04:24.000Z</time>
      </trkpt>
      <trkpt lat="45.84315" lon="4.77678">
        <ele>459.60000610352</ele>
        <time>2019-08-17T09:04:25.000Z</time>
      </trkpt>
      <trkpt lat="45.84318" lon="4.77681">
        <ele>460.20001220703</ele>
        <time>2019-08-17T09:04:26.000Z</time>
      </trkpt>
      <trkpt lat="45.84322" lon="4.77682">
        <ele>460.60000610352</ele>
        <time>2019-08-17T09:04:27.000Z</time>
      </trkpt>
      <trkpt lat="45.84325" lon="4.77684">
        <ele>461</ele>
        <time>2019-08-17T09:04:28.000Z</time>
      </trkpt>
      <trkpt lat="45.84335" lon="4.77691">
        <ele>461.39999389648</ele>
        <time>2019-08-17T09:04:31.000Z</time>
      </trkpt>
      <trkpt lat="45.84338" lon="4.77693">
        <ele>461.79998779297</ele>
        <time>2019-08-17T09:04:32.000Z</time>
      </trkpt>
      <trkpt lat="45.84342" lon="4.77696">
        <ele>462.20001220703</ele>
        <time>2019-08-17T09:04:33.000Z</time>
      </trkpt>
      <trkpt lat="45.84345" lon="4.77699">
        <ele>462.60000610352</ele>
        <time>2019-08-17T09:04:34.000Z</time>
      </trkpt>
      <trkpt lat="45.84348" lon="4.77701">
        <ele>463</ele>
        <time>2019-08-17T09:04:35.000Z</time>
      </trkpt>
      <trkpt lat="45.84358" lon="4.77709">
        <ele>463</ele>
        <time>2019-08-17T09:04:38.000Z</time>
      </trkpt>
      <trkpt lat="45.84361" lon="4.77712">
        <ele>463.39999389648</ele>
        <time>2019-08-17T09:04:39.000Z</time>
      </trkpt>
      <trkpt lat="45.84364" lon="4.77715">
        <ele>463.79998779297</ele>
        <time>2019-08-17T09:04:40.000Z</time>
      </trkpt>
      <trkpt lat="45.84368" lon="4.77718">
        <ele>464.20001220703</ele>
        <time>2019-08-17T09:04:41.000Z</time>
      </trkpt>
      <trkpt lat="45.84371" lon="4.77721">
        <ele>464.60000610352</ele>
        <time>2019-08-17T09:04:42.000Z</time>
      </trkpt>
      <trkpt lat="45.84375" lon="4.77724">
        <ele>465</ele>
        <time>2019-08-17T09:04:43.000Z</time>
      </trkpt>
      <trkpt lat="45.84378" lon="4.77728">
        <ele>465</ele>
        <time>2019-08-17T09:04:44.000Z</time>
      </trkpt>
      <trkpt lat="45.84391" lon="4.7775">
        <ele>465</ele>
        <time>2019-08-17T09:04:49.000Z</time>
      </trkpt>
      <trkpt lat="45.84392" lon="4.77763">
        <ele>465.60000610352</ele>
        <time>2019-08-17T09:04:51.000Z</time>
      </trkpt>
      <trkpt lat="45.84392" lon="4.77769">
        <ele>466</ele>
        <time>2019-08-17T09:04:52.000Z</time>
      </trkpt>
      <trkpt lat="45.84391" lon="4.77775">
        <ele>466.79998779297</ele>
        <time>2019-08-17T09:04:53.000Z</time>
      </trkpt>
      <trkpt lat="45.84389" lon="4.77781">
        <ele>467.20001220703</ele>
        <time>2019-08-17T09:04:54.000Z</time>
      </trkpt>
      <trkpt lat="45.84382" lon="4.77796">
        <ele>467.20001220703</ele>
        <time>2019-08-17T09:04:57.000Z</time>
      </trkpt>
      <trkpt lat="45.84375" lon="4.77803">
        <ele>467.20001220703</ele>
        <time>2019-08-17T09:04:59.000Z</time>
      </trkpt>
      <trkpt lat="45.8437" lon="4.77807">
        <ele>467.60000610352</ele>
        <time>2019-08-17T09:05:00.000Z</time>
      </trkpt>
      <trkpt lat="45.84367" lon="4.77809">
        <ele>468</ele>
        <time>2019-08-17T09:05:01.000Z</time>
      </trkpt>
      <trkpt lat="45.84363" lon="4.77813">
        <ele>468.39999389648</ele>
        <time>2019-08-17T09:05:02.000Z</time>
      </trkpt>
      <trkpt lat="45.84359" lon="4.77816">
        <ele>468.79998779297</ele>
        <time>2019-08-17T09:05:03.000Z</time>
      </trkpt>
      <trkpt lat="45.84356" lon="4.77819">
        <ele>469.20001220703</ele>
        <time>2019-08-17T09:05:04.000Z</time>
      </trkpt>
      <trkpt lat="45.84341" lon="4.77839">
        <ele>469.20001220703</ele>
        <time>2019-08-17T09:05:09.000Z</time>
      </trkpt>
      <trkpt lat="45.84339" lon="4.77844">
        <ele>469.60000610352</ele>
        <time>2019-08-17T09:05:10.000Z</time>
      </trkpt>
      <trkpt lat="45.84337" lon="4.7785">
        <ele>470.20001220703</ele>
        <time>2019-08-17T09:05:11.000Z</time>
      </trkpt>
      <trkpt lat="45.84337" lon="4.77856">
        <ele>470.60000610352</ele>
        <time>2019-08-17T09:05:12.000Z</time>
      </trkpt>
      <trkpt lat="45.84337" lon="4.77863">
        <ele>471</ele>
        <time>2019-08-17T09:05:13.000Z</time>
      </trkpt>
      <trkpt lat="45.84338" lon="4.77869">
        <ele>471.39999389648</ele>
        <time>2019-08-17T09:05:14.000Z</time>
      </trkpt>
      <trkpt lat="45.84351" lon="4.77886">
        <ele>471.39999389648</ele>
        <time>2019-08-17T09:05:18.000Z</time>
      </trkpt>
      <trkpt lat="45.84366" lon="4.77886">
        <ele>471.79998779297</ele>
        <time>2019-08-17T09:05:21.000Z</time>
      </trkpt>
      <trkpt lat="45.8437" lon="4.77884">
        <ele>472.20001220703</ele>
        <time>2019-08-17T09:05:22.000Z</time>
      </trkpt>
      <trkpt lat="45.84375" lon="4.77882">
        <ele>472.60000610352</ele>
        <time>2019-08-17T09:05:23.000Z</time>
      </trkpt>
      <trkpt lat="45.84379" lon="4.77878">
        <ele>473</ele>
        <time>2019-08-17T09:05:24.000Z</time>
      </trkpt>
      <trkpt lat="45.84382" lon="4.77874">
        <ele>473.60000610352</ele>
        <time>2019-08-17T09:05:25.000Z</time>
      </trkpt>
      <trkpt lat="45.84386" lon="4.7787">
        <ele>473.60000610352</ele>
        <time>2019-08-17T09:05:26.000Z</time>
      </trkpt>
      <trkpt lat="45.84396" lon="4.77858">
        <ele>474</ele>
        <time>2019-08-17T09:05:29.000Z</time>
      </trkpt>
      <trkpt lat="45.84399" lon="4.77854">
        <ele>474.39999389648</ele>
        <time>2019-08-17T09:05:30.000Z</time>
      </trkpt>
      <trkpt lat="45.84402" lon="4.77851">
        <ele>474.79998779297</ele>
        <time>2019-08-17T09:05:31.000Z</time>
      </trkpt>
      <trkpt lat="45.84405" lon="4.77847">
        <ele>475.20001220703</ele>
        <time>2019-08-17T09:05:32.000Z</time>
      </trkpt>
      <trkpt lat="45.84408" lon="4.77843">
        <ele>475.60000610352</ele>
        <time>2019-08-17T09:05:33.000Z</time>
      </trkpt>
      <trkpt lat="45.84419" lon="4.77832">
        <ele>476</ele>
        <time>2019-08-17T09:05:36.000Z</time>
      </trkpt>
      <trkpt lat="45.84422" lon="4.77829">
        <ele>476.39999389648</ele>
        <time>2019-08-17T09:05:37.000Z</time>
      </trkpt>
      <trkpt lat="45.84426" lon="4.77825">
        <ele>476.79998779297</ele>
        <time>2019-08-17T09:05:38.000Z</time>
      </trkpt>
      <trkpt lat="45.84429" lon="4.77822">
        <ele>477.20001220703</ele>
        <time>2019-08-17T09:05:39.000Z</time>
      </trkpt>
      <trkpt lat="45.84432" lon="4.77819">
        <ele>477.60000610352</ele>
        <time>2019-08-17T09:05:40.000Z</time>
      </trkpt>
      <trkpt lat="45.84436" lon="4.77816">
        <ele>477.60000610352</ele>
        <time>2019-08-17T09:05:41.000Z</time>
      </trkpt>
      <trkpt lat="45.84443" lon="4.77809">
        <ele>478</ele>
        <time>2019-08-17T09:05:43.000Z</time>
      </trkpt>
      <trkpt lat="45.84447" lon="4.77806">
        <ele>478.39999389648</ele>
        <time>2019-08-17T09:05:44.000Z</time>
      </trkpt>
      <trkpt lat="45.8445" lon="4.77802">
        <ele>478.79998779297</ele>
        <time>2019-08-17T09:05:45.000Z</time>
      </trkpt>
      <trkpt lat="45.84454" lon="4.77799">
        <ele>479.39999389648</ele>
        <time>2019-08-17T09:05:46.000Z</time>
      </trkpt>
      <trkpt lat="45.84457" lon="4.77795">
        <ele>479.79998779297</ele>
        <time>2019-08-17T09:05:47.000Z</time>
      </trkpt>
      <trkpt lat="45.84461" lon="4.77793">
        <ele>479.79998779297</ele>
        <time>2019-08-17T09:05:48.000Z</time>
      </trkpt>
      <trkpt lat="45.84472" lon="4.77785">
        <ele>480.20001220703</ele>
        <time>2019-08-17T09:05:51.000Z</time>
      </trkpt>
      <trkpt lat="45.84475" lon="4.77782">
        <ele>480.60000610352</ele>
        <time>2019-08-17T09:05:52.000Z</time>
      </trkpt>
      <trkpt lat="45.84479" lon="4.7778">
        <ele>481.20001220703</ele>
        <time>2019-08-17T09:05:53.000Z</time>
      </trkpt>
      <trkpt lat="45.84482" lon="4.77777">
        <ele>481.60000610352</ele>
        <time>2019-08-17T09:05:54.000Z</time>
      </trkpt>
      <trkpt lat="45.84485" lon="4.77774">
        <ele>482.20001220703</ele>
        <time>2019-08-17T09:05:55.000Z</time>
      </trkpt>
      <trkpt lat="45.84489" lon="4.77771">
        <ele>482.20001220703</ele>
        <time>2019-08-17T09:05:56.000Z</time>
      </trkpt>
      <trkpt lat="45.84499" lon="4.77762">
        <ele>482.60000610352</ele>
        <time>2019-08-17T09:05:59.000Z</time>
      </trkpt>
      <trkpt lat="45.84502" lon="4.77759">
        <ele>483</ele>
        <time>2019-08-17T09:06:00.000Z</time>
      </trkpt>
      <trkpt lat="45.84504" lon="4.77756">
        <ele>483.39999389648</ele>
        <time>2019-08-17T09:06:01.000Z</time>
      </trkpt>
      <trkpt lat="45.84507" lon="4.77753">
        <ele>483.79998779297</ele>
        <time>2019-08-17T09:06:02.000Z</time>
      </trkpt>
      <trkpt lat="45.8451" lon="4.77749">
        <ele>484.20001220703</ele>
        <time>2019-08-17T09:06:03.000Z</time>
      </trkpt>
      <trkpt lat="45.84517" lon="4.77736">
        <ele>484.60000610352</ele>
        <time>2019-08-17T09:06:06.000Z</time>
      </trkpt>
      <trkpt lat="45.84519" lon="4.77732">
        <ele>485.39999389648</ele>
        <time>2019-08-17T09:06:07.000Z</time>
      </trkpt>
      <trkpt lat="45.8452" lon="4.77727">
        <ele>485.79998779297</ele>
        <time>2019-08-17T09:06:08.000Z</time>
      </trkpt>
      <trkpt lat="45.84522" lon="4.77722">
        <ele>486.20001220703</ele>
        <time>2019-08-17T09:06:09.000Z</time>
      </trkpt>
      <trkpt lat="45.84526" lon="4.77702">
        <ele>486.60000610352</ele>
        <time>2019-08-17T09:06:13.000Z</time>
      </trkpt>
      <trkpt lat="45.84526" lon="4.77697">
        <ele>487</ele>
        <time>2019-08-17T09:06:14.000Z</time>
      </trkpt>
      <trkpt lat="45.84526" lon="4.77692">
        <ele>487.39999389648</ele>
        <time>2019-08-17T09:06:15.000Z</time>
      </trkpt>
      <trkpt lat="45.84527" lon="4.77686">
        <ele>487.79998779297</ele>
        <time>2019-08-17T09:06:16.000Z</time>
      </trkpt>
      <trkpt lat="45.84527" lon="4.77681">
        <ele>488.39999389648</ele>
        <time>2019-08-17T09:06:17.000Z</time>
      </trkpt>
      <trkpt lat="45.84527" lon="4.7766">
        <ele>488.79998779297</ele>
        <time>2019-08-17T09:06:21.000Z</time>
      </trkpt>
      <trkpt lat="45.84526" lon="4.77654">
        <ele>489.20001220703</ele>
        <time>2019-08-17T09:06:22.000Z</time>
      </trkpt>
      <trkpt lat="45.84527" lon="4.77649">
        <ele>489.60000610352</ele>
        <time>2019-08-17T09:06:23.000Z</time>
      </trkpt>
      <trkpt lat="45.84526" lon="4.77643">
        <ele>490</ele>
        <time>2019-08-17T09:06:24.000Z</time>
      </trkpt>
      <trkpt lat="45.84526" lon="4.77638">
        <ele>490.39999389648</ele>
        <time>2019-08-17T09:06:25.000Z</time>
      </trkpt>
      <trkpt lat="45.84528" lon="4.77623">
        <ele>490.39999389648</ele>
        <time>2019-08-17T09:06:28.000Z</time>
      </trkpt>
      <trkpt lat="45.84534" lon="4.7761">
        <ele>490.79998779297</ele>
        <time>2019-08-17T09:06:31.000Z</time>
      </trkpt>
      <trkpt lat="45.84536" lon="4.77607">
        <ele>491.79998779297</ele>
        <time>2019-08-17T09:06:32.000Z</time>
      </trkpt>
      <trkpt lat="45.84539" lon="4.77604">
        <ele>492.20001220703</ele>
        <time>2019-08-17T09:06:33.000Z</time>
      </trkpt>
      <trkpt lat="45.84541" lon="4.77602">
        <ele>492.60000610352</ele>
        <time>2019-08-17T09:06:34.000Z</time>
      </trkpt>
      <trkpt lat="45.84551" lon="4.77596">
        <ele>493</ele>
        <time>2019-08-17T09:06:37.000Z</time>
      </trkpt>
      <trkpt lat="45.84554" lon="4.77595">
        <ele>493.39999389648</ele>
        <time>2019-08-17T09:06:38.000Z</time>
      </trkpt>
      <trkpt lat="45.84557" lon="4.77594">
        <ele>493.79998779297</ele>
        <time>2019-08-17T09:06:39.000Z</time>
      </trkpt>
      <trkpt lat="45.8456" lon="4.77592">
        <ele>494.20001220703</ele>
        <time>2019-08-17T09:06:40.000Z</time>
      </trkpt>
      <trkpt lat="45.84564" lon="4.7759">
        <ele>494.60000610352</ele>
        <time>2019-08-17T09:06:41.000Z</time>
      </trkpt>
      <trkpt lat="45.8457" lon="4.77587">
        <ele>494.60000610352</ele>
        <time>2019-08-17T09:06:43.000Z</time>
      </trkpt>
      <trkpt lat="45.84577" lon="4.77584">
        <ele>495</ele>
        <time>2019-08-17T09:06:45.000Z</time>
      </trkpt>
      <trkpt lat="45.8458" lon="4.77583">
        <ele>495.60000610352</ele>
        <time>2019-08-17T09:06:46.000Z</time>
      </trkpt>
      <trkpt lat="45.84583" lon="4.77582">
        <ele>496</ele>
        <time>2019-08-17T09:06:47.000Z</time>
      </trkpt>
      <trkpt lat="45.84586" lon="4.7758">
        <ele>496.39999389648</ele>
        <time>2019-08-17T09:06:48.000Z</time>
      </trkpt>
      <trkpt lat="45.84589" lon="4.77578">
        <ele>496.79998779297</ele>
        <time>2019-08-17T09:06:49.000Z</time>
      </trkpt>
      <trkpt lat="45.84595" lon="4.77575">
        <ele>496.79998779297</ele>
        <time>2019-08-17T09:06:51.000Z</time>
      </trkpt>
      <trkpt lat="45.84606" lon="4.77571">
        <ele>497.20001220703</ele>
        <time>2019-08-17T09:06:54.000Z</time>
      </trkpt>
      <trkpt lat="45.84609" lon="4.7757">
        <ele>497.60000610352</ele>
        <time>2019-08-17T09:06:55.000Z</time>
      </trkpt>
      <trkpt lat="45.84613" lon="4.77569">
        <ele>498.60000610352</ele>
        <time>2019-08-17T09:06:56.000Z</time>
      </trkpt>
      <trkpt lat="45.84616" lon="4.77568">
        <ele>499</ele>
        <time>2019-08-17T09:06:57.000Z</time>
      </trkpt>
      <trkpt lat="45.84632" lon="4.77563">
        <ele>499</ele>
        <time>2019-08-17T09:07:02.000Z</time>
      </trkpt>
      <trkpt lat="45.84635" lon="4.77562">
        <ele>499.39999389648</ele>
        <time>2019-08-17T09:07:03.000Z</time>
      </trkpt>
      <trkpt lat="45.84639" lon="4.77561">
        <ele>499.79998779297</ele>
        <time>2019-08-17T09:07:04.000Z</time>
      </trkpt>
      <trkpt lat="45.84643" lon="4.77561">
        <ele>500.39999389648</ele>
        <time>2019-08-17T09:07:05.000Z</time>
      </trkpt>
      <trkpt lat="45.84647" lon="4.77562">
        <ele>500.79998779297</ele>
        <time>2019-08-17T09:07:06.000Z</time>
      </trkpt>
      <trkpt lat="45.8465" lon="4.77561">
        <ele>501.20001220703</ele>
        <time>2019-08-17T09:07:07.000Z</time>
      </trkpt>
      <trkpt lat="45.84657" lon="4.77561">
        <ele>501.20001220703</ele>
        <time>2019-08-17T09:07:09.000Z</time>
      </trkpt>
      <trkpt lat="45.84672" lon="4.77563">
        <ele>501.60000610352</ele>
        <time>2019-08-17T09:07:13.000Z</time>
      </trkpt>
      <trkpt lat="45.84676" lon="4.77564">
        <ele>502</ele>
        <time>2019-08-17T09:07:14.000Z</time>
      </trkpt>
      <trkpt lat="45.8468" lon="4.77565">
        <ele>502.60000610352</ele>
        <time>2019-08-17T09:07:15.000Z</time>
      </trkpt>
      <trkpt lat="45.84684" lon="4.77567">
        <ele>503</ele>
        <time>2019-08-17T09:07:16.000Z</time>
      </trkpt>
      <trkpt lat="45.84688" lon="4.77571">
        <ele>503.39999389648</ele>
        <time>2019-08-17T09:07:17.000Z</time>
      </trkpt>
      <trkpt lat="45.84698" lon="4.77586">
        <ele>503.39999389648</ele>
        <time>2019-08-17T09:07:20.000Z</time>
      </trkpt>
      <trkpt lat="45.847" lon="4.77591">
        <ele>503.39999389648</ele>
        <time>2019-08-17T09:07:21.000Z</time>
      </trkpt>
      <trkpt lat="45.84712" lon="4.77624">
        <ele>503.79998779297</ele>
        <time>2019-08-17T09:07:27.000Z</time>
      </trkpt>
      <trkpt lat="45.84714" lon="4.77629">
        <ele>504.20001220703</ele>
        <time>2019-08-17T09:07:28.000Z</time>
      </trkpt>
      <trkpt lat="45.84716" lon="4.77634">
        <ele>504.79998779297</ele>
        <time>2019-08-17T09:07:29.000Z</time>
      </trkpt>
      <trkpt lat="45.84718" lon="4.77638">
        <ele>505.20001220703</ele>
        <time>2019-08-17T09:07:30.000Z</time>
      </trkpt>
      <trkpt lat="45.84719" lon="4.77643">
        <ele>505.60000610352</ele>
        <time>2019-08-17T09:07:31.000Z</time>
      </trkpt>
      <trkpt lat="45.84721" lon="4.77648">
        <ele>505.60000610352</ele>
        <time>2019-08-17T09:07:32.000Z</time>
      </trkpt>
      <trkpt lat="45.84725" lon="4.77663">
        <ele>506</ele>
        <time>2019-08-17T09:07:35.000Z</time>
      </trkpt>
      <trkpt lat="45.84726" lon="4.77668">
        <ele>506.39999389648</ele>
        <time>2019-08-17T09:07:36.000Z</time>
      </trkpt>
      <trkpt lat="45.84728" lon="4.77674">
        <ele>506.79998779297</ele>
        <time>2019-08-17T09:07:37.000Z</time>
      </trkpt>
      <trkpt lat="45.84728" lon="4.77679">
        <ele>507.20001220703</ele>
        <time>2019-08-17T09:07:38.000Z</time>
      </trkpt>
      <trkpt lat="45.84728" lon="4.77685">
        <ele>507.79998779297</ele>
        <time>2019-08-17T09:07:39.000Z</time>
      </trkpt>
      <trkpt lat="45.84727" lon="4.77701">
        <ele>508.20001220703</ele>
        <time>2019-08-17T09:07:42.000Z</time>
      </trkpt>
      <trkpt lat="45.84726" lon="4.77706">
        <ele>508.60000610352</ele>
        <time>2019-08-17T09:07:43.000Z</time>
      </trkpt>
      <trkpt lat="45.84725" lon="4.77711">
        <ele>509</ele>
        <time>2019-08-17T09:07:44.000Z</time>
      </trkpt>
      <trkpt lat="45.84724" lon="4.77716">
        <ele>509.39999389648</ele>
        <time>2019-08-17T09:07:45.000Z</time>
      </trkpt>
      <trkpt lat="45.84722" lon="4.77721">
        <ele>509.79998779297</ele>
        <time>2019-08-17T09:07:46.000Z</time>
      </trkpt>
      <trkpt lat="45.84715" lon="4.77739">
        <ele>510.20001220703</ele>
        <time>2019-08-17T09:07:50.000Z</time>
      </trkpt>
      <trkpt lat="45.84713" lon="4.77743">
        <ele>510.60000610352</ele>
        <time>2019-08-17T09:07:51.000Z</time>
      </trkpt>
      <trkpt lat="45.84711" lon="4.77748">
        <ele>511</ele>
        <time>2019-08-17T09:07:52.000Z</time>
      </trkpt>
      <trkpt lat="45.84709" lon="4.77752">
        <ele>511.60000610352</ele>
        <time>2019-08-17T09:07:53.000Z</time>
      </trkpt>
      <trkpt lat="45.84708" lon="4.77757">
        <ele>512</ele>
        <time>2019-08-17T09:07:54.000Z</time>
      </trkpt>
      <trkpt lat="45.84702" lon="4.77775">
        <ele>512</ele>
        <time>2019-08-17T09:07:58.000Z</time>
      </trkpt>
      <trkpt lat="45.847" lon="4.7778">
        <ele>512.40002441406</ele>
        <time>2019-08-17T09:07:59.000Z</time>
      </trkpt>
      <trkpt lat="45.84699" lon="4.77784">
        <ele>512.79998779297</ele>
        <time>2019-08-17T09:08:00.000Z</time>
      </trkpt>
      <trkpt lat="45.84697" lon="4.77789">
        <ele>513.40002441406</ele>
        <time>2019-08-17T09:08:01.000Z</time>
      </trkpt>
      <trkpt lat="45.84695" lon="4.77793">
        <ele>513.79998779297</ele>
        <time>2019-08-17T09:08:02.000Z</time>
      </trkpt>
      <trkpt lat="45.84693" lon="4.77798">
        <ele>514.20001220703</ele>
        <time>2019-08-17T09:08:03.000Z</time>
      </trkpt>
      <trkpt lat="45.8469" lon="4.77807">
        <ele>514.20001220703</ele>
        <time>2019-08-17T09:08:05.000Z</time>
      </trkpt>
      <trkpt lat="45.84685" lon="4.77821">
        <ele>514.59997558594</ele>
        <time>2019-08-17T09:08:08.000Z</time>
      </trkpt>
      <trkpt lat="45.84683" lon="4.77825">
        <ele>515</ele>
        <time>2019-08-17T09:08:09.000Z</time>
      </trkpt>
      <trkpt lat="45.84681" lon="4.7783">
        <ele>516</ele>
        <time>2019-08-17T09:08:10.000Z</time>
      </trkpt>
      <trkpt lat="45.84679" lon="4.77834">
        <ele>516.40002441406</ele>
        <time>2019-08-17T09:08:11.000Z</time>
      </trkpt>
      <trkpt lat="45.84677" lon="4.77838">
        <ele>516.40002441406</ele>
        <time>2019-08-17T09:08:12.000Z</time>
      </trkpt>
      <trkpt lat="45.84671" lon="4.7785">
        <ele>516.79998779297</ele>
        <time>2019-08-17T09:08:15.000Z</time>
      </trkpt>
      <trkpt lat="45.84668" lon="4.77854">
        <ele>517.20001220703</ele>
        <time>2019-08-17T09:08:16.000Z</time>
      </trkpt>
      <trkpt lat="45.84665" lon="4.77858">
        <ele>517.59997558594</ele>
        <time>2019-08-17T09:08:17.000Z</time>
      </trkpt>
      <trkpt lat="45.84662" lon="4.77861">
        <ele>518</ele>
        <time>2019-08-17T09:08:18.000Z</time>
      </trkpt>
      <trkpt lat="45.84659" lon="4.77864">
        <ele>518.40002441406</ele>
        <time>2019-08-17T09:08:19.000Z</time>
      </trkpt>
      <trkpt lat="45.84648" lon="4.77876">
        <ele>518.40002441406</ele>
        <time>2019-08-17T09:08:23.000Z</time>
      </trkpt>
      <trkpt lat="45.84645" lon="4.77879">
        <ele>519</ele>
        <time>2019-08-17T09:08:24.000Z</time>
      </trkpt>
      <trkpt lat="45.84642" lon="4.77883">
        <ele>519.40002441406</ele>
        <time>2019-08-17T09:08:25.000Z</time>
      </trkpt>
      <trkpt lat="45.8464" lon="4.77888">
        <ele>519.79998779297</ele>
        <time>2019-08-17T09:08:26.000Z</time>
      </trkpt>
      <trkpt lat="45.84638" lon="4.77893">
        <ele>520.20001220703</ele>
        <time>2019-08-17T09:08:27.000Z</time>
      </trkpt>
      <trkpt lat="45.84637" lon="4.77899">
        <ele>520.79998779297</ele>
        <time>2019-08-17T09:08:28.000Z</time>
      </trkpt>
      <trkpt lat="45.84643" lon="4.7792">
        <ele>520.79998779297</ele>
        <time>2019-08-17T09:08:32.000Z</time>
      </trkpt>
      <trkpt lat="45.84654" lon="4.77927">
        <ele>521.59997558594</ele>
        <time>2019-08-17T09:08:35.000Z</time>
      </trkpt>
      <trkpt lat="45.84659" lon="4.77925">
        <ele>522</ele>
        <time>2019-08-17T09:08:36.000Z</time>
      </trkpt>
      <trkpt lat="45.84663" lon="4.77924">
        <ele>522.40002441406</ele>
        <time>2019-08-17T09:08:37.000Z</time>
      </trkpt>
      <trkpt lat="45.84667" lon="4.7792">
        <ele>523</ele>
        <time>2019-08-17T09:08:38.000Z</time>
      </trkpt>
      <trkpt lat="45.84674" lon="4.7791">
        <ele>523</ele>
        <time>2019-08-17T09:08:40.000Z</time>
      </trkpt>
      <trkpt lat="45.84677" lon="4.77905">
        <ele>523</ele>
        <time>2019-08-17T09:08:41.000Z</time>
      </trkpt>
      <trkpt lat="45.84686" lon="4.7789">
        <ele>523.40002441406</ele>
        <time>2019-08-17T09:08:44.000Z</time>
      </trkpt>
      <trkpt lat="45.84688" lon="4.77884">
        <ele>523.79998779297</ele>
        <time>2019-08-17T09:08:45.000Z</time>
      </trkpt>
      <trkpt lat="45.8469" lon="4.77879">
        <ele>524.20001220703</ele>
        <time>2019-08-17T09:08:46.000Z</time>
      </trkpt>
      <trkpt lat="45.84692" lon="4.77874">
        <ele>524.59997558594</ele>
        <time>2019-08-17T09:08:47.000Z</time>
      </trkpt>
      <trkpt lat="45.84694" lon="4.77869">
        <ele>525</ele>
        <time>2019-08-17T09:08:48.000Z</time>
      </trkpt>
      <trkpt lat="45.84696" lon="4.77864">
        <ele>525</ele>
        <time>2019-08-17T09:08:49.000Z</time>
      </trkpt>
      <trkpt lat="45.847" lon="4.77854">
        <ele>525.40002441406</ele>
        <time>2019-08-17T09:08:51.000Z</time>
      </trkpt>
      <trkpt lat="45.84701" lon="4.77848">
        <ele>525.79998779297</ele>
        <time>2019-08-17T09:08:52.000Z</time>
      </trkpt>
      <trkpt lat="45.84704" lon="4.77844">
        <ele>526.40002441406</ele>
        <time>2019-08-17T09:08:53.000Z</time>
      </trkpt>
      <trkpt lat="45.84706" lon="4.77839">
        <ele>526.79998779297</ele>
        <time>2019-08-17T09:08:54.000Z</time>
      </trkpt>
      <trkpt lat="45.84709" lon="4.77834">
        <ele>527.20001220703</ele>
        <time>2019-08-17T09:08:55.000Z</time>
      </trkpt>
      <trkpt lat="45.84712" lon="4.77829">
        <ele>527.20001220703</ele>
        <time>2019-08-17T09:08:56.000Z</time>
      </trkpt>
      <trkpt lat="45.84724" lon="4.77824">
        <ele>527.20001220703</ele>
        <time>2019-08-17T09:08:59.000Z</time>
      </trkpt>
      <trkpt lat="45.84731" lon="4.77833">
        <ele>527.59997558594</ele>
        <time>2019-08-17T09:09:01.000Z</time>
      </trkpt>
      <trkpt lat="45.84734" lon="4.7784">
        <ele>528.20001220703</ele>
        <time>2019-08-17T09:09:02.000Z</time>
      </trkpt>
      <trkpt lat="45.84735" lon="4.77848">
        <ele>528.59997558594</ele>
        <time>2019-08-17T09:09:03.000Z</time>
      </trkpt>
      <trkpt lat="45.84734" lon="4.77856">
        <ele>529</ele>
        <time>2019-08-17T09:09:04.000Z</time>
      </trkpt>
      <trkpt lat="45.84731" lon="4.77865">
        <ele>529.59997558594</ele>
        <time>2019-08-17T09:09:05.000Z</time>
      </trkpt>
      <trkpt lat="45.84724" lon="4.77878">
        <ele>530</ele>
        <time>2019-08-17T09:09:07.000Z</time>
      </trkpt>
      <trkpt lat="45.8472" lon="4.77885">
        <ele>530.40002441406</ele>
        <time>2019-08-17T09:09:08.000Z</time>
      </trkpt>
      <trkpt lat="45.84717" lon="4.77891">
        <ele>530.79998779297</ele>
        <time>2019-08-17T09:09:09.000Z</time>
      </trkpt>
      <trkpt lat="45.84714" lon="4.77898">
        <ele>531.20001220703</ele>
        <time>2019-08-17T09:09:10.000Z</time>
      </trkpt>
      <trkpt lat="45.8471" lon="4.77905">
        <ele>531.79998779297</ele>
        <time>2019-08-17T09:09:11.000Z</time>
      </trkpt>
      <trkpt lat="45.84704" lon="4.77918">
        <ele>532.20001220703</ele>
        <time>2019-08-17T09:09:13.000Z</time>
      </trkpt>
      <trkpt lat="45.84701" lon="4.77925">
        <ele>532.59997558594</ele>
        <time>2019-08-17T09:09:14.000Z</time>
      </trkpt>
      <trkpt lat="45.84697" lon="4.77932">
        <ele>533</ele>
        <time>2019-08-17T09:09:15.000Z</time>
      </trkpt>
      <trkpt lat="45.84694" lon="4.77939">
        <ele>533.59997558594</ele>
        <time>2019-08-17T09:09:16.000Z</time>
      </trkpt>
      <trkpt lat="45.84691" lon="4.77947">
        <ele>534</ele>
        <time>2019-08-17T09:09:17.000Z</time>
      </trkpt>
      <trkpt lat="45.84684" lon="4.77962">
        <ele>534.40002441406</ele>
        <time>2019-08-17T09:09:19.000Z</time>
      </trkpt>
      <trkpt lat="45.84682" lon="4.77969">
        <ele>534.79998779297</ele>
        <time>2019-08-17T09:09:20.000Z</time>
      </trkpt>
      <trkpt lat="45.8468" lon="4.77976">
        <ele>535.20001220703</ele>
        <time>2019-08-17T09:09:21.000Z</time>
      </trkpt>
      <trkpt lat="45.84678" lon="4.77983">
        <ele>535.59997558594</ele>
        <time>2019-08-17T09:09:22.000Z</time>
      </trkpt>
      <trkpt lat="45.84677" lon="4.7799">
        <ele>536</ele>
        <time>2019-08-17T09:09:23.000Z</time>
      </trkpt>
      <trkpt lat="45.84676" lon="4.77996">
        <ele>536.40002441406</ele>
        <time>2019-08-17T09:09:24.000Z</time>
      </trkpt>
      <trkpt lat="45.84676" lon="4.78001">
        <ele>537</ele>
        <time>2019-08-17T09:09:25.000Z</time>
      </trkpt>
      <trkpt lat="45.84675" lon="4.78006">
        <ele>537.40002441406</ele>
        <time>2019-08-17T09:09:26.000Z</time>
      </trkpt>
      <trkpt lat="45.84674" lon="4.78011">
        <ele>537.79998779297</ele>
        <time>2019-08-17T09:09:27.000Z</time>
      </trkpt>
      <trkpt lat="45.84673" lon="4.78014">
        <ele>538.40002441406</ele>
        <time>2019-08-17T09:09:28.000Z</time>
      </trkpt>
      <trkpt lat="45.84672" lon="4.78019">
        <ele>538.40002441406</ele>
        <time>2019-08-17T09:09:31.000Z</time>
      </trkpt>
      <trkpt lat="45.84672" lon="4.78023">
        <ele>538.40002441406</ele>
        <time>2019-08-17T09:09:58.000Z</time>
      </trkpt>
      <trkpt lat="45.84672" lon="4.78024">
        <ele>538.40002441406</ele>
        <time>2019-08-17T09:09:59.000Z</time>
      </trkpt>
      <trkpt lat="45.84672" lon="4.78027">
        <ele>538.40002441406</ele>
        <time>2019-08-17T09:10:41.000Z</time>
      </trkpt>
      <trkpt lat="45.84672" lon="4.78029">
        <ele>538.40002441406</ele>
        <time>2019-08-17T09:10:42.000Z</time>
      </trkpt>
      <trkpt lat="45.84671" lon="4.78031">
        <ele>538.40002441406</ele>
        <time>2019-08-17T09:10:45.000Z</time>
      </trkpt>
      <trkpt lat="45.84672" lon="4.78038">
        <ele>538.40002441406</ele>
        <time>2019-08-17T09:14:36.000Z</time>
      </trkpt>
      <trkpt lat="45.8467" lon="4.7804">
        <ele>538.40002441406</ele>
        <time>2019-08-17T09:14:39.000Z</time>
      </trkpt>
      <trkpt lat="45.84672" lon="4.78029">
        <ele>538.40002441406</ele>
        <time>2019-08-17T09:15:29.000Z</time>
      </trkpt>
      <trkpt lat="45.84673" lon="4.78027">
        <ele>538.40002441406</ele>
        <time>2019-08-17T09:15:30.000Z</time>
      </trkpt>
      <trkpt lat="45.84674" lon="4.78025">
        <ele>538.79998779297</ele>
        <time>2019-08-17T09:15:31.000Z</time>
      </trkpt>
      <trkpt lat="45.84675" lon="4.78023">
        <ele>539.20001220703</ele>
        <time>2019-08-17T09:15:32.000Z</time>
      </trkpt>
      <trkpt lat="45.84675" lon="4.78022">
        <ele>539.59997558594</ele>
        <time>2019-08-17T09:15:33.000Z</time>
      </trkpt>
      <trkpt lat="45.84675" lon="4.78022">
        <ele>540</ele>
        <time>2019-08-17T09:15:34.000Z</time>
      </trkpt>
      <trkpt lat="45.84677" lon="4.7802">
        <ele>540.40002441406</ele>
        <time>2019-08-17T09:15:35.000Z</time>
      </trkpt>
      <trkpt lat="45.84678" lon="4.78017">
        <ele>540.40002441406</ele>
        <time>2019-08-17T09:15:37.000Z</time>
      </trkpt>
      <trkpt lat="45.84675" lon="4.78017">
        <ele>540.40002441406</ele>
        <time>2019-08-17T09:15:39.000Z</time>
      </trkpt>
      <trkpt lat="45.84675" lon="4.78017">
        <ele>540.40002441406</ele>
        <time>2019-08-17T09:15:41.000Z</time>
      </trkpt>
      <trkpt lat="45.84674" lon="4.78024">
        <ele>540.40002441406</ele>
        <time>2019-08-17T09:17:08.000Z</time>
      </trkpt>
      <trkpt lat="45.84676" lon="4.78023">
        <ele>540.40002441406</ele>
        <time>2019-08-17T09:17:09.000Z</time>
      </trkpt>
      <trkpt lat="45.84677" lon="4.78023">
        <ele>540.40002441406</ele>
        <time>2019-08-17T09:17:10.000Z</time>
      </trkpt>
      <trkpt lat="45.84684" lon="4.78017">
        <ele>540.40002441406</ele>
        <time>2019-08-17T09:17:13.000Z</time>
      </trkpt>
      <trkpt lat="45.84689" lon="4.7802">
        <ele>540.79998779297</ele>
        <time>2019-08-17T09:17:15.000Z</time>
      </trkpt>
      <trkpt lat="45.84692" lon="4.78021">
        <ele>541.20001220703</ele>
        <time>2019-08-17T09:17:16.000Z</time>
      </trkpt>
      <trkpt lat="45.84694" lon="4.78022">
        <ele>541.59997558594</ele>
        <time>2019-08-17T09:17:17.000Z</time>
      </trkpt>
      <trkpt lat="45.84697" lon="4.78023">
        <ele>542</ele>
        <time>2019-08-17T09:17:18.000Z</time>
      </trkpt>
      <trkpt lat="45.847" lon="4.78024">
        <ele>542.40002441406</ele>
        <time>2019-08-17T09:17:19.000Z</time>
      </trkpt>
      <trkpt lat="45.84714" lon="4.78024">
        <ele>542.40002441406</ele>
        <time>2019-08-17T09:17:24.000Z</time>
      </trkpt>
      <trkpt lat="45.84729" lon="4.78026">
        <ele>542.40002441406</ele>
        <time>2019-08-17T09:17:30.000Z</time>
      </trkpt>
      <trkpt lat="45.84738" lon="4.78026">
        <ele>542.79998779297</ele>
        <time>2019-08-17T09:17:33.000Z</time>
      </trkpt>
      <trkpt lat="45.84741" lon="4.78025">
        <ele>543.20001220703</ele>
        <time>2019-08-17T09:17:34.000Z</time>
      </trkpt>
      <trkpt lat="45.84744" lon="4.78024">
        <ele>543.59997558594</ele>
        <time>2019-08-17T09:17:35.000Z</time>
      </trkpt>
      <trkpt lat="45.84747" lon="4.78025">
        <ele>544</ele>
        <time>2019-08-17T09:17:36.000Z</time>
      </trkpt>
      <trkpt lat="45.84749" lon="4.78025">
        <ele>544.40002441406</ele>
        <time>2019-08-17T09:17:37.000Z</time>
      </trkpt>
      <trkpt lat="45.84765" lon="4.78023">
        <ele>544.40002441406</ele>
        <time>2019-08-17T09:17:42.000Z</time>
      </trkpt>
      <trkpt lat="45.84769" lon="4.78023">
        <ele>544.79998779297</ele>
        <time>2019-08-17T09:17:43.000Z</time>
      </trkpt>
      <trkpt lat="45.84772" lon="4.78023">
        <ele>545.40002441406</ele>
        <time>2019-08-17T09:17:44.000Z</time>
      </trkpt>
      <trkpt lat="45.84775" lon="4.78023">
        <ele>545.79998779297</ele>
        <time>2019-08-17T09:17:45.000Z</time>
      </trkpt>
      <trkpt lat="45.84778" lon="4.78022">
        <ele>546.20001220703</ele>
        <time>2019-08-17T09:17:46.000Z</time>
      </trkpt>
      <trkpt lat="45.84781" lon="4.78022">
        <ele>546.59997558594</ele>
        <time>2019-08-17T09:17:47.000Z</time>
      </trkpt>
      <trkpt lat="45.84791" lon="4.78022">
        <ele>546.59997558594</ele>
        <time>2019-08-17T09:17:50.000Z</time>
      </trkpt>
      <trkpt lat="45.84806" lon="4.78024">
        <ele>547</ele>
        <time>2019-08-17T09:17:55.000Z</time>
      </trkpt>
      <trkpt lat="45.84809" lon="4.78025">
        <ele>547.59997558594</ele>
        <time>2019-08-17T09:17:56.000Z</time>
      </trkpt>
      <trkpt lat="45.84813" lon="4.78026">
        <ele>548</ele>
        <time>2019-08-17T09:17:57.000Z</time>
      </trkpt>
      <trkpt lat="45.84817" lon="4.78026">
        <ele>548.40002441406</ele>
        <time>2019-08-17T09:17:58.000Z</time>
      </trkpt>
      <trkpt lat="45.84821" lon="4.78028">
        <ele>548.79998779297</ele>
        <time>2019-08-17T09:17:59.000Z</time>
      </trkpt>
      <trkpt lat="45.84827" lon="4.78031">
        <ele>548.79998779297</ele>
        <time>2019-08-17T09:18:01.000Z</time>
      </trkpt>
      <trkpt lat="45.84846" lon="4.78042">
        <ele>549.20001220703</ele>
        <time>2019-08-17T09:18:07.000Z</time>
      </trkpt>
      <trkpt lat="45.84849" lon="4.78045">
        <ele>549.59997558594</ele>
        <time>2019-08-17T09:18:08.000Z</time>
      </trkpt>
      <trkpt lat="45.84852" lon="4.78047">
        <ele>550</ele>
        <time>2019-08-17T09:18:09.000Z</time>
      </trkpt>
      <trkpt lat="45.84855" lon="4.78048">
        <ele>550.40002441406</ele>
        <time>2019-08-17T09:18:10.000Z</time>
      </trkpt>
      <trkpt lat="45.84859" lon="4.78052">
        <ele>550.79998779297</ele>
        <time>2019-08-17T09:18:11.000Z</time>
      </trkpt>
      <trkpt lat="45.84876" lon="4.78064">
        <ele>551.20001220703</ele>
        <time>2019-08-17T09:18:17.000Z</time>
      </trkpt>
      <trkpt lat="45.84879" lon="4.78066">
        <ele>551.79998779297</ele>
        <time>2019-08-17T09:18:18.000Z</time>
      </trkpt>
      <trkpt lat="45.84882" lon="4.78068">
        <ele>552.20001220703</ele>
        <time>2019-08-17T09:18:19.000Z</time>
      </trkpt>
      <trkpt lat="45.84885" lon="4.7807">
        <ele>552.59997558594</ele>
        <time>2019-08-17T09:18:20.000Z</time>
      </trkpt>
      <trkpt lat="45.84888" lon="4.78072">
        <ele>553</ele>
        <time>2019-08-17T09:18:21.000Z</time>
      </trkpt>
      <trkpt lat="45.849" lon="4.78081">
        <ele>553</ele>
        <time>2019-08-17T09:18:26.000Z</time>
      </trkpt>
      <trkpt lat="45.84902" lon="4.78083">
        <ele>554</ele>
        <time>2019-08-17T09:18:27.000Z</time>
      </trkpt>
      <trkpt lat="45.84904" lon="4.78085">
        <ele>554.40002441406</ele>
        <time>2019-08-17T09:18:28.000Z</time>
      </trkpt>
      <trkpt lat="45.84906" lon="4.78087">
        <ele>554.79998779297</ele>
        <time>2019-08-17T09:18:29.000Z</time>
      </trkpt>
      <trkpt lat="45.84908" lon="4.7809">
        <ele>555.20001220703</ele>
        <time>2019-08-17T09:18:30.000Z</time>
      </trkpt>
      <trkpt lat="45.84916" lon="4.78095">
        <ele>555.20001220703</ele>
        <time>2019-08-17T09:18:34.000Z</time>
      </trkpt>
      <trkpt lat="45.84933" lon="4.78112">
        <ele>555.20001220703</ele>
        <time>2019-08-17T09:18:42.000Z</time>
      </trkpt>
      <trkpt lat="45.84949" lon="4.78145">
        <ele>555.20001220703</ele>
        <time>2019-08-17T09:18:49.000Z</time>
      </trkpt>
      <trkpt lat="45.84968" lon="4.78174">
        <ele>555.20001220703</ele>
        <time>2019-08-17T09:18:56.000Z</time>
      </trkpt>
      <trkpt lat="45.84974" lon="4.7818">
        <ele>555.20001220703</ele>
        <time>2019-08-17T09:18:58.000Z</time>
      </trkpt>
      <trkpt lat="45.84977" lon="4.78184">
        <ele>555.20001220703</ele>
        <time>2019-08-17T09:18:59.000Z</time>
      </trkpt>
      <trkpt lat="45.84994" lon="4.7821">
        <ele>555.20001220703</ele>
        <time>2019-08-17T09:19:05.000Z</time>
      </trkpt>
      <trkpt lat="45.84997" lon="4.78215">
        <ele>555.20001220703</ele>
        <time>2019-08-17T09:19:06.000Z</time>
      </trkpt>
      <trkpt lat="45.85002" lon="4.78225">
        <ele>555.20001220703</ele>
        <time>2019-08-17T09:19:08.000Z</time>
      </trkpt>
      <trkpt lat="45.85008" lon="4.78239">
        <ele>555.20001220703</ele>
        <time>2019-08-17T09:19:10.000Z</time>
      </trkpt>
      <trkpt lat="45.85004" lon="4.78265">
        <ele>555.20001220703</ele>
        <time>2019-08-17T09:19:13.000Z</time>
      </trkpt>
      <trkpt lat="45.84991" lon="4.78273">
        <ele>554.79998779297</ele>
        <time>2019-08-17T09:19:15.000Z</time>
      </trkpt>
      <trkpt lat="45.84984" lon="4.78273">
        <ele>554.40002441406</ele>
        <time>2019-08-17T09:19:16.000Z</time>
      </trkpt>
      <trkpt lat="45.84978" lon="4.78269">
        <ele>553.59997558594</ele>
        <time>2019-08-17T09:19:17.000Z</time>
      </trkpt>
      <trkpt lat="45.84973" lon="4.78262">
        <ele>553.20001220703</ele>
        <time>2019-08-17T09:19:18.000Z</time>
      </trkpt>
      <trkpt lat="45.8497" lon="4.78252">
        <ele>553.20001220703</ele>
        <time>2019-08-17T09:19:19.000Z</time>
      </trkpt>
      <trkpt lat="45.84955" lon="4.78219">
        <ele>553.20001220703</ele>
        <time>2019-08-17T09:19:23.000Z</time>
      </trkpt>
      <trkpt lat="45.84949" lon="4.78212">
        <ele>553.20001220703</ele>
        <time>2019-08-17T09:19:24.000Z</time>
      </trkpt>
      <trkpt lat="45.84937" lon="4.78206">
        <ele>553.20001220703</ele>
        <time>2019-08-17T09:19:26.000Z</time>
      </trkpt>
      <trkpt lat="45.84929" lon="4.78212">
        <ele>552.79998779297</ele>
        <time>2019-08-17T09:19:27.000Z</time>
      </trkpt>
      <trkpt lat="45.84924" lon="4.78219">
        <ele>552.40002441406</ele>
        <time>2019-08-17T09:19:28.000Z</time>
      </trkpt>
      <trkpt lat="45.84921" lon="4.78229">
        <ele>552</ele>
        <time>2019-08-17T09:19:29.000Z</time>
      </trkpt>
      <trkpt lat="45.84919" lon="4.78239">
        <ele>551.59997558594</ele>
        <time>2019-08-17T09:19:30.000Z</time>
      </trkpt>
      <trkpt lat="45.8492" lon="4.7825">
        <ele>551</ele>
        <time>2019-08-17T09:19:31.000Z</time>
      </trkpt>
      <trkpt lat="45.84924" lon="4.78271">
        <ele>551</ele>
        <time>2019-08-17T09:19:33.000Z</time>
      </trkpt>
      <trkpt lat="45.84933" lon="4.78291">
        <ele>550.59997558594</ele>
        <time>2019-08-17T09:19:35.000Z</time>
      </trkpt>
      <trkpt lat="45.84938" lon="4.783">
        <ele>550.20001220703</ele>
        <time>2019-08-17T09:19:36.000Z</time>
      </trkpt>
      <trkpt lat="45.84944" lon="4.78309">
        <ele>549.79998779297</ele>
        <time>2019-08-17T09:19:37.000Z</time>
      </trkpt>
      <trkpt lat="45.8495" lon="4.78316">
        <ele>549.40002441406</ele>
        <time>2019-08-17T09:19:38.000Z</time>
      </trkpt>
      <trkpt lat="45.84957" lon="4.78322">
        <ele>548.79998779297</ele>
        <time>2019-08-17T09:19:39.000Z</time>
      </trkpt>
      <trkpt lat="45.84964" lon="4.78327">
        <ele>548</ele>
        <time>2019-08-17T09:19:40.000Z</time>
      </trkpt>
      <trkpt lat="45.84972" lon="4.7833">
        <ele>547.40002441406</ele>
        <time>2019-08-17T09:19:41.000Z</time>
      </trkpt>
      <trkpt lat="45.84981" lon="4.78329">
        <ele>547</ele>
        <time>2019-08-17T09:19:42.000Z</time>
      </trkpt>
      <trkpt lat="45.85007" lon="4.78319">
        <ele>547</ele>
        <time>2019-08-17T09:19:45.000Z</time>
      </trkpt>
      <trkpt lat="45.85025" lon="4.78308">
        <ele>546.40002441406</ele>
        <time>2019-08-17T09:19:47.000Z</time>
      </trkpt>
      <trkpt lat="45.85034" lon="4.78302">
        <ele>546</ele>
        <time>2019-08-17T09:19:48.000Z</time>
      </trkpt>
      <trkpt lat="45.85042" lon="4.78296">
        <ele>545.59997558594</ele>
        <time>2019-08-17T09:19:49.000Z</time>
      </trkpt>
      <trkpt lat="45.85052" lon="4.78289">
        <ele>544.79998779297</ele>
        <time>2019-08-17T09:19:50.000Z</time>
      </trkpt>
      <trkpt lat="45.85062" lon="4.78283">
        <ele>544.20001220703</ele>
        <time>2019-08-17T09:19:51.000Z</time>
      </trkpt>
      <trkpt lat="45.85071" lon="4.78277">
        <ele>543.40002441406</ele>
        <time>2019-08-17T09:19:52.000Z</time>
      </trkpt>
      <trkpt lat="45.85081" lon="4.78271">
        <ele>542.79998779297</ele>
        <time>2019-08-17T09:19:53.000Z</time>
      </trkpt>
      <trkpt lat="45.85091" lon="4.78265">
        <ele>542.20001220703</ele>
        <time>2019-08-17T09:19:54.000Z</time>
      </trkpt>
      <trkpt lat="45.85101" lon="4.7826">
        <ele>541.59997558594</ele>
        <time>2019-08-17T09:19:55.000Z</time>
      </trkpt>
      <trkpt lat="45.85112" lon="4.78255">
        <ele>541</ele>
        <time>2019-08-17T09:19:56.000Z</time>
      </trkpt>
      <trkpt lat="45.85123" lon="4.78252">
        <ele>540.59997558594</ele>
        <time>2019-08-17T09:19:57.000Z</time>
      </trkpt>
      <trkpt lat="45.85134" lon="4.7825">
        <ele>539.79998779297</ele>
        <time>2019-08-17T09:19:58.000Z</time>
      </trkpt>
      <trkpt lat="45.85144" lon="4.7825">
        <ele>539.20001220703</ele>
        <time>2019-08-17T09:19:59.000Z</time>
      </trkpt>
      <trkpt lat="45.85155" lon="4.78252">
        <ele>538.59997558594</ele>
        <time>2019-08-17T09:20:00.000Z</time>
      </trkpt>
      <trkpt lat="45.85166" lon="4.78256">
        <ele>537.79998779297</ele>
        <time>2019-08-17T09:20:01.000Z</time>
      </trkpt>
      <trkpt lat="45.85177" lon="4.78261">
        <ele>537.20001220703</ele>
        <time>2019-08-17T09:20:02.000Z</time>
      </trkpt>
      <trkpt lat="45.85187" lon="4.78268">
        <ele>536.59997558594</ele>
        <time>2019-08-17T09:20:03.000Z</time>
      </trkpt>
      <trkpt lat="45.85198" lon="4.78276">
        <ele>535.79998779297</ele>
        <time>2019-08-17T09:20:04.000Z</time>
      </trkpt>
      <trkpt lat="45.85208" lon="4.78286">
        <ele>535.20001220703</ele>
        <time>2019-08-17T09:20:05.000Z</time>
      </trkpt>
      <trkpt lat="45.85217" lon="4.78297">
        <ele>534</ele>
        <time>2019-08-17T09:20:06.000Z</time>
      </trkpt>
      <trkpt lat="45.85226" lon="4.78308">
        <ele>533.40002441406</ele>
        <time>2019-08-17T09:20:07.000Z</time>
      </trkpt>
      <trkpt lat="45.85235" lon="4.78319">
        <ele>532.59997558594</ele>
        <time>2019-08-17T09:20:08.000Z</time>
      </trkpt>
      <trkpt lat="45.85243" lon="4.78331">
        <ele>531.79998779297</ele>
        <time>2019-08-17T09:20:09.000Z</time>
      </trkpt>
      <trkpt lat="45.85251" lon="4.78343">
        <ele>531</ele>
        <time>2019-08-17T09:20:10.000Z</time>
      </trkpt>
      <trkpt lat="45.8526" lon="4.78355">
        <ele>530.20001220703</ele>
        <time>2019-08-17T09:20:11.000Z</time>
      </trkpt>
      <trkpt lat="45.85268" lon="4.78367">
        <ele>529.59997558594</ele>
        <time>2019-08-17T09:20:12.000Z</time>
      </trkpt>
      <trkpt lat="45.85276" lon="4.7838">
        <ele>529</ele>
        <time>2019-08-17T09:20:13.000Z</time>
      </trkpt>
      <trkpt lat="45.85283" lon="4.78393">
        <ele>528.40002441406</ele>
        <time>2019-08-17T09:20:14.000Z</time>
      </trkpt>
      <trkpt lat="45.8529" lon="4.78406">
        <ele>527.79998779297</ele>
        <time>2019-08-17T09:20:15.000Z</time>
      </trkpt>
      <trkpt lat="45.85297" lon="4.78419">
        <ele>527.20001220703</ele>
        <time>2019-08-17T09:20:16.000Z</time>
      </trkpt>
      <trkpt lat="45.85303" lon="4.78432">
        <ele>526.59997558594</ele>
        <time>2019-08-17T09:20:17.000Z</time>
      </trkpt>
      <trkpt lat="45.85309" lon="4.78444">
        <ele>525.59997558594</ele>
        <time>2019-08-17T09:20:18.000Z</time>
      </trkpt>
      <trkpt lat="45.85315" lon="4.78457">
        <ele>524.79998779297</ele>
        <time>2019-08-17T09:20:19.000Z</time>
      </trkpt>
      <trkpt lat="45.85322" lon="4.78468">
        <ele>524</ele>
        <time>2019-08-17T09:20:20.000Z</time>
      </trkpt>
      <trkpt lat="45.8533" lon="4.78478">
        <ele>523.20001220703</ele>
        <time>2019-08-17T09:20:21.000Z</time>
      </trkpt>
      <trkpt lat="45.85339" lon="4.78485">
        <ele>522.59997558594</ele>
        <time>2019-08-17T09:20:22.000Z</time>
      </trkpt>
      <trkpt lat="45.85349" lon="4.78491">
        <ele>521.79998779297</ele>
        <time>2019-08-17T09:20:23.000Z</time>
      </trkpt>
      <trkpt lat="45.8536" lon="4.78494">
        <ele>521</ele>
        <time>2019-08-17T09:20:24.000Z</time>
      </trkpt>
      <trkpt lat="45.8537" lon="4.78496">
        <ele>520.20001220703</ele>
        <time>2019-08-17T09:20:25.000Z</time>
      </trkpt>
      <trkpt lat="45.85381" lon="4.78498">
        <ele>519.59997558594</ele>
        <time>2019-08-17T09:20:26.000Z</time>
      </trkpt>
      <trkpt lat="45.85392" lon="4.78499">
        <ele>519.20001220703</ele>
        <time>2019-08-17T09:20:27.000Z</time>
      </trkpt>
      <trkpt lat="45.85403" lon="4.78502">
        <ele>518.79998779297</ele>
        <time>2019-08-17T09:20:28.000Z</time>
      </trkpt>
      <trkpt lat="45.85414" lon="4.78505">
        <ele>518</ele>
        <time>2019-08-17T09:20:29.000Z</time>
      </trkpt>
      <trkpt lat="45.85424" lon="4.78509">
        <ele>517.20001220703</ele>
        <time>2019-08-17T09:20:30.000Z</time>
      </trkpt>
      <trkpt lat="45.85434" lon="4.78515">
        <ele>515.79998779297</ele>
        <time>2019-08-17T09:20:31.000Z</time>
      </trkpt>
      <trkpt lat="45.85444" lon="4.78522">
        <ele>515</ele>
        <time>2019-08-17T09:20:32.000Z</time>
      </trkpt>
      <trkpt lat="45.85454" lon="4.7853">
        <ele>514.59997558594</ele>
        <time>2019-08-17T09:20:33.000Z</time>
      </trkpt>
      <trkpt lat="45.85463" lon="4.78537">
        <ele>514.20001220703</ele>
        <time>2019-08-17T09:20:34.000Z</time>
      </trkpt>
      <trkpt lat="45.85473" lon="4.78545">
        <ele>513.59997558594</ele>
        <time>2019-08-17T09:20:35.000Z</time>
      </trkpt>
      <trkpt lat="45.85483" lon="4.78551">
        <ele>513.20001220703</ele>
        <time>2019-08-17T09:20:36.000Z</time>
      </trkpt>
      <trkpt lat="45.85492" lon="4.78558">
        <ele>512.59997558594</ele>
        <time>2019-08-17T09:20:37.000Z</time>
      </trkpt>
      <trkpt lat="45.855" lon="4.78564">
        <ele>512</ele>
        <time>2019-08-17T09:20:38.000Z</time>
      </trkpt>
      <trkpt lat="45.85507" lon="4.78569">
        <ele>511.39999389648</ele>
        <time>2019-08-17T09:20:39.000Z</time>
      </trkpt>
      <trkpt lat="45.85513" lon="4.78574">
        <ele>510.79998779297</ele>
        <time>2019-08-17T09:20:40.000Z</time>
      </trkpt>
      <trkpt lat="45.85517" lon="4.78578">
        <ele>510</ele>
        <time>2019-08-17T09:20:41.000Z</time>
      </trkpt>
      <trkpt lat="45.85522" lon="4.78582">
        <ele>509.39999389648</ele>
        <time>2019-08-17T09:20:42.000Z</time>
      </trkpt>
      <trkpt lat="45.85526" lon="4.78586">
        <ele>508.60000610352</ele>
        <time>2019-08-17T09:20:43.000Z</time>
      </trkpt>
      <trkpt lat="45.8553" lon="4.7859">
        <ele>508.20001220703</ele>
        <time>2019-08-17T09:20:44.000Z</time>
      </trkpt>
      <trkpt lat="45.85535" lon="4.78595">
        <ele>507.60000610352</ele>
        <time>2019-08-17T09:20:45.000Z</time>
      </trkpt>
      <trkpt lat="45.85538" lon="4.78599">
        <ele>507</ele>
        <time>2019-08-17T09:20:46.000Z</time>
      </trkpt>
      <trkpt lat="45.85542" lon="4.78602">
        <ele>506.60000610352</ele>
        <time>2019-08-17T09:20:47.000Z</time>
      </trkpt>
      <trkpt lat="45.85546" lon="4.78605">
        <ele>506</ele>
        <time>2019-08-17T09:20:48.000Z</time>
      </trkpt>
      <trkpt lat="45.8557" lon="4.7863">
        <ele>506</ele>
        <time>2019-08-17T09:20:54.000Z</time>
      </trkpt>
      <trkpt lat="45.85575" lon="4.78635">
        <ele>505.20001220703</ele>
        <time>2019-08-17T09:20:55.000Z</time>
      </trkpt>
      <trkpt lat="45.85579" lon="4.7864">
        <ele>504.60000610352</ele>
        <time>2019-08-17T09:20:56.000Z</time>
      </trkpt>
      <trkpt lat="45.85584" lon="4.78644">
        <ele>504.20001220703</ele>
        <time>2019-08-17T09:20:57.000Z</time>
      </trkpt>
      <trkpt lat="45.85588" lon="4.78648">
        <ele>503.79998779297</ele>
        <time>2019-08-17T09:20:58.000Z</time>
      </trkpt>
      <trkpt lat="45.85592" lon="4.78652">
        <ele>503.79998779297</ele>
        <time>2019-08-17T09:20:59.000Z</time>
      </trkpt>
      <trkpt lat="45.85606" lon="4.78666">
        <ele>503.39999389648</ele>
        <time>2019-08-17T09:21:03.000Z</time>
      </trkpt>
      <trkpt lat="45.8561" lon="4.78671">
        <ele>503</ele>
        <time>2019-08-17T09:21:04.000Z</time>
      </trkpt>
      <trkpt lat="45.85615" lon="4.78675">
        <ele>502.60000610352</ele>
        <time>2019-08-17T09:21:05.000Z</time>
      </trkpt>
      <trkpt lat="45.85619" lon="4.78679">
        <ele>502</ele>
        <time>2019-08-17T09:21:06.000Z</time>
      </trkpt>
      <trkpt lat="45.85623" lon="4.78683">
        <ele>501.60000610352</ele>
        <time>2019-08-17T09:21:07.000Z</time>
      </trkpt>
      <trkpt lat="45.85643" lon="4.78706">
        <ele>501.20001220703</ele>
        <time>2019-08-17T09:21:12.000Z</time>
      </trkpt>
      <trkpt lat="45.85647" lon="4.78711">
        <ele>500.79998779297</ele>
        <time>2019-08-17T09:21:13.000Z</time>
      </trkpt>
      <trkpt lat="45.85652" lon="4.78718">
        <ele>500.39999389648</ele>
        <time>2019-08-17T09:21:14.000Z</time>
      </trkpt>
      <trkpt lat="45.85657" lon="4.78724">
        <ele>500</ele>
        <time>2019-08-17T09:21:15.000Z</time>
      </trkpt>
      <trkpt lat="45.85662" lon="4.7873">
        <ele>499.60000610352</ele>
        <time>2019-08-17T09:21:16.000Z</time>
      </trkpt>
      <trkpt lat="45.8567" lon="4.78743">
        <ele>499.60000610352</ele>
        <time>2019-08-17T09:21:18.000Z</time>
      </trkpt>
      <trkpt lat="45.85674" lon="4.78749">
        <ele>499.20001220703</ele>
        <time>2019-08-17T09:21:19.000Z</time>
      </trkpt>
      <trkpt lat="45.85676" lon="4.78755">
        <ele>498.20001220703</ele>
        <time>2019-08-17T09:21:20.000Z</time>
      </trkpt>
      <trkpt lat="45.85679" lon="4.7876">
        <ele>497.79998779297</ele>
        <time>2019-08-17T09:21:21.000Z</time>
      </trkpt>
      <trkpt lat="45.85681" lon="4.78764">
        <ele>497.20001220703</ele>
        <time>2019-08-17T09:21:22.000Z</time>
      </trkpt>
      <trkpt lat="45.85685" lon="4.7877">
        <ele>496.79998779297</ele>
        <time>2019-08-17T09:21:24.000Z</time>
      </trkpt>
      <trkpt lat="45.85688" lon="4.78771">
        <ele>496.39999389648</ele>
        <time>2019-08-17T09:21:25.000Z</time>
      </trkpt>
      <trkpt lat="45.85691" lon="4.78773">
        <ele>495.79998779297</ele>
        <time>2019-08-17T09:21:26.000Z</time>
      </trkpt>
      <trkpt lat="45.85694" lon="4.78776">
        <ele>495.39999389648</ele>
        <time>2019-08-17T09:21:27.000Z</time>
      </trkpt>
      <trkpt lat="45.85698" lon="4.7878">
        <ele>494.79998779297</ele>
        <time>2019-08-17T09:21:28.000Z</time>
      </trkpt>
      <trkpt lat="45.85706" lon="4.78789">
        <ele>494.79998779297</ele>
        <time>2019-08-17T09:21:30.000Z</time>
      </trkpt>
      <trkpt lat="45.85711" lon="4.78794">
        <ele>494.39999389648</ele>
        <time>2019-08-17T09:21:31.000Z</time>
      </trkpt>
      <trkpt lat="45.85716" lon="4.788">
        <ele>494</ele>
        <time>2019-08-17T09:21:32.000Z</time>
      </trkpt>
      <trkpt lat="45.85722" lon="4.78806">
        <ele>493.60000610352</ele>
        <time>2019-08-17T09:21:33.000Z</time>
      </trkpt>
      <trkpt lat="45.85728" lon="4.78812">
        <ele>493.20001220703</ele>
        <time>2019-08-17T09:21:34.000Z</time>
      </trkpt>
      <trkpt lat="45.85734" lon="4.7882">
        <ele>492.79998779297</ele>
        <time>2019-08-17T09:21:35.000Z</time>
      </trkpt>
      <trkpt lat="45.85741" lon="4.78828">
        <ele>492.20001220703</ele>
        <time>2019-08-17T09:21:36.000Z</time>
      </trkpt>
      <trkpt lat="45.85748" lon="4.78836">
        <ele>491.79998779297</ele>
        <time>2019-08-17T09:21:37.000Z</time>
      </trkpt>
      <trkpt lat="45.85755" lon="4.78845">
        <ele>491.20001220703</ele>
        <time>2019-08-17T09:21:38.000Z</time>
      </trkpt>
      <trkpt lat="45.85762" lon="4.78855">
        <ele>490.79998779297</ele>
        <time>2019-08-17T09:21:39.000Z</time>
      </trkpt>
      <trkpt lat="45.85768" lon="4.78865">
        <ele>490.20001220703</ele>
        <time>2019-08-17T09:21:40.000Z</time>
      </trkpt>
      <trkpt lat="45.85773" lon="4.78877">
        <ele>489.60000610352</ele>
        <time>2019-08-17T09:21:41.000Z</time>
      </trkpt>
      <trkpt lat="45.85778" lon="4.78888">
        <ele>489.20001220703</ele>
        <time>2019-08-17T09:21:42.000Z</time>
      </trkpt>
      <trkpt lat="45.85783" lon="4.789">
        <ele>488.60000610352</ele>
        <time>2019-08-17T09:21:43.000Z</time>
      </trkpt>
      <trkpt lat="45.85787" lon="4.78912">
        <ele>488</ele>
        <time>2019-08-17T09:21:44.000Z</time>
      </trkpt>
      <trkpt lat="45.85791" lon="4.78924">
        <ele>486.79998779297</ele>
        <time>2019-08-17T09:21:45.000Z</time>
      </trkpt>
      <trkpt lat="45.85795" lon="4.78937">
        <ele>486.20001220703</ele>
        <time>2019-08-17T09:21:46.000Z</time>
      </trkpt>
      <trkpt lat="45.85799" lon="4.7895">
        <ele>485.60000610352</ele>
        <time>2019-08-17T09:21:47.000Z</time>
      </trkpt>
      <trkpt lat="45.85802" lon="4.78964">
        <ele>485</ele>
        <time>2019-08-17T09:21:48.000Z</time>
      </trkpt>
      <trkpt lat="45.85805" lon="4.78979">
        <ele>484.60000610352</ele>
        <time>2019-08-17T09:21:49.000Z</time>
      </trkpt>
      <trkpt lat="45.85808" lon="4.78993">
        <ele>484</ele>
        <time>2019-08-17T09:21:50.000Z</time>
      </trkpt>
      <trkpt lat="45.85812" lon="4.79007">
        <ele>483.60000610352</ele>
        <time>2019-08-17T09:21:51.000Z</time>
      </trkpt>
      <trkpt lat="45.85815" lon="4.7902">
        <ele>483</ele>
        <time>2019-08-17T09:21:52.000Z</time>
      </trkpt>
      <trkpt lat="45.85818" lon="4.79033">
        <ele>482.60000610352</ele>
        <time>2019-08-17T09:21:53.000Z</time>
      </trkpt>
      <trkpt lat="45.85822" lon="4.79045">
        <ele>482</ele>
        <time>2019-08-17T09:21:54.000Z</time>
      </trkpt>
      <trkpt lat="45.85825" lon="4.79057">
        <ele>481.39999389648</ele>
        <time>2019-08-17T09:21:55.000Z</time>
      </trkpt>
      <trkpt lat="45.85828" lon="4.79068">
        <ele>480.60000610352</ele>
        <time>2019-08-17T09:21:56.000Z</time>
      </trkpt>
      <trkpt lat="45.85832" lon="4.7908">
        <ele>479.79998779297</ele>
        <time>2019-08-17T09:21:57.000Z</time>
      </trkpt>
      <trkpt lat="45.85837" lon="4.79091">
        <ele>479</ele>
        <time>2019-08-17T09:21:58.000Z</time>
      </trkpt>
      <trkpt lat="45.85841" lon="4.79105">
        <ele>478.20001220703</ele>
        <time>2019-08-17T09:21:59.000Z</time>
      </trkpt>
      <trkpt lat="45.85845" lon="4.79117">
        <ele>477.39999389648</ele>
        <time>2019-08-17T09:22:00.000Z</time>
      </trkpt>
      <trkpt lat="45.85848" lon="4.79129">
        <ele>476.60000610352</ele>
        <time>2019-08-17T09:22:01.000Z</time>
      </trkpt>
      <trkpt lat="45.85852" lon="4.79141">
        <ele>476</ele>
        <time>2019-08-17T09:22:02.000Z</time>
      </trkpt>
      <trkpt lat="45.85854" lon="4.79153">
        <ele>475</ele>
        <time>2019-08-17T09:22:03.000Z</time>
      </trkpt>
      <trkpt lat="45.85857" lon="4.79164">
        <ele>474.20001220703</ele>
        <time>2019-08-17T09:22:04.000Z</time>
      </trkpt>
      <trkpt lat="45.85859" lon="4.79175">
        <ele>473.20001220703</ele>
        <time>2019-08-17T09:22:05.000Z</time>
      </trkpt>
      <trkpt lat="45.85859" lon="4.79187">
        <ele>472.39999389648</ele>
        <time>2019-08-17T09:22:06.000Z</time>
      </trkpt>
      <trkpt lat="45.85855" lon="4.79198">
        <ele>471.79998779297</ele>
        <time>2019-08-17T09:22:07.000Z</time>
      </trkpt>
      <trkpt lat="45.85851" lon="4.79208">
        <ele>471</ele>
        <time>2019-08-17T09:22:08.000Z</time>
      </trkpt>
      <trkpt lat="45.85846" lon="4.79218">
        <ele>470.39999389648</ele>
        <time>2019-08-17T09:22:09.000Z</time>
      </trkpt>
      <trkpt lat="45.8584" lon="4.79228">
        <ele>469</ele>
        <time>2019-08-17T09:22:10.000Z</time>
      </trkpt>
      <trkpt lat="45.85834" lon="4.79238">
        <ele>468.39999389648</ele>
        <time>2019-08-17T09:22:11.000Z</time>
      </trkpt>
      <trkpt lat="45.85827" lon="4.79247">
        <ele>467.60000610352</ele>
        <time>2019-08-17T09:22:12.000Z</time>
      </trkpt>
      <trkpt lat="45.8582" lon="4.79255">
        <ele>467</ele>
        <time>2019-08-17T09:22:13.000Z</time>
      </trkpt>
      <trkpt lat="45.85813" lon="4.79264">
        <ele>466.39999389648</ele>
        <time>2019-08-17T09:22:14.000Z</time>
      </trkpt>
      <trkpt lat="45.85806" lon="4.79273">
        <ele>465.79998779297</ele>
        <time>2019-08-17T09:22:15.000Z</time>
      </trkpt>
      <trkpt lat="45.85801" lon="4.79284">
        <ele>465.20001220703</ele>
        <time>2019-08-17T09:22:16.000Z</time>
      </trkpt>
      <trkpt lat="45.85797" lon="4.79295">
        <ele>464.60000610352</ele>
        <time>2019-08-17T09:22:17.000Z</time>
      </trkpt>
      <trkpt lat="45.85795" lon="4.79307">
        <ele>464</ele>
        <time>2019-08-17T09:22:18.000Z</time>
      </trkpt>
      <trkpt lat="45.85794" lon="4.7932">
        <ele>463.20001220703</ele>
        <time>2019-08-17T09:22:19.000Z</time>
      </trkpt>
      <trkpt lat="45.85795" lon="4.79332">
        <ele>462.79998779297</ele>
        <time>2019-08-17T09:22:20.000Z</time>
      </trkpt>
      <trkpt lat="45.85798" lon="4.79345">
        <ele>462.20001220703</ele>
        <time>2019-08-17T09:22:21.000Z</time>
      </trkpt>
      <trkpt lat="45.85801" lon="4.79358">
        <ele>461.60000610352</ele>
        <time>2019-08-17T09:22:22.000Z</time>
      </trkpt>
      <trkpt lat="45.85806" lon="4.7937">
        <ele>461.20001220703</ele>
        <time>2019-08-17T09:22:23.000Z</time>
      </trkpt>
      <trkpt lat="45.85812" lon="4.79381">
        <ele>460.60000610352</ele>
        <time>2019-08-17T09:22:24.000Z</time>
      </trkpt>
      <trkpt lat="45.85818" lon="4.7939">
        <ele>460.20001220703</ele>
        <time>2019-08-17T09:22:25.000Z</time>
      </trkpt>
      <trkpt lat="45.85826" lon="4.79399">
        <ele>459.79998779297</ele>
        <time>2019-08-17T09:22:26.000Z</time>
      </trkpt>
      <trkpt lat="45.85833" lon="4.79407">
        <ele>459.39999389648</ele>
        <time>2019-08-17T09:22:27.000Z</time>
      </trkpt>
      <trkpt lat="45.85842" lon="4.79413">
        <ele>459</ele>
        <time>2019-08-17T09:22:28.000Z</time>
      </trkpt>
      <trkpt lat="45.8585" lon="4.79418">
        <ele>458.60000610352</ele>
        <time>2019-08-17T09:22:29.000Z</time>
      </trkpt>
      <trkpt lat="45.85865" lon="4.79421">
        <ele>458.20001220703</ele>
        <time>2019-08-17T09:22:31.000Z</time>
      </trkpt>
      <trkpt lat="45.85871" lon="4.7942">
        <ele>457.79998779297</ele>
        <time>2019-08-17T09:22:32.000Z</time>
      </trkpt>
      <trkpt lat="45.85877" lon="4.79416">
        <ele>457.39999389648</ele>
        <time>2019-08-17T09:22:33.000Z</time>
      </trkpt>
      <trkpt lat="45.85883" lon="4.79409">
        <ele>456.39999389648</ele>
        <time>2019-08-17T09:22:34.000Z</time>
      </trkpt>
      <trkpt lat="45.85897" lon="4.79393">
        <ele>456</ele>
        <time>2019-08-17T09:22:36.000Z</time>
      </trkpt>
      <trkpt lat="45.85906" lon="4.79388">
        <ele>455.60000610352</ele>
        <time>2019-08-17T09:22:37.000Z</time>
      </trkpt>
      <trkpt lat="45.85914" lon="4.79386">
        <ele>455.20001220703</ele>
        <time>2019-08-17T09:22:38.000Z</time>
      </trkpt>
      <trkpt lat="45.85923" lon="4.79388">
        <ele>454.60000610352</ele>
        <time>2019-08-17T09:22:39.000Z</time>
      </trkpt>
      <trkpt lat="45.85931" lon="4.79393">
        <ele>454</ele>
        <time>2019-08-17T09:22:40.000Z</time>
      </trkpt>
      <trkpt lat="45.85939" lon="4.794">
        <ele>453.20001220703</ele>
        <time>2019-08-17T09:22:41.000Z</time>
      </trkpt>
      <trkpt lat="45.85946" lon="4.79408">
        <ele>452.60000610352</ele>
        <time>2019-08-17T09:22:42.000Z</time>
      </trkpt>
      <trkpt lat="45.85953" lon="4.79417">
        <ele>452</ele>
        <time>2019-08-17T09:22:43.000Z</time>
      </trkpt>
      <trkpt lat="45.85959" lon="4.79427">
        <ele>451.60000610352</ele>
        <time>2019-08-17T09:22:44.000Z</time>
      </trkpt>
      <trkpt lat="45.85965" lon="4.79439">
        <ele>451</ele>
        <time>2019-08-17T09:22:45.000Z</time>
      </trkpt>
      <trkpt lat="45.85971" lon="4.7945">
        <ele>450.39999389648</ele>
        <time>2019-08-17T09:22:46.000Z</time>
      </trkpt>
      <trkpt lat="45.85977" lon="4.79461">
        <ele>450</ele>
        <time>2019-08-17T09:22:47.000Z</time>
      </trkpt>
      <trkpt lat="45.85984" lon="4.79471">
        <ele>449.39999389648</ele>
        <time>2019-08-17T09:22:48.000Z</time>
      </trkpt>
      <trkpt lat="45.85992" lon="4.79481">
        <ele>449</ele>
        <time>2019-08-17T09:22:49.000Z</time>
      </trkpt>
      <trkpt lat="45.86" lon="4.79491">
        <ele>448.39999389648</ele>
        <time>2019-08-17T09:22:50.000Z</time>
      </trkpt>
      <trkpt lat="45.86007" lon="4.795">
        <ele>448</ele>
        <time>2019-08-17T09:22:51.000Z</time>
      </trkpt>
      <trkpt lat="45.86014" lon="4.79509">
        <ele>447.39999389648</ele>
        <time>2019-08-17T09:22:52.000Z</time>
      </trkpt>
      <trkpt lat="45.86022" lon="4.7952">
        <ele>446.79998779297</ele>
        <time>2019-08-17T09:22:53.000Z</time>
      </trkpt>
      <trkpt lat="45.86028" lon="4.7953">
        <ele>446.39999389648</ele>
        <time>2019-08-17T09:22:54.000Z</time>
      </trkpt>
      <trkpt lat="45.86034" lon="4.79541">
        <ele>445.60000610352</ele>
        <time>2019-08-17T09:22:55.000Z</time>
      </trkpt>
      <trkpt lat="45.86039" lon="4.79552">
        <ele>445</ele>
        <time>2019-08-17T09:22:56.000Z</time>
      </trkpt>
      <trkpt lat="45.86045" lon="4.79564">
        <ele>444.20001220703</ele>
        <time>2019-08-17T09:22:57.000Z</time>
      </trkpt>
      <trkpt lat="45.86051" lon="4.79576">
        <ele>443.60000610352</ele>
        <time>2019-08-17T09:22:58.000Z</time>
      </trkpt>
      <trkpt lat="45.86056" lon="4.79589">
        <ele>442.20001220703</ele>
        <time>2019-08-17T09:22:59.000Z</time>
      </trkpt>
      <trkpt lat="45.86061" lon="4.79602">
        <ele>441.60000610352</ele>
        <time>2019-08-17T09:23:00.000Z</time>
      </trkpt>
      <trkpt lat="45.86066" lon="4.79615">
        <ele>440.79998779297</ele>
        <time>2019-08-17T09:23:01.000Z</time>
      </trkpt>
      <trkpt lat="45.8607" lon="4.79627">
        <ele>440.20001220703</ele>
        <time>2019-08-17T09:23:02.000Z</time>
      </trkpt>
      <trkpt lat="45.86075" lon="4.79638">
        <ele>439.60000610352</ele>
        <time>2019-08-17T09:23:03.000Z</time>
      </trkpt>
      <trkpt lat="45.8608" lon="4.79648">
        <ele>438.79998779297</ele>
        <time>2019-08-17T09:23:04.000Z</time>
      </trkpt>
      <trkpt lat="45.86086" lon="4.79658">
        <ele>438</ele>
        <time>2019-08-17T09:23:05.000Z</time>
      </trkpt>
      <trkpt lat="45.86092" lon="4.79666">
        <ele>437.20001220703</ele>
        <time>2019-08-17T09:23:06.000Z</time>
      </trkpt>
      <trkpt lat="45.86099" lon="4.79674">
        <ele>436.60000610352</ele>
        <time>2019-08-17T09:23:07.000Z</time>
      </trkpt>
      <trkpt lat="45.86107" lon="4.7968">
        <ele>435.79998779297</ele>
        <time>2019-08-17T09:23:08.000Z</time>
      </trkpt>
      <trkpt lat="45.86115" lon="4.79686">
        <ele>435.79998779297</ele>
        <time>2019-08-17T09:23:09.000Z</time>
      </trkpt>
      <trkpt lat="45.86124" lon="4.79691">
        <ele>435.39999389648</ele>
        <time>2019-08-17T09:23:10.000Z</time>
      </trkpt>
      <trkpt lat="45.86132" lon="4.79695">
        <ele>434.79998779297</ele>
        <time>2019-08-17T09:23:11.000Z</time>
      </trkpt>
      <trkpt lat="45.8614" lon="4.79699">
        <ele>434.39999389648</ele>
        <time>2019-08-17T09:23:12.000Z</time>
      </trkpt>
      <trkpt lat="45.86147" lon="4.79703">
        <ele>434</ele>
        <time>2019-08-17T09:23:13.000Z</time>
      </trkpt>
      <trkpt lat="45.86154" lon="4.79706">
        <ele>433.60000610352</ele>
        <time>2019-08-17T09:23:14.000Z</time>
      </trkpt>
      <trkpt lat="45.86161" lon="4.79709">
        <ele>433.60000610352</ele>
        <time>2019-08-17T09:23:15.000Z</time>
      </trkpt>
      <trkpt lat="45.86173" lon="4.79716">
        <ele>433</ele>
        <time>2019-08-17T09:23:17.000Z</time>
      </trkpt>
      <trkpt lat="45.86178" lon="4.79719">
        <ele>432.60000610352</ele>
        <time>2019-08-17T09:23:18.000Z</time>
      </trkpt>
      <trkpt lat="45.86183" lon="4.79721">
        <ele>432</ele>
        <time>2019-08-17T09:23:19.000Z</time>
      </trkpt>
      <trkpt lat="45.86188" lon="4.79724">
        <ele>431.60000610352</ele>
        <time>2019-08-17T09:23:20.000Z</time>
      </trkpt>
      <trkpt lat="45.86193" lon="4.79727">
        <ele>431</ele>
        <time>2019-08-17T09:23:21.000Z</time>
      </trkpt>
      <trkpt lat="45.86213" lon="4.79741">
        <ele>430.60000610352</ele>
        <time>2019-08-17T09:23:25.000Z</time>
      </trkpt>
      <trkpt lat="45.86218" lon="4.79744">
        <ele>430.20001220703</ele>
        <time>2019-08-17T09:23:26.000Z</time>
      </trkpt>
      <trkpt lat="45.86223" lon="4.79748">
        <ele>429.60000610352</ele>
        <time>2019-08-17T09:23:27.000Z</time>
      </trkpt>
      <trkpt lat="45.86226" lon="4.79751">
        <ele>429.20001220703</ele>
        <time>2019-08-17T09:23:28.000Z</time>
      </trkpt>
      <trkpt lat="45.86228" lon="4.79756">
        <ele>428.79998779297</ele>
        <time>2019-08-17T09:23:29.000Z</time>
      </trkpt>
      <trkpt lat="45.86227" lon="4.7976">
        <ele>428.20001220703</ele>
        <time>2019-08-17T09:23:30.000Z</time>
      </trkpt>
      <trkpt lat="45.86225" lon="4.79764">
        <ele>427.79998779297</ele>
        <time>2019-08-17T09:23:31.000Z</time>
      </trkpt>
      <trkpt lat="45.86222" lon="4.79768">
        <ele>427.20001220703</ele>
        <time>2019-08-17T09:23:32.000Z</time>
      </trkpt>
      <trkpt lat="45.86219" lon="4.7977">
        <ele>426.79998779297</ele>
        <time>2019-08-17T09:23:33.000Z</time>
      </trkpt>
      <trkpt lat="45.86215" lon="4.79772">
        <ele>426.20001220703</ele>
        <time>2019-08-17T09:23:34.000Z</time>
      </trkpt>
      <trkpt lat="45.86204" lon="4.79777">
        <ele>425.79998779297</ele>
        <time>2019-08-17T09:23:36.000Z</time>
      </trkpt>
      <trkpt lat="45.86198" lon="4.7978">
        <ele>425.39999389648</ele>
        <time>2019-08-17T09:23:37.000Z</time>
      </trkpt>
      <trkpt lat="45.86193" lon="4.79783">
        <ele>425</ele>
        <time>2019-08-17T09:23:38.000Z</time>
      </trkpt>
      <trkpt lat="45.86188" lon="4.79788">
        <ele>424.60000610352</ele>
        <time>2019-08-17T09:23:39.000Z</time>
      </trkpt>
      <trkpt lat="45.86185" lon="4.79794">
        <ele>424.20001220703</ele>
        <time>2019-08-17T09:23:40.000Z</time>
      </trkpt>
      <trkpt lat="45.86184" lon="4.79812">
        <ele>423.79998779297</ele>
        <time>2019-08-17T09:23:42.000Z</time>
      </trkpt>
      <trkpt lat="45.86184" lon="4.79819">
        <ele>423.39999389648</ele>
        <time>2019-08-17T09:23:43.000Z</time>
      </trkpt>
      <trkpt lat="45.86183" lon="4.79825">
        <ele>423</ele>
        <time>2019-08-17T09:23:44.000Z</time>
      </trkpt>
      <trkpt lat="45.86181" lon="4.7983">
        <ele>422.39999389648</ele>
        <time>2019-08-17T09:23:45.000Z</time>
      </trkpt>
      <trkpt lat="45.86179" lon="4.79833">
        <ele>421.79998779297</ele>
        <time>2019-08-17T09:23:46.000Z</time>
      </trkpt>
      <trkpt lat="45.86176" lon="4.79836">
        <ele>421.20001220703</ele>
        <time>2019-08-17T09:23:47.000Z</time>
      </trkpt>
      <trkpt lat="45.86174" lon="4.79838">
        <ele>420.60000610352</ele>
        <time>2019-08-17T09:23:48.000Z</time>
      </trkpt>
      <trkpt lat="45.86171" lon="4.7984">
        <ele>419.20001220703</ele>
        <time>2019-08-17T09:23:49.000Z</time>
      </trkpt>
      <trkpt lat="45.86169" lon="4.79841">
        <ele>418.60000610352</ele>
        <time>2019-08-17T09:23:50.000Z</time>
      </trkpt>
      <trkpt lat="45.86165" lon="4.79843">
        <ele>418</ele>
        <time>2019-08-17T09:23:51.000Z</time>
      </trkpt>
      <trkpt lat="45.86148" lon="4.79851">
        <ele>417.39999389648</ele>
        <time>2019-08-17T09:23:55.000Z</time>
      </trkpt>
      <trkpt lat="45.86143" lon="4.79852">
        <ele>417</ele>
        <time>2019-08-17T09:23:56.000Z</time>
      </trkpt>
      <trkpt lat="45.86138" lon="4.79854">
        <ele>416.60000610352</ele>
        <time>2019-08-17T09:23:57.000Z</time>
      </trkpt>
      <trkpt lat="45.86132" lon="4.79856">
        <ele>416.20001220703</ele>
        <time>2019-08-17T09:23:58.000Z</time>
      </trkpt>
      <trkpt lat="45.86126" lon="4.79858">
        <ele>415.79998779297</ele>
        <time>2019-08-17T09:23:59.000Z</time>
      </trkpt>
      <trkpt lat="45.86122" lon="4.79862">
        <ele>415.79998779297</ele>
        <time>2019-08-17T09:24:00.000Z</time>
      </trkpt>
      <trkpt lat="45.86119" lon="4.79869">
        <ele>415.39999389648</ele>
        <time>2019-08-17T09:24:02.000Z</time>
      </trkpt>
      <trkpt lat="45.86121" lon="4.7987">
        <ele>414.79998779297</ele>
        <time>2019-08-17T09:24:03.000Z</time>
      </trkpt>
      <trkpt lat="45.86125" lon="4.79872">
        <ele>414.39999389648</ele>
        <time>2019-08-17T09:24:04.000Z</time>
      </trkpt>
      <trkpt lat="45.86131" lon="4.79876">
        <ele>413.79998779297</ele>
        <time>2019-08-17T09:24:05.000Z</time>
      </trkpt>
      <trkpt lat="45.86137" lon="4.79881">
        <ele>413.39999389648</ele>
        <time>2019-08-17T09:24:06.000Z</time>
      </trkpt>
      <trkpt lat="45.86151" lon="4.79889">
        <ele>413</ele>
        <time>2019-08-17T09:24:08.000Z</time>
      </trkpt>
      <trkpt lat="45.86158" lon="4.79893">
        <ele>412.60000610352</ele>
        <time>2019-08-17T09:24:09.000Z</time>
      </trkpt>
      <trkpt lat="45.86166" lon="4.79896">
        <ele>412.20001220703</ele>
        <time>2019-08-17T09:24:10.000Z</time>
      </trkpt>
      <trkpt lat="45.86174" lon="4.79899">
        <ele>411.79998779297</ele>
        <time>2019-08-17T09:24:11.000Z</time>
      </trkpt>
      <trkpt lat="45.86182" lon="4.79903">
        <ele>411.39999389648</ele>
        <time>2019-08-17T09:24:12.000Z</time>
      </trkpt>
      <trkpt lat="45.8619" lon="4.79906">
        <ele>410.39999389648</ele>
        <time>2019-08-17T09:24:13.000Z</time>
      </trkpt>
      <trkpt lat="45.86198" lon="4.79908">
        <ele>410</ele>
        <time>2019-08-17T09:24:14.000Z</time>
      </trkpt>
      <trkpt lat="45.86205" lon="4.79911">
        <ele>409.60000610352</ele>
        <time>2019-08-17T09:24:15.000Z</time>
      </trkpt>
      <trkpt lat="45.86211" lon="4.79915">
        <ele>409</ele>
        <time>2019-08-17T09:24:16.000Z</time>
      </trkpt>
      <trkpt lat="45.86215" lon="4.79922">
        <ele>408.39999389648</ele>
        <time>2019-08-17T09:24:17.000Z</time>
      </trkpt>
      <trkpt lat="45.86215" lon="4.7993">
        <ele>407.79998779297</ele>
        <time>2019-08-17T09:24:18.000Z</time>
      </trkpt>
      <trkpt lat="45.86214" lon="4.79939">
        <ele>407</ele>
        <time>2019-08-17T09:24:19.000Z</time>
      </trkpt>
      <trkpt lat="45.86213" lon="4.79949">
        <ele>406.39999389648</ele>
        <time>2019-08-17T09:24:20.000Z</time>
      </trkpt>
      <trkpt lat="45.8621" lon="4.79959">
        <ele>406</ele>
        <time>2019-08-17T09:24:21.000Z</time>
      </trkpt>
      <trkpt lat="45.86205" lon="4.79966">
        <ele>405.60000610352</ele>
        <time>2019-08-17T09:24:22.000Z</time>
      </trkpt>
      <trkpt lat="45.86198" lon="4.79971">
        <ele>405</ele>
        <time>2019-08-17T09:24:23.000Z</time>
      </trkpt>
      <trkpt lat="45.86191" lon="4.79974">
        <ele>404.39999389648</ele>
        <time>2019-08-17T09:24:24.000Z</time>
      </trkpt>
      <trkpt lat="45.86184" lon="4.79976">
        <ele>403.79998779297</ele>
        <time>2019-08-17T09:24:25.000Z</time>
      </trkpt>
      <trkpt lat="45.86178" lon="4.79979">
        <ele>403.20001220703</ele>
        <time>2019-08-17T09:24:26.000Z</time>
      </trkpt>
      <trkpt lat="45.86172" lon="4.7998">
        <ele>402.60000610352</ele>
        <time>2019-08-17T09:24:27.000Z</time>
      </trkpt>
      <trkpt lat="45.86166" lon="4.7998">
        <ele>401.79998779297</ele>
        <time>2019-08-17T09:24:28.000Z</time>
      </trkpt>
      <trkpt lat="45.86159" lon="4.79979">
        <ele>401.20001220703</ele>
        <time>2019-08-17T09:24:29.000Z</time>
      </trkpt>
      <trkpt lat="45.86153" lon="4.79978">
        <ele>400.39999389648</ele>
        <time>2019-08-17T09:24:30.000Z</time>
      </trkpt>
      <trkpt lat="45.86147" lon="4.79978">
        <ele>399.79998779297</ele>
        <time>2019-08-17T09:24:31.000Z</time>
      </trkpt>
      <trkpt lat="45.86127" lon="4.79989">
        <ele>399.79998779297</ele>
        <time>2019-08-17T09:24:34.000Z</time>
      </trkpt>
      <trkpt lat="45.86105" lon="4.80004">
        <ele>399.20001220703</ele>
        <time>2019-08-17T09:24:37.000Z</time>
      </trkpt>
      <trkpt lat="45.86097" lon="4.80009">
        <ele>398.20001220703</ele>
        <time>2019-08-17T09:24:38.000Z</time>
      </trkpt>
      <trkpt lat="45.86088" lon="4.80015">
        <ele>397.79998779297</ele>
        <time>2019-08-17T09:24:39.000Z</time>
      </trkpt>
      <trkpt lat="45.8608" lon="4.8002">
        <ele>397.20001220703</ele>
        <time>2019-08-17T09:24:40.000Z</time>
      </trkpt>
      <trkpt lat="45.86073" lon="4.80024">
        <ele>396.60000610352</ele>
        <time>2019-08-17T09:24:41.000Z</time>
      </trkpt>
      <trkpt lat="45.86065" lon="4.80028">
        <ele>396</ele>
        <time>2019-08-17T09:24:42.000Z</time>
      </trkpt>
      <trkpt lat="45.86057" lon="4.80031">
        <ele>395.39999389648</ele>
        <time>2019-08-17T09:24:43.000Z</time>
      </trkpt>
      <trkpt lat="45.86049" lon="4.80034">
        <ele>394.79998779297</ele>
        <time>2019-08-17T09:24:44.000Z</time>
      </trkpt>
      <trkpt lat="45.86041" lon="4.80036">
        <ele>394.20001220703</ele>
        <time>2019-08-17T09:24:45.000Z</time>
      </trkpt>
      <trkpt lat="45.86032" lon="4.80039">
        <ele>393.60000610352</ele>
        <time>2019-08-17T09:24:46.000Z</time>
      </trkpt>
      <trkpt lat="45.86024" lon="4.80041">
        <ele>393</ele>
        <time>2019-08-17T09:24:47.000Z</time>
      </trkpt>
      <trkpt lat="45.86016" lon="4.80044">
        <ele>392.39999389648</ele>
        <time>2019-08-17T09:24:48.000Z</time>
      </trkpt>
      <trkpt lat="45.86008" lon="4.80046">
        <ele>391.79998779297</ele>
        <time>2019-08-17T09:24:49.000Z</time>
      </trkpt>
      <trkpt lat="45.86" lon="4.80047">
        <ele>391.20001220703</ele>
        <time>2019-08-17T09:24:50.000Z</time>
      </trkpt>
      <trkpt lat="45.85992" lon="4.80048">
        <ele>390.39999389648</ele>
        <time>2019-08-17T09:24:51.000Z</time>
      </trkpt>
      <trkpt lat="45.85962" lon="4.80049">
        <ele>390</ele>
        <time>2019-08-17T09:24:55.000Z</time>
      </trkpt>
      <trkpt lat="45.85954" lon="4.8005">
        <ele>389.60000610352</ele>
        <time>2019-08-17T09:24:56.000Z</time>
      </trkpt>
      <trkpt lat="45.85947" lon="4.80052">
        <ele>389.20001220703</ele>
        <time>2019-08-17T09:24:57.000Z</time>
      </trkpt>
      <trkpt lat="45.85939" lon="4.80053">
        <ele>388.79998779297</ele>
        <time>2019-08-17T09:24:58.000Z</time>
      </trkpt>
      <trkpt lat="45.85931" lon="4.80055">
        <ele>388.39999389648</ele>
        <time>2019-08-17T09:24:59.000Z</time>
      </trkpt>
      <trkpt lat="45.85926" lon="4.80059">
        <ele>388.39999389648</ele>
        <time>2019-08-17T09:25:00.000Z</time>
      </trkpt>
      <trkpt lat="45.85922" lon="4.80067">
        <ele>387.79998779297</ele>
        <time>2019-08-17T09:25:01.000Z</time>
      </trkpt>
      <trkpt lat="45.85921" lon="4.80076">
        <ele>387</ele>
        <time>2019-08-17T09:25:02.000Z</time>
      </trkpt>
      <trkpt lat="45.85923" lon="4.80087">
        <ele>386.60000610352</ele>
        <time>2019-08-17T09:25:03.000Z</time>
      </trkpt>
      <trkpt lat="45.85927" lon="4.80096">
        <ele>386</ele>
        <time>2019-08-17T09:25:04.000Z</time>
      </trkpt>
      <trkpt lat="45.85932" lon="4.80104">
        <ele>385.39999389648</ele>
        <time>2019-08-17T09:25:05.000Z</time>
      </trkpt>
      <trkpt lat="45.85939" lon="4.80111">
        <ele>384.79998779297</ele>
        <time>2019-08-17T09:25:06.000Z</time>
      </trkpt>
      <trkpt lat="45.85946" lon="4.80117">
        <ele>384.39999389648</ele>
        <time>2019-08-17T09:25:07.000Z</time>
      </trkpt>
      <trkpt lat="45.85955" lon="4.80122">
        <ele>383.79998779297</ele>
        <time>2019-08-17T09:25:08.000Z</time>
      </trkpt>
      <trkpt lat="45.85963" lon="4.80128">
        <ele>383.20001220703</ele>
        <time>2019-08-17T09:25:09.000Z</time>
      </trkpt>
      <trkpt lat="45.85971" lon="4.80135">
        <ele>382.60000610352</ele>
        <time>2019-08-17T09:25:10.000Z</time>
      </trkpt>
      <trkpt lat="45.85979" lon="4.80142">
        <ele>382.20001220703</ele>
        <time>2019-08-17T09:25:11.000Z</time>
      </trkpt>
      <trkpt lat="45.85987" lon="4.8015">
        <ele>381.60000610352</ele>
        <time>2019-08-17T09:25:12.000Z</time>
      </trkpt>
      <trkpt lat="45.85995" lon="4.80158">
        <ele>381.20001220703</ele>
        <time>2019-08-17T09:25:13.000Z</time>
      </trkpt>
      <trkpt lat="45.86002" lon="4.80166">
        <ele>380.60000610352</ele>
        <time>2019-08-17T09:25:14.000Z</time>
      </trkpt>
      <trkpt lat="45.86009" lon="4.80174">
        <ele>380</ele>
        <time>2019-08-17T09:25:15.000Z</time>
      </trkpt>
      <trkpt lat="45.86013" lon="4.80182">
        <ele>379.39999389648</ele>
        <time>2019-08-17T09:25:16.000Z</time>
      </trkpt>
      <trkpt lat="45.86015" lon="4.80192">
        <ele>378.60000610352</ele>
        <time>2019-08-17T09:25:17.000Z</time>
      </trkpt>
      <trkpt lat="45.86012" lon="4.802">
        <ele>378</ele>
        <time>2019-08-17T09:25:18.000Z</time>
      </trkpt>
      <trkpt lat="45.86007" lon="4.80206">
        <ele>377.20001220703</ele>
        <time>2019-08-17T09:25:19.000Z</time>
      </trkpt>
      <trkpt lat="45.86" lon="4.8021">
        <ele>376.39999389648</ele>
        <time>2019-08-17T09:25:20.000Z</time>
      </trkpt>
      <trkpt lat="45.85993" lon="4.80212">
        <ele>375.60000610352</ele>
        <time>2019-08-17T09:25:21.000Z</time>
      </trkpt>
      <trkpt lat="45.85986" lon="4.80214">
        <ele>374.79998779297</ele>
        <time>2019-08-17T09:25:22.000Z</time>
      </trkpt>
      <trkpt lat="45.85978" lon="4.80217">
        <ele>374</ele>
        <time>2019-08-17T09:25:23.000Z</time>
      </trkpt>
      <trkpt lat="45.8597" lon="4.80219">
        <ele>374</ele>
        <time>2019-08-17T09:25:24.000Z</time>
      </trkpt>
      <trkpt lat="45.85961" lon="4.80221">
        <ele>373.60000610352</ele>
        <time>2019-08-17T09:25:25.000Z</time>
      </trkpt>
      <trkpt lat="45.85953" lon="4.80223">
        <ele>373.20001220703</ele>
        <time>2019-08-17T09:25:26.000Z</time>
      </trkpt>
      <trkpt lat="45.85944" lon="4.80225">
        <ele>372.20001220703</ele>
        <time>2019-08-17T09:25:27.000Z</time>
      </trkpt>
      <trkpt lat="45.85936" lon="4.80227">
        <ele>371.60000610352</ele>
        <time>2019-08-17T09:25:28.000Z</time>
      </trkpt>
      <trkpt lat="45.85927" lon="4.80229">
        <ele>371.20001220703</ele>
        <time>2019-08-17T09:25:29.000Z</time>
      </trkpt>
      <trkpt lat="45.85918" lon="4.80232">
        <ele>370.60000610352</ele>
        <time>2019-08-17T09:25:30.000Z</time>
      </trkpt>
      <trkpt lat="45.85909" lon="4.80233">
        <ele>370</ele>
        <time>2019-08-17T09:25:31.000Z</time>
      </trkpt>
      <trkpt lat="45.859" lon="4.80234">
        <ele>369.60000610352</ele>
        <time>2019-08-17T09:25:32.000Z</time>
      </trkpt>
      <trkpt lat="45.8589" lon="4.80235">
        <ele>369</ele>
        <time>2019-08-17T09:25:33.000Z</time>
      </trkpt>
      <trkpt lat="45.85881" lon="4.80237">
        <ele>368.60000610352</ele>
        <time>2019-08-17T09:25:34.000Z</time>
      </trkpt>
      <trkpt lat="45.85871" lon="4.80238">
        <ele>368</ele>
        <time>2019-08-17T09:25:35.000Z</time>
      </trkpt>
      <trkpt lat="45.85861" lon="4.8024">
        <ele>367.39999389648</ele>
        <time>2019-08-17T09:25:36.000Z</time>
      </trkpt>
      <trkpt lat="45.85851" lon="4.80243">
        <ele>366.79998779297</ele>
        <time>2019-08-17T09:25:37.000Z</time>
      </trkpt>
      <trkpt lat="45.85841" lon="4.80246">
        <ele>366.20001220703</ele>
        <time>2019-08-17T09:25:38.000Z</time>
      </trkpt>
      <trkpt lat="45.85831" lon="4.8025">
        <ele>365.60000610352</ele>
        <time>2019-08-17T09:25:39.000Z</time>
      </trkpt>
      <trkpt lat="45.8582" lon="4.80254">
        <ele>364.79998779297</ele>
        <time>2019-08-17T09:25:40.000Z</time>
      </trkpt>
      <trkpt lat="45.8581" lon="4.80257">
        <ele>364.20001220703</ele>
        <time>2019-08-17T09:25:41.000Z</time>
      </trkpt>
      <trkpt lat="45.85801" lon="4.8026">
        <ele>363.39999389648</ele>
        <time>2019-08-17T09:25:42.000Z</time>
      </trkpt>
      <trkpt lat="45.85791" lon="4.80261">
        <ele>362.60000610352</ele>
        <time>2019-08-17T09:25:43.000Z</time>
      </trkpt>
      <trkpt lat="45.8578" lon="4.80261">
        <ele>361.79998779297</ele>
        <time>2019-08-17T09:25:44.000Z</time>
      </trkpt>
      <trkpt lat="45.85771" lon="4.80257">
        <ele>361.20001220703</ele>
        <time>2019-08-17T09:25:45.000Z</time>
      </trkpt>
      <trkpt lat="45.85762" lon="4.80253">
        <ele>360.39999389648</ele>
        <time>2019-08-17T09:25:46.000Z</time>
      </trkpt>
      <trkpt lat="45.85754" lon="4.80246">
        <ele>359.60000610352</ele>
        <time>2019-08-17T09:25:47.000Z</time>
      </trkpt>
      <trkpt lat="45.85746" lon="4.80239">
        <ele>359</ele>
        <time>2019-08-17T09:25:48.000Z</time>
      </trkpt>
      <trkpt lat="45.85739" lon="4.8023">
        <ele>358.20001220703</ele>
        <time>2019-08-17T09:25:49.000Z</time>
      </trkpt>
      <trkpt lat="45.85733" lon="4.80222">
        <ele>358.20001220703</ele>
        <time>2019-08-17T09:25:50.000Z</time>
      </trkpt>
      <trkpt lat="45.85727" lon="4.80214">
        <ele>358.20001220703</ele>
        <time>2019-08-17T09:25:51.000Z</time>
      </trkpt>
      <trkpt lat="45.85717" lon="4.80199">
        <ele>358.20001220703</ele>
        <time>2019-08-17T09:25:53.000Z</time>
      </trkpt>
      <trkpt lat="45.85713" lon="4.80189">
        <ele>357.79998779297</ele>
        <time>2019-08-17T09:25:54.000Z</time>
      </trkpt>
      <trkpt lat="45.85709" lon="4.80177">
        <ele>357.39999389648</ele>
        <time>2019-08-17T09:25:55.000Z</time>
      </trkpt>
      <trkpt lat="45.85706" lon="4.80164">
        <ele>356.79998779297</ele>
        <time>2019-08-17T09:25:56.000Z</time>
      </trkpt>
      <trkpt lat="45.85705" lon="4.80149">
        <ele>356.39999389648</ele>
        <time>2019-08-17T09:25:57.000Z</time>
      </trkpt>
      <trkpt lat="45.85706" lon="4.80134">
        <ele>355.79998779297</ele>
        <time>2019-08-17T09:25:58.000Z</time>
      </trkpt>
      <trkpt lat="45.85709" lon="4.8012">
        <ele>355.20001220703</ele>
        <time>2019-08-17T09:25:59.000Z</time>
      </trkpt>
      <trkpt lat="45.85713" lon="4.80106">
        <ele>354.60000610352</ele>
        <time>2019-08-17T09:26:00.000Z</time>
      </trkpt>
      <trkpt lat="45.85718" lon="4.80094">
        <ele>354</ele>
        <time>2019-08-17T09:26:01.000Z</time>
      </trkpt>
      <trkpt lat="45.85724" lon="4.80081">
        <ele>353.20001220703</ele>
        <time>2019-08-17T09:26:02.000Z</time>
      </trkpt>
      <trkpt lat="45.8573" lon="4.80068">
        <ele>352.60000610352</ele>
        <time>2019-08-17T09:26:03.000Z</time>
      </trkpt>
      <trkpt lat="45.85736" lon="4.80056">
        <ele>351.79998779297</ele>
        <time>2019-08-17T09:26:04.000Z</time>
      </trkpt>
      <trkpt lat="45.85742" lon="4.80044">
        <ele>351.20001220703</ele>
        <time>2019-08-17T09:26:05.000Z</time>
      </trkpt>
      <trkpt lat="45.85747" lon="4.80032">
        <ele>350.39999389648</ele>
        <time>2019-08-17T09:26:06.000Z</time>
      </trkpt>
      <trkpt lat="45.85751" lon="4.80018">
        <ele>349.79998779297</ele>
        <time>2019-08-17T09:26:07.000Z</time>
      </trkpt>
      <trkpt lat="45.85753" lon="4.80003">
        <ele>349</ele>
        <time>2019-08-17T09:26:08.000Z</time>
      </trkpt>
      <trkpt lat="45.85754" lon="4.79988">
        <ele>348.39999389648</ele>
        <time>2019-08-17T09:26:09.000Z</time>
      </trkpt>
      <trkpt lat="45.85753" lon="4.79971">
        <ele>347.60000610352</ele>
        <time>2019-08-17T09:26:10.000Z</time>
      </trkpt>
      <trkpt lat="45.85752" lon="4.79957">
        <ele>347</ele>
        <time>2019-08-17T09:26:11.000Z</time>
      </trkpt>
      <trkpt lat="45.85751" lon="4.79944">
        <ele>346</ele>
        <time>2019-08-17T09:26:12.000Z</time>
      </trkpt>
      <trkpt lat="45.85748" lon="4.79933">
        <ele>345.20001220703</ele>
        <time>2019-08-17T09:26:13.000Z</time>
      </trkpt>
      <trkpt lat="45.85745" lon="4.79926">
        <ele>344.20001220703</ele>
        <time>2019-08-17T09:26:14.000Z</time>
      </trkpt>
      <trkpt lat="45.8574" lon="4.79921">
        <ele>343.20001220703</ele>
        <time>2019-08-17T09:26:15.000Z</time>
      </trkpt>
      <trkpt lat="45.85735" lon="4.79921">
        <ele>341.39999389648</ele>
        <time>2019-08-17T09:26:16.000Z</time>
      </trkpt>
      <trkpt lat="45.8573" lon="4.79925">
        <ele>340.39999389648</ele>
        <time>2019-08-17T09:26:17.000Z</time>
      </trkpt>
      <trkpt lat="45.85727" lon="4.79934">
        <ele>339.60000610352</ele>
        <time>2019-08-17T09:26:18.000Z</time>
      </trkpt>
      <trkpt lat="45.85725" lon="4.79944">
        <ele>338.79998779297</ele>
        <time>2019-08-17T09:26:19.000Z</time>
      </trkpt>
      <trkpt lat="45.85724" lon="4.79955">
        <ele>337.79998779297</ele>
        <time>2019-08-17T09:26:20.000Z</time>
      </trkpt>
      <trkpt lat="45.85722" lon="4.79966">
        <ele>337.39999389648</ele>
        <time>2019-08-17T09:26:21.000Z</time>
      </trkpt>
      <trkpt lat="45.8572" lon="4.79977">
        <ele>336.79998779297</ele>
        <time>2019-08-17T09:26:22.000Z</time>
      </trkpt>
      <trkpt lat="45.85717" lon="4.79987">
        <ele>336.39999389648</ele>
        <time>2019-08-17T09:26:23.000Z</time>
      </trkpt>
      <trkpt lat="45.85712" lon="4.79994">
        <ele>335.79998779297</ele>
        <time>2019-08-17T09:26:24.000Z</time>
      </trkpt>
      <trkpt lat="45.85706" lon="4.79998">
        <ele>335.20001220703</ele>
        <time>2019-08-17T09:26:25.000Z</time>
      </trkpt>
      <trkpt lat="45.857" lon="4.79998">
        <ele>334.60000610352</ele>
        <time>2019-08-17T09:26:26.000Z</time>
      </trkpt>
      <trkpt lat="45.85695" lon="4.79994">
        <ele>333.79998779297</ele>
        <time>2019-08-17T09:26:27.000Z</time>
      </trkpt>
      <trkpt lat="45.8569" lon="4.79987">
        <ele>333.20001220703</ele>
        <time>2019-08-17T09:26:28.000Z</time>
      </trkpt>
      <trkpt lat="45.85684" lon="4.79981">
        <ele>332.39999389648</ele>
        <time>2019-08-17T09:26:29.000Z</time>
      </trkpt>
      <trkpt lat="45.85676" lon="4.79976">
        <ele>331.60000610352</ele>
        <time>2019-08-17T09:26:30.000Z</time>
      </trkpt>
      <trkpt lat="45.85668" lon="4.79973">
        <ele>330.79998779297</ele>
        <time>2019-08-17T09:26:31.000Z</time>
      </trkpt>
      <trkpt lat="45.85659" lon="4.79971">
        <ele>330.20001220703</ele>
        <time>2019-08-17T09:26:32.000Z</time>
      </trkpt>
      <trkpt lat="45.8565" lon="4.79969">
        <ele>329.60000610352</ele>
        <time>2019-08-17T09:26:33.000Z</time>
      </trkpt>
      <trkpt lat="45.85641" lon="4.79967">
        <ele>329</ele>
        <time>2019-08-17T09:26:34.000Z</time>
      </trkpt>
      <trkpt lat="45.85634" lon="4.79965">
        <ele>328.39999389648</ele>
        <time>2019-08-17T09:26:35.000Z</time>
      </trkpt>
      <trkpt lat="45.85628" lon="4.79963">
        <ele>327.79998779297</ele>
        <time>2019-08-17T09:26:36.000Z</time>
      </trkpt>
      <trkpt lat="45.85623" lon="4.79962">
        <ele>327.20001220703</ele>
        <time>2019-08-17T09:26:37.000Z</time>
      </trkpt>
      <trkpt lat="45.85618" lon="4.79962">
        <ele>326.60000610352</ele>
        <time>2019-08-17T09:26:38.000Z</time>
      </trkpt>
      <trkpt lat="45.85614" lon="4.79964">
        <ele>325.79998779297</ele>
        <time>2019-08-17T09:26:39.000Z</time>
      </trkpt>
      <trkpt lat="45.85612" lon="4.79967">
        <ele>325.20001220703</ele>
        <time>2019-08-17T09:26:40.000Z</time>
      </trkpt>
      <trkpt lat="45.85611" lon="4.79969">
        <ele>323.79998779297</ele>
        <time>2019-08-17T09:26:41.000Z</time>
      </trkpt>
      <trkpt lat="45.85611" lon="4.79971">
        <ele>323</ele>
        <time>2019-08-17T09:26:42.000Z</time>
      </trkpt>
      <trkpt lat="45.85611" lon="4.79971">
        <ele>323</ele>
        <time>2019-08-17T09:26:43.000Z</time>
      </trkpt>
      <trkpt lat="45.85612" lon="4.79973">
        <ele>323</ele>
        <time>2019-08-17T09:26:57.000Z</time>
      </trkpt>
      <trkpt lat="45.85615" lon="4.79978">
        <ele>323</ele>
        <time>2019-08-17T09:26:59.000Z</time>
      </trkpt>
      <trkpt lat="45.85621" lon="4.79981">
        <ele>322.60000610352</ele>
        <time>2019-08-17T09:27:01.000Z</time>
      </trkpt>
      <trkpt lat="45.85625" lon="4.79981">
        <ele>322.20001220703</ele>
        <time>2019-08-17T09:27:02.000Z</time>
      </trkpt>
      <trkpt lat="45.8563" lon="4.79982">
        <ele>321.79998779297</ele>
        <time>2019-08-17T09:27:03.000Z</time>
      </trkpt>
      <trkpt lat="45.85636" lon="4.79985">
        <ele>321.39999389648</ele>
        <time>2019-08-17T09:27:04.000Z</time>
      </trkpt>
      <trkpt lat="45.8564" lon="4.79992">
        <ele>321</ele>
        <time>2019-08-17T09:27:05.000Z</time>
      </trkpt>
      <trkpt lat="45.85644" lon="4.80008">
        <ele>320.39999389648</ele>
        <time>2019-08-17T09:27:07.000Z</time>
      </trkpt>
      <trkpt lat="45.85644" lon="4.80018">
        <ele>320</ele>
        <time>2019-08-17T09:27:08.000Z</time>
      </trkpt>
      <trkpt lat="45.85641" lon="4.80028">
        <ele>319.39999389648</ele>
        <time>2019-08-17T09:27:09.000Z</time>
      </trkpt>
      <trkpt lat="45.85638" lon="4.80038">
        <ele>319</ele>
        <time>2019-08-17T09:27:10.000Z</time>
      </trkpt>
      <trkpt lat="45.85633" lon="4.80046">
        <ele>318.60000610352</ele>
        <time>2019-08-17T09:27:11.000Z</time>
      </trkpt>
      <trkpt lat="45.85626" lon="4.80052">
        <ele>318</ele>
        <time>2019-08-17T09:27:12.000Z</time>
      </trkpt>
      <trkpt lat="45.85618" lon="4.80057">
        <ele>317.60000610352</ele>
        <time>2019-08-17T09:27:13.000Z</time>
      </trkpt>
      <trkpt lat="45.85609" lon="4.80061">
        <ele>317</ele>
        <time>2019-08-17T09:27:14.000Z</time>
      </trkpt>
      <trkpt lat="45.856" lon="4.80065">
        <ele>316.39999389648</ele>
        <time>2019-08-17T09:27:15.000Z</time>
      </trkpt>
      <trkpt lat="45.85592" lon="4.8007">
        <ele>315.60000610352</ele>
        <time>2019-08-17T09:27:16.000Z</time>
      </trkpt>
      <trkpt lat="45.85584" lon="4.80074">
        <ele>315</ele>
        <time>2019-08-17T09:27:17.000Z</time>
      </trkpt>
      <trkpt lat="45.85576" lon="4.80079">
        <ele>314.20001220703</ele>
        <time>2019-08-17T09:27:18.000Z</time>
      </trkpt>
      <trkpt lat="45.85567" lon="4.80082">
        <ele>313.39999389648</ele>
        <time>2019-08-17T09:27:19.000Z</time>
      </trkpt>
      <trkpt lat="45.85558" lon="4.80086">
        <ele>312.60000610352</ele>
        <time>2019-08-17T09:27:20.000Z</time>
      </trkpt>
      <trkpt lat="45.85548" lon="4.8009">
        <ele>311.79998779297</ele>
        <time>2019-08-17T09:27:21.000Z</time>
      </trkpt>
      <trkpt lat="45.85538" lon="4.80095">
        <ele>311</ele>
        <time>2019-08-17T09:27:22.000Z</time>
      </trkpt>
      <trkpt lat="45.85529" lon="4.80101">
        <ele>310.60000610352</ele>
        <time>2019-08-17T09:27:23.000Z</time>
      </trkpt>
      <trkpt lat="45.8552" lon="4.80108">
        <ele>310.20001220703</ele>
        <time>2019-08-17T09:27:24.000Z</time>
      </trkpt>
      <trkpt lat="45.85511" lon="4.80116">
        <ele>309.79998779297</ele>
        <time>2019-08-17T09:27:25.000Z</time>
      </trkpt>
      <trkpt lat="45.85502" lon="4.80125">
        <ele>309.20001220703</ele>
        <time>2019-08-17T09:27:26.000Z</time>
      </trkpt>
      <trkpt lat="45.85493" lon="4.80133">
        <ele>308.39999389648</ele>
        <time>2019-08-17T09:27:27.000Z</time>
      </trkpt>
      <trkpt lat="45.85485" lon="4.80142">
        <ele>307.79998779297</ele>
        <time>2019-08-17T09:27:28.000Z</time>
      </trkpt>
      <trkpt lat="45.85477" lon="4.80151">
        <ele>307</ele>
        <time>2019-08-17T09:27:29.000Z</time>
      </trkpt>
      <trkpt lat="45.85469" lon="4.8016">
        <ele>305</ele>
        <time>2019-08-17T09:27:30.000Z</time>
      </trkpt>
      <trkpt lat="45.85462" lon="4.80168">
        <ele>304</ele>
        <time>2019-08-17T09:27:31.000Z</time>
      </trkpt>
      <trkpt lat="45.85456" lon="4.80176">
        <ele>303</ele>
        <time>2019-08-17T09:27:32.000Z</time>
      </trkpt>
      <trkpt lat="45.85449" lon="4.80183">
        <ele>302</ele>
        <time>2019-08-17T09:27:33.000Z</time>
      </trkpt>
      <trkpt lat="45.85443" lon="4.80191">
        <ele>301</ele>
        <time>2019-08-17T09:27:34.000Z</time>
      </trkpt>
      <trkpt lat="45.85437" lon="4.802">
        <ele>300</ele>
        <time>2019-08-17T09:27:35.000Z</time>
      </trkpt>
      <trkpt lat="45.85432" lon="4.80211">
        <ele>299</ele>
        <time>2019-08-17T09:27:36.000Z</time>
      </trkpt>
      <trkpt lat="45.85429" lon="4.80224">
        <ele>298</ele>
        <time>2019-08-17T09:27:37.000Z</time>
      </trkpt>
      <trkpt lat="45.8543" lon="4.80237">
        <ele>297</ele>
        <time>2019-08-17T09:27:38.000Z</time>
      </trkpt>
      <trkpt lat="45.85432" lon="4.8025">
        <ele>295.79998779297</ele>
        <time>2019-08-17T09:27:39.000Z</time>
      </trkpt>
      <trkpt lat="45.85436" lon="4.80263">
        <ele>295.39999389648</ele>
        <time>2019-08-17T09:27:40.000Z</time>
      </trkpt>
      <trkpt lat="45.85441" lon="4.80276">
        <ele>294.79998779297</ele>
        <time>2019-08-17T09:27:41.000Z</time>
      </trkpt>
      <trkpt lat="45.85446" lon="4.80289">
        <ele>294.39999389648</ele>
        <time>2019-08-17T09:27:42.000Z</time>
      </trkpt>
      <trkpt lat="45.85451" lon="4.80302">
        <ele>293.79998779297</ele>
        <time>2019-08-17T09:27:43.000Z</time>
      </trkpt>
      <trkpt lat="45.85456" lon="4.80315">
        <ele>293</ele>
        <time>2019-08-17T09:27:44.000Z</time>
      </trkpt>
      <trkpt lat="45.8546" lon="4.80325">
        <ele>292.20001220703</ele>
        <time>2019-08-17T09:27:45.000Z</time>
      </trkpt>
      <trkpt lat="45.85462" lon="4.80331">
        <ele>291.60000610352</ele>
        <time>2019-08-17T09:27:46.000Z</time>
      </trkpt>
      <trkpt lat="45.85463" lon="4.80336">
        <ele>290.60000610352</ele>
        <time>2019-08-17T09:27:47.000Z</time>
      </trkpt>
      <trkpt lat="45.85464" lon="4.80342">
        <ele>289.79998779297</ele>
        <time>2019-08-17T09:27:48.000Z</time>
      </trkpt>
      <trkpt lat="45.85465" lon="4.80348">
        <ele>288.79998779297</ele>
        <time>2019-08-17T09:27:49.000Z</time>
      </trkpt>
      <trkpt lat="45.85465" lon="4.80352">
        <ele>288</ele>
        <time>2019-08-17T09:27:50.000Z</time>
      </trkpt>
      <trkpt lat="45.85466" lon="4.80355">
        <ele>287</ele>
        <time>2019-08-17T09:27:51.000Z</time>
      </trkpt>
      <trkpt lat="45.85467" lon="4.8036">
        <ele>286.60000610352</ele>
        <time>2019-08-17T09:27:53.000Z</time>
      </trkpt>
      <trkpt lat="45.85467" lon="4.80362">
        <ele>286.20001220703</ele>
        <time>2019-08-17T09:27:54.000Z</time>
      </trkpt>
      <trkpt lat="45.85468" lon="4.80365">
        <ele>285.39999389648</ele>
        <time>2019-08-17T09:27:55.000Z</time>
      </trkpt>
      <trkpt lat="45.85469" lon="4.80368">
        <ele>285</ele>
        <time>2019-08-17T09:27:56.000Z</time>
      </trkpt>
      <trkpt lat="45.85472" lon="4.80392">
        <ele>285</ele>
        <time>2019-08-17T09:28:01.000Z</time>
      </trkpt>
      <trkpt lat="45.85475" lon="4.80441">
        <ele>285</ele>
        <time>2019-08-17T09:28:07.000Z</time>
      </trkpt>
      <trkpt lat="45.85478" lon="4.80465">
        <ele>284.60000610352</ele>
        <time>2019-08-17T09:28:10.000Z</time>
      </trkpt>
      <trkpt lat="45.85479" lon="4.80474">
        <ele>284.20001220703</ele>
        <time>2019-08-17T09:28:11.000Z</time>
      </trkpt>
      <trkpt lat="45.8548" lon="4.80483">
        <ele>283.79998779297</ele>
        <time>2019-08-17T09:28:12.000Z</time>
      </trkpt>
      <trkpt lat="45.85481" lon="4.80492">
        <ele>283.39999389648</ele>
        <time>2019-08-17T09:28:13.000Z</time>
      </trkpt>
      <trkpt lat="45.85481" lon="4.80502">
        <ele>283</ele>
        <time>2019-08-17T09:28:14.000Z</time>
      </trkpt>
      <trkpt lat="45.85483" lon="4.80511">
        <ele>283</ele>
        <time>2019-08-17T09:28:15.000Z</time>
      </trkpt>
      <trkpt lat="45.85487" lon="4.80531">
        <ele>282.39999389648</ele>
        <time>2019-08-17T09:28:17.000Z</time>
      </trkpt>
      <trkpt lat="45.85489" lon="4.8054">
        <ele>282</ele>
        <time>2019-08-17T09:28:18.000Z</time>
      </trkpt>
      <trkpt lat="45.85492" lon="4.8055">
        <ele>281.20001220703</ele>
        <time>2019-08-17T09:28:19.000Z</time>
      </trkpt>
      <trkpt lat="45.85497" lon="4.8056">
        <ele>280.79998779297</ele>
        <time>2019-08-17T09:28:20.000Z</time>
      </trkpt>
      <trkpt lat="45.85508" lon="4.80579">
        <ele>280.79998779297</ele>
        <time>2019-08-17T09:28:22.000Z</time>
      </trkpt>
      <trkpt lat="45.85513" lon="4.80589">
        <ele>280.39999389648</ele>
        <time>2019-08-17T09:28:23.000Z</time>
      </trkpt>
      <trkpt lat="45.85519" lon="4.80599">
        <ele>279.79998779297</ele>
        <time>2019-08-17T09:28:24.000Z</time>
      </trkpt>
      <trkpt lat="45.85525" lon="4.8061">
        <ele>279.39999389648</ele>
        <time>2019-08-17T09:28:25.000Z</time>
      </trkpt>
      <trkpt lat="45.85531" lon="4.8062">
        <ele>278.79998779297</ele>
        <time>2019-08-17T09:28:26.000Z</time>
      </trkpt>
      <trkpt lat="45.85537" lon="4.8063">
        <ele>278.39999389648</ele>
        <time>2019-08-17T09:28:27.000Z</time>
      </trkpt>
      <trkpt lat="45.85542" lon="4.80641">
        <ele>278</ele>
        <time>2019-08-17T09:28:28.000Z</time>
      </trkpt>
      <trkpt lat="45.85548" lon="4.80652">
        <ele>277.60000610352</ele>
        <time>2019-08-17T09:28:29.000Z</time>
      </trkpt>
      <trkpt lat="45.85554" lon="4.80662">
        <ele>277</ele>
        <time>2019-08-17T09:28:30.000Z</time>
      </trkpt>
      <trkpt lat="45.8556" lon="4.80672">
        <ele>276.60000610352</ele>
        <time>2019-08-17T09:28:31.000Z</time>
      </trkpt>
      <trkpt lat="45.85566" lon="4.80683">
        <ele>276</ele>
        <time>2019-08-17T09:28:32.000Z</time>
      </trkpt>
      <trkpt lat="45.85572" lon="4.80695">
        <ele>275.60000610352</ele>
        <time>2019-08-17T09:28:33.000Z</time>
      </trkpt>
      <trkpt lat="45.85577" lon="4.80706">
        <ele>275</ele>
        <time>2019-08-17T09:28:34.000Z</time>
      </trkpt>
      <trkpt lat="45.85583" lon="4.80717">
        <ele>274.60000610352</ele>
        <time>2019-08-17T09:28:35.000Z</time>
      </trkpt>
      <trkpt lat="45.85589" lon="4.80728">
        <ele>274</ele>
        <time>2019-08-17T09:28:36.000Z</time>
      </trkpt>
      <trkpt lat="45.85595" lon="4.80739">
        <ele>273.39999389648</ele>
        <time>2019-08-17T09:28:37.000Z</time>
      </trkpt>
      <trkpt lat="45.85601" lon="4.8075">
        <ele>272.79998779297</ele>
        <time>2019-08-17T09:28:38.000Z</time>
      </trkpt>
      <trkpt lat="45.85607" lon="4.8076">
        <ele>272.20001220703</ele>
        <time>2019-08-17T09:28:39.000Z</time>
      </trkpt>
      <trkpt lat="45.85613" lon="4.80771">
        <ele>271.60000610352</ele>
        <time>2019-08-17T09:28:40.000Z</time>
      </trkpt>
      <trkpt lat="45.85624" lon="4.80791">
        <ele>271.20001220703</ele>
        <time>2019-08-17T09:28:42.000Z</time>
      </trkpt>
      <trkpt lat="45.8563" lon="4.80801">
        <ele>270.79998779297</ele>
        <time>2019-08-17T09:28:43.000Z</time>
      </trkpt>
      <trkpt lat="45.85634" lon="4.80811">
        <ele>269.79998779297</ele>
        <time>2019-08-17T09:28:44.000Z</time>
      </trkpt>
      <trkpt lat="45.85639" lon="4.8082">
        <ele>269.39999389648</ele>
        <time>2019-08-17T09:28:45.000Z</time>
      </trkpt>
      <trkpt lat="45.85643" lon="4.80829">
        <ele>269.39999389648</ele>
        <time>2019-08-17T09:28:46.000Z</time>
      </trkpt>
      <trkpt lat="45.85648" lon="4.80838">
        <ele>269</ele>
        <time>2019-08-17T09:28:47.000Z</time>
      </trkpt>
      <trkpt lat="45.85652" lon="4.80846">
        <ele>268.39999389648</ele>
        <time>2019-08-17T09:28:48.000Z</time>
      </trkpt>
      <trkpt lat="45.85658" lon="4.80854">
        <ele>268</ele>
        <time>2019-08-17T09:28:49.000Z</time>
      </trkpt>
      <trkpt lat="45.85664" lon="4.80861">
        <ele>267.39999389648</ele>
        <time>2019-08-17T09:28:50.000Z</time>
      </trkpt>
      <trkpt lat="45.8567" lon="4.80868">
        <ele>267</ele>
        <time>2019-08-17T09:28:51.000Z</time>
      </trkpt>
      <trkpt lat="45.85679" lon="4.80874">
        <ele>266.39999389648</ele>
        <time>2019-08-17T09:28:52.000Z</time>
      </trkpt>
      <trkpt lat="45.85688" lon="4.80879">
        <ele>266</ele>
        <time>2019-08-17T09:28:53.000Z</time>
      </trkpt>
      <trkpt lat="45.85699" lon="4.80883">
        <ele>265.39999389648</ele>
        <time>2019-08-17T09:28:54.000Z</time>
      </trkpt>
      <trkpt lat="45.85711" lon="4.80885">
        <ele>265</ele>
        <time>2019-08-17T09:28:55.000Z</time>
      </trkpt>
      <trkpt lat="45.85723" lon="4.80887">
        <ele>265</ele>
        <time>2019-08-17T09:28:56.000Z</time>
      </trkpt>
      <trkpt lat="45.85749" lon="4.80893">
        <ele>264.39999389648</ele>
        <time>2019-08-17T09:28:58.000Z</time>
      </trkpt>
      <trkpt lat="45.85762" lon="4.80899">
        <ele>264</ele>
        <time>2019-08-17T09:28:59.000Z</time>
      </trkpt>
      <trkpt lat="45.85774" lon="4.80905">
        <ele>263.60000610352</ele>
        <time>2019-08-17T09:29:00.000Z</time>
      </trkpt>
      <trkpt lat="45.85787" lon="4.80912">
        <ele>263.20001220703</ele>
        <time>2019-08-17T09:29:01.000Z</time>
      </trkpt>
      <trkpt lat="45.85799" lon="4.8092">
        <ele>262.60000610352</ele>
        <time>2019-08-17T09:29:02.000Z</time>
      </trkpt>
      <trkpt lat="45.85812" lon="4.80928">
        <ele>262</ele>
        <time>2019-08-17T09:29:03.000Z</time>
      </trkpt>
      <trkpt lat="45.85823" lon="4.80935">
        <ele>261.39999389648</ele>
        <time>2019-08-17T09:29:04.000Z</time>
      </trkpt>
      <trkpt lat="45.85836" lon="4.80942">
        <ele>260.79998779297</ele>
        <time>2019-08-17T09:29:05.000Z</time>
      </trkpt>
      <trkpt lat="45.85848" lon="4.80948">
        <ele>260.20001220703</ele>
        <time>2019-08-17T09:29:06.000Z</time>
      </trkpt>
      <trkpt lat="45.85861" lon="4.80954">
        <ele>259.79998779297</ele>
        <time>2019-08-17T09:29:07.000Z</time>
      </trkpt>
      <trkpt lat="45.85874" lon="4.80958">
        <ele>259.39999389648</ele>
        <time>2019-08-17T09:29:08.000Z</time>
      </trkpt>
      <trkpt lat="45.85887" lon="4.80963">
        <ele>258.60000610352</ele>
        <time>2019-08-17T09:29:09.000Z</time>
      </trkpt>
      <trkpt lat="45.85901" lon="4.80968">
        <ele>258.20001220703</ele>
        <time>2019-08-17T09:29:10.000Z</time>
      </trkpt>
      <trkpt lat="45.85914" lon="4.80974">
        <ele>257.79998779297</ele>
        <time>2019-08-17T09:29:11.000Z</time>
      </trkpt>
      <trkpt lat="45.85926" lon="4.80983">
        <ele>257.39999389648</ele>
        <time>2019-08-17T09:29:12.000Z</time>
      </trkpt>
      <trkpt lat="45.85938" lon="4.80993">
        <ele>256.60000610352</ele>
        <time>2019-08-17T09:29:13.000Z</time>
      </trkpt>
      <trkpt lat="45.85949" lon="4.81005">
        <ele>256</ele>
        <time>2019-08-17T09:29:14.000Z</time>
      </trkpt>
      <trkpt lat="45.85959" lon="4.81018">
        <ele>255.39999389648</ele>
        <time>2019-08-17T09:29:15.000Z</time>
      </trkpt>
      <trkpt lat="45.85967" lon="4.81032">
        <ele>254.80000305176</ele>
        <time>2019-08-17T09:29:16.000Z</time>
      </trkpt>
      <trkpt lat="45.85976" lon="4.81045">
        <ele>254</ele>
        <time>2019-08-17T09:29:17.000Z</time>
      </trkpt>
      <trkpt lat="45.85991" lon="4.81074">
        <ele>253.60000610352</ele>
        <time>2019-08-17T09:29:19.000Z</time>
      </trkpt>
      <trkpt lat="45.85998" lon="4.81089">
        <ele>253</ele>
        <time>2019-08-17T09:29:20.000Z</time>
      </trkpt>
      <trkpt lat="45.86005" lon="4.81105">
        <ele>252.60000610352</ele>
        <time>2019-08-17T09:29:21.000Z</time>
      </trkpt>
      <trkpt lat="45.86011" lon="4.8112">
        <ele>252</ele>
        <time>2019-08-17T09:29:22.000Z</time>
      </trkpt>
      <trkpt lat="45.86017" lon="4.81135">
        <ele>251.60000610352</ele>
        <time>2019-08-17T09:29:23.000Z</time>
      </trkpt>
      <trkpt lat="45.86023" lon="4.81149">
        <ele>251</ele>
        <time>2019-08-17T09:29:24.000Z</time>
      </trkpt>
      <trkpt lat="45.86029" lon="4.81164">
        <ele>250.60000610352</ele>
        <time>2019-08-17T09:29:25.000Z</time>
      </trkpt>
      <trkpt lat="45.86036" lon="4.81177">
        <ele>250</ele>
        <time>2019-08-17T09:29:26.000Z</time>
      </trkpt>
      <trkpt lat="45.86041" lon="4.81191">
        <ele>249.60000610352</ele>
        <time>2019-08-17T09:29:27.000Z</time>
      </trkpt>
      <trkpt lat="45.86047" lon="4.81202">
        <ele>249.60000610352</ele>
        <time>2019-08-17T09:29:28.000Z</time>
      </trkpt>
      <trkpt lat="45.86053" lon="4.81214">
        <ele>249</ele>
        <time>2019-08-17T09:29:29.000Z</time>
      </trkpt>
      <trkpt lat="45.8606" lon="4.81223">
        <ele>248.60000610352</ele>
        <time>2019-08-17T09:29:30.000Z</time>
      </trkpt>
      <trkpt lat="45.86067" lon="4.81232">
        <ele>248</ele>
        <time>2019-08-17T09:29:31.000Z</time>
      </trkpt>
      <trkpt lat="45.86074" lon="4.81241">
        <ele>247.39999389648</ele>
        <time>2019-08-17T09:29:32.000Z</time>
      </trkpt>
      <trkpt lat="45.86081" lon="4.81248">
        <ele>247</ele>
        <time>2019-08-17T09:29:33.000Z</time>
      </trkpt>
      <trkpt lat="45.86089" lon="4.81255">
        <ele>247</ele>
        <time>2019-08-17T09:29:34.000Z</time>
      </trkpt>
      <trkpt lat="45.86098" lon="4.81261">
        <ele>246.60000610352</ele>
        <time>2019-08-17T09:29:35.000Z</time>
      </trkpt>
      <trkpt lat="45.86107" lon="4.81266">
        <ele>246.19999694824</ele>
        <time>2019-08-17T09:29:36.000Z</time>
      </trkpt>
      <trkpt lat="45.86116" lon="4.81271">
        <ele>245.60000610352</ele>
        <time>2019-08-17T09:29:37.000Z</time>
      </trkpt>
      <trkpt lat="45.86126" lon="4.81276">
        <ele>245.19999694824</ele>
        <time>2019-08-17T09:29:38.000Z</time>
      </trkpt>
      <trkpt lat="45.86135" lon="4.81279">
        <ele>244.80000305176</ele>
        <time>2019-08-17T09:29:39.000Z</time>
      </trkpt>
      <trkpt lat="45.86165" lon="4.8129">
        <ele>244.80000305176</ele>
        <time>2019-08-17T09:29:42.000Z</time>
      </trkpt>
      <trkpt lat="45.86215" lon="4.81305">
        <ele>244.39999389648</ele>
        <time>2019-08-17T09:29:47.000Z</time>
      </trkpt>
      <trkpt lat="45.86226" lon="4.81306">
        <ele>243.80000305176</ele>
        <time>2019-08-17T09:29:48.000Z</time>
      </trkpt>
      <trkpt lat="45.86237" lon="4.81308">
        <ele>243.39999389648</ele>
        <time>2019-08-17T09:29:49.000Z</time>
      </trkpt>
      <trkpt lat="45.86248" lon="4.81308">
        <ele>243</ele>
        <time>2019-08-17T09:29:50.000Z</time>
      </trkpt>
      <trkpt lat="45.86259" lon="4.81309">
        <ele>242.39999389648</ele>
        <time>2019-08-17T09:29:51.000Z</time>
      </trkpt>
      <trkpt lat="45.86271" lon="4.8131">
        <ele>242</ele>
        <time>2019-08-17T09:29:52.000Z</time>
      </trkpt>
      <trkpt lat="45.86283" lon="4.8131">
        <ele>241.39999389648</ele>
        <time>2019-08-17T09:29:53.000Z</time>
      </trkpt>
      <trkpt lat="45.86294" lon="4.8131">
        <ele>241</ele>
        <time>2019-08-17T09:29:54.000Z</time>
      </trkpt>
      <trkpt lat="45.86306" lon="4.8131">
        <ele>240.19999694824</ele>
        <time>2019-08-17T09:29:55.000Z</time>
      </trkpt>
      <trkpt lat="45.86317" lon="4.81311">
        <ele>239.60000610352</ele>
        <time>2019-08-17T09:29:56.000Z</time>
      </trkpt>
      <trkpt lat="45.86329" lon="4.81312">
        <ele>238.80000305176</ele>
        <time>2019-08-17T09:29:57.000Z</time>
      </trkpt>
      <trkpt lat="45.86341" lon="4.81313">
        <ele>237.39999389648</ele>
        <time>2019-08-17T09:29:58.000Z</time>
      </trkpt>
      <trkpt lat="45.86353" lon="4.81314">
        <ele>236.60000610352</ele>
        <time>2019-08-17T09:29:59.000Z</time>
      </trkpt>
      <trkpt lat="45.86365" lon="4.81316">
        <ele>235.80000305176</ele>
        <time>2019-08-17T09:30:00.000Z</time>
      </trkpt>
      <trkpt lat="45.86377" lon="4.81318">
        <ele>235.19999694824</ele>
        <time>2019-08-17T09:30:01.000Z</time>
      </trkpt>
      <trkpt lat="45.86389" lon="4.8132">
        <ele>234.60000610352</ele>
        <time>2019-08-17T09:30:02.000Z</time>
      </trkpt>
      <trkpt lat="45.86401" lon="4.81321">
        <ele>234</ele>
        <time>2019-08-17T09:30:03.000Z</time>
      </trkpt>
      <trkpt lat="45.86413" lon="4.81323">
        <ele>233.19999694824</ele>
        <time>2019-08-17T09:30:04.000Z</time>
      </trkpt>
      <trkpt lat="45.86425" lon="4.81325">
        <ele>232.19999694824</ele>
        <time>2019-08-17T09:30:05.000Z</time>
      </trkpt>
      <trkpt lat="45.86437" lon="4.81327">
        <ele>231.39999389648</ele>
        <time>2019-08-17T09:30:06.000Z</time>
      </trkpt>
      <trkpt lat="45.8645" lon="4.81329">
        <ele>230.60000610352</ele>
        <time>2019-08-17T09:30:07.000Z</time>
      </trkpt>
      <trkpt lat="45.86462" lon="4.81331">
        <ele>229.60000610352</ele>
        <time>2019-08-17T09:30:08.000Z</time>
      </trkpt>
      <trkpt lat="45.86473" lon="4.81333">
        <ele>228.60000610352</ele>
        <time>2019-08-17T09:30:09.000Z</time>
      </trkpt>
      <trkpt lat="45.86485" lon="4.81335">
        <ele>227.80000305176</ele>
        <time>2019-08-17T09:30:10.000Z</time>
      </trkpt>
      <trkpt lat="45.86496" lon="4.81338">
        <ele>226.80000305176</ele>
        <time>2019-08-17T09:30:11.000Z</time>
      </trkpt>
      <trkpt lat="45.86508" lon="4.8134">
        <ele>225.80000305176</ele>
        <time>2019-08-17T09:30:12.000Z</time>
      </trkpt>
      <trkpt lat="45.86519" lon="4.81343">
        <ele>225</ele>
        <time>2019-08-17T09:30:13.000Z</time>
      </trkpt>
      <trkpt lat="45.86531" lon="4.81346">
        <ele>224.19999694824</ele>
        <time>2019-08-17T09:30:14.000Z</time>
      </trkpt>
      <trkpt lat="45.86543" lon="4.81349">
        <ele>223.19999694824</ele>
        <time>2019-08-17T09:30:15.000Z</time>
      </trkpt>
      <trkpt lat="45.86555" lon="4.81353">
        <ele>222.60000610352</ele>
        <time>2019-08-17T09:30:16.000Z</time>
      </trkpt>
      <trkpt lat="45.86565" lon="4.81359">
        <ele>221.80000305176</ele>
        <time>2019-08-17T09:30:17.000Z</time>
      </trkpt>
      <trkpt lat="45.86575" lon="4.81368">
        <ele>221.19999694824</ele>
        <time>2019-08-17T09:30:18.000Z</time>
      </trkpt>
      <trkpt lat="45.86583" lon="4.8138">
        <ele>220.39999389648</ele>
        <time>2019-08-17T09:30:19.000Z</time>
      </trkpt>
      <trkpt lat="45.86589" lon="4.81393">
        <ele>219.60000610352</ele>
        <time>2019-08-17T09:30:20.000Z</time>
      </trkpt>
      <trkpt lat="45.86596" lon="4.81405">
        <ele>218.80000305176</ele>
        <time>2019-08-17T09:30:21.000Z</time>
      </trkpt>
      <trkpt lat="45.86603" lon="4.81418">
        <ele>217.80000305176</ele>
        <time>2019-08-17T09:30:22.000Z</time>
      </trkpt>
      <trkpt lat="45.86609" lon="4.8143">
        <ele>217</ele>
        <time>2019-08-17T09:30:23.000Z</time>
      </trkpt>
      <trkpt lat="45.86616" lon="4.81441">
        <ele>216.60000610352</ele>
        <time>2019-08-17T09:30:24.000Z</time>
      </trkpt>
      <trkpt lat="45.86623" lon="4.81451">
        <ele>216.19999694824</ele>
        <time>2019-08-17T09:30:25.000Z</time>
      </trkpt>
      <trkpt lat="45.86631" lon="4.81462">
        <ele>215.80000305176</ele>
        <time>2019-08-17T09:30:26.000Z</time>
      </trkpt>
      <trkpt lat="45.86639" lon="4.81472">
        <ele>215.19999694824</ele>
        <time>2019-08-17T09:30:27.000Z</time>
      </trkpt>
      <trkpt lat="45.86647" lon="4.81482">
        <ele>214.80000305176</ele>
        <time>2019-08-17T09:30:28.000Z</time>
      </trkpt>
      <trkpt lat="45.86663" lon="4.81501">
        <ele>214.80000305176</ele>
        <time>2019-08-17T09:30:30.000Z</time>
      </trkpt>
      <trkpt lat="45.86671" lon="4.8151">
        <ele>214.39999389648</ele>
        <time>2019-08-17T09:30:31.000Z</time>
      </trkpt>
      <trkpt lat="45.86678" lon="4.81519">
        <ele>213.80000305176</ele>
        <time>2019-08-17T09:30:32.000Z</time>
      </trkpt>
      <trkpt lat="45.86685" lon="4.81527">
        <ele>213.39999389648</ele>
        <time>2019-08-17T09:30:33.000Z</time>
      </trkpt>
      <trkpt lat="45.86692" lon="4.81535">
        <ele>212.80000305176</ele>
        <time>2019-08-17T09:30:34.000Z</time>
      </trkpt>
      <trkpt lat="45.86699" lon="4.81544">
        <ele>212.39999389648</ele>
        <time>2019-08-17T09:30:35.000Z</time>
      </trkpt>
      <trkpt lat="45.86706" lon="4.81552">
        <ele>212</ele>
        <time>2019-08-17T09:30:36.000Z</time>
      </trkpt>
      <trkpt lat="45.86712" lon="4.81561">
        <ele>211.60000610352</ele>
        <time>2019-08-17T09:30:37.000Z</time>
      </trkpt>
      <trkpt lat="45.86719" lon="4.81569">
        <ele>211.19999694824</ele>
        <time>2019-08-17T09:30:38.000Z</time>
      </trkpt>
      <trkpt lat="45.86724" lon="4.81578">
        <ele>210.80000305176</ele>
        <time>2019-08-17T09:30:39.000Z</time>
      </trkpt>
      <trkpt lat="45.8673" lon="4.81588">
        <ele>210.39999389648</ele>
        <time>2019-08-17T09:30:40.000Z</time>
      </trkpt>
      <trkpt lat="45.86735" lon="4.81598">
        <ele>210</ele>
        <time>2019-08-17T09:30:41.000Z</time>
      </trkpt>
      <trkpt lat="45.8674" lon="4.81609">
        <ele>209.39999389648</ele>
        <time>2019-08-17T09:30:42.000Z</time>
      </trkpt>
      <trkpt lat="45.86745" lon="4.81621">
        <ele>209</ele>
        <time>2019-08-17T09:30:43.000Z</time>
      </trkpt>
      <trkpt lat="45.86749" lon="4.81634">
        <ele>208.60000610352</ele>
        <time>2019-08-17T09:30:44.000Z</time>
      </trkpt>
      <trkpt lat="45.86754" lon="4.81647">
        <ele>208.19999694824</ele>
        <time>2019-08-17T09:30:45.000Z</time>
      </trkpt>
      <trkpt lat="45.8676" lon="4.8166">
        <ele>208.19999694824</ele>
        <time>2019-08-17T09:30:46.000Z</time>
      </trkpt>
      <trkpt lat="45.8679" lon="4.81728">
        <ele>208.19999694824</ele>
        <time>2019-08-17T09:30:51.000Z</time>
      </trkpt>
      <trkpt lat="45.86796" lon="4.81742">
        <ele>208.19999694824</ele>
        <time>2019-08-17T09:30:52.000Z</time>
      </trkpt>
      <trkpt lat="45.86825" lon="4.81806">
        <ele>207.60000610352</ele>
        <time>2019-08-17T09:30:57.000Z</time>
      </trkpt>
      <trkpt lat="45.8683" lon="4.81818">
        <ele>207.19999694824</ele>
        <time>2019-08-17T09:30:58.000Z</time>
      </trkpt>
      <trkpt lat="45.86836" lon="4.81831">
        <ele>206.60000610352</ele>
        <time>2019-08-17T09:30:59.000Z</time>
      </trkpt>
      <trkpt lat="45.86842" lon="4.81844">
        <ele>206.19999694824</ele>
        <time>2019-08-17T09:31:00.000Z</time>
      </trkpt>
      <trkpt lat="45.86848" lon="4.81855">
        <ele>205.60000610352</ele>
        <time>2019-08-17T09:31:01.000Z</time>
      </trkpt>
      <trkpt lat="45.86854" lon="4.81866">
        <ele>205</ele>
        <time>2019-08-17T09:31:02.000Z</time>
      </trkpt>
      <trkpt lat="45.8686" lon="4.81878">
        <ele>204.39999389648</ele>
        <time>2019-08-17T09:31:03.000Z</time>
      </trkpt>
      <trkpt lat="45.86866" lon="4.81889">
        <ele>203.80000305176</ele>
        <time>2019-08-17T09:31:04.000Z</time>
      </trkpt>
      <trkpt lat="45.86872" lon="4.819">
        <ele>203.19999694824</ele>
        <time>2019-08-17T09:31:05.000Z</time>
      </trkpt>
      <trkpt lat="45.86877" lon="4.81911">
        <ele>202.80000305176</ele>
        <time>2019-08-17T09:31:06.000Z</time>
      </trkpt>
      <trkpt lat="45.86883" lon="4.81921">
        <ele>202.39999389648</ele>
        <time>2019-08-17T09:31:07.000Z</time>
      </trkpt>
      <trkpt lat="45.86888" lon="4.8193">
        <ele>202</ele>
        <time>2019-08-17T09:31:08.000Z</time>
      </trkpt>
      <trkpt lat="45.86894" lon="4.81939">
        <ele>201.60000610352</ele>
        <time>2019-08-17T09:31:09.000Z</time>
      </trkpt>
      <trkpt lat="45.86901" lon="4.81948">
        <ele>201.19999694824</ele>
        <time>2019-08-17T09:31:10.000Z</time>
      </trkpt>
      <trkpt lat="45.86919" lon="4.8197">
        <ele>200</ele>
        <time>2019-08-17T09:31:13.000Z</time>
      </trkpt>
      <trkpt lat="45.86926" lon="4.81976">
        <ele>199.60000610352</ele>
        <time>2019-08-17T09:31:14.000Z</time>
      </trkpt>
      <trkpt lat="45.86933" lon="4.81982">
        <ele>199</ele>
        <time>2019-08-17T09:31:15.000Z</time>
      </trkpt>
      <trkpt lat="45.8694" lon="4.81988">
        <ele>198.39999389648</ele>
        <time>2019-08-17T09:31:16.000Z</time>
      </trkpt>
      <trkpt lat="45.86947" lon="4.81993">
        <ele>197.80000305176</ele>
        <time>2019-08-17T09:31:17.000Z</time>
      </trkpt>
      <trkpt lat="45.86954" lon="4.81998">
        <ele>197.39999389648</ele>
        <time>2019-08-17T09:31:18.000Z</time>
      </trkpt>
      <trkpt lat="45.86961" lon="4.82002">
        <ele>196.80000305176</ele>
        <time>2019-08-17T09:31:19.000Z</time>
      </trkpt>
      <trkpt lat="45.86967" lon="4.82007">
        <ele>196.19999694824</ele>
        <time>2019-08-17T09:31:20.000Z</time>
      </trkpt>
      <trkpt lat="45.86972" lon="4.82011">
        <ele>195.60000610352</ele>
        <time>2019-08-17T09:31:21.000Z</time>
      </trkpt>
      <trkpt lat="45.86976" lon="4.82014">
        <ele>195</ele>
        <time>2019-08-17T09:31:22.000Z</time>
      </trkpt>
      <trkpt lat="45.8698" lon="4.82016">
        <ele>194.60000610352</ele>
        <time>2019-08-17T09:31:23.000Z</time>
      </trkpt>
      <trkpt lat="45.86984" lon="4.82017">
        <ele>194</ele>
        <time>2019-08-17T09:31:24.000Z</time>
      </trkpt>
      <trkpt lat="45.86987" lon="4.82016">
        <ele>193.39999389648</ele>
        <time>2019-08-17T09:31:25.000Z</time>
      </trkpt>
      <trkpt lat="45.8699" lon="4.82012">
        <ele>193</ele>
        <time>2019-08-17T09:31:26.000Z</time>
      </trkpt>
      <trkpt lat="45.86991" lon="4.82007">
        <ele>192.39999389648</ele>
        <time>2019-08-17T09:31:27.000Z</time>
      </trkpt>
      <trkpt lat="45.86991" lon="4.82003">
        <ele>192</ele>
        <time>2019-08-17T09:31:28.000Z</time>
      </trkpt>
      <trkpt lat="45.86991" lon="4.81998">
        <ele>191.39999389648</ele>
        <time>2019-08-17T09:31:29.000Z</time>
      </trkpt>
      <trkpt lat="45.86991" lon="4.81995">
        <ele>190.80000305176</ele>
        <time>2019-08-17T09:31:30.000Z</time>
      </trkpt>
      <trkpt lat="45.8699" lon="4.81992">
        <ele>190.39999389648</ele>
        <time>2019-08-17T09:31:31.000Z</time>
      </trkpt>
      <trkpt lat="45.86989" lon="4.81991">
        <ele>189.80000305176</ele>
        <time>2019-08-17T09:31:32.000Z</time>
      </trkpt>
      <trkpt lat="45.86988" lon="4.81991">
        <ele>189.80000305176</ele>
        <time>2019-08-17T09:31:33.000Z</time>
      </trkpt>
      <trkpt lat="45.86987" lon="4.8199">
        <ele>189.80000305176</ele>
        <time>2019-08-17T09:31:35.000Z</time>
      </trkpt>
      <trkpt lat="45.86987" lon="4.8199">
        <ele>189.80000305176</ele>
        <time>2019-08-17T09:33:19.000Z</time>
      </trkpt>
      <trkpt lat="45.86988" lon="4.81989">
        <ele>189.80000305176</ele>
        <time>2019-08-17T09:33:21.000Z</time>
      </trkpt>
      <trkpt lat="45.86992" lon="4.81972">
        <ele>189.80000305176</ele>
        <time>2019-08-17T09:33:26.000Z</time>
      </trkpt>
      <trkpt lat="45.86997" lon="4.81953">
        <ele>189.80000305176</ele>
        <time>2019-08-17T09:33:31.000Z</time>
      </trkpt>
      <trkpt lat="45.8701" lon="4.81944">
        <ele>189.80000305176</ele>
        <time>2019-08-17T09:33:36.000Z</time>
      </trkpt>
      <trkpt lat="45.87024" lon="4.81946">
        <ele>189.80000305176</ele>
        <time>2019-08-17T09:33:41.000Z</time>
      </trkpt>
      <trkpt lat="45.87038" lon="4.8195">
        <ele>189.80000305176</ele>
        <time>2019-08-17T09:33:46.000Z</time>
      </trkpt>
      <trkpt lat="45.87045" lon="4.81952">
        <ele>190.19999694824</ele>
        <time>2019-08-17T09:33:49.000Z</time>
      </trkpt>
      <trkpt lat="45.87048" lon="4.81953">
        <ele>190.80000305176</ele>
        <time>2019-08-17T09:33:50.000Z</time>
      </trkpt>
      <trkpt lat="45.87051" lon="4.81954">
        <ele>191.19999694824</ele>
        <time>2019-08-17T09:33:51.000Z</time>
      </trkpt>
      <trkpt lat="45.87053" lon="4.81955">
        <ele>191.60000610352</ele>
        <time>2019-08-17T09:33:52.000Z</time>
      </trkpt>
      <trkpt lat="45.87056" lon="4.81956">
        <ele>192</ele>
        <time>2019-08-17T09:33:53.000Z</time>
      </trkpt>
      <trkpt lat="45.87077" lon="4.81966">
        <ele>192</ele>
        <time>2019-08-17T09:34:01.000Z</time>
      </trkpt>
      <trkpt lat="45.87092" lon="4.81969">
        <ele>192.39999389648</ele>
        <time>2019-08-17T09:34:06.000Z</time>
      </trkpt>
      <trkpt lat="45.87095" lon="4.81969">
        <ele>192.80000305176</ele>
        <time>2019-08-17T09:34:07.000Z</time>
      </trkpt>
      <trkpt lat="45.87098" lon="4.8197">
        <ele>193.19999694824</ele>
        <time>2019-08-17T09:34:08.000Z</time>
      </trkpt>
      <trkpt lat="45.871" lon="4.8197">
        <ele>193.60000610352</ele>
        <time>2019-08-17T09:34:09.000Z</time>
      </trkpt>
      <trkpt lat="45.87104" lon="4.8197">
        <ele>194</ele>
        <time>2019-08-17T09:34:10.000Z</time>
      </trkpt>
      <trkpt lat="45.87124" lon="4.81969">
        <ele>194</ele>
        <time>2019-08-17T09:34:17.000Z</time>
      </trkpt>
      <trkpt lat="45.87127" lon="4.81969">
        <ele>194.39999389648</ele>
        <time>2019-08-17T09:34:18.000Z</time>
      </trkpt>
      <trkpt lat="45.8713" lon="4.81969">
        <ele>194.80000305176</ele>
        <time>2019-08-17T09:34:19.000Z</time>
      </trkpt>
      <trkpt lat="45.87133" lon="4.81969">
        <ele>195.19999694824</ele>
        <time>2019-08-17T09:34:20.000Z</time>
      </trkpt>
      <trkpt lat="45.87135" lon="4.81969">
        <ele>195.80000305176</ele>
        <time>2019-08-17T09:34:21.000Z</time>
      </trkpt>
      <trkpt lat="45.87138" lon="4.81969">
        <ele>196.19999694824</ele>
        <time>2019-08-17T09:34:22.000Z</time>
      </trkpt>
      <trkpt lat="45.87144" lon="4.81968">
        <ele>196.19999694824</ele>
        <time>2019-08-17T09:34:24.000Z</time>
      </trkpt>
      <trkpt lat="45.87153" lon="4.81966">
        <ele>196.60000610352</ele>
        <time>2019-08-17T09:34:27.000Z</time>
      </trkpt>
      <trkpt lat="45.87156" lon="4.81966">
        <ele>197</ele>
        <time>2019-08-17T09:34:28.000Z</time>
      </trkpt>
      <trkpt lat="45.87159" lon="4.81965">
        <ele>197.39999389648</ele>
        <time>2019-08-17T09:34:29.000Z</time>
      </trkpt>
      <trkpt lat="45.87162" lon="4.81965">
        <ele>197.80000305176</ele>
        <time>2019-08-17T09:34:30.000Z</time>
      </trkpt>
      <trkpt lat="45.87165" lon="4.81965">
        <ele>198.19999694824</ele>
        <time>2019-08-17T09:34:31.000Z</time>
      </trkpt>
      <trkpt lat="45.87186" lon="4.81963">
        <ele>198.19999694824</ele>
        <time>2019-08-17T09:34:36.000Z</time>
      </trkpt>
      <trkpt lat="45.87195" lon="4.81961">
        <ele>198.60000610352</ele>
        <time>2019-08-17T09:34:38.000Z</time>
      </trkpt>
      <trkpt lat="45.872" lon="4.81959">
        <ele>199</ele>
        <time>2019-08-17T09:34:39.000Z</time>
      </trkpt>
      <trkpt lat="45.87206" lon="4.81957">
        <ele>199.39999389648</ele>
        <time>2019-08-17T09:34:40.000Z</time>
      </trkpt>
      <trkpt lat="45.87211" lon="4.81953">
        <ele>199.80000305176</ele>
        <time>2019-08-17T09:34:41.000Z</time>
      </trkpt>
      <trkpt lat="45.87217" lon="4.8195">
        <ele>200.19999694824</ele>
        <time>2019-08-17T09:34:42.000Z</time>
      </trkpt>
      <trkpt lat="45.87239" lon="4.81937">
        <ele>200.19999694824</ele>
        <time>2019-08-17T09:34:46.000Z</time>
      </trkpt>
      <trkpt lat="45.87245" lon="4.81935">
        <ele>200.60000610352</ele>
        <time>2019-08-17T09:34:47.000Z</time>
      </trkpt>
      <trkpt lat="45.8725" lon="4.81933">
        <ele>201</ele>
        <time>2019-08-17T09:34:48.000Z</time>
      </trkpt>
      <trkpt lat="45.87255" lon="4.8193">
        <ele>201.39999389648</ele>
        <time>2019-08-17T09:34:49.000Z</time>
      </trkpt>
      <trkpt lat="45.8726" lon="4.81927">
        <ele>201.80000305176</ele>
        <time>2019-08-17T09:34:50.000Z</time>
      </trkpt>
      <trkpt lat="45.87264" lon="4.81924">
        <ele>202.19999694824</ele>
        <time>2019-08-17T09:34:51.000Z</time>
      </trkpt>
      <trkpt lat="45.87272" lon="4.81917">
        <ele>202.19999694824</ele>
        <time>2019-08-17T09:34:53.000Z</time>
      </trkpt>
      <trkpt lat="45.87293" lon="4.81898">
        <ele>202.19999694824</ele>
        <time>2019-08-17T09:34:59.000Z</time>
      </trkpt>
      <trkpt lat="45.87299" lon="4.81873">
        <ele>202.19999694824</ele>
        <time>2019-08-17T09:35:03.000Z</time>
      </trkpt>
      <trkpt lat="45.87305" lon="4.81831">
        <ele>202.19999694824</ele>
        <time>2019-08-17T09:35:10.000Z</time>
      </trkpt>
      <trkpt lat="45.87308" lon="4.81819">
        <ele>202.19999694824</ele>
        <time>2019-08-17T09:35:12.000Z</time>
      </trkpt>
      <trkpt lat="45.87311" lon="4.81809">
        <ele>202.80000305176</ele>
        <time>2019-08-17T09:35:14.000Z</time>
      </trkpt>
      <trkpt lat="45.87313" lon="4.81804">
        <ele>203.19999694824</ele>
        <time>2019-08-17T09:35:15.000Z</time>
      </trkpt>
      <trkpt lat="45.87315" lon="4.818">
        <ele>203.60000610352</ele>
        <time>2019-08-17T09:35:16.000Z</time>
      </trkpt>
      <trkpt lat="45.87316" lon="4.81795">
        <ele>204</ele>
        <time>2019-08-17T09:35:17.000Z</time>
      </trkpt>
      <trkpt lat="45.87318" lon="4.8179">
        <ele>204.39999389648</ele>
        <time>2019-08-17T09:35:18.000Z</time>
      </trkpt>
      <trkpt lat="45.8733" lon="4.81757">
        <ele>204.39999389648</ele>
        <time>2019-08-17T09:35:24.000Z</time>
      </trkpt>
      <trkpt lat="45.87332" lon="4.81752">
        <ele>204.39999389648</ele>
        <time>2019-08-17T09:35:25.000Z</time>
      </trkpt>
      <trkpt lat="45.87341" lon="4.81728">
        <ele>204.39999389648</ele>
        <time>2019-08-17T09:35:29.000Z</time>
      </trkpt>
      <trkpt lat="45.87347" lon="4.81703">
        <ele>205</ele>
        <time>2019-08-17T09:35:33.000Z</time>
      </trkpt>
      <trkpt lat="45.8735" lon="4.81697">
        <ele>205.39999389648</ele>
        <time>2019-08-17T09:35:34.000Z</time>
      </trkpt>
      <trkpt lat="45.87352" lon="4.81691">
        <ele>205.80000305176</ele>
        <time>2019-08-17T09:35:35.000Z</time>
      </trkpt>
      <trkpt lat="45.87354" lon="4.81684">
        <ele>206.19999694824</ele>
        <time>2019-08-17T09:35:36.000Z</time>
      </trkpt>
      <trkpt lat="45.87356" lon="4.81677">
        <ele>206.60000610352</ele>
        <time>2019-08-17T09:35:37.000Z</time>
      </trkpt>
      <trkpt lat="45.87364" lon="4.81651">
        <ele>206.60000610352</ele>
        <time>2019-08-17T09:35:41.000Z</time>
      </trkpt>
      <trkpt lat="45.87374" lon="4.81624">
        <ele>206.60000610352</ele>
        <time>2019-08-17T09:35:46.000Z</time>
      </trkpt>
      <trkpt lat="45.8738" lon="4.81605">
        <ele>207</ele>
        <time>2019-08-17T09:35:49.000Z</time>
      </trkpt>
      <trkpt lat="45.87381" lon="4.816">
        <ele>207.39999389648</ele>
        <time>2019-08-17T09:35:50.000Z</time>
      </trkpt>
      <trkpt lat="45.87383" lon="4.81594">
        <ele>207.80000305176</ele>
        <time>2019-08-17T09:35:51.000Z</time>
      </trkpt>
      <trkpt lat="45.87384" lon="4.81588">
        <ele>208.19999694824</ele>
        <time>2019-08-17T09:35:52.000Z</time>
      </trkpt>
      <trkpt lat="45.87385" lon="4.81583">
        <ele>208.60000610352</ele>
        <time>2019-08-17T09:35:53.000Z</time>
      </trkpt>
      <trkpt lat="45.8739" lon="4.81556">
        <ele>209</ele>
        <time>2019-08-17T09:35:58.000Z</time>
      </trkpt>
      <trkpt lat="45.87391" lon="4.81551">
        <ele>209.39999389648</ele>
        <time>2019-08-17T09:35:59.000Z</time>
      </trkpt>
      <trkpt lat="45.87393" lon="4.81547">
        <ele>210</ele>
        <time>2019-08-17T09:36:00.000Z</time>
      </trkpt>
      <trkpt lat="45.87394" lon="4.81543">
        <ele>210.39999389648</ele>
        <time>2019-08-17T09:36:01.000Z</time>
      </trkpt>
      <trkpt lat="45.87395" lon="4.8154">
        <ele>210.80000305176</ele>
        <time>2019-08-17T09:36:02.000Z</time>
      </trkpt>
      <trkpt lat="45.87398" lon="4.81533">
        <ele>210.80000305176</ele>
        <time>2019-08-17T09:36:04.000Z</time>
      </trkpt>
      <trkpt lat="45.87411" lon="4.81502">
        <ele>210.80000305176</ele>
        <time>2019-08-17T09:36:11.000Z</time>
      </trkpt>
      <trkpt lat="45.87427" lon="4.81461">
        <ele>210.80000305176</ele>
        <time>2019-08-17T09:36:19.000Z</time>
      </trkpt>
      <trkpt lat="45.87429" lon="4.81456">
        <ele>211.19999694824</ele>
        <time>2019-08-17T09:36:20.000Z</time>
      </trkpt>
      <trkpt lat="45.87432" lon="4.8145">
        <ele>211.60000610352</ele>
        <time>2019-08-17T09:36:21.000Z</time>
      </trkpt>
      <trkpt lat="45.87434" lon="4.81446">
        <ele>212</ele>
        <time>2019-08-17T09:36:22.000Z</time>
      </trkpt>
      <trkpt lat="45.87437" lon="4.81441">
        <ele>212.39999389648</ele>
        <time>2019-08-17T09:36:23.000Z</time>
      </trkpt>
      <trkpt lat="45.8744" lon="4.81436">
        <ele>212.80000305176</ele>
        <time>2019-08-17T09:36:24.000Z</time>
      </trkpt>
      <trkpt lat="45.87449" lon="4.81421">
        <ele>212.80000305176</ele>
        <time>2019-08-17T09:36:27.000Z</time>
      </trkpt>
      <trkpt lat="45.87471" lon="4.81383">
        <ele>213.19999694824</ele>
        <time>2019-08-17T09:36:35.000Z</time>
      </trkpt>
      <trkpt lat="45.87474" lon="4.81378">
        <ele>213.60000610352</ele>
        <time>2019-08-17T09:36:36.000Z</time>
      </trkpt>
      <trkpt lat="45.87477" lon="4.81374">
        <ele>214.19999694824</ele>
        <time>2019-08-17T09:36:37.000Z</time>
      </trkpt>
      <trkpt lat="45.87479" lon="4.81369">
        <ele>214.60000610352</ele>
        <time>2019-08-17T09:36:38.000Z</time>
      </trkpt>
      <trkpt lat="45.87481" lon="4.81364">
        <ele>215</ele>
        <time>2019-08-17T09:36:39.000Z</time>
      </trkpt>
      <trkpt lat="45.87492" lon="4.8134">
        <ele>215</ele>
        <time>2019-08-17T09:36:44.000Z</time>
      </trkpt>
      <trkpt lat="45.87494" lon="4.81335">
        <ele>215.39999389648</ele>
        <time>2019-08-17T09:36:45.000Z</time>
      </trkpt>
      <trkpt lat="45.87495" lon="4.8133">
        <ele>215.80000305176</ele>
        <time>2019-08-17T09:36:46.000Z</time>
      </trkpt>
      <trkpt lat="45.87497" lon="4.81324">
        <ele>216.19999694824</ele>
        <time>2019-08-17T09:36:47.000Z</time>
      </trkpt>
      <trkpt lat="45.87498" lon="4.81319">
        <ele>216.80000305176</ele>
        <time>2019-08-17T09:36:48.000Z</time>
      </trkpt>
      <trkpt lat="45.87499" lon="4.81314">
        <ele>217.19999694824</ele>
        <time>2019-08-17T09:36:49.000Z</time>
      </trkpt>
      <trkpt lat="45.875" lon="4.81308">
        <ele>217.19999694824</ele>
        <time>2019-08-17T09:36:50.000Z</time>
      </trkpt>
      <trkpt lat="45.87502" lon="4.81284">
        <ele>217.60000610352</ele>
        <time>2019-08-17T09:36:55.000Z</time>
      </trkpt>
      <trkpt lat="45.87503" lon="4.8128">
        <ele>218</ele>
        <time>2019-08-17T09:36:56.000Z</time>
      </trkpt>
      <trkpt lat="45.87504" lon="4.81276">
        <ele>218.39999389648</ele>
        <time>2019-08-17T09:36:57.000Z</time>
      </trkpt>
      <trkpt lat="45.87505" lon="4.81272">
        <ele>218.80000305176</ele>
        <time>2019-08-17T09:36:58.000Z</time>
      </trkpt>
      <trkpt lat="45.87506" lon="4.81268">
        <ele>219.19999694824</ele>
        <time>2019-08-17T09:36:59.000Z</time>
      </trkpt>
      <trkpt lat="45.8751" lon="4.8126">
        <ele>219.19999694824</ele>
        <time>2019-08-17T09:37:02.000Z</time>
      </trkpt>
      <trkpt lat="45.87513" lon="4.81242">
        <ele>219.19999694824</ele>
        <time>2019-08-17T09:37:07.000Z</time>
      </trkpt>
      <trkpt lat="45.87516" lon="4.81221">
        <ele>219.19999694824</ele>
        <time>2019-08-17T09:37:13.000Z</time>
      </trkpt>
      <trkpt lat="45.87521" lon="4.81203">
        <ele>219.60000610352</ele>
        <time>2019-08-17T09:37:18.000Z</time>
      </trkpt>
      <trkpt lat="45.87522" lon="4.81199">
        <ele>220</ele>
        <time>2019-08-17T09:37:19.000Z</time>
      </trkpt>
      <trkpt lat="45.87524" lon="4.81196">
        <ele>220.39999389648</ele>
        <time>2019-08-17T09:37:20.000Z</time>
      </trkpt>
      <trkpt lat="45.87525" lon="4.81192">
        <ele>220.80000305176</ele>
        <time>2019-08-17T09:37:21.000Z</time>
      </trkpt>
      <trkpt lat="45.87526" lon="4.81188">
        <ele>221.19999694824</ele>
        <time>2019-08-17T09:37:22.000Z</time>
      </trkpt>
      <trkpt lat="45.87531" lon="4.81171">
        <ele>221.19999694824</ele>
        <time>2019-08-17T09:37:27.000Z</time>
      </trkpt>
      <trkpt lat="45.87535" lon="4.81162">
        <ele>221.80000305176</ele>
        <time>2019-08-17T09:37:30.000Z</time>
      </trkpt>
      <trkpt lat="45.87536" lon="4.81159">
        <ele>222.19999694824</ele>
        <time>2019-08-17T09:37:31.000Z</time>
      </trkpt>
      <trkpt lat="45.87537" lon="4.81155">
        <ele>222.60000610352</ele>
        <time>2019-08-17T09:37:32.000Z</time>
      </trkpt>
      <trkpt lat="45.87538" lon="4.81152">
        <ele>223</ele>
        <time>2019-08-17T09:37:33.000Z</time>
      </trkpt>
      <trkpt lat="45.87539" lon="4.81149">
        <ele>223.39999389648</ele>
        <time>2019-08-17T09:37:34.000Z</time>
      </trkpt>
      <trkpt lat="45.8754" lon="4.81147">
        <ele>223.39999389648</ele>
        <time>2019-08-17T09:37:35.000Z</time>
      </trkpt>
      <trkpt lat="45.87543" lon="4.81137">
        <ele>223.80000305176</ele>
        <time>2019-08-17T09:37:40.000Z</time>
      </trkpt>
      <trkpt lat="45.87544" lon="4.81134">
        <ele>224.19999694824</ele>
        <time>2019-08-17T09:37:41.000Z</time>
      </trkpt>
      <trkpt lat="45.87545" lon="4.81131">
        <ele>224.60000610352</ele>
        <time>2019-08-17T09:37:42.000Z</time>
      </trkpt>
      <trkpt lat="45.87546" lon="4.81129">
        <ele>225</ele>
        <time>2019-08-17T09:37:43.000Z</time>
      </trkpt>
      <trkpt lat="45.87547" lon="4.81126">
        <ele>225.60000610352</ele>
        <time>2019-08-17T09:37:44.000Z</time>
      </trkpt>
      <trkpt lat="45.87551" lon="4.81111">
        <ele>225.60000610352</ele>
        <time>2019-08-17T09:37:49.000Z</time>
      </trkpt>
      <trkpt lat="45.87552" lon="4.81107">
        <ele>226</ele>
        <time>2019-08-17T09:37:50.000Z</time>
      </trkpt>
      <trkpt lat="45.87553" lon="4.81104">
        <ele>226.39999389648</ele>
        <time>2019-08-17T09:37:51.000Z</time>
      </trkpt>
      <trkpt lat="45.87555" lon="4.81101">
        <ele>226.80000305176</ele>
        <time>2019-08-17T09:37:52.000Z</time>
      </trkpt>
      <trkpt lat="45.87556" lon="4.81097">
        <ele>227.19999694824</ele>
        <time>2019-08-17T09:37:53.000Z</time>
      </trkpt>
      <trkpt lat="45.87558" lon="4.81094">
        <ele>227.60000610352</ele>
        <time>2019-08-17T09:37:54.000Z</time>
      </trkpt>
      <trkpt lat="45.87559" lon="4.81091">
        <ele>227.60000610352</ele>
        <time>2019-08-17T09:37:55.000Z</time>
      </trkpt>
      <trkpt lat="45.87564" lon="4.81075">
        <ele>228</ele>
        <time>2019-08-17T09:37:59.000Z</time>
      </trkpt>
      <trkpt lat="45.87566" lon="4.8107">
        <ele>228.39999389648</ele>
        <time>2019-08-17T09:38:00.000Z</time>
      </trkpt>
      <trkpt lat="45.87567" lon="4.81066">
        <ele>229</ele>
        <time>2019-08-17T09:38:01.000Z</time>
      </trkpt>
      <trkpt lat="45.87568" lon="4.81061">
        <ele>229.39999389648</ele>
        <time>2019-08-17T09:38:02.000Z</time>
      </trkpt>
      <trkpt lat="45.8757" lon="4.81057">
        <ele>229.80000305176</ele>
        <time>2019-08-17T09:38:03.000Z</time>
      </trkpt>
      <trkpt lat="45.87576" lon="4.81027">
        <ele>229.80000305176</ele>
        <time>2019-08-17T09:38:10.000Z</time>
      </trkpt>
      <trkpt lat="45.87578" lon="4.81018">
        <ele>230.19999694824</ele>
        <time>2019-08-17T09:38:12.000Z</time>
      </trkpt>
      <trkpt lat="45.87579" lon="4.81013">
        <ele>230.60000610352</ele>
        <time>2019-08-17T09:38:13.000Z</time>
      </trkpt>
      <trkpt lat="45.8758" lon="4.81008">
        <ele>231.39999389648</ele>
        <time>2019-08-17T09:38:14.000Z</time>
      </trkpt>
      <trkpt lat="45.87581" lon="4.81004">
        <ele>232</ele>
        <time>2019-08-17T09:38:15.000Z</time>
      </trkpt>
      <trkpt lat="45.87586" lon="4.80988">
        <ele>232</ele>
        <time>2019-08-17T09:38:19.000Z</time>
      </trkpt>
      <trkpt lat="45.87601" lon="4.80962">
        <ele>232</ele>
        <time>2019-08-17T09:38:26.000Z</time>
      </trkpt>
      <trkpt lat="45.87612" lon="4.80937">
        <ele>232.39999389648</ele>
        <time>2019-08-17T09:38:32.000Z</time>
      </trkpt>
      <trkpt lat="45.87613" lon="4.80932">
        <ele>232.80000305176</ele>
        <time>2019-08-17T09:38:33.000Z</time>
      </trkpt>
      <trkpt lat="45.87615" lon="4.80927">
        <ele>233.19999694824</ele>
        <time>2019-08-17T09:38:34.000Z</time>
      </trkpt>
      <trkpt lat="45.87616" lon="4.80922">
        <ele>233.60000610352</ele>
        <time>2019-08-17T09:38:35.000Z</time>
      </trkpt>
      <trkpt lat="45.87617" lon="4.80917">
        <ele>234</ele>
        <time>2019-08-17T09:38:36.000Z</time>
      </trkpt>
      <trkpt lat="45.87621" lon="4.80903">
        <ele>234</ele>
        <time>2019-08-17T09:38:39.000Z</time>
      </trkpt>
      <trkpt lat="45.8763" lon="4.80873">
        <ele>234</ele>
        <time>2019-08-17T09:38:44.000Z</time>
      </trkpt>
      <trkpt lat="45.87635" lon="4.80854">
        <ele>233.60000610352</ele>
        <time>2019-08-17T09:38:47.000Z</time>
      </trkpt>
      <trkpt lat="45.87636" lon="4.80848">
        <ele>233.19999694824</ele>
        <time>2019-08-17T09:38:48.000Z</time>
      </trkpt>
      <trkpt lat="45.87637" lon="4.80843">
        <ele>232.80000305176</ele>
        <time>2019-08-17T09:38:49.000Z</time>
      </trkpt>
      <trkpt lat="45.87638" lon="4.8084">
        <ele>232.39999389648</ele>
        <time>2019-08-17T09:38:50.000Z</time>
      </trkpt>
      <trkpt lat="45.87639" lon="4.80835">
        <ele>231.80000305176</ele>
        <time>2019-08-17T09:38:51.000Z</time>
      </trkpt>
      <trkpt lat="45.87643" lon="4.80808">
        <ele>231.80000305176</ele>
        <time>2019-08-17T09:38:56.000Z</time>
      </trkpt>
      <trkpt lat="45.8765" lon="4.80778">
        <ele>231.80000305176</ele>
        <time>2019-08-17T09:39:01.000Z</time>
      </trkpt>
      <trkpt lat="45.87655" lon="4.80752">
        <ele>231.80000305176</ele>
        <time>2019-08-17T09:39:06.000Z</time>
      </trkpt>
      <trkpt lat="45.87658" lon="4.8074">
        <ele>231.80000305176</ele>
        <time>2019-08-17T09:39:08.000Z</time>
      </trkpt>
      <trkpt lat="45.87661" lon="4.80724">
        <ele>231.80000305176</ele>
        <time>2019-08-17T09:39:11.000Z</time>
      </trkpt>
      <trkpt lat="45.87666" lon="4.80703">
        <ele>232.19999694824</ele>
        <time>2019-08-17T09:39:15.000Z</time>
      </trkpt>
      <trkpt lat="45.87667" lon="4.80699">
        <ele>232.80000305176</ele>
        <time>2019-08-17T09:39:16.000Z</time>
      </trkpt>
      <trkpt lat="45.87668" lon="4.80694">
        <ele>233.19999694824</ele>
        <time>2019-08-17T09:39:17.000Z</time>
      </trkpt>
      <trkpt lat="45.87669" lon="4.8069">
        <ele>233.60000610352</ele>
        <time>2019-08-17T09:39:18.000Z</time>
      </trkpt>
      <trkpt lat="45.8767" lon="4.80686">
        <ele>234</ele>
        <time>2019-08-17T09:39:19.000Z</time>
      </trkpt>
      <trkpt lat="45.87673" lon="4.80674">
        <ele>234</ele>
        <time>2019-08-17T09:39:22.000Z</time>
      </trkpt>
      <trkpt lat="45.87679" lon="4.80638">
        <ele>234</ele>
        <time>2019-08-17T09:39:29.000Z</time>
      </trkpt>
      <trkpt lat="45.8768" lon="4.80626">
        <ele>234</ele>
        <time>2019-08-17T09:39:31.000Z</time>
      </trkpt>
      <trkpt lat="45.87684" lon="4.80596">
        <ele>234</ele>
        <time>2019-08-17T09:39:35.000Z</time>
      </trkpt>
      <trkpt lat="45.87689" lon="4.8057">
        <ele>233.39999389648</ele>
        <time>2019-08-17T09:39:38.000Z</time>
      </trkpt>
      <trkpt lat="45.8769" lon="4.80561">
        <ele>233</ele>
        <time>2019-08-17T09:39:39.000Z</time>
      </trkpt>
      <trkpt lat="45.87692" lon="4.80551">
        <ele>232.39999389648</ele>
        <time>2019-08-17T09:39:40.000Z</time>
      </trkpt>
      <trkpt lat="45.87693" lon="4.80541">
        <ele>232</ele>
        <time>2019-08-17T09:39:41.000Z</time>
      </trkpt>
      <trkpt lat="45.87694" lon="4.80532">
        <ele>231.39999389648</ele>
        <time>2019-08-17T09:39:42.000Z</time>
      </trkpt>
      <trkpt lat="45.87695" lon="4.80525">
        <ele>230.80000305176</ele>
        <time>2019-08-17T09:39:43.000Z</time>
      </trkpt>
      <trkpt lat="45.87696" lon="4.80517">
        <ele>230.19999694824</ele>
        <time>2019-08-17T09:39:44.000Z</time>
      </trkpt>
      <trkpt lat="45.87697" lon="4.80508">
        <ele>229.60000610352</ele>
        <time>2019-08-17T09:39:45.000Z</time>
      </trkpt>
      <trkpt lat="45.87698" lon="4.80501">
        <ele>229.19999694824</ele>
        <time>2019-08-17T09:39:46.000Z</time>
      </trkpt>
      <trkpt lat="45.877" lon="4.80495">
        <ele>228.60000610352</ele>
        <time>2019-08-17T09:39:47.000Z</time>
      </trkpt>
      <trkpt lat="45.87702" lon="4.80489">
        <ele>228</ele>
        <time>2019-08-17T09:39:48.000Z</time>
      </trkpt>
      <trkpt lat="45.87705" lon="4.80483">
        <ele>227.60000610352</ele>
        <time>2019-08-17T09:39:49.000Z</time>
      </trkpt>
      <trkpt lat="45.87708" lon="4.80479">
        <ele>227</ele>
        <time>2019-08-17T09:39:50.000Z</time>
      </trkpt>
      <trkpt lat="45.87711" lon="4.80476">
        <ele>226.60000610352</ele>
        <time>2019-08-17T09:39:51.000Z</time>
      </trkpt>
      <trkpt lat="45.87715" lon="4.80473">
        <ele>226</ele>
        <time>2019-08-17T09:39:52.000Z</time>
      </trkpt>
      <trkpt lat="45.87717" lon="4.80471">
        <ele>225.60000610352</ele>
        <time>2019-08-17T09:39:53.000Z</time>
      </trkpt>
      <trkpt lat="45.87719" lon="4.80469">
        <ele>224.60000610352</ele>
        <time>2019-08-17T09:39:54.000Z</time>
      </trkpt>
      <trkpt lat="45.87724" lon="4.80468">
        <ele>224.60000610352</ele>
        <time>2019-08-17T09:39:56.000Z</time>
      </trkpt>
      <trkpt lat="45.87727" lon="4.80467">
        <ele>224.19999694824</ele>
        <time>2019-08-17T09:39:59.000Z</time>
      </trkpt>
      <trkpt lat="45.87728" lon="4.80467">
        <ele>223.80000305176</ele>
        <time>2019-08-17T09:40:00.000Z</time>
      </trkpt>
      <trkpt lat="45.87729" lon="4.80467">
        <ele>223.39999389648</ele>
        <time>2019-08-17T09:40:01.000Z</time>
      </trkpt>
      <trkpt lat="45.87729" lon="4.80467">
        <ele>222.60000610352</ele>
        <time>2019-08-17T09:40:05.000Z</time>
      </trkpt>
      <trkpt lat="45.87736" lon="4.80469">
        <ele>222.60000610352</ele>
        <time>2019-08-17T09:40:08.000Z</time>
      </trkpt>
      <trkpt lat="45.87749" lon="4.80475">
        <ele>222.60000610352</ele>
        <time>2019-08-17T09:40:12.000Z</time>
      </trkpt>
      <trkpt lat="45.87777" lon="4.80486">
        <ele>221.80000305176</ele>
        <time>2019-08-17T09:40:18.000Z</time>
      </trkpt>
      <trkpt lat="45.87782" lon="4.80489">
        <ele>221.39999389648</ele>
        <time>2019-08-17T09:40:19.000Z</time>
      </trkpt>
      <trkpt lat="45.87786" lon="4.80492">
        <ele>221</ele>
        <time>2019-08-17T09:40:20.000Z</time>
      </trkpt>
      <trkpt lat="45.87791" lon="4.80496">
        <ele>220.60000610352</ele>
        <time>2019-08-17T09:40:21.000Z</time>
      </trkpt>
      <trkpt lat="45.87801" lon="4.80503">
        <ele>220.60000610352</ele>
        <time>2019-08-17T09:40:23.000Z</time>
      </trkpt>
      <trkpt lat="45.87806" lon="4.80506">
        <ele>220.60000610352</ele>
        <time>2019-08-17T09:40:24.000Z</time>
      </trkpt>
      <trkpt lat="45.87828" lon="4.80519">
        <ele>220.19999694824</ele>
        <time>2019-08-17T09:40:28.000Z</time>
      </trkpt>
      <trkpt lat="45.87833" lon="4.80521">
        <ele>219.60000610352</ele>
        <time>2019-08-17T09:40:29.000Z</time>
      </trkpt>
      <trkpt lat="45.87839" lon="4.80524">
        <ele>219.19999694824</ele>
        <time>2019-08-17T09:40:30.000Z</time>
      </trkpt>
      <trkpt lat="45.87845" lon="4.80526">
        <ele>218.80000305176</ele>
        <time>2019-08-17T09:40:31.000Z</time>
      </trkpt>
      <trkpt lat="45.87851" lon="4.80526">
        <ele>218.39999389648</ele>
        <time>2019-08-17T09:40:32.000Z</time>
      </trkpt>
      <trkpt lat="45.87857" lon="4.80526">
        <ele>218.39999389648</ele>
        <time>2019-08-17T09:40:34.000Z</time>
      </trkpt>
      <trkpt lat="45.87863" lon="4.80526">
        <ele>218.39999389648</ele>
        <time>2019-08-17T09:40:37.000Z</time>
      </trkpt>
      <trkpt lat="45.87863" lon="4.80526">
        <ele>218</ele>
        <time>2019-08-17T09:40:38.000Z</time>
      </trkpt>
      <trkpt lat="45.87863" lon="4.80526">
        <ele>216.60000610352</ele>
        <time>2019-08-17T09:40:41.000Z</time>
      </trkpt>
      <trkpt lat="45.87864" lon="4.80524">
        <ele>216.19999694824</ele>
        <time>2019-08-17T09:40:42.000Z</time>
      </trkpt>
      <trkpt lat="45.87864" lon="4.80521">
        <ele>216.19999694824</ele>
        <time>2019-08-17T09:40:45.000Z</time>
      </trkpt>
      <trkpt lat="45.87864" lon="4.8052">
        <ele>216.19999694824</ele>
        <time>2019-08-17T09:40:46.000Z</time>
      </trkpt>
      <trkpt lat="45.87866" lon="4.80524">
        <ele>216.19999694824</ele>
        <time>2019-08-17T09:42:45.000Z</time>
      </trkpt>
      <trkpt lat="45.87867" lon="4.80523">
        <ele>216.19999694824</ele>
        <time>2019-08-17T09:42:46.000Z</time>
      </trkpt>
      <trkpt lat="45.87868" lon="4.80521">
        <ele>216.19999694824</ele>
        <time>2019-08-17T09:42:47.000Z</time>
      </trkpt>
      <trkpt lat="45.87871" lon="4.80506">
        <ele>216.19999694824</ele>
        <time>2019-08-17T09:42:51.000Z</time>
      </trkpt>
      <trkpt lat="45.87875" lon="4.80473">
        <ele>216.19999694824</ele>
        <time>2019-08-17T09:42:56.000Z</time>
      </trkpt>
      <trkpt lat="45.87875" lon="4.80467">
        <ele>215.80000305176</ele>
        <time>2019-08-17T09:42:57.000Z</time>
      </trkpt>
      <trkpt lat="45.87876" lon="4.80461">
        <ele>215.39999389648</ele>
        <time>2019-08-17T09:42:58.000Z</time>
      </trkpt>
      <trkpt lat="45.87878" lon="4.80455">
        <ele>215</ele>
        <time>2019-08-17T09:42:59.000Z</time>
      </trkpt>
      <trkpt lat="45.87882" lon="4.80452">
        <ele>214.60000610352</ele>
        <time>2019-08-17T09:43:00.000Z</time>
      </trkpt>
      <trkpt lat="45.87887" lon="4.80449">
        <ele>214</ele>
        <time>2019-08-17T09:43:01.000Z</time>
      </trkpt>
      <trkpt lat="45.87903" lon="4.80447">
        <ele>213.60000610352</ele>
        <time>2019-08-17T09:43:04.000Z</time>
      </trkpt>
      <trkpt lat="45.87912" lon="4.80449">
        <ele>213.19999694824</ele>
        <time>2019-08-17T09:43:05.000Z</time>
      </trkpt>
      <trkpt lat="45.8792" lon="4.80451">
        <ele>212.80000305176</ele>
        <time>2019-08-17T09:43:06.000Z</time>
      </trkpt>
      <trkpt lat="45.87929" lon="4.80452">
        <ele>212.39999389648</ele>
        <time>2019-08-17T09:43:07.000Z</time>
      </trkpt>
      <trkpt lat="45.87938" lon="4.80453">
        <ele>212</ele>
        <time>2019-08-17T09:43:08.000Z</time>
      </trkpt>
      <trkpt lat="45.87948" lon="4.80453">
        <ele>211.39999389648</ele>
        <time>2019-08-17T09:43:09.000Z</time>
      </trkpt>
      <trkpt lat="45.87958" lon="4.80454">
        <ele>211</ele>
        <time>2019-08-17T09:43:10.000Z</time>
      </trkpt>
      <trkpt lat="45.87969" lon="4.80454">
        <ele>210</ele>
        <time>2019-08-17T09:43:11.000Z</time>
      </trkpt>
      <trkpt lat="45.87979" lon="4.80454">
        <ele>209.39999389648</ele>
        <time>2019-08-17T09:43:12.000Z</time>
      </trkpt>
      <trkpt lat="45.87989" lon="4.80454">
        <ele>208.80000305176</ele>
        <time>2019-08-17T09:43:13.000Z</time>
      </trkpt>
      <trkpt lat="45.88" lon="4.80454">
        <ele>208.19999694824</ele>
        <time>2019-08-17T09:43:14.000Z</time>
      </trkpt>
      <trkpt lat="45.88011" lon="4.80454">
        <ele>207.39999389648</ele>
        <time>2019-08-17T09:43:15.000Z</time>
      </trkpt>
      <trkpt lat="45.88022" lon="4.80454">
        <ele>206.80000305176</ele>
        <time>2019-08-17T09:43:16.000Z</time>
      </trkpt>
      <trkpt lat="45.88033" lon="4.80454">
        <ele>206</ele>
        <time>2019-08-17T09:43:17.000Z</time>
      </trkpt>
      <trkpt lat="45.88043" lon="4.80453">
        <ele>205.19999694824</ele>
        <time>2019-08-17T09:43:18.000Z</time>
      </trkpt>
      <trkpt lat="45.88054" lon="4.8045">
        <ele>204.60000610352</ele>
        <time>2019-08-17T09:43:19.000Z</time>
      </trkpt>
      <trkpt lat="45.88065" lon="4.80445">
        <ele>204</ele>
        <time>2019-08-17T09:43:20.000Z</time>
      </trkpt>
      <trkpt lat="45.88073" lon="4.80441">
        <ele>203.39999389648</ele>
        <time>2019-08-17T09:43:21.000Z</time>
      </trkpt>
      <trkpt lat="45.8808" lon="4.80436">
        <ele>202.80000305176</ele>
        <time>2019-08-17T09:43:22.000Z</time>
      </trkpt>
      <trkpt lat="45.88085" lon="4.80432">
        <ele>202</ele>
        <time>2019-08-17T09:43:23.000Z</time>
      </trkpt>
      <trkpt lat="45.88089" lon="4.80429">
        <ele>201.19999694824</ele>
        <time>2019-08-17T09:43:24.000Z</time>
      </trkpt>
      <trkpt lat="45.88093" lon="4.80425">
        <ele>200.60000610352</ele>
        <time>2019-08-17T09:43:25.000Z</time>
      </trkpt>
      <trkpt lat="45.88097" lon="4.80421">
        <ele>199.80000305176</ele>
        <time>2019-08-17T09:43:26.000Z</time>
      </trkpt>
      <trkpt lat="45.88101" lon="4.80416">
        <ele>199</ele>
        <time>2019-08-17T09:43:27.000Z</time>
      </trkpt>
      <trkpt lat="45.88105" lon="4.80411">
        <ele>198.39999389648</ele>
        <time>2019-08-17T09:43:28.000Z</time>
      </trkpt>
      <trkpt lat="45.88108" lon="4.80405">
        <ele>197.60000610352</ele>
        <time>2019-08-17T09:43:29.000Z</time>
      </trkpt>
      <trkpt lat="45.88112" lon="4.804">
        <ele>197.60000610352</ele>
        <time>2019-08-17T09:43:30.000Z</time>
      </trkpt>
      <trkpt lat="45.88123" lon="4.80384">
        <ele>197.60000610352</ele>
        <time>2019-08-17T09:43:33.000Z</time>
      </trkpt>
      <trkpt lat="45.88126" lon="4.80379">
        <ele>197.19999694824</ele>
        <time>2019-08-17T09:43:34.000Z</time>
      </trkpt>
      <trkpt lat="45.88129" lon="4.80374">
        <ele>196.39999389648</ele>
        <time>2019-08-17T09:43:35.000Z</time>
      </trkpt>
      <trkpt lat="45.88134" lon="4.80369">
        <ele>196</ele>
        <time>2019-08-17T09:43:36.000Z</time>
      </trkpt>
      <trkpt lat="45.88139" lon="4.80364">
        <ele>195.60000610352</ele>
        <time>2019-08-17T09:43:37.000Z</time>
      </trkpt>
      <trkpt lat="45.8815" lon="4.80354">
        <ele>195.60000610352</ele>
        <time>2019-08-17T09:43:39.000Z</time>
      </trkpt>
      <trkpt lat="45.88164" lon="4.80344">
        <ele>195.19999694824</ele>
        <time>2019-08-17T09:43:41.000Z</time>
      </trkpt>
      <trkpt lat="45.88171" lon="4.80339">
        <ele>194.80000305176</ele>
        <time>2019-08-17T09:43:42.000Z</time>
      </trkpt>
      <trkpt lat="45.88179" lon="4.80335">
        <ele>194.39999389648</ele>
        <time>2019-08-17T09:43:43.000Z</time>
      </trkpt>
      <trkpt lat="45.88186" lon="4.80331">
        <ele>194</ele>
        <time>2019-08-17T09:43:44.000Z</time>
      </trkpt>
      <trkpt lat="45.88194" lon="4.80327">
        <ele>193.60000610352</ele>
        <time>2019-08-17T09:43:45.000Z</time>
      </trkpt>
      <trkpt lat="45.8822" lon="4.80317">
        <ele>193</ele>
        <time>2019-08-17T09:43:48.000Z</time>
      </trkpt>
      <trkpt lat="45.88228" lon="4.80313">
        <ele>192.60000610352</ele>
        <time>2019-08-17T09:43:49.000Z</time>
      </trkpt>
      <trkpt lat="45.88237" lon="4.80309">
        <ele>192.19999694824</ele>
        <time>2019-08-17T09:43:50.000Z</time>
      </trkpt>
      <trkpt lat="45.88246" lon="4.80306">
        <ele>191.80000305176</ele>
        <time>2019-08-17T09:43:51.000Z</time>
      </trkpt>
      <trkpt lat="45.88255" lon="4.80303">
        <ele>191.19999694824</ele>
        <time>2019-08-17T09:43:52.000Z</time>
      </trkpt>
      <trkpt lat="45.88265" lon="4.80301">
        <ele>190.80000305176</ele>
        <time>2019-08-17T09:43:53.000Z</time>
      </trkpt>
      <trkpt lat="45.88274" lon="4.80301">
        <ele>190.19999694824</ele>
        <time>2019-08-17T09:43:54.000Z</time>
      </trkpt>
      <trkpt lat="45.88284" lon="4.80301">
        <ele>189.60000610352</ele>
        <time>2019-08-17T09:43:55.000Z</time>
      </trkpt>
      <trkpt lat="45.88293" lon="4.80302">
        <ele>189.19999694824</ele>
        <time>2019-08-17T09:43:56.000Z</time>
      </trkpt>
      <trkpt lat="45.88311" lon="4.80303">
        <ele>188.60000610352</ele>
        <time>2019-08-17T09:43:58.000Z</time>
      </trkpt>
      <trkpt lat="45.88319" lon="4.80305">
        <ele>188.19999694824</ele>
        <time>2019-08-17T09:43:59.000Z</time>
      </trkpt>
      <trkpt lat="45.88325" lon="4.80307">
        <ele>187.19999694824</ele>
        <time>2019-08-17T09:44:00.000Z</time>
      </trkpt>
      <trkpt lat="45.88332" lon="4.80316">
        <ele>186.60000610352</ele>
        <time>2019-08-17T09:44:01.000Z</time>
      </trkpt>
      <trkpt lat="45.88336" lon="4.80326">
        <ele>186.19999694824</ele>
        <time>2019-08-17T09:44:02.000Z</time>
      </trkpt>
      <trkpt lat="45.88336" lon="4.80334">
        <ele>185.60000610352</ele>
        <time>2019-08-17T09:44:03.000Z</time>
      </trkpt>
      <trkpt lat="45.88335" lon="4.80343">
        <ele>185</ele>
        <time>2019-08-17T09:44:04.000Z</time>
      </trkpt>
      <trkpt lat="45.8834" lon="4.80355">
        <ele>185</ele>
        <time>2019-08-17T09:44:06.000Z</time>
      </trkpt>
      <trkpt lat="45.88349" lon="4.80367">
        <ele>184.60000610352</ele>
        <time>2019-08-17T09:44:09.000Z</time>
      </trkpt>
      <trkpt lat="45.88351" lon="4.80372">
        <ele>184.19999694824</ele>
        <time>2019-08-17T09:44:10.000Z</time>
      </trkpt>
      <trkpt lat="45.88353" lon="4.80376">
        <ele>183.80000305176</ele>
        <time>2019-08-17T09:44:11.000Z</time>
      </trkpt>
      <trkpt lat="45.88355" lon="4.80378">
        <ele>183.19999694824</ele>
        <time>2019-08-17T09:44:12.000Z</time>
      </trkpt>
      <trkpt lat="45.88355" lon="4.80381">
        <ele>182.80000305176</ele>
        <time>2019-08-17T09:44:13.000Z</time>
      </trkpt>
      <trkpt lat="45.88356" lon="4.80383">
        <ele>182.80000305176</ele>
        <time>2019-08-17T09:44:15.000Z</time>
      </trkpt>
      <trkpt lat="45.88357" lon="4.80384">
        <ele>182.80000305176</ele>
        <time>2019-08-17T09:44:17.000Z</time>
      </trkpt>
      <trkpt lat="45.88358" lon="4.80384">
        <ele>182.80000305176</ele>
        <time>2019-08-17T09:44:20.000Z</time>
      </trkpt>
      <trkpt lat="45.88359" lon="4.80383">
        <ele>182.80000305176</ele>
        <time>2019-08-17T09:44:21.000Z</time>
      </trkpt>
      <trkpt lat="45.88356" lon="4.80376">
        <ele>182.80000305176</ele>
        <time>2019-08-17T09:44:24.000Z</time>
      </trkpt>
      <trkpt lat="45.88347" lon="4.80365">
        <ele>182.80000305176</ele>
        <time>2019-08-17T09:44:29.000Z</time>
      </trkpt>
      <trkpt lat="45.88343" lon="4.80366">
        <ele>182.80000305176</ele>
        <time>2019-08-17T09:44:31.000Z</time>
      </trkpt>
      <trkpt lat="45.88343" lon="4.80369">
        <ele>182.80000305176</ele>
        <time>2019-08-17T09:44:32.000Z</time>
      </trkpt>
      <trkpt lat="45.88352" lon="4.80379">
        <ele>182.80000305176</ele>
        <time>2019-08-17T09:44:35.000Z</time>
      </trkpt>
      <trkpt lat="45.88359" lon="4.80388">
        <ele>182.80000305176</ele>
        <time>2019-08-17T09:44:37.000Z</time>
      </trkpt>
      <trkpt lat="45.88371" lon="4.80408">
        <ele>182.80000305176</ele>
        <time>2019-08-17T09:44:41.000Z</time>
      </trkpt>
      <trkpt lat="45.88382" lon="4.80419">
        <ele>182.80000305176</ele>
        <time>2019-08-17T09:44:45.000Z</time>
      </trkpt>
      <trkpt lat="45.88391" lon="4.8043">
        <ele>182.80000305176</ele>
        <time>2019-08-17T09:44:48.000Z</time>
      </trkpt>
      <trkpt lat="45.88394" lon="4.80434">
        <ele>182.80000305176</ele>
        <time>2019-08-17T09:44:49.000Z</time>
      </trkpt>
      <trkpt lat="45.88406" lon="4.80449">
        <ele>182.80000305176</ele>
        <time>2019-08-17T09:44:53.000Z</time>
      </trkpt>
      <trkpt lat="45.88412" lon="4.80455">
        <ele>182.80000305176</ele>
        <time>2019-08-17T09:44:55.000Z</time>
      </trkpt>
      <trkpt lat="45.88425" lon="4.80462">
        <ele>182.80000305176</ele>
        <time>2019-08-17T09:44:59.000Z</time>
      </trkpt>
      <trkpt lat="45.88428" lon="4.80459">
        <ele>182.80000305176</ele>
        <time>2019-08-17T09:45:00.000Z</time>
      </trkpt>
      <trkpt lat="45.8843" lon="4.80447">
        <ele>182.80000305176</ele>
        <time>2019-08-17T09:45:03.000Z</time>
      </trkpt>
      <trkpt lat="45.88425" lon="4.80432">
        <ele>182.80000305176</ele>
        <time>2019-08-17T09:45:08.000Z</time>
      </trkpt>
      <trkpt lat="45.8842" lon="4.80427">
        <ele>182.80000305176</ele>
        <time>2019-08-17T09:45:10.000Z</time>
      </trkpt>
      <trkpt lat="45.88414" lon="4.80421">
        <ele>182.39999389648</ele>
        <time>2019-08-17T09:45:13.000Z</time>
      </trkpt>
      <trkpt lat="45.88412" lon="4.80419">
        <ele>181.60000610352</ele>
        <time>2019-08-17T09:45:14.000Z</time>
      </trkpt>
      <trkpt lat="45.88411" lon="4.8042">
        <ele>181.19999694824</ele>
        <time>2019-08-17T09:45:15.000Z</time>
      </trkpt>
      <trkpt lat="45.8841" lon="4.8042">
        <ele>180.80000305176</ele>
        <time>2019-08-17T09:45:16.000Z</time>
      </trkpt>
      <trkpt lat="45.88408" lon="4.80418">
        <ele>180.80000305176</ele>
        <time>2019-08-17T09:45:17.000Z</time>
      </trkpt>
      <trkpt lat="45.88402" lon="4.80419">
        <ele>180.80000305176</ele>
        <time>2019-08-17T09:45:21.000Z</time>
      </trkpt>
      <trkpt lat="45.88403" lon="4.80424">
        <ele>180.80000305176</ele>
        <time>2019-08-17T09:45:26.000Z</time>
      </trkpt>
      <trkpt lat="45.88404" lon="4.80424">
        <ele>180.80000305176</ele>
        <time>2019-08-17T09:45:28.000Z</time>
      </trkpt>
      <trkpt lat="45.88406" lon="4.80426">
        <ele>180.80000305176</ele>
        <time>2019-08-17T09:50:08.000Z</time>
      </trkpt>
      <trkpt lat="45.88406" lon="4.80427">
        <ele>180.80000305176</ele>
        <time>2019-08-17T09:50:09.000Z</time>
      </trkpt>
      <trkpt lat="45.88412" lon="4.80433">
        <ele>180.80000305176</ele>
        <time>2019-08-17T09:50:13.000Z</time>
      </trkpt>
      <trkpt lat="45.88413" lon="4.80433">
        <ele>180.80000305176</ele>
        <time>2019-08-17T09:50:14.000Z</time>
      </trkpt>
      <trkpt lat="45.88413" lon="4.80434">
        <ele>180.80000305176</ele>
        <time>2019-08-17T09:50:15.000Z</time>
      </trkpt>
      <trkpt lat="45.88414" lon="4.80432">
        <ele>180.80000305176</ele>
        <time>2019-08-17T09:50:18.000Z</time>
      </trkpt>
      <trkpt lat="45.88416" lon="4.80429">
        <ele>180.80000305176</ele>
        <time>2019-08-17T09:50:20.000Z</time>
      </trkpt>
      <trkpt lat="45.88413" lon="4.80421">
        <ele>180.80000305176</ele>
        <time>2019-08-17T09:50:23.000Z</time>
      </trkpt>
      <trkpt lat="45.88411" lon="4.80418">
        <ele>180.80000305176</ele>
        <time>2019-08-17T09:50:24.000Z</time>
      </trkpt>
      <trkpt lat="45.88401" lon="4.80408">
        <ele>180.80000305176</ele>
        <time>2019-08-17T09:50:30.000Z</time>
      </trkpt>
      <trkpt lat="45.88391" lon="4.80394">
        <ele>180.80000305176</ele>
        <time>2019-08-17T09:50:36.000Z</time>
      </trkpt>
      <trkpt lat="45.88378" lon="4.80377">
        <ele>180.80000305176</ele>
        <time>2019-08-17T09:50:43.000Z</time>
      </trkpt>
      <trkpt lat="45.88366" lon="4.8036">
        <ele>180.80000305176</ele>
        <time>2019-08-17T09:50:49.000Z</time>
      </trkpt>
      <trkpt lat="45.88349" lon="4.80348">
        <ele>180.80000305176</ele>
        <time>2019-08-17T09:50:55.000Z</time>
      </trkpt>
      <trkpt lat="45.88337" lon="4.80349">
        <ele>180.80000305176</ele>
        <time>2019-08-17T09:51:00.000Z</time>
      </trkpt>
      <trkpt lat="45.88335" lon="4.80347">
        <ele>180.80000305176</ele>
        <time>2019-08-17T09:51:01.000Z</time>
      </trkpt>
      <trkpt lat="45.88334" lon="4.80339">
        <ele>180.80000305176</ele>
        <time>2019-08-17T09:51:03.000Z</time>
      </trkpt>
      <trkpt lat="45.88335" lon="4.80331">
        <ele>181.19999694824</ele>
        <time>2019-08-17T09:51:05.000Z</time>
      </trkpt>
      <trkpt lat="45.88335" lon="4.80327">
        <ele>181.60000610352</ele>
        <time>2019-08-17T09:51:06.000Z</time>
      </trkpt>
      <trkpt lat="45.88336" lon="4.80323">
        <ele>182</ele>
        <time>2019-08-17T09:51:07.000Z</time>
      </trkpt>
      <trkpt lat="45.88337" lon="4.80319">
        <ele>182.39999389648</ele>
        <time>2019-08-17T09:51:08.000Z</time>
      </trkpt>
      <trkpt lat="45.88338" lon="4.80316">
        <ele>182.80000305176</ele>
        <time>2019-08-17T09:51:09.000Z</time>
      </trkpt>
      <trkpt lat="45.88341" lon="4.80312">
        <ele>182.80000305176</ele>
        <time>2019-08-17T09:51:10.000Z</time>
      </trkpt>
      <trkpt lat="45.88351" lon="4.80296">
        <ele>182.80000305176</ele>
        <time>2019-08-17T09:51:15.000Z</time>
      </trkpt>
      <trkpt lat="45.88364" lon="4.80278">
        <ele>182.80000305176</ele>
        <time>2019-08-17T09:51:22.000Z</time>
      </trkpt>
      <trkpt lat="45.88366" lon="4.80276">
        <ele>182.80000305176</ele>
        <time>2019-08-17T09:51:25.000Z</time>
      </trkpt>
      <trkpt lat="45.88367" lon="4.80275">
        <ele>182.80000305176</ele>
        <time>2019-08-17T09:51:44.000Z</time>
      </trkpt>
      <trkpt lat="45.88369" lon="4.80274">
        <ele>182.80000305176</ele>
        <time>2019-08-17T09:51:45.000Z</time>
      </trkpt>
      <trkpt lat="45.88379" lon="4.80264">
        <ele>182.80000305176</ele>
        <time>2019-08-17T09:51:49.000Z</time>
      </trkpt>
      <trkpt lat="45.88379" lon="4.80254">
        <ele>182.39999389648</ele>
        <time>2019-08-17T09:51:51.000Z</time>
      </trkpt>
      <trkpt lat="45.88378" lon="4.8025">
        <ele>182</ele>
        <time>2019-08-17T09:51:52.000Z</time>
      </trkpt>
      <trkpt lat="45.88377" lon="4.80245">
        <ele>181.60000610352</ele>
        <time>2019-08-17T09:51:53.000Z</time>
      </trkpt>
      <trkpt lat="45.88376" lon="4.80241">
        <ele>181.19999694824</ele>
        <time>2019-08-17T09:51:54.000Z</time>
      </trkpt>
      <trkpt lat="45.88376" lon="4.80237">
        <ele>180.80000305176</ele>
        <time>2019-08-17T09:51:55.000Z</time>
      </trkpt>
      <trkpt lat="45.88376" lon="4.80233">
        <ele>180.80000305176</ele>
        <time>2019-08-17T09:51:56.000Z</time>
      </trkpt>
      <trkpt lat="45.88375" lon="4.8021">
        <ele>180.80000305176</ele>
        <time>2019-08-17T09:52:02.000Z</time>
      </trkpt>
      <trkpt lat="45.88379" lon="4.80184">
        <ele>180.80000305176</ele>
        <time>2019-08-17T09:52:06.000Z</time>
      </trkpt>
      <trkpt lat="45.8838" lon="4.80178">
        <ele>181.19999694824</ele>
        <time>2019-08-17T09:52:07.000Z</time>
      </trkpt>
      <trkpt lat="45.88381" lon="4.80172">
        <ele>181.60000610352</ele>
        <time>2019-08-17T09:52:08.000Z</time>
      </trkpt>
      <trkpt lat="45.88383" lon="4.80166">
        <ele>182</ele>
        <time>2019-08-17T09:52:09.000Z</time>
      </trkpt>
      <trkpt lat="45.88384" lon="4.80159">
        <ele>182.60000610352</ele>
        <time>2019-08-17T09:52:10.000Z</time>
      </trkpt>
      <trkpt lat="45.88385" lon="4.80153">
        <ele>183</ele>
        <time>2019-08-17T09:52:11.000Z</time>
      </trkpt>
      <trkpt lat="45.88387" lon="4.8014">
        <ele>183</ele>
        <time>2019-08-17T09:52:13.000Z</time>
      </trkpt>
      <trkpt lat="45.88395" lon="4.8009">
        <ele>183</ele>
        <time>2019-08-17T09:52:20.000Z</time>
      </trkpt>
      <trkpt lat="45.88395" lon="4.80082">
        <ele>183</ele>
        <time>2019-08-17T09:52:21.000Z</time>
      </trkpt>
      <trkpt lat="45.88395" lon="4.8005">
        <ele>183</ele>
        <time>2019-08-17T09:52:25.000Z</time>
      </trkpt>
      <trkpt lat="45.88393" lon="4.80025">
        <ele>183</ele>
        <time>2019-08-17T09:52:28.000Z</time>
      </trkpt>
      <trkpt lat="45.8839" lon="4.8">
        <ele>183</ele>
        <time>2019-08-17T09:52:31.000Z</time>
      </trkpt>
      <trkpt lat="45.88382" lon="4.7994">
        <ele>183</ele>
        <time>2019-08-17T09:52:38.000Z</time>
      </trkpt>
      <trkpt lat="45.8837" lon="4.7986">
        <ele>183</ele>
        <time>2019-08-17T09:52:47.000Z</time>
      </trkpt>
      <trkpt lat="45.88359" lon="4.79789">
        <ele>183</ele>
        <time>2019-08-17T09:52:55.000Z</time>
      </trkpt>
      <trkpt lat="45.88352" lon="4.79735">
        <ele>183</ele>
        <time>2019-08-17T09:53:01.000Z</time>
      </trkpt>
      <trkpt lat="45.88339" lon="4.79673">
        <ele>183</ele>
        <time>2019-08-17T09:53:08.000Z</time>
      </trkpt>
      <trkpt lat="45.88318" lon="4.79615">
        <ele>183</ele>
        <time>2019-08-17T09:53:15.000Z</time>
      </trkpt>
      <trkpt lat="45.883" lon="4.79563">
        <ele>183</ele>
        <time>2019-08-17T09:53:22.000Z</time>
      </trkpt>
      <trkpt lat="45.88282" lon="4.79504">
        <ele>183</ele>
        <time>2019-08-17T09:53:30.000Z</time>
      </trkpt>
      <trkpt lat="45.88267" lon="4.79459">
        <ele>183</ele>
        <time>2019-08-17T09:53:36.000Z</time>
      </trkpt>
      <trkpt lat="45.88262" lon="4.79444">
        <ele>183</ele>
        <time>2019-08-17T09:53:38.000Z</time>
      </trkpt>
      <trkpt lat="45.88242" lon="4.79387">
        <ele>183</ele>
        <time>2019-08-17T09:53:46.000Z</time>
      </trkpt>
      <trkpt lat="45.8824" lon="4.7938">
        <ele>183</ele>
        <time>2019-08-17T09:53:47.000Z</time>
      </trkpt>
      <trkpt lat="45.88233" lon="4.7935">
        <ele>183</ele>
        <time>2019-08-17T09:53:51.000Z</time>
      </trkpt>
      <trkpt lat="45.88222" lon="4.79287">
        <ele>183</ele>
        <time>2019-08-17T09:53:58.000Z</time>
      </trkpt>
      <trkpt lat="45.88222" lon="4.79233">
        <ele>183</ele>
        <time>2019-08-17T09:54:04.000Z</time>
      </trkpt>
      <trkpt lat="45.88222" lon="4.79155">
        <ele>183</ele>
        <time>2019-08-17T09:54:13.000Z</time>
      </trkpt>
      <trkpt lat="45.88215" lon="4.79094">
        <ele>183</ele>
        <time>2019-08-17T09:54:20.000Z</time>
      </trkpt>
      <trkpt lat="45.88203" lon="4.79015">
        <ele>183</ele>
        <time>2019-08-17T09:54:29.000Z</time>
      </trkpt>
      <trkpt lat="45.88189" lon="4.78937">
        <ele>183</ele>
        <time>2019-08-17T09:54:37.000Z</time>
      </trkpt>
      <trkpt lat="45.88174" lon="4.78862">
        <ele>183</ele>
        <time>2019-08-17T09:54:45.000Z</time>
      </trkpt>
      <trkpt lat="45.88162" lon="4.788">
        <ele>183</ele>
        <time>2019-08-17T09:54:52.000Z</time>
      </trkpt>
      <trkpt lat="45.88146" lon="4.78731">
        <ele>183</ele>
        <time>2019-08-17T09:55:00.000Z</time>
      </trkpt>
      <trkpt lat="45.88126" lon="4.78662">
        <ele>183</ele>
        <time>2019-08-17T09:55:08.000Z</time>
      </trkpt>
      <trkpt lat="45.88101" lon="4.78605">
        <ele>183</ele>
        <time>2019-08-17T09:55:15.000Z</time>
      </trkpt>
      <trkpt lat="45.8807" lon="4.78538">
        <ele>183</ele>
        <time>2019-08-17T09:55:23.000Z</time>
      </trkpt>
      <trkpt lat="45.88041" lon="4.78473">
        <ele>183</ele>
        <time>2019-08-17T09:55:31.000Z</time>
      </trkpt>
      <trkpt lat="45.88015" lon="4.78431">
        <ele>183</ele>
        <time>2019-08-17T09:55:37.000Z</time>
      </trkpt>
      <trkpt lat="45.87994" lon="4.78415">
        <ele>183</ele>
        <time>2019-08-17T09:55:41.000Z</time>
      </trkpt>
      <trkpt lat="45.87985" lon="4.78394">
        <ele>183</ele>
        <time>2019-08-17T09:55:44.000Z</time>
      </trkpt>
      <trkpt lat="45.87985" lon="4.78376">
        <ele>183</ele>
        <time>2019-08-17T09:55:46.000Z</time>
      </trkpt>
      <trkpt lat="45.87986" lon="4.7835">
        <ele>183</ele>
        <time>2019-08-17T09:55:49.000Z</time>
      </trkpt>
      <trkpt lat="45.87995" lon="4.78283">
        <ele>183</ele>
        <time>2019-08-17T09:55:57.000Z</time>
      </trkpt>
      <trkpt lat="45.88004" lon="4.78217">
        <ele>183</ele>
        <time>2019-08-17T09:56:05.000Z</time>
      </trkpt>
      <trkpt lat="45.88006" lon="4.78184">
        <ele>183</ele>
        <time>2019-08-17T09:56:09.000Z</time>
      </trkpt>
      <trkpt lat="45.88005" lon="4.7816">
        <ele>183</ele>
        <time>2019-08-17T09:56:12.000Z</time>
      </trkpt>
      <trkpt lat="45.88004" lon="4.78138">
        <ele>183.39999389648</ele>
        <time>2019-08-17T09:56:15.000Z</time>
      </trkpt>
      <trkpt lat="45.88003" lon="4.78131">
        <ele>183.80000305176</ele>
        <time>2019-08-17T09:56:16.000Z</time>
      </trkpt>
      <trkpt lat="45.88002" lon="4.78124">
        <ele>184.19999694824</ele>
        <time>2019-08-17T09:56:17.000Z</time>
      </trkpt>
      <trkpt lat="45.88001" lon="4.78117">
        <ele>184.60000610352</ele>
        <time>2019-08-17T09:56:18.000Z</time>
      </trkpt>
      <trkpt lat="45.88" lon="4.78109">
        <ele>185</ele>
        <time>2019-08-17T09:56:19.000Z</time>
      </trkpt>
      <trkpt lat="45.87991" lon="4.78045">
        <ele>185</ele>
        <time>2019-08-17T09:56:28.000Z</time>
      </trkpt>
      <trkpt lat="45.87983" lon="4.77988">
        <ele>185</ele>
        <time>2019-08-17T09:56:36.000Z</time>
      </trkpt>
      <trkpt lat="45.87978" lon="4.77963">
        <ele>185.39999389648</ele>
        <time>2019-08-17T09:56:41.000Z</time>
      </trkpt>
      <trkpt lat="45.87977" lon="4.77959">
        <ele>185.80000305176</ele>
        <time>2019-08-17T09:56:42.000Z</time>
      </trkpt>
      <trkpt lat="45.87977" lon="4.77956">
        <ele>186.19999694824</ele>
        <time>2019-08-17T09:56:43.000Z</time>
      </trkpt>
      <trkpt lat="45.87976" lon="4.77954">
        <ele>186.60000610352</ele>
        <time>2019-08-17T09:56:44.000Z</time>
      </trkpt>
      <trkpt lat="45.87976" lon="4.77951">
        <ele>187</ele>
        <time>2019-08-17T09:56:45.000Z</time>
      </trkpt>
      <trkpt lat="45.87974" lon="4.77947">
        <ele>187</ele>
        <time>2019-08-17T09:56:47.000Z</time>
      </trkpt>
      <trkpt lat="45.87969" lon="4.77926">
        <ele>187</ele>
        <time>2019-08-17T09:56:52.000Z</time>
      </trkpt>
      <trkpt lat="45.87968" lon="4.77894">
        <ele>187</ele>
        <time>2019-08-17T09:56:57.000Z</time>
      </trkpt>
      <trkpt lat="45.87966" lon="4.77846">
        <ele>187</ele>
        <time>2019-08-17T09:57:03.000Z</time>
      </trkpt>
      <trkpt lat="45.8796" lon="4.77784">
        <ele>187</ele>
        <time>2019-08-17T09:57:10.000Z</time>
      </trkpt>
      <trkpt lat="45.87953" lon="4.77712">
        <ele>187</ele>
        <time>2019-08-17T09:57:18.000Z</time>
      </trkpt>
      <trkpt lat="45.87956" lon="4.77696">
        <ele>187</ele>
        <time>2019-08-17T09:57:20.000Z</time>
      </trkpt>
      <trkpt lat="45.87959" lon="4.77691">
        <ele>187</ele>
        <time>2019-08-17T09:57:21.000Z</time>
      </trkpt>
      <trkpt lat="45.87968" lon="4.77666">
        <ele>187</ele>
        <time>2019-08-17T09:57:25.000Z</time>
      </trkpt>
      <trkpt lat="45.87968" lon="4.77658">
        <ele>187</ele>
        <time>2019-08-17T09:57:26.000Z</time>
      </trkpt>
      <trkpt lat="45.87971" lon="4.77628">
        <ele>187</ele>
        <time>2019-08-17T09:57:30.000Z</time>
      </trkpt>
      <trkpt lat="45.87982" lon="4.7758">
        <ele>187</ele>
        <time>2019-08-17T09:57:36.000Z</time>
      </trkpt>
      <trkpt lat="45.87993" lon="4.77522">
        <ele>187</ele>
        <time>2019-08-17T09:57:43.000Z</time>
      </trkpt>
      <trkpt lat="45.87998" lon="4.77467">
        <ele>187</ele>
        <time>2019-08-17T09:57:49.000Z</time>
      </trkpt>
      <trkpt lat="45.88007" lon="4.774">
        <ele>187</ele>
        <time>2019-08-17T09:57:56.000Z</time>
      </trkpt>
      <trkpt lat="45.88015" lon="4.77345">
        <ele>187</ele>
        <time>2019-08-17T09:58:02.000Z</time>
      </trkpt>
      <trkpt lat="45.88027" lon="4.77282">
        <ele>187</ele>
        <time>2019-08-17T09:58:09.000Z</time>
      </trkpt>
      <trkpt lat="45.88033" lon="4.77235">
        <ele>186.60000610352</ele>
        <time>2019-08-17T09:58:14.000Z</time>
      </trkpt>
      <trkpt lat="45.88034" lon="4.77225">
        <ele>186.19999694824</ele>
        <time>2019-08-17T09:58:15.000Z</time>
      </trkpt>
      <trkpt lat="45.88035" lon="4.77216">
        <ele>185.80000305176</ele>
        <time>2019-08-17T09:58:16.000Z</time>
      </trkpt>
      <trkpt lat="45.88036" lon="4.77206">
        <ele>185.39999389648</ele>
        <time>2019-08-17T09:58:17.000Z</time>
      </trkpt>
      <trkpt lat="45.88038" lon="4.77196">
        <ele>185</ele>
        <time>2019-08-17T09:58:18.000Z</time>
      </trkpt>
      <trkpt lat="45.88041" lon="4.77155">
        <ele>185</ele>
        <time>2019-08-17T09:58:22.000Z</time>
      </trkpt>
      <trkpt lat="45.88049" lon="4.77106">
        <ele>185</ele>
        <time>2019-08-17T09:58:27.000Z</time>
      </trkpt>
      <trkpt lat="45.88053" lon="4.77086">
        <ele>185</ele>
        <time>2019-08-17T09:58:29.000Z</time>
      </trkpt>
      <trkpt lat="45.88067" lon="4.77023">
        <ele>185</ele>
        <time>2019-08-17T09:58:36.000Z</time>
      </trkpt>
      <trkpt lat="45.8807" lon="4.77005">
        <ele>184.60000610352</ele>
        <time>2019-08-17T09:58:38.000Z</time>
      </trkpt>
      <trkpt lat="45.88072" lon="4.76996">
        <ele>184.19999694824</ele>
        <time>2019-08-17T09:58:39.000Z</time>
      </trkpt>
      <trkpt lat="45.88074" lon="4.76987">
        <ele>183.80000305176</ele>
        <time>2019-08-17T09:58:40.000Z</time>
      </trkpt>
      <trkpt lat="45.88076" lon="4.76977">
        <ele>183.19999694824</ele>
        <time>2019-08-17T09:58:41.000Z</time>
      </trkpt>
      <trkpt lat="45.88078" lon="4.76968">
        <ele>182.80000305176</ele>
        <time>2019-08-17T09:58:42.000Z</time>
      </trkpt>
      <trkpt lat="45.88089" lon="4.76925">
        <ele>182.80000305176</ele>
        <time>2019-08-17T09:58:47.000Z</time>
      </trkpt>
      <trkpt lat="45.88091" lon="4.76909">
        <ele>182.80000305176</ele>
        <time>2019-08-17T09:58:49.000Z</time>
      </trkpt>
      <trkpt lat="45.88093" lon="4.76894">
        <ele>182.80000305176</ele>
        <time>2019-08-17T09:58:51.000Z</time>
      </trkpt>
      <trkpt lat="45.88094" lon="4.76886">
        <ele>182.80000305176</ele>
        <time>2019-08-17T09:58:52.000Z</time>
      </trkpt>
      <trkpt lat="45.88098" lon="4.76871">
        <ele>182.80000305176</ele>
        <time>2019-08-17T09:58:54.000Z</time>
      </trkpt>
      <trkpt lat="45.88101" lon="4.76846">
        <ele>182.80000305176</ele>
        <time>2019-08-17T09:58:57.000Z</time>
      </trkpt>
      <trkpt lat="45.88108" lon="4.7681">
        <ele>182.80000305176</ele>
        <time>2019-08-17T09:59:01.000Z</time>
      </trkpt>
      <trkpt lat="45.88114" lon="4.76746">
        <ele>182.80000305176</ele>
        <time>2019-08-17T09:59:08.000Z</time>
      </trkpt>
      <trkpt lat="45.88116" lon="4.76737">
        <ele>182.80000305176</ele>
        <time>2019-08-17T09:59:09.000Z</time>
      </trkpt>
      <trkpt lat="45.88127" lon="4.76713">
        <ele>182.80000305176</ele>
        <time>2019-08-17T09:59:12.000Z</time>
      </trkpt>
      <trkpt lat="45.88131" lon="4.76705">
        <ele>182.80000305176</ele>
        <time>2019-08-17T09:59:13.000Z</time>
      </trkpt>
      <trkpt lat="45.88152" lon="4.76656">
        <ele>182.80000305176</ele>
        <time>2019-08-17T09:59:19.000Z</time>
      </trkpt>
      <trkpt lat="45.88174" lon="4.76597">
        <ele>182.80000305176</ele>
        <time>2019-08-17T09:59:26.000Z</time>
      </trkpt>
      <trkpt lat="45.88185" lon="4.76563">
        <ele>182.80000305176</ele>
        <time>2019-08-17T09:59:30.000Z</time>
      </trkpt>
      <trkpt lat="45.88188" lon="4.76545">
        <ele>182.80000305176</ele>
        <time>2019-08-17T09:59:32.000Z</time>
      </trkpt>
      <trkpt lat="45.88193" lon="4.76529">
        <ele>182.80000305176</ele>
        <time>2019-08-17T09:59:34.000Z</time>
      </trkpt>
      <trkpt lat="45.88198" lon="4.76515">
        <ele>182.80000305176</ele>
        <time>2019-08-17T09:59:36.000Z</time>
      </trkpt>
      <trkpt lat="45.88206" lon="4.7649">
        <ele>182.80000305176</ele>
        <time>2019-08-17T09:59:40.000Z</time>
      </trkpt>
      <trkpt lat="45.88208" lon="4.76485">
        <ele>182.80000305176</ele>
        <time>2019-08-17T09:59:41.000Z</time>
      </trkpt>
      <trkpt lat="45.88224" lon="4.76442">
        <ele>182.80000305176</ele>
        <time>2019-08-17T09:59:48.000Z</time>
      </trkpt>
      <trkpt lat="45.88236" lon="4.76407">
        <ele>182.80000305176</ele>
        <time>2019-08-17T09:59:53.000Z</time>
      </trkpt>
      <trkpt lat="45.88241" lon="4.76392">
        <ele>182.80000305176</ele>
        <time>2019-08-17T09:59:55.000Z</time>
      </trkpt>
      <trkpt lat="45.88263" lon="4.76333">
        <ele>182.80000305176</ele>
        <time>2019-08-17T10:00:03.000Z</time>
      </trkpt>
      <trkpt lat="45.88276" lon="4.7628">
        <ele>182.80000305176</ele>
        <time>2019-08-17T10:00:09.000Z</time>
      </trkpt>
      <trkpt lat="45.88283" lon="4.76224">
        <ele>182.80000305176</ele>
        <time>2019-08-17T10:00:15.000Z</time>
      </trkpt>
      <trkpt lat="45.88288" lon="4.76167">
        <ele>182.39999389648</ele>
        <time>2019-08-17T10:00:21.000Z</time>
      </trkpt>
      <trkpt lat="45.88288" lon="4.76157">
        <ele>182</ele>
        <time>2019-08-17T10:00:22.000Z</time>
      </trkpt>
      <trkpt lat="45.88288" lon="4.76147">
        <ele>181.60000610352</ele>
        <time>2019-08-17T10:00:23.000Z</time>
      </trkpt>
      <trkpt lat="45.88289" lon="4.76136">
        <ele>181</ele>
        <time>2019-08-17T10:00:24.000Z</time>
      </trkpt>
      <trkpt lat="45.88289" lon="4.76126">
        <ele>180.60000610352</ele>
        <time>2019-08-17T10:00:25.000Z</time>
      </trkpt>
      <trkpt lat="45.8829" lon="4.76096">
        <ele>180.60000610352</ele>
        <time>2019-08-17T10:00:28.000Z</time>
      </trkpt>
      <trkpt lat="45.88291" lon="4.76076">
        <ele>180.19999694824</ele>
        <time>2019-08-17T10:00:30.000Z</time>
      </trkpt>
      <trkpt lat="45.88292" lon="4.76065">
        <ele>179.80000305176</ele>
        <time>2019-08-17T10:00:31.000Z</time>
      </trkpt>
      <trkpt lat="45.88293" lon="4.76055">
        <ele>179.39999389648</ele>
        <time>2019-08-17T10:00:32.000Z</time>
      </trkpt>
      <trkpt lat="45.88293" lon="4.76045">
        <ele>179</ele>
        <time>2019-08-17T10:00:33.000Z</time>
      </trkpt>
      <trkpt lat="45.88295" lon="4.76035">
        <ele>178.60000610352</ele>
        <time>2019-08-17T10:00:34.000Z</time>
      </trkpt>
      <trkpt lat="45.88296" lon="4.76024">
        <ele>178.60000610352</ele>
        <time>2019-08-17T10:00:35.000Z</time>
      </trkpt>
      <trkpt lat="45.883" lon="4.76004">
        <ele>178.60000610352</ele>
        <time>2019-08-17T10:00:37.000Z</time>
      </trkpt>
      <trkpt lat="45.88309" lon="4.75975">
        <ele>177.80000305176</ele>
        <time>2019-08-17T10:00:40.000Z</time>
      </trkpt>
      <trkpt lat="45.88312" lon="4.75965">
        <ele>177.19999694824</ele>
        <time>2019-08-17T10:00:41.000Z</time>
      </trkpt>
      <trkpt lat="45.88316" lon="4.75955">
        <ele>176.80000305176</ele>
        <time>2019-08-17T10:00:42.000Z</time>
      </trkpt>
      <trkpt lat="45.88319" lon="4.75946">
        <ele>176.39999389648</ele>
        <time>2019-08-17T10:00:43.000Z</time>
      </trkpt>
      <trkpt lat="45.88331" lon="4.75898">
        <ele>176.39999389648</ele>
        <time>2019-08-17T10:00:48.000Z</time>
      </trkpt>
      <trkpt lat="45.88334" lon="4.7588">
        <ele>176</ele>
        <time>2019-08-17T10:00:50.000Z</time>
      </trkpt>
      <trkpt lat="45.88335" lon="4.7587">
        <ele>175.60000610352</ele>
        <time>2019-08-17T10:00:51.000Z</time>
      </trkpt>
      <trkpt lat="45.88336" lon="4.75861">
        <ele>175.19999694824</ele>
        <time>2019-08-17T10:00:52.000Z</time>
      </trkpt>
      <trkpt lat="45.88337" lon="4.75853">
        <ele>174.80000305176</ele>
        <time>2019-08-17T10:00:53.000Z</time>
      </trkpt>
      <trkpt lat="45.88338" lon="4.75844">
        <ele>174.39999389648</ele>
        <time>2019-08-17T10:00:54.000Z</time>
      </trkpt>
      <trkpt lat="45.8834" lon="4.75802">
        <ele>174.39999389648</ele>
        <time>2019-08-17T10:00:59.000Z</time>
      </trkpt>
      <trkpt lat="45.88342" lon="4.75784">
        <ele>174.39999389648</ele>
        <time>2019-08-17T10:01:01.000Z</time>
      </trkpt>
      <trkpt lat="45.88349" lon="4.75729">
        <ele>174.39999389648</ele>
        <time>2019-08-17T10:01:07.000Z</time>
      </trkpt>
      <trkpt lat="45.88351" lon="4.75721">
        <ele>174.39999389648</ele>
        <time>2019-08-17T10:01:08.000Z</time>
      </trkpt>
      <trkpt lat="45.88354" lon="4.75712">
        <ele>174.39999389648</ele>
        <time>2019-08-17T10:01:09.000Z</time>
      </trkpt>
      <trkpt lat="45.88361" lon="4.75673">
        <ele>174.39999389648</ele>
        <time>2019-08-17T10:01:13.000Z</time>
      </trkpt>
      <trkpt lat="45.88363" lon="4.75654">
        <ele>174</ele>
        <time>2019-08-17T10:01:15.000Z</time>
      </trkpt>
      <trkpt lat="45.88363" lon="4.75645">
        <ele>173.39999389648</ele>
        <time>2019-08-17T10:01:16.000Z</time>
      </trkpt>
      <trkpt lat="45.88363" lon="4.75635">
        <ele>173</ele>
        <time>2019-08-17T10:01:17.000Z</time>
      </trkpt>
      <trkpt lat="45.88363" lon="4.75625">
        <ele>172.60000610352</ele>
        <time>2019-08-17T10:01:18.000Z</time>
      </trkpt>
      <trkpt lat="45.88363" lon="4.75615">
        <ele>172.19999694824</ele>
        <time>2019-08-17T10:01:19.000Z</time>
      </trkpt>
      <trkpt lat="45.88364" lon="4.75562">
        <ele>172.19999694824</ele>
        <time>2019-08-17T10:01:25.000Z</time>
      </trkpt>
      <trkpt lat="45.88363" lon="4.7552">
        <ele>172.19999694824</ele>
        <time>2019-08-17T10:01:30.000Z</time>
      </trkpt>
      <trkpt lat="45.88367" lon="4.75464">
        <ele>172.19999694824</ele>
        <time>2019-08-17T10:01:36.000Z</time>
      </trkpt>
      <trkpt lat="45.88374" lon="4.75417">
        <ele>172.19999694824</ele>
        <time>2019-08-17T10:01:42.000Z</time>
      </trkpt>
      <trkpt lat="45.88385" lon="4.75374">
        <ele>172.19999694824</ele>
        <time>2019-08-17T10:01:49.000Z</time>
      </trkpt>
      <trkpt lat="45.88399" lon="4.7535">
        <ele>172.19999694824</ele>
        <time>2019-08-17T10:01:54.000Z</time>
      </trkpt>
      <trkpt lat="45.88411" lon="4.75324">
        <ele>172.19999694824</ele>
        <time>2019-08-17T10:01:58.000Z</time>
      </trkpt>
      <trkpt lat="45.88421" lon="4.75304">
        <ele>172.19999694824</ele>
        <time>2019-08-17T10:02:01.000Z</time>
      </trkpt>
      <trkpt lat="45.8843" lon="4.75292">
        <ele>172.19999694824</ele>
        <time>2019-08-17T10:02:03.000Z</time>
      </trkpt>
      <trkpt lat="45.88452" lon="4.75277">
        <ele>172.19999694824</ele>
        <time>2019-08-17T10:02:07.000Z</time>
      </trkpt>
      <trkpt lat="45.88493" lon="4.75254">
        <ele>172.19999694824</ele>
        <time>2019-08-17T10:02:14.000Z</time>
      </trkpt>
      <trkpt lat="45.88514" lon="4.75235">
        <ele>172.19999694824</ele>
        <time>2019-08-17T10:02:18.000Z</time>
      </trkpt>
      <trkpt lat="45.88519" lon="4.75229">
        <ele>172.19999694824</ele>
        <time>2019-08-17T10:02:19.000Z</time>
      </trkpt>
      <trkpt lat="45.88533" lon="4.752">
        <ele>172.19999694824</ele>
        <time>2019-08-17T10:02:23.000Z</time>
      </trkpt>
      <trkpt lat="45.88536" lon="4.75192">
        <ele>172.19999694824</ele>
        <time>2019-08-17T10:02:24.000Z</time>
      </trkpt>
      <trkpt lat="45.88559" lon="4.75145">
        <ele>171.80000305176</ele>
        <time>2019-08-17T10:02:31.000Z</time>
      </trkpt>
      <trkpt lat="45.88563" lon="4.7514">
        <ele>171.39999389648</ele>
        <time>2019-08-17T10:02:32.000Z</time>
      </trkpt>
      <trkpt lat="45.88567" lon="4.75133">
        <ele>170.80000305176</ele>
        <time>2019-08-17T10:02:33.000Z</time>
      </trkpt>
      <trkpt lat="45.88571" lon="4.75128">
        <ele>170.39999389648</ele>
        <time>2019-08-17T10:02:34.000Z</time>
      </trkpt>
      <trkpt lat="45.88575" lon="4.75123">
        <ele>170</ele>
        <time>2019-08-17T10:02:35.000Z</time>
      </trkpt>
      <trkpt lat="45.88579" lon="4.75119">
        <ele>170</ele>
        <time>2019-08-17T10:02:36.000Z</time>
      </trkpt>
      <trkpt lat="45.88606" lon="4.75088">
        <ele>170</ele>
        <time>2019-08-17T10:02:42.000Z</time>
      </trkpt>
      <trkpt lat="45.88614" lon="4.75075">
        <ele>170</ele>
        <time>2019-08-17T10:02:44.000Z</time>
      </trkpt>
      <trkpt lat="45.88618" lon="4.75057">
        <ele>170</ele>
        <time>2019-08-17T10:02:46.000Z</time>
      </trkpt>
      <trkpt lat="45.88628" lon="4.74995">
        <ele>170</ele>
        <time>2019-08-17T10:02:53.000Z</time>
      </trkpt>
      <trkpt lat="45.88644" lon="4.74936">
        <ele>170</ele>
        <time>2019-08-17T10:03:00.000Z</time>
      </trkpt>
      <trkpt lat="45.88648" lon="4.7493">
        <ele>170</ele>
        <time>2019-08-17T10:03:01.000Z</time>
      </trkpt>
      <trkpt lat="45.88663" lon="4.74914">
        <ele>170</ele>
        <time>2019-08-17T10:03:04.000Z</time>
      </trkpt>
      <trkpt lat="45.88668" lon="4.74909">
        <ele>170</ele>
        <time>2019-08-17T10:03:05.000Z</time>
      </trkpt>
      <trkpt lat="45.88675" lon="4.74897">
        <ele>170</ele>
        <time>2019-08-17T10:03:07.000Z</time>
      </trkpt>
      <trkpt lat="45.88679" lon="4.74883">
        <ele>170</ele>
        <time>2019-08-17T10:03:09.000Z</time>
      </trkpt>
      <trkpt lat="45.88681" lon="4.74876">
        <ele>170</ele>
        <time>2019-08-17T10:03:10.000Z</time>
      </trkpt>
      <trkpt lat="45.88688" lon="4.74843">
        <ele>170</ele>
        <time>2019-08-17T10:03:14.000Z</time>
      </trkpt>
      <trkpt lat="45.88692" lon="4.74807">
        <ele>169.60000610352</ele>
        <time>2019-08-17T10:03:18.000Z</time>
      </trkpt>
      <trkpt lat="45.88693" lon="4.74797">
        <ele>169.19999694824</ele>
        <time>2019-08-17T10:03:19.000Z</time>
      </trkpt>
      <trkpt lat="45.88694" lon="4.74787">
        <ele>168.80000305176</ele>
        <time>2019-08-17T10:03:20.000Z</time>
      </trkpt>
      <trkpt lat="45.88695" lon="4.74778">
        <ele>168.39999389648</ele>
        <time>2019-08-17T10:03:21.000Z</time>
      </trkpt>
      <trkpt lat="45.88696" lon="4.74768">
        <ele>168</ele>
        <time>2019-08-17T10:03:22.000Z</time>
      </trkpt>
      <trkpt lat="45.88703" lon="4.74727">
        <ele>167.60000610352</ele>
        <time>2019-08-17T10:03:26.000Z</time>
      </trkpt>
      <trkpt lat="45.88704" lon="4.74716">
        <ele>167.19999694824</ele>
        <time>2019-08-17T10:03:27.000Z</time>
      </trkpt>
      <trkpt lat="45.88706" lon="4.74705">
        <ele>166.80000305176</ele>
        <time>2019-08-17T10:03:28.000Z</time>
      </trkpt>
      <trkpt lat="45.88707" lon="4.74694">
        <ele>166.39999389648</ele>
        <time>2019-08-17T10:03:29.000Z</time>
      </trkpt>
      <trkpt lat="45.88709" lon="4.74683">
        <ele>166</ele>
        <time>2019-08-17T10:03:30.000Z</time>
      </trkpt>
      <trkpt lat="45.88714" lon="4.74649">
        <ele>165.60000610352</ele>
        <time>2019-08-17T10:03:33.000Z</time>
      </trkpt>
      <trkpt lat="45.88716" lon="4.74638">
        <ele>165.19999694824</ele>
        <time>2019-08-17T10:03:34.000Z</time>
      </trkpt>
      <trkpt lat="45.88718" lon="4.74627">
        <ele>164.80000305176</ele>
        <time>2019-08-17T10:03:35.000Z</time>
      </trkpt>
      <trkpt lat="45.8872" lon="4.74616">
        <ele>164.19999694824</ele>
        <time>2019-08-17T10:03:36.000Z</time>
      </trkpt>
      <trkpt lat="45.88722" lon="4.74605">
        <ele>163.80000305176</ele>
        <time>2019-08-17T10:03:37.000Z</time>
      </trkpt>
      <trkpt lat="45.88722" lon="4.74594">
        <ele>163.80000305176</ele>
        <time>2019-08-17T10:03:38.000Z</time>
      </trkpt>
      <trkpt lat="45.88721" lon="4.74572">
        <ele>163.80000305176</ele>
        <time>2019-08-17T10:03:40.000Z</time>
      </trkpt>
      <trkpt lat="45.88718" lon="4.74538">
        <ele>163.39999389648</ele>
        <time>2019-08-17T10:03:43.000Z</time>
      </trkpt>
      <trkpt lat="45.88717" lon="4.74528">
        <ele>163</ele>
        <time>2019-08-17T10:03:44.000Z</time>
      </trkpt>
      <trkpt lat="45.88715" lon="4.74517">
        <ele>162.60000610352</ele>
        <time>2019-08-17T10:03:45.000Z</time>
      </trkpt>
      <trkpt lat="45.88714" lon="4.74508">
        <ele>162</ele>
        <time>2019-08-17T10:03:46.000Z</time>
      </trkpt>
      <trkpt lat="45.88714" lon="4.74498">
        <ele>161.60000610352</ele>
        <time>2019-08-17T10:03:47.000Z</time>
      </trkpt>
      <trkpt lat="45.88713" lon="4.74489">
        <ele>161.60000610352</ele>
        <time>2019-08-17T10:03:48.000Z</time>
      </trkpt>
      <trkpt lat="45.88708" lon="4.74437">
        <ele>161.19999694824</ele>
        <time>2019-08-17T10:03:54.000Z</time>
      </trkpt>
      <trkpt lat="45.88707" lon="4.74428">
        <ele>160.80000305176</ele>
        <time>2019-08-17T10:03:55.000Z</time>
      </trkpt>
      <trkpt lat="45.88706" lon="4.74418">
        <ele>160.39999389648</ele>
        <time>2019-08-17T10:03:56.000Z</time>
      </trkpt>
      <trkpt lat="45.88706" lon="4.7441">
        <ele>160</ele>
        <time>2019-08-17T10:03:57.000Z</time>
      </trkpt>
      <trkpt lat="45.88705" lon="4.74401">
        <ele>159.60000610352</ele>
        <time>2019-08-17T10:03:58.000Z</time>
      </trkpt>
      <trkpt lat="45.88704" lon="4.74383">
        <ele>159.60000610352</ele>
        <time>2019-08-17T10:04:00.000Z</time>
      </trkpt>
      <trkpt lat="45.88705" lon="4.74321">
        <ele>159.60000610352</ele>
        <time>2019-08-17T10:04:06.000Z</time>
      </trkpt>
      <trkpt lat="45.88705" lon="4.74261">
        <ele>159.60000610352</ele>
        <time>2019-08-17T10:04:12.000Z</time>
      </trkpt>
      <trkpt lat="45.88701" lon="4.742">
        <ele>159.60000610352</ele>
        <time>2019-08-17T10:04:18.000Z</time>
      </trkpt>
      <trkpt lat="45.88694" lon="4.74161">
        <ele>158.60000610352</ele>
        <time>2019-08-17T10:04:22.000Z</time>
      </trkpt>
      <trkpt lat="45.88691" lon="4.74151">
        <ele>158.19999694824</ele>
        <time>2019-08-17T10:04:23.000Z</time>
      </trkpt>
      <trkpt lat="45.88687" lon="4.74142">
        <ele>157.80000305176</ele>
        <time>2019-08-17T10:04:24.000Z</time>
      </trkpt>
      <trkpt lat="45.88684" lon="4.74133">
        <ele>157.19999694824</ele>
        <time>2019-08-17T10:04:25.000Z</time>
      </trkpt>
      <trkpt lat="45.88681" lon="4.74122">
        <ele>157.19999694824</ele>
        <time>2019-08-17T10:04:26.000Z</time>
      </trkpt>
      <trkpt lat="45.88673" lon="4.74093">
        <ele>157.19999694824</ele>
        <time>2019-08-17T10:04:29.000Z</time>
      </trkpt>
      <trkpt lat="45.88657" lon="4.74036">
        <ele>157.19999694824</ele>
        <time>2019-08-17T10:04:35.000Z</time>
      </trkpt>
      <trkpt lat="45.88653" lon="4.74008">
        <ele>156.80000305176</ele>
        <time>2019-08-17T10:04:38.000Z</time>
      </trkpt>
      <trkpt lat="45.88652" lon="4.73999">
        <ele>156.39999389648</ele>
        <time>2019-08-17T10:04:39.000Z</time>
      </trkpt>
      <trkpt lat="45.8865" lon="4.7399">
        <ele>156</ele>
        <time>2019-08-17T10:04:40.000Z</time>
      </trkpt>
      <trkpt lat="45.88649" lon="4.73979">
        <ele>155.60000610352</ele>
        <time>2019-08-17T10:04:41.000Z</time>
      </trkpt>
      <trkpt lat="45.88648" lon="4.7397">
        <ele>155.19999694824</ele>
        <time>2019-08-17T10:04:42.000Z</time>
      </trkpt>
      <trkpt lat="45.88644" lon="4.73921">
        <ele>155.19999694824</ele>
        <time>2019-08-17T10:04:47.000Z</time>
      </trkpt>
      <trkpt lat="45.88644" lon="4.73855">
        <ele>155.19999694824</ele>
        <time>2019-08-17T10:04:54.000Z</time>
      </trkpt>
      <trkpt lat="45.88646" lon="4.73784">
        <ele>155.19999694824</ele>
        <time>2019-08-17T10:05:02.000Z</time>
      </trkpt>
      <trkpt lat="45.88646" lon="4.73743">
        <ele>155.60000610352</ele>
        <time>2019-08-17T10:05:07.000Z</time>
      </trkpt>
      <trkpt lat="45.88646" lon="4.73735">
        <ele>156</ele>
        <time>2019-08-17T10:05:08.000Z</time>
      </trkpt>
      <trkpt lat="45.88647" lon="4.73727">
        <ele>156.39999389648</ele>
        <time>2019-08-17T10:05:09.000Z</time>
      </trkpt>
      <trkpt lat="45.88647" lon="4.73719">
        <ele>157</ele>
        <time>2019-08-17T10:05:10.000Z</time>
      </trkpt>
      <trkpt lat="45.88647" lon="4.73711">
        <ele>157.39999389648</ele>
        <time>2019-08-17T10:05:11.000Z</time>
      </trkpt>
      <trkpt lat="45.88647" lon="4.73686">
        <ele>157.80000305176</ele>
        <time>2019-08-17T10:05:14.000Z</time>
      </trkpt>
      <trkpt lat="45.88647" lon="4.73678">
        <ele>158.19999694824</ele>
        <time>2019-08-17T10:05:15.000Z</time>
      </trkpt>
      <trkpt lat="45.88648" lon="4.7367">
        <ele>158.60000610352</ele>
        <time>2019-08-17T10:05:16.000Z</time>
      </trkpt>
      <trkpt lat="45.88648" lon="4.73662">
        <ele>159</ele>
        <time>2019-08-17T10:05:17.000Z</time>
      </trkpt>
      <trkpt lat="45.88648" lon="4.73654">
        <ele>159.39999389648</ele>
        <time>2019-08-17T10:05:18.000Z</time>
      </trkpt>
      <trkpt lat="45.88649" lon="4.736">
        <ele>159.39999389648</ele>
        <time>2019-08-17T10:05:24.000Z</time>
      </trkpt>
      <trkpt lat="45.8865" lon="4.73533">
        <ele>159.39999389648</ele>
        <time>2019-08-17T10:05:30.000Z</time>
      </trkpt>
      <trkpt lat="45.88654" lon="4.73508">
        <ele>159</ele>
        <time>2019-08-17T10:05:32.000Z</time>
      </trkpt>
      <trkpt lat="45.88658" lon="4.73496">
        <ele>158.60000610352</ele>
        <time>2019-08-17T10:05:33.000Z</time>
      </trkpt>
      <trkpt lat="45.88663" lon="4.73485">
        <ele>158</ele>
        <time>2019-08-17T10:05:34.000Z</time>
      </trkpt>
      <trkpt lat="45.88669" lon="4.73474">
        <ele>157.60000610352</ele>
        <time>2019-08-17T10:05:35.000Z</time>
      </trkpt>
      <trkpt lat="45.88673" lon="4.73463">
        <ele>157.19999694824</ele>
        <time>2019-08-17T10:05:36.000Z</time>
      </trkpt>
      <trkpt lat="45.88679" lon="4.73452">
        <ele>156.80000305176</ele>
        <time>2019-08-17T10:05:37.000Z</time>
      </trkpt>
      <trkpt lat="45.88685" lon="4.73442">
        <ele>156.39999389648</ele>
        <time>2019-08-17T10:05:38.000Z</time>
      </trkpt>
      <trkpt lat="45.88691" lon="4.73432">
        <ele>155.80000305176</ele>
        <time>2019-08-17T10:05:39.000Z</time>
      </trkpt>
      <trkpt lat="45.88697" lon="4.73422">
        <ele>155.39999389648</ele>
        <time>2019-08-17T10:05:40.000Z</time>
      </trkpt>
      <trkpt lat="45.88702" lon="4.73413">
        <ele>155</ele>
        <time>2019-08-17T10:05:41.000Z</time>
      </trkpt>
      <trkpt lat="45.88715" lon="4.73395">
        <ele>155</ele>
        <time>2019-08-17T10:05:43.000Z</time>
      </trkpt>
      <trkpt lat="45.88744" lon="4.73358">
        <ele>154.60000610352</ele>
        <time>2019-08-17T10:05:48.000Z</time>
      </trkpt>
      <trkpt lat="45.8875" lon="4.73351">
        <ele>154.19999694824</ele>
        <time>2019-08-17T10:05:49.000Z</time>
      </trkpt>
      <trkpt lat="45.88755" lon="4.73344">
        <ele>153.80000305176</ele>
        <time>2019-08-17T10:05:50.000Z</time>
      </trkpt>
      <trkpt lat="45.8876" lon="4.73337">
        <ele>153.39999389648</ele>
        <time>2019-08-17T10:05:51.000Z</time>
      </trkpt>
      <trkpt lat="45.88764" lon="4.7333">
        <ele>153</ele>
        <time>2019-08-17T10:05:52.000Z</time>
      </trkpt>
      <trkpt lat="45.88768" lon="4.73323">
        <ele>153</ele>
        <time>2019-08-17T10:05:53.000Z</time>
      </trkpt>
      <trkpt lat="45.88771" lon="4.73316">
        <ele>153</ele>
        <time>2019-08-17T10:05:54.000Z</time>
      </trkpt>
      <trkpt lat="45.88773" lon="4.73309">
        <ele>153</ele>
        <time>2019-08-17T10:05:55.000Z</time>
      </trkpt>
      <trkpt lat="45.88781" lon="4.73278">
        <ele>153</ele>
        <time>2019-08-17T10:05:59.000Z</time>
      </trkpt>
      <trkpt lat="45.88785" lon="4.73255">
        <ele>153</ele>
        <time>2019-08-17T10:06:02.000Z</time>
      </trkpt>
      <trkpt lat="45.88787" lon="4.73229">
        <ele>153</ele>
        <time>2019-08-17T10:06:05.000Z</time>
      </trkpt>
      <trkpt lat="45.88785" lon="4.73172">
        <ele>153</ele>
        <time>2019-08-17T10:06:11.000Z</time>
      </trkpt>
      <trkpt lat="45.88781" lon="4.73111">
        <ele>153</ele>
        <time>2019-08-17T10:06:17.000Z</time>
      </trkpt>
      <trkpt lat="45.88776" lon="4.73035">
        <ele>153</ele>
        <time>2019-08-17T10:06:25.000Z</time>
      </trkpt>
      <trkpt lat="45.88771" lon="4.7295">
        <ele>153</ele>
        <time>2019-08-17T10:06:34.000Z</time>
      </trkpt>
      <trkpt lat="45.88765" lon="4.72875">
        <ele>153</ele>
        <time>2019-08-17T10:06:41.000Z</time>
      </trkpt>
      <trkpt lat="45.88762" lon="4.72795">
        <ele>153</ele>
        <time>2019-08-17T10:06:48.000Z</time>
      </trkpt>
      <trkpt lat="45.88756" lon="4.72732">
        <ele>153</ele>
        <time>2019-08-17T10:06:54.000Z</time>
      </trkpt>
      <trkpt lat="45.88749" lon="4.72651">
        <ele>153</ele>
        <time>2019-08-17T10:07:02.000Z</time>
      </trkpt>
      <trkpt lat="45.88748" lon="4.72642">
        <ele>153</ele>
        <time>2019-08-17T10:07:03.000Z</time>
      </trkpt>
      <trkpt lat="45.88742" lon="4.72577">
        <ele>153</ele>
        <time>2019-08-17T10:07:10.000Z</time>
      </trkpt>
      <trkpt lat="45.8873" lon="4.72522">
        <ele>153</ele>
        <time>2019-08-17T10:07:16.000Z</time>
      </trkpt>
      <trkpt lat="45.88725" lon="4.72481">
        <ele>153</ele>
        <time>2019-08-17T10:07:20.000Z</time>
      </trkpt>
      <trkpt lat="45.88726" lon="4.7247">
        <ele>153</ele>
        <time>2019-08-17T10:07:21.000Z</time>
      </trkpt>
      <trkpt lat="45.88738" lon="4.72432">
        <ele>153</ele>
        <time>2019-08-17T10:07:25.000Z</time>
      </trkpt>
      <trkpt lat="45.88747" lon="4.72415">
        <ele>153</ele>
        <time>2019-08-17T10:07:27.000Z</time>
      </trkpt>
      <trkpt lat="45.88764" lon="4.72382">
        <ele>153</ele>
        <time>2019-08-17T10:07:31.000Z</time>
      </trkpt>
      <trkpt lat="45.88795" lon="4.72312">
        <ele>153</ele>
        <time>2019-08-17T10:07:39.000Z</time>
      </trkpt>
      <trkpt lat="45.88808" lon="4.72251">
        <ele>153</ele>
        <time>2019-08-17T10:07:45.000Z</time>
      </trkpt>
      <trkpt lat="45.88822" lon="4.72166">
        <ele>153</ele>
        <time>2019-08-17T10:07:53.000Z</time>
      </trkpt>
      <trkpt lat="45.88824" lon="4.72155">
        <ele>153</ele>
        <time>2019-08-17T10:07:54.000Z</time>
      </trkpt>
      <trkpt lat="45.88838" lon="4.72072">
        <ele>153</ele>
        <time>2019-08-17T10:08:02.000Z</time>
      </trkpt>
      <trkpt lat="45.88853" lon="4.7199">
        <ele>153</ele>
        <time>2019-08-17T10:08:10.000Z</time>
      </trkpt>
      <trkpt lat="45.88873" lon="4.71924">
        <ele>153</ele>
        <time>2019-08-17T10:08:17.000Z</time>
      </trkpt>
      <trkpt lat="45.88896" lon="4.71859">
        <ele>153</ele>
        <time>2019-08-17T10:08:24.000Z</time>
      </trkpt>
      <trkpt lat="45.88923" lon="4.71783">
        <ele>153</ele>
        <time>2019-08-17T10:08:32.000Z</time>
      </trkpt>
      <trkpt lat="45.8895" lon="4.71711">
        <ele>153</ele>
        <time>2019-08-17T10:08:40.000Z</time>
      </trkpt>
      <trkpt lat="45.88972" lon="4.71669">
        <ele>153</ele>
        <time>2019-08-17T10:08:46.000Z</time>
      </trkpt>
      <trkpt lat="45.88976" lon="4.71662">
        <ele>153</ele>
        <time>2019-08-17T10:08:47.000Z</time>
      </trkpt>
      <trkpt lat="45.88983" lon="4.71637">
        <ele>153.39999389648</ele>
        <time>2019-08-17T10:08:50.000Z</time>
      </trkpt>
      <trkpt lat="45.88985" lon="4.71628">
        <ele>154</ele>
        <time>2019-08-17T10:08:51.000Z</time>
      </trkpt>
      <trkpt lat="45.88987" lon="4.71619">
        <ele>154.39999389648</ele>
        <time>2019-08-17T10:08:52.000Z</time>
      </trkpt>
      <trkpt lat="45.88988" lon="4.7161">
        <ele>154.80000305176</ele>
        <time>2019-08-17T10:08:53.000Z</time>
      </trkpt>
      <trkpt lat="45.8899" lon="4.71602">
        <ele>155.39999389648</ele>
        <time>2019-08-17T10:08:54.000Z</time>
      </trkpt>
      <trkpt lat="45.88996" lon="4.7157">
        <ele>155.39999389648</ele>
        <time>2019-08-17T10:08:58.000Z</time>
      </trkpt>
      <trkpt lat="45.88997" lon="4.71562">
        <ele>155.80000305176</ele>
        <time>2019-08-17T10:08:59.000Z</time>
      </trkpt>
      <trkpt lat="45.88999" lon="4.71554">
        <ele>156.19999694824</ele>
        <time>2019-08-17T10:09:00.000Z</time>
      </trkpt>
      <trkpt lat="45.89" lon="4.71546">
        <ele>156.60000610352</ele>
        <time>2019-08-17T10:09:01.000Z</time>
      </trkpt>
      <trkpt lat="45.89001" lon="4.71538">
        <ele>157</ele>
        <time>2019-08-17T10:09:02.000Z</time>
      </trkpt>
      <trkpt lat="45.89003" lon="4.7153">
        <ele>157.39999389648</ele>
        <time>2019-08-17T10:09:03.000Z</time>
      </trkpt>
      <trkpt lat="45.89004" lon="4.71522">
        <ele>157.39999389648</ele>
        <time>2019-08-17T10:09:04.000Z</time>
      </trkpt>
      <trkpt lat="45.89005" lon="4.71515">
        <ele>157.39999389648</ele>
        <time>2019-08-17T10:09:05.000Z</time>
      </trkpt>
      <trkpt lat="45.89006" lon="4.71507">
        <ele>157.80000305176</ele>
        <time>2019-08-17T10:09:06.000Z</time>
      </trkpt>
      <trkpt lat="45.89007" lon="4.71499">
        <ele>158.19999694824</ele>
        <time>2019-08-17T10:09:07.000Z</time>
      </trkpt>
      <trkpt lat="45.89008" lon="4.71492">
        <ele>158.60000610352</ele>
        <time>2019-08-17T10:09:08.000Z</time>
      </trkpt>
      <trkpt lat="45.89008" lon="4.71485">
        <ele>159</ele>
        <time>2019-08-17T10:09:09.000Z</time>
      </trkpt>
      <trkpt lat="45.89008" lon="4.71479">
        <ele>159.39999389648</ele>
        <time>2019-08-17T10:09:10.000Z</time>
      </trkpt>
      <trkpt lat="45.89009" lon="4.71472">
        <ele>159.39999389648</ele>
        <time>2019-08-17T10:09:11.000Z</time>
      </trkpt>
      <trkpt lat="45.89009" lon="4.71457">
        <ele>159.39999389648</ele>
        <time>2019-08-17T10:09:13.000Z</time>
      </trkpt>
      <trkpt lat="45.8901" lon="4.7145">
        <ele>160</ele>
        <time>2019-08-17T10:09:14.000Z</time>
      </trkpt>
      <trkpt lat="45.8901" lon="4.71442">
        <ele>160.39999389648</ele>
        <time>2019-08-17T10:09:15.000Z</time>
      </trkpt>
      <trkpt lat="45.8901" lon="4.71435">
        <ele>160.80000305176</ele>
        <time>2019-08-17T10:09:16.000Z</time>
      </trkpt>
      <trkpt lat="45.89011" lon="4.71428">
        <ele>161.19999694824</ele>
        <time>2019-08-17T10:09:17.000Z</time>
      </trkpt>
      <trkpt lat="45.89011" lon="4.71421">
        <ele>161.60000610352</ele>
        <time>2019-08-17T10:09:18.000Z</time>
      </trkpt>
      <trkpt lat="45.89012" lon="4.71406">
        <ele>162</ele>
        <time>2019-08-17T10:09:20.000Z</time>
      </trkpt>
      <trkpt lat="45.89012" lon="4.71399">
        <ele>162.39999389648</ele>
        <time>2019-08-17T10:09:21.000Z</time>
      </trkpt>
      <trkpt lat="45.89013" lon="4.71391">
        <ele>163</ele>
        <time>2019-08-17T10:09:22.000Z</time>
      </trkpt>
      <trkpt lat="45.89013" lon="4.71384">
        <ele>163.39999389648</ele>
        <time>2019-08-17T10:09:23.000Z</time>
      </trkpt>
      <trkpt lat="45.89013" lon="4.71377">
        <ele>163.80000305176</ele>
        <time>2019-08-17T10:09:24.000Z</time>
      </trkpt>
      <trkpt lat="45.89013" lon="4.7137">
        <ele>163.80000305176</ele>
        <time>2019-08-17T10:09:25.000Z</time>
      </trkpt>
      <trkpt lat="45.89015" lon="4.71317">
        <ele>163.80000305176</ele>
        <time>2019-08-17T10:09:32.000Z</time>
      </trkpt>
      <trkpt lat="45.89018" lon="4.71261">
        <ele>163.80000305176</ele>
        <time>2019-08-17T10:09:39.000Z</time>
      </trkpt>
      <trkpt lat="45.89019" lon="4.71245">
        <ele>164.19999694824</ele>
        <time>2019-08-17T10:09:41.000Z</time>
      </trkpt>
      <trkpt lat="45.89019" lon="4.71238">
        <ele>164.60000610352</ele>
        <time>2019-08-17T10:09:42.000Z</time>
      </trkpt>
      <trkpt lat="45.8902" lon="4.7123">
        <ele>165</ele>
        <time>2019-08-17T10:09:43.000Z</time>
      </trkpt>
      <trkpt lat="45.8902" lon="4.71222">
        <ele>165.80000305176</ele>
        <time>2019-08-17T10:09:44.000Z</time>
      </trkpt>
      <trkpt lat="45.89022" lon="4.71198">
        <ele>165.80000305176</ele>
        <time>2019-08-17T10:09:47.000Z</time>
      </trkpt>
      <trkpt lat="45.89023" lon="4.71191">
        <ele>165.80000305176</ele>
        <time>2019-08-17T10:09:48.000Z</time>
      </trkpt>
      <trkpt lat="45.89033" lon="4.7116">
        <ele>165.80000305176</ele>
        <time>2019-08-17T10:09:52.000Z</time>
      </trkpt>
      <trkpt lat="45.89053" lon="4.7114">
        <ele>166.19999694824</ele>
        <time>2019-08-17T10:09:56.000Z</time>
      </trkpt>
      <trkpt lat="45.89059" lon="4.71138">
        <ele>166.60000610352</ele>
        <time>2019-08-17T10:09:57.000Z</time>
      </trkpt>
      <trkpt lat="45.89065" lon="4.71136">
        <ele>167</ele>
        <time>2019-08-17T10:09:58.000Z</time>
      </trkpt>
      <trkpt lat="45.89071" lon="4.71134">
        <ele>167.39999389648</ele>
        <time>2019-08-17T10:09:59.000Z</time>
      </trkpt>
      <trkpt lat="45.89077" lon="4.71131">
        <ele>167.80000305176</ele>
        <time>2019-08-17T10:10:00.000Z</time>
      </trkpt>
      <trkpt lat="45.89122" lon="4.71113">
        <ele>167.80000305176</ele>
        <time>2019-08-17T10:10:07.000Z</time>
      </trkpt>
      <trkpt lat="45.89167" lon="4.71087">
        <ele>167.80000305176</ele>
        <time>2019-08-17T10:10:14.000Z</time>
      </trkpt>
      <trkpt lat="45.89219" lon="4.71053">
        <ele>167.80000305176</ele>
        <time>2019-08-17T10:10:22.000Z</time>
      </trkpt>
      <trkpt lat="45.89266" lon="4.71014">
        <ele>167.80000305176</ele>
        <time>2019-08-17T10:10:30.000Z</time>
      </trkpt>
      <trkpt lat="45.8927" lon="4.71007">
        <ele>168.19999694824</ele>
        <time>2019-08-17T10:10:31.000Z</time>
      </trkpt>
      <trkpt lat="45.89273" lon="4.71">
        <ele>168.60000610352</ele>
        <time>2019-08-17T10:10:32.000Z</time>
      </trkpt>
      <trkpt lat="45.89276" lon="4.70991">
        <ele>169.60000610352</ele>
        <time>2019-08-17T10:10:33.000Z</time>
      </trkpt>
      <trkpt lat="45.89277" lon="4.70982">
        <ele>170</ele>
        <time>2019-08-17T10:10:34.000Z</time>
      </trkpt>
      <trkpt lat="45.89279" lon="4.70947">
        <ele>170</ele>
        <time>2019-08-17T10:10:38.000Z</time>
      </trkpt>
      <trkpt lat="45.89281" lon="4.70939">
        <ele>170</ele>
        <time>2019-08-17T10:10:39.000Z</time>
      </trkpt>
      <trkpt lat="45.89284" lon="4.70925">
        <ele>170</ele>
        <time>2019-08-17T10:10:41.000Z</time>
      </trkpt>
      <trkpt lat="45.89292" lon="4.70913">
        <ele>170</ele>
        <time>2019-08-17T10:10:43.000Z</time>
      </trkpt>
      <trkpt lat="45.89311" lon="4.70898">
        <ele>170</ele>
        <time>2019-08-17T10:10:47.000Z</time>
      </trkpt>
      <trkpt lat="45.89316" lon="4.70896">
        <ele>170.39999389648</ele>
        <time>2019-08-17T10:10:48.000Z</time>
      </trkpt>
      <trkpt lat="45.89322" lon="4.70894">
        <ele>170.80000305176</ele>
        <time>2019-08-17T10:10:49.000Z</time>
      </trkpt>
      <trkpt lat="45.89328" lon="4.70891">
        <ele>171.19999694824</ele>
        <time>2019-08-17T10:10:50.000Z</time>
      </trkpt>
      <trkpt lat="45.89333" lon="4.70889">
        <ele>171.60000610352</ele>
        <time>2019-08-17T10:10:51.000Z</time>
      </trkpt>
      <trkpt lat="45.89339" lon="4.70887">
        <ele>172</ele>
        <time>2019-08-17T10:10:52.000Z</time>
      </trkpt>
      <trkpt lat="45.89386" lon="4.70864">
        <ele>172</ele>
        <time>2019-08-17T10:11:00.000Z</time>
      </trkpt>
      <trkpt lat="45.89432" lon="4.70835">
        <ele>172</ele>
        <time>2019-08-17T10:11:08.000Z</time>
      </trkpt>
      <trkpt lat="45.89442" lon="4.70825">
        <ele>172</ele>
        <time>2019-08-17T10:11:10.000Z</time>
      </trkpt>
      <trkpt lat="45.89451" lon="4.70814">
        <ele>172</ele>
        <time>2019-08-17T10:11:12.000Z</time>
      </trkpt>
      <trkpt lat="45.89455" lon="4.70807">
        <ele>172</ele>
        <time>2019-08-17T10:11:13.000Z</time>
      </trkpt>
      <trkpt lat="45.89484" lon="4.7075">
        <ele>172</ele>
        <time>2019-08-17T10:11:21.000Z</time>
      </trkpt>
      <trkpt lat="45.89509" lon="4.70714">
        <ele>172</ele>
        <time>2019-08-17T10:11:27.000Z</time>
      </trkpt>
      <trkpt lat="45.89514" lon="4.70708">
        <ele>172.39999389648</ele>
        <time>2019-08-17T10:11:28.000Z</time>
      </trkpt>
      <trkpt lat="45.89518" lon="4.70703">
        <ele>172.80000305176</ele>
        <time>2019-08-17T10:11:29.000Z</time>
      </trkpt>
      <trkpt lat="45.89523" lon="4.70697">
        <ele>173.19999694824</ele>
        <time>2019-08-17T10:11:30.000Z</time>
      </trkpt>
      <trkpt lat="45.89527" lon="4.70692">
        <ele>173.60000610352</ele>
        <time>2019-08-17T10:11:31.000Z</time>
      </trkpt>
      <trkpt lat="45.89531" lon="4.70686">
        <ele>174</ele>
        <time>2019-08-17T10:11:32.000Z</time>
      </trkpt>
      <trkpt lat="45.89542" lon="4.70667">
        <ele>174</ele>
        <time>2019-08-17T10:11:35.000Z</time>
      </trkpt>
      <trkpt lat="45.89558" lon="4.70626">
        <ele>174</ele>
        <time>2019-08-17T10:11:41.000Z</time>
      </trkpt>
      <trkpt lat="45.89575" lon="4.70586">
        <ele>174</ele>
        <time>2019-08-17T10:11:47.000Z</time>
      </trkpt>
      <trkpt lat="45.89581" lon="4.70573">
        <ele>174</ele>
        <time>2019-08-17T10:11:49.000Z</time>
      </trkpt>
      <trkpt lat="45.89596" lon="4.7055">
        <ele>174.39999389648</ele>
        <time>2019-08-17T10:11:53.000Z</time>
      </trkpt>
      <trkpt lat="45.896" lon="4.70545">
        <ele>174.80000305176</ele>
        <time>2019-08-17T10:11:54.000Z</time>
      </trkpt>
      <trkpt lat="45.89605" lon="4.70539">
        <ele>175.19999694824</ele>
        <time>2019-08-17T10:11:55.000Z</time>
      </trkpt>
      <trkpt lat="45.89609" lon="4.70535">
        <ele>175.60000610352</ele>
        <time>2019-08-17T10:11:56.000Z</time>
      </trkpt>
      <trkpt lat="45.89614" lon="4.70531">
        <ele>176</ele>
        <time>2019-08-17T10:11:57.000Z</time>
      </trkpt>
      <trkpt lat="45.89635" lon="4.7052">
        <ele>176</ele>
        <time>2019-08-17T10:12:01.000Z</time>
      </trkpt>
      <trkpt lat="45.89667" lon="4.705">
        <ele>176</ele>
        <time>2019-08-17T10:12:07.000Z</time>
      </trkpt>
      <trkpt lat="45.89675" lon="4.70489">
        <ele>176</ele>
        <time>2019-08-17T10:12:09.000Z</time>
      </trkpt>
      <trkpt lat="45.89681" lon="4.70467">
        <ele>176</ele>
        <time>2019-08-17T10:12:12.000Z</time>
      </trkpt>
      <trkpt lat="45.89682" lon="4.70451">
        <ele>176</ele>
        <time>2019-08-17T10:12:14.000Z</time>
      </trkpt>
      <trkpt lat="45.89687" lon="4.70403">
        <ele>176</ele>
        <time>2019-08-17T10:12:20.000Z</time>
      </trkpt>
      <trkpt lat="45.89688" lon="4.70395">
        <ele>176.39999389648</ele>
        <time>2019-08-17T10:12:21.000Z</time>
      </trkpt>
      <trkpt lat="45.8969" lon="4.70388">
        <ele>176.80000305176</ele>
        <time>2019-08-17T10:12:22.000Z</time>
      </trkpt>
      <trkpt lat="45.89691" lon="4.7038">
        <ele>177.39999389648</ele>
        <time>2019-08-17T10:12:23.000Z</time>
      </trkpt>
      <trkpt lat="45.89692" lon="4.70373">
        <ele>177.80000305176</ele>
        <time>2019-08-17T10:12:24.000Z</time>
      </trkpt>
      <trkpt lat="45.89693" lon="4.70365">
        <ele>178.19999694824</ele>
        <time>2019-08-17T10:12:25.000Z</time>
      </trkpt>
      <trkpt lat="45.89698" lon="4.70343">
        <ele>178.19999694824</ele>
        <time>2019-08-17T10:12:28.000Z</time>
      </trkpt>
      <trkpt lat="45.89711" lon="4.70293">
        <ele>178.19999694824</ele>
        <time>2019-08-17T10:12:35.000Z</time>
      </trkpt>
      <trkpt lat="45.89713" lon="4.70287">
        <ele>178.60000610352</ele>
        <time>2019-08-17T10:12:36.000Z</time>
      </trkpt>
      <trkpt lat="45.89715" lon="4.7028">
        <ele>179.39999389648</ele>
        <time>2019-08-17T10:12:37.000Z</time>
      </trkpt>
      <trkpt lat="45.89717" lon="4.70273">
        <ele>179.80000305176</ele>
        <time>2019-08-17T10:12:38.000Z</time>
      </trkpt>
      <trkpt lat="45.89719" lon="4.70266">
        <ele>180.19999694824</ele>
        <time>2019-08-17T10:12:39.000Z</time>
      </trkpt>
      <trkpt lat="45.89723" lon="4.70252">
        <ele>180.19999694824</ele>
        <time>2019-08-17T10:12:41.000Z</time>
      </trkpt>
      <trkpt lat="45.89727" lon="4.70239">
        <ele>180.19999694824</ele>
        <time>2019-08-17T10:12:43.000Z</time>
      </trkpt>
      <trkpt lat="45.8974" lon="4.70199">
        <ele>180.19999694824</ele>
        <time>2019-08-17T10:12:49.000Z</time>
      </trkpt>
      <trkpt lat="45.89743" lon="4.70185">
        <ele>180.60000610352</ele>
        <time>2019-08-17T10:12:51.000Z</time>
      </trkpt>
      <trkpt lat="45.89745" lon="4.70179">
        <ele>181</ele>
        <time>2019-08-17T10:12:52.000Z</time>
      </trkpt>
      <trkpt lat="45.89748" lon="4.70172">
        <ele>181.39999389648</ele>
        <time>2019-08-17T10:12:53.000Z</time>
      </trkpt>
      <trkpt lat="45.8975" lon="4.70165">
        <ele>181.80000305176</ele>
        <time>2019-08-17T10:12:54.000Z</time>
      </trkpt>
      <trkpt lat="45.89751" lon="4.70159">
        <ele>182.19999694824</ele>
        <time>2019-08-17T10:12:55.000Z</time>
      </trkpt>
      <trkpt lat="45.8976" lon="4.7013">
        <ele>182.19999694824</ele>
        <time>2019-08-17T10:13:01.000Z</time>
      </trkpt>
      <trkpt lat="45.89767" lon="4.70104">
        <ele>182.19999694824</ele>
        <time>2019-08-17T10:13:08.000Z</time>
      </trkpt>
      <trkpt lat="45.89772" lon="4.70086">
        <ele>182.19999694824</ele>
        <time>2019-08-17T10:13:16.000Z</time>
      </trkpt>
      <trkpt lat="45.89771" lon="4.70085">
        <ele>182.19999694824</ele>
        <time>2019-08-17T10:13:18.000Z</time>
      </trkpt>
      <trkpt lat="45.89772" lon="4.70084">
        <ele>182.19999694824</ele>
        <time>2019-08-17T10:13:48.000Z</time>
      </trkpt>
      <trkpt lat="45.89772" lon="4.70081">
        <ele>182.19999694824</ele>
        <time>2019-08-17T10:13:49.000Z</time>
      </trkpt>
      <trkpt lat="45.89774" lon="4.70075">
        <ele>183.19999694824</ele>
        <time>2019-08-17T10:13:51.000Z</time>
      </trkpt>
      <trkpt lat="45.89775" lon="4.70072">
        <ele>183.60000610352</ele>
        <time>2019-08-17T10:13:52.000Z</time>
      </trkpt>
      <trkpt lat="45.89777" lon="4.70069">
        <ele>184</ele>
        <time>2019-08-17T10:13:53.000Z</time>
      </trkpt>
      <trkpt lat="45.8978" lon="4.70067">
        <ele>184.39999389648</ele>
        <time>2019-08-17T10:13:54.000Z</time>
      </trkpt>
      <trkpt lat="45.89782" lon="4.70052">
        <ele>184.39999389648</ele>
        <time>2019-08-17T10:13:57.000Z</time>
      </trkpt>
      <trkpt lat="45.89783" lon="4.70026">
        <ele>184.39999389648</ele>
        <time>2019-08-17T10:14:01.000Z</time>
      </trkpt>
      <trkpt lat="45.89786" lon="4.69994">
        <ele>184.80000305176</ele>
        <time>2019-08-17T10:14:07.000Z</time>
      </trkpt>
      <trkpt lat="45.89787" lon="4.6999">
        <ele>185.19999694824</ele>
        <time>2019-08-17T10:14:08.000Z</time>
      </trkpt>
      <trkpt lat="45.89788" lon="4.69987">
        <ele>185.60000610352</ele>
        <time>2019-08-17T10:14:09.000Z</time>
      </trkpt>
      <trkpt lat="45.89788" lon="4.69984">
        <ele>186</ele>
        <time>2019-08-17T10:14:10.000Z</time>
      </trkpt>
      <trkpt lat="45.89788" lon="4.69981">
        <ele>186.39999389648</ele>
        <time>2019-08-17T10:14:11.000Z</time>
      </trkpt>
      <trkpt lat="45.89788" lon="4.69975">
        <ele>186.39999389648</ele>
        <time>2019-08-17T10:14:13.000Z</time>
      </trkpt>
      <trkpt lat="45.89787" lon="4.69959">
        <ele>186.39999389648</ele>
        <time>2019-08-17T10:14:18.000Z</time>
      </trkpt>
      <trkpt lat="45.89793" lon="4.69944">
        <ele>186.39999389648</ele>
        <time>2019-08-17T10:14:22.000Z</time>
      </trkpt>
      <trkpt lat="45.89798" lon="4.69915">
        <ele>186.39999389648</ele>
        <time>2019-08-17T10:14:28.000Z</time>
      </trkpt>
      <trkpt lat="45.89799" lon="4.6991">
        <ele>186.80000305176</ele>
        <time>2019-08-17T10:14:29.000Z</time>
      </trkpt>
      <trkpt lat="45.89799" lon="4.69904">
        <ele>187.19999694824</ele>
        <time>2019-08-17T10:14:30.000Z</time>
      </trkpt>
      <trkpt lat="45.898" lon="4.69899">
        <ele>187.60000610352</ele>
        <time>2019-08-17T10:14:31.000Z</time>
      </trkpt>
      <trkpt lat="45.898" lon="4.69894">
        <ele>188</ele>
        <time>2019-08-17T10:14:32.000Z</time>
      </trkpt>
      <trkpt lat="45.89801" lon="4.6989">
        <ele>188.60000610352</ele>
        <time>2019-08-17T10:14:33.000Z</time>
      </trkpt>
      <trkpt lat="45.89803" lon="4.69877">
        <ele>188.60000610352</ele>
        <time>2019-08-17T10:14:36.000Z</time>
      </trkpt>
      <trkpt lat="45.89808" lon="4.69849">
        <ele>188.60000610352</ele>
        <time>2019-08-17T10:14:42.000Z</time>
      </trkpt>
      <trkpt lat="45.89813" lon="4.69831">
        <ele>189</ele>
        <time>2019-08-17T10:14:46.000Z</time>
      </trkpt>
      <trkpt lat="45.89814" lon="4.69827">
        <ele>189.39999389648</ele>
        <time>2019-08-17T10:14:47.000Z</time>
      </trkpt>
      <trkpt lat="45.89815" lon="4.69822">
        <ele>189.80000305176</ele>
        <time>2019-08-17T10:14:48.000Z</time>
      </trkpt>
      <trkpt lat="45.89816" lon="4.69817">
        <ele>190.19999694824</ele>
        <time>2019-08-17T10:14:49.000Z</time>
      </trkpt>
      <trkpt lat="45.89817" lon="4.69813">
        <ele>190.60000610352</ele>
        <time>2019-08-17T10:14:50.000Z</time>
      </trkpt>
      <trkpt lat="45.89821" lon="4.69784">
        <ele>190.60000610352</ele>
        <time>2019-08-17T10:14:56.000Z</time>
      </trkpt>
      <trkpt lat="45.8982" lon="4.69753">
        <ele>190.60000610352</ele>
        <time>2019-08-17T10:15:02.000Z</time>
      </trkpt>
      <trkpt lat="45.89818" lon="4.69738">
        <ele>191.39999389648</ele>
        <time>2019-08-17T10:15:05.000Z</time>
      </trkpt>
      <trkpt lat="45.89817" lon="4.69734">
        <ele>192</ele>
        <time>2019-08-17T10:15:06.000Z</time>
      </trkpt>
      <trkpt lat="45.89815" lon="4.6973">
        <ele>192.39999389648</ele>
        <time>2019-08-17T10:15:07.000Z</time>
      </trkpt>
      <trkpt lat="45.89813" lon="4.69725">
        <ele>192.80000305176</ele>
        <time>2019-08-17T10:15:08.000Z</time>
      </trkpt>
      <trkpt lat="45.89809" lon="4.69708">
        <ele>192.80000305176</ele>
        <time>2019-08-17T10:15:12.000Z</time>
      </trkpt>
      <trkpt lat="45.89807" lon="4.69698">
        <ele>193.19999694824</ele>
        <time>2019-08-17T10:15:14.000Z</time>
      </trkpt>
      <trkpt lat="45.89807" lon="4.69694">
        <ele>193.60000610352</ele>
        <time>2019-08-17T10:15:15.000Z</time>
      </trkpt>
      <trkpt lat="45.89807" lon="4.69689">
        <ele>194.19999694824</ele>
        <time>2019-08-17T10:15:16.000Z</time>
      </trkpt>
      <trkpt lat="45.89807" lon="4.69685">
        <ele>194.60000610352</ele>
        <time>2019-08-17T10:15:17.000Z</time>
      </trkpt>
      <trkpt lat="45.89808" lon="4.69681">
        <ele>195</ele>
        <time>2019-08-17T10:15:18.000Z</time>
      </trkpt>
      <trkpt lat="45.8981" lon="4.69656">
        <ele>195</ele>
        <time>2019-08-17T10:15:24.000Z</time>
      </trkpt>
      <trkpt lat="45.89811" lon="4.69652">
        <ele>195.39999389648</ele>
        <time>2019-08-17T10:15:25.000Z</time>
      </trkpt>
      <trkpt lat="45.89812" lon="4.69648">
        <ele>195.80000305176</ele>
        <time>2019-08-17T10:15:26.000Z</time>
      </trkpt>
      <trkpt lat="45.89813" lon="4.69644">
        <ele>196.19999694824</ele>
        <time>2019-08-17T10:15:27.000Z</time>
      </trkpt>
      <trkpt lat="45.89814" lon="4.69641">
        <ele>196.60000610352</ele>
        <time>2019-08-17T10:15:28.000Z</time>
      </trkpt>
      <trkpt lat="45.89815" lon="4.69637">
        <ele>197.19999694824</ele>
        <time>2019-08-17T10:15:29.000Z</time>
      </trkpt>
      <trkpt lat="45.89816" lon="4.69634">
        <ele>197.19999694824</ele>
        <time>2019-08-17T10:15:30.000Z</time>
      </trkpt>
      <trkpt lat="45.8982" lon="4.69625">
        <ele>197.60000610352</ele>
        <time>2019-08-17T10:15:33.000Z</time>
      </trkpt>
      <trkpt lat="45.89821" lon="4.69622">
        <ele>198</ele>
        <time>2019-08-17T10:15:34.000Z</time>
      </trkpt>
      <trkpt lat="45.89823" lon="4.69618">
        <ele>198.39999389648</ele>
        <time>2019-08-17T10:15:35.000Z</time>
      </trkpt>
      <trkpt lat="45.89825" lon="4.69616">
        <ele>199</ele>
        <time>2019-08-17T10:15:36.000Z</time>
      </trkpt>
      <trkpt lat="45.89827" lon="4.69613">
        <ele>199.39999389648</ele>
        <time>2019-08-17T10:15:37.000Z</time>
      </trkpt>
      <trkpt lat="45.89834" lon="4.69604">
        <ele>199.39999389648</ele>
        <time>2019-08-17T10:15:41.000Z</time>
      </trkpt>
      <trkpt lat="45.89836" lon="4.69602">
        <ele>199.80000305176</ele>
        <time>2019-08-17T10:15:42.000Z</time>
      </trkpt>
      <trkpt lat="45.89838" lon="4.696">
        <ele>200.19999694824</ele>
        <time>2019-08-17T10:15:43.000Z</time>
      </trkpt>
      <trkpt lat="45.8984" lon="4.69597">
        <ele>200.60000610352</ele>
        <time>2019-08-17T10:15:44.000Z</time>
      </trkpt>
      <trkpt lat="45.89841" lon="4.69595">
        <ele>201</ele>
        <time>2019-08-17T10:15:45.000Z</time>
      </trkpt>
      <trkpt lat="45.89843" lon="4.69593">
        <ele>201.60000610352</ele>
        <time>2019-08-17T10:15:46.000Z</time>
      </trkpt>
      <trkpt lat="45.8985" lon="4.69584">
        <ele>202</ele>
        <time>2019-08-17T10:15:50.000Z</time>
      </trkpt>
      <trkpt lat="45.89852" lon="4.69582">
        <ele>202.39999389648</ele>
        <time>2019-08-17T10:15:51.000Z</time>
      </trkpt>
      <trkpt lat="45.89854" lon="4.69579">
        <ele>202.80000305176</ele>
        <time>2019-08-17T10:15:52.000Z</time>
      </trkpt>
      <trkpt lat="45.89855" lon="4.69576">
        <ele>203.19999694824</ele>
        <time>2019-08-17T10:15:53.000Z</time>
      </trkpt>
      <trkpt lat="45.89857" lon="4.69574">
        <ele>203.80000305176</ele>
        <time>2019-08-17T10:15:54.000Z</time>
      </trkpt>
      <trkpt lat="45.8986" lon="4.69568">
        <ele>203.80000305176</ele>
        <time>2019-08-17T10:15:56.000Z</time>
      </trkpt>
      <trkpt lat="45.89863" lon="4.69562">
        <ele>204.19999694824</ele>
        <time>2019-08-17T10:15:58.000Z</time>
      </trkpt>
      <trkpt lat="45.89865" lon="4.6956">
        <ele>204.60000610352</ele>
        <time>2019-08-17T10:15:59.000Z</time>
      </trkpt>
      <trkpt lat="45.89866" lon="4.69557">
        <ele>205.19999694824</ele>
        <time>2019-08-17T10:16:00.000Z</time>
      </trkpt>
      <trkpt lat="45.89867" lon="4.69555">
        <ele>205.60000610352</ele>
        <time>2019-08-17T10:16:01.000Z</time>
      </trkpt>
      <trkpt lat="45.89868" lon="4.69552">
        <ele>206</ele>
        <time>2019-08-17T10:16:02.000Z</time>
      </trkpt>
      <trkpt lat="45.8987" lon="4.69549">
        <ele>206</ele>
        <time>2019-08-17T10:16:03.000Z</time>
      </trkpt>
      <trkpt lat="45.89873" lon="4.69545">
        <ele>206.39999389648</ele>
        <time>2019-08-17T10:16:05.000Z</time>
      </trkpt>
      <trkpt lat="45.89874" lon="4.69542">
        <ele>206.80000305176</ele>
        <time>2019-08-17T10:16:06.000Z</time>
      </trkpt>
      <trkpt lat="45.89876" lon="4.6954">
        <ele>207.19999694824</ele>
        <time>2019-08-17T10:16:07.000Z</time>
      </trkpt>
      <trkpt lat="45.89877" lon="4.69538">
        <ele>207.60000610352</ele>
        <time>2019-08-17T10:16:08.000Z</time>
      </trkpt>
      <trkpt lat="45.89879" lon="4.69535">
        <ele>208</ele>
        <time>2019-08-17T10:16:09.000Z</time>
      </trkpt>
      <trkpt lat="45.89882" lon="4.6953">
        <ele>208.39999389648</ele>
        <time>2019-08-17T10:16:11.000Z</time>
      </trkpt>
      <trkpt lat="45.89884" lon="4.69528">
        <ele>208.80000305176</ele>
        <time>2019-08-17T10:16:12.000Z</time>
      </trkpt>
      <trkpt lat="45.89886" lon="4.69526">
        <ele>209.39999389648</ele>
        <time>2019-08-17T10:16:13.000Z</time>
      </trkpt>
      <trkpt lat="45.89887" lon="4.69523">
        <ele>209.80000305176</ele>
        <time>2019-08-17T10:16:14.000Z</time>
      </trkpt>
      <trkpt lat="45.89888" lon="4.6952">
        <ele>210.19999694824</ele>
        <time>2019-08-17T10:16:15.000Z</time>
      </trkpt>
      <trkpt lat="45.89893" lon="4.69514">
        <ele>210.19999694824</ele>
        <time>2019-08-17T10:16:18.000Z</time>
      </trkpt>
      <trkpt lat="45.89895" lon="4.69512">
        <ele>211</ele>
        <time>2019-08-17T10:16:19.000Z</time>
      </trkpt>
      <trkpt lat="45.89896" lon="4.69509">
        <ele>211.39999389648</ele>
        <time>2019-08-17T10:16:20.000Z</time>
      </trkpt>
      <trkpt lat="45.89898" lon="4.69507">
        <ele>211.80000305176</ele>
        <time>2019-08-17T10:16:21.000Z</time>
      </trkpt>
      <trkpt lat="45.89899" lon="4.69505">
        <ele>212.39999389648</ele>
        <time>2019-08-17T10:16:22.000Z</time>
      </trkpt>
      <trkpt lat="45.89905" lon="4.69499">
        <ele>212.80000305176</ele>
        <time>2019-08-17T10:16:25.000Z</time>
      </trkpt>
      <trkpt lat="45.89907" lon="4.69496">
        <ele>213.19999694824</ele>
        <time>2019-08-17T10:16:26.000Z</time>
      </trkpt>
      <trkpt lat="45.89908" lon="4.69494">
        <ele>213.60000610352</ele>
        <time>2019-08-17T10:16:27.000Z</time>
      </trkpt>
      <trkpt lat="45.8991" lon="4.69491">
        <ele>214</ele>
        <time>2019-08-17T10:16:28.000Z</time>
      </trkpt>
      <trkpt lat="45.89912" lon="4.69489">
        <ele>214.60000610352</ele>
        <time>2019-08-17T10:16:29.000Z</time>
      </trkpt>
      <trkpt lat="45.89916" lon="4.69482">
        <ele>215</ele>
        <time>2019-08-17T10:16:32.000Z</time>
      </trkpt>
      <trkpt lat="45.89918" lon="4.6948">
        <ele>215.39999389648</ele>
        <time>2019-08-17T10:16:33.000Z</time>
      </trkpt>
      <trkpt lat="45.8992" lon="4.69478">
        <ele>215.80000305176</ele>
        <time>2019-08-17T10:16:34.000Z</time>
      </trkpt>
      <trkpt lat="45.89922" lon="4.69475">
        <ele>216.39999389648</ele>
        <time>2019-08-17T10:16:35.000Z</time>
      </trkpt>
      <trkpt lat="45.89924" lon="4.69472">
        <ele>216.80000305176</ele>
        <time>2019-08-17T10:16:36.000Z</time>
      </trkpt>
      <trkpt lat="45.89928" lon="4.69466">
        <ele>217.19999694824</ele>
        <time>2019-08-17T10:16:38.000Z</time>
      </trkpt>
      <trkpt lat="45.89929" lon="4.69462">
        <ele>217.60000610352</ele>
        <time>2019-08-17T10:16:39.000Z</time>
      </trkpt>
      <trkpt lat="45.89931" lon="4.69459">
        <ele>218</ele>
        <time>2019-08-17T10:16:40.000Z</time>
      </trkpt>
      <trkpt lat="45.89932" lon="4.69455">
        <ele>218.39999389648</ele>
        <time>2019-08-17T10:16:41.000Z</time>
      </trkpt>
      <trkpt lat="45.89934" lon="4.69452">
        <ele>218.80000305176</ele>
        <time>2019-08-17T10:16:42.000Z</time>
      </trkpt>
      <trkpt lat="45.89937" lon="4.6944">
        <ele>218.80000305176</ele>
        <time>2019-08-17T10:16:45.000Z</time>
      </trkpt>
      <trkpt lat="45.8994" lon="4.69434">
        <ele>219.19999694824</ele>
        <time>2019-08-17T10:16:47.000Z</time>
      </trkpt>
      <trkpt lat="45.89941" lon="4.6943">
        <ele>219.60000610352</ele>
        <time>2019-08-17T10:16:48.000Z</time>
      </trkpt>
      <trkpt lat="45.89942" lon="4.69426">
        <ele>220</ele>
        <time>2019-08-17T10:16:49.000Z</time>
      </trkpt>
      <trkpt lat="45.89943" lon="4.69422">
        <ele>220.39999389648</ele>
        <time>2019-08-17T10:16:50.000Z</time>
      </trkpt>
      <trkpt lat="45.89945" lon="4.69418">
        <ele>221</ele>
        <time>2019-08-17T10:16:51.000Z</time>
      </trkpt>
      <trkpt lat="45.8995" lon="4.69398">
        <ele>221.39999389648</ele>
        <time>2019-08-17T10:16:57.000Z</time>
      </trkpt>
      <trkpt lat="45.8995" lon="4.69394">
        <ele>221.80000305176</ele>
        <time>2019-08-17T10:16:58.000Z</time>
      </trkpt>
      <trkpt lat="45.89951" lon="4.69391">
        <ele>222.19999694824</ele>
        <time>2019-08-17T10:16:59.000Z</time>
      </trkpt>
      <trkpt lat="45.89951" lon="4.69388">
        <ele>222.60000610352</ele>
        <time>2019-08-17T10:17:00.000Z</time>
      </trkpt>
      <trkpt lat="45.8995" lon="4.69384">
        <ele>223</ele>
        <time>2019-08-17T10:17:01.000Z</time>
      </trkpt>
      <trkpt lat="45.8995" lon="4.69371">
        <ele>223</ele>
        <time>2019-08-17T10:17:04.000Z</time>
      </trkpt>
      <trkpt lat="45.89949" lon="4.69355">
        <ele>223.39999389648</ele>
        <time>2019-08-17T10:17:08.000Z</time>
      </trkpt>
      <trkpt lat="45.89949" lon="4.69351">
        <ele>223.80000305176</ele>
        <time>2019-08-17T10:17:09.000Z</time>
      </trkpt>
      <trkpt lat="45.89949" lon="4.69347">
        <ele>224.19999694824</ele>
        <time>2019-08-17T10:17:10.000Z</time>
      </trkpt>
      <trkpt lat="45.89949" lon="4.69343">
        <ele>224.60000610352</ele>
        <time>2019-08-17T10:17:11.000Z</time>
      </trkpt>
      <trkpt lat="45.8995" lon="4.69339">
        <ele>225</ele>
        <time>2019-08-17T10:17:12.000Z</time>
      </trkpt>
      <trkpt lat="45.89949" lon="4.69335">
        <ele>225</ele>
        <time>2019-08-17T10:17:13.000Z</time>
      </trkpt>
      <trkpt lat="45.8995" lon="4.69312">
        <ele>225.39999389648</ele>
        <time>2019-08-17T10:17:19.000Z</time>
      </trkpt>
      <trkpt lat="45.8995" lon="4.69308">
        <ele>225.80000305176</ele>
        <time>2019-08-17T10:17:20.000Z</time>
      </trkpt>
      <trkpt lat="45.8995" lon="4.69304">
        <ele>226.19999694824</ele>
        <time>2019-08-17T10:17:21.000Z</time>
      </trkpt>
      <trkpt lat="45.8995" lon="4.693">
        <ele>226.80000305176</ele>
        <time>2019-08-17T10:17:22.000Z</time>
      </trkpt>
      <trkpt lat="45.8995" lon="4.69296">
        <ele>227.19999694824</ele>
        <time>2019-08-17T10:17:23.000Z</time>
      </trkpt>
      <trkpt lat="45.89952" lon="4.69275">
        <ele>227.60000610352</ele>
        <time>2019-08-17T10:17:28.000Z</time>
      </trkpt>
      <trkpt lat="45.89952" lon="4.69271">
        <ele>228</ele>
        <time>2019-08-17T10:17:29.000Z</time>
      </trkpt>
      <trkpt lat="45.89953" lon="4.69267">
        <ele>228.39999389648</ele>
        <time>2019-08-17T10:17:30.000Z</time>
      </trkpt>
      <trkpt lat="45.89953" lon="4.69263">
        <ele>228.80000305176</ele>
        <time>2019-08-17T10:17:31.000Z</time>
      </trkpt>
      <trkpt lat="45.89953" lon="4.69258">
        <ele>229.19999694824</ele>
        <time>2019-08-17T10:17:32.000Z</time>
      </trkpt>
      <trkpt lat="45.89955" lon="4.6924">
        <ele>229.19999694824</ele>
        <time>2019-08-17T10:17:36.000Z</time>
      </trkpt>
      <trkpt lat="45.89955" lon="4.69235">
        <ele>229.60000610352</ele>
        <time>2019-08-17T10:17:37.000Z</time>
      </trkpt>
      <trkpt lat="45.89956" lon="4.69231">
        <ele>230.19999694824</ele>
        <time>2019-08-17T10:17:38.000Z</time>
      </trkpt>
      <trkpt lat="45.89957" lon="4.69226">
        <ele>230.60000610352</ele>
        <time>2019-08-17T10:17:39.000Z</time>
      </trkpt>
      <trkpt lat="45.89957" lon="4.69222">
        <ele>231</ele>
        <time>2019-08-17T10:17:40.000Z</time>
      </trkpt>
      <trkpt lat="45.89958" lon="4.69216">
        <ele>231.60000610352</ele>
        <time>2019-08-17T10:17:41.000Z</time>
      </trkpt>
      <trkpt lat="45.89959" lon="4.69206">
        <ele>231.60000610352</ele>
        <time>2019-08-17T10:17:43.000Z</time>
      </trkpt>
      <trkpt lat="45.89962" lon="4.69186">
        <ele>232</ele>
        <time>2019-08-17T10:17:47.000Z</time>
      </trkpt>
      <trkpt lat="45.89962" lon="4.69181">
        <ele>232.39999389648</ele>
        <time>2019-08-17T10:17:48.000Z</time>
      </trkpt>
      <trkpt lat="45.89963" lon="4.69176">
        <ele>232.80000305176</ele>
        <time>2019-08-17T10:17:49.000Z</time>
      </trkpt>
      <trkpt lat="45.89964" lon="4.69171">
        <ele>233.19999694824</ele>
        <time>2019-08-17T10:17:50.000Z</time>
      </trkpt>
      <trkpt lat="45.89964" lon="4.69166">
        <ele>233.60000610352</ele>
        <time>2019-08-17T10:17:51.000Z</time>
      </trkpt>
      <trkpt lat="45.89965" lon="4.69147">
        <ele>234</ele>
        <time>2019-08-17T10:17:55.000Z</time>
      </trkpt>
      <trkpt lat="45.89965" lon="4.69141">
        <ele>234.39999389648</ele>
        <time>2019-08-17T10:17:56.000Z</time>
      </trkpt>
      <trkpt lat="45.89965" lon="4.69137">
        <ele>234.80000305176</ele>
        <time>2019-08-17T10:17:57.000Z</time>
      </trkpt>
      <trkpt lat="45.89965" lon="4.69132">
        <ele>235.80000305176</ele>
        <time>2019-08-17T10:17:58.000Z</time>
      </trkpt>
      <trkpt lat="45.89967" lon="4.69107">
        <ele>236.19999694824</ele>
        <time>2019-08-17T10:18:03.000Z</time>
      </trkpt>
      <trkpt lat="45.89967" lon="4.69102">
        <ele>236.60000610352</ele>
        <time>2019-08-17T10:18:04.000Z</time>
      </trkpt>
      <trkpt lat="45.89967" lon="4.69098">
        <ele>237</ele>
        <time>2019-08-17T10:18:05.000Z</time>
      </trkpt>
      <trkpt lat="45.89967" lon="4.69094">
        <ele>237.39999389648</ele>
        <time>2019-08-17T10:18:06.000Z</time>
      </trkpt>
      <trkpt lat="45.89967" lon="4.69089">
        <ele>237.80000305176</ele>
        <time>2019-08-17T10:18:07.000Z</time>
      </trkpt>
      <trkpt lat="45.89965" lon="4.69075">
        <ele>237.80000305176</ele>
        <time>2019-08-17T10:18:10.000Z</time>
      </trkpt>
      <trkpt lat="45.89965" lon="4.69061">
        <ele>238.19999694824</ele>
        <time>2019-08-17T10:18:13.000Z</time>
      </trkpt>
      <trkpt lat="45.89965" lon="4.69057">
        <ele>238.80000305176</ele>
        <time>2019-08-17T10:18:14.000Z</time>
      </trkpt>
      <trkpt lat="45.89965" lon="4.69052">
        <ele>239.19999694824</ele>
        <time>2019-08-17T10:18:15.000Z</time>
      </trkpt>
      <trkpt lat="45.89964" lon="4.69047">
        <ele>239.60000610352</ele>
        <time>2019-08-17T10:18:16.000Z</time>
      </trkpt>
      <trkpt lat="45.89964" lon="4.69043">
        <ele>240</ele>
        <time>2019-08-17T10:18:17.000Z</time>
      </trkpt>
      <trkpt lat="45.89962" lon="4.69022">
        <ele>240.39999389648</ele>
        <time>2019-08-17T10:18:22.000Z</time>
      </trkpt>
      <trkpt lat="45.89962" lon="4.69017">
        <ele>241</ele>
        <time>2019-08-17T10:18:23.000Z</time>
      </trkpt>
      <trkpt lat="45.89962" lon="4.69013">
        <ele>241.39999389648</ele>
        <time>2019-08-17T10:18:24.000Z</time>
      </trkpt>
      <trkpt lat="45.89962" lon="4.69007">
        <ele>241.80000305176</ele>
        <time>2019-08-17T10:18:25.000Z</time>
      </trkpt>
      <trkpt lat="45.89963" lon="4.69003">
        <ele>242.39999389648</ele>
        <time>2019-08-17T10:18:26.000Z</time>
      </trkpt>
      <trkpt lat="45.89963" lon="4.68998">
        <ele>242.39999389648</ele>
        <time>2019-08-17T10:18:27.000Z</time>
      </trkpt>
      <trkpt lat="45.89962" lon="4.68984">
        <ele>242.39999389648</ele>
        <time>2019-08-17T10:18:30.000Z</time>
      </trkpt>
      <trkpt lat="45.89962" lon="4.68979">
        <ele>242.80000305176</ele>
        <time>2019-08-17T10:18:31.000Z</time>
      </trkpt>
      <trkpt lat="45.89963" lon="4.68974">
        <ele>243.19999694824</ele>
        <time>2019-08-17T10:18:32.000Z</time>
      </trkpt>
      <trkpt lat="45.89964" lon="4.68969">
        <ele>243.60000610352</ele>
        <time>2019-08-17T10:18:33.000Z</time>
      </trkpt>
      <trkpt lat="45.89964" lon="4.68964">
        <ele>244</ele>
        <time>2019-08-17T10:18:34.000Z</time>
      </trkpt>
      <trkpt lat="45.89965" lon="4.68959">
        <ele>244.39999389648</ele>
        <time>2019-08-17T10:18:35.000Z</time>
      </trkpt>
      <trkpt lat="45.89966" lon="4.68934">
        <ele>244.80000305176</ele>
        <time>2019-08-17T10:18:40.000Z</time>
      </trkpt>
      <trkpt lat="45.89966" lon="4.68929">
        <ele>245.19999694824</ele>
        <time>2019-08-17T10:18:41.000Z</time>
      </trkpt>
      <trkpt lat="45.89966" lon="4.68923">
        <ele>245.60000610352</ele>
        <time>2019-08-17T10:18:42.000Z</time>
      </trkpt>
      <trkpt lat="45.89967" lon="4.68919">
        <ele>246</ele>
        <time>2019-08-17T10:18:43.000Z</time>
      </trkpt>
      <trkpt lat="45.89967" lon="4.68914">
        <ele>246.60000610352</ele>
        <time>2019-08-17T10:18:44.000Z</time>
      </trkpt>
      <trkpt lat="45.89964" lon="4.68897">
        <ele>247</ele>
        <time>2019-08-17T10:18:48.000Z</time>
      </trkpt>
      <trkpt lat="45.89963" lon="4.68894">
        <ele>247.39999389648</ele>
        <time>2019-08-17T10:18:49.000Z</time>
      </trkpt>
      <trkpt lat="45.89962" lon="4.68891">
        <ele>247.80000305176</ele>
        <time>2019-08-17T10:18:50.000Z</time>
      </trkpt>
      <trkpt lat="45.89962" lon="4.68889">
        <ele>248.19999694824</ele>
        <time>2019-08-17T10:18:51.000Z</time>
      </trkpt>
      <trkpt lat="45.89962" lon="4.68886">
        <ele>248.60000610352</ele>
        <time>2019-08-17T10:18:52.000Z</time>
      </trkpt>
      <trkpt lat="45.89961" lon="4.68884">
        <ele>248.60000610352</ele>
        <time>2019-08-17T10:18:53.000Z</time>
      </trkpt>
      <trkpt lat="45.89961" lon="4.68884">
        <ele>248.60000610352</ele>
        <time>2019-08-17T10:18:56.000Z</time>
      </trkpt>
      <trkpt lat="45.89961" lon="4.68883">
        <ele>248.60000610352</ele>
        <time>2019-08-17T10:19:10.000Z</time>
      </trkpt>
      <trkpt lat="45.89953" lon="4.68878">
        <ele>248.60000610352</ele>
        <time>2019-08-17T10:19:14.000Z</time>
      </trkpt>
      <trkpt lat="45.89946" lon="4.68864">
        <ele>248.60000610352</ele>
        <time>2019-08-17T10:19:18.000Z</time>
      </trkpt>
      <trkpt lat="45.89937" lon="4.6883">
        <ele>248.60000610352</ele>
        <time>2019-08-17T10:19:26.000Z</time>
      </trkpt>
      <trkpt lat="45.89935" lon="4.68815">
        <ele>248.60000610352</ele>
        <time>2019-08-17T10:19:29.000Z</time>
      </trkpt>
      <trkpt lat="45.89934" lon="4.688">
        <ele>248.60000610352</ele>
        <time>2019-08-17T10:19:32.000Z</time>
      </trkpt>
      <trkpt lat="45.89935" lon="4.68778">
        <ele>249</ele>
        <time>2019-08-17T10:19:37.000Z</time>
      </trkpt>
      <trkpt lat="45.89936" lon="4.68774">
        <ele>249.39999389648</ele>
        <time>2019-08-17T10:19:38.000Z</time>
      </trkpt>
      <trkpt lat="45.89936" lon="4.68771">
        <ele>249.80000305176</ele>
        <time>2019-08-17T10:19:39.000Z</time>
      </trkpt>
      <trkpt lat="45.89936" lon="4.68768">
        <ele>250.19999694824</ele>
        <time>2019-08-17T10:19:40.000Z</time>
      </trkpt>
      <trkpt lat="45.89936" lon="4.68765">
        <ele>250.60000610352</ele>
        <time>2019-08-17T10:19:41.000Z</time>
      </trkpt>
      <trkpt lat="45.89939" lon="4.68747">
        <ele>250.60000610352</ele>
        <time>2019-08-17T10:19:46.000Z</time>
      </trkpt>
      <trkpt lat="45.8994" lon="4.68738">
        <ele>251</ele>
        <time>2019-08-17T10:19:48.000Z</time>
      </trkpt>
      <trkpt lat="45.8994" lon="4.68734">
        <ele>251.39999389648</ele>
        <time>2019-08-17T10:19:49.000Z</time>
      </trkpt>
      <trkpt lat="45.8994" lon="4.6873">
        <ele>252</ele>
        <time>2019-08-17T10:19:50.000Z</time>
      </trkpt>
      <trkpt lat="45.89941" lon="4.68726">
        <ele>252.39999389648</ele>
        <time>2019-08-17T10:19:51.000Z</time>
      </trkpt>
      <trkpt lat="45.89942" lon="4.68721">
        <ele>252.80000305176</ele>
        <time>2019-08-17T10:19:52.000Z</time>
      </trkpt>
      <trkpt lat="45.89944" lon="4.68705">
        <ele>253.19999694824</ele>
        <time>2019-08-17T10:19:56.000Z</time>
      </trkpt>
      <trkpt lat="45.89944" lon="4.687">
        <ele>253.60000610352</ele>
        <time>2019-08-17T10:19:57.000Z</time>
      </trkpt>
      <trkpt lat="45.89945" lon="4.68698">
        <ele>254.19999694824</ele>
        <time>2019-08-17T10:19:58.000Z</time>
      </trkpt>
      <trkpt lat="45.89945" lon="4.68695">
        <ele>254.60000610352</ele>
        <time>2019-08-17T10:19:59.000Z</time>
      </trkpt>
      <trkpt lat="45.89946" lon="4.68691">
        <ele>255</ele>
        <time>2019-08-17T10:20:00.000Z</time>
      </trkpt>
      <trkpt lat="45.89946" lon="4.68676">
        <ele>255.39999389648</ele>
        <time>2019-08-17T10:20:05.000Z</time>
      </trkpt>
      <trkpt lat="45.89947" lon="4.68672">
        <ele>255.80000305176</ele>
        <time>2019-08-17T10:20:06.000Z</time>
      </trkpt>
      <trkpt lat="45.89947" lon="4.68671">
        <ele>256.39999389648</ele>
        <time>2019-08-17T10:20:07.000Z</time>
      </trkpt>
      <trkpt lat="45.89947" lon="4.68669">
        <ele>256.79998779297</ele>
        <time>2019-08-17T10:20:08.000Z</time>
      </trkpt>
      <trkpt lat="45.89948" lon="4.68667">
        <ele>257.20001220703</ele>
        <time>2019-08-17T10:20:09.000Z</time>
      </trkpt>
      <trkpt lat="45.89948" lon="4.68666">
        <ele>257.20001220703</ele>
        <time>2019-08-17T10:20:10.000Z</time>
      </trkpt>
      <trkpt lat="45.89949" lon="4.68646">
        <ele>257.20001220703</ele>
        <time>2019-08-17T10:20:16.000Z</time>
      </trkpt>
      <trkpt lat="45.89949" lon="4.6864">
        <ele>257.60000610352</ele>
        <time>2019-08-17T10:20:18.000Z</time>
      </trkpt>
      <trkpt lat="45.89948" lon="4.68637">
        <ele>258.20001220703</ele>
        <time>2019-08-17T10:20:19.000Z</time>
      </trkpt>
      <trkpt lat="45.89949" lon="4.68633">
        <ele>258.60000610352</ele>
        <time>2019-08-17T10:20:20.000Z</time>
      </trkpt>
      <trkpt lat="45.89949" lon="4.6863">
        <ele>259</ele>
        <time>2019-08-17T10:20:21.000Z</time>
      </trkpt>
      <trkpt lat="45.89949" lon="4.68628">
        <ele>259.39999389648</ele>
        <time>2019-08-17T10:20:22.000Z</time>
      </trkpt>
      <trkpt lat="45.89951" lon="4.68611">
        <ele>259.39999389648</ele>
        <time>2019-08-17T10:20:28.000Z</time>
      </trkpt>
      <trkpt lat="45.89951" lon="4.68599">
        <ele>259.79998779297</ele>
        <time>2019-08-17T10:20:32.000Z</time>
      </trkpt>
      <trkpt lat="45.89951" lon="4.68595">
        <ele>260.20001220703</ele>
        <time>2019-08-17T10:20:33.000Z</time>
      </trkpt>
      <trkpt lat="45.89951" lon="4.68593">
        <ele>260.60000610352</ele>
        <time>2019-08-17T10:20:34.000Z</time>
      </trkpt>
      <trkpt lat="45.89952" lon="4.68588">
        <ele>261</ele>
        <time>2019-08-17T10:20:35.000Z</time>
      </trkpt>
      <trkpt lat="45.89953" lon="4.68585">
        <ele>261.39999389648</ele>
        <time>2019-08-17T10:20:36.000Z</time>
      </trkpt>
      <trkpt lat="45.89954" lon="4.6857">
        <ele>261.39999389648</ele>
        <time>2019-08-17T10:20:40.000Z</time>
      </trkpt>
      <trkpt lat="45.89958" lon="4.6854">
        <ele>261.39999389648</ele>
        <time>2019-08-17T10:20:48.000Z</time>
      </trkpt>
      <trkpt lat="45.89958" lon="4.68533">
        <ele>261.79998779297</ele>
        <time>2019-08-17T10:20:50.000Z</time>
      </trkpt>
      <trkpt lat="45.89958" lon="4.68529">
        <ele>262.79998779297</ele>
        <time>2019-08-17T10:20:51.000Z</time>
      </trkpt>
      <trkpt lat="45.89958" lon="4.68526">
        <ele>263.20001220703</ele>
        <time>2019-08-17T10:20:52.000Z</time>
      </trkpt>
      <trkpt lat="45.89959" lon="4.68522">
        <ele>263.60000610352</ele>
        <time>2019-08-17T10:20:53.000Z</time>
      </trkpt>
      <trkpt lat="45.89959" lon="4.68509">
        <ele>263.60000610352</ele>
        <time>2019-08-17T10:20:57.000Z</time>
      </trkpt>
      <trkpt lat="45.89958" lon="4.68495">
        <ele>264</ele>
        <time>2019-08-17T10:21:01.000Z</time>
      </trkpt>
      <trkpt lat="45.89958" lon="4.68492">
        <ele>264.39999389648</ele>
        <time>2019-08-17T10:21:02.000Z</time>
      </trkpt>
      <trkpt lat="45.89958" lon="4.68489">
        <ele>265</ele>
        <time>2019-08-17T10:21:03.000Z</time>
      </trkpt>
      <trkpt lat="45.89958" lon="4.68486">
        <ele>265.39999389648</ele>
        <time>2019-08-17T10:21:04.000Z</time>
      </trkpt>
      <trkpt lat="45.89957" lon="4.68483">
        <ele>265.79998779297</ele>
        <time>2019-08-17T10:21:05.000Z</time>
      </trkpt>
      <trkpt lat="45.89954" lon="4.68464">
        <ele>266.20001220703</ele>
        <time>2019-08-17T10:21:11.000Z</time>
      </trkpt>
      <trkpt lat="45.89953" lon="4.68461">
        <ele>266.60000610352</ele>
        <time>2019-08-17T10:21:12.000Z</time>
      </trkpt>
      <trkpt lat="45.89952" lon="4.68458">
        <ele>267</ele>
        <time>2019-08-17T10:21:13.000Z</time>
      </trkpt>
      <trkpt lat="45.89951" lon="4.68456">
        <ele>267.39999389648</ele>
        <time>2019-08-17T10:21:14.000Z</time>
      </trkpt>
      <trkpt lat="45.8995" lon="4.68454">
        <ele>267.79998779297</ele>
        <time>2019-08-17T10:21:15.000Z</time>
      </trkpt>
      <trkpt lat="45.89949" lon="4.68452">
        <ele>267.79998779297</ele>
        <time>2019-08-17T10:21:16.000Z</time>
      </trkpt>
      <trkpt lat="45.89942" lon="4.68442">
        <ele>268.20001220703</ele>
        <time>2019-08-17T10:21:20.000Z</time>
      </trkpt>
      <trkpt lat="45.89941" lon="4.68439">
        <ele>268.60000610352</ele>
        <time>2019-08-17T10:21:21.000Z</time>
      </trkpt>
      <trkpt lat="45.89939" lon="4.68437">
        <ele>269</ele>
        <time>2019-08-17T10:21:22.000Z</time>
      </trkpt>
      <trkpt lat="45.89937" lon="4.68434">
        <ele>269.39999389648</ele>
        <time>2019-08-17T10:21:23.000Z</time>
      </trkpt>
      <trkpt lat="45.89936" lon="4.68432">
        <ele>270</ele>
        <time>2019-08-17T10:21:24.000Z</time>
      </trkpt>
      <trkpt lat="45.89924" lon="4.6842">
        <ele>270</ele>
        <time>2019-08-17T10:21:30.000Z</time>
      </trkpt>
      <trkpt lat="45.89922" lon="4.68418">
        <ele>270.39999389648</ele>
        <time>2019-08-17T10:21:31.000Z</time>
      </trkpt>
      <trkpt lat="45.8992" lon="4.68415">
        <ele>270.79998779297</ele>
        <time>2019-08-17T10:21:32.000Z</time>
      </trkpt>
      <trkpt lat="45.89918" lon="4.68413">
        <ele>271.20001220703</ele>
        <time>2019-08-17T10:21:33.000Z</time>
      </trkpt>
      <trkpt lat="45.89916" lon="4.6841">
        <ele>271.60000610352</ele>
        <time>2019-08-17T10:21:34.000Z</time>
      </trkpt>
      <trkpt lat="45.89914" lon="4.68409">
        <ele>272</ele>
        <time>2019-08-17T10:21:35.000Z</time>
      </trkpt>
      <trkpt lat="45.89912" lon="4.68407">
        <ele>272</ele>
        <time>2019-08-17T10:21:36.000Z</time>
      </trkpt>
      <trkpt lat="45.89908" lon="4.68403">
        <ele>272</ele>
        <time>2019-08-17T10:21:38.000Z</time>
      </trkpt>
      <trkpt lat="45.89897" lon="4.68392">
        <ele>272.39999389648</ele>
        <time>2019-08-17T10:21:43.000Z</time>
      </trkpt>
      <trkpt lat="45.89895" lon="4.68389">
        <ele>272.79998779297</ele>
        <time>2019-08-17T10:21:44.000Z</time>
      </trkpt>
      <trkpt lat="45.89894" lon="4.68387">
        <ele>273.20001220703</ele>
        <time>2019-08-17T10:21:45.000Z</time>
      </trkpt>
      <trkpt lat="45.89892" lon="4.68384">
        <ele>273.60000610352</ele>
        <time>2019-08-17T10:21:46.000Z</time>
      </trkpt>
      <trkpt lat="45.8989" lon="4.68382">
        <ele>274</ele>
        <time>2019-08-17T10:21:47.000Z</time>
      </trkpt>
      <trkpt lat="45.89884" lon="4.68375">
        <ele>274</ele>
        <time>2019-08-17T10:21:50.000Z</time>
      </trkpt>
      <trkpt lat="45.89863" lon="4.68354">
        <ele>274.39999389648</ele>
        <time>2019-08-17T10:21:59.000Z</time>
      </trkpt>
      <trkpt lat="45.89861" lon="4.68352">
        <ele>274.79998779297</ele>
        <time>2019-08-17T10:22:00.000Z</time>
      </trkpt>
      <trkpt lat="45.89859" lon="4.6835">
        <ele>275.20001220703</ele>
        <time>2019-08-17T10:22:01.000Z</time>
      </trkpt>
      <trkpt lat="45.89857" lon="4.68348">
        <ele>275.79998779297</ele>
        <time>2019-08-17T10:22:02.000Z</time>
      </trkpt>
      <trkpt lat="45.89855" lon="4.68346">
        <ele>276.20001220703</ele>
        <time>2019-08-17T10:22:03.000Z</time>
      </trkpt>
      <trkpt lat="45.89843" lon="4.68334">
        <ele>276.20001220703</ele>
        <time>2019-08-17T10:22:09.000Z</time>
      </trkpt>
      <trkpt lat="45.89839" lon="4.6833">
        <ele>276.60000610352</ele>
        <time>2019-08-17T10:22:11.000Z</time>
      </trkpt>
      <trkpt lat="45.89837" lon="4.68328">
        <ele>277</ele>
        <time>2019-08-17T10:22:12.000Z</time>
      </trkpt>
      <trkpt lat="45.89834" lon="4.68326">
        <ele>277.39999389648</ele>
        <time>2019-08-17T10:22:13.000Z</time>
      </trkpt>
      <trkpt lat="45.89831" lon="4.68324">
        <ele>277.79998779297</ele>
        <time>2019-08-17T10:22:14.000Z</time>
      </trkpt>
      <trkpt lat="45.89828" lon="4.68322">
        <ele>278.20001220703</ele>
        <time>2019-08-17T10:22:15.000Z</time>
      </trkpt>
      <trkpt lat="45.89807" lon="4.68305">
        <ele>278.20001220703</ele>
        <time>2019-08-17T10:22:22.000Z</time>
      </trkpt>
      <trkpt lat="45.89801" lon="4.68298">
        <ele>278.20001220703</ele>
        <time>2019-08-17T10:22:24.000Z</time>
      </trkpt>
      <trkpt lat="45.8979" lon="4.68285">
        <ele>278.20001220703</ele>
        <time>2019-08-17T10:22:27.000Z</time>
      </trkpt>
      <trkpt lat="45.89786" lon="4.68279">
        <ele>278.20001220703</ele>
        <time>2019-08-17T10:22:28.000Z</time>
      </trkpt>
      <trkpt lat="45.89781" lon="4.68257">
        <ele>278.20001220703</ele>
        <time>2019-08-17T10:22:31.000Z</time>
      </trkpt>
      <trkpt lat="45.89779" lon="4.68249">
        <ele>277.79998779297</ele>
        <time>2019-08-17T10:22:32.000Z</time>
      </trkpt>
      <trkpt lat="45.89778" lon="4.68241">
        <ele>277.39999389648</ele>
        <time>2019-08-17T10:22:33.000Z</time>
      </trkpt>
      <trkpt lat="45.89777" lon="4.68232">
        <ele>276.79998779297</ele>
        <time>2019-08-17T10:22:34.000Z</time>
      </trkpt>
      <trkpt lat="45.89776" lon="4.68224">
        <ele>276.39999389648</ele>
        <time>2019-08-17T10:22:35.000Z</time>
      </trkpt>
      <trkpt lat="45.89774" lon="4.68216">
        <ele>276</ele>
        <time>2019-08-17T10:22:36.000Z</time>
      </trkpt>
      <trkpt lat="45.8977" lon="4.682">
        <ele>276</ele>
        <time>2019-08-17T10:22:38.000Z</time>
      </trkpt>
      <trkpt lat="45.89765" lon="4.68171">
        <ele>276</ele>
        <time>2019-08-17T10:22:42.000Z</time>
      </trkpt>
      <trkpt lat="45.89765" lon="4.68164">
        <ele>276</ele>
        <time>2019-08-17T10:22:43.000Z</time>
      </trkpt>
      <trkpt lat="45.89775" lon="4.68133">
        <ele>276</ele>
        <time>2019-08-17T10:22:49.000Z</time>
      </trkpt>
      <trkpt lat="45.89785" lon="4.68117">
        <ele>276.39999389648</ele>
        <time>2019-08-17T10:22:54.000Z</time>
      </trkpt>
      <trkpt lat="45.89787" lon="4.68114">
        <ele>276.79998779297</ele>
        <time>2019-08-17T10:22:55.000Z</time>
      </trkpt>
      <trkpt lat="45.8979" lon="4.68111">
        <ele>277.20001220703</ele>
        <time>2019-08-17T10:22:56.000Z</time>
      </trkpt>
      <trkpt lat="45.89792" lon="4.68108">
        <ele>277.60000610352</ele>
        <time>2019-08-17T10:22:57.000Z</time>
      </trkpt>
      <trkpt lat="45.89795" lon="4.68106">
        <ele>278</ele>
        <time>2019-08-17T10:22:58.000Z</time>
      </trkpt>
      <trkpt lat="45.89799" lon="4.681">
        <ele>278.39999389648</ele>
        <time>2019-08-17T10:23:00.000Z</time>
      </trkpt>
      <trkpt lat="45.89801" lon="4.68097">
        <ele>278.79998779297</ele>
        <time>2019-08-17T10:23:01.000Z</time>
      </trkpt>
      <trkpt lat="45.89803" lon="4.68094">
        <ele>279.20001220703</ele>
        <time>2019-08-17T10:23:02.000Z</time>
      </trkpt>
      <trkpt lat="45.89805" lon="4.68092">
        <ele>279.60000610352</ele>
        <time>2019-08-17T10:23:03.000Z</time>
      </trkpt>
      <trkpt lat="45.89807" lon="4.68089">
        <ele>280</ele>
        <time>2019-08-17T10:23:04.000Z</time>
      </trkpt>
      <trkpt lat="45.8981" lon="4.68084">
        <ele>280.39999389648</ele>
        <time>2019-08-17T10:23:06.000Z</time>
      </trkpt>
      <trkpt lat="45.89812" lon="4.68081">
        <ele>281</ele>
        <time>2019-08-17T10:23:07.000Z</time>
      </trkpt>
      <trkpt lat="45.89813" lon="4.68078">
        <ele>281.39999389648</ele>
        <time>2019-08-17T10:23:08.000Z</time>
      </trkpt>
      <trkpt lat="45.89815" lon="4.68075">
        <ele>281.79998779297</ele>
        <time>2019-08-17T10:23:09.000Z</time>
      </trkpt>
      <trkpt lat="45.89816" lon="4.68073">
        <ele>282.20001220703</ele>
        <time>2019-08-17T10:23:10.000Z</time>
      </trkpt>
      <trkpt lat="45.89822" lon="4.68061">
        <ele>282.60000610352</ele>
        <time>2019-08-17T10:23:14.000Z</time>
      </trkpt>
      <trkpt lat="45.89824" lon="4.68058">
        <ele>283</ele>
        <time>2019-08-17T10:23:15.000Z</time>
      </trkpt>
      <trkpt lat="45.89825" lon="4.68055">
        <ele>283.39999389648</ele>
        <time>2019-08-17T10:23:16.000Z</time>
      </trkpt>
      <trkpt lat="45.89827" lon="4.68052">
        <ele>283.79998779297</ele>
        <time>2019-08-17T10:23:17.000Z</time>
      </trkpt>
      <trkpt lat="45.89829" lon="4.68049">
        <ele>284.20001220703</ele>
        <time>2019-08-17T10:23:18.000Z</time>
      </trkpt>
      <trkpt lat="45.89835" lon="4.68036">
        <ele>284.79998779297</ele>
        <time>2019-08-17T10:23:22.000Z</time>
      </trkpt>
      <trkpt lat="45.89837" lon="4.68033">
        <ele>285.20001220703</ele>
        <time>2019-08-17T10:23:23.000Z</time>
      </trkpt>
      <trkpt lat="45.89839" lon="4.68029">
        <ele>285.60000610352</ele>
        <time>2019-08-17T10:23:24.000Z</time>
      </trkpt>
      <trkpt lat="45.89841" lon="4.68026">
        <ele>286</ele>
        <time>2019-08-17T10:23:25.000Z</time>
      </trkpt>
      <trkpt lat="45.89842" lon="4.68022">
        <ele>286.39999389648</ele>
        <time>2019-08-17T10:23:26.000Z</time>
      </trkpt>
      <trkpt lat="45.89852" lon="4.68001">
        <ele>286.39999389648</ele>
        <time>2019-08-17T10:23:32.000Z</time>
      </trkpt>
      <trkpt lat="45.89855" lon="4.67994">
        <ele>286.79998779297</ele>
        <time>2019-08-17T10:23:34.000Z</time>
      </trkpt>
      <trkpt lat="45.89856" lon="4.6799">
        <ele>287.20001220703</ele>
        <time>2019-08-17T10:23:35.000Z</time>
      </trkpt>
      <trkpt lat="45.89858" lon="4.67987">
        <ele>287.60000610352</ele>
        <time>2019-08-17T10:23:36.000Z</time>
      </trkpt>
      <trkpt lat="45.8986" lon="4.67984">
        <ele>288.20001220703</ele>
        <time>2019-08-17T10:23:37.000Z</time>
      </trkpt>
      <trkpt lat="45.89862" lon="4.67981">
        <ele>288.60000610352</ele>
        <time>2019-08-17T10:23:38.000Z</time>
      </trkpt>
      <trkpt lat="45.89863" lon="4.67978">
        <ele>288.60000610352</ele>
        <time>2019-08-17T10:23:39.000Z</time>
      </trkpt>
      <trkpt lat="45.89868" lon="4.67968">
        <ele>289</ele>
        <time>2019-08-17T10:23:42.000Z</time>
      </trkpt>
      <trkpt lat="45.89869" lon="4.67964">
        <ele>289.39999389648</ele>
        <time>2019-08-17T10:23:43.000Z</time>
      </trkpt>
      <trkpt lat="45.89871" lon="4.67961">
        <ele>290.20001220703</ele>
        <time>2019-08-17T10:23:44.000Z</time>
      </trkpt>
      <trkpt lat="45.89873" lon="4.67958">
        <ele>290.60000610352</ele>
        <time>2019-08-17T10:23:45.000Z</time>
      </trkpt>
      <trkpt lat="45.89875" lon="4.67956">
        <ele>290.60000610352</ele>
        <time>2019-08-17T10:23:46.000Z</time>
      </trkpt>
      <trkpt lat="45.8988" lon="4.67952">
        <ele>291</ele>
        <time>2019-08-17T10:23:48.000Z</time>
      </trkpt>
      <trkpt lat="45.89883" lon="4.67951">
        <ele>291.60000610352</ele>
        <time>2019-08-17T10:23:49.000Z</time>
      </trkpt>
      <trkpt lat="45.89886" lon="4.6795">
        <ele>292</ele>
        <time>2019-08-17T10:23:50.000Z</time>
      </trkpt>
      <trkpt lat="45.89889" lon="4.67949">
        <ele>292.39999389648</ele>
        <time>2019-08-17T10:23:51.000Z</time>
      </trkpt>
      <trkpt lat="45.89891" lon="4.67948">
        <ele>292.79998779297</ele>
        <time>2019-08-17T10:23:52.000Z</time>
      </trkpt>
      <trkpt lat="45.89894" lon="4.67947">
        <ele>292.79998779297</ele>
        <time>2019-08-17T10:23:53.000Z</time>
      </trkpt>
      <trkpt lat="45.8991" lon="4.67939">
        <ele>293.20001220703</ele>
        <time>2019-08-17T10:23:59.000Z</time>
      </trkpt>
      <trkpt lat="45.89913" lon="4.67937">
        <ele>293.60000610352</ele>
        <time>2019-08-17T10:24:00.000Z</time>
      </trkpt>
      <trkpt lat="45.89915" lon="4.67935">
        <ele>294</ele>
        <time>2019-08-17T10:24:01.000Z</time>
      </trkpt>
      <trkpt lat="45.89916" lon="4.67932">
        <ele>294.39999389648</ele>
        <time>2019-08-17T10:24:02.000Z</time>
      </trkpt>
      <trkpt lat="45.89918" lon="4.67929">
        <ele>294.79998779297</ele>
        <time>2019-08-17T10:24:03.000Z</time>
      </trkpt>
      <trkpt lat="45.89925" lon="4.67921">
        <ele>294.79998779297</ele>
        <time>2019-08-17T10:24:06.000Z</time>
      </trkpt>
      <trkpt lat="45.89933" lon="4.67909">
        <ele>295.20001220703</ele>
        <time>2019-08-17T10:24:10.000Z</time>
      </trkpt>
      <trkpt lat="45.89935" lon="4.67906">
        <ele>295.79998779297</ele>
        <time>2019-08-17T10:24:11.000Z</time>
      </trkpt>
      <trkpt lat="45.89937" lon="4.67904">
        <ele>296.20001220703</ele>
        <time>2019-08-17T10:24:12.000Z</time>
      </trkpt>
      <trkpt lat="45.89939" lon="4.67901">
        <ele>296.60000610352</ele>
        <time>2019-08-17T10:24:13.000Z</time>
      </trkpt>
      <trkpt lat="45.8994" lon="4.67898">
        <ele>297</ele>
        <time>2019-08-17T10:24:14.000Z</time>
      </trkpt>
      <trkpt lat="45.89942" lon="4.67895">
        <ele>297</ele>
        <time>2019-08-17T10:24:15.000Z</time>
      </trkpt>
      <trkpt lat="45.89952" lon="4.67882">
        <ele>297.60000610352</ele>
        <time>2019-08-17T10:24:20.000Z</time>
      </trkpt>
      <trkpt lat="45.89954" lon="4.67879">
        <ele>298</ele>
        <time>2019-08-17T10:24:21.000Z</time>
      </trkpt>
      <trkpt lat="45.89956" lon="4.67876">
        <ele>298.39999389648</ele>
        <time>2019-08-17T10:24:22.000Z</time>
      </trkpt>
      <trkpt lat="45.89958" lon="4.67873">
        <ele>298.79998779297</ele>
        <time>2019-08-17T10:24:23.000Z</time>
      </trkpt>
      <trkpt lat="45.89959" lon="4.67871">
        <ele>299.20001220703</ele>
        <time>2019-08-17T10:24:24.000Z</time>
      </trkpt>
      <trkpt lat="45.89968" lon="4.67856">
        <ele>299.60000610352</ele>
        <time>2019-08-17T10:24:29.000Z</time>
      </trkpt>
      <trkpt lat="45.8997" lon="4.67853">
        <ele>300</ele>
        <time>2019-08-17T10:24:30.000Z</time>
      </trkpt>
      <trkpt lat="45.89972" lon="4.67849">
        <ele>300.39999389648</ele>
        <time>2019-08-17T10:24:31.000Z</time>
      </trkpt>
      <trkpt lat="45.89975" lon="4.67847">
        <ele>300.79998779297</ele>
        <time>2019-08-17T10:24:32.000Z</time>
      </trkpt>
      <trkpt lat="45.89977" lon="4.67844">
        <ele>301.20001220703</ele>
        <time>2019-08-17T10:24:33.000Z</time>
      </trkpt>
      <trkpt lat="45.89983" lon="4.67834">
        <ele>301.20001220703</ele>
        <time>2019-08-17T10:24:36.000Z</time>
      </trkpt>
      <trkpt lat="45.89987" lon="4.67827">
        <ele>301.60000610352</ele>
        <time>2019-08-17T10:24:38.000Z</time>
      </trkpt>
      <trkpt lat="45.89989" lon="4.67824">
        <ele>302</ele>
        <time>2019-08-17T10:24:39.000Z</time>
      </trkpt>
      <trkpt lat="45.89991" lon="4.67821">
        <ele>302.60000610352</ele>
        <time>2019-08-17T10:24:40.000Z</time>
      </trkpt>
      <trkpt lat="45.89993" lon="4.67819">
        <ele>303</ele>
        <time>2019-08-17T10:24:41.000Z</time>
      </trkpt>
      <trkpt lat="45.89995" lon="4.67816">
        <ele>303.39999389648</ele>
        <time>2019-08-17T10:24:42.000Z</time>
      </trkpt>
      <trkpt lat="45.90003" lon="4.67804">
        <ele>303.39999389648</ele>
        <time>2019-08-17T10:24:46.000Z</time>
      </trkpt>
      <trkpt lat="45.90005" lon="4.67801">
        <ele>303.79998779297</ele>
        <time>2019-08-17T10:24:47.000Z</time>
      </trkpt>
      <trkpt lat="45.90007" lon="4.67798">
        <ele>304.20001220703</ele>
        <time>2019-08-17T10:24:48.000Z</time>
      </trkpt>
      <trkpt lat="45.90009" lon="4.67795">
        <ele>304.60000610352</ele>
        <time>2019-08-17T10:24:49.000Z</time>
      </trkpt>
      <trkpt lat="45.90011" lon="4.67792">
        <ele>305</ele>
        <time>2019-08-17T10:24:50.000Z</time>
      </trkpt>
      <trkpt lat="45.90013" lon="4.67789">
        <ele>305.39999389648</ele>
        <time>2019-08-17T10:24:51.000Z</time>
      </trkpt>
      <trkpt lat="45.90015" lon="4.67786">
        <ele>305.39999389648</ele>
        <time>2019-08-17T10:24:52.000Z</time>
      </trkpt>
      <trkpt lat="45.90024" lon="4.67774">
        <ele>306</ele>
        <time>2019-08-17T10:24:56.000Z</time>
      </trkpt>
      <trkpt lat="45.90026" lon="4.67772">
        <ele>306.39999389648</ele>
        <time>2019-08-17T10:24:57.000Z</time>
      </trkpt>
      <trkpt lat="45.90028" lon="4.67769">
        <ele>307.39999389648</ele>
        <time>2019-08-17T10:24:58.000Z</time>
      </trkpt>
      <trkpt lat="45.9003" lon="4.67766">
        <ele>307.79998779297</ele>
        <time>2019-08-17T10:24:59.000Z</time>
      </trkpt>
      <trkpt lat="45.90032" lon="4.67763">
        <ele>307.79998779297</ele>
        <time>2019-08-17T10:25:00.000Z</time>
      </trkpt>
      <trkpt lat="45.90038" lon="4.67755">
        <ele>308.20001220703</ele>
        <time>2019-08-17T10:25:03.000Z</time>
      </trkpt>
      <trkpt lat="45.90041" lon="4.67753">
        <ele>308.60000610352</ele>
        <time>2019-08-17T10:25:04.000Z</time>
      </trkpt>
      <trkpt lat="45.90043" lon="4.6775">
        <ele>309</ele>
        <time>2019-08-17T10:25:05.000Z</time>
      </trkpt>
      <trkpt lat="45.90046" lon="4.67748">
        <ele>309.39999389648</ele>
        <time>2019-08-17T10:25:06.000Z</time>
      </trkpt>
      <trkpt lat="45.90048" lon="4.67746">
        <ele>310</ele>
        <time>2019-08-17T10:25:07.000Z</time>
      </trkpt>
      <trkpt lat="45.90051" lon="4.67744">
        <ele>310</ele>
        <time>2019-08-17T10:25:08.000Z</time>
      </trkpt>
      <trkpt lat="45.90061" lon="4.67735">
        <ele>310.39999389648</ele>
        <time>2019-08-17T10:25:12.000Z</time>
      </trkpt>
      <trkpt lat="45.90063" lon="4.67733">
        <ele>310.79998779297</ele>
        <time>2019-08-17T10:25:13.000Z</time>
      </trkpt>
      <trkpt lat="45.90066" lon="4.67731">
        <ele>311.20001220703</ele>
        <time>2019-08-17T10:25:14.000Z</time>
      </trkpt>
      <trkpt lat="45.90068" lon="4.6773">
        <ele>311.60000610352</ele>
        <time>2019-08-17T10:25:15.000Z</time>
      </trkpt>
      <trkpt lat="45.90071" lon="4.67728">
        <ele>312</ele>
        <time>2019-08-17T10:25:16.000Z</time>
      </trkpt>
      <trkpt lat="45.90078" lon="4.67722">
        <ele>312.39999389648</ele>
        <time>2019-08-17T10:25:19.000Z</time>
      </trkpt>
      <trkpt lat="45.9008" lon="4.6772">
        <ele>312.79998779297</ele>
        <time>2019-08-17T10:25:20.000Z</time>
      </trkpt>
      <trkpt lat="45.90083" lon="4.67719">
        <ele>313.39999389648</ele>
        <time>2019-08-17T10:25:21.000Z</time>
      </trkpt>
      <trkpt lat="45.90086" lon="4.67717">
        <ele>314.20001220703</ele>
        <time>2019-08-17T10:25:22.000Z</time>
      </trkpt>
      <trkpt lat="45.90094" lon="4.67712">
        <ele>314.60000610352</ele>
        <time>2019-08-17T10:25:25.000Z</time>
      </trkpt>
      <trkpt lat="45.90097" lon="4.67711">
        <ele>315</ele>
        <time>2019-08-17T10:25:26.000Z</time>
      </trkpt>
      <trkpt lat="45.90099" lon="4.67709">
        <ele>315.39999389648</ele>
        <time>2019-08-17T10:25:27.000Z</time>
      </trkpt>
      <trkpt lat="45.90102" lon="4.67708">
        <ele>315.79998779297</ele>
        <time>2019-08-17T10:25:28.000Z</time>
      </trkpt>
      <trkpt lat="45.90104" lon="4.67706">
        <ele>316.39999389648</ele>
        <time>2019-08-17T10:25:29.000Z</time>
      </trkpt>
      <trkpt lat="45.90107" lon="4.67705">
        <ele>316.79998779297</ele>
        <time>2019-08-17T10:25:30.000Z</time>
      </trkpt>
      <trkpt lat="45.9011" lon="4.67704">
        <ele>317.20001220703</ele>
        <time>2019-08-17T10:25:31.000Z</time>
      </trkpt>
      <trkpt lat="45.90112" lon="4.67703">
        <ele>317.60000610352</ele>
        <time>2019-08-17T10:25:32.000Z</time>
      </trkpt>
      <trkpt lat="45.90115" lon="4.67702">
        <ele>318</ele>
        <time>2019-08-17T10:25:33.000Z</time>
      </trkpt>
      <trkpt lat="45.90118" lon="4.67701">
        <ele>318.39999389648</ele>
        <time>2019-08-17T10:25:34.000Z</time>
      </trkpt>
      <trkpt lat="45.90123" lon="4.67698">
        <ele>318.79998779297</ele>
        <time>2019-08-17T10:25:36.000Z</time>
      </trkpt>
      <trkpt lat="45.90126" lon="4.67697">
        <ele>319.20001220703</ele>
        <time>2019-08-17T10:25:37.000Z</time>
      </trkpt>
      <trkpt lat="45.90129" lon="4.67696">
        <ele>319.60000610352</ele>
        <time>2019-08-17T10:25:38.000Z</time>
      </trkpt>
      <trkpt lat="45.90132" lon="4.67695">
        <ele>320</ele>
        <time>2019-08-17T10:25:39.000Z</time>
      </trkpt>
      <trkpt lat="45.90135" lon="4.67693">
        <ele>320.39999389648</ele>
        <time>2019-08-17T10:25:40.000Z</time>
      </trkpt>
      <trkpt lat="45.90137" lon="4.67692">
        <ele>320.39999389648</ele>
        <time>2019-08-17T10:25:41.000Z</time>
      </trkpt>
      <trkpt lat="45.9014" lon="4.67691">
        <ele>320.79998779297</ele>
        <time>2019-08-17T10:25:42.000Z</time>
      </trkpt>
      <trkpt lat="45.90143" lon="4.6769">
        <ele>321.20001220703</ele>
        <time>2019-08-17T10:25:43.000Z</time>
      </trkpt>
      <trkpt lat="45.90145" lon="4.67689">
        <ele>321.79998779297</ele>
        <time>2019-08-17T10:25:44.000Z</time>
      </trkpt>
      <trkpt lat="45.90148" lon="4.67687">
        <ele>322.20001220703</ele>
        <time>2019-08-17T10:25:45.000Z</time>
      </trkpt>
      <trkpt lat="45.90151" lon="4.67687">
        <ele>322.60000610352</ele>
        <time>2019-08-17T10:25:46.000Z</time>
      </trkpt>
      <trkpt lat="45.90154" lon="4.67685">
        <ele>322.60000610352</ele>
        <time>2019-08-17T10:25:47.000Z</time>
      </trkpt>
      <trkpt lat="45.90157" lon="4.67684">
        <ele>323.39999389648</ele>
        <time>2019-08-17T10:25:48.000Z</time>
      </trkpt>
      <trkpt lat="45.9016" lon="4.67683">
        <ele>323.79998779297</ele>
        <time>2019-08-17T10:25:49.000Z</time>
      </trkpt>
      <trkpt lat="45.90163" lon="4.67681">
        <ele>324.39999389648</ele>
        <time>2019-08-17T10:25:50.000Z</time>
      </trkpt>
      <trkpt lat="45.90165" lon="4.6768">
        <ele>324.79998779297</ele>
        <time>2019-08-17T10:25:51.000Z</time>
      </trkpt>
      <trkpt lat="45.90171" lon="4.67677">
        <ele>324.79998779297</ele>
        <time>2019-08-17T10:25:53.000Z</time>
      </trkpt>
      <trkpt lat="45.90174" lon="4.67676">
        <ele>325.20001220703</ele>
        <time>2019-08-17T10:25:54.000Z</time>
      </trkpt>
      <trkpt lat="45.90177" lon="4.67674">
        <ele>325.60000610352</ele>
        <time>2019-08-17T10:25:55.000Z</time>
      </trkpt>
      <trkpt lat="45.9018" lon="4.67673">
        <ele>326.20001220703</ele>
        <time>2019-08-17T10:25:56.000Z</time>
      </trkpt>
      <trkpt lat="45.90183" lon="4.67672">
        <ele>326.60000610352</ele>
        <time>2019-08-17T10:25:57.000Z</time>
      </trkpt>
      <trkpt lat="45.90186" lon="4.6767">
        <ele>327</ele>
        <time>2019-08-17T10:25:58.000Z</time>
      </trkpt>
      <trkpt lat="45.90192" lon="4.67667">
        <ele>327.39999389648</ele>
        <time>2019-08-17T10:26:00.000Z</time>
      </trkpt>
      <trkpt lat="45.90195" lon="4.67666">
        <ele>328</ele>
        <time>2019-08-17T10:26:01.000Z</time>
      </trkpt>
      <trkpt lat="45.90198" lon="4.67664">
        <ele>328.39999389648</ele>
        <time>2019-08-17T10:26:02.000Z</time>
      </trkpt>
      <trkpt lat="45.90201" lon="4.67663">
        <ele>328.79998779297</ele>
        <time>2019-08-17T10:26:03.000Z</time>
      </trkpt>
      <trkpt lat="45.90204" lon="4.67661">
        <ele>329.20001220703</ele>
        <time>2019-08-17T10:26:04.000Z</time>
      </trkpt>
      <trkpt lat="45.9021" lon="4.67659">
        <ele>329.60000610352</ele>
        <time>2019-08-17T10:26:06.000Z</time>
      </trkpt>
      <trkpt lat="45.90213" lon="4.67657">
        <ele>330.20001220703</ele>
        <time>2019-08-17T10:26:07.000Z</time>
      </trkpt>
      <trkpt lat="45.90216" lon="4.67657">
        <ele>330.60000610352</ele>
        <time>2019-08-17T10:26:08.000Z</time>
      </trkpt>
      <trkpt lat="45.90218" lon="4.67656">
        <ele>331</ele>
        <time>2019-08-17T10:26:09.000Z</time>
      </trkpt>
      <trkpt lat="45.9022" lon="4.67656">
        <ele>331.39999389648</ele>
        <time>2019-08-17T10:26:10.000Z</time>
      </trkpt>
      <trkpt lat="45.90222" lon="4.67656">
        <ele>331.39999389648</ele>
        <time>2019-08-17T10:26:11.000Z</time>
      </trkpt>
      <trkpt lat="45.90224" lon="4.67657">
        <ele>331.39999389648</ele>
        <time>2019-08-17T10:26:12.000Z</time>
      </trkpt>
      <trkpt lat="45.90229" lon="4.6766">
        <ele>331.39999389648</ele>
        <time>2019-08-17T10:26:15.000Z</time>
      </trkpt>
      <trkpt lat="45.90234" lon="4.67667">
        <ele>331.39999389648</ele>
        <time>2019-08-17T10:26:18.000Z</time>
      </trkpt>
      <trkpt lat="45.9024" lon="4.67673">
        <ele>331.39999389648</ele>
        <time>2019-08-17T10:26:22.000Z</time>
      </trkpt>
      <trkpt lat="45.90255" lon="4.6768">
        <ele>331.39999389648</ele>
        <time>2019-08-17T10:26:30.000Z</time>
      </trkpt>
      <trkpt lat="45.90268" lon="4.67686">
        <ele>331.39999389648</ele>
        <time>2019-08-17T10:26:36.000Z</time>
      </trkpt>
      <trkpt lat="45.90293" lon="4.67695">
        <ele>331.39999389648</ele>
        <time>2019-08-17T10:26:45.000Z</time>
      </trkpt>
      <trkpt lat="45.9032" lon="4.67705">
        <ele>331.39999389648</ele>
        <time>2019-08-17T10:26:52.000Z</time>
      </trkpt>
      <trkpt lat="45.90338" lon="4.67711">
        <ele>331.39999389648</ele>
        <time>2019-08-17T10:26:56.000Z</time>
      </trkpt>
      <trkpt lat="45.90342" lon="4.67713">
        <ele>331.39999389648</ele>
        <time>2019-08-17T10:26:57.000Z</time>
      </trkpt>
      <trkpt lat="45.90354" lon="4.67717">
        <ele>331.39999389648</ele>
        <time>2019-08-17T10:27:00.000Z</time>
      </trkpt>
      <trkpt lat="45.90368" lon="4.67722">
        <ele>331</ele>
        <time>2019-08-17T10:27:04.000Z</time>
      </trkpt>
      <trkpt lat="45.90371" lon="4.67724">
        <ele>330.60000610352</ele>
        <time>2019-08-17T10:27:05.000Z</time>
      </trkpt>
      <trkpt lat="45.90374" lon="4.67725">
        <ele>330.20001220703</ele>
        <time>2019-08-17T10:27:06.000Z</time>
      </trkpt>
      <trkpt lat="45.90378" lon="4.67725">
        <ele>329.79998779297</ele>
        <time>2019-08-17T10:27:07.000Z</time>
      </trkpt>
      <trkpt lat="45.90382" lon="4.67727">
        <ele>329.39999389648</ele>
        <time>2019-08-17T10:27:08.000Z</time>
      </trkpt>
      <trkpt lat="45.9039" lon="4.6773">
        <ele>329.39999389648</ele>
        <time>2019-08-17T10:27:10.000Z</time>
      </trkpt>
      <trkpt lat="45.90427" lon="4.67743">
        <ele>329.39999389648</ele>
        <time>2019-08-17T10:27:17.000Z</time>
      </trkpt>
      <trkpt lat="45.90438" lon="4.67747">
        <ele>329</ele>
        <time>2019-08-17T10:27:19.000Z</time>
      </trkpt>
      <trkpt lat="45.90443" lon="4.67749">
        <ele>328.60000610352</ele>
        <time>2019-08-17T10:27:20.000Z</time>
      </trkpt>
      <trkpt lat="45.90448" lon="4.67751">
        <ele>328</ele>
        <time>2019-08-17T10:27:21.000Z</time>
      </trkpt>
      <trkpt lat="45.90454" lon="4.67754">
        <ele>327.60000610352</ele>
        <time>2019-08-17T10:27:22.000Z</time>
      </trkpt>
      <trkpt lat="45.9046" lon="4.67756">
        <ele>327.20001220703</ele>
        <time>2019-08-17T10:27:23.000Z</time>
      </trkpt>
      <trkpt lat="45.90466" lon="4.67758">
        <ele>327.20001220703</ele>
        <time>2019-08-17T10:27:24.000Z</time>
      </trkpt>
      <trkpt lat="45.9049" lon="4.67767">
        <ele>326.79998779297</ele>
        <time>2019-08-17T10:27:28.000Z</time>
      </trkpt>
      <trkpt lat="45.90496" lon="4.67769">
        <ele>326.39999389648</ele>
        <time>2019-08-17T10:27:29.000Z</time>
      </trkpt>
      <trkpt lat="45.90502" lon="4.67771">
        <ele>326</ele>
        <time>2019-08-17T10:27:30.000Z</time>
      </trkpt>
      <trkpt lat="45.90508" lon="4.67773">
        <ele>325.39999389648</ele>
        <time>2019-08-17T10:27:31.000Z</time>
      </trkpt>
      <trkpt lat="45.90514" lon="4.67776">
        <ele>325</ele>
        <time>2019-08-17T10:27:32.000Z</time>
      </trkpt>
      <trkpt lat="45.90549" lon="4.67789">
        <ele>325</ele>
        <time>2019-08-17T10:27:38.000Z</time>
      </trkpt>
      <trkpt lat="45.90583" lon="4.67796">
        <ele>325</ele>
        <time>2019-08-17T10:27:44.000Z</time>
      </trkpt>
      <trkpt lat="45.90633" lon="4.67798">
        <ele>325</ele>
        <time>2019-08-17T10:27:54.000Z</time>
      </trkpt>
      <trkpt lat="45.90647" lon="4.678">
        <ele>325.60000610352</ele>
        <time>2019-08-17T10:27:57.000Z</time>
      </trkpt>
      <trkpt lat="45.90652" lon="4.678">
        <ele>326</ele>
        <time>2019-08-17T10:27:58.000Z</time>
      </trkpt>
      <trkpt lat="45.90657" lon="4.678">
        <ele>326.39999389648</ele>
        <time>2019-08-17T10:27:59.000Z</time>
      </trkpt>
      <trkpt lat="45.90662" lon="4.678">
        <ele>326.79998779297</ele>
        <time>2019-08-17T10:28:00.000Z</time>
      </trkpt>
      <trkpt lat="45.90666" lon="4.678">
        <ele>327.39999389648</ele>
        <time>2019-08-17T10:28:01.000Z</time>
      </trkpt>
      <trkpt lat="45.90698" lon="4.67807">
        <ele>327.39999389648</ele>
        <time>2019-08-17T10:28:08.000Z</time>
      </trkpt>
      <trkpt lat="45.90711" lon="4.67812">
        <ele>327.79998779297</ele>
        <time>2019-08-17T10:28:11.000Z</time>
      </trkpt>
      <trkpt lat="45.90715" lon="4.67814">
        <ele>328.20001220703</ele>
        <time>2019-08-17T10:28:12.000Z</time>
      </trkpt>
      <trkpt lat="45.9072" lon="4.67815">
        <ele>328.60000610352</ele>
        <time>2019-08-17T10:28:13.000Z</time>
      </trkpt>
      <trkpt lat="45.90724" lon="4.67817">
        <ele>329</ele>
        <time>2019-08-17T10:28:14.000Z</time>
      </trkpt>
      <trkpt lat="45.90728" lon="4.67819">
        <ele>329.39999389648</ele>
        <time>2019-08-17T10:28:15.000Z</time>
      </trkpt>
      <trkpt lat="45.90736" lon="4.67822">
        <ele>329.39999389648</ele>
        <time>2019-08-17T10:28:17.000Z</time>
      </trkpt>
      <trkpt lat="45.90776" lon="4.67838">
        <ele>329.79998779297</ele>
        <time>2019-08-17T10:28:26.000Z</time>
      </trkpt>
      <trkpt lat="45.90781" lon="4.6784">
        <ele>330.20001220703</ele>
        <time>2019-08-17T10:28:27.000Z</time>
      </trkpt>
      <trkpt lat="45.90786" lon="4.67842">
        <ele>330.60000610352</ele>
        <time>2019-08-17T10:28:28.000Z</time>
      </trkpt>
      <trkpt lat="45.90791" lon="4.67844">
        <ele>331</ele>
        <time>2019-08-17T10:28:29.000Z</time>
      </trkpt>
      <trkpt lat="45.90795" lon="4.67846">
        <ele>331.60000610352</ele>
        <time>2019-08-17T10:28:30.000Z</time>
      </trkpt>
      <trkpt lat="45.90815" lon="4.67853">
        <ele>331.60000610352</ele>
        <time>2019-08-17T10:28:34.000Z</time>
      </trkpt>
      <trkpt lat="45.90863" lon="4.67868">
        <ele>331.60000610352</ele>
        <time>2019-08-17T10:28:43.000Z</time>
      </trkpt>
      <trkpt lat="45.90899" lon="4.6788">
        <ele>331.60000610352</ele>
        <time>2019-08-17T10:28:50.000Z</time>
      </trkpt>
      <trkpt lat="45.90935" lon="4.67895">
        <ele>331.60000610352</ele>
        <time>2019-08-17T10:28:57.000Z</time>
      </trkpt>
      <trkpt lat="45.9097" lon="4.6791">
        <ele>332.39999389648</ele>
        <time>2019-08-17T10:29:04.000Z</time>
      </trkpt>
      <trkpt lat="45.90975" lon="4.67912">
        <ele>332.79998779297</ele>
        <time>2019-08-17T10:29:05.000Z</time>
      </trkpt>
      <trkpt lat="45.9098" lon="4.67915">
        <ele>333.20001220703</ele>
        <time>2019-08-17T10:29:06.000Z</time>
      </trkpt>
      <trkpt lat="45.90985" lon="4.67917">
        <ele>333.60000610352</ele>
        <time>2019-08-17T10:29:07.000Z</time>
      </trkpt>
      <trkpt lat="45.90994" lon="4.67922">
        <ele>333.60000610352</ele>
        <time>2019-08-17T10:29:09.000Z</time>
      </trkpt>
      <trkpt lat="45.91008" lon="4.67929">
        <ele>333.60000610352</ele>
        <time>2019-08-17T10:29:12.000Z</time>
      </trkpt>
      <trkpt lat="45.91035" lon="4.67943">
        <ele>334</ele>
        <time>2019-08-17T10:29:18.000Z</time>
      </trkpt>
      <trkpt lat="45.91039" lon="4.67945">
        <ele>334.39999389648</ele>
        <time>2019-08-17T10:29:19.000Z</time>
      </trkpt>
      <trkpt lat="45.91043" lon="4.67947">
        <ele>334.79998779297</ele>
        <time>2019-08-17T10:29:20.000Z</time>
      </trkpt>
      <trkpt lat="45.91047" lon="4.67949">
        <ele>335.20001220703</ele>
        <time>2019-08-17T10:29:21.000Z</time>
      </trkpt>
      <trkpt lat="45.91052" lon="4.6795">
        <ele>335.79998779297</ele>
        <time>2019-08-17T10:29:22.000Z</time>
      </trkpt>
      <trkpt lat="45.91073" lon="4.67957">
        <ele>335.79998779297</ele>
        <time>2019-08-17T10:29:27.000Z</time>
      </trkpt>
      <trkpt lat="45.91086" lon="4.67959">
        <ele>336.20001220703</ele>
        <time>2019-08-17T10:29:30.000Z</time>
      </trkpt>
      <trkpt lat="45.9109" lon="4.6796">
        <ele>336.60000610352</ele>
        <time>2019-08-17T10:29:31.000Z</time>
      </trkpt>
      <trkpt lat="45.91094" lon="4.67961">
        <ele>337</ele>
        <time>2019-08-17T10:29:32.000Z</time>
      </trkpt>
      <trkpt lat="45.91098" lon="4.67963">
        <ele>337.39999389648</ele>
        <time>2019-08-17T10:29:33.000Z</time>
      </trkpt>
      <trkpt lat="45.91102" lon="4.67964">
        <ele>337.79998779297</ele>
        <time>2019-08-17T10:29:34.000Z</time>
      </trkpt>
      <trkpt lat="45.9113" lon="4.67972">
        <ele>337.79998779297</ele>
        <time>2019-08-17T10:29:41.000Z</time>
      </trkpt>
      <trkpt lat="45.91134" lon="4.67973">
        <ele>338.20001220703</ele>
        <time>2019-08-17T10:29:42.000Z</time>
      </trkpt>
      <trkpt lat="45.91138" lon="4.67975">
        <ele>338.60000610352</ele>
        <time>2019-08-17T10:29:43.000Z</time>
      </trkpt>
      <trkpt lat="45.91142" lon="4.67977">
        <ele>339</ele>
        <time>2019-08-17T10:29:44.000Z</time>
      </trkpt>
      <trkpt lat="45.91146" lon="4.67979">
        <ele>339.39999389648</ele>
        <time>2019-08-17T10:29:45.000Z</time>
      </trkpt>
      <trkpt lat="45.91149" lon="4.6798">
        <ele>339.79998779297</ele>
        <time>2019-08-17T10:29:46.000Z</time>
      </trkpt>
      <trkpt lat="45.91158" lon="4.67984">
        <ele>339.79998779297</ele>
        <time>2019-08-17T10:29:48.000Z</time>
      </trkpt>
      <trkpt lat="45.91176" lon="4.67995">
        <ele>340.20001220703</ele>
        <time>2019-08-17T10:29:53.000Z</time>
      </trkpt>
      <trkpt lat="45.9118" lon="4.67998">
        <ele>340.79998779297</ele>
        <time>2019-08-17T10:29:54.000Z</time>
      </trkpt>
      <trkpt lat="45.91183" lon="4.68">
        <ele>341.20001220703</ele>
        <time>2019-08-17T10:29:55.000Z</time>
      </trkpt>
      <trkpt lat="45.91187" lon="4.68002">
        <ele>341.60000610352</ele>
        <time>2019-08-17T10:29:56.000Z</time>
      </trkpt>
      <trkpt lat="45.91191" lon="4.68004">
        <ele>342</ele>
        <time>2019-08-17T10:29:57.000Z</time>
      </trkpt>
      <trkpt lat="45.91224" lon="4.6802">
        <ele>342.39999389648</ele>
        <time>2019-08-17T10:30:06.000Z</time>
      </trkpt>
      <trkpt lat="45.91228" lon="4.68022">
        <ele>342.79998779297</ele>
        <time>2019-08-17T10:30:07.000Z</time>
      </trkpt>
      <trkpt lat="45.91232" lon="4.68024">
        <ele>343.20001220703</ele>
        <time>2019-08-17T10:30:08.000Z</time>
      </trkpt>
      <trkpt lat="45.91236" lon="4.68026">
        <ele>343.60000610352</ele>
        <time>2019-08-17T10:30:09.000Z</time>
      </trkpt>
      <trkpt lat="45.9124" lon="4.68028">
        <ele>344</ele>
        <time>2019-08-17T10:30:10.000Z</time>
      </trkpt>
      <trkpt lat="45.91252" lon="4.68034">
        <ele>344</ele>
        <time>2019-08-17T10:30:13.000Z</time>
      </trkpt>
      <trkpt lat="45.91286" lon="4.6805">
        <ele>344</ele>
        <time>2019-08-17T10:30:21.000Z</time>
      </trkpt>
      <trkpt lat="45.91308" lon="4.6806">
        <ele>344.39999389648</ele>
        <time>2019-08-17T10:30:26.000Z</time>
      </trkpt>
      <trkpt lat="45.91312" lon="4.68062">
        <ele>344.79998779297</ele>
        <time>2019-08-17T10:30:27.000Z</time>
      </trkpt>
      <trkpt lat="45.91317" lon="4.68064">
        <ele>345.39999389648</ele>
        <time>2019-08-17T10:30:28.000Z</time>
      </trkpt>
      <trkpt lat="45.91321" lon="4.68066">
        <ele>345.79998779297</ele>
        <time>2019-08-17T10:30:29.000Z</time>
      </trkpt>
      <trkpt lat="45.91325" lon="4.68068">
        <ele>346.20001220703</ele>
        <time>2019-08-17T10:30:30.000Z</time>
      </trkpt>
      <trkpt lat="45.91352" lon="4.6808">
        <ele>346.20001220703</ele>
        <time>2019-08-17T10:30:36.000Z</time>
      </trkpt>
      <trkpt lat="45.91384" lon="4.68089">
        <ele>346.20001220703</ele>
        <time>2019-08-17T10:30:43.000Z</time>
      </trkpt>
      <trkpt lat="45.91389" lon="4.68089">
        <ele>346.20001220703</ele>
        <time>2019-08-17T10:30:44.000Z</time>
      </trkpt>
      <trkpt lat="45.91407" lon="4.68087">
        <ele>346.20001220703</ele>
        <time>2019-08-17T10:30:48.000Z</time>
      </trkpt>
      <trkpt lat="45.91426" lon="4.68084">
        <ele>346.20001220703</ele>
        <time>2019-08-17T10:30:52.000Z</time>
      </trkpt>
      <trkpt lat="45.91444" lon="4.68089">
        <ele>346.20001220703</ele>
        <time>2019-08-17T10:30:56.000Z</time>
      </trkpt>
      <trkpt lat="45.91449" lon="4.68091">
        <ele>346.20001220703</ele>
        <time>2019-08-17T10:30:57.000Z</time>
      </trkpt>
      <trkpt lat="45.91476" lon="4.68104">
        <ele>346.20001220703</ele>
        <time>2019-08-17T10:31:02.000Z</time>
      </trkpt>
      <trkpt lat="45.91505" lon="4.68123">
        <ele>345.20001220703</ele>
        <time>2019-08-17T10:31:07.000Z</time>
      </trkpt>
      <trkpt lat="45.91512" lon="4.68127">
        <ele>344.60000610352</ele>
        <time>2019-08-17T10:31:08.000Z</time>
      </trkpt>
      <trkpt lat="45.91519" lon="4.6813">
        <ele>344.20001220703</ele>
        <time>2019-08-17T10:31:09.000Z</time>
      </trkpt>
      <trkpt lat="45.91526" lon="4.68134">
        <ele>343.60000610352</ele>
        <time>2019-08-17T10:31:10.000Z</time>
      </trkpt>
      <trkpt lat="45.91548" lon="4.68145">
        <ele>343.60000610352</ele>
        <time>2019-08-17T10:31:13.000Z</time>
      </trkpt>
      <trkpt lat="45.91556" lon="4.68149">
        <ele>343.20001220703</ele>
        <time>2019-08-17T10:31:14.000Z</time>
      </trkpt>
      <trkpt lat="45.91563" lon="4.68153">
        <ele>342.60000610352</ele>
        <time>2019-08-17T10:31:15.000Z</time>
      </trkpt>
      <trkpt lat="45.9157" lon="4.68157">
        <ele>342.20001220703</ele>
        <time>2019-08-17T10:31:16.000Z</time>
      </trkpt>
      <trkpt lat="45.91578" lon="4.68162">
        <ele>341.60000610352</ele>
        <time>2019-08-17T10:31:17.000Z</time>
      </trkpt>
      <trkpt lat="45.91585" lon="4.68167">
        <ele>341.20001220703</ele>
        <time>2019-08-17T10:31:18.000Z</time>
      </trkpt>
      <trkpt lat="45.91593" lon="4.68172">
        <ele>340.60000610352</ele>
        <time>2019-08-17T10:31:19.000Z</time>
      </trkpt>
      <trkpt lat="45.916" lon="4.68177">
        <ele>340</ele>
        <time>2019-08-17T10:31:20.000Z</time>
      </trkpt>
      <trkpt lat="45.91608" lon="4.68184">
        <ele>339.39999389648</ele>
        <time>2019-08-17T10:31:21.000Z</time>
      </trkpt>
      <trkpt lat="45.91616" lon="4.68191">
        <ele>339</ele>
        <time>2019-08-17T10:31:22.000Z</time>
      </trkpt>
      <trkpt lat="45.91641" lon="4.68208">
        <ele>338.39999389648</ele>
        <time>2019-08-17T10:31:25.000Z</time>
      </trkpt>
      <trkpt lat="45.91649" lon="4.68214">
        <ele>338</ele>
        <time>2019-08-17T10:31:26.000Z</time>
      </trkpt>
      <trkpt lat="45.91658" lon="4.6822">
        <ele>337.39999389648</ele>
        <time>2019-08-17T10:31:27.000Z</time>
      </trkpt>
      <trkpt lat="45.91667" lon="4.68225">
        <ele>337</ele>
        <time>2019-08-17T10:31:28.000Z</time>
      </trkpt>
      <trkpt lat="45.91675" lon="4.68231">
        <ele>336.60000610352</ele>
        <time>2019-08-17T10:31:29.000Z</time>
      </trkpt>
      <trkpt lat="45.917" lon="4.68249">
        <ele>335.60000610352</ele>
        <time>2019-08-17T10:31:32.000Z</time>
      </trkpt>
      <trkpt lat="45.91708" lon="4.68253">
        <ele>335.20001220703</ele>
        <time>2019-08-17T10:31:33.000Z</time>
      </trkpt>
      <trkpt lat="45.91717" lon="4.68256">
        <ele>334.79998779297</ele>
        <time>2019-08-17T10:31:34.000Z</time>
      </trkpt>
      <trkpt lat="45.91725" lon="4.68258">
        <ele>334.20001220703</ele>
        <time>2019-08-17T10:31:35.000Z</time>
      </trkpt>
      <trkpt lat="45.91749" lon="4.68264">
        <ele>334.20001220703</ele>
        <time>2019-08-17T10:31:38.000Z</time>
      </trkpt>
      <trkpt lat="45.91763" lon="4.68268">
        <ele>334.20001220703</ele>
        <time>2019-08-17T10:31:40.000Z</time>
      </trkpt>
      <trkpt lat="45.91782" lon="4.68273">
        <ele>334.20001220703</ele>
        <time>2019-08-17T10:31:43.000Z</time>
      </trkpt>
      <trkpt lat="45.91817" lon="4.68282">
        <ele>334.20001220703</ele>
        <time>2019-08-17T10:31:49.000Z</time>
      </trkpt>
      <trkpt lat="45.91857" lon="4.6829">
        <ele>334.20001220703</ele>
        <time>2019-08-17T10:31:57.000Z</time>
      </trkpt>
      <trkpt lat="45.91862" lon="4.68291">
        <ele>334.20001220703</ele>
        <time>2019-08-17T10:31:58.000Z</time>
      </trkpt>
      <trkpt lat="45.9187" lon="4.68291">
        <ele>334.60000610352</ele>
        <time>2019-08-17T10:32:00.000Z</time>
      </trkpt>
      <trkpt lat="45.91875" lon="4.68291">
        <ele>335.20001220703</ele>
        <time>2019-08-17T10:32:01.000Z</time>
      </trkpt>
      <trkpt lat="45.91879" lon="4.68291">
        <ele>335.60000610352</ele>
        <time>2019-08-17T10:32:02.000Z</time>
      </trkpt>
      <trkpt lat="45.91883" lon="4.68291">
        <ele>336</ele>
        <time>2019-08-17T10:32:03.000Z</time>
      </trkpt>
      <trkpt lat="45.91887" lon="4.68291">
        <ele>336.39999389648</ele>
        <time>2019-08-17T10:32:04.000Z</time>
      </trkpt>
      <trkpt lat="45.91907" lon="4.68292">
        <ele>336.39999389648</ele>
        <time>2019-08-17T10:32:08.000Z</time>
      </trkpt>
      <trkpt lat="45.91912" lon="4.68293">
        <ele>336.79998779297</ele>
        <time>2019-08-17T10:32:09.000Z</time>
      </trkpt>
      <trkpt lat="45.91918" lon="4.68294">
        <ele>337.20001220703</ele>
        <time>2019-08-17T10:32:10.000Z</time>
      </trkpt>
      <trkpt lat="45.91923" lon="4.68295">
        <ele>337.60000610352</ele>
        <time>2019-08-17T10:32:11.000Z</time>
      </trkpt>
      <trkpt lat="45.91929" lon="4.68296">
        <ele>338</ele>
        <time>2019-08-17T10:32:12.000Z</time>
      </trkpt>
      <trkpt lat="45.91935" lon="4.68298">
        <ele>338.39999389648</ele>
        <time>2019-08-17T10:32:13.000Z</time>
      </trkpt>
      <trkpt lat="45.91949" lon="4.683">
        <ele>338.39999389648</ele>
        <time>2019-08-17T10:32:15.000Z</time>
      </trkpt>
      <trkpt lat="45.91956" lon="4.68302">
        <ele>339</ele>
        <time>2019-08-17T10:32:16.000Z</time>
      </trkpt>
      <trkpt lat="45.91962" lon="4.68304">
        <ele>339.39999389648</ele>
        <time>2019-08-17T10:32:17.000Z</time>
      </trkpt>
      <trkpt lat="45.91969" lon="4.68306">
        <ele>339.79998779297</ele>
        <time>2019-08-17T10:32:18.000Z</time>
      </trkpt>
      <trkpt lat="45.91975" lon="4.68308">
        <ele>340.39999389648</ele>
        <time>2019-08-17T10:32:19.000Z</time>
      </trkpt>
      <trkpt lat="45.91981" lon="4.68309">
        <ele>340.79998779297</ele>
        <time>2019-08-17T10:32:20.000Z</time>
      </trkpt>
      <trkpt lat="45.91987" lon="4.68311">
        <ele>340.79998779297</ele>
        <time>2019-08-17T10:32:21.000Z</time>
      </trkpt>
      <trkpt lat="45.91993" lon="4.68313">
        <ele>341.79998779297</ele>
        <time>2019-08-17T10:32:22.000Z</time>
      </trkpt>
      <trkpt lat="45.91997" lon="4.68315">
        <ele>342.20001220703</ele>
        <time>2019-08-17T10:32:23.000Z</time>
      </trkpt>
      <trkpt lat="45.92002" lon="4.68317">
        <ele>342.60000610352</ele>
        <time>2019-08-17T10:32:24.000Z</time>
      </trkpt>
      <trkpt lat="45.92007" lon="4.68319">
        <ele>343.20001220703</ele>
        <time>2019-08-17T10:32:25.000Z</time>
      </trkpt>
      <trkpt lat="45.92012" lon="4.68319">
        <ele>343.20001220703</ele>
        <time>2019-08-17T10:32:26.000Z</time>
      </trkpt>
      <trkpt lat="45.92021" lon="4.68318">
        <ele>343.20001220703</ele>
        <time>2019-08-17T10:32:28.000Z</time>
      </trkpt>
      <trkpt lat="45.92042" lon="4.68321">
        <ele>343.20001220703</ele>
        <time>2019-08-17T10:32:32.000Z</time>
      </trkpt>
      <trkpt lat="45.92089" lon="4.68334">
        <ele>343.20001220703</ele>
        <time>2019-08-17T10:32:40.000Z</time>
      </trkpt>
      <trkpt lat="45.92106" lon="4.68341">
        <ele>343.20001220703</ele>
        <time>2019-08-17T10:32:43.000Z</time>
      </trkpt>
      <trkpt lat="45.92118" lon="4.68348">
        <ele>343.20001220703</ele>
        <time>2019-08-17T10:32:45.000Z</time>
      </trkpt>
      <trkpt lat="45.92149" lon="4.68375">
        <ele>343.20001220703</ele>
        <time>2019-08-17T10:32:51.000Z</time>
      </trkpt>
      <trkpt lat="45.92168" lon="4.68396">
        <ele>343.20001220703</ele>
        <time>2019-08-17T10:32:55.000Z</time>
      </trkpt>
      <trkpt lat="45.92172" lon="4.68403">
        <ele>343.20001220703</ele>
        <time>2019-08-17T10:32:56.000Z</time>
      </trkpt>
      <trkpt lat="45.92187" lon="4.6842">
        <ele>343.20001220703</ele>
        <time>2019-08-17T10:32:59.000Z</time>
      </trkpt>
      <trkpt lat="45.92199" lon="4.68426">
        <ele>343.20001220703</ele>
        <time>2019-08-17T10:33:01.000Z</time>
      </trkpt>
      <trkpt lat="45.92217" lon="4.68438">
        <ele>343.20001220703</ele>
        <time>2019-08-17T10:33:04.000Z</time>
      </trkpt>
      <trkpt lat="45.92228" lon="4.68448">
        <ele>343.20001220703</ele>
        <time>2019-08-17T10:33:06.000Z</time>
      </trkpt>
      <trkpt lat="45.92239" lon="4.6846">
        <ele>343.60000610352</ele>
        <time>2019-08-17T10:33:08.000Z</time>
      </trkpt>
      <trkpt lat="45.92244" lon="4.68465">
        <ele>344</ele>
        <time>2019-08-17T10:33:09.000Z</time>
      </trkpt>
      <trkpt lat="45.9225" lon="4.68471">
        <ele>344.60000610352</ele>
        <time>2019-08-17T10:33:10.000Z</time>
      </trkpt>
      <trkpt lat="45.92255" lon="4.68476">
        <ele>345</ele>
        <time>2019-08-17T10:33:11.000Z</time>
      </trkpt>
      <trkpt lat="45.92261" lon="4.68482">
        <ele>345.39999389648</ele>
        <time>2019-08-17T10:33:12.000Z</time>
      </trkpt>
      <trkpt lat="45.92266" lon="4.68488">
        <ele>345.39999389648</ele>
        <time>2019-08-17T10:33:13.000Z</time>
      </trkpt>
      <trkpt lat="45.92311" lon="4.68532">
        <ele>345.39999389648</ele>
        <time>2019-08-17T10:33:21.000Z</time>
      </trkpt>
      <trkpt lat="45.92355" lon="4.68567">
        <ele>345.39999389648</ele>
        <time>2019-08-17T10:33:28.000Z</time>
      </trkpt>
      <trkpt lat="45.92391" lon="4.6859">
        <ele>345.39999389648</ele>
        <time>2019-08-17T10:33:33.000Z</time>
      </trkpt>
      <trkpt lat="45.92399" lon="4.68595">
        <ele>345.39999389648</ele>
        <time>2019-08-17T10:33:34.000Z</time>
      </trkpt>
      <trkpt lat="45.92424" lon="4.68607">
        <ele>345</ele>
        <time>2019-08-17T10:33:37.000Z</time>
      </trkpt>
      <trkpt lat="45.92433" lon="4.68612">
        <ele>344.39999389648</ele>
        <time>2019-08-17T10:33:38.000Z</time>
      </trkpt>
      <trkpt lat="45.92441" lon="4.68617">
        <ele>344</ele>
        <time>2019-08-17T10:33:39.000Z</time>
      </trkpt>
      <trkpt lat="45.9245" lon="4.68621">
        <ele>343.60000610352</ele>
        <time>2019-08-17T10:33:40.000Z</time>
      </trkpt>
      <trkpt lat="45.92458" lon="4.68625">
        <ele>343</ele>
        <time>2019-08-17T10:33:41.000Z</time>
      </trkpt>
      <trkpt lat="45.92491" lon="4.68639">
        <ele>343</ele>
        <time>2019-08-17T10:33:45.000Z</time>
      </trkpt>
      <trkpt lat="45.92498" lon="4.68642">
        <ele>342.60000610352</ele>
        <time>2019-08-17T10:33:46.000Z</time>
      </trkpt>
      <trkpt lat="45.92506" lon="4.68644">
        <ele>342.20001220703</ele>
        <time>2019-08-17T10:33:47.000Z</time>
      </trkpt>
      <trkpt lat="45.92514" lon="4.68645">
        <ele>341.79998779297</ele>
        <time>2019-08-17T10:33:48.000Z</time>
      </trkpt>
      <trkpt lat="45.92522" lon="4.68647">
        <ele>341.20001220703</ele>
        <time>2019-08-17T10:33:49.000Z</time>
      </trkpt>
      <trkpt lat="45.92531" lon="4.68649">
        <ele>340.60000610352</ele>
        <time>2019-08-17T10:33:50.000Z</time>
      </trkpt>
      <trkpt lat="45.92538" lon="4.68652">
        <ele>340</ele>
        <time>2019-08-17T10:33:51.000Z</time>
      </trkpt>
      <trkpt lat="45.92547" lon="4.68653">
        <ele>339.20001220703</ele>
        <time>2019-08-17T10:33:52.000Z</time>
      </trkpt>
      <trkpt lat="45.92554" lon="4.68654">
        <ele>338.60000610352</ele>
        <time>2019-08-17T10:33:53.000Z</time>
      </trkpt>
      <trkpt lat="45.92561" lon="4.68654">
        <ele>338</ele>
        <time>2019-08-17T10:33:54.000Z</time>
      </trkpt>
      <trkpt lat="45.92567" lon="4.68651">
        <ele>337.20001220703</ele>
        <time>2019-08-17T10:33:55.000Z</time>
      </trkpt>
      <trkpt lat="45.92574" lon="4.68647">
        <ele>336.60000610352</ele>
        <time>2019-08-17T10:33:56.000Z</time>
      </trkpt>
      <trkpt lat="45.9258" lon="4.68643">
        <ele>336.20001220703</ele>
        <time>2019-08-17T10:33:57.000Z</time>
      </trkpt>
      <trkpt lat="45.92586" lon="4.6864">
        <ele>335.39999389648</ele>
        <time>2019-08-17T10:33:58.000Z</time>
      </trkpt>
      <trkpt lat="45.92591" lon="4.68637">
        <ele>334.60000610352</ele>
        <time>2019-08-17T10:33:59.000Z</time>
      </trkpt>
      <trkpt lat="45.92596" lon="4.68635">
        <ele>333.79998779297</ele>
        <time>2019-08-17T10:34:00.000Z</time>
      </trkpt>
      <trkpt lat="45.92601" lon="4.68633">
        <ele>333</ele>
        <time>2019-08-17T10:34:01.000Z</time>
      </trkpt>
      <trkpt lat="45.92604" lon="4.68632">
        <ele>331.79998779297</ele>
        <time>2019-08-17T10:34:02.000Z</time>
      </trkpt>
      <trkpt lat="45.92606" lon="4.68632">
        <ele>331.39999389648</ele>
        <time>2019-08-17T10:34:03.000Z</time>
      </trkpt>
      <trkpt lat="45.92609" lon="4.68631">
        <ele>331</ele>
        <time>2019-08-17T10:34:04.000Z</time>
      </trkpt>
      <trkpt lat="45.92611" lon="4.6863">
        <ele>330.60000610352</ele>
        <time>2019-08-17T10:34:05.000Z</time>
      </trkpt>
      <trkpt lat="45.92614" lon="4.68628">
        <ele>330.20001220703</ele>
        <time>2019-08-17T10:34:06.000Z</time>
      </trkpt>
      <trkpt lat="45.92618" lon="4.68626">
        <ele>330.20001220703</ele>
        <time>2019-08-17T10:34:07.000Z</time>
      </trkpt>
      <trkpt lat="45.92622" lon="4.68624">
        <ele>330.20001220703</ele>
        <time>2019-08-17T10:34:08.000Z</time>
      </trkpt>
      <trkpt lat="45.9263" lon="4.68621">
        <ele>329.60000610352</ele>
        <time>2019-08-17T10:34:10.000Z</time>
      </trkpt>
      <trkpt lat="45.92634" lon="4.68619">
        <ele>329.20001220703</ele>
        <time>2019-08-17T10:34:11.000Z</time>
      </trkpt>
      <trkpt lat="45.92639" lon="4.68619">
        <ele>328.79998779297</ele>
        <time>2019-08-17T10:34:12.000Z</time>
      </trkpt>
      <trkpt lat="45.92643" lon="4.68617">
        <ele>328.39999389648</ele>
        <time>2019-08-17T10:34:13.000Z</time>
      </trkpt>
      <trkpt lat="45.92647" lon="4.68615">
        <ele>328</ele>
        <time>2019-08-17T10:34:14.000Z</time>
      </trkpt>
      <trkpt lat="45.9266" lon="4.6861">
        <ele>328</ele>
        <time>2019-08-17T10:34:17.000Z</time>
      </trkpt>
      <trkpt lat="45.92675" lon="4.68603">
        <ele>328</ele>
        <time>2019-08-17T10:34:21.000Z</time>
      </trkpt>
      <trkpt lat="45.92683" lon="4.68599">
        <ele>328</ele>
        <time>2019-08-17T10:34:23.000Z</time>
      </trkpt>
      <trkpt lat="45.92709" lon="4.68587">
        <ele>328</ele>
        <time>2019-08-17T10:34:30.000Z</time>
      </trkpt>
      <trkpt lat="45.92734" lon="4.68577">
        <ele>328</ele>
        <time>2019-08-17T10:34:36.000Z</time>
      </trkpt>
      <trkpt lat="45.92738" lon="4.68575">
        <ele>328</ele>
        <time>2019-08-17T10:34:37.000Z</time>
      </trkpt>
      <trkpt lat="45.92743" lon="4.68574">
        <ele>327.60000610352</ele>
        <time>2019-08-17T10:34:38.000Z</time>
      </trkpt>
      <trkpt lat="45.92747" lon="4.68572">
        <ele>327.20001220703</ele>
        <time>2019-08-17T10:34:39.000Z</time>
      </trkpt>
      <trkpt lat="45.92752" lon="4.68572">
        <ele>326.79998779297</ele>
        <time>2019-08-17T10:34:40.000Z</time>
      </trkpt>
      <trkpt lat="45.92757" lon="4.68571">
        <ele>326.39999389648</ele>
        <time>2019-08-17T10:34:41.000Z</time>
      </trkpt>
      <trkpt lat="45.92762" lon="4.68572">
        <ele>326</ele>
        <time>2019-08-17T10:34:42.000Z</time>
      </trkpt>
      <trkpt lat="45.92773" lon="4.68573">
        <ele>326</ele>
        <time>2019-08-17T10:34:44.000Z</time>
      </trkpt>
      <trkpt lat="45.92784" lon="4.68574">
        <ele>326</ele>
        <time>2019-08-17T10:34:46.000Z</time>
      </trkpt>
      <trkpt lat="45.92812" lon="4.68579">
        <ele>325.60000610352</ele>
        <time>2019-08-17T10:34:51.000Z</time>
      </trkpt>
      <trkpt lat="45.92817" lon="4.6858">
        <ele>325.20001220703</ele>
        <time>2019-08-17T10:34:52.000Z</time>
      </trkpt>
      <trkpt lat="45.92822" lon="4.68581">
        <ele>324.60000610352</ele>
        <time>2019-08-17T10:34:53.000Z</time>
      </trkpt>
      <trkpt lat="45.92828" lon="4.68582">
        <ele>324.20001220703</ele>
        <time>2019-08-17T10:34:54.000Z</time>
      </trkpt>
      <trkpt lat="45.92833" lon="4.68583">
        <ele>323.79998779297</ele>
        <time>2019-08-17T10:34:55.000Z</time>
      </trkpt>
      <trkpt lat="45.92862" lon="4.68589">
        <ele>323.79998779297</ele>
        <time>2019-08-17T10:35:00.000Z</time>
      </trkpt>
      <trkpt lat="45.92881" lon="4.68592">
        <ele>323.79998779297</ele>
        <time>2019-08-17T10:35:03.000Z</time>
      </trkpt>
      <trkpt lat="45.92887" lon="4.68593">
        <ele>323.39999389648</ele>
        <time>2019-08-17T10:35:04.000Z</time>
      </trkpt>
      <trkpt lat="45.92893" lon="4.68594">
        <ele>323</ele>
        <time>2019-08-17T10:35:05.000Z</time>
      </trkpt>
      <trkpt lat="45.929" lon="4.68596">
        <ele>322.60000610352</ele>
        <time>2019-08-17T10:35:06.000Z</time>
      </trkpt>
      <trkpt lat="45.92906" lon="4.68597">
        <ele>322.20001220703</ele>
        <time>2019-08-17T10:35:07.000Z</time>
      </trkpt>
      <trkpt lat="45.92912" lon="4.68598">
        <ele>321.79998779297</ele>
        <time>2019-08-17T10:35:08.000Z</time>
      </trkpt>
      <trkpt lat="45.9294" lon="4.68603">
        <ele>321.79998779297</ele>
        <time>2019-08-17T10:35:12.000Z</time>
      </trkpt>
      <trkpt lat="45.9296" lon="4.68606">
        <ele>321.39999389648</ele>
        <time>2019-08-17T10:35:15.000Z</time>
      </trkpt>
      <trkpt lat="45.92968" lon="4.68607">
        <ele>320.39999389648</ele>
        <time>2019-08-17T10:35:16.000Z</time>
      </trkpt>
      <trkpt lat="45.92975" lon="4.68609">
        <ele>320</ele>
        <time>2019-08-17T10:35:17.000Z</time>
      </trkpt>
      <trkpt lat="45.92982" lon="4.6861">
        <ele>319.60000610352</ele>
        <time>2019-08-17T10:35:18.000Z</time>
      </trkpt>
      <trkpt lat="45.9301" lon="4.68616">
        <ele>319.60000610352</ele>
        <time>2019-08-17T10:35:22.000Z</time>
      </trkpt>
      <trkpt lat="45.93047" lon="4.68624">
        <ele>319.20001220703</ele>
        <time>2019-08-17T10:35:27.000Z</time>
      </trkpt>
      <trkpt lat="45.93054" lon="4.68626">
        <ele>318.79998779297</ele>
        <time>2019-08-17T10:35:28.000Z</time>
      </trkpt>
      <trkpt lat="45.93061" lon="4.68627">
        <ele>318.39999389648</ele>
        <time>2019-08-17T10:35:29.000Z</time>
      </trkpt>
      <trkpt lat="45.93069" lon="4.68629">
        <ele>318</ele>
        <time>2019-08-17T10:35:30.000Z</time>
      </trkpt>
      <trkpt lat="45.93076" lon="4.68631">
        <ele>317.39999389648</ele>
        <time>2019-08-17T10:35:31.000Z</time>
      </trkpt>
      <trkpt lat="45.93108" lon="4.68638">
        <ele>317</ele>
        <time>2019-08-17T10:35:35.000Z</time>
      </trkpt>
      <trkpt lat="45.93117" lon="4.6864">
        <ele>316.60000610352</ele>
        <time>2019-08-17T10:35:36.000Z</time>
      </trkpt>
      <trkpt lat="45.93125" lon="4.68642">
        <ele>316.20001220703</ele>
        <time>2019-08-17T10:35:37.000Z</time>
      </trkpt>
      <trkpt lat="45.93134" lon="4.68644">
        <ele>315.60000610352</ele>
        <time>2019-08-17T10:35:38.000Z</time>
      </trkpt>
      <trkpt lat="45.93143" lon="4.68646">
        <ele>315</ele>
        <time>2019-08-17T10:35:39.000Z</time>
      </trkpt>
      <trkpt lat="45.93152" lon="4.68648">
        <ele>314</ele>
        <time>2019-08-17T10:35:40.000Z</time>
      </trkpt>
      <trkpt lat="45.93161" lon="4.6865">
        <ele>313.39999389648</ele>
        <time>2019-08-17T10:35:41.000Z</time>
      </trkpt>
      <trkpt lat="45.9318" lon="4.68655">
        <ele>313</ele>
        <time>2019-08-17T10:35:43.000Z</time>
      </trkpt>
      <trkpt lat="45.93189" lon="4.68657">
        <ele>312.39999389648</ele>
        <time>2019-08-17T10:35:44.000Z</time>
      </trkpt>
      <trkpt lat="45.93198" lon="4.68659">
        <ele>312</ele>
        <time>2019-08-17T10:35:45.000Z</time>
      </trkpt>
      <trkpt lat="45.93208" lon="4.68661">
        <ele>311.60000610352</ele>
        <time>2019-08-17T10:35:46.000Z</time>
      </trkpt>
      <trkpt lat="45.93217" lon="4.68663">
        <ele>311.20001220703</ele>
        <time>2019-08-17T10:35:47.000Z</time>
      </trkpt>
      <trkpt lat="45.93237" lon="4.68668">
        <ele>310.79998779297</ele>
        <time>2019-08-17T10:35:49.000Z</time>
      </trkpt>
      <trkpt lat="45.93246" lon="4.68671">
        <ele>310.20001220703</ele>
        <time>2019-08-17T10:35:50.000Z</time>
      </trkpt>
      <trkpt lat="45.93256" lon="4.68673">
        <ele>309.79998779297</ele>
        <time>2019-08-17T10:35:51.000Z</time>
      </trkpt>
      <trkpt lat="45.93266" lon="4.68676">
        <ele>309.39999389648</ele>
        <time>2019-08-17T10:35:52.000Z</time>
      </trkpt>
      <trkpt lat="45.93275" lon="4.68678">
        <ele>308.79998779297</ele>
        <time>2019-08-17T10:35:53.000Z</time>
      </trkpt>
      <trkpt lat="45.93305" lon="4.68685">
        <ele>308.79998779297</ele>
        <time>2019-08-17T10:35:56.000Z</time>
      </trkpt>
      <trkpt lat="45.93365" lon="4.68699">
        <ele>308.79998779297</ele>
        <time>2019-08-17T10:36:02.000Z</time>
      </trkpt>
      <trkpt lat="45.93385" lon="4.68705">
        <ele>308.39999389648</ele>
        <time>2019-08-17T10:36:04.000Z</time>
      </trkpt>
      <trkpt lat="45.93395" lon="4.68707">
        <ele>307.60000610352</ele>
        <time>2019-08-17T10:36:05.000Z</time>
      </trkpt>
      <trkpt lat="45.93405" lon="4.68709">
        <ele>307.20001220703</ele>
        <time>2019-08-17T10:36:06.000Z</time>
      </trkpt>
      <trkpt lat="45.93415" lon="4.68711">
        <ele>306.60000610352</ele>
        <time>2019-08-17T10:36:07.000Z</time>
      </trkpt>
      <trkpt lat="45.93455" lon="4.68721">
        <ele>306.60000610352</ele>
        <time>2019-08-17T10:36:11.000Z</time>
      </trkpt>
      <trkpt lat="45.93514" lon="4.68734">
        <ele>306.60000610352</ele>
        <time>2019-08-17T10:36:17.000Z</time>
      </trkpt>
      <trkpt lat="45.93533" lon="4.68739">
        <ele>306.60000610352</ele>
        <time>2019-08-17T10:36:19.000Z</time>
      </trkpt>
      <trkpt lat="45.93584" lon="4.68752">
        <ele>306.60000610352</ele>
        <time>2019-08-17T10:36:25.000Z</time>
      </trkpt>
      <trkpt lat="45.93631" lon="4.68764">
        <ele>306.60000610352</ele>
        <time>2019-08-17T10:36:31.000Z</time>
      </trkpt>
      <trkpt lat="45.93639" lon="4.68768">
        <ele>306.60000610352</ele>
        <time>2019-08-17T10:36:32.000Z</time>
      </trkpt>
      <trkpt lat="45.93655" lon="4.68774">
        <ele>306.60000610352</ele>
        <time>2019-08-17T10:36:34.000Z</time>
      </trkpt>
      <trkpt lat="45.93663" lon="4.68774">
        <ele>306.60000610352</ele>
        <time>2019-08-17T10:36:35.000Z</time>
      </trkpt>
      <trkpt lat="45.93689" lon="4.6878">
        <ele>306.60000610352</ele>
        <time>2019-08-17T10:36:38.000Z</time>
      </trkpt>
      <trkpt lat="45.93697" lon="4.68782">
        <ele>306.60000610352</ele>
        <time>2019-08-17T10:36:39.000Z</time>
      </trkpt>
      <trkpt lat="45.93753" lon="4.68797">
        <ele>306.60000610352</ele>
        <time>2019-08-17T10:36:46.000Z</time>
      </trkpt>
      <trkpt lat="45.938" lon="4.68816">
        <ele>306.60000610352</ele>
        <time>2019-08-17T10:36:52.000Z</time>
      </trkpt>
      <trkpt lat="45.93828" lon="4.68834">
        <ele>306.20001220703</ele>
        <time>2019-08-17T10:36:56.000Z</time>
      </trkpt>
      <trkpt lat="45.93835" lon="4.68839">
        <ele>305.60000610352</ele>
        <time>2019-08-17T10:36:57.000Z</time>
      </trkpt>
      <trkpt lat="45.93842" lon="4.68843">
        <ele>305.20001220703</ele>
        <time>2019-08-17T10:36:58.000Z</time>
      </trkpt>
      <trkpt lat="45.93848" lon="4.68848">
        <ele>304.60000610352</ele>
        <time>2019-08-17T10:36:59.000Z</time>
      </trkpt>
      <trkpt lat="45.93855" lon="4.68852">
        <ele>304.20001220703</ele>
        <time>2019-08-17T10:37:00.000Z</time>
      </trkpt>
      <trkpt lat="45.93888" lon="4.68875">
        <ele>304.20001220703</ele>
        <time>2019-08-17T10:37:05.000Z</time>
      </trkpt>
      <trkpt lat="45.93909" lon="4.68884">
        <ele>304.20001220703</ele>
        <time>2019-08-17T10:37:08.000Z</time>
      </trkpt>
      <trkpt lat="45.93917" lon="4.68887">
        <ele>304.20001220703</ele>
        <time>2019-08-17T10:37:09.000Z</time>
      </trkpt>
      <trkpt lat="45.93958" lon="4.689">
        <ele>304.20001220703</ele>
        <time>2019-08-17T10:37:15.000Z</time>
      </trkpt>
      <trkpt lat="45.94006" lon="4.68918">
        <ele>304.20001220703</ele>
        <time>2019-08-17T10:37:22.000Z</time>
      </trkpt>
      <trkpt lat="45.9405" lon="4.68937">
        <ele>304.20001220703</ele>
        <time>2019-08-17T10:37:28.000Z</time>
      </trkpt>
      <trkpt lat="45.94072" lon="4.68951">
        <ele>304.20001220703</ele>
        <time>2019-08-17T10:37:31.000Z</time>
      </trkpt>
      <trkpt lat="45.9408" lon="4.68952">
        <ele>304.20001220703</ele>
        <time>2019-08-17T10:37:32.000Z</time>
      </trkpt>
      <trkpt lat="45.94114" lon="4.68959">
        <ele>304.20001220703</ele>
        <time>2019-08-17T10:37:36.000Z</time>
      </trkpt>
      <trkpt lat="45.94164" lon="4.68976">
        <ele>304.20001220703</ele>
        <time>2019-08-17T10:37:42.000Z</time>
      </trkpt>
      <trkpt lat="45.94208" lon="4.68989">
        <ele>303.60000610352</ele>
        <time>2019-08-17T10:37:47.000Z</time>
      </trkpt>
      <trkpt lat="45.94217" lon="4.68991">
        <ele>303.20001220703</ele>
        <time>2019-08-17T10:37:48.000Z</time>
      </trkpt>
      <trkpt lat="45.94226" lon="4.68993">
        <ele>302.79998779297</ele>
        <time>2019-08-17T10:37:49.000Z</time>
      </trkpt>
      <trkpt lat="45.94235" lon="4.68995">
        <ele>302.20001220703</ele>
        <time>2019-08-17T10:37:50.000Z</time>
      </trkpt>
      <trkpt lat="45.94244" lon="4.68997">
        <ele>301.79998779297</ele>
        <time>2019-08-17T10:37:51.000Z</time>
      </trkpt>
      <trkpt lat="45.94299" lon="4.69007">
        <ele>301.79998779297</ele>
        <time>2019-08-17T10:37:57.000Z</time>
      </trkpt>
      <trkpt lat="45.94308" lon="4.69007">
        <ele>301.79998779297</ele>
        <time>2019-08-17T10:37:58.000Z</time>
      </trkpt>
      <trkpt lat="45.94363" lon="4.69011">
        <ele>301.79998779297</ele>
        <time>2019-08-17T10:38:04.000Z</time>
      </trkpt>
      <trkpt lat="45.94406" lon="4.69012">
        <ele>301.79998779297</ele>
        <time>2019-08-17T10:38:09.000Z</time>
      </trkpt>
      <trkpt lat="45.94451" lon="4.69012">
        <ele>301.79998779297</ele>
        <time>2019-08-17T10:38:15.000Z</time>
      </trkpt>
      <trkpt lat="45.94479" lon="4.69014">
        <ele>302.20001220703</ele>
        <time>2019-08-17T10:38:19.000Z</time>
      </trkpt>
      <trkpt lat="45.94486" lon="4.69015">
        <ele>302.79998779297</ele>
        <time>2019-08-17T10:38:20.000Z</time>
      </trkpt>
      <trkpt lat="45.94493" lon="4.69017">
        <ele>303.20001220703</ele>
        <time>2019-08-17T10:38:21.000Z</time>
      </trkpt>
      <trkpt lat="45.945" lon="4.69019">
        <ele>303.60000610352</ele>
        <time>2019-08-17T10:38:22.000Z</time>
      </trkpt>
      <trkpt lat="45.94507" lon="4.6902">
        <ele>304</ele>
        <time>2019-08-17T10:38:23.000Z</time>
      </trkpt>
      <trkpt lat="45.94544" lon="4.69029">
        <ele>304</ele>
        <time>2019-08-17T10:38:28.000Z</time>
      </trkpt>
      <trkpt lat="45.94595" lon="4.69044">
        <ele>304</ele>
        <time>2019-08-17T10:38:35.000Z</time>
      </trkpt>
      <trkpt lat="45.94624" lon="4.69053">
        <ele>304.39999389648</ele>
        <time>2019-08-17T10:38:39.000Z</time>
      </trkpt>
      <trkpt lat="45.94631" lon="4.69056">
        <ele>304.79998779297</ele>
        <time>2019-08-17T10:38:40.000Z</time>
      </trkpt>
      <trkpt lat="45.94639" lon="4.69058">
        <ele>305.39999389648</ele>
        <time>2019-08-17T10:38:41.000Z</time>
      </trkpt>
      <trkpt lat="45.94646" lon="4.6906">
        <ele>305.79998779297</ele>
        <time>2019-08-17T10:38:42.000Z</time>
      </trkpt>
      <trkpt lat="45.94653" lon="4.69063">
        <ele>306.20001220703</ele>
        <time>2019-08-17T10:38:43.000Z</time>
      </trkpt>
      <trkpt lat="45.9468" lon="4.69072">
        <ele>306.20001220703</ele>
        <time>2019-08-17T10:38:47.000Z</time>
      </trkpt>
      <trkpt lat="45.94686" lon="4.69075">
        <ele>306.20001220703</ele>
        <time>2019-08-17T10:38:48.000Z</time>
      </trkpt>
      <trkpt lat="45.94712" lon="4.69084">
        <ele>306.20001220703</ele>
        <time>2019-08-17T10:38:52.000Z</time>
      </trkpt>
      <trkpt lat="45.94765" lon="4.69101">
        <ele>306.20001220703</ele>
        <time>2019-08-17T10:39:00.000Z</time>
      </trkpt>
      <trkpt lat="45.94807" lon="4.69116">
        <ele>306.20001220703</ele>
        <time>2019-08-17T10:39:06.000Z</time>
      </trkpt>
      <trkpt lat="45.94853" lon="4.69132">
        <ele>306.20001220703</ele>
        <time>2019-08-17T10:39:12.000Z</time>
      </trkpt>
      <trkpt lat="45.94887" lon="4.69145">
        <ele>306.20001220703</ele>
        <time>2019-08-17T10:39:16.000Z</time>
      </trkpt>
      <trkpt lat="45.94895" lon="4.6915">
        <ele>306.20001220703</ele>
        <time>2019-08-17T10:39:17.000Z</time>
      </trkpt>
      <trkpt lat="45.9495" lon="4.69182">
        <ele>306.20001220703</ele>
        <time>2019-08-17T10:39:23.000Z</time>
      </trkpt>
      <trkpt lat="45.94958" lon="4.69189">
        <ele>305.79998779297</ele>
        <time>2019-08-17T10:39:24.000Z</time>
      </trkpt>
      <trkpt lat="45.94967" lon="4.69196">
        <ele>305.20001220703</ele>
        <time>2019-08-17T10:39:25.000Z</time>
      </trkpt>
      <trkpt lat="45.94975" lon="4.69205">
        <ele>304.79998779297</ele>
        <time>2019-08-17T10:39:26.000Z</time>
      </trkpt>
      <trkpt lat="45.94983" lon="4.69212">
        <ele>304.39999389648</ele>
        <time>2019-08-17T10:39:27.000Z</time>
      </trkpt>
      <trkpt lat="45.94993" lon="4.69216">
        <ele>304</ele>
        <time>2019-08-17T10:39:28.000Z</time>
      </trkpt>
      <trkpt lat="45.95013" lon="4.69224">
        <ele>303.60000610352</ele>
        <time>2019-08-17T10:39:30.000Z</time>
      </trkpt>
      <trkpt lat="45.95022" lon="4.69232">
        <ele>303.20001220703</ele>
        <time>2019-08-17T10:39:31.000Z</time>
      </trkpt>
      <trkpt lat="45.95031" lon="4.69239">
        <ele>302.79998779297</ele>
        <time>2019-08-17T10:39:32.000Z</time>
      </trkpt>
      <trkpt lat="45.95039" lon="4.69247">
        <ele>302.20001220703</ele>
        <time>2019-08-17T10:39:33.000Z</time>
      </trkpt>
      <trkpt lat="45.95048" lon="4.69256">
        <ele>301.79998779297</ele>
        <time>2019-08-17T10:39:34.000Z</time>
      </trkpt>
      <trkpt lat="45.95072" lon="4.69282">
        <ele>301.39999389648</ele>
        <time>2019-08-17T10:39:37.000Z</time>
      </trkpt>
      <trkpt lat="45.9508" lon="4.6929">
        <ele>301</ele>
        <time>2019-08-17T10:39:38.000Z</time>
      </trkpt>
      <trkpt lat="45.95087" lon="4.69299">
        <ele>300.60000610352</ele>
        <time>2019-08-17T10:39:39.000Z</time>
      </trkpt>
      <trkpt lat="45.95094" lon="4.69307">
        <ele>300.20001220703</ele>
        <time>2019-08-17T10:39:40.000Z</time>
      </trkpt>
      <trkpt lat="45.95101" lon="4.69315">
        <ele>299.79998779297</ele>
        <time>2019-08-17T10:39:41.000Z</time>
      </trkpt>
      <trkpt lat="45.95115" lon="4.69329">
        <ele>299.39999389648</ele>
        <time>2019-08-17T10:39:43.000Z</time>
      </trkpt>
      <trkpt lat="45.95122" lon="4.69336">
        <ele>299</ele>
        <time>2019-08-17T10:39:45.000Z</time>
      </trkpt>
      <trkpt lat="45.95129" lon="4.69342">
        <ele>298.39999389648</ele>
        <time>2019-08-17T10:39:46.000Z</time>
      </trkpt>
      <trkpt lat="45.95135" lon="4.69349">
        <ele>298</ele>
        <time>2019-08-17T10:39:47.000Z</time>
      </trkpt>
      <trkpt lat="45.95141" lon="4.69355">
        <ele>297.60000610352</ele>
        <time>2019-08-17T10:39:48.000Z</time>
      </trkpt>
      <trkpt lat="45.95163" lon="4.6938">
        <ele>297.60000610352</ele>
        <time>2019-08-17T10:39:52.000Z</time>
      </trkpt>
      <trkpt lat="45.9517" lon="4.69386">
        <ele>297.60000610352</ele>
        <time>2019-08-17T10:39:53.000Z</time>
      </trkpt>
      <trkpt lat="45.95189" lon="4.69401">
        <ele>297.60000610352</ele>
        <time>2019-08-17T10:39:56.000Z</time>
      </trkpt>
      <trkpt lat="45.95203" lon="4.69411">
        <ele>297.60000610352</ele>
        <time>2019-08-17T10:39:58.000Z</time>
      </trkpt>
      <trkpt lat="45.95219" lon="4.69418">
        <ele>297.60000610352</ele>
        <time>2019-08-17T10:40:00.000Z</time>
      </trkpt>
      <trkpt lat="45.9525" lon="4.69432">
        <ele>298</ele>
        <time>2019-08-17T10:40:04.000Z</time>
      </trkpt>
      <trkpt lat="45.95257" lon="4.69436">
        <ele>298.39999389648</ele>
        <time>2019-08-17T10:40:05.000Z</time>
      </trkpt>
      <trkpt lat="45.95264" lon="4.69439">
        <ele>298.79998779297</ele>
        <time>2019-08-17T10:40:06.000Z</time>
      </trkpt>
      <trkpt lat="45.95271" lon="4.69442">
        <ele>299.20001220703</ele>
        <time>2019-08-17T10:40:07.000Z</time>
      </trkpt>
      <trkpt lat="45.95279" lon="4.69445">
        <ele>299.60000610352</ele>
        <time>2019-08-17T10:40:08.000Z</time>
      </trkpt>
      <trkpt lat="45.95298" lon="4.69455">
        <ele>299.60000610352</ele>
        <time>2019-08-17T10:40:11.000Z</time>
      </trkpt>
      <trkpt lat="45.95336" lon="4.69471">
        <ele>299.60000610352</ele>
        <time>2019-08-17T10:40:17.000Z</time>
      </trkpt>
      <trkpt lat="45.95347" lon="4.69479">
        <ele>299.60000610352</ele>
        <time>2019-08-17T10:40:19.000Z</time>
      </trkpt>
      <trkpt lat="45.95364" lon="4.69491">
        <ele>299.60000610352</ele>
        <time>2019-08-17T10:40:22.000Z</time>
      </trkpt>
      <trkpt lat="45.95403" lon="4.6952">
        <ele>299.60000610352</ele>
        <time>2019-08-17T10:40:29.000Z</time>
      </trkpt>
      <trkpt lat="45.95447" lon="4.69543">
        <ele>299.60000610352</ele>
        <time>2019-08-17T10:40:36.000Z</time>
      </trkpt>
      <trkpt lat="45.95475" lon="4.69557">
        <ele>299.20001220703</ele>
        <time>2019-08-17T10:40:40.000Z</time>
      </trkpt>
      <trkpt lat="45.95483" lon="4.6956">
        <ele>298.79998779297</ele>
        <time>2019-08-17T10:40:41.000Z</time>
      </trkpt>
      <trkpt lat="45.9549" lon="4.69563">
        <ele>298.39999389648</ele>
        <time>2019-08-17T10:40:42.000Z</time>
      </trkpt>
      <trkpt lat="45.95498" lon="4.69567">
        <ele>297.79998779297</ele>
        <time>2019-08-17T10:40:43.000Z</time>
      </trkpt>
      <trkpt lat="45.95506" lon="4.6957">
        <ele>297.39999389648</ele>
        <time>2019-08-17T10:40:44.000Z</time>
      </trkpt>
      <trkpt lat="45.95542" lon="4.69586">
        <ele>297</ele>
        <time>2019-08-17T10:40:48.000Z</time>
      </trkpt>
      <trkpt lat="45.95551" lon="4.6959">
        <ele>296.39999389648</ele>
        <time>2019-08-17T10:40:49.000Z</time>
      </trkpt>
      <trkpt lat="45.9556" lon="4.69594">
        <ele>296</ele>
        <time>2019-08-17T10:40:50.000Z</time>
      </trkpt>
      <trkpt lat="45.9557" lon="4.69598">
        <ele>295.39999389648</ele>
        <time>2019-08-17T10:40:51.000Z</time>
      </trkpt>
      <trkpt lat="45.95579" lon="4.69602">
        <ele>295</ele>
        <time>2019-08-17T10:40:52.000Z</time>
      </trkpt>
      <trkpt lat="45.95609" lon="4.69615">
        <ele>295</ele>
        <time>2019-08-17T10:40:55.000Z</time>
      </trkpt>
      <trkpt lat="45.95629" lon="4.69623">
        <ele>294.60000610352</ele>
        <time>2019-08-17T10:40:57.000Z</time>
      </trkpt>
      <trkpt lat="45.9564" lon="4.69627">
        <ele>294.20001220703</ele>
        <time>2019-08-17T10:40:58.000Z</time>
      </trkpt>
      <trkpt lat="45.9565" lon="4.69632">
        <ele>293.79998779297</ele>
        <time>2019-08-17T10:40:59.000Z</time>
      </trkpt>
      <trkpt lat="45.9566" lon="4.69636">
        <ele>293.39999389648</ele>
        <time>2019-08-17T10:41:00.000Z</time>
      </trkpt>
      <trkpt lat="45.95671" lon="4.6964">
        <ele>292.79998779297</ele>
        <time>2019-08-17T10:41:01.000Z</time>
      </trkpt>
      <trkpt lat="45.95681" lon="4.69645">
        <ele>292</ele>
        <time>2019-08-17T10:41:02.000Z</time>
      </trkpt>
      <trkpt lat="45.95691" lon="4.69649">
        <ele>291.60000610352</ele>
        <time>2019-08-17T10:41:03.000Z</time>
      </trkpt>
      <trkpt lat="45.95701" lon="4.69653">
        <ele>291.20001220703</ele>
        <time>2019-08-17T10:41:04.000Z</time>
      </trkpt>
      <trkpt lat="45.95711" lon="4.69656">
        <ele>290.79998779297</ele>
        <time>2019-08-17T10:41:05.000Z</time>
      </trkpt>
      <trkpt lat="45.95731" lon="4.69664">
        <ele>290.79998779297</ele>
        <time>2019-08-17T10:41:07.000Z</time>
      </trkpt>
      <trkpt lat="45.95776" lon="4.69691">
        <ele>290.79998779297</ele>
        <time>2019-08-17T10:41:12.000Z</time>
      </trkpt>
      <trkpt lat="45.95784" lon="4.69698">
        <ele>290.79998779297</ele>
        <time>2019-08-17T10:41:13.000Z</time>
      </trkpt>
      <trkpt lat="45.95798" lon="4.69715">
        <ele>290.79998779297</ele>
        <time>2019-08-17T10:41:15.000Z</time>
      </trkpt>
      <trkpt lat="45.9581" lon="4.69734">
        <ele>290.79998779297</ele>
        <time>2019-08-17T10:41:17.000Z</time>
      </trkpt>
      <trkpt lat="45.95821" lon="4.69751">
        <ele>290.79998779297</ele>
        <time>2019-08-17T10:41:19.000Z</time>
      </trkpt>
      <trkpt lat="45.95843" lon="4.69791">
        <ele>290.79998779297</ele>
        <time>2019-08-17T10:41:24.000Z</time>
      </trkpt>
      <trkpt lat="45.95864" lon="4.69833">
        <ele>290.79998779297</ele>
        <time>2019-08-17T10:41:29.000Z</time>
      </trkpt>
      <trkpt lat="45.95867" lon="4.69843">
        <ele>290.79998779297</ele>
        <time>2019-08-17T10:41:30.000Z</time>
      </trkpt>
      <trkpt lat="45.95878" lon="4.6988">
        <ele>290.79998779297</ele>
        <time>2019-08-17T10:41:34.000Z</time>
      </trkpt>
      <trkpt lat="45.95893" lon="4.69948">
        <ele>290.79998779297</ele>
        <time>2019-08-17T10:41:42.000Z</time>
      </trkpt>
      <trkpt lat="45.95915" lon="4.70016">
        <ele>290.79998779297</ele>
        <time>2019-08-17T10:41:51.000Z</time>
      </trkpt>
      <trkpt lat="45.9594" lon="4.7006">
        <ele>290.79998779297</ele>
        <time>2019-08-17T10:41:58.000Z</time>
      </trkpt>
      <trkpt lat="45.95973" lon="4.701">
        <ele>290.79998779297</ele>
        <time>2019-08-17T10:42:06.000Z</time>
      </trkpt>
      <trkpt lat="45.95998" lon="4.70125">
        <ele>290.79998779297</ele>
        <time>2019-08-17T10:42:12.000Z</time>
      </trkpt>
      <trkpt lat="45.96009" lon="4.70136">
        <ele>290.79998779297</ele>
        <time>2019-08-17T10:42:15.000Z</time>
      </trkpt>
      <trkpt lat="45.96016" lon="4.70143">
        <ele>290.79998779297</ele>
        <time>2019-08-17T10:42:17.000Z</time>
      </trkpt>
      <trkpt lat="45.96027" lon="4.70154">
        <ele>290.79998779297</ele>
        <time>2019-08-17T10:42:22.000Z</time>
      </trkpt>
      <trkpt lat="45.96027" lon="4.70154">
        <ele>290.79998779297</ele>
        <time>2019-08-17T10:42:23.000Z</time>
      </trkpt>
      <trkpt lat="45.96028" lon="4.70155">
        <ele>290.79998779297</ele>
        <time>2019-08-17T10:43:02.000Z</time>
      </trkpt>
      <trkpt lat="45.96029" lon="4.70156">
        <ele>290.79998779297</ele>
        <time>2019-08-17T10:43:03.000Z</time>
      </trkpt>
      <trkpt lat="45.96038" lon="4.70162">
        <ele>290.79998779297</ele>
        <time>2019-08-17T10:43:06.000Z</time>
      </trkpt>
      <trkpt lat="45.96042" lon="4.70166">
        <ele>290.79998779297</ele>
        <time>2019-08-17T10:43:07.000Z</time>
      </trkpt>
      <trkpt lat="45.9607" lon="4.70191">
        <ele>290.79998779297</ele>
        <time>2019-08-17T10:43:13.000Z</time>
      </trkpt>
      <trkpt lat="45.96106" lon="4.70221">
        <ele>290.79998779297</ele>
        <time>2019-08-17T10:43:19.000Z</time>
      </trkpt>
      <trkpt lat="45.96156" lon="4.70269">
        <ele>290.39999389648</ele>
        <time>2019-08-17T10:43:27.000Z</time>
      </trkpt>
      <trkpt lat="45.96162" lon="4.70276">
        <ele>290</ele>
        <time>2019-08-17T10:43:28.000Z</time>
      </trkpt>
      <trkpt lat="45.96168" lon="4.70283">
        <ele>289</ele>
        <time>2019-08-17T10:43:29.000Z</time>
      </trkpt>
      <trkpt lat="45.96174" lon="4.7029">
        <ele>288.60000610352</ele>
        <time>2019-08-17T10:43:30.000Z</time>
      </trkpt>
      <trkpt lat="45.96196" lon="4.70321">
        <ele>288.20001220703</ele>
        <time>2019-08-17T10:43:34.000Z</time>
      </trkpt>
      <trkpt lat="45.96202" lon="4.70329">
        <ele>287.79998779297</ele>
        <time>2019-08-17T10:43:35.000Z</time>
      </trkpt>
      <trkpt lat="45.96207" lon="4.70337">
        <ele>287.39999389648</ele>
        <time>2019-08-17T10:43:36.000Z</time>
      </trkpt>
      <trkpt lat="45.96212" lon="4.70346">
        <ele>287</ele>
        <time>2019-08-17T10:43:37.000Z</time>
      </trkpt>
      <trkpt lat="45.96218" lon="4.70355">
        <ele>286.60000610352</ele>
        <time>2019-08-17T10:43:38.000Z</time>
      </trkpt>
      <trkpt lat="45.96235" lon="4.70381">
        <ele>286.60000610352</ele>
        <time>2019-08-17T10:43:41.000Z</time>
      </trkpt>
      <trkpt lat="45.96246" lon="4.70397">
        <ele>286.20001220703</ele>
        <time>2019-08-17T10:43:43.000Z</time>
      </trkpt>
      <trkpt lat="45.96251" lon="4.70405">
        <ele>285.79998779297</ele>
        <time>2019-08-17T10:43:44.000Z</time>
      </trkpt>
      <trkpt lat="45.96257" lon="4.70413">
        <ele>285.20001220703</ele>
        <time>2019-08-17T10:43:45.000Z</time>
      </trkpt>
      <trkpt lat="45.96262" lon="4.70421">
        <ele>284.79998779297</ele>
        <time>2019-08-17T10:43:46.000Z</time>
      </trkpt>
      <trkpt lat="45.96267" lon="4.70429">
        <ele>284.39999389648</ele>
        <time>2019-08-17T10:43:47.000Z</time>
      </trkpt>
      <trkpt lat="45.96278" lon="4.70445">
        <ele>284.39999389648</ele>
        <time>2019-08-17T10:43:49.000Z</time>
      </trkpt>
      <trkpt lat="45.96306" lon="4.70487">
        <ele>284</ele>
        <time>2019-08-17T10:43:54.000Z</time>
      </trkpt>
      <trkpt lat="45.96313" lon="4.70496">
        <ele>283.39999389648</ele>
        <time>2019-08-17T10:43:55.000Z</time>
      </trkpt>
      <trkpt lat="45.96319" lon="4.70504">
        <ele>283</ele>
        <time>2019-08-17T10:43:56.000Z</time>
      </trkpt>
      <trkpt lat="45.96325" lon="4.70512">
        <ele>282.60000610352</ele>
        <time>2019-08-17T10:43:57.000Z</time>
      </trkpt>
      <trkpt lat="45.96331" lon="4.7052">
        <ele>282</ele>
        <time>2019-08-17T10:43:58.000Z</time>
      </trkpt>
      <trkpt lat="45.96351" lon="4.70545">
        <ele>281.60000610352</ele>
        <time>2019-08-17T10:44:01.000Z</time>
      </trkpt>
      <trkpt lat="45.96358" lon="4.70553">
        <ele>281.20001220703</ele>
        <time>2019-08-17T10:44:02.000Z</time>
      </trkpt>
      <trkpt lat="45.96365" lon="4.70562">
        <ele>280.79998779297</ele>
        <time>2019-08-17T10:44:03.000Z</time>
      </trkpt>
      <trkpt lat="45.96371" lon="4.70571">
        <ele>280.20001220703</ele>
        <time>2019-08-17T10:44:04.000Z</time>
      </trkpt>
      <trkpt lat="45.96378" lon="4.70579">
        <ele>279.79998779297</ele>
        <time>2019-08-17T10:44:05.000Z</time>
      </trkpt>
      <trkpt lat="45.96392" lon="4.70597">
        <ele>279.39999389648</ele>
        <time>2019-08-17T10:44:07.000Z</time>
      </trkpt>
      <trkpt lat="45.96399" lon="4.70605">
        <ele>278.79998779297</ele>
        <time>2019-08-17T10:44:08.000Z</time>
      </trkpt>
      <trkpt lat="45.96407" lon="4.70614">
        <ele>278.39999389648</ele>
        <time>2019-08-17T10:44:09.000Z</time>
      </trkpt>
      <trkpt lat="45.96415" lon="4.70623">
        <ele>278</ele>
        <time>2019-08-17T10:44:10.000Z</time>
      </trkpt>
      <trkpt lat="45.96423" lon="4.70631">
        <ele>277.39999389648</ele>
        <time>2019-08-17T10:44:11.000Z</time>
      </trkpt>
      <trkpt lat="45.9644" lon="4.70649">
        <ele>277.39999389648</ele>
        <time>2019-08-17T10:44:13.000Z</time>
      </trkpt>
      <trkpt lat="45.96449" lon="4.70659">
        <ele>277</ele>
        <time>2019-08-17T10:44:14.000Z</time>
      </trkpt>
      <trkpt lat="45.96457" lon="4.70668">
        <ele>276.39999389648</ele>
        <time>2019-08-17T10:44:15.000Z</time>
      </trkpt>
      <trkpt lat="45.96466" lon="4.70677">
        <ele>275.79998779297</ele>
        <time>2019-08-17T10:44:16.000Z</time>
      </trkpt>
      <trkpt lat="45.96476" lon="4.70686">
        <ele>275.39999389648</ele>
        <time>2019-08-17T10:44:17.000Z</time>
      </trkpt>
      <trkpt lat="45.96486" lon="4.70694">
        <ele>274.39999389648</ele>
        <time>2019-08-17T10:44:18.000Z</time>
      </trkpt>
      <trkpt lat="45.96495" lon="4.70703">
        <ele>273.79998779297</ele>
        <time>2019-08-17T10:44:19.000Z</time>
      </trkpt>
      <trkpt lat="45.96505" lon="4.70711">
        <ele>273.39999389648</ele>
        <time>2019-08-17T10:44:20.000Z</time>
      </trkpt>
      <trkpt lat="45.96515" lon="4.7072">
        <ele>272.79998779297</ele>
        <time>2019-08-17T10:44:21.000Z</time>
      </trkpt>
      <trkpt lat="45.96525" lon="4.70728">
        <ele>272</ele>
        <time>2019-08-17T10:44:22.000Z</time>
      </trkpt>
      <trkpt lat="45.96535" lon="4.70736">
        <ele>271.20001220703</ele>
        <time>2019-08-17T10:44:23.000Z</time>
      </trkpt>
      <trkpt lat="45.96546" lon="4.70745">
        <ele>270.20001220703</ele>
        <time>2019-08-17T10:44:24.000Z</time>
      </trkpt>
      <trkpt lat="45.96557" lon="4.70753">
        <ele>269.20001220703</ele>
        <time>2019-08-17T10:44:25.000Z</time>
      </trkpt>
      <trkpt lat="45.96568" lon="4.70762">
        <ele>268.39999389648</ele>
        <time>2019-08-17T10:44:26.000Z</time>
      </trkpt>
      <trkpt lat="45.96579" lon="4.7077">
        <ele>267.60000610352</ele>
        <time>2019-08-17T10:44:27.000Z</time>
      </trkpt>
      <trkpt lat="45.9659" lon="4.70778">
        <ele>266.60000610352</ele>
        <time>2019-08-17T10:44:28.000Z</time>
      </trkpt>
      <trkpt lat="45.96601" lon="4.70786">
        <ele>266</ele>
        <time>2019-08-17T10:44:29.000Z</time>
      </trkpt>
      <trkpt lat="45.96612" lon="4.70794">
        <ele>265.20001220703</ele>
        <time>2019-08-17T10:44:30.000Z</time>
      </trkpt>
      <trkpt lat="45.96624" lon="4.70802">
        <ele>264.39999389648</ele>
        <time>2019-08-17T10:44:31.000Z</time>
      </trkpt>
      <trkpt lat="45.96636" lon="4.70809">
        <ele>263.60000610352</ele>
        <time>2019-08-17T10:44:32.000Z</time>
      </trkpt>
      <trkpt lat="45.96648" lon="4.70817">
        <ele>263</ele>
        <time>2019-08-17T10:44:33.000Z</time>
      </trkpt>
      <trkpt lat="45.9666" lon="4.70825">
        <ele>262.20001220703</ele>
        <time>2019-08-17T10:44:34.000Z</time>
      </trkpt>
      <trkpt lat="45.96672" lon="4.70833">
        <ele>261.39999389648</ele>
        <time>2019-08-17T10:44:35.000Z</time>
      </trkpt>
      <trkpt lat="45.96683" lon="4.7084">
        <ele>260.60000610352</ele>
        <time>2019-08-17T10:44:36.000Z</time>
      </trkpt>
      <trkpt lat="45.96695" lon="4.70848">
        <ele>259.79998779297</ele>
        <time>2019-08-17T10:44:37.000Z</time>
      </trkpt>
      <trkpt lat="45.96707" lon="4.70856">
        <ele>259</ele>
        <time>2019-08-17T10:44:38.000Z</time>
      </trkpt>
      <trkpt lat="45.96719" lon="4.70864">
        <ele>258.20001220703</ele>
        <time>2019-08-17T10:44:39.000Z</time>
      </trkpt>
      <trkpt lat="45.96731" lon="4.70871">
        <ele>257.39999389648</ele>
        <time>2019-08-17T10:44:40.000Z</time>
      </trkpt>
      <trkpt lat="45.96743" lon="4.7088">
        <ele>256.39999389648</ele>
        <time>2019-08-17T10:44:41.000Z</time>
      </trkpt>
      <trkpt lat="45.96754" lon="4.70888">
        <ele>255.60000610352</ele>
        <time>2019-08-17T10:44:42.000Z</time>
      </trkpt>
      <trkpt lat="45.96766" lon="4.70896">
        <ele>254.60000610352</ele>
        <time>2019-08-17T10:44:43.000Z</time>
      </trkpt>
      <trkpt lat="45.96778" lon="4.70903">
        <ele>254.19999694824</ele>
        <time>2019-08-17T10:44:44.000Z</time>
      </trkpt>
      <trkpt lat="45.96789" lon="4.70911">
        <ele>253.60000610352</ele>
        <time>2019-08-17T10:44:45.000Z</time>
      </trkpt>
      <trkpt lat="45.96801" lon="4.70918">
        <ele>253.19999694824</ele>
        <time>2019-08-17T10:44:46.000Z</time>
      </trkpt>
      <trkpt lat="45.96812" lon="4.70925">
        <ele>252.80000305176</ele>
        <time>2019-08-17T10:44:47.000Z</time>
      </trkpt>
      <trkpt lat="45.96824" lon="4.7093">
        <ele>252.19999694824</ele>
        <time>2019-08-17T10:44:48.000Z</time>
      </trkpt>
      <trkpt lat="45.96836" lon="4.70937">
        <ele>251.80000305176</ele>
        <time>2019-08-17T10:44:49.000Z</time>
      </trkpt>
      <trkpt lat="45.96847" lon="4.70946">
        <ele>251.19999694824</ele>
        <time>2019-08-17T10:44:50.000Z</time>
      </trkpt>
      <trkpt lat="45.96858" lon="4.70954">
        <ele>250.39999389648</ele>
        <time>2019-08-17T10:44:51.000Z</time>
      </trkpt>
      <trkpt lat="45.96869" lon="4.70961">
        <ele>249.80000305176</ele>
        <time>2019-08-17T10:44:52.000Z</time>
      </trkpt>
      <trkpt lat="45.96881" lon="4.70967">
        <ele>249</ele>
        <time>2019-08-17T10:44:53.000Z</time>
      </trkpt>
      <trkpt lat="45.96893" lon="4.70972">
        <ele>248.39999389648</ele>
        <time>2019-08-17T10:44:54.000Z</time>
      </trkpt>
      <trkpt lat="45.96905" lon="4.70976">
        <ele>247.60000610352</ele>
        <time>2019-08-17T10:44:55.000Z</time>
      </trkpt>
      <trkpt lat="45.96918" lon="4.70978">
        <ele>246.80000305176</ele>
        <time>2019-08-17T10:44:56.000Z</time>
      </trkpt>
      <trkpt lat="45.96931" lon="4.70981">
        <ele>246</ele>
        <time>2019-08-17T10:44:57.000Z</time>
      </trkpt>
      <trkpt lat="45.96943" lon="4.70984">
        <ele>245.19999694824</ele>
        <time>2019-08-17T10:44:58.000Z</time>
      </trkpt>
      <trkpt lat="45.96956" lon="4.70986">
        <ele>244.39999389648</ele>
        <time>2019-08-17T10:44:59.000Z</time>
      </trkpt>
      <trkpt lat="45.96969" lon="4.70988">
        <ele>243.60000610352</ele>
        <time>2019-08-17T10:45:00.000Z</time>
      </trkpt>
      <trkpt lat="45.96982" lon="4.7099">
        <ele>243.19999694824</ele>
        <time>2019-08-17T10:45:01.000Z</time>
      </trkpt>
      <trkpt lat="45.96995" lon="4.70991">
        <ele>242.60000610352</ele>
        <time>2019-08-17T10:45:02.000Z</time>
      </trkpt>
      <trkpt lat="45.97007" lon="4.7099">
        <ele>242</ele>
        <time>2019-08-17T10:45:03.000Z</time>
      </trkpt>
      <trkpt lat="45.9702" lon="4.7099">
        <ele>241.39999389648</ele>
        <time>2019-08-17T10:45:04.000Z</time>
      </trkpt>
      <trkpt lat="45.97034" lon="4.70989">
        <ele>241</ele>
        <time>2019-08-17T10:45:05.000Z</time>
      </trkpt>
      <trkpt lat="45.97046" lon="4.70988">
        <ele>240.39999389648</ele>
        <time>2019-08-17T10:45:06.000Z</time>
      </trkpt>
      <trkpt lat="45.97059" lon="4.70987">
        <ele>239.80000305176</ele>
        <time>2019-08-17T10:45:07.000Z</time>
      </trkpt>
      <trkpt lat="45.97071" lon="4.70984">
        <ele>238.19999694824</ele>
        <time>2019-08-17T10:45:08.000Z</time>
      </trkpt>
      <trkpt lat="45.97084" lon="4.70981">
        <ele>237.60000610352</ele>
        <time>2019-08-17T10:45:09.000Z</time>
      </trkpt>
      <trkpt lat="45.97096" lon="4.70977">
        <ele>236.80000305176</ele>
        <time>2019-08-17T10:45:10.000Z</time>
      </trkpt>
      <trkpt lat="45.97109" lon="4.70972">
        <ele>236</ele>
        <time>2019-08-17T10:45:11.000Z</time>
      </trkpt>
      <trkpt lat="45.97122" lon="4.70967">
        <ele>235.39999389648</ele>
        <time>2019-08-17T10:45:12.000Z</time>
      </trkpt>
      <trkpt lat="45.97133" lon="4.70962">
        <ele>234.60000610352</ele>
        <time>2019-08-17T10:45:13.000Z</time>
      </trkpt>
      <trkpt lat="45.97144" lon="4.70958">
        <ele>234</ele>
        <time>2019-08-17T10:45:14.000Z</time>
      </trkpt>
      <trkpt lat="45.97154" lon="4.70953">
        <ele>233.39999389648</ele>
        <time>2019-08-17T10:45:15.000Z</time>
      </trkpt>
      <trkpt lat="45.97163" lon="4.70948">
        <ele>232.39999389648</ele>
        <time>2019-08-17T10:45:16.000Z</time>
      </trkpt>
      <trkpt lat="45.97172" lon="4.70944">
        <ele>231.60000610352</ele>
        <time>2019-08-17T10:45:17.000Z</time>
      </trkpt>
      <trkpt lat="45.97179" lon="4.7094">
        <ele>230.60000610352</ele>
        <time>2019-08-17T10:45:18.000Z</time>
      </trkpt>
      <trkpt lat="45.97186" lon="4.70936">
        <ele>229.80000305176</ele>
        <time>2019-08-17T10:45:19.000Z</time>
      </trkpt>
      <trkpt lat="45.97193" lon="4.70932">
        <ele>228.80000305176</ele>
        <time>2019-08-17T10:45:20.000Z</time>
      </trkpt>
      <trkpt lat="45.97198" lon="4.70928">
        <ele>227.80000305176</ele>
        <time>2019-08-17T10:45:21.000Z</time>
      </trkpt>
      <trkpt lat="45.97203" lon="4.70925">
        <ele>227.19999694824</ele>
        <time>2019-08-17T10:45:22.000Z</time>
      </trkpt>
      <trkpt lat="45.97207" lon="4.7092">
        <ele>226.39999389648</ele>
        <time>2019-08-17T10:45:23.000Z</time>
      </trkpt>
      <trkpt lat="45.97212" lon="4.70915">
        <ele>225.80000305176</ele>
        <time>2019-08-17T10:45:24.000Z</time>
      </trkpt>
      <trkpt lat="45.97217" lon="4.7091">
        <ele>225</ele>
        <time>2019-08-17T10:45:25.000Z</time>
      </trkpt>
      <trkpt lat="45.97222" lon="4.70904">
        <ele>224.60000610352</ele>
        <time>2019-08-17T10:45:26.000Z</time>
      </trkpt>
      <trkpt lat="45.97228" lon="4.70897">
        <ele>224</ele>
        <time>2019-08-17T10:45:27.000Z</time>
      </trkpt>
      <trkpt lat="45.97233" lon="4.70891">
        <ele>223.39999389648</ele>
        <time>2019-08-17T10:45:28.000Z</time>
      </trkpt>
      <trkpt lat="45.97239" lon="4.70883">
        <ele>222.80000305176</ele>
        <time>2019-08-17T10:45:29.000Z</time>
      </trkpt>
      <trkpt lat="45.97244" lon="4.70876">
        <ele>222.39999389648</ele>
        <time>2019-08-17T10:45:30.000Z</time>
      </trkpt>
      <trkpt lat="45.97255" lon="4.70858">
        <ele>221.39999389648</ele>
        <time>2019-08-17T10:45:32.000Z</time>
      </trkpt>
      <trkpt lat="45.97261" lon="4.70849">
        <ele>221</ele>
        <time>2019-08-17T10:45:33.000Z</time>
      </trkpt>
      <trkpt lat="45.97267" lon="4.70841">
        <ele>220.60000610352</ele>
        <time>2019-08-17T10:45:34.000Z</time>
      </trkpt>
      <trkpt lat="45.97273" lon="4.70831">
        <ele>220.19999694824</ele>
        <time>2019-08-17T10:45:35.000Z</time>
      </trkpt>
      <trkpt lat="45.97279" lon="4.70822">
        <ele>219.60000610352</ele>
        <time>2019-08-17T10:45:36.000Z</time>
      </trkpt>
      <trkpt lat="45.97285" lon="4.70814">
        <ele>219.19999694824</ele>
        <time>2019-08-17T10:45:37.000Z</time>
      </trkpt>
      <trkpt lat="45.97292" lon="4.70806">
        <ele>218.60000610352</ele>
        <time>2019-08-17T10:45:38.000Z</time>
      </trkpt>
      <trkpt lat="45.97298" lon="4.70799">
        <ele>218</ele>
        <time>2019-08-17T10:45:39.000Z</time>
      </trkpt>
      <trkpt lat="45.97304" lon="4.70792">
        <ele>217.60000610352</ele>
        <time>2019-08-17T10:45:40.000Z</time>
      </trkpt>
      <trkpt lat="45.97309" lon="4.70786">
        <ele>217</ele>
        <time>2019-08-17T10:45:41.000Z</time>
      </trkpt>
      <trkpt lat="45.97314" lon="4.70781">
        <ele>216.39999389648</ele>
        <time>2019-08-17T10:45:42.000Z</time>
      </trkpt>
      <trkpt lat="45.97318" lon="4.70776">
        <ele>215.80000305176</ele>
        <time>2019-08-17T10:45:43.000Z</time>
      </trkpt>
      <trkpt lat="45.97323" lon="4.70773">
        <ele>215.19999694824</ele>
        <time>2019-08-17T10:45:44.000Z</time>
      </trkpt>
      <trkpt lat="45.97328" lon="4.70771">
        <ele>214.60000610352</ele>
        <time>2019-08-17T10:45:45.000Z</time>
      </trkpt>
      <trkpt lat="45.97334" lon="4.70767">
        <ele>213.80000305176</ele>
        <time>2019-08-17T10:45:46.000Z</time>
      </trkpt>
      <trkpt lat="45.9734" lon="4.70763">
        <ele>213.19999694824</ele>
        <time>2019-08-17T10:45:47.000Z</time>
      </trkpt>
      <trkpt lat="45.97347" lon="4.7076">
        <ele>212.80000305176</ele>
        <time>2019-08-17T10:45:48.000Z</time>
      </trkpt>
      <trkpt lat="45.97354" lon="4.70757">
        <ele>212.19999694824</ele>
        <time>2019-08-17T10:45:49.000Z</time>
      </trkpt>
      <trkpt lat="45.97362" lon="4.70754">
        <ele>211.80000305176</ele>
        <time>2019-08-17T10:45:50.000Z</time>
      </trkpt>
      <trkpt lat="45.97369" lon="4.70751">
        <ele>211.19999694824</ele>
        <time>2019-08-17T10:45:51.000Z</time>
      </trkpt>
      <trkpt lat="45.97376" lon="4.70749">
        <ele>210.80000305176</ele>
        <time>2019-08-17T10:45:52.000Z</time>
      </trkpt>
      <trkpt lat="45.97384" lon="4.70748">
        <ele>210.19999694824</ele>
        <time>2019-08-17T10:45:53.000Z</time>
      </trkpt>
      <trkpt lat="45.97391" lon="4.70748">
        <ele>209.60000610352</ele>
        <time>2019-08-17T10:45:54.000Z</time>
      </trkpt>
      <trkpt lat="45.97398" lon="4.70747">
        <ele>209</ele>
        <time>2019-08-17T10:45:55.000Z</time>
      </trkpt>
      <trkpt lat="45.97406" lon="4.70747">
        <ele>208.39999389648</ele>
        <time>2019-08-17T10:45:56.000Z</time>
      </trkpt>
      <trkpt lat="45.97415" lon="4.70748">
        <ele>207.39999389648</ele>
        <time>2019-08-17T10:45:57.000Z</time>
      </trkpt>
      <trkpt lat="45.97423" lon="4.70749">
        <ele>206.80000305176</ele>
        <time>2019-08-17T10:45:58.000Z</time>
      </trkpt>
      <trkpt lat="45.97432" lon="4.7075">
        <ele>206.39999389648</ele>
        <time>2019-08-17T10:45:59.000Z</time>
      </trkpt>
      <trkpt lat="45.97441" lon="4.70751">
        <ele>205.80000305176</ele>
        <time>2019-08-17T10:46:00.000Z</time>
      </trkpt>
      <trkpt lat="45.9745" lon="4.70752">
        <ele>205.39999389648</ele>
        <time>2019-08-17T10:46:01.000Z</time>
      </trkpt>
      <trkpt lat="45.9746" lon="4.70751">
        <ele>204.80000305176</ele>
        <time>2019-08-17T10:46:02.000Z</time>
      </trkpt>
      <trkpt lat="45.97469" lon="4.70749">
        <ele>204.39999389648</ele>
        <time>2019-08-17T10:46:03.000Z</time>
      </trkpt>
      <trkpt lat="45.97478" lon="4.70747">
        <ele>204</ele>
        <time>2019-08-17T10:46:04.000Z</time>
      </trkpt>
      <trkpt lat="45.97494" lon="4.70742">
        <ele>203.39999389648</ele>
        <time>2019-08-17T10:46:06.000Z</time>
      </trkpt>
      <trkpt lat="45.97503" lon="4.7074">
        <ele>202.80000305176</ele>
        <time>2019-08-17T10:46:07.000Z</time>
      </trkpt>
      <trkpt lat="45.97511" lon="4.70738">
        <ele>202.39999389648</ele>
        <time>2019-08-17T10:46:08.000Z</time>
      </trkpt>
      <trkpt lat="45.97518" lon="4.70736">
        <ele>201.80000305176</ele>
        <time>2019-08-17T10:46:09.000Z</time>
      </trkpt>
      <trkpt lat="45.97525" lon="4.70734">
        <ele>201.19999694824</ele>
        <time>2019-08-17T10:46:10.000Z</time>
      </trkpt>
      <trkpt lat="45.97533" lon="4.70734">
        <ele>200.80000305176</ele>
        <time>2019-08-17T10:46:11.000Z</time>
      </trkpt>
      <trkpt lat="45.97541" lon="4.70733">
        <ele>200.39999389648</ele>
        <time>2019-08-17T10:46:12.000Z</time>
      </trkpt>
      <trkpt lat="45.97548" lon="4.70731">
        <ele>200</ele>
        <time>2019-08-17T10:46:13.000Z</time>
      </trkpt>
      <trkpt lat="45.97555" lon="4.70729">
        <ele>199.60000610352</ele>
        <time>2019-08-17T10:46:14.000Z</time>
      </trkpt>
      <trkpt lat="45.97563" lon="4.70728">
        <ele>199</ele>
        <time>2019-08-17T10:46:15.000Z</time>
      </trkpt>
      <trkpt lat="45.97587" lon="4.70724">
        <ele>198.60000610352</ele>
        <time>2019-08-17T10:46:18.000Z</time>
      </trkpt>
      <trkpt lat="45.97595" lon="4.70726">
        <ele>198.19999694824</ele>
        <time>2019-08-17T10:46:19.000Z</time>
      </trkpt>
      <trkpt lat="45.97604" lon="4.70727">
        <ele>197.80000305176</ele>
        <time>2019-08-17T10:46:20.000Z</time>
      </trkpt>
      <trkpt lat="45.97613" lon="4.70729">
        <ele>197.19999694824</ele>
        <time>2019-08-17T10:46:21.000Z</time>
      </trkpt>
      <trkpt lat="45.97621" lon="4.70733">
        <ele>196</ele>
        <time>2019-08-17T10:46:22.000Z</time>
      </trkpt>
      <trkpt lat="45.9763" lon="4.70737">
        <ele>195.39999389648</ele>
        <time>2019-08-17T10:46:23.000Z</time>
      </trkpt>
      <trkpt lat="45.97639" lon="4.7074">
        <ele>194.80000305176</ele>
        <time>2019-08-17T10:46:24.000Z</time>
      </trkpt>
      <trkpt lat="45.97648" lon="4.70744">
        <ele>194.19999694824</ele>
        <time>2019-08-17T10:46:25.000Z</time>
      </trkpt>
      <trkpt lat="45.97656" lon="4.70748">
        <ele>193.80000305176</ele>
        <time>2019-08-17T10:46:26.000Z</time>
      </trkpt>
      <trkpt lat="45.97665" lon="4.70751">
        <ele>193.39999389648</ele>
        <time>2019-08-17T10:46:27.000Z</time>
      </trkpt>
      <trkpt lat="45.97674" lon="4.70754">
        <ele>193</ele>
        <time>2019-08-17T10:46:28.000Z</time>
      </trkpt>
      <trkpt lat="45.97683" lon="4.70758">
        <ele>192.39999389648</ele>
        <time>2019-08-17T10:46:29.000Z</time>
      </trkpt>
      <trkpt lat="45.97692" lon="4.70761">
        <ele>192</ele>
        <time>2019-08-17T10:46:30.000Z</time>
      </trkpt>
      <trkpt lat="45.97701" lon="4.70764">
        <ele>192</ele>
        <time>2019-08-17T10:46:31.000Z</time>
      </trkpt>
      <trkpt lat="45.97709" lon="4.70768">
        <ele>191.60000610352</ele>
        <time>2019-08-17T10:46:32.000Z</time>
      </trkpt>
      <trkpt lat="45.97719" lon="4.70772">
        <ele>191</ele>
        <time>2019-08-17T10:46:33.000Z</time>
      </trkpt>
      <trkpt lat="45.97728" lon="4.70775">
        <ele>190.60000610352</ele>
        <time>2019-08-17T10:46:34.000Z</time>
      </trkpt>
      <trkpt lat="45.97736" lon="4.70778">
        <ele>190.19999694824</ele>
        <time>2019-08-17T10:46:35.000Z</time>
      </trkpt>
      <trkpt lat="45.97745" lon="4.70781">
        <ele>189.80000305176</ele>
        <time>2019-08-17T10:46:36.000Z</time>
      </trkpt>
      <trkpt lat="45.97753" lon="4.70784">
        <ele>189.19999694824</ele>
        <time>2019-08-17T10:46:37.000Z</time>
      </trkpt>
      <trkpt lat="45.9776" lon="4.70786">
        <ele>188.80000305176</ele>
        <time>2019-08-17T10:46:38.000Z</time>
      </trkpt>
      <trkpt lat="45.97765" lon="4.70787">
        <ele>188.39999389648</ele>
        <time>2019-08-17T10:46:39.000Z</time>
      </trkpt>
      <trkpt lat="45.97769" lon="4.70788">
        <ele>187.80000305176</ele>
        <time>2019-08-17T10:46:40.000Z</time>
      </trkpt>
      <trkpt lat="45.97771" lon="4.70788">
        <ele>187.39999389648</ele>
        <time>2019-08-17T10:46:41.000Z</time>
      </trkpt>
      <trkpt lat="45.97772" lon="4.70788">
        <ele>187.39999389648</ele>
        <time>2019-08-17T10:46:43.000Z</time>
      </trkpt>
      <trkpt lat="45.97772" lon="4.70788">
        <ele>185.39999389648</ele>
        <time>2019-08-17T10:46:49.000Z</time>
      </trkpt>
      <trkpt lat="45.97778" lon="4.70792">
        <ele>185.39999389648</ele>
        <time>2019-08-17T10:46:52.000Z</time>
      </trkpt>
      <trkpt lat="45.97789" lon="4.708">
        <ele>185.39999389648</ele>
        <time>2019-08-17T10:46:55.000Z</time>
      </trkpt>
      <trkpt lat="45.97793" lon="4.708">
        <ele>185.39999389648</ele>
        <time>2019-08-17T10:46:56.000Z</time>
      </trkpt>
      <trkpt lat="45.97807" lon="4.7079">
        <ele>185.39999389648</ele>
        <time>2019-08-17T10:46:59.000Z</time>
      </trkpt>
      <trkpt lat="45.97813" lon="4.7078">
        <ele>185.39999389648</ele>
        <time>2019-08-17T10:47:01.000Z</time>
      </trkpt>
      <trkpt lat="45.9782" lon="4.70772">
        <ele>185.39999389648</ele>
        <time>2019-08-17T10:47:03.000Z</time>
      </trkpt>
      <trkpt lat="45.97825" lon="4.70771">
        <ele>185.39999389648</ele>
        <time>2019-08-17T10:47:04.000Z</time>
      </trkpt>
      <trkpt lat="45.97845" lon="4.70765">
        <ele>185.39999389648</ele>
        <time>2019-08-17T10:47:08.000Z</time>
      </trkpt>
      <trkpt lat="45.9785" lon="4.70763">
        <ele>185.39999389648</ele>
        <time>2019-08-17T10:47:09.000Z</time>
      </trkpt>
      <trkpt lat="45.97877" lon="4.70752">
        <ele>185.39999389648</ele>
        <time>2019-08-17T10:47:14.000Z</time>
      </trkpt>
      <trkpt lat="45.97882" lon="4.70749">
        <ele>185.39999389648</ele>
        <time>2019-08-17T10:47:15.000Z</time>
      </trkpt>
      <trkpt lat="45.9793" lon="4.7073">
        <ele>185.39999389648</ele>
        <time>2019-08-17T10:47:24.000Z</time>
      </trkpt>
      <trkpt lat="45.97947" lon="4.70727">
        <ele>185.39999389648</ele>
        <time>2019-08-17T10:47:27.000Z</time>
      </trkpt>
      <trkpt lat="45.97957" lon="4.7072">
        <ele>185.39999389648</ele>
        <time>2019-08-17T10:47:29.000Z</time>
      </trkpt>
      <trkpt lat="45.97966" lon="4.70711">
        <ele>185.39999389648</ele>
        <time>2019-08-17T10:47:31.000Z</time>
      </trkpt>
      <trkpt lat="45.97984" lon="4.70695">
        <ele>185.39999389648</ele>
        <time>2019-08-17T10:47:35.000Z</time>
      </trkpt>
      <trkpt lat="45.97992" lon="4.70687">
        <ele>185</ele>
        <time>2019-08-17T10:47:37.000Z</time>
      </trkpt>
      <trkpt lat="45.97996" lon="4.70683">
        <ele>184.60000610352</ele>
        <time>2019-08-17T10:47:38.000Z</time>
      </trkpt>
      <trkpt lat="45.98" lon="4.7068">
        <ele>184</ele>
        <time>2019-08-17T10:47:39.000Z</time>
      </trkpt>
      <trkpt lat="45.98004" lon="4.70676">
        <ele>183.60000610352</ele>
        <time>2019-08-17T10:47:40.000Z</time>
      </trkpt>
      <trkpt lat="45.98009" lon="4.70673">
        <ele>183.19999694824</ele>
        <time>2019-08-17T10:47:41.000Z</time>
      </trkpt>
      <trkpt lat="45.98013" lon="4.7067">
        <ele>183.19999694824</ele>
        <time>2019-08-17T10:47:42.000Z</time>
      </trkpt>
      <trkpt lat="45.98043" lon="4.70648">
        <ele>183.19999694824</ele>
        <time>2019-08-17T10:47:48.000Z</time>
      </trkpt>
      <trkpt lat="45.98049" lon="4.70646">
        <ele>183.19999694824</ele>
        <time>2019-08-17T10:47:49.000Z</time>
      </trkpt>
      <trkpt lat="45.98071" lon="4.70632">
        <ele>183.19999694824</ele>
        <time>2019-08-17T10:47:53.000Z</time>
      </trkpt>
      <trkpt lat="45.98082" lon="4.70626">
        <ele>183.19999694824</ele>
        <time>2019-08-17T10:47:55.000Z</time>
      </trkpt>
      <trkpt lat="45.981" lon="4.70615">
        <ele>183.19999694824</ele>
        <time>2019-08-17T10:47:58.000Z</time>
      </trkpt>
      <trkpt lat="45.98133" lon="4.70592">
        <ele>183.19999694824</ele>
        <time>2019-08-17T10:48:04.000Z</time>
      </trkpt>
      <trkpt lat="45.98138" lon="4.70588">
        <ele>183.19999694824</ele>
        <time>2019-08-17T10:48:05.000Z</time>
      </trkpt>
      <trkpt lat="45.98167" lon="4.70567">
        <ele>183.19999694824</ele>
        <time>2019-08-17T10:48:11.000Z</time>
      </trkpt>
      <trkpt lat="45.98188" lon="4.70552">
        <ele>183.19999694824</ele>
        <time>2019-08-17T10:48:17.000Z</time>
      </trkpt>
      <trkpt lat="45.98195" lon="4.70567">
        <ele>183.19999694824</ele>
        <time>2019-08-17T10:48:20.000Z</time>
      </trkpt>
      <trkpt lat="45.98207" lon="4.70599">
        <ele>183.19999694824</ele>
        <time>2019-08-17T10:48:25.000Z</time>
      </trkpt>
      <trkpt lat="45.98222" lon="4.70634">
        <ele>182.80000305176</ele>
        <time>2019-08-17T10:48:31.000Z</time>
      </trkpt>
      <trkpt lat="45.98224" lon="4.70639">
        <ele>182.39999389648</ele>
        <time>2019-08-17T10:48:32.000Z</time>
      </trkpt>
      <trkpt lat="45.98225" lon="4.70645">
        <ele>182</ele>
        <time>2019-08-17T10:48:33.000Z</time>
      </trkpt>
      <trkpt lat="45.98227" lon="4.70652">
        <ele>181.39999389648</ele>
        <time>2019-08-17T10:48:34.000Z</time>
      </trkpt>
      <trkpt lat="45.98228" lon="4.70658">
        <ele>181</ele>
        <time>2019-08-17T10:48:35.000Z</time>
      </trkpt>
      <trkpt lat="45.98228" lon="4.70665">
        <ele>181</ele>
        <time>2019-08-17T10:48:36.000Z</time>
      </trkpt>
      <trkpt lat="45.98228" lon="4.70671">
        <ele>181</ele>
        <time>2019-08-17T10:48:37.000Z</time>
      </trkpt>
      <trkpt lat="45.98231" lon="4.70724">
        <ele>181</ele>
        <time>2019-08-17T10:48:44.000Z</time>
      </trkpt>
      <trkpt lat="45.98232" lon="4.70751">
        <ele>180.60000610352</ele>
        <time>2019-08-17T10:48:47.000Z</time>
      </trkpt>
      <trkpt lat="45.98233" lon="4.70761">
        <ele>180.19999694824</ele>
        <time>2019-08-17T10:48:48.000Z</time>
      </trkpt>
      <trkpt lat="45.98233" lon="4.70771">
        <ele>179.80000305176</ele>
        <time>2019-08-17T10:48:49.000Z</time>
      </trkpt>
      <trkpt lat="45.98234" lon="4.7078">
        <ele>179</ele>
        <time>2019-08-17T10:48:50.000Z</time>
      </trkpt>
      <trkpt lat="45.98237" lon="4.70799">
        <ele>178.39999389648</ele>
        <time>2019-08-17T10:48:52.000Z</time>
      </trkpt>
      <trkpt lat="45.98238" lon="4.70808">
        <ele>178</ele>
        <time>2019-08-17T10:48:53.000Z</time>
      </trkpt>
      <trkpt lat="45.9824" lon="4.70817">
        <ele>177.60000610352</ele>
        <time>2019-08-17T10:48:54.000Z</time>
      </trkpt>
      <trkpt lat="45.98241" lon="4.70826">
        <ele>177.19999694824</ele>
        <time>2019-08-17T10:48:55.000Z</time>
      </trkpt>
      <trkpt lat="45.98243" lon="4.70835">
        <ele>176.60000610352</ele>
        <time>2019-08-17T10:48:56.000Z</time>
      </trkpt>
      <trkpt lat="45.98251" lon="4.70886">
        <ele>176.60000610352</ele>
        <time>2019-08-17T10:49:02.000Z</time>
      </trkpt>
      <trkpt lat="45.98255" lon="4.70901">
        <ele>176.19999694824</ele>
        <time>2019-08-17T10:49:06.000Z</time>
      </trkpt>
      <trkpt lat="45.98256" lon="4.70903">
        <ele>175.80000305176</ele>
        <time>2019-08-17T10:49:07.000Z</time>
      </trkpt>
      <trkpt lat="45.98256" lon="4.70904">
        <ele>175.39999389648</ele>
        <time>2019-08-17T10:49:08.000Z</time>
      </trkpt>
      <trkpt lat="45.98255" lon="4.70905">
        <ele>175</ele>
        <time>2019-08-17T10:49:09.000Z</time>
      </trkpt>
      <trkpt lat="45.98256" lon="4.70904">
        <ele>174.60000610352</ele>
        <time>2019-08-17T10:49:10.000Z</time>
      </trkpt>
      <trkpt lat="45.98255" lon="4.70906">
        <ele>174.60000610352</ele>
        <time>2019-08-17T10:50:59.000Z</time>
      </trkpt>
      <trkpt lat="45.98259" lon="4.70923">
        <ele>174.60000610352</ele>
        <time>2019-08-17T10:51:03.000Z</time>
      </trkpt>
      <trkpt lat="45.98261" lon="4.70943">
        <ele>174.60000610352</ele>
        <time>2019-08-17T10:51:07.000Z</time>
      </trkpt>
      <trkpt lat="45.98272" lon="4.70945">
        <ele>174.60000610352</ele>
        <time>2019-08-17T10:51:10.000Z</time>
      </trkpt>
      <trkpt lat="45.98279" lon="4.70942">
        <ele>174.60000610352</ele>
        <time>2019-08-17T10:51:12.000Z</time>
      </trkpt>
      <trkpt lat="45.9829" lon="4.70941">
        <ele>174.60000610352</ele>
        <time>2019-08-17T10:51:15.000Z</time>
      </trkpt>
      <trkpt lat="45.98302" lon="4.70938">
        <ele>174.60000610352</ele>
        <time>2019-08-17T10:51:18.000Z</time>
      </trkpt>
      <trkpt lat="45.98311" lon="4.70937">
        <ele>174.60000610352</ele>
        <time>2019-08-17T10:51:20.000Z</time>
      </trkpt>
      <trkpt lat="45.98347" lon="4.70934">
        <ele>174.60000610352</ele>
        <time>2019-08-17T10:51:27.000Z</time>
      </trkpt>
      <trkpt lat="45.98378" lon="4.7093">
        <ele>174.60000610352</ele>
        <time>2019-08-17T10:51:32.000Z</time>
      </trkpt>
      <trkpt lat="45.98385" lon="4.7093">
        <ele>174.19999694824</ele>
        <time>2019-08-17T10:51:33.000Z</time>
      </trkpt>
      <trkpt lat="45.98392" lon="4.7093">
        <ele>173.60000610352</ele>
        <time>2019-08-17T10:51:34.000Z</time>
      </trkpt>
      <trkpt lat="45.98399" lon="4.70931">
        <ele>173</ele>
        <time>2019-08-17T10:51:35.000Z</time>
      </trkpt>
      <trkpt lat="45.98407" lon="4.70931">
        <ele>172.60000610352</ele>
        <time>2019-08-17T10:51:36.000Z</time>
      </trkpt>
      <trkpt lat="45.98414" lon="4.7093">
        <ele>172</ele>
        <time>2019-08-17T10:51:37.000Z</time>
      </trkpt>
      <trkpt lat="45.98421" lon="4.70929">
        <ele>171.39999389648</ele>
        <time>2019-08-17T10:51:38.000Z</time>
      </trkpt>
      <trkpt lat="45.98429" lon="4.70928">
        <ele>170.80000305176</ele>
        <time>2019-08-17T10:51:39.000Z</time>
      </trkpt>
      <trkpt lat="45.98436" lon="4.70928">
        <ele>170.39999389648</ele>
        <time>2019-08-17T10:51:40.000Z</time>
      </trkpt>
      <trkpt lat="45.98443" lon="4.70927">
        <ele>169.60000610352</ele>
        <time>2019-08-17T10:51:41.000Z</time>
      </trkpt>
      <trkpt lat="45.98451" lon="4.70926">
        <ele>169</ele>
        <time>2019-08-17T10:51:42.000Z</time>
      </trkpt>
      <trkpt lat="45.98459" lon="4.70927">
        <ele>167.80000305176</ele>
        <time>2019-08-17T10:51:43.000Z</time>
      </trkpt>
      <trkpt lat="45.98468" lon="4.70928">
        <ele>167.19999694824</ele>
        <time>2019-08-17T10:51:44.000Z</time>
      </trkpt>
      <trkpt lat="45.98477" lon="4.7093">
        <ele>166.80000305176</ele>
        <time>2019-08-17T10:51:45.000Z</time>
      </trkpt>
      <trkpt lat="45.98485" lon="4.70934">
        <ele>166.39999389648</ele>
        <time>2019-08-17T10:51:46.000Z</time>
      </trkpt>
      <trkpt lat="45.98494" lon="4.70937">
        <ele>165.80000305176</ele>
        <time>2019-08-17T10:51:47.000Z</time>
      </trkpt>
      <trkpt lat="45.98501" lon="4.70939">
        <ele>165.39999389648</ele>
        <time>2019-08-17T10:51:48.000Z</time>
      </trkpt>
      <trkpt lat="45.98507" lon="4.70942">
        <ele>164.80000305176</ele>
        <time>2019-08-17T10:51:49.000Z</time>
      </trkpt>
      <trkpt lat="45.98509" lon="4.70944">
        <ele>164.19999694824</ele>
        <time>2019-08-17T10:51:50.000Z</time>
      </trkpt>
      <trkpt lat="45.98511" lon="4.70946">
        <ele>163.60000610352</ele>
        <time>2019-08-17T10:51:51.000Z</time>
      </trkpt>
      <trkpt lat="45.98511" lon="4.70945">
        <ele>162.80000305176</ele>
        <time>2019-08-17T10:51:52.000Z</time>
      </trkpt>
      <trkpt lat="45.98512" lon="4.70945">
        <ele>162.19999694824</ele>
        <time>2019-08-17T10:51:53.000Z</time>
      </trkpt>
      <trkpt lat="45.98514" lon="4.70946">
        <ele>160</ele>
        <time>2019-08-17T10:52:30.000Z</time>
      </trkpt>
      <trkpt lat="45.98526" lon="4.70953">
        <ele>160</ele>
        <time>2019-08-17T10:52:34.000Z</time>
      </trkpt>
      <trkpt lat="45.98536" lon="4.70958">
        <ele>160</ele>
        <time>2019-08-17T10:52:36.000Z</time>
      </trkpt>
      <trkpt lat="45.98546" lon="4.70961">
        <ele>159.60000610352</ele>
        <time>2019-08-17T10:52:38.000Z</time>
      </trkpt>
      <trkpt lat="45.98552" lon="4.70962">
        <ele>159.19999694824</ele>
        <time>2019-08-17T10:52:39.000Z</time>
      </trkpt>
      <trkpt lat="45.98558" lon="4.70962">
        <ele>158.80000305176</ele>
        <time>2019-08-17T10:52:40.000Z</time>
      </trkpt>
      <trkpt lat="45.98564" lon="4.70963">
        <ele>158.19999694824</ele>
        <time>2019-08-17T10:52:41.000Z</time>
      </trkpt>
      <trkpt lat="45.9857" lon="4.70964">
        <ele>157.80000305176</ele>
        <time>2019-08-17T10:52:42.000Z</time>
      </trkpt>
      <trkpt lat="45.98577" lon="4.70965">
        <ele>157.80000305176</ele>
        <time>2019-08-17T10:52:43.000Z</time>
      </trkpt>
      <trkpt lat="45.9862" lon="4.7097">
        <ele>157.80000305176</ele>
        <time>2019-08-17T10:52:49.000Z</time>
      </trkpt>
      <trkpt lat="45.98626" lon="4.70971">
        <ele>157.39999389648</ele>
        <time>2019-08-17T10:52:50.000Z</time>
      </trkpt>
      <trkpt lat="45.98633" lon="4.70972">
        <ele>157</ele>
        <time>2019-08-17T10:52:51.000Z</time>
      </trkpt>
      <trkpt lat="45.98641" lon="4.70973">
        <ele>156.60000610352</ele>
        <time>2019-08-17T10:52:52.000Z</time>
      </trkpt>
      <trkpt lat="45.98648" lon="4.70974">
        <ele>156.19999694824</ele>
        <time>2019-08-17T10:52:53.000Z</time>
      </trkpt>
      <trkpt lat="45.98655" lon="4.70975">
        <ele>155.60000610352</ele>
        <time>2019-08-17T10:52:54.000Z</time>
      </trkpt>
      <trkpt lat="45.9867" lon="4.70977">
        <ele>155.60000610352</ele>
        <time>2019-08-17T10:52:56.000Z</time>
      </trkpt>
      <trkpt lat="45.98699" lon="4.7098">
        <ele>155.19999694824</ele>
        <time>2019-08-17T10:53:00.000Z</time>
      </trkpt>
      <trkpt lat="45.98707" lon="4.7098">
        <ele>154.80000305176</ele>
        <time>2019-08-17T10:53:01.000Z</time>
      </trkpt>
      <trkpt lat="45.98715" lon="4.70981">
        <ele>154.39999389648</ele>
        <time>2019-08-17T10:53:02.000Z</time>
      </trkpt>
      <trkpt lat="45.98722" lon="4.70982">
        <ele>154</ele>
        <time>2019-08-17T10:53:03.000Z</time>
      </trkpt>
      <trkpt lat="45.98729" lon="4.70984">
        <ele>153.60000610352</ele>
        <time>2019-08-17T10:53:04.000Z</time>
      </trkpt>
      <trkpt lat="45.98758" lon="4.7099">
        <ele>153</ele>
        <time>2019-08-17T10:53:08.000Z</time>
      </trkpt>
      <trkpt lat="45.98765" lon="4.7099">
        <ele>152.60000610352</ele>
        <time>2019-08-17T10:53:09.000Z</time>
      </trkpt>
      <trkpt lat="45.98774" lon="4.70993">
        <ele>152.19999694824</ele>
        <time>2019-08-17T10:53:10.000Z</time>
      </trkpt>
      <trkpt lat="45.98781" lon="4.70995">
        <ele>151.60000610352</ele>
        <time>2019-08-17T10:53:11.000Z</time>
      </trkpt>
      <trkpt lat="45.98788" lon="4.70998">
        <ele>151.19999694824</ele>
        <time>2019-08-17T10:53:12.000Z</time>
      </trkpt>
      <trkpt lat="45.98795" lon="4.71002">
        <ele>151.19999694824</ele>
        <time>2019-08-17T10:53:13.000Z</time>
      </trkpt>
      <trkpt lat="45.9881" lon="4.71018">
        <ele>151.19999694824</ele>
        <time>2019-08-17T10:53:16.000Z</time>
      </trkpt>
      <trkpt lat="45.98814" lon="4.71023">
        <ele>151.19999694824</ele>
        <time>2019-08-17T10:53:17.000Z</time>
      </trkpt>
      <trkpt lat="45.98823" lon="4.71032">
        <ele>151.19999694824</ele>
        <time>2019-08-17T10:53:20.000Z</time>
      </trkpt>
      <trkpt lat="45.98828" lon="4.71033">
        <ele>151.19999694824</ele>
        <time>2019-08-17T10:53:22.000Z</time>
      </trkpt>
      <trkpt lat="45.98832" lon="4.71026">
        <ele>151.19999694824</ele>
        <time>2019-08-17T10:53:24.000Z</time>
      </trkpt>
      <trkpt lat="45.98838" lon="4.71011">
        <ele>151.19999694824</ele>
        <time>2019-08-17T10:53:27.000Z</time>
      </trkpt>
      <trkpt lat="45.9884" lon="4.71005">
        <ele>151.19999694824</ele>
        <time>2019-08-17T10:53:28.000Z</time>
      </trkpt>
      <trkpt lat="45.98842" lon="4.70998">
        <ele>151.19999694824</ele>
        <time>2019-08-17T10:53:29.000Z</time>
      </trkpt>
      <trkpt lat="45.98851" lon="4.7097">
        <ele>151.19999694824</ele>
        <time>2019-08-17T10:53:33.000Z</time>
      </trkpt>
      <trkpt lat="45.98865" lon="4.70928">
        <ele>151.19999694824</ele>
        <time>2019-08-17T10:53:40.000Z</time>
      </trkpt>
      <trkpt lat="45.98872" lon="4.70912">
        <ele>151.19999694824</ele>
        <time>2019-08-17T10:53:44.000Z</time>
      </trkpt>
      <trkpt lat="45.98878" lon="4.709">
        <ele>151.19999694824</ele>
        <time>2019-08-17T10:53:46.000Z</time>
      </trkpt>
      <trkpt lat="45.98897" lon="4.70867">
        <ele>151.19999694824</ele>
        <time>2019-08-17T10:53:52.000Z</time>
      </trkpt>
      <trkpt lat="45.98917" lon="4.7083">
        <ele>151.19999694824</ele>
        <time>2019-08-17T10:53:58.000Z</time>
      </trkpt>
      <trkpt lat="45.98935" lon="4.70799">
        <ele>151.19999694824</ele>
        <time>2019-08-17T10:54:03.000Z</time>
      </trkpt>
      <trkpt lat="45.98956" lon="4.70763">
        <ele>151.19999694824</ele>
        <time>2019-08-17T10:54:09.000Z</time>
      </trkpt>
      <trkpt lat="45.98978" lon="4.70731">
        <ele>151.19999694824</ele>
        <time>2019-08-17T10:54:15.000Z</time>
      </trkpt>
      <trkpt lat="45.98981" lon="4.70728">
        <ele>151.60000610352</ele>
        <time>2019-08-17T10:54:16.000Z</time>
      </trkpt>
      <trkpt lat="45.98983" lon="4.70726">
        <ele>152.19999694824</ele>
        <time>2019-08-17T10:54:17.000Z</time>
      </trkpt>
      <trkpt lat="45.98986" lon="4.70725">
        <ele>152.60000610352</ele>
        <time>2019-08-17T10:54:18.000Z</time>
      </trkpt>
      <trkpt lat="45.98989" lon="4.70724">
        <ele>153</ele>
        <time>2019-08-17T10:54:19.000Z</time>
      </trkpt>
      <trkpt lat="45.98991" lon="4.70723">
        <ele>153.39999389648</ele>
        <time>2019-08-17T10:54:20.000Z</time>
      </trkpt>
      <trkpt lat="45.98994" lon="4.70722">
        <ele>153.39999389648</ele>
        <time>2019-08-17T10:54:23.000Z</time>
      </trkpt>
      <trkpt lat="45.98994" lon="4.70722">
        <ele>153.39999389648</ele>
        <time>2019-08-17T10:54:59.000Z</time>
      </trkpt>
      <trkpt lat="45.99006" lon="4.70719">
        <ele>153.39999389648</ele>
        <time>2019-08-17T10:55:03.000Z</time>
      </trkpt>
      <trkpt lat="45.99015" lon="4.70717">
        <ele>153.80000305176</ele>
        <time>2019-08-17T10:55:05.000Z</time>
      </trkpt>
      <trkpt lat="45.99019" lon="4.70716">
        <ele>154.19999694824</ele>
        <time>2019-08-17T10:55:06.000Z</time>
      </trkpt>
      <trkpt lat="45.99023" lon="4.70717">
        <ele>154.60000610352</ele>
        <time>2019-08-17T10:55:07.000Z</time>
      </trkpt>
      <trkpt lat="45.99027" lon="4.70718">
        <ele>155</ele>
        <time>2019-08-17T10:55:08.000Z</time>
      </trkpt>
      <trkpt lat="45.99032" lon="4.70718">
        <ele>155.60000610352</ele>
        <time>2019-08-17T10:55:09.000Z</time>
      </trkpt>
      <trkpt lat="45.99049" lon="4.70715">
        <ele>156</ele>
        <time>2019-08-17T10:55:13.000Z</time>
      </trkpt>
      <trkpt lat="45.99053" lon="4.70715">
        <ele>156.39999389648</ele>
        <time>2019-08-17T10:55:14.000Z</time>
      </trkpt>
      <trkpt lat="45.99057" lon="4.70716">
        <ele>156.80000305176</ele>
        <time>2019-08-17T10:55:15.000Z</time>
      </trkpt>
      <trkpt lat="45.9906" lon="4.70716">
        <ele>157.19999694824</ele>
        <time>2019-08-17T10:55:16.000Z</time>
      </trkpt>
      <trkpt lat="45.99064" lon="4.70716">
        <ele>157.60000610352</ele>
        <time>2019-08-17T10:55:17.000Z</time>
      </trkpt>
      <trkpt lat="45.99067" lon="4.70717">
        <ele>157.60000610352</ele>
        <time>2019-08-17T10:55:18.000Z</time>
      </trkpt>
      <trkpt lat="45.99092" lon="4.70716">
        <ele>157.60000610352</ele>
        <time>2019-08-17T10:55:24.000Z</time>
      </trkpt>
      <trkpt lat="45.99104" lon="4.70716">
        <ele>158</ele>
        <time>2019-08-17T10:55:27.000Z</time>
      </trkpt>
      <trkpt lat="45.99108" lon="4.70717">
        <ele>158.39999389648</ele>
        <time>2019-08-17T10:55:28.000Z</time>
      </trkpt>
      <trkpt lat="45.99112" lon="4.70717">
        <ele>158.80000305176</ele>
        <time>2019-08-17T10:55:29.000Z</time>
      </trkpt>
      <trkpt lat="45.99115" lon="4.70717">
        <ele>159.19999694824</ele>
        <time>2019-08-17T10:55:30.000Z</time>
      </trkpt>
      <trkpt lat="45.99119" lon="4.70717">
        <ele>159.60000610352</ele>
        <time>2019-08-17T10:55:31.000Z</time>
      </trkpt>
      <trkpt lat="45.9915" lon="4.70718">
        <ele>159.60000610352</ele>
        <time>2019-08-17T10:55:39.000Z</time>
      </trkpt>
      <trkpt lat="45.99175" lon="4.7072">
        <ele>159.60000610352</ele>
        <time>2019-08-17T10:55:45.000Z</time>
      </trkpt>
      <trkpt lat="45.9918" lon="4.70719">
        <ele>160.19999694824</ele>
        <time>2019-08-17T10:55:46.000Z</time>
      </trkpt>
      <trkpt lat="45.99185" lon="4.70719">
        <ele>160.60000610352</ele>
        <time>2019-08-17T10:55:47.000Z</time>
      </trkpt>
      <trkpt lat="45.99189" lon="4.70719">
        <ele>161</ele>
        <time>2019-08-17T10:55:48.000Z</time>
      </trkpt>
      <trkpt lat="45.99195" lon="4.7072">
        <ele>161.39999389648</ele>
        <time>2019-08-17T10:55:49.000Z</time>
      </trkpt>
      <trkpt lat="45.992" lon="4.7072">
        <ele>161.80000305176</ele>
        <time>2019-08-17T10:55:50.000Z</time>
      </trkpt>
      <trkpt lat="45.99205" lon="4.7072">
        <ele>161.80000305176</ele>
        <time>2019-08-17T10:55:51.000Z</time>
      </trkpt>
      <trkpt lat="45.99238" lon="4.70722">
        <ele>161.80000305176</ele>
        <time>2019-08-17T10:55:58.000Z</time>
      </trkpt>
      <trkpt lat="45.99271" lon="4.70721">
        <ele>161.80000305176</ele>
        <time>2019-08-17T10:56:05.000Z</time>
      </trkpt>
      <trkpt lat="45.99281" lon="4.70721">
        <ele>161.80000305176</ele>
        <time>2019-08-17T10:56:07.000Z</time>
      </trkpt>
      <trkpt lat="45.99292" lon="4.70722">
        <ele>161.80000305176</ele>
        <time>2019-08-17T10:56:09.000Z</time>
      </trkpt>
      <trkpt lat="45.99298" lon="4.70723">
        <ele>161.80000305176</ele>
        <time>2019-08-17T10:56:10.000Z</time>
      </trkpt>
      <trkpt lat="45.99331" lon="4.70726">
        <ele>161.80000305176</ele>
        <time>2019-08-17T10:56:16.000Z</time>
      </trkpt>
      <trkpt lat="45.99357" lon="4.70726">
        <ele>161.80000305176</ele>
        <time>2019-08-17T10:56:21.000Z</time>
      </trkpt>
      <trkpt lat="45.99362" lon="4.70726">
        <ele>162.19999694824</ele>
        <time>2019-08-17T10:56:22.000Z</time>
      </trkpt>
      <trkpt lat="45.99368" lon="4.70726">
        <ele>162.60000610352</ele>
        <time>2019-08-17T10:56:23.000Z</time>
      </trkpt>
      <trkpt lat="45.99374" lon="4.70727">
        <ele>163</ele>
        <time>2019-08-17T10:56:24.000Z</time>
      </trkpt>
      <trkpt lat="45.9938" lon="4.70728">
        <ele>163.60000610352</ele>
        <time>2019-08-17T10:56:25.000Z</time>
      </trkpt>
      <trkpt lat="45.99386" lon="4.70728">
        <ele>164</ele>
        <time>2019-08-17T10:56:26.000Z</time>
      </trkpt>
      <trkpt lat="45.99398" lon="4.70728">
        <ele>164</ele>
        <time>2019-08-17T10:56:28.000Z</time>
      </trkpt>
      <trkpt lat="45.99441" lon="4.7073">
        <ele>164</ele>
        <time>2019-08-17T10:56:35.000Z</time>
      </trkpt>
      <trkpt lat="45.99447" lon="4.70733">
        <ele>164</ele>
        <time>2019-08-17T10:56:36.000Z</time>
      </trkpt>
      <trkpt lat="45.99466" lon="4.70744">
        <ele>164</ele>
        <time>2019-08-17T10:56:39.000Z</time>
      </trkpt>
      <trkpt lat="45.99478" lon="4.70737">
        <ele>164</ele>
        <time>2019-08-17T10:56:41.000Z</time>
      </trkpt>
      <trkpt lat="45.995" lon="4.70722">
        <ele>164</ele>
        <time>2019-08-17T10:56:45.000Z</time>
      </trkpt>
      <trkpt lat="45.99512" lon="4.7072">
        <ele>164</ele>
        <time>2019-08-17T10:56:47.000Z</time>
      </trkpt>
      <trkpt lat="45.9953" lon="4.70717">
        <ele>164</ele>
        <time>2019-08-17T10:56:50.000Z</time>
      </trkpt>
      <trkpt lat="45.99547" lon="4.70713">
        <ele>164</ele>
        <time>2019-08-17T10:56:53.000Z</time>
      </trkpt>
      <trkpt lat="45.9957" lon="4.70709">
        <ele>164</ele>
        <time>2019-08-17T10:56:57.000Z</time>
      </trkpt>
      <trkpt lat="45.99588" lon="4.70705">
        <ele>164.39999389648</ele>
        <time>2019-08-17T10:57:00.000Z</time>
      </trkpt>
      <trkpt lat="45.99594" lon="4.70704">
        <ele>164.80000305176</ele>
        <time>2019-08-17T10:57:01.000Z</time>
      </trkpt>
      <trkpt lat="45.996" lon="4.70703">
        <ele>165.19999694824</ele>
        <time>2019-08-17T10:57:02.000Z</time>
      </trkpt>
      <trkpt lat="45.99606" lon="4.70702">
        <ele>166</ele>
        <time>2019-08-17T10:57:03.000Z</time>
      </trkpt>
      <trkpt lat="45.99612" lon="4.70702">
        <ele>166</ele>
        <time>2019-08-17T10:57:04.000Z</time>
      </trkpt>
      <trkpt lat="45.99617" lon="4.70701">
        <ele>166</ele>
        <time>2019-08-17T10:57:05.000Z</time>
      </trkpt>
      <trkpt lat="45.9964" lon="4.70697">
        <ele>166</ele>
        <time>2019-08-17T10:57:09.000Z</time>
      </trkpt>
      <trkpt lat="45.9968" lon="4.70688">
        <ele>166</ele>
        <time>2019-08-17T10:57:16.000Z</time>
      </trkpt>
      <trkpt lat="45.9972" lon="4.70679">
        <ele>166</ele>
        <time>2019-08-17T10:57:23.000Z</time>
      </trkpt>
      <trkpt lat="45.99727" lon="4.70678">
        <ele>166.39999389648</ele>
        <time>2019-08-17T10:57:24.000Z</time>
      </trkpt>
      <trkpt lat="45.99733" lon="4.70677">
        <ele>166.80000305176</ele>
        <time>2019-08-17T10:57:25.000Z</time>
      </trkpt>
      <trkpt lat="45.99739" lon="4.70675">
        <ele>167.39999389648</ele>
        <time>2019-08-17T10:57:26.000Z</time>
      </trkpt>
      <trkpt lat="45.99745" lon="4.70674">
        <ele>168.19999694824</ele>
        <time>2019-08-17T10:57:27.000Z</time>
      </trkpt>
      <trkpt lat="45.99771" lon="4.70669">
        <ele>168.19999694824</ele>
        <time>2019-08-17T10:57:31.000Z</time>
      </trkpt>
      <trkpt lat="45.9981" lon="4.70662">
        <ele>168.19999694824</ele>
        <time>2019-08-17T10:57:37.000Z</time>
      </trkpt>
      <trkpt lat="45.99841" lon="4.70657">
        <ele>167.80000305176</ele>
        <time>2019-08-17T10:57:43.000Z</time>
      </trkpt>
      <trkpt lat="45.99845" lon="4.70656">
        <ele>167.19999694824</ele>
        <time>2019-08-17T10:57:44.000Z</time>
      </trkpt>
      <trkpt lat="45.99846" lon="4.70656">
        <ele>166.80000305176</ele>
        <time>2019-08-17T10:57:45.000Z</time>
      </trkpt>
      <trkpt lat="45.99846" lon="4.70656">
        <ele>166.39999389648</ele>
        <time>2019-08-17T10:57:46.000Z</time>
      </trkpt>
      <trkpt lat="45.99846" lon="4.70656">
        <ele>166</ele>
        <time>2019-08-17T10:57:47.000Z</time>
      </trkpt>
      <trkpt lat="45.99847" lon="4.70656">
        <ele>166</ele>
        <time>2019-08-17T10:58:00.000Z</time>
      </trkpt>
      <trkpt lat="45.99853" lon="4.70654">
        <ele>166</ele>
        <time>2019-08-17T10:58:02.000Z</time>
      </trkpt>
      <trkpt lat="45.99875" lon="4.70651">
        <ele>166</ele>
        <time>2019-08-17T10:58:06.000Z</time>
      </trkpt>
      <trkpt lat="45.9991" lon="4.70641">
        <ele>166</ele>
        <time>2019-08-17T10:58:12.000Z</time>
      </trkpt>
      <trkpt lat="45.9995" lon="4.70632">
        <ele>166</ele>
        <time>2019-08-17T10:58:19.000Z</time>
      </trkpt>
      <trkpt lat="45.9999" lon="4.70623">
        <ele>166</ele>
        <time>2019-08-17T10:58:26.000Z</time>
      </trkpt>
      <trkpt lat="46.00031" lon="4.70614">
        <ele>166</ele>
        <time>2019-08-17T10:58:33.000Z</time>
      </trkpt>
      <trkpt lat="46.00036" lon="4.70613">
        <ele>166</ele>
        <time>2019-08-17T10:58:34.000Z</time>
      </trkpt>
      <trkpt lat="46.00071" lon="4.70604">
        <ele>166</ele>
        <time>2019-08-17T10:58:40.000Z</time>
      </trkpt>
      <trkpt lat="46.00107" lon="4.70584">
        <ele>166</ele>
        <time>2019-08-17T10:58:46.000Z</time>
      </trkpt>
      <trkpt lat="46.0014" lon="4.70558">
        <ele>166</ele>
        <time>2019-08-17T10:58:52.000Z</time>
      </trkpt>
      <trkpt lat="46.00159" lon="4.70553">
        <ele>166</ele>
        <time>2019-08-17T10:58:55.000Z</time>
      </trkpt>
      <trkpt lat="46.00183" lon="4.70537">
        <ele>166</ele>
        <time>2019-08-17T10:58:59.000Z</time>
      </trkpt>
      <trkpt lat="46.00197" lon="4.70538">
        <ele>166</ele>
        <time>2019-08-17T10:59:01.000Z</time>
      </trkpt>
      <trkpt lat="46.0021" lon="4.70537">
        <ele>166</ele>
        <time>2019-08-17T10:59:03.000Z</time>
      </trkpt>
      <trkpt lat="46.00243" lon="4.70526">
        <ele>166</ele>
        <time>2019-08-17T10:59:08.000Z</time>
      </trkpt>
      <trkpt lat="46.00295" lon="4.70515">
        <ele>166</ele>
        <time>2019-08-17T10:59:16.000Z</time>
      </trkpt>
      <trkpt lat="46.00347" lon="4.70504">
        <ele>166</ele>
        <time>2019-08-17T10:59:24.000Z</time>
      </trkpt>
      <trkpt lat="46.00405" lon="4.70497">
        <ele>166</ele>
        <time>2019-08-17T10:59:33.000Z</time>
      </trkpt>
      <trkpt lat="46.00443" lon="4.70502">
        <ele>166</ele>
        <time>2019-08-17T10:59:39.000Z</time>
      </trkpt>
      <trkpt lat="46.00453" lon="4.70506">
        <ele>166</ele>
        <time>2019-08-17T10:59:41.000Z</time>
      </trkpt>
      <trkpt lat="46.0046" lon="4.70513">
        <ele>166.39999389648</ele>
        <time>2019-08-17T10:59:43.000Z</time>
      </trkpt>
      <trkpt lat="46.00464" lon="4.70519">
        <ele>166.80000305176</ele>
        <time>2019-08-17T10:59:44.000Z</time>
      </trkpt>
      <trkpt lat="46.00467" lon="4.70527">
        <ele>167.19999694824</ele>
        <time>2019-08-17T10:59:45.000Z</time>
      </trkpt>
      <trkpt lat="46.00469" lon="4.70535">
        <ele>167.60000610352</ele>
        <time>2019-08-17T10:59:46.000Z</time>
      </trkpt>
      <trkpt lat="46.00472" lon="4.70542">
        <ele>168</ele>
        <time>2019-08-17T10:59:47.000Z</time>
      </trkpt>
      <trkpt lat="46.00484" lon="4.70549">
        <ele>168</ele>
        <time>2019-08-17T10:59:49.000Z</time>
      </trkpt>
      <trkpt lat="46.00497" lon="4.70542">
        <ele>168</ele>
        <time>2019-08-17T10:59:51.000Z</time>
      </trkpt>
      <trkpt lat="46.00507" lon="4.7052">
        <ele>168</ele>
        <time>2019-08-17T10:59:54.000Z</time>
      </trkpt>
      <trkpt lat="46.00517" lon="4.70514">
        <ele>168.39999389648</ele>
        <time>2019-08-17T10:59:56.000Z</time>
      </trkpt>
      <trkpt lat="46.00522" lon="4.70515">
        <ele>168.80000305176</ele>
        <time>2019-08-17T10:59:57.000Z</time>
      </trkpt>
      <trkpt lat="46.00528" lon="4.70515">
        <ele>169.19999694824</ele>
        <time>2019-08-17T10:59:58.000Z</time>
      </trkpt>
      <trkpt lat="46.00534" lon="4.70516">
        <ele>169.60000610352</ele>
        <time>2019-08-17T10:59:59.000Z</time>
      </trkpt>
      <trkpt lat="46.0054" lon="4.70516">
        <ele>170</ele>
        <time>2019-08-17T11:00:00.000Z</time>
      </trkpt>
      <trkpt lat="46.00573" lon="4.70513">
        <ele>170</ele>
        <time>2019-08-17T11:00:06.000Z</time>
      </trkpt>
      <trkpt lat="46.00588" lon="4.7051">
        <ele>170.39999389648</ele>
        <time>2019-08-17T11:00:09.000Z</time>
      </trkpt>
      <trkpt lat="46.00594" lon="4.70509">
        <ele>170.80000305176</ele>
        <time>2019-08-17T11:00:10.000Z</time>
      </trkpt>
      <trkpt lat="46.00599" lon="4.70508">
        <ele>171.19999694824</ele>
        <time>2019-08-17T11:00:11.000Z</time>
      </trkpt>
      <trkpt lat="46.00604" lon="4.70507">
        <ele>171.60000610352</ele>
        <time>2019-08-17T11:00:12.000Z</time>
      </trkpt>
      <trkpt lat="46.00609" lon="4.70506">
        <ele>172</ele>
        <time>2019-08-17T11:00:13.000Z</time>
      </trkpt>
      <trkpt lat="46.0062" lon="4.70504">
        <ele>172</ele>
        <time>2019-08-17T11:00:15.000Z</time>
      </trkpt>
      <trkpt lat="46.00661" lon="4.70499">
        <ele>172</ele>
        <time>2019-08-17T11:00:23.000Z</time>
      </trkpt>
      <trkpt lat="46.00711" lon="4.705">
        <ele>172</ele>
        <time>2019-08-17T11:00:31.000Z</time>
      </trkpt>
      <trkpt lat="46.00747" lon="4.70503">
        <ele>172</ele>
        <time>2019-08-17T11:00:36.000Z</time>
      </trkpt>
      <trkpt lat="46.00754" lon="4.705">
        <ele>172</ele>
        <time>2019-08-17T11:00:37.000Z</time>
      </trkpt>
      <trkpt lat="46.00765" lon="4.7049">
        <ele>172</ele>
        <time>2019-08-17T11:00:39.000Z</time>
      </trkpt>
      <trkpt lat="46.00777" lon="4.70481">
        <ele>172</ele>
        <time>2019-08-17T11:00:41.000Z</time>
      </trkpt>
      <trkpt lat="46.00802" lon="4.70473">
        <ele>172</ele>
        <time>2019-08-17T11:00:45.000Z</time>
      </trkpt>
      <trkpt lat="46.0082" lon="4.70462">
        <ele>172</ele>
        <time>2019-08-17T11:00:48.000Z</time>
      </trkpt>
      <trkpt lat="46.00839" lon="4.70452">
        <ele>172</ele>
        <time>2019-08-17T11:00:51.000Z</time>
      </trkpt>
      <trkpt lat="46.00874" lon="4.70429">
        <ele>172</ele>
        <time>2019-08-17T11:00:57.000Z</time>
      </trkpt>
      <trkpt lat="46.00906" lon="4.70399">
        <ele>172</ele>
        <time>2019-08-17T11:01:03.000Z</time>
      </trkpt>
      <trkpt lat="46.00938" lon="4.70355">
        <ele>172</ele>
        <time>2019-08-17T11:01:10.000Z</time>
      </trkpt>
      <trkpt lat="46.00956" lon="4.70318">
        <ele>172</ele>
        <time>2019-08-17T11:01:15.000Z</time>
      </trkpt>
      <trkpt lat="46.00962" lon="4.70304">
        <ele>172.39999389648</ele>
        <time>2019-08-17T11:01:17.000Z</time>
      </trkpt>
      <trkpt lat="46.00965" lon="4.70297">
        <ele>172.80000305176</ele>
        <time>2019-08-17T11:01:18.000Z</time>
      </trkpt>
      <trkpt lat="46.00968" lon="4.7029">
        <ele>173.19999694824</ele>
        <time>2019-08-17T11:01:19.000Z</time>
      </trkpt>
      <trkpt lat="46.00971" lon="4.70284">
        <ele>173.60000610352</ele>
        <time>2019-08-17T11:01:20.000Z</time>
      </trkpt>
      <trkpt lat="46.00974" lon="4.70277">
        <ele>174</ele>
        <time>2019-08-17T11:01:21.000Z</time>
      </trkpt>
      <trkpt lat="46.00985" lon="4.7025">
        <ele>174</ele>
        <time>2019-08-17T11:01:25.000Z</time>
      </trkpt>
      <trkpt lat="46.01007" lon="4.70202">
        <ele>174</ele>
        <time>2019-08-17T11:01:32.000Z</time>
      </trkpt>
      <trkpt lat="46.01029" lon="4.70152">
        <ele>174.39999389648</ele>
        <time>2019-08-17T11:01:39.000Z</time>
      </trkpt>
      <trkpt lat="46.01032" lon="4.70145">
        <ele>175</ele>
        <time>2019-08-17T11:01:40.000Z</time>
      </trkpt>
      <trkpt lat="46.01035" lon="4.70137">
        <ele>175.39999389648</ele>
        <time>2019-08-17T11:01:41.000Z</time>
      </trkpt>
      <trkpt lat="46.01038" lon="4.7013">
        <ele>175.80000305176</ele>
        <time>2019-08-17T11:01:42.000Z</time>
      </trkpt>
      <trkpt lat="46.01041" lon="4.70123">
        <ele>176.19999694824</ele>
        <time>2019-08-17T11:01:43.000Z</time>
      </trkpt>
      <trkpt lat="46.01056" lon="4.70086">
        <ele>176.19999694824</ele>
        <time>2019-08-17T11:01:48.000Z</time>
      </trkpt>
      <trkpt lat="46.01066" lon="4.70065">
        <ele>176.19999694824</ele>
        <time>2019-08-17T11:01:51.000Z</time>
      </trkpt>
      <trkpt lat="46.01078" lon="4.70045">
        <ele>176.19999694824</ele>
        <time>2019-08-17T11:01:54.000Z</time>
      </trkpt>
      <trkpt lat="46.01082" lon="4.70039">
        <ele>176.19999694824</ele>
        <time>2019-08-17T11:01:55.000Z</time>
      </trkpt>
      <trkpt lat="46.01096" lon="4.70025">
        <ele>176.19999694824</ele>
        <time>2019-08-17T11:01:58.000Z</time>
      </trkpt>
      <trkpt lat="46.01101" lon="4.70022">
        <ele>176.19999694824</ele>
        <time>2019-08-17T11:01:59.000Z</time>
      </trkpt>
      <trkpt lat="46.01106" lon="4.70018">
        <ele>176.60000610352</ele>
        <time>2019-08-17T11:02:00.000Z</time>
      </trkpt>
      <trkpt lat="46.0111" lon="4.70015">
        <ele>177</ele>
        <time>2019-08-17T11:02:01.000Z</time>
      </trkpt>
      <trkpt lat="46.01115" lon="4.70012">
        <ele>177.39999389648</ele>
        <time>2019-08-17T11:02:02.000Z</time>
      </trkpt>
      <trkpt lat="46.0112" lon="4.70009">
        <ele>177.80000305176</ele>
        <time>2019-08-17T11:02:03.000Z</time>
      </trkpt>
      <trkpt lat="46.01125" lon="4.70007">
        <ele>178.19999694824</ele>
        <time>2019-08-17T11:02:04.000Z</time>
      </trkpt>
      <trkpt lat="46.0113" lon="4.70005">
        <ele>178.19999694824</ele>
        <time>2019-08-17T11:02:05.000Z</time>
      </trkpt>
      <trkpt lat="46.01167" lon="4.69998">
        <ele>178.19999694824</ele>
        <time>2019-08-17T11:02:12.000Z</time>
      </trkpt>
      <trkpt lat="46.01212" lon="4.69995">
        <ele>178.19999694824</ele>
        <time>2019-08-17T11:02:20.000Z</time>
      </trkpt>
      <trkpt lat="46.01255" lon="4.69991">
        <ele>178.19999694824</ele>
        <time>2019-08-17T11:02:27.000Z</time>
      </trkpt>
      <trkpt lat="46.01268" lon="4.69987">
        <ele>178.19999694824</ele>
        <time>2019-08-17T11:02:29.000Z</time>
      </trkpt>
      <trkpt lat="46.01287" lon="4.69973">
        <ele>178.19999694824</ele>
        <time>2019-08-17T11:02:32.000Z</time>
      </trkpt>
      <trkpt lat="46.013" lon="4.69951">
        <ele>178.19999694824</ele>
        <time>2019-08-17T11:02:35.000Z</time>
      </trkpt>
      <trkpt lat="46.0131" lon="4.69915">
        <ele>178.19999694824</ele>
        <time>2019-08-17T11:02:39.000Z</time>
      </trkpt>
      <trkpt lat="46.01312" lon="4.69905">
        <ele>178.19999694824</ele>
        <time>2019-08-17T11:02:40.000Z</time>
      </trkpt>
      <trkpt lat="46.01326" lon="4.69843">
        <ele>178.19999694824</ele>
        <time>2019-08-17T11:02:47.000Z</time>
      </trkpt>
      <trkpt lat="46.01339" lon="4.69791">
        <ele>178.19999694824</ele>
        <time>2019-08-17T11:02:53.000Z</time>
      </trkpt>
      <trkpt lat="46.01353" lon="4.69729">
        <ele>178.19999694824</ele>
        <time>2019-08-17T11:03:00.000Z</time>
      </trkpt>
      <trkpt lat="46.01367" lon="4.69675">
        <ele>178.19999694824</ele>
        <time>2019-08-17T11:03:06.000Z</time>
      </trkpt>
      <trkpt lat="46.01379" lon="4.6964">
        <ele>177.80000305176</ele>
        <time>2019-08-17T11:03:10.000Z</time>
      </trkpt>
      <trkpt lat="46.01382" lon="4.69631">
        <ele>177.39999389648</ele>
        <time>2019-08-17T11:03:11.000Z</time>
      </trkpt>
      <trkpt lat="46.01386" lon="4.69622">
        <ele>176.60000610352</ele>
        <time>2019-08-17T11:03:12.000Z</time>
      </trkpt>
      <trkpt lat="46.01389" lon="4.69614">
        <ele>176</ele>
        <time>2019-08-17T11:03:13.000Z</time>
      </trkpt>
      <trkpt lat="46.01414" lon="4.69566">
        <ele>176</ele>
        <time>2019-08-17T11:03:19.000Z</time>
      </trkpt>
      <trkpt lat="46.01428" lon="4.69544">
        <ele>175.60000610352</ele>
        <time>2019-08-17T11:03:22.000Z</time>
      </trkpt>
      <trkpt lat="46.01432" lon="4.69537">
        <ele>175.19999694824</ele>
        <time>2019-08-17T11:03:23.000Z</time>
      </trkpt>
      <trkpt lat="46.01437" lon="4.6953">
        <ele>174.80000305176</ele>
        <time>2019-08-17T11:03:24.000Z</time>
      </trkpt>
      <trkpt lat="46.0144" lon="4.69523">
        <ele>174.39999389648</ele>
        <time>2019-08-17T11:03:25.000Z</time>
      </trkpt>
      <trkpt lat="46.01444" lon="4.69516">
        <ele>174</ele>
        <time>2019-08-17T11:03:26.000Z</time>
      </trkpt>
      <trkpt lat="46.01448" lon="4.69509">
        <ele>174</ele>
        <time>2019-08-17T11:03:27.000Z</time>
      </trkpt>
      <trkpt lat="46.01453" lon="4.69494">
        <ele>174</ele>
        <time>2019-08-17T11:03:29.000Z</time>
      </trkpt>
      <trkpt lat="46.0146" lon="4.6947">
        <ele>174</ele>
        <time>2019-08-17T11:03:32.000Z</time>
      </trkpt>
      <trkpt lat="46.01463" lon="4.69455">
        <ele>174</ele>
        <time>2019-08-17T11:03:34.000Z</time>
      </trkpt>
      <trkpt lat="46.01464" lon="4.69447">
        <ele>174.39999389648</ele>
        <time>2019-08-17T11:03:35.000Z</time>
      </trkpt>
      <trkpt lat="46.01465" lon="4.69439">
        <ele>174.80000305176</ele>
        <time>2019-08-17T11:03:36.000Z</time>
      </trkpt>
      <trkpt lat="46.01466" lon="4.69432">
        <ele>175.60000610352</ele>
        <time>2019-08-17T11:03:37.000Z</time>
      </trkpt>
      <trkpt lat="46.01467" lon="4.69425">
        <ele>176</ele>
        <time>2019-08-17T11:03:38.000Z</time>
      </trkpt>
      <trkpt lat="46.0147" lon="4.69409">
        <ele>176</ele>
        <time>2019-08-17T11:03:40.000Z</time>
      </trkpt>
      <trkpt lat="46.01476" lon="4.69371">
        <ele>176</ele>
        <time>2019-08-17T11:03:45.000Z</time>
      </trkpt>
      <trkpt lat="46.0149" lon="4.69316">
        <ele>176</ele>
        <time>2019-08-17T11:03:52.000Z</time>
      </trkpt>
      <trkpt lat="46.01507" lon="4.69268">
        <ele>176</ele>
        <time>2019-08-17T11:03:58.000Z</time>
      </trkpt>
      <trkpt lat="46.0151" lon="4.6926">
        <ele>176</ele>
        <time>2019-08-17T11:03:59.000Z</time>
      </trkpt>
      <trkpt lat="46.01521" lon="4.69229">
        <ele>176</ele>
        <time>2019-08-17T11:04:03.000Z</time>
      </trkpt>
      <trkpt lat="46.01527" lon="4.69216">
        <ele>176</ele>
        <time>2019-08-17T11:04:05.000Z</time>
      </trkpt>
      <trkpt lat="46.01536" lon="4.6921">
        <ele>176</ele>
        <time>2019-08-17T11:04:07.000Z</time>
      </trkpt>
      <trkpt lat="46.01546" lon="4.69195">
        <ele>176</ele>
        <time>2019-08-17T11:04:10.000Z</time>
      </trkpt>
      <trkpt lat="46.01547" lon="4.69171">
        <ele>176</ele>
        <time>2019-08-17T11:04:13.000Z</time>
      </trkpt>
      <trkpt lat="46.01553" lon="4.69158">
        <ele>176</ele>
        <time>2019-08-17T11:04:15.000Z</time>
      </trkpt>
      <trkpt lat="46.01562" lon="4.69138">
        <ele>176</ele>
        <time>2019-08-17T11:04:18.000Z</time>
      </trkpt>
      <trkpt lat="46.01582" lon="4.69091">
        <ele>176</ele>
        <time>2019-08-17T11:04:25.000Z</time>
      </trkpt>
      <trkpt lat="46.01608" lon="4.69031">
        <ele>176</ele>
        <time>2019-08-17T11:04:34.000Z</time>
      </trkpt>
      <trkpt lat="46.01632" lon="4.68976">
        <ele>176.39999389648</ele>
        <time>2019-08-17T11:04:42.000Z</time>
      </trkpt>
      <trkpt lat="46.01635" lon="4.68969">
        <ele>176.80000305176</ele>
        <time>2019-08-17T11:04:43.000Z</time>
      </trkpt>
      <trkpt lat="46.01638" lon="4.68962">
        <ele>177.19999694824</ele>
        <time>2019-08-17T11:04:44.000Z</time>
      </trkpt>
      <trkpt lat="46.01641" lon="4.68955">
        <ele>177.60000610352</ele>
        <time>2019-08-17T11:04:45.000Z</time>
      </trkpt>
      <trkpt lat="46.01644" lon="4.68949">
        <ele>178.19999694824</ele>
        <time>2019-08-17T11:04:46.000Z</time>
      </trkpt>
      <trkpt lat="46.01651" lon="4.68934">
        <ele>178.19999694824</ele>
        <time>2019-08-17T11:04:48.000Z</time>
      </trkpt>
      <trkpt lat="46.01656" lon="4.6892">
        <ele>178.19999694824</ele>
        <time>2019-08-17T11:04:50.000Z</time>
      </trkpt>
      <trkpt lat="46.01677" lon="4.6887">
        <ele>178.19999694824</ele>
        <time>2019-08-17T11:04:57.000Z</time>
      </trkpt>
      <trkpt lat="46.01693" lon="4.68833">
        <ele>178.19999694824</ele>
        <time>2019-08-17T11:05:02.000Z</time>
      </trkpt>
      <trkpt lat="46.01711" lon="4.68783">
        <ele>178.19999694824</ele>
        <time>2019-08-17T11:05:08.000Z</time>
      </trkpt>
      <trkpt lat="46.01715" lon="4.68775">
        <ele>178.19999694824</ele>
        <time>2019-08-17T11:05:09.000Z</time>
      </trkpt>
      <trkpt lat="46.01727" lon="4.68752">
        <ele>178.19999694824</ele>
        <time>2019-08-17T11:05:12.000Z</time>
      </trkpt>
      <trkpt lat="46.0175" lon="4.68697">
        <ele>178.19999694824</ele>
        <time>2019-08-17T11:05:19.000Z</time>
      </trkpt>
      <trkpt lat="46.01759" lon="4.68674">
        <ele>178.19999694824</ele>
        <time>2019-08-17T11:05:22.000Z</time>
      </trkpt>
      <trkpt lat="46.01764" lon="4.68658">
        <ele>178.19999694824</ele>
        <time>2019-08-17T11:05:24.000Z</time>
      </trkpt>
      <trkpt lat="46.01768" lon="4.68642">
        <ele>178.19999694824</ele>
        <time>2019-08-17T11:05:26.000Z</time>
      </trkpt>
      <trkpt lat="46.01773" lon="4.68615">
        <ele>178.19999694824</ele>
        <time>2019-08-17T11:05:29.000Z</time>
      </trkpt>
      <trkpt lat="46.01779" lon="4.68556">
        <ele>178.19999694824</ele>
        <time>2019-08-17T11:05:35.000Z</time>
      </trkpt>
      <trkpt lat="46.0178" lon="4.68545">
        <ele>177.60000610352</ele>
        <time>2019-08-17T11:05:36.000Z</time>
      </trkpt>
      <trkpt lat="46.01781" lon="4.68535">
        <ele>177.19999694824</ele>
        <time>2019-08-17T11:05:37.000Z</time>
      </trkpt>
      <trkpt lat="46.01783" lon="4.68523">
        <ele>176.80000305176</ele>
        <time>2019-08-17T11:05:38.000Z</time>
      </trkpt>
      <trkpt lat="46.01784" lon="4.68512">
        <ele>176.39999389648</ele>
        <time>2019-08-17T11:05:39.000Z</time>
      </trkpt>
      <trkpt lat="46.01785" lon="4.685">
        <ele>175.80000305176</ele>
        <time>2019-08-17T11:05:40.000Z</time>
      </trkpt>
      <trkpt lat="46.01786" lon="4.68489">
        <ele>175.80000305176</ele>
        <time>2019-08-17T11:05:41.000Z</time>
      </trkpt>
      <trkpt lat="46.01795" lon="4.68411">
        <ele>175.80000305176</ele>
        <time>2019-08-17T11:05:48.000Z</time>
      </trkpt>
      <trkpt lat="46.01802" lon="4.68381">
        <ele>175.80000305176</ele>
        <time>2019-08-17T11:05:51.000Z</time>
      </trkpt>
      <trkpt lat="46.01809" lon="4.68363">
        <ele>175.80000305176</ele>
        <time>2019-08-17T11:05:53.000Z</time>
      </trkpt>
      <trkpt lat="46.01813" lon="4.68354">
        <ele>175.39999389648</ele>
        <time>2019-08-17T11:05:54.000Z</time>
      </trkpt>
      <trkpt lat="46.01817" lon="4.68346">
        <ele>175</ele>
        <time>2019-08-17T11:05:55.000Z</time>
      </trkpt>
      <trkpt lat="46.0182" lon="4.68338">
        <ele>174.60000610352</ele>
        <time>2019-08-17T11:05:56.000Z</time>
      </trkpt>
      <trkpt lat="46.01825" lon="4.6833">
        <ele>174.19999694824</ele>
        <time>2019-08-17T11:05:57.000Z</time>
      </trkpt>
      <trkpt lat="46.01829" lon="4.68323">
        <ele>173.80000305176</ele>
        <time>2019-08-17T11:05:58.000Z</time>
      </trkpt>
      <trkpt lat="46.01834" lon="4.68315">
        <ele>173.80000305176</ele>
        <time>2019-08-17T11:05:59.000Z</time>
      </trkpt>
      <trkpt lat="46.01852" lon="4.68281">
        <ele>173.80000305176</ele>
        <time>2019-08-17T11:06:04.000Z</time>
      </trkpt>
      <trkpt lat="46.01859" lon="4.6827">
        <ele>174.60000610352</ele>
        <time>2019-08-17T11:06:06.000Z</time>
      </trkpt>
      <trkpt lat="46.01862" lon="4.68264">
        <ele>175</ele>
        <time>2019-08-17T11:06:07.000Z</time>
      </trkpt>
      <trkpt lat="46.01865" lon="4.68258">
        <ele>175.39999389648</ele>
        <time>2019-08-17T11:06:08.000Z</time>
      </trkpt>
      <trkpt lat="46.01868" lon="4.68252">
        <ele>175.80000305176</ele>
        <time>2019-08-17T11:06:09.000Z</time>
      </trkpt>
      <trkpt lat="46.01871" lon="4.68247">
        <ele>175.80000305176</ele>
        <time>2019-08-17T11:06:10.000Z</time>
      </trkpt>
      <trkpt lat="46.01883" lon="4.6822">
        <ele>176.19999694824</ele>
        <time>2019-08-17T11:06:15.000Z</time>
      </trkpt>
      <trkpt lat="46.01886" lon="4.68215">
        <ele>176.60000610352</ele>
        <time>2019-08-17T11:06:16.000Z</time>
      </trkpt>
      <trkpt lat="46.01888" lon="4.68208">
        <ele>177.19999694824</ele>
        <time>2019-08-17T11:06:17.000Z</time>
      </trkpt>
      <trkpt lat="46.0189" lon="4.68202">
        <ele>177.60000610352</ele>
        <time>2019-08-17T11:06:18.000Z</time>
      </trkpt>
      <trkpt lat="46.01892" lon="4.68197">
        <ele>178</ele>
        <time>2019-08-17T11:06:19.000Z</time>
      </trkpt>
      <trkpt lat="46.01903" lon="4.6816">
        <ele>178.39999389648</ele>
        <time>2019-08-17T11:06:25.000Z</time>
      </trkpt>
      <trkpt lat="46.01905" lon="4.68154">
        <ele>178.80000305176</ele>
        <time>2019-08-17T11:06:26.000Z</time>
      </trkpt>
      <trkpt lat="46.01907" lon="4.68148">
        <ele>179.19999694824</ele>
        <time>2019-08-17T11:06:27.000Z</time>
      </trkpt>
      <trkpt lat="46.01908" lon="4.68142">
        <ele>179.60000610352</ele>
        <time>2019-08-17T11:06:28.000Z</time>
      </trkpt>
      <trkpt lat="46.0191" lon="4.68136">
        <ele>180</ele>
        <time>2019-08-17T11:06:29.000Z</time>
      </trkpt>
      <trkpt lat="46.01916" lon="4.68103">
        <ele>180</ele>
        <time>2019-08-17T11:06:34.000Z</time>
      </trkpt>
      <trkpt lat="46.01924" lon="4.68053">
        <ele>180.39999389648</ele>
        <time>2019-08-17T11:06:42.000Z</time>
      </trkpt>
      <trkpt lat="46.01925" lon="4.68046">
        <ele>180.80000305176</ele>
        <time>2019-08-17T11:06:43.000Z</time>
      </trkpt>
      <trkpt lat="46.01926" lon="4.68039">
        <ele>181.19999694824</ele>
        <time>2019-08-17T11:06:44.000Z</time>
      </trkpt>
      <trkpt lat="46.01926" lon="4.68033">
        <ele>181.60000610352</ele>
        <time>2019-08-17T11:06:45.000Z</time>
      </trkpt>
      <trkpt lat="46.01927" lon="4.68026">
        <ele>182</ele>
        <time>2019-08-17T11:06:46.000Z</time>
      </trkpt>
      <trkpt lat="46.01931" lon="4.67993">
        <ele>182</ele>
        <time>2019-08-17T11:06:51.000Z</time>
      </trkpt>
      <trkpt lat="46.01934" lon="4.67968">
        <ele>182.80000305176</ele>
        <time>2019-08-17T11:06:55.000Z</time>
      </trkpt>
      <trkpt lat="46.01935" lon="4.67961">
        <ele>183.39999389648</ele>
        <time>2019-08-17T11:06:56.000Z</time>
      </trkpt>
      <trkpt lat="46.01936" lon="4.67955">
        <ele>183.80000305176</ele>
        <time>2019-08-17T11:06:57.000Z</time>
      </trkpt>
      <trkpt lat="46.01937" lon="4.67948">
        <ele>184.19999694824</ele>
        <time>2019-08-17T11:06:58.000Z</time>
      </trkpt>
      <trkpt lat="46.01937" lon="4.67942">
        <ele>184.19999694824</ele>
        <time>2019-08-17T11:06:59.000Z</time>
      </trkpt>
      <trkpt lat="46.01943" lon="4.67897">
        <ele>184.19999694824</ele>
        <time>2019-08-17T11:07:06.000Z</time>
      </trkpt>
      <trkpt lat="46.01945" lon="4.67884">
        <ele>184.19999694824</ele>
        <time>2019-08-17T11:07:08.000Z</time>
      </trkpt>
      <trkpt lat="46.01953" lon="4.67831">
        <ele>184.60000610352</ele>
        <time>2019-08-17T11:07:16.000Z</time>
      </trkpt>
      <trkpt lat="46.01954" lon="4.67825">
        <ele>185</ele>
        <time>2019-08-17T11:07:17.000Z</time>
      </trkpt>
      <trkpt lat="46.01955" lon="4.67818">
        <ele>185.39999389648</ele>
        <time>2019-08-17T11:07:18.000Z</time>
      </trkpt>
      <trkpt lat="46.01956" lon="4.67811">
        <ele>185.80000305176</ele>
        <time>2019-08-17T11:07:19.000Z</time>
      </trkpt>
      <trkpt lat="46.01957" lon="4.67805">
        <ele>186.19999694824</ele>
        <time>2019-08-17T11:07:20.000Z</time>
      </trkpt>
      <trkpt lat="46.01959" lon="4.67785">
        <ele>186.19999694824</ele>
        <time>2019-08-17T11:07:23.000Z</time>
      </trkpt>
      <trkpt lat="46.01961" lon="4.67773">
        <ele>186.19999694824</ele>
        <time>2019-08-17T11:07:25.000Z</time>
      </trkpt>
      <trkpt lat="46.01967" lon="4.67747">
        <ele>186.60000610352</ele>
        <time>2019-08-17T11:07:29.000Z</time>
      </trkpt>
      <trkpt lat="46.01969" lon="4.6774">
        <ele>187</ele>
        <time>2019-08-17T11:07:30.000Z</time>
      </trkpt>
      <trkpt lat="46.01971" lon="4.67734">
        <ele>187.39999389648</ele>
        <time>2019-08-17T11:07:31.000Z</time>
      </trkpt>
      <trkpt lat="46.01973" lon="4.67727">
        <ele>187.80000305176</ele>
        <time>2019-08-17T11:07:32.000Z</time>
      </trkpt>
      <trkpt lat="46.01974" lon="4.67721">
        <ele>188.19999694824</ele>
        <time>2019-08-17T11:07:33.000Z</time>
      </trkpt>
      <trkpt lat="46.01989" lon="4.67685">
        <ele>188.19999694824</ele>
        <time>2019-08-17T11:07:39.000Z</time>
      </trkpt>
      <trkpt lat="46.02002" lon="4.67657">
        <ele>188.60000610352</ele>
        <time>2019-08-17T11:07:44.000Z</time>
      </trkpt>
      <trkpt lat="46.02006" lon="4.67652">
        <ele>189</ele>
        <time>2019-08-17T11:07:45.000Z</time>
      </trkpt>
      <trkpt lat="46.02009" lon="4.67647">
        <ele>189.39999389648</ele>
        <time>2019-08-17T11:07:46.000Z</time>
      </trkpt>
      <trkpt lat="46.02013" lon="4.67641">
        <ele>189.80000305176</ele>
        <time>2019-08-17T11:07:47.000Z</time>
      </trkpt>
      <trkpt lat="46.02016" lon="4.67636">
        <ele>190.19999694824</ele>
        <time>2019-08-17T11:07:48.000Z</time>
      </trkpt>
      <trkpt lat="46.02045" lon="4.67596">
        <ele>190.19999694824</ele>
        <time>2019-08-17T11:07:56.000Z</time>
      </trkpt>
      <trkpt lat="46.02076" lon="4.67553">
        <ele>190.19999694824</ele>
        <time>2019-08-17T11:08:04.000Z</time>
      </trkpt>
      <trkpt lat="46.02091" lon="4.6753">
        <ele>190.19999694824</ele>
        <time>2019-08-17T11:08:08.000Z</time>
      </trkpt>
      <trkpt lat="46.02102" lon="4.67514">
        <ele>190.19999694824</ele>
        <time>2019-08-17T11:08:11.000Z</time>
      </trkpt>
      <trkpt lat="46.02112" lon="4.67497">
        <ele>190.19999694824</ele>
        <time>2019-08-17T11:08:15.000Z</time>
      </trkpt>
      <trkpt lat="46.02113" lon="4.67492">
        <ele>190.19999694824</ele>
        <time>2019-08-17T11:08:18.000Z</time>
      </trkpt>
      <trkpt lat="46.02113" lon="4.67492">
        <ele>190.19999694824</ele>
        <time>2019-08-17T11:08:19.000Z</time>
      </trkpt>
    </trkseg>
  </trk>
</gpx>